<?xml version="1.0" encoding="UTF-8" standalone="no" ?>
<gpx xmlns="http://www.topografix.com/GPX/1/1" xmlns:xsi="http://www.w3.org/2001/XMLSchema-instance" xsi:schemaLocation="http://www.topografix.com/GPX/1/1 http://www.topografix.com/GPX/1/1/gpx.xsd" version="1.1" creator="VisuGPX - https://www.visugpx.com">
  <metadata>
    <name>Traces 2022</name>
    <desc><![CDATA[8 traces potentielles pour la sortie 2022 !]]></desc>
  </metadata>
  <trk>
    <name><![CDATA[Trace 6]]></name>
    <desc><![CDATA[Corniches, village troglodyte, viaduc !]]></desc>
    <extensions>
      <line xmlns="http://www.topografix.com/GPX/gpx_style/0/2">
        <color>00ff00</color>
        <width>4</width>
          <extensions>
            <sens>1</sens>
          </extensions>
      </line>
    </extensions>
    <trkseg>
      <trkpt lat="44.06673" lon="3.0574">
        <ele>686.1</ele>
        <time>2018-05-19T08:23:38Z</time>
      </trkpt>
      <trkpt lat="44.06666" lon="3.05747">
        <ele>686.8</ele>
        <time>2018-05-19T08:23:40Z</time>
      </trkpt>
      <trkpt lat="44.06668" lon="3.05744">
        <ele>686.5</ele>
        <time>2018-05-19T08:23:44Z</time>
      </trkpt>
      <trkpt lat="44.06666" lon="3.05742">
        <ele>686.4</ele>
        <time>2018-05-19T08:23:58Z</time>
      </trkpt>
      <trkpt lat="44.06662" lon="3.05743">
        <ele>686.3</ele>
        <time>2018-05-19T08:24:00Z</time>
      </trkpt>
      <trkpt lat="44.06656" lon="3.05742">
        <ele>686.1</ele>
        <time>2018-05-19T08:24:02Z</time>
      </trkpt>
      <trkpt lat="44.06653" lon="3.05741">
        <ele>686</ele>
        <time>2018-05-19T08:24:03Z</time>
      </trkpt>
      <trkpt lat="44.0665" lon="3.0574">
        <ele>685.9</ele>
        <time>2018-05-19T08:24:04Z</time>
      </trkpt>
      <trkpt lat="44.06646" lon="3.0574">
        <ele>685.8</ele>
        <time>2018-05-19T08:24:05Z</time>
      </trkpt>
      <trkpt lat="44.06643" lon="3.05739">
        <ele>685.7</ele>
        <time>2018-05-19T08:24:06Z</time>
      </trkpt>
      <trkpt lat="44.0664" lon="3.05738">
        <ele>685.6</ele>
        <time>2018-05-19T08:24:07Z</time>
      </trkpt>
      <trkpt lat="44.06635" lon="3.05736">
        <ele>685.4</ele>
        <time>2018-05-19T08:24:09Z</time>
      </trkpt>
      <trkpt lat="44.06632" lon="3.05734">
        <ele>685.3</ele>
        <time>2018-05-19T08:24:10Z</time>
      </trkpt>
      <trkpt lat="44.06629" lon="3.05731">
        <ele>685.2</ele>
        <time>2018-05-19T08:24:11Z</time>
      </trkpt>
      <trkpt lat="44.06625" lon="3.05729">
        <ele>685.1</ele>
        <time>2018-05-19T08:24:12Z</time>
      </trkpt>
      <trkpt lat="44.06621" lon="3.05722">
        <ele>684.9</ele>
        <time>2018-05-19T08:24:13Z</time>
      </trkpt>
      <trkpt lat="44.06618" lon="3.05717">
        <ele>684.8</ele>
        <time>2018-05-19T08:24:14Z</time>
      </trkpt>
      <trkpt lat="44.06613" lon="3.05714">
        <ele>684.6</ele>
        <time>2018-05-19T08:24:15Z</time>
      </trkpt>
      <trkpt lat="44.06607" lon="3.05711">
        <ele>684.4</ele>
        <time>2018-05-19T08:24:16Z</time>
      </trkpt>
      <trkpt lat="44.06601" lon="3.05706">
        <ele>683.9</ele>
        <time>2018-05-19T08:24:17Z</time>
      </trkpt>
      <trkpt lat="44.06595" lon="3.05701">
        <ele>683.2</ele>
        <time>2018-05-19T08:24:18Z</time>
      </trkpt>
      <trkpt lat="44.06588" lon="3.05696">
        <ele>681.9</ele>
        <time>2018-05-19T08:24:19Z</time>
      </trkpt>
      <trkpt lat="44.06581" lon="3.05691">
        <ele>680.4</ele>
        <time>2018-05-19T08:24:20Z</time>
      </trkpt>
      <trkpt lat="44.06577" lon="3.05689">
        <ele>679.9</ele>
        <time>2018-05-19T08:24:21Z</time>
      </trkpt>
      <trkpt lat="44.06573" lon="3.0569">
        <ele>679.6</ele>
        <time>2018-05-19T08:24:22Z</time>
      </trkpt>
      <trkpt lat="44.06571" lon="3.05691">
        <ele>679.4</ele>
        <time>2018-05-19T08:24:26Z</time>
      </trkpt>
      <trkpt lat="44.06566" lon="3.05691">
        <ele>679.1</ele>
        <time>2018-05-19T08:24:31Z</time>
      </trkpt>
      <trkpt lat="44.06561" lon="3.05691">
        <ele>678.9</ele>
        <time>2018-05-19T08:24:33Z</time>
      </trkpt>
      <trkpt lat="44.06556" lon="3.05693">
        <ele>678.6</ele>
        <time>2018-05-19T08:24:35Z</time>
      </trkpt>
      <trkpt lat="44.06553" lon="3.05695">
        <ele>678.4</ele>
        <time>2018-05-19T08:24:36Z</time>
      </trkpt>
      <trkpt lat="44.06551" lon="3.05695">
        <ele>678</ele>
        <time>2018-05-19T08:24:37Z</time>
      </trkpt>
      <trkpt lat="44.06548" lon="3.05687">
        <ele>677.2</ele>
        <time>2018-05-19T08:24:38Z</time>
      </trkpt>
      <trkpt lat="44.06544" lon="3.05683">
        <ele>676.7</ele>
        <time>2018-05-19T08:24:39Z</time>
      </trkpt>
      <trkpt lat="44.0654" lon="3.05678">
        <ele>676.4</ele>
        <time>2018-05-19T08:24:40Z</time>
      </trkpt>
      <trkpt lat="44.06537" lon="3.05673">
        <ele>676.1</ele>
        <time>2018-05-19T08:24:41Z</time>
      </trkpt>
      <trkpt lat="44.06534" lon="3.05668">
        <ele>675.9</ele>
        <time>2018-05-19T08:24:42Z</time>
      </trkpt>
      <trkpt lat="44.0653" lon="3.05664">
        <ele>675.7</ele>
        <time>2018-05-19T08:24:43Z</time>
      </trkpt>
      <trkpt lat="44.06528" lon="3.05658">
        <ele>676.1</ele>
        <time>2018-05-19T08:24:44Z</time>
      </trkpt>
      <trkpt lat="44.06527" lon="3.05653">
        <ele>676.8</ele>
        <time>2018-05-19T08:24:45Z</time>
      </trkpt>
      <trkpt lat="44.06523" lon="3.05648">
        <ele>676.9</ele>
        <time>2018-05-19T08:24:46Z</time>
      </trkpt>
      <trkpt lat="44.0652" lon="3.05644">
        <ele>676.9</ele>
        <time>2018-05-19T08:24:47Z</time>
      </trkpt>
      <trkpt lat="44.06516" lon="3.05639">
        <ele>676.9</ele>
        <time>2018-05-19T08:24:48Z</time>
      </trkpt>
      <trkpt lat="44.06513" lon="3.05633">
        <ele>677</ele>
        <time>2018-05-19T08:24:49Z</time>
      </trkpt>
      <trkpt lat="44.06509" lon="3.05629">
        <ele>677</ele>
        <time>2018-05-19T08:24:50Z</time>
      </trkpt>
      <trkpt lat="44.06505" lon="3.05624">
        <ele>677</ele>
        <time>2018-05-19T08:24:51Z</time>
      </trkpt>
      <trkpt lat="44.06502" lon="3.0562">
        <ele>677.1</ele>
        <time>2018-05-19T08:24:52Z</time>
      </trkpt>
      <trkpt lat="44.06498" lon="3.05616">
        <ele>677.2</ele>
        <time>2018-05-19T08:24:53Z</time>
      </trkpt>
      <trkpt lat="44.06494" lon="3.05612">
        <ele>677.3</ele>
        <time>2018-05-19T08:24:54Z</time>
      </trkpt>
      <trkpt lat="44.0649" lon="3.0561">
        <ele>677.4</ele>
        <time>2018-05-19T08:24:55Z</time>
      </trkpt>
      <trkpt lat="44.06487" lon="3.05608">
        <ele>677.6</ele>
        <time>2018-05-19T08:24:56Z</time>
      </trkpt>
      <trkpt lat="44.06483" lon="3.05606">
        <ele>677.7</ele>
        <time>2018-05-19T08:24:57Z</time>
      </trkpt>
      <trkpt lat="44.0648" lon="3.05605">
        <ele>677.9</ele>
        <time>2018-05-19T08:24:58Z</time>
      </trkpt>
      <trkpt lat="44.06476" lon="3.05605">
        <ele>678.2</ele>
        <time>2018-05-19T08:24:59Z</time>
      </trkpt>
      <trkpt lat="44.06473" lon="3.05604">
        <ele>678.5</ele>
        <time>2018-05-19T08:25:00Z</time>
      </trkpt>
      <trkpt lat="44.0647" lon="3.05601">
        <ele>678.7</ele>
        <time>2018-05-19T08:25:01Z</time>
      </trkpt>
      <trkpt lat="44.06468" lon="3.05597">
        <ele>679</ele>
        <time>2018-05-19T08:25:02Z</time>
      </trkpt>
      <trkpt lat="44.06465" lon="3.05596">
        <ele>679.1</ele>
        <time>2018-05-19T08:25:03Z</time>
      </trkpt>
      <trkpt lat="44.06462" lon="3.05594">
        <ele>679.3</ele>
        <time>2018-05-19T08:25:04Z</time>
      </trkpt>
      <trkpt lat="44.06458" lon="3.05591">
        <ele>679.7</ele>
        <time>2018-05-19T08:25:06Z</time>
      </trkpt>
      <trkpt lat="44.06454" lon="3.05587">
        <ele>680</ele>
        <time>2018-05-19T08:25:08Z</time>
      </trkpt>
      <trkpt lat="44.06452" lon="3.05583">
        <ele>680.4</ele>
        <time>2018-05-19T08:25:10Z</time>
      </trkpt>
      <trkpt lat="44.06451" lon="3.05578">
        <ele>680.8</ele>
        <time>2018-05-19T08:25:12Z</time>
      </trkpt>
      <trkpt lat="44.0645" lon="3.05573">
        <ele>681.2</ele>
        <time>2018-05-19T08:25:14Z</time>
      </trkpt>
      <trkpt lat="44.0645" lon="3.05568">
        <ele>681.9</ele>
        <time>2018-05-19T08:25:16Z</time>
      </trkpt>
      <trkpt lat="44.06449" lon="3.05563">
        <ele>682.7</ele>
        <time>2018-05-19T08:25:18Z</time>
      </trkpt>
      <trkpt lat="44.06447" lon="3.05559">
        <ele>683.6</ele>
        <time>2018-05-19T08:25:20Z</time>
      </trkpt>
      <trkpt lat="44.06444" lon="3.05555">
        <ele>684.7</ele>
        <time>2018-05-19T08:25:23Z</time>
      </trkpt>
      <trkpt lat="44.06444" lon="3.05551">
        <ele>685.4</ele>
        <time>2018-05-19T08:25:25Z</time>
      </trkpt>
      <trkpt lat="44.06444" lon="3.05547">
        <ele>686</ele>
        <time>2018-05-19T08:25:27Z</time>
      </trkpt>
      <trkpt lat="44.06442" lon="3.05543">
        <ele>686.7</ele>
        <time>2018-05-19T08:25:29Z</time>
      </trkpt>
      <trkpt lat="44.0644" lon="3.0554">
        <ele>687.6</ele>
        <time>2018-05-19T08:25:31Z</time>
      </trkpt>
      <trkpt lat="44.06438" lon="3.05537">
        <ele>688.7</ele>
        <time>2018-05-19T08:25:33Z</time>
      </trkpt>
      <trkpt lat="44.06437" lon="3.05534">
        <ele>689.7</ele>
        <time>2018-05-19T08:25:37Z</time>
      </trkpt>
      <trkpt lat="44.06436" lon="3.0553">
        <ele>690.9</ele>
        <time>2018-05-19T08:25:41Z</time>
      </trkpt>
      <trkpt lat="44.06436" lon="3.05517">
        <ele>694.1</ele>
        <time>2018-05-19T08:28:03Z</time>
      </trkpt>
      <trkpt lat="44.06434" lon="3.05514">
        <ele>695.7</ele>
        <time>2018-05-19T08:28:05Z</time>
      </trkpt>
      <trkpt lat="44.06431" lon="3.05512">
        <ele>696</ele>
        <time>2018-05-19T08:28:07Z</time>
      </trkpt>
      <trkpt lat="44.06428" lon="3.0551">
        <ele>696.2</ele>
        <time>2018-05-19T08:28:09Z</time>
      </trkpt>
      <trkpt lat="44.06426" lon="3.05508">
        <ele>696.5</ele>
        <time>2018-05-19T08:28:11Z</time>
      </trkpt>
      <trkpt lat="44.06423" lon="3.05506">
        <ele>696.7</ele>
        <time>2018-05-19T08:28:13Z</time>
      </trkpt>
      <trkpt lat="44.0642" lon="3.05504">
        <ele>696.9</ele>
        <time>2018-05-19T08:28:15Z</time>
      </trkpt>
      <trkpt lat="44.06418" lon="3.05501">
        <ele>697.1</ele>
        <time>2018-05-19T08:28:17Z</time>
      </trkpt>
      <trkpt lat="44.06415" lon="3.05498">
        <ele>697.3</ele>
        <time>2018-05-19T08:28:19Z</time>
      </trkpt>
      <trkpt lat="44.06412" lon="3.05494">
        <ele>697.6</ele>
        <time>2018-05-19T08:28:21Z</time>
      </trkpt>
      <trkpt lat="44.06409" lon="3.05491">
        <ele>698.1</ele>
        <time>2018-05-19T08:28:23Z</time>
      </trkpt>
      <trkpt lat="44.06407" lon="3.05487">
        <ele>698.6</ele>
        <time>2018-05-19T08:28:25Z</time>
      </trkpt>
      <trkpt lat="44.06404" lon="3.05483">
        <ele>699</ele>
        <time>2018-05-19T08:28:27Z</time>
      </trkpt>
      <trkpt lat="44.06401" lon="3.05479">
        <ele>699.6</ele>
        <time>2018-05-19T08:28:29Z</time>
      </trkpt>
      <trkpt lat="44.06398" lon="3.05474">
        <ele>700.2</ele>
        <time>2018-05-19T08:28:31Z</time>
      </trkpt>
      <trkpt lat="44.06395" lon="3.0547">
        <ele>700.7</ele>
        <time>2018-05-19T08:28:33Z</time>
      </trkpt>
      <trkpt lat="44.06392" lon="3.05466">
        <ele>701.2</ele>
        <time>2018-05-19T08:28:35Z</time>
      </trkpt>
      <trkpt lat="44.0639" lon="3.05461">
        <ele>701.9</ele>
        <time>2018-05-19T08:28:37Z</time>
      </trkpt>
      <trkpt lat="44.06388" lon="3.05457">
        <ele>702.6</ele>
        <time>2018-05-19T08:28:39Z</time>
      </trkpt>
      <trkpt lat="44.06385" lon="3.05453">
        <ele>703.2</ele>
        <time>2018-05-19T08:28:41Z</time>
      </trkpt>
      <trkpt lat="44.06382" lon="3.0545">
        <ele>703.7</ele>
        <time>2018-05-19T08:28:43Z</time>
      </trkpt>
      <trkpt lat="44.06379" lon="3.05448">
        <ele>704.5</ele>
        <time>2018-05-19T08:28:45Z</time>
      </trkpt>
      <trkpt lat="44.06376" lon="3.05447">
        <ele>704.9</ele>
        <time>2018-05-19T08:28:47Z</time>
      </trkpt>
      <trkpt lat="44.06372" lon="3.05446">
        <ele>705.4</ele>
        <time>2018-05-19T08:28:49Z</time>
      </trkpt>
      <trkpt lat="44.06368" lon="3.05445">
        <ele>706</ele>
        <time>2018-05-19T08:28:51Z</time>
      </trkpt>
      <trkpt lat="44.06364" lon="3.05443">
        <ele>706.7</ele>
        <time>2018-05-19T08:28:53Z</time>
      </trkpt>
      <trkpt lat="44.06361" lon="3.05442">
        <ele>707.6</ele>
        <time>2018-05-19T08:28:55Z</time>
      </trkpt>
      <trkpt lat="44.06357" lon="3.05441">
        <ele>708.7</ele>
        <time>2018-05-19T08:28:57Z</time>
      </trkpt>
      <trkpt lat="44.06353" lon="3.05441">
        <ele>709.2</ele>
        <time>2018-05-19T08:28:59Z</time>
      </trkpt>
      <trkpt lat="44.06349" lon="3.05439">
        <ele>709.7</ele>
        <time>2018-05-19T08:29:01Z</time>
      </trkpt>
      <trkpt lat="44.06346" lon="3.05438">
        <ele>710.4</ele>
        <time>2018-05-19T08:29:03Z</time>
      </trkpt>
      <trkpt lat="44.06342" lon="3.05437">
        <ele>711</ele>
        <time>2018-05-19T08:29:05Z</time>
      </trkpt>
      <trkpt lat="44.06338" lon="3.05436">
        <ele>711.7</ele>
        <time>2018-05-19T08:29:07Z</time>
      </trkpt>
      <trkpt lat="44.06334" lon="3.05435">
        <ele>712.5</ele>
        <time>2018-05-19T08:29:09Z</time>
      </trkpt>
      <trkpt lat="44.0633" lon="3.05434">
        <ele>713</ele>
        <time>2018-05-19T08:29:11Z</time>
      </trkpt>
      <trkpt lat="44.06326" lon="3.05433">
        <ele>713.5</ele>
        <time>2018-05-19T08:29:13Z</time>
      </trkpt>
      <trkpt lat="44.06323" lon="3.05431">
        <ele>713.8</ele>
        <time>2018-05-19T08:29:15Z</time>
      </trkpt>
      <trkpt lat="44.06319" lon="3.05429">
        <ele>714.2</ele>
        <time>2018-05-19T08:29:17Z</time>
      </trkpt>
      <trkpt lat="44.06316" lon="3.05427">
        <ele>714.7</ele>
        <time>2018-05-19T08:29:19Z</time>
      </trkpt>
      <trkpt lat="44.06313" lon="3.05425">
        <ele>715</ele>
        <time>2018-05-19T08:29:21Z</time>
      </trkpt>
      <trkpt lat="44.06309" lon="3.05423">
        <ele>715.3</ele>
        <time>2018-05-19T08:29:23Z</time>
      </trkpt>
      <trkpt lat="44.06306" lon="3.0542">
        <ele>715.6</ele>
        <time>2018-05-19T08:29:25Z</time>
      </trkpt>
      <trkpt lat="44.06304" lon="3.05418">
        <ele>715.8</ele>
        <time>2018-05-19T08:29:27Z</time>
      </trkpt>
      <trkpt lat="44.063" lon="3.05416">
        <ele>716.2</ele>
        <time>2018-05-19T08:29:29Z</time>
      </trkpt>
      <trkpt lat="44.06298" lon="3.05413">
        <ele>716.5</ele>
        <time>2018-05-19T08:29:31Z</time>
      </trkpt>
      <trkpt lat="44.06296" lon="3.05409">
        <ele>717.1</ele>
        <time>2018-05-19T08:29:33Z</time>
      </trkpt>
      <trkpt lat="44.06293" lon="3.05406">
        <ele>717.6</ele>
        <time>2018-05-19T08:29:35Z</time>
      </trkpt>
      <trkpt lat="44.0629" lon="3.05403">
        <ele>718.1</ele>
        <time>2018-05-19T08:29:37Z</time>
      </trkpt>
      <trkpt lat="44.06287" lon="3.054">
        <ele>718.7</ele>
        <time>2018-05-19T08:29:39Z</time>
      </trkpt>
      <trkpt lat="44.06284" lon="3.05397">
        <ele>719.2</ele>
        <time>2018-05-19T08:29:41Z</time>
      </trkpt>
      <trkpt lat="44.06281" lon="3.05394">
        <ele>719.7</ele>
        <time>2018-05-19T08:29:43Z</time>
      </trkpt>
      <trkpt lat="44.06278" lon="3.05391">
        <ele>720.1</ele>
        <time>2018-05-19T08:29:45Z</time>
      </trkpt>
      <trkpt lat="44.06276" lon="3.05388">
        <ele>720.5</ele>
        <time>2018-05-19T08:29:47Z</time>
      </trkpt>
      <trkpt lat="44.06273" lon="3.05386">
        <ele>720.9</ele>
        <time>2018-05-19T08:29:49Z</time>
      </trkpt>
      <trkpt lat="44.0627" lon="3.05383">
        <ele>721.3</ele>
        <time>2018-05-19T08:29:51Z</time>
      </trkpt>
      <trkpt lat="44.06268" lon="3.05381">
        <ele>721.8</ele>
        <time>2018-05-19T08:29:53Z</time>
      </trkpt>
      <trkpt lat="44.06265" lon="3.05379">
        <ele>722.2</ele>
        <time>2018-05-19T08:29:55Z</time>
      </trkpt>
      <trkpt lat="44.06263" lon="3.05377">
        <ele>722.6</ele>
        <time>2018-05-19T08:29:57Z</time>
      </trkpt>
      <trkpt lat="44.0626" lon="3.05375">
        <ele>723</ele>
        <time>2018-05-19T08:29:59Z</time>
      </trkpt>
      <trkpt lat="44.06258" lon="3.05372">
        <ele>723.4</ele>
        <time>2018-05-19T08:30:01Z</time>
      </trkpt>
      <trkpt lat="44.06255" lon="3.0537">
        <ele>723.8</ele>
        <time>2018-05-19T08:30:03Z</time>
      </trkpt>
      <trkpt lat="44.06252" lon="3.05368">
        <ele>724.1</ele>
        <time>2018-05-19T08:30:05Z</time>
      </trkpt>
      <trkpt lat="44.06249" lon="3.05366">
        <ele>724.9</ele>
        <time>2018-05-19T08:30:08Z</time>
      </trkpt>
      <trkpt lat="44.06246" lon="3.05361">
        <ele>725.6</ele>
        <time>2018-05-19T08:30:11Z</time>
      </trkpt>
      <trkpt lat="44.06245" lon="3.05357">
        <ele>726.2</ele>
        <time>2018-05-19T08:30:13Z</time>
      </trkpt>
      <trkpt lat="44.06245" lon="3.05352">
        <ele>726.8</ele>
        <time>2018-05-19T08:30:15Z</time>
      </trkpt>
      <trkpt lat="44.06243" lon="3.05347">
        <ele>727.5</ele>
        <time>2018-05-19T08:30:17Z</time>
      </trkpt>
      <trkpt lat="44.06242" lon="3.05343">
        <ele>728</ele>
        <time>2018-05-19T08:30:19Z</time>
      </trkpt>
      <trkpt lat="44.0624" lon="3.05338">
        <ele>728.8</ele>
        <time>2018-05-19T08:30:22Z</time>
      </trkpt>
      <trkpt lat="44.0624" lon="3.05334">
        <ele>729.5</ele>
        <time>2018-05-19T08:30:24Z</time>
      </trkpt>
      <trkpt lat="44.06239" lon="3.05329">
        <ele>730.3</ele>
        <time>2018-05-19T08:30:26Z</time>
      </trkpt>
      <trkpt lat="44.06238" lon="3.05324">
        <ele>730.8</ele>
        <time>2018-05-19T08:30:28Z</time>
      </trkpt>
      <trkpt lat="44.06238" lon="3.0532">
        <ele>731.2</ele>
        <time>2018-05-19T08:30:30Z</time>
      </trkpt>
      <trkpt lat="44.06238" lon="3.05315">
        <ele>731.8</ele>
        <time>2018-05-19T08:30:32Z</time>
      </trkpt>
      <trkpt lat="44.06238" lon="3.05311">
        <ele>732.3</ele>
        <time>2018-05-19T08:30:34Z</time>
      </trkpt>
      <trkpt lat="44.06237" lon="3.05306">
        <ele>733.2</ele>
        <time>2018-05-19T08:30:37Z</time>
      </trkpt>
      <trkpt lat="44.06237" lon="3.05301">
        <ele>734</ele>
        <time>2018-05-19T08:30:39Z</time>
      </trkpt>
      <trkpt lat="44.06237" lon="3.05296">
        <ele>734.7</ele>
        <time>2018-05-19T08:30:41Z</time>
      </trkpt>
      <trkpt lat="44.06236" lon="3.05291">
        <ele>735.5</ele>
        <time>2018-05-19T08:30:43Z</time>
      </trkpt>
      <trkpt lat="44.06236" lon="3.05287">
        <ele>736.1</ele>
        <time>2018-05-19T08:30:45Z</time>
      </trkpt>
      <trkpt lat="44.06236" lon="3.05283">
        <ele>736.7</ele>
        <time>2018-05-19T08:30:47Z</time>
      </trkpt>
      <trkpt lat="44.06236" lon="3.05277">
        <ele>737.4</ele>
        <time>2018-05-19T08:30:50Z</time>
      </trkpt>
      <trkpt lat="44.06237" lon="3.05273">
        <ele>738.2</ele>
        <time>2018-05-19T08:30:52Z</time>
      </trkpt>
      <trkpt lat="44.06238" lon="3.05268">
        <ele>738.9</ele>
        <time>2018-05-19T08:30:54Z</time>
      </trkpt>
      <trkpt lat="44.06239" lon="3.05264">
        <ele>739.5</ele>
        <time>2018-05-19T08:30:56Z</time>
      </trkpt>
      <trkpt lat="44.06239" lon="3.0526">
        <ele>740</ele>
        <time>2018-05-19T08:30:58Z</time>
      </trkpt>
      <trkpt lat="44.06239" lon="3.05255">
        <ele>740.6</ele>
        <time>2018-05-19T08:31:01Z</time>
      </trkpt>
      <trkpt lat="44.06239" lon="3.0525">
        <ele>741.8</ele>
        <time>2018-05-19T08:31:04Z</time>
      </trkpt>
      <trkpt lat="44.06239" lon="3.05245">
        <ele>743.1</ele>
        <time>2018-05-19T08:31:07Z</time>
      </trkpt>
      <trkpt lat="44.06239" lon="3.0524">
        <ele>743.8</ele>
        <time>2018-05-19T08:31:09Z</time>
      </trkpt>
      <trkpt lat="44.06239" lon="3.05236">
        <ele>744.5</ele>
        <time>2018-05-19T08:31:12Z</time>
      </trkpt>
      <trkpt lat="44.06239" lon="3.05232">
        <ele>745.4</ele>
        <time>2018-05-19T08:31:14Z</time>
      </trkpt>
      <trkpt lat="44.06239" lon="3.05228">
        <ele>745.9</ele>
        <time>2018-05-19T08:31:16Z</time>
      </trkpt>
      <trkpt lat="44.06239" lon="3.05224">
        <ele>746.5</ele>
        <time>2018-05-19T08:31:18Z</time>
      </trkpt>
      <trkpt lat="44.0624" lon="3.05219">
        <ele>747</ele>
        <time>2018-05-19T08:31:20Z</time>
      </trkpt>
      <trkpt lat="44.0624" lon="3.05215">
        <ele>747.6</ele>
        <time>2018-05-19T08:31:23Z</time>
      </trkpt>
      <trkpt lat="44.0624" lon="3.0521">
        <ele>748.5</ele>
        <time>2018-05-19T08:31:26Z</time>
      </trkpt>
      <trkpt lat="44.0624" lon="3.05205">
        <ele>749.3</ele>
        <time>2018-05-19T08:31:29Z</time>
      </trkpt>
      <trkpt lat="44.0624" lon="3.05201">
        <ele>750</ele>
        <time>2018-05-19T08:31:32Z</time>
      </trkpt>
      <trkpt lat="44.06239" lon="3.05196">
        <ele>751</ele>
        <time>2018-05-19T08:31:36Z</time>
      </trkpt>
      <trkpt lat="44.06238" lon="3.05192">
        <ele>751.8</ele>
        <time>2018-05-19T08:31:39Z</time>
      </trkpt>
      <trkpt lat="44.06235" lon="3.05188">
        <ele>752.7</ele>
        <time>2018-05-19T08:31:42Z</time>
      </trkpt>
      <trkpt lat="44.06232" lon="3.05187">
        <ele>753.7</ele>
        <time>2018-05-19T08:31:45Z</time>
      </trkpt>
      <trkpt lat="44.0623" lon="3.05184">
        <ele>754.3</ele>
        <time>2018-05-19T08:31:48Z</time>
      </trkpt>
      <trkpt lat="44.06226" lon="3.05182">
        <ele>755.4</ele>
        <time>2018-05-19T08:31:51Z</time>
      </trkpt>
      <trkpt lat="44.06223" lon="3.0518">
        <ele>756</ele>
        <time>2018-05-19T08:31:54Z</time>
      </trkpt>
      <trkpt lat="44.06221" lon="3.05179">
        <ele>756.5</ele>
        <time>2018-05-19T08:31:57Z</time>
      </trkpt>
      <trkpt lat="44.06218" lon="3.05176">
        <ele>757</ele>
        <time>2018-05-19T08:32:01Z</time>
      </trkpt>
      <trkpt lat="44.06215" lon="3.05173">
        <ele>757.6</ele>
        <time>2018-05-19T08:32:04Z</time>
      </trkpt>
      <trkpt lat="44.06213" lon="3.05169">
        <ele>758.1</ele>
        <time>2018-05-19T08:32:07Z</time>
      </trkpt>
      <trkpt lat="44.06212" lon="3.05165">
        <ele>758.4</ele>
        <time>2018-05-19T08:32:11Z</time>
      </trkpt>
      <trkpt lat="44.06213" lon="3.05161">
        <ele>758.8</ele>
        <time>2018-05-19T08:32:14Z</time>
      </trkpt>
      <trkpt lat="44.06213" lon="3.05157">
        <ele>759.2</ele>
        <time>2018-05-19T08:32:17Z</time>
      </trkpt>
      <trkpt lat="44.06213" lon="3.05152">
        <ele>759.6</ele>
        <time>2018-05-19T08:32:20Z</time>
      </trkpt>
      <trkpt lat="44.06213" lon="3.05147">
        <ele>759.9</ele>
        <time>2018-05-19T08:32:23Z</time>
      </trkpt>
      <trkpt lat="44.06213" lon="3.05141">
        <ele>760.3</ele>
        <time>2018-05-19T08:32:26Z</time>
      </trkpt>
      <trkpt lat="44.06214" lon="3.05137">
        <ele>760.7</ele>
        <time>2018-05-19T08:32:28Z</time>
      </trkpt>
      <trkpt lat="44.06214" lon="3.05133">
        <ele>761.1</ele>
        <time>2018-05-19T08:32:30Z</time>
      </trkpt>
      <trkpt lat="44.06214" lon="3.05128">
        <ele>761.4</ele>
        <time>2018-05-19T08:32:32Z</time>
      </trkpt>
      <trkpt lat="44.06214" lon="3.05125">
        <ele>761.6</ele>
        <time>2018-05-19T08:32:34Z</time>
      </trkpt>
      <trkpt lat="44.06214" lon="3.0512">
        <ele>762.1</ele>
        <time>2018-05-19T08:32:37Z</time>
      </trkpt>
      <trkpt lat="44.06214" lon="3.05115">
        <ele>762.5</ele>
        <time>2018-05-19T08:32:40Z</time>
      </trkpt>
      <trkpt lat="44.06214" lon="3.05112">
        <ele>762.9</ele>
        <time>2018-05-19T08:32:42Z</time>
      </trkpt>
      <trkpt lat="44.06215" lon="3.05107">
        <ele>763.4</ele>
        <time>2018-05-19T08:32:45Z</time>
      </trkpt>
      <trkpt lat="44.06215" lon="3.05101">
        <ele>763.9</ele>
        <time>2018-05-19T08:32:48Z</time>
      </trkpt>
      <trkpt lat="44.06215" lon="3.05096">
        <ele>764.6</ele>
        <time>2018-05-19T08:32:51Z</time>
      </trkpt>
      <trkpt lat="44.06214" lon="3.0509">
        <ele>765</ele>
        <time>2018-05-19T08:32:54Z</time>
      </trkpt>
      <trkpt lat="44.06214" lon="3.05086">
        <ele>765.4</ele>
        <time>2018-05-19T08:32:56Z</time>
      </trkpt>
      <trkpt lat="44.06213" lon="3.05081">
        <ele>765.9</ele>
        <time>2018-05-19T08:32:58Z</time>
      </trkpt>
      <trkpt lat="44.06212" lon="3.05077">
        <ele>766.3</ele>
        <time>2018-05-19T08:33:00Z</time>
      </trkpt>
      <trkpt lat="44.0621" lon="3.05074">
        <ele>766.7</ele>
        <time>2018-05-19T08:33:03Z</time>
      </trkpt>
      <trkpt lat="44.06207" lon="3.05071">
        <ele>767.2</ele>
        <time>2018-05-19T08:33:06Z</time>
      </trkpt>
      <trkpt lat="44.06204" lon="3.0507">
        <ele>767.5</ele>
        <time>2018-05-19T08:33:09Z</time>
      </trkpt>
      <trkpt lat="44.062" lon="3.05069">
        <ele>767.7</ele>
        <time>2018-05-19T08:33:12Z</time>
      </trkpt>
      <trkpt lat="44.06196" lon="3.05069">
        <ele>770.8</ele>
        <time>2018-05-19T08:33:15Z</time>
      </trkpt>
      <trkpt lat="44.06193" lon="3.05069">
        <ele>771.5</ele>
        <time>2018-05-19T08:33:17Z</time>
      </trkpt>
      <trkpt lat="44.0619" lon="3.05068">
        <ele>771.1</ele>
        <time>2018-05-19T08:33:19Z</time>
      </trkpt>
      <trkpt lat="44.06187" lon="3.05068">
        <ele>771.8</ele>
        <time>2018-05-19T08:33:21Z</time>
      </trkpt>
      <trkpt lat="44.06183" lon="3.05068">
        <ele>772.3</ele>
        <time>2018-05-19T08:33:23Z</time>
      </trkpt>
      <trkpt lat="44.0618" lon="3.05068">
        <ele>772.8</ele>
        <time>2018-05-19T08:33:25Z</time>
      </trkpt>
      <trkpt lat="44.06176" lon="3.05068">
        <ele>773.4</ele>
        <time>2018-05-19T08:33:27Z</time>
      </trkpt>
      <trkpt lat="44.06173" lon="3.05067">
        <ele>774.2</ele>
        <time>2018-05-19T08:33:29Z</time>
      </trkpt>
      <trkpt lat="44.0617" lon="3.05067">
        <ele>774.5</ele>
        <time>2018-05-19T08:33:31Z</time>
      </trkpt>
      <trkpt lat="44.06166" lon="3.05066">
        <ele>774.7</ele>
        <time>2018-05-19T08:33:33Z</time>
      </trkpt>
      <trkpt lat="44.06162" lon="3.05065">
        <ele>775</ele>
        <time>2018-05-19T08:33:35Z</time>
      </trkpt>
      <trkpt lat="44.06159" lon="3.05064">
        <ele>775.3</ele>
        <time>2018-05-19T08:33:37Z</time>
      </trkpt>
      <trkpt lat="44.06156" lon="3.05063">
        <ele>775.5</ele>
        <time>2018-05-19T08:33:39Z</time>
      </trkpt>
      <trkpt lat="44.06152" lon="3.05063">
        <ele>775.7</ele>
        <time>2018-05-19T08:33:41Z</time>
      </trkpt>
      <trkpt lat="44.06149" lon="3.05061">
        <ele>775.9</ele>
        <time>2018-05-19T08:33:43Z</time>
      </trkpt>
      <trkpt lat="44.06146" lon="3.0506">
        <ele>776.1</ele>
        <time>2018-05-19T08:33:45Z</time>
      </trkpt>
      <trkpt lat="44.06144" lon="3.05057">
        <ele>776.3</ele>
        <time>2018-05-19T08:33:47Z</time>
      </trkpt>
      <trkpt lat="44.06142" lon="3.05053">
        <ele>776.4</ele>
        <time>2018-05-19T08:33:49Z</time>
      </trkpt>
      <trkpt lat="44.0614" lon="3.0505">
        <ele>776.5</ele>
        <time>2018-05-19T08:33:51Z</time>
      </trkpt>
      <trkpt lat="44.06137" lon="3.05047">
        <ele>776.5</ele>
        <time>2018-05-19T08:33:54Z</time>
      </trkpt>
      <trkpt lat="44.06134" lon="3.05046">
        <ele>776.6</ele>
        <time>2018-05-19T08:33:58Z</time>
      </trkpt>
      <trkpt lat="44.06132" lon="3.05042">
        <ele>776.6</ele>
        <time>2018-05-19T08:34:01Z</time>
      </trkpt>
      <trkpt lat="44.06131" lon="3.05037">
        <ele>776.6</ele>
        <time>2018-05-19T08:34:04Z</time>
      </trkpt>
      <trkpt lat="44.06132" lon="3.05033">
        <ele>776.6</ele>
        <time>2018-05-19T08:34:06Z</time>
      </trkpt>
      <trkpt lat="44.06132" lon="3.05028">
        <ele>776.6</ele>
        <time>2018-05-19T08:34:08Z</time>
      </trkpt>
      <trkpt lat="44.06132" lon="3.05024">
        <ele>776.6</ele>
        <time>2018-05-19T08:34:10Z</time>
      </trkpt>
      <trkpt lat="44.06132" lon="3.0502">
        <ele>776.6</ele>
        <time>2018-05-19T08:34:12Z</time>
      </trkpt>
      <trkpt lat="44.06132" lon="3.05015">
        <ele>776.6</ele>
        <time>2018-05-19T08:34:14Z</time>
      </trkpt>
      <trkpt lat="44.06131" lon="3.05011">
        <ele>776.5</ele>
        <time>2018-05-19T08:34:16Z</time>
      </trkpt>
      <trkpt lat="44.06131" lon="3.05006">
        <ele>776.5</ele>
        <time>2018-05-19T08:34:18Z</time>
      </trkpt>
      <trkpt lat="44.06131" lon="3.05002">
        <ele>776.5</ele>
        <time>2018-05-19T08:34:20Z</time>
      </trkpt>
      <trkpt lat="44.06132" lon="3.04998">
        <ele>776.5</ele>
        <time>2018-05-19T08:34:27Z</time>
      </trkpt>
      <trkpt lat="44.06132" lon="3.04994">
        <ele>776.5</ele>
        <time>2018-05-19T08:34:56Z</time>
      </trkpt>
      <trkpt lat="44.06131" lon="3.04989">
        <ele>776.5</ele>
        <time>2018-05-19T08:34:59Z</time>
      </trkpt>
      <trkpt lat="44.06131" lon="3.04985">
        <ele>776.5</ele>
        <time>2018-05-19T08:35:01Z</time>
      </trkpt>
      <trkpt lat="44.0613" lon="3.0498">
        <ele>776.4</ele>
        <time>2018-05-19T08:35:03Z</time>
      </trkpt>
      <trkpt lat="44.06129" lon="3.04974">
        <ele>776.4</ele>
        <time>2018-05-19T08:35:05Z</time>
      </trkpt>
      <trkpt lat="44.06127" lon="3.04968">
        <ele>776.4</ele>
        <time>2018-05-19T08:35:07Z</time>
      </trkpt>
      <trkpt lat="44.06127" lon="3.04964">
        <ele>776.4</ele>
        <time>2018-05-19T08:35:08Z</time>
      </trkpt>
      <trkpt lat="44.06126" lon="3.0496">
        <ele>776.5</ele>
        <time>2018-05-19T08:35:09Z</time>
      </trkpt>
      <trkpt lat="44.06126" lon="3.04953">
        <ele>776.5</ele>
        <time>2018-05-19T08:35:11Z</time>
      </trkpt>
      <trkpt lat="44.06127" lon="3.04945">
        <ele>776.5</ele>
        <time>2018-05-19T08:35:13Z</time>
      </trkpt>
      <trkpt lat="44.06127" lon="3.04941">
        <ele>776.5</ele>
        <time>2018-05-19T08:35:14Z</time>
      </trkpt>
      <trkpt lat="44.06128" lon="3.04936">
        <ele>776.5</ele>
        <time>2018-05-19T08:35:15Z</time>
      </trkpt>
      <trkpt lat="44.0613" lon="3.0493">
        <ele>776.5</ele>
        <time>2018-05-19T08:35:16Z</time>
      </trkpt>
      <trkpt lat="44.06132" lon="3.04924">
        <ele>776.5</ele>
        <time>2018-05-19T08:35:17Z</time>
      </trkpt>
      <trkpt lat="44.06134" lon="3.04918">
        <ele>776.5</ele>
        <time>2018-05-19T08:35:18Z</time>
      </trkpt>
      <trkpt lat="44.06136" lon="3.04912">
        <ele>776.5</ele>
        <time>2018-05-19T08:35:19Z</time>
      </trkpt>
      <trkpt lat="44.06137" lon="3.04907">
        <ele>776.5</ele>
        <time>2018-05-19T08:35:20Z</time>
      </trkpt>
      <trkpt lat="44.06138" lon="3.04901">
        <ele>776.5</ele>
        <time>2018-05-19T08:35:21Z</time>
      </trkpt>
      <trkpt lat="44.06139" lon="3.04896">
        <ele>776.4</ele>
        <time>2018-05-19T08:35:22Z</time>
      </trkpt>
      <trkpt lat="44.0614" lon="3.04891">
        <ele>776.4</ele>
        <time>2018-05-19T08:35:23Z</time>
      </trkpt>
      <trkpt lat="44.0614" lon="3.04887">
        <ele>776.4</ele>
        <time>2018-05-19T08:35:24Z</time>
      </trkpt>
      <trkpt lat="44.06141" lon="3.04882">
        <ele>776.3</ele>
        <time>2018-05-19T08:35:26Z</time>
      </trkpt>
      <trkpt lat="44.06142" lon="3.04877">
        <ele>776.3</ele>
        <time>2018-05-19T08:35:28Z</time>
      </trkpt>
      <trkpt lat="44.06143" lon="3.04871">
        <ele>776.2</ele>
        <time>2018-05-19T08:35:30Z</time>
      </trkpt>
      <trkpt lat="44.06145" lon="3.04865">
        <ele>776.1</ele>
        <time>2018-05-19T08:35:32Z</time>
      </trkpt>
      <trkpt lat="44.06146" lon="3.04861">
        <ele>776.1</ele>
        <time>2018-05-19T08:35:33Z</time>
      </trkpt>
      <trkpt lat="44.06148" lon="3.04857">
        <ele>776</ele>
        <time>2018-05-19T08:35:34Z</time>
      </trkpt>
      <trkpt lat="44.0615" lon="3.04853">
        <ele>775.9</ele>
        <time>2018-05-19T08:35:35Z</time>
      </trkpt>
      <trkpt lat="44.06151" lon="3.04849">
        <ele>775.8</ele>
        <time>2018-05-19T08:35:36Z</time>
      </trkpt>
      <trkpt lat="44.06152" lon="3.04845">
        <ele>775.6</ele>
        <time>2018-05-19T08:35:37Z</time>
      </trkpt>
      <trkpt lat="44.06154" lon="3.04841">
        <ele>775.5</ele>
        <time>2018-05-19T08:35:38Z</time>
      </trkpt>
      <trkpt lat="44.06154" lon="3.04836">
        <ele>775.3</ele>
        <time>2018-05-19T08:35:39Z</time>
      </trkpt>
      <trkpt lat="44.06155" lon="3.04832">
        <ele>775.2</ele>
        <time>2018-05-19T08:35:40Z</time>
      </trkpt>
      <trkpt lat="44.06156" lon="3.04827">
        <ele>775.1</ele>
        <time>2018-05-19T08:35:41Z</time>
      </trkpt>
      <trkpt lat="44.06156" lon="3.04822">
        <ele>775</ele>
        <time>2018-05-19T08:35:42Z</time>
      </trkpt>
      <trkpt lat="44.06156" lon="3.04816">
        <ele>774.9</ele>
        <time>2018-05-19T08:35:43Z</time>
      </trkpt>
      <trkpt lat="44.06157" lon="3.04811">
        <ele>774.7</ele>
        <time>2018-05-19T08:35:44Z</time>
      </trkpt>
      <trkpt lat="44.06157" lon="3.04806">
        <ele>774.6</ele>
        <time>2018-05-19T08:35:45Z</time>
      </trkpt>
      <trkpt lat="44.06158" lon="3.048">
        <ele>774.5</ele>
        <time>2018-05-19T08:35:46Z</time>
      </trkpt>
      <trkpt lat="44.06159" lon="3.04794">
        <ele>774.3</ele>
        <time>2018-05-19T08:35:47Z</time>
      </trkpt>
      <trkpt lat="44.06161" lon="3.04788">
        <ele>774.2</ele>
        <time>2018-05-19T08:35:48Z</time>
      </trkpt>
      <trkpt lat="44.06162" lon="3.04782">
        <ele>774</ele>
        <time>2018-05-19T08:35:49Z</time>
      </trkpt>
      <trkpt lat="44.06163" lon="3.04775">
        <ele>773.7</ele>
        <time>2018-05-19T08:35:50Z</time>
      </trkpt>
      <trkpt lat="44.06165" lon="3.04769">
        <ele>773.4</ele>
        <time>2018-05-19T08:35:51Z</time>
      </trkpt>
      <trkpt lat="44.06167" lon="3.04763">
        <ele>773.2</ele>
        <time>2018-05-19T08:35:52Z</time>
      </trkpt>
      <trkpt lat="44.06169" lon="3.0476">
        <ele>773</ele>
        <time>2018-05-19T08:35:53Z</time>
      </trkpt>
      <trkpt lat="44.06171" lon="3.04757">
        <ele>772.8</ele>
        <time>2018-05-19T08:35:54Z</time>
      </trkpt>
      <trkpt lat="44.06174" lon="3.04755">
        <ele>772.6</ele>
        <time>2018-05-19T08:36:07Z</time>
      </trkpt>
      <trkpt lat="44.06176" lon="3.04754">
        <ele>772.4</ele>
        <time>2018-05-19T08:36:22Z</time>
      </trkpt>
      <trkpt lat="44.06178" lon="3.0475">
        <ele>772.1</ele>
        <time>2018-05-19T08:36:28Z</time>
      </trkpt>
      <trkpt lat="44.0618" lon="3.04747">
        <ele>771.7</ele>
        <time>2018-05-19T08:36:29Z</time>
      </trkpt>
      <trkpt lat="44.06183" lon="3.04742">
        <ele>771.3</ele>
        <time>2018-05-19T08:36:30Z</time>
      </trkpt>
      <trkpt lat="44.06185" lon="3.04738">
        <ele>770.9</ele>
        <time>2018-05-19T08:36:31Z</time>
      </trkpt>
      <trkpt lat="44.0619" lon="3.04731">
        <ele>770.1</ele>
        <time>2018-05-19T08:36:32Z</time>
      </trkpt>
      <trkpt lat="44.06194" lon="3.04726">
        <ele>769.5</ele>
        <time>2018-05-19T08:36:33Z</time>
      </trkpt>
      <trkpt lat="44.06198" lon="3.0472">
        <ele>769</ele>
        <time>2018-05-19T08:36:34Z</time>
      </trkpt>
      <trkpt lat="44.06202" lon="3.04714">
        <ele>768.5</ele>
        <time>2018-05-19T08:36:35Z</time>
      </trkpt>
      <trkpt lat="44.06207" lon="3.04706">
        <ele>768</ele>
        <time>2018-05-19T08:36:36Z</time>
      </trkpt>
      <trkpt lat="44.06212" lon="3.04697">
        <ele>767.3</ele>
        <time>2018-05-19T08:36:37Z</time>
      </trkpt>
      <trkpt lat="44.06217" lon="3.04688">
        <ele>766.7</ele>
        <time>2018-05-19T08:36:38Z</time>
      </trkpt>
      <trkpt lat="44.06222" lon="3.0468">
        <ele>766.1</ele>
        <time>2018-05-19T08:36:39Z</time>
      </trkpt>
      <trkpt lat="44.06228" lon="3.04673">
        <ele>765.5</ele>
        <time>2018-05-19T08:36:40Z</time>
      </trkpt>
      <trkpt lat="44.06232" lon="3.04666">
        <ele>764.9</ele>
        <time>2018-05-19T08:36:41Z</time>
      </trkpt>
      <trkpt lat="44.06234" lon="3.04658">
        <ele>764.3</ele>
        <time>2018-05-19T08:36:42Z</time>
      </trkpt>
      <trkpt lat="44.06235" lon="3.04649">
        <ele>764.1</ele>
        <time>2018-05-19T08:36:43Z</time>
      </trkpt>
      <trkpt lat="44.06236" lon="3.04639">
        <ele>763.7</ele>
        <time>2018-05-19T08:36:44Z</time>
      </trkpt>
      <trkpt lat="44.06238" lon="3.04631">
        <ele>763.4</ele>
        <time>2018-05-19T08:36:45Z</time>
      </trkpt>
      <trkpt lat="44.0624" lon="3.04622">
        <ele>763.1</ele>
        <time>2018-05-19T08:36:46Z</time>
      </trkpt>
      <trkpt lat="44.06242" lon="3.04613">
        <ele>762.8</ele>
        <time>2018-05-19T08:36:47Z</time>
      </trkpt>
      <trkpt lat="44.06244" lon="3.04604">
        <ele>762.6</ele>
        <time>2018-05-19T08:36:48Z</time>
      </trkpt>
      <trkpt lat="44.06247" lon="3.04595">
        <ele>762.3</ele>
        <time>2018-05-19T08:36:49Z</time>
      </trkpt>
      <trkpt lat="44.06249" lon="3.04586">
        <ele>762</ele>
        <time>2018-05-19T08:36:50Z</time>
      </trkpt>
      <trkpt lat="44.06251" lon="3.04576">
        <ele>761.7</ele>
        <time>2018-05-19T08:36:51Z</time>
      </trkpt>
      <trkpt lat="44.06253" lon="3.04567">
        <ele>761.3</ele>
        <time>2018-05-19T08:36:52Z</time>
      </trkpt>
      <trkpt lat="44.06257" lon="3.0456">
        <ele>760.8</ele>
        <time>2018-05-19T08:36:53Z</time>
      </trkpt>
      <trkpt lat="44.06259" lon="3.04551">
        <ele>760.4</ele>
        <time>2018-05-19T08:36:54Z</time>
      </trkpt>
      <trkpt lat="44.06261" lon="3.04541">
        <ele>760</ele>
        <time>2018-05-19T08:36:55Z</time>
      </trkpt>
      <trkpt lat="44.06264" lon="3.04531">
        <ele>759.5</ele>
        <time>2018-05-19T08:36:56Z</time>
      </trkpt>
      <trkpt lat="44.06266" lon="3.0452">
        <ele>759.3</ele>
        <time>2018-05-19T08:36:57Z</time>
      </trkpt>
      <trkpt lat="44.06269" lon="3.04511">
        <ele>759.2</ele>
        <time>2018-05-19T08:36:58Z</time>
      </trkpt>
      <trkpt lat="44.06273" lon="3.04503">
        <ele>759.1</ele>
        <time>2018-05-19T08:36:59Z</time>
      </trkpt>
      <trkpt lat="44.06276" lon="3.04493">
        <ele>758.5</ele>
        <time>2018-05-19T08:37:00Z</time>
      </trkpt>
      <trkpt lat="44.06278" lon="3.04484">
        <ele>757.3</ele>
        <time>2018-05-19T08:37:01Z</time>
      </trkpt>
      <trkpt lat="44.0628" lon="3.04476">
        <ele>756.7</ele>
        <time>2018-05-19T08:37:02Z</time>
      </trkpt>
      <trkpt lat="44.06282" lon="3.0447">
        <ele>756</ele>
        <time>2018-05-19T08:37:03Z</time>
      </trkpt>
      <trkpt lat="44.06285" lon="3.04467">
        <ele>755.1</ele>
        <time>2018-05-19T08:37:04Z</time>
      </trkpt>
      <trkpt lat="44.06288" lon="3.04462">
        <ele>754.4</ele>
        <time>2018-05-19T08:37:05Z</time>
      </trkpt>
      <trkpt lat="44.0629" lon="3.04458">
        <ele>753.9</ele>
        <time>2018-05-19T08:37:06Z</time>
      </trkpt>
      <trkpt lat="44.06292" lon="3.04454">
        <ele>753.4</ele>
        <time>2018-05-19T08:37:07Z</time>
      </trkpt>
      <trkpt lat="44.06293" lon="3.04451">
        <ele>753.1</ele>
        <time>2018-05-19T08:37:09Z</time>
      </trkpt>
      <trkpt lat="44.06293" lon="3.04446">
        <ele>752.3</ele>
        <time>2018-05-19T08:37:25Z</time>
      </trkpt>
      <trkpt lat="44.06295" lon="3.04443">
        <ele>751.9</ele>
        <time>2018-05-19T08:37:27Z</time>
      </trkpt>
      <trkpt lat="44.06297" lon="3.04439">
        <ele>751.4</ele>
        <time>2018-05-19T08:37:28Z</time>
      </trkpt>
      <trkpt lat="44.06299" lon="3.04434">
        <ele>750.6</ele>
        <time>2018-05-19T08:37:29Z</time>
      </trkpt>
      <trkpt lat="44.063" lon="3.04429">
        <ele>749.4</ele>
        <time>2018-05-19T08:37:30Z</time>
      </trkpt>
      <trkpt lat="44.06303" lon="3.04424">
        <ele>748.9</ele>
        <time>2018-05-19T08:37:31Z</time>
      </trkpt>
      <trkpt lat="44.06306" lon="3.0442">
        <ele>748.4</ele>
        <time>2018-05-19T08:37:32Z</time>
      </trkpt>
      <trkpt lat="44.06309" lon="3.04415">
        <ele>747.7</ele>
        <time>2018-05-19T08:37:33Z</time>
      </trkpt>
      <trkpt lat="44.06311" lon="3.04413">
        <ele>747.4</ele>
        <time>2018-05-19T08:37:34Z</time>
      </trkpt>
      <trkpt lat="44.06314" lon="3.04415">
        <ele>747.2</ele>
        <time>2018-05-19T08:37:49Z</time>
      </trkpt>
      <trkpt lat="44.06313" lon="3.04419">
        <ele>747</ele>
        <time>2018-05-19T08:38:23Z</time>
      </trkpt>
      <trkpt lat="44.06312" lon="3.04423">
        <ele>746.8</ele>
        <time>2018-05-19T08:38:59Z</time>
      </trkpt>
      <trkpt lat="44.06312" lon="3.04429">
        <ele>746.1</ele>
        <time>2018-05-19T08:39:01Z</time>
      </trkpt>
      <trkpt lat="44.06312" lon="3.04433">
        <ele>745.5</ele>
        <time>2018-05-19T08:39:02Z</time>
      </trkpt>
      <trkpt lat="44.06311" lon="3.04439">
        <ele>744.8</ele>
        <time>2018-05-19T08:39:03Z</time>
      </trkpt>
      <trkpt lat="44.06309" lon="3.04446">
        <ele>744.3</ele>
        <time>2018-05-19T08:39:04Z</time>
      </trkpt>
      <trkpt lat="44.06309" lon="3.04451">
        <ele>743.7</ele>
        <time>2018-05-19T08:39:05Z</time>
      </trkpt>
      <trkpt lat="44.06309" lon="3.04457">
        <ele>743.1</ele>
        <time>2018-05-19T08:39:06Z</time>
      </trkpt>
      <trkpt lat="44.0631" lon="3.04462">
        <ele>742.9</ele>
        <time>2018-05-19T08:39:07Z</time>
      </trkpt>
      <trkpt lat="44.06312" lon="3.04464">
        <ele>742.8</ele>
        <time>2018-05-19T08:39:08Z</time>
      </trkpt>
      <trkpt lat="44.06317" lon="3.04459">
        <ele>742.1</ele>
        <time>2018-05-19T08:39:10Z</time>
      </trkpt>
      <trkpt lat="44.0632" lon="3.04455">
        <ele>741.7</ele>
        <time>2018-05-19T08:39:11Z</time>
      </trkpt>
      <trkpt lat="44.06324" lon="3.0445">
        <ele>741.1</ele>
        <time>2018-05-19T08:39:12Z</time>
      </trkpt>
      <trkpt lat="44.06328" lon="3.04444">
        <ele>740.3</ele>
        <time>2018-05-19T08:39:13Z</time>
      </trkpt>
      <trkpt lat="44.06334" lon="3.04437">
        <ele>739.3</ele>
        <time>2018-05-19T08:39:14Z</time>
      </trkpt>
      <trkpt lat="44.06338" lon="3.04431">
        <ele>738.2</ele>
        <time>2018-05-19T08:39:15Z</time>
      </trkpt>
      <trkpt lat="44.06343" lon="3.04424">
        <ele>737</ele>
        <time>2018-05-19T08:39:16Z</time>
      </trkpt>
      <trkpt lat="44.06348" lon="3.04416">
        <ele>735.6</ele>
        <time>2018-05-19T08:39:17Z</time>
      </trkpt>
      <trkpt lat="44.06352" lon="3.04408">
        <ele>734.4</ele>
        <time>2018-05-19T08:39:18Z</time>
      </trkpt>
      <trkpt lat="44.06354" lon="3.04401">
        <ele>733.6</ele>
        <time>2018-05-19T08:39:19Z</time>
      </trkpt>
      <trkpt lat="44.06359" lon="3.04396">
        <ele>732.8</ele>
        <time>2018-05-19T08:39:20Z</time>
      </trkpt>
      <trkpt lat="44.06361" lon="3.04392">
        <ele>732.6</ele>
        <time>2018-05-19T08:39:21Z</time>
      </trkpt>
      <trkpt lat="44.06363" lon="3.04386">
        <ele>732.3</ele>
        <time>2018-05-19T08:39:22Z</time>
      </trkpt>
      <trkpt lat="44.06363" lon="3.0438">
        <ele>731.9</ele>
        <time>2018-05-19T08:39:23Z</time>
      </trkpt>
      <trkpt lat="44.06366" lon="3.04377">
        <ele>731.5</ele>
        <time>2018-05-19T08:39:24Z</time>
      </trkpt>
      <trkpt lat="44.06369" lon="3.04374">
        <ele>731</ele>
        <time>2018-05-19T08:39:25Z</time>
      </trkpt>
      <trkpt lat="44.06372" lon="3.04371">
        <ele>730.6</ele>
        <time>2018-05-19T08:39:26Z</time>
      </trkpt>
      <trkpt lat="44.06376" lon="3.04366">
        <ele>729.8</ele>
        <time>2018-05-19T08:39:27Z</time>
      </trkpt>
      <trkpt lat="44.0638" lon="3.04359">
        <ele>728.4</ele>
        <time>2018-05-19T08:39:28Z</time>
      </trkpt>
      <trkpt lat="44.06385" lon="3.04353">
        <ele>727.2</ele>
        <time>2018-05-19T08:39:29Z</time>
      </trkpt>
      <trkpt lat="44.06389" lon="3.04348">
        <ele>726</ele>
        <time>2018-05-19T08:39:30Z</time>
      </trkpt>
      <trkpt lat="44.06395" lon="3.04343">
        <ele>725.2</ele>
        <time>2018-05-19T08:39:31Z</time>
      </trkpt>
      <trkpt lat="44.06401" lon="3.04341">
        <ele>723.9</ele>
        <time>2018-05-19T08:39:32Z</time>
      </trkpt>
      <trkpt lat="44.06403" lon="3.04344">
        <ele>723.4</ele>
        <time>2018-05-19T08:39:33Z</time>
      </trkpt>
      <trkpt lat="44.06406" lon="3.04346">
        <ele>722.7</ele>
        <time>2018-05-19T08:39:34Z</time>
      </trkpt>
      <trkpt lat="44.06409" lon="3.04349">
        <ele>722.1</ele>
        <time>2018-05-19T08:39:35Z</time>
      </trkpt>
      <trkpt lat="44.06414" lon="3.04354">
        <ele>721.1</ele>
        <time>2018-05-19T08:39:36Z</time>
      </trkpt>
      <trkpt lat="44.06418" lon="3.04361">
        <ele>720.2</ele>
        <time>2018-05-19T08:39:37Z</time>
      </trkpt>
      <trkpt lat="44.06418" lon="3.0437">
        <ele>719.5</ele>
        <time>2018-05-19T08:39:38Z</time>
      </trkpt>
      <trkpt lat="44.06417" lon="3.04377">
        <ele>718.8</ele>
        <time>2018-05-19T08:39:39Z</time>
      </trkpt>
      <trkpt lat="44.06418" lon="3.04385">
        <ele>717.9</ele>
        <time>2018-05-19T08:39:40Z</time>
      </trkpt>
      <trkpt lat="44.06416" lon="3.04389">
        <ele>717.3</ele>
        <time>2018-05-19T08:39:41Z</time>
      </trkpt>
      <trkpt lat="44.06414" lon="3.04394">
        <ele>716.5</ele>
        <time>2018-05-19T08:39:42Z</time>
      </trkpt>
      <trkpt lat="44.06413" lon="3.04398">
        <ele>715.7</ele>
        <time>2018-05-19T08:39:43Z</time>
      </trkpt>
      <trkpt lat="44.06415" lon="3.04401">
        <ele>715.1</ele>
        <time>2018-05-19T08:39:44Z</time>
      </trkpt>
      <trkpt lat="44.06419" lon="3.04402">
        <ele>714.4</ele>
        <time>2018-05-19T08:39:45Z</time>
      </trkpt>
      <trkpt lat="44.06423" lon="3.04401">
        <ele>713.6</ele>
        <time>2018-05-19T08:39:46Z</time>
      </trkpt>
      <trkpt lat="44.06428" lon="3.044">
        <ele>712.5</ele>
        <time>2018-05-19T08:39:47Z</time>
      </trkpt>
      <trkpt lat="44.06431" lon="3.04396">
        <ele>711.4</ele>
        <time>2018-05-19T08:39:48Z</time>
      </trkpt>
      <trkpt lat="44.06434" lon="3.04391">
        <ele>710</ele>
        <time>2018-05-19T08:39:49Z</time>
      </trkpt>
      <trkpt lat="44.06435" lon="3.04387">
        <ele>708.7</ele>
        <time>2018-05-19T08:39:50Z</time>
      </trkpt>
      <trkpt lat="44.06437" lon="3.04383">
        <ele>707.6</ele>
        <time>2018-05-19T08:39:51Z</time>
      </trkpt>
      <trkpt lat="44.06439" lon="3.04377">
        <ele>706.4</ele>
        <time>2018-05-19T08:39:52Z</time>
      </trkpt>
      <trkpt lat="44.06441" lon="3.0437">
        <ele>705</ele>
        <time>2018-05-19T08:39:54Z</time>
      </trkpt>
      <trkpt lat="44.06445" lon="3.04365">
        <ele>703.7</ele>
        <time>2018-05-19T08:39:56Z</time>
      </trkpt>
      <trkpt lat="44.06448" lon="3.04363">
        <ele>702.8</ele>
        <time>2018-05-19T08:39:58Z</time>
      </trkpt>
      <trkpt lat="44.0645" lon="3.0436">
        <ele>702.1</ele>
        <time>2018-05-19T08:40:12Z</time>
      </trkpt>
      <trkpt lat="44.06453" lon="3.04361">
        <ele>701.2</ele>
        <time>2018-05-19T08:40:19Z</time>
      </trkpt>
      <trkpt lat="44.06457" lon="3.04361">
        <ele>700.4</ele>
        <time>2018-05-19T08:40:21Z</time>
      </trkpt>
      <trkpt lat="44.06462" lon="3.04364">
        <ele>699.2</ele>
        <time>2018-05-19T08:40:23Z</time>
      </trkpt>
      <trkpt lat="44.06465" lon="3.04367">
        <ele>698.5</ele>
        <time>2018-05-19T08:40:24Z</time>
      </trkpt>
      <trkpt lat="44.06469" lon="3.04369">
        <ele>697.9</ele>
        <time>2018-05-19T08:40:25Z</time>
      </trkpt>
      <trkpt lat="44.06473" lon="3.0437">
        <ele>697.3</ele>
        <time>2018-05-19T08:40:26Z</time>
      </trkpt>
      <trkpt lat="44.06478" lon="3.0437">
        <ele>697.1</ele>
        <time>2018-05-19T08:40:27Z</time>
      </trkpt>
      <trkpt lat="44.06482" lon="3.04368">
        <ele>696.9</ele>
        <time>2018-05-19T08:40:28Z</time>
      </trkpt>
      <trkpt lat="44.06486" lon="3.04367">
        <ele>696.7</ele>
        <time>2018-05-19T08:40:30Z</time>
      </trkpt>
      <trkpt lat="44.06489" lon="3.04366">
        <ele>696.6</ele>
        <time>2018-05-19T08:40:33Z</time>
      </trkpt>
      <trkpt lat="44.06492" lon="3.04365">
        <ele>696.4</ele>
        <time>2018-05-19T08:40:48Z</time>
      </trkpt>
      <trkpt lat="44.06494" lon="3.04361">
        <ele>696.1</ele>
        <time>2018-05-19T08:40:50Z</time>
      </trkpt>
      <trkpt lat="44.06496" lon="3.04356">
        <ele>695.7</ele>
        <time>2018-05-19T08:40:52Z</time>
      </trkpt>
      <trkpt lat="44.06497" lon="3.04351">
        <ele>695.4</ele>
        <time>2018-05-19T08:40:54Z</time>
      </trkpt>
      <trkpt lat="44.06498" lon="3.04346">
        <ele>695</ele>
        <time>2018-05-19T08:40:57Z</time>
      </trkpt>
      <trkpt lat="44.06503" lon="3.04342">
        <ele>694.4</ele>
        <time>2018-05-19T08:40:59Z</time>
      </trkpt>
      <trkpt lat="44.06505" lon="3.0434">
        <ele>694.1</ele>
        <time>2018-05-19T08:41:00Z</time>
      </trkpt>
      <trkpt lat="44.06508" lon="3.04338">
        <ele>693.7</ele>
        <time>2018-05-19T08:41:01Z</time>
      </trkpt>
      <trkpt lat="44.06511" lon="3.04335">
        <ele>693.2</ele>
        <time>2018-05-19T08:41:02Z</time>
      </trkpt>
      <trkpt lat="44.06514" lon="3.04333">
        <ele>692.4</ele>
        <time>2018-05-19T08:41:03Z</time>
      </trkpt>
      <trkpt lat="44.06518" lon="3.0433">
        <ele>691.1</ele>
        <time>2018-05-19T08:41:05Z</time>
      </trkpt>
      <trkpt lat="44.06523" lon="3.0433">
        <ele>689.4</ele>
        <time>2018-05-19T08:41:07Z</time>
      </trkpt>
      <trkpt lat="44.06528" lon="3.04325">
        <ele>687.3</ele>
        <time>2018-05-19T08:41:09Z</time>
      </trkpt>
      <trkpt lat="44.0653" lon="3.04321">
        <ele>685.9</ele>
        <time>2018-05-19T08:41:10Z</time>
      </trkpt>
      <trkpt lat="44.06532" lon="3.04316">
        <ele>684.6</ele>
        <time>2018-05-19T08:41:11Z</time>
      </trkpt>
      <trkpt lat="44.06535" lon="3.04312">
        <ele>683.4</ele>
        <time>2018-05-19T08:41:12Z</time>
      </trkpt>
      <trkpt lat="44.06537" lon="3.04309">
        <ele>682.2</ele>
        <time>2018-05-19T08:41:13Z</time>
      </trkpt>
      <trkpt lat="44.06539" lon="3.04306">
        <ele>681.3</ele>
        <time>2018-05-19T08:41:14Z</time>
      </trkpt>
      <trkpt lat="44.06541" lon="3.04301">
        <ele>680.2</ele>
        <time>2018-05-19T08:41:16Z</time>
      </trkpt>
      <trkpt lat="44.06541" lon="3.04296">
        <ele>679</ele>
        <time>2018-05-19T08:41:26Z</time>
      </trkpt>
      <trkpt lat="44.06542" lon="3.0429">
        <ele>677.8</ele>
        <time>2018-05-19T08:41:28Z</time>
      </trkpt>
      <trkpt lat="44.06544" lon="3.04287">
        <ele>676.9</ele>
        <time>2018-05-19T08:41:29Z</time>
      </trkpt>
      <trkpt lat="44.06545" lon="3.04283">
        <ele>676.1</ele>
        <time>2018-05-19T08:41:30Z</time>
      </trkpt>
      <trkpt lat="44.06547" lon="3.04279">
        <ele>675.1</ele>
        <time>2018-05-19T08:41:31Z</time>
      </trkpt>
      <trkpt lat="44.06547" lon="3.04274">
        <ele>674.1</ele>
        <time>2018-05-19T08:41:32Z</time>
      </trkpt>
      <trkpt lat="44.06549" lon="3.04269">
        <ele>672.8</ele>
        <time>2018-05-19T08:41:34Z</time>
      </trkpt>
      <trkpt lat="44.06553" lon="3.0427">
        <ele>671.4</ele>
        <time>2018-05-19T08:41:36Z</time>
      </trkpt>
      <trkpt lat="44.06556" lon="3.04274">
        <ele>670</ele>
        <time>2018-05-19T08:41:37Z</time>
      </trkpt>
      <trkpt lat="44.06557" lon="3.04278">
        <ele>668.2</ele>
        <time>2018-05-19T08:41:38Z</time>
      </trkpt>
      <trkpt lat="44.0656" lon="3.04284">
        <ele>666.2</ele>
        <time>2018-05-19T08:41:40Z</time>
      </trkpt>
      <trkpt lat="44.06563" lon="3.04287">
        <ele>664.9</ele>
        <time>2018-05-19T08:41:42Z</time>
      </trkpt>
      <trkpt lat="44.06566" lon="3.04285">
        <ele>664.1</ele>
        <time>2018-05-19T08:41:46Z</time>
      </trkpt>
      <trkpt lat="44.06566" lon="3.04281">
        <ele>663.4</ele>
        <time>2018-05-19T08:41:49Z</time>
      </trkpt>
      <trkpt lat="44.06571" lon="3.04283">
        <ele>662.2</ele>
        <time>2018-05-19T08:41:54Z</time>
      </trkpt>
      <trkpt lat="44.06573" lon="3.04287">
        <ele>660.7</ele>
        <time>2018-05-19T08:41:55Z</time>
      </trkpt>
      <trkpt lat="44.06576" lon="3.04291">
        <ele>658.9</ele>
        <time>2018-05-19T08:41:56Z</time>
      </trkpt>
      <trkpt lat="44.06578" lon="3.04295">
        <ele>657</ele>
        <time>2018-05-19T08:41:57Z</time>
      </trkpt>
      <trkpt lat="44.06582" lon="3.04299">
        <ele>654.5</ele>
        <time>2018-05-19T08:41:59Z</time>
      </trkpt>
      <trkpt lat="44.06586" lon="3.04301">
        <ele>653.4</ele>
        <time>2018-05-19T08:42:00Z</time>
      </trkpt>
      <trkpt lat="44.0659" lon="3.04301">
        <ele>652.4</ele>
        <time>2018-05-19T08:42:01Z</time>
      </trkpt>
      <trkpt lat="44.06593" lon="3.043">
        <ele>652</ele>
        <time>2018-05-19T08:42:02Z</time>
      </trkpt>
      <trkpt lat="44.06596" lon="3.04295">
        <ele>651.8</ele>
        <time>2018-05-19T08:42:04Z</time>
      </trkpt>
      <trkpt lat="44.06596" lon="3.04291">
        <ele>651.7</ele>
        <time>2018-05-19T08:42:08Z</time>
      </trkpt>
      <trkpt lat="44.06592" lon="3.04282">
        <ele>650.7</ele>
        <time>2018-05-19T08:46:46Z</time>
      </trkpt>
      <trkpt lat="44.06591" lon="3.04275">
        <ele>650.4</ele>
        <time>2018-05-19T08:46:48Z</time>
      </trkpt>
      <trkpt lat="44.0659" lon="3.04271">
        <ele>650.2</ele>
        <time>2018-05-19T08:46:49Z</time>
      </trkpt>
      <trkpt lat="44.0659" lon="3.04267">
        <ele>650</ele>
        <time>2018-05-19T08:46:50Z</time>
      </trkpt>
      <trkpt lat="44.06592" lon="3.04259">
        <ele>649.5</ele>
        <time>2018-05-19T08:46:51Z</time>
      </trkpt>
      <trkpt lat="44.06593" lon="3.04251">
        <ele>648.8</ele>
        <time>2018-05-19T08:46:52Z</time>
      </trkpt>
      <trkpt lat="44.06593" lon="3.04243">
        <ele>648.1</ele>
        <time>2018-05-19T08:46:53Z</time>
      </trkpt>
      <trkpt lat="44.0659" lon="3.04237">
        <ele>647.3</ele>
        <time>2018-05-19T08:46:54Z</time>
      </trkpt>
      <trkpt lat="44.06588" lon="3.0423">
        <ele>646.5</ele>
        <time>2018-05-19T08:46:55Z</time>
      </trkpt>
      <trkpt lat="44.06585" lon="3.04224">
        <ele>645.5</ele>
        <time>2018-05-19T08:46:56Z</time>
      </trkpt>
      <trkpt lat="44.06582" lon="3.04221">
        <ele>645.3</ele>
        <time>2018-05-19T08:46:57Z</time>
      </trkpt>
      <trkpt lat="44.06579" lon="3.04218">
        <ele>645.3</ele>
        <time>2018-05-19T08:46:59Z</time>
      </trkpt>
      <trkpt lat="44.06575" lon="3.04215">
        <ele>645.5</ele>
        <time>2018-05-19T08:47:01Z</time>
      </trkpt>
      <trkpt lat="44.06571" lon="3.04212">
        <ele>646.1</ele>
        <time>2018-05-19T08:47:03Z</time>
      </trkpt>
      <trkpt lat="44.06567" lon="3.04208">
        <ele>647</ele>
        <time>2018-05-19T08:47:05Z</time>
      </trkpt>
      <trkpt lat="44.06563" lon="3.04205">
        <ele>647.3</ele>
        <time>2018-05-19T08:47:07Z</time>
      </trkpt>
      <trkpt lat="44.0656" lon="3.04202">
        <ele>647.7</ele>
        <time>2018-05-19T08:47:09Z</time>
      </trkpt>
      <trkpt lat="44.06557" lon="3.042">
        <ele>647.9</ele>
        <time>2018-05-19T08:47:12Z</time>
      </trkpt>
      <trkpt lat="44.06554" lon="3.04198">
        <ele>648.1</ele>
        <time>2018-05-19T08:47:14Z</time>
      </trkpt>
      <trkpt lat="44.0655" lon="3.04196">
        <ele>648.6</ele>
        <time>2018-05-19T08:47:16Z</time>
      </trkpt>
      <trkpt lat="44.06546" lon="3.04196">
        <ele>649.5</ele>
        <time>2018-05-19T08:47:18Z</time>
      </trkpt>
      <trkpt lat="44.06541" lon="3.04195">
        <ele>652.4</ele>
        <time>2018-05-19T08:47:20Z</time>
      </trkpt>
      <trkpt lat="44.06537" lon="3.04194">
        <ele>653.5</ele>
        <time>2018-05-19T08:47:22Z</time>
      </trkpt>
      <trkpt lat="44.06534" lon="3.04192">
        <ele>653.7</ele>
        <time>2018-05-19T08:47:24Z</time>
      </trkpt>
      <trkpt lat="44.06531" lon="3.04189">
        <ele>653.8</ele>
        <time>2018-05-19T08:47:26Z</time>
      </trkpt>
      <trkpt lat="44.06527" lon="3.04187">
        <ele>653.9</ele>
        <time>2018-05-19T08:47:28Z</time>
      </trkpt>
      <trkpt lat="44.06522" lon="3.04184">
        <ele>654</ele>
        <time>2018-05-19T08:47:30Z</time>
      </trkpt>
      <trkpt lat="44.0652" lon="3.04182">
        <ele>654</ele>
        <time>2018-05-19T08:47:31Z</time>
      </trkpt>
      <trkpt lat="44.06518" lon="3.0418">
        <ele>654</ele>
        <time>2018-05-19T08:47:32Z</time>
      </trkpt>
      <trkpt lat="44.06513" lon="3.04176">
        <ele>654.1</ele>
        <time>2018-05-19T08:47:34Z</time>
      </trkpt>
      <trkpt lat="44.06511" lon="3.04173">
        <ele>654.1</ele>
        <time>2018-05-19T08:47:35Z</time>
      </trkpt>
      <trkpt lat="44.06508" lon="3.0417">
        <ele>654.1</ele>
        <time>2018-05-19T08:47:36Z</time>
      </trkpt>
      <trkpt lat="44.06506" lon="3.04166">
        <ele>654.2</ele>
        <time>2018-05-19T08:47:37Z</time>
      </trkpt>
      <trkpt lat="44.06503" lon="3.04163">
        <ele>654.2</ele>
        <time>2018-05-19T08:47:38Z</time>
      </trkpt>
      <trkpt lat="44.065" lon="3.04161">
        <ele>654.3</ele>
        <time>2018-05-19T08:47:39Z</time>
      </trkpt>
      <trkpt lat="44.06498" lon="3.04158">
        <ele>654.3</ele>
        <time>2018-05-19T08:47:40Z</time>
      </trkpt>
      <trkpt lat="44.06495" lon="3.04156">
        <ele>654.4</ele>
        <time>2018-05-19T08:47:41Z</time>
      </trkpt>
      <trkpt lat="44.06493" lon="3.04154">
        <ele>654.5</ele>
        <time>2018-05-19T08:47:42Z</time>
      </trkpt>
      <trkpt lat="44.0649" lon="3.04152">
        <ele>654.6</ele>
        <time>2018-05-19T08:47:43Z</time>
      </trkpt>
      <trkpt lat="44.06486" lon="3.0415">
        <ele>654.7</ele>
        <time>2018-05-19T08:47:45Z</time>
      </trkpt>
      <trkpt lat="44.06481" lon="3.04148">
        <ele>655</ele>
        <time>2018-05-19T08:47:47Z</time>
      </trkpt>
      <trkpt lat="44.06476" lon="3.04147">
        <ele>655.7</ele>
        <time>2018-05-19T08:47:49Z</time>
      </trkpt>
      <trkpt lat="44.06472" lon="3.04147">
        <ele>656.1</ele>
        <time>2018-05-19T08:47:50Z</time>
      </trkpt>
      <trkpt lat="44.06469" lon="3.04147">
        <ele>656.3</ele>
        <time>2018-05-19T08:47:51Z</time>
      </trkpt>
      <trkpt lat="44.06465" lon="3.04146">
        <ele>656.5</ele>
        <time>2018-05-19T08:47:52Z</time>
      </trkpt>
      <trkpt lat="44.06462" lon="3.04146">
        <ele>656.6</ele>
        <time>2018-05-19T08:47:53Z</time>
      </trkpt>
      <trkpt lat="44.06459" lon="3.04144">
        <ele>656.7</ele>
        <time>2018-05-19T08:47:54Z</time>
      </trkpt>
      <trkpt lat="44.06456" lon="3.04141">
        <ele>656.8</ele>
        <time>2018-05-19T08:47:55Z</time>
      </trkpt>
      <trkpt lat="44.06453" lon="3.04138">
        <ele>656.8</ele>
        <time>2018-05-19T08:47:56Z</time>
      </trkpt>
      <trkpt lat="44.0645" lon="3.04135">
        <ele>656.9</ele>
        <time>2018-05-19T08:47:57Z</time>
      </trkpt>
      <trkpt lat="44.06448" lon="3.04133">
        <ele>656.9</ele>
        <time>2018-05-19T08:47:58Z</time>
      </trkpt>
      <trkpt lat="44.06446" lon="3.0413">
        <ele>657</ele>
        <time>2018-05-19T08:47:59Z</time>
      </trkpt>
      <trkpt lat="44.06443" lon="3.04127">
        <ele>657</ele>
        <time>2018-05-19T08:48:00Z</time>
      </trkpt>
      <trkpt lat="44.0644" lon="3.04124">
        <ele>657.1</ele>
        <time>2018-05-19T08:48:02Z</time>
      </trkpt>
      <trkpt lat="44.06436" lon="3.04122">
        <ele>657.1</ele>
        <time>2018-05-19T08:48:04Z</time>
      </trkpt>
      <trkpt lat="44.06431" lon="3.04119">
        <ele>657.1</ele>
        <time>2018-05-19T08:48:06Z</time>
      </trkpt>
      <trkpt lat="44.06427" lon="3.04116">
        <ele>657.2</ele>
        <time>2018-05-19T08:48:08Z</time>
      </trkpt>
      <trkpt lat="44.06424" lon="3.04114">
        <ele>657.2</ele>
        <time>2018-05-19T08:48:10Z</time>
      </trkpt>
      <trkpt lat="44.06422" lon="3.04112">
        <ele>657.2</ele>
        <time>2018-05-19T08:48:12Z</time>
      </trkpt>
      <trkpt lat="44.06419" lon="3.0411">
        <ele>657.2</ele>
        <time>2018-05-19T08:48:14Z</time>
      </trkpt>
      <trkpt lat="44.06417" lon="3.04107">
        <ele>657.3</ele>
        <time>2018-05-19T08:48:18Z</time>
      </trkpt>
      <trkpt lat="44.06416" lon="3.04104">
        <ele>657.3</ele>
        <time>2018-05-19T08:48:26Z</time>
      </trkpt>
      <trkpt lat="44.06415" lon="3.04099">
        <ele>657.3</ele>
        <time>2018-05-19T08:49:20Z</time>
      </trkpt>
      <trkpt lat="44.06412" lon="3.041">
        <ele>657.3</ele>
        <time>2018-05-19T08:49:29Z</time>
      </trkpt>
      <trkpt lat="44.0641" lon="3.04096">
        <ele>657.4</ele>
        <time>2018-05-19T08:49:40Z</time>
      </trkpt>
      <trkpt lat="44.06407" lon="3.04093">
        <ele>657.4</ele>
        <time>2018-05-19T08:49:42Z</time>
      </trkpt>
      <trkpt lat="44.06406" lon="3.04089">
        <ele>657.4</ele>
        <time>2018-05-19T08:49:44Z</time>
      </trkpt>
      <trkpt lat="44.06405" lon="3.04083">
        <ele>657.4</ele>
        <time>2018-05-19T08:49:46Z</time>
      </trkpt>
      <trkpt lat="44.06404" lon="3.0408">
        <ele>657.5</ele>
        <time>2018-05-19T08:49:47Z</time>
      </trkpt>
      <trkpt lat="44.06403" lon="3.04075">
        <ele>657.5</ele>
        <time>2018-05-19T08:49:48Z</time>
      </trkpt>
      <trkpt lat="44.06403" lon="3.0407">
        <ele>657.6</ele>
        <time>2018-05-19T08:49:49Z</time>
      </trkpt>
      <trkpt lat="44.06402" lon="3.04065">
        <ele>657.6</ele>
        <time>2018-05-19T08:49:50Z</time>
      </trkpt>
      <trkpt lat="44.06401" lon="3.04062">
        <ele>657.7</ele>
        <time>2018-05-19T08:49:51Z</time>
      </trkpt>
      <trkpt lat="44.06399" lon="3.04058">
        <ele>657.7</ele>
        <time>2018-05-19T08:49:52Z</time>
      </trkpt>
      <trkpt lat="44.06396" lon="3.04054">
        <ele>657.7</ele>
        <time>2018-05-19T08:49:53Z</time>
      </trkpt>
      <trkpt lat="44.06393" lon="3.04051">
        <ele>657.8</ele>
        <time>2018-05-19T08:49:55Z</time>
      </trkpt>
      <trkpt lat="44.0639" lon="3.04046">
        <ele>657.8</ele>
        <time>2018-05-19T08:50:01Z</time>
      </trkpt>
      <trkpt lat="44.06386" lon="3.04041">
        <ele>657.9</ele>
        <time>2018-05-19T08:50:03Z</time>
      </trkpt>
      <trkpt lat="44.06383" lon="3.04036">
        <ele>658.1</ele>
        <time>2018-05-19T08:50:05Z</time>
      </trkpt>
      <trkpt lat="44.06381" lon="3.04031">
        <ele>658.2</ele>
        <time>2018-05-19T08:50:07Z</time>
      </trkpt>
      <trkpt lat="44.06379" lon="3.04027">
        <ele>658.3</ele>
        <time>2018-05-19T08:50:09Z</time>
      </trkpt>
      <trkpt lat="44.06376" lon="3.04024">
        <ele>658.4</ele>
        <time>2018-05-19T08:50:11Z</time>
      </trkpt>
      <trkpt lat="44.06373" lon="3.04022">
        <ele>658.5</ele>
        <time>2018-05-19T08:50:13Z</time>
      </trkpt>
      <trkpt lat="44.06369" lon="3.0402">
        <ele>658.7</ele>
        <time>2018-05-19T08:50:15Z</time>
      </trkpt>
      <trkpt lat="44.06365" lon="3.04018">
        <ele>658.9</ele>
        <time>2018-05-19T08:50:17Z</time>
      </trkpt>
      <trkpt lat="44.06362" lon="3.04017">
        <ele>659.3</ele>
        <time>2018-05-19T08:50:19Z</time>
      </trkpt>
      <trkpt lat="44.06358" lon="3.04014">
        <ele>660.2</ele>
        <time>2018-05-19T08:50:21Z</time>
      </trkpt>
      <trkpt lat="44.06354" lon="3.04011">
        <ele>660.5</ele>
        <time>2018-05-19T08:50:23Z</time>
      </trkpt>
      <trkpt lat="44.0635" lon="3.04009">
        <ele>660.8</ele>
        <time>2018-05-19T08:50:25Z</time>
      </trkpt>
      <trkpt lat="44.06346" lon="3.04008">
        <ele>661</ele>
        <time>2018-05-19T08:50:27Z</time>
      </trkpt>
      <trkpt lat="44.06343" lon="3.04006">
        <ele>661</ele>
        <time>2018-05-19T08:50:29Z</time>
      </trkpt>
      <trkpt lat="44.06339" lon="3.04004">
        <ele>661.2</ele>
        <time>2018-05-19T08:50:31Z</time>
      </trkpt>
      <trkpt lat="44.06333" lon="3.04002">
        <ele>661.2</ele>
        <time>2018-05-19T08:50:33Z</time>
      </trkpt>
      <trkpt lat="44.06331" lon="3.04001">
        <ele>661.3</ele>
        <time>2018-05-19T08:50:34Z</time>
      </trkpt>
      <trkpt lat="44.06326" lon="3.03999">
        <ele>661.4</ele>
        <time>2018-05-19T08:50:36Z</time>
      </trkpt>
      <trkpt lat="44.06323" lon="3.03998">
        <ele>661.4</ele>
        <time>2018-05-19T08:50:38Z</time>
      </trkpt>
      <trkpt lat="44.0632" lon="3.03997">
        <ele>661.5</ele>
        <time>2018-05-19T08:50:40Z</time>
      </trkpt>
      <trkpt lat="44.06317" lon="3.03998">
        <ele>661.5</ele>
        <time>2018-05-19T08:50:42Z</time>
      </trkpt>
      <trkpt lat="44.06314" lon="3.03998">
        <ele>661.6</ele>
        <time>2018-05-19T08:50:44Z</time>
      </trkpt>
      <trkpt lat="44.06312" lon="3.03995">
        <ele>661.7</ele>
        <time>2018-05-19T08:50:46Z</time>
      </trkpt>
      <trkpt lat="44.06311" lon="3.03991">
        <ele>661.7</ele>
        <time>2018-05-19T08:50:48Z</time>
      </trkpt>
      <trkpt lat="44.06312" lon="3.03983">
        <ele>661.8</ele>
        <time>2018-05-19T08:50:50Z</time>
      </trkpt>
      <trkpt lat="44.06314" lon="3.03977">
        <ele>662</ele>
        <time>2018-05-19T08:50:52Z</time>
      </trkpt>
      <trkpt lat="44.06316" lon="3.03973">
        <ele>662</ele>
        <time>2018-05-19T08:50:53Z</time>
      </trkpt>
      <trkpt lat="44.06317" lon="3.03967">
        <ele>662.1</ele>
        <time>2018-05-19T08:50:55Z</time>
      </trkpt>
      <trkpt lat="44.06318" lon="3.03962">
        <ele>662.3</ele>
        <time>2018-05-19T08:50:57Z</time>
      </trkpt>
      <trkpt lat="44.06318" lon="3.03959">
        <ele>662.5</ele>
        <time>2018-05-19T08:50:59Z</time>
      </trkpt>
      <trkpt lat="44.06317" lon="3.03955">
        <ele>662.6</ele>
        <time>2018-05-19T08:51:03Z</time>
      </trkpt>
      <trkpt lat="44.06318" lon="3.03951">
        <ele>662.9</ele>
        <time>2018-05-19T08:51:05Z</time>
      </trkpt>
      <trkpt lat="44.06318" lon="3.03947">
        <ele>663.4</ele>
        <time>2018-05-19T08:51:08Z</time>
      </trkpt>
      <trkpt lat="44.06317" lon="3.03942">
        <ele>664.2</ele>
        <time>2018-05-19T08:51:12Z</time>
      </trkpt>
      <trkpt lat="44.06317" lon="3.03938">
        <ele>665.5</ele>
        <time>2018-05-19T08:51:15Z</time>
      </trkpt>
      <trkpt lat="44.06319" lon="3.03934">
        <ele>666.1</ele>
        <time>2018-05-19T08:51:18Z</time>
      </trkpt>
      <trkpt lat="44.0632" lon="3.03931">
        <ele>666.6</ele>
        <time>2018-05-19T08:51:22Z</time>
      </trkpt>
      <trkpt lat="44.06322" lon="3.03926">
        <ele>667.4</ele>
        <time>2018-05-19T08:51:25Z</time>
      </trkpt>
      <trkpt lat="44.06323" lon="3.03921">
        <ele>668.6</ele>
        <time>2018-05-19T08:51:27Z</time>
      </trkpt>
      <trkpt lat="44.06324" lon="3.03916">
        <ele>669.5</ele>
        <time>2018-05-19T08:51:30Z</time>
      </trkpt>
      <trkpt lat="44.06325" lon="3.03913">
        <ele>669.8</ele>
        <time>2018-05-19T08:51:34Z</time>
      </trkpt>
      <trkpt lat="44.06328" lon="3.03911">
        <ele>670.1</ele>
        <time>2018-05-19T08:51:38Z</time>
      </trkpt>
      <trkpt lat="44.06331" lon="3.03907">
        <ele>671.1</ele>
        <time>2018-05-19T08:51:45Z</time>
      </trkpt>
      <trkpt lat="44.06333" lon="3.03902">
        <ele>671.8</ele>
        <time>2018-05-19T08:51:48Z</time>
      </trkpt>
      <trkpt lat="44.06335" lon="3.03898">
        <ele>672.2</ele>
        <time>2018-05-19T08:51:50Z</time>
      </trkpt>
      <trkpt lat="44.06337" lon="3.03894">
        <ele>672.7</ele>
        <time>2018-05-19T08:51:52Z</time>
      </trkpt>
      <trkpt lat="44.0634" lon="3.0389">
        <ele>673.9</ele>
        <time>2018-05-19T08:51:54Z</time>
      </trkpt>
      <trkpt lat="44.06342" lon="3.03886">
        <ele>674.4</ele>
        <time>2018-05-19T08:51:56Z</time>
      </trkpt>
      <trkpt lat="44.06345" lon="3.03882">
        <ele>674.6</ele>
        <time>2018-05-19T08:51:58Z</time>
      </trkpt>
      <trkpt lat="44.06348" lon="3.03878">
        <ele>674.8</ele>
        <time>2018-05-19T08:52:00Z</time>
      </trkpt>
      <trkpt lat="44.0635" lon="3.03874">
        <ele>674.9</ele>
        <time>2018-05-19T08:52:02Z</time>
      </trkpt>
      <trkpt lat="44.06352" lon="3.0387">
        <ele>675</ele>
        <time>2018-05-19T08:52:04Z</time>
      </trkpt>
      <trkpt lat="44.06353" lon="3.03865">
        <ele>675.1</ele>
        <time>2018-05-19T08:52:06Z</time>
      </trkpt>
      <trkpt lat="44.06354" lon="3.03859">
        <ele>675.2</ele>
        <time>2018-05-19T08:52:08Z</time>
      </trkpt>
      <trkpt lat="44.06354" lon="3.03854">
        <ele>675.3</ele>
        <time>2018-05-19T08:52:10Z</time>
      </trkpt>
      <trkpt lat="44.06355" lon="3.03848">
        <ele>675.5</ele>
        <time>2018-05-19T08:52:12Z</time>
      </trkpt>
      <trkpt lat="44.06355" lon="3.03843">
        <ele>675.6</ele>
        <time>2018-05-19T08:52:15Z</time>
      </trkpt>
      <trkpt lat="44.06354" lon="3.03838">
        <ele>675.8</ele>
        <time>2018-05-19T08:52:17Z</time>
      </trkpt>
      <trkpt lat="44.06354" lon="3.03832">
        <ele>676.3</ele>
        <time>2018-05-19T08:52:19Z</time>
      </trkpt>
      <trkpt lat="44.06354" lon="3.03826">
        <ele>677</ele>
        <time>2018-05-19T08:52:21Z</time>
      </trkpt>
      <trkpt lat="44.06354" lon="3.0382">
        <ele>677.4</ele>
        <time>2018-05-19T08:52:23Z</time>
      </trkpt>
      <trkpt lat="44.06354" lon="3.03816">
        <ele>677.8</ele>
        <time>2018-05-19T08:52:24Z</time>
      </trkpt>
      <trkpt lat="44.06353" lon="3.03811">
        <ele>678.3</ele>
        <time>2018-05-19T08:52:25Z</time>
      </trkpt>
      <trkpt lat="44.06353" lon="3.03807">
        <ele>678.8</ele>
        <time>2018-05-19T08:52:26Z</time>
      </trkpt>
      <trkpt lat="44.06353" lon="3.03802">
        <ele>679.2</ele>
        <time>2018-05-19T08:52:27Z</time>
      </trkpt>
      <trkpt lat="44.0635" lon="3.03797">
        <ele>679.4</ele>
        <time>2018-05-19T08:52:29Z</time>
      </trkpt>
      <trkpt lat="44.06348" lon="3.03794">
        <ele>679.4</ele>
        <time>2018-05-19T08:52:30Z</time>
      </trkpt>
      <trkpt lat="44.06345" lon="3.03792">
        <ele>679.5</ele>
        <time>2018-05-19T08:52:31Z</time>
      </trkpt>
      <trkpt lat="44.06343" lon="3.03789">
        <ele>679.5</ele>
        <time>2018-05-19T08:52:32Z</time>
      </trkpt>
      <trkpt lat="44.06341" lon="3.03785">
        <ele>679.5</ele>
        <time>2018-05-19T08:52:34Z</time>
      </trkpt>
      <trkpt lat="44.06341" lon="3.03779">
        <ele>679.4</ele>
        <time>2018-05-19T08:52:36Z</time>
      </trkpt>
      <trkpt lat="44.06341" lon="3.03775">
        <ele>679.3</ele>
        <time>2018-05-19T08:52:38Z</time>
      </trkpt>
      <trkpt lat="44.06342" lon="3.03771">
        <ele>679.1</ele>
        <time>2018-05-19T08:52:41Z</time>
      </trkpt>
      <trkpt lat="44.06345" lon="3.03767">
        <ele>679.2</ele>
        <time>2018-05-19T08:52:43Z</time>
      </trkpt>
      <trkpt lat="44.06347" lon="3.03764">
        <ele>679.4</ele>
        <time>2018-05-19T08:52:46Z</time>
      </trkpt>
      <trkpt lat="44.06348" lon="3.0376">
        <ele>679.6</ele>
        <time>2018-05-19T08:52:48Z</time>
      </trkpt>
      <trkpt lat="44.06349" lon="3.03757">
        <ele>680</ele>
        <time>2018-05-19T08:52:50Z</time>
      </trkpt>
      <trkpt lat="44.06351" lon="3.03753">
        <ele>680.6</ele>
        <time>2018-05-19T08:52:53Z</time>
      </trkpt>
      <trkpt lat="44.06352" lon="3.0375">
        <ele>681</ele>
        <time>2018-05-19T08:52:59Z</time>
      </trkpt>
      <trkpt lat="44.06349" lon="3.03749">
        <ele>681.3</ele>
        <time>2018-05-19T08:53:11Z</time>
      </trkpt>
      <trkpt lat="44.06353" lon="3.03745">
        <ele>681.5</ele>
        <time>2018-05-19T08:56:55Z</time>
      </trkpt>
      <trkpt lat="44.06355" lon="3.0374">
        <ele>681.7</ele>
        <time>2018-05-19T08:56:57Z</time>
      </trkpt>
      <trkpt lat="44.06357" lon="3.03734">
        <ele>681.8</ele>
        <time>2018-05-19T08:56:59Z</time>
      </trkpt>
      <trkpt lat="44.06361" lon="3.03728">
        <ele>681.9</ele>
        <time>2018-05-19T08:57:01Z</time>
      </trkpt>
      <trkpt lat="44.06363" lon="3.03723">
        <ele>681.9</ele>
        <time>2018-05-19T08:57:03Z</time>
      </trkpt>
      <trkpt lat="44.06365" lon="3.0372">
        <ele>681.8</ele>
        <time>2018-05-19T08:57:04Z</time>
      </trkpt>
      <trkpt lat="44.06367" lon="3.03715">
        <ele>681.7</ele>
        <time>2018-05-19T08:57:05Z</time>
      </trkpt>
      <trkpt lat="44.06369" lon="3.03711">
        <ele>681.4</ele>
        <time>2018-05-19T08:57:06Z</time>
      </trkpt>
      <trkpt lat="44.06372" lon="3.03706">
        <ele>680.9</ele>
        <time>2018-05-19T08:57:07Z</time>
      </trkpt>
      <trkpt lat="44.06375" lon="3.03702">
        <ele>680.3</ele>
        <time>2018-05-19T08:57:08Z</time>
      </trkpt>
      <trkpt lat="44.06378" lon="3.03698">
        <ele>679.6</ele>
        <time>2018-05-19T08:57:09Z</time>
      </trkpt>
      <trkpt lat="44.06381" lon="3.03694">
        <ele>678.9</ele>
        <time>2018-05-19T08:57:10Z</time>
      </trkpt>
      <trkpt lat="44.06384" lon="3.03691">
        <ele>678.2</ele>
        <time>2018-05-19T08:57:11Z</time>
      </trkpt>
      <trkpt lat="44.06387" lon="3.03689">
        <ele>677.5</ele>
        <time>2018-05-19T08:57:12Z</time>
      </trkpt>
      <trkpt lat="44.06391" lon="3.03688">
        <ele>676.6</ele>
        <time>2018-05-19T08:57:13Z</time>
      </trkpt>
      <trkpt lat="44.06395" lon="3.03689">
        <ele>675.5</ele>
        <time>2018-05-19T08:57:14Z</time>
      </trkpt>
      <trkpt lat="44.064" lon="3.0369">
        <ele>674.6</ele>
        <time>2018-05-19T08:57:15Z</time>
      </trkpt>
      <trkpt lat="44.06403" lon="3.0369">
        <ele>673.8</ele>
        <time>2018-05-19T08:57:16Z</time>
      </trkpt>
      <trkpt lat="44.06406" lon="3.03689">
        <ele>673.1</ele>
        <time>2018-05-19T08:57:17Z</time>
      </trkpt>
      <trkpt lat="44.06411" lon="3.03685">
        <ele>672.1</ele>
        <time>2018-05-19T08:57:19Z</time>
      </trkpt>
      <trkpt lat="44.06414" lon="3.03683">
        <ele>671.5</ele>
        <time>2018-05-19T08:57:20Z</time>
      </trkpt>
      <trkpt lat="44.06416" lon="3.0368">
        <ele>671</ele>
        <time>2018-05-19T08:57:21Z</time>
      </trkpt>
      <trkpt lat="44.0642" lon="3.03677">
        <ele>670.2</ele>
        <time>2018-05-19T08:57:23Z</time>
      </trkpt>
      <trkpt lat="44.06423" lon="3.03677">
        <ele>669.6</ele>
        <time>2018-05-19T08:57:24Z</time>
      </trkpt>
      <trkpt lat="44.06427" lon="3.03677">
        <ele>668.9</ele>
        <time>2018-05-19T08:57:25Z</time>
      </trkpt>
      <trkpt lat="44.0643" lon="3.03677">
        <ele>668.1</ele>
        <time>2018-05-19T08:57:26Z</time>
      </trkpt>
      <trkpt lat="44.06435" lon="3.03678">
        <ele>667.3</ele>
        <time>2018-05-19T08:57:27Z</time>
      </trkpt>
      <trkpt lat="44.06439" lon="3.03678">
        <ele>666.2</ele>
        <time>2018-05-19T08:57:28Z</time>
      </trkpt>
      <trkpt lat="44.06443" lon="3.03678">
        <ele>666.1</ele>
        <time>2018-05-19T08:57:29Z</time>
      </trkpt>
      <trkpt lat="44.06445" lon="3.03676">
        <ele>666</ele>
        <time>2018-05-19T08:57:30Z</time>
      </trkpt>
      <trkpt lat="44.06447" lon="3.03672">
        <ele>665.9</ele>
        <time>2018-05-19T08:57:31Z</time>
      </trkpt>
      <trkpt lat="44.06447" lon="3.03666">
        <ele>665.8</ele>
        <time>2018-05-19T08:57:32Z</time>
      </trkpt>
      <trkpt lat="44.06448" lon="3.03657">
        <ele>665.4</ele>
        <time>2018-05-19T08:57:33Z</time>
      </trkpt>
      <trkpt lat="44.06448" lon="3.03649">
        <ele>665.1</ele>
        <time>2018-05-19T08:57:34Z</time>
      </trkpt>
      <trkpt lat="44.06448" lon="3.0364">
        <ele>664.8</ele>
        <time>2018-05-19T08:57:35Z</time>
      </trkpt>
      <trkpt lat="44.0645" lon="3.0363">
        <ele>664.5</ele>
        <time>2018-05-19T08:57:36Z</time>
      </trkpt>
      <trkpt lat="44.06451" lon="3.03621">
        <ele>664.3</ele>
        <time>2018-05-19T08:57:37Z</time>
      </trkpt>
      <trkpt lat="44.0645" lon="3.03612">
        <ele>664</ele>
        <time>2018-05-19T08:57:38Z</time>
      </trkpt>
      <trkpt lat="44.06451" lon="3.03605">
        <ele>663.6</ele>
        <time>2018-05-19T08:57:39Z</time>
      </trkpt>
      <trkpt lat="44.06452" lon="3.03601">
        <ele>663.3</ele>
        <time>2018-05-19T08:57:40Z</time>
      </trkpt>
      <trkpt lat="44.06455" lon="3.03598">
        <ele>663</ele>
        <time>2018-05-19T08:57:41Z</time>
      </trkpt>
      <trkpt lat="44.06458" lon="3.03605">
        <ele>662.5</ele>
        <time>2018-05-19T08:57:42Z</time>
      </trkpt>
      <trkpt lat="44.06461" lon="3.03611">
        <ele>662.1</ele>
        <time>2018-05-19T08:57:43Z</time>
      </trkpt>
      <trkpt lat="44.06466" lon="3.03618">
        <ele>661.7</ele>
        <time>2018-05-19T08:57:44Z</time>
      </trkpt>
      <trkpt lat="44.06471" lon="3.03626">
        <ele>661.2</ele>
        <time>2018-05-19T08:57:45Z</time>
      </trkpt>
      <trkpt lat="44.06477" lon="3.03636">
        <ele>660.4</ele>
        <time>2018-05-19T08:57:46Z</time>
      </trkpt>
      <trkpt lat="44.06483" lon="3.03644">
        <ele>659.7</ele>
        <time>2018-05-19T08:57:47Z</time>
      </trkpt>
      <trkpt lat="44.06489" lon="3.03651">
        <ele>659</ele>
        <time>2018-05-19T08:57:48Z</time>
      </trkpt>
      <trkpt lat="44.06493" lon="3.03659">
        <ele>658.3</ele>
        <time>2018-05-19T08:57:49Z</time>
      </trkpt>
      <trkpt lat="44.06497" lon="3.03666">
        <ele>657.4</ele>
        <time>2018-05-19T08:57:50Z</time>
      </trkpt>
      <trkpt lat="44.06503" lon="3.03672">
        <ele>656.5</ele>
        <time>2018-05-19T08:57:51Z</time>
      </trkpt>
      <trkpt lat="44.06504" lon="3.03665">
        <ele>655.8</ele>
        <time>2018-05-19T08:57:53Z</time>
      </trkpt>
      <trkpt lat="44.06504" lon="3.03658">
        <ele>655.3</ele>
        <time>2018-05-19T08:57:55Z</time>
      </trkpt>
      <trkpt lat="44.06502" lon="3.03646">
        <ele>654.5</ele>
        <time>2018-05-19T08:57:56Z</time>
      </trkpt>
      <trkpt lat="44.06499" lon="3.03636">
        <ele>653.9</ele>
        <time>2018-05-19T08:57:57Z</time>
      </trkpt>
      <trkpt lat="44.06497" lon="3.03629">
        <ele>653.4</ele>
        <time>2018-05-19T08:57:58Z</time>
      </trkpt>
      <trkpt lat="44.06496" lon="3.03621">
        <ele>653</ele>
        <time>2018-05-19T08:57:59Z</time>
      </trkpt>
      <trkpt lat="44.06497" lon="3.03612">
        <ele>652.4</ele>
        <time>2018-05-19T08:58:00Z</time>
      </trkpt>
      <trkpt lat="44.06497" lon="3.03602">
        <ele>651.7</ele>
        <time>2018-05-19T08:58:01Z</time>
      </trkpt>
      <trkpt lat="44.06498" lon="3.03591">
        <ele>651</ele>
        <time>2018-05-19T08:58:02Z</time>
      </trkpt>
      <trkpt lat="44.06495" lon="3.03582">
        <ele>650.4</ele>
        <time>2018-05-19T08:58:03Z</time>
      </trkpt>
      <trkpt lat="44.06493" lon="3.03574">
        <ele>649.8</ele>
        <time>2018-05-19T08:58:04Z</time>
      </trkpt>
      <trkpt lat="44.06489" lon="3.03566">
        <ele>649.3</ele>
        <time>2018-05-19T08:58:05Z</time>
      </trkpt>
      <trkpt lat="44.06487" lon="3.03559">
        <ele>648.8</ele>
        <time>2018-05-19T08:58:06Z</time>
      </trkpt>
      <trkpt lat="44.06483" lon="3.03553">
        <ele>648.4</ele>
        <time>2018-05-19T08:58:07Z</time>
      </trkpt>
      <trkpt lat="44.06479" lon="3.03547">
        <ele>648</ele>
        <time>2018-05-19T08:58:08Z</time>
      </trkpt>
      <trkpt lat="44.06475" lon="3.0354">
        <ele>647.6</ele>
        <time>2018-05-19T08:58:09Z</time>
      </trkpt>
      <trkpt lat="44.06471" lon="3.03535">
        <ele>647.1</ele>
        <time>2018-05-19T08:58:10Z</time>
      </trkpt>
      <trkpt lat="44.0647" lon="3.03526">
        <ele>646.6</ele>
        <time>2018-05-19T08:58:11Z</time>
      </trkpt>
      <trkpt lat="44.06468" lon="3.03518">
        <ele>646</ele>
        <time>2018-05-19T08:58:12Z</time>
      </trkpt>
      <trkpt lat="44.06467" lon="3.03507">
        <ele>645.4</ele>
        <time>2018-05-19T08:58:13Z</time>
      </trkpt>
      <trkpt lat="44.06466" lon="3.03498">
        <ele>645</ele>
        <time>2018-05-19T08:58:14Z</time>
      </trkpt>
      <trkpt lat="44.06463" lon="3.03488">
        <ele>644.5</ele>
        <time>2018-05-19T08:58:15Z</time>
      </trkpt>
      <trkpt lat="44.06459" lon="3.0348">
        <ele>644.1</ele>
        <time>2018-05-19T08:58:16Z</time>
      </trkpt>
      <trkpt lat="44.06454" lon="3.03474">
        <ele>643.7</ele>
        <time>2018-05-19T08:58:17Z</time>
      </trkpt>
      <trkpt lat="44.06448" lon="3.03469">
        <ele>643.2</ele>
        <time>2018-05-19T08:58:18Z</time>
      </trkpt>
      <trkpt lat="44.06442" lon="3.03463">
        <ele>642.8</ele>
        <time>2018-05-19T08:58:19Z</time>
      </trkpt>
      <trkpt lat="44.06439" lon="3.03454">
        <ele>642.4</ele>
        <time>2018-05-19T08:58:20Z</time>
      </trkpt>
      <trkpt lat="44.06437" lon="3.03446">
        <ele>641.9</ele>
        <time>2018-05-19T08:58:21Z</time>
      </trkpt>
      <trkpt lat="44.06434" lon="3.0344">
        <ele>641.6</ele>
        <time>2018-05-19T08:58:22Z</time>
      </trkpt>
      <trkpt lat="44.06431" lon="3.03436">
        <ele>641.2</ele>
        <time>2018-05-19T08:58:23Z</time>
      </trkpt>
      <trkpt lat="44.0643" lon="3.0343">
        <ele>640.9</ele>
        <time>2018-05-19T08:58:24Z</time>
      </trkpt>
      <trkpt lat="44.06428" lon="3.03423">
        <ele>640.5</ele>
        <time>2018-05-19T08:58:25Z</time>
      </trkpt>
      <trkpt lat="44.06426" lon="3.03417">
        <ele>640.3</ele>
        <time>2018-05-19T08:58:26Z</time>
      </trkpt>
      <trkpt lat="44.06425" lon="3.0341">
        <ele>640</ele>
        <time>2018-05-19T08:58:27Z</time>
      </trkpt>
      <trkpt lat="44.06423" lon="3.03403">
        <ele>639.9</ele>
        <time>2018-05-19T08:58:28Z</time>
      </trkpt>
      <trkpt lat="44.06421" lon="3.03396">
        <ele>639.8</ele>
        <time>2018-05-19T08:58:29Z</time>
      </trkpt>
      <trkpt lat="44.06418" lon="3.03389">
        <ele>639.7</ele>
        <time>2018-05-19T08:58:30Z</time>
      </trkpt>
      <trkpt lat="44.06414" lon="3.03385">
        <ele>639.6</ele>
        <time>2018-05-19T08:58:31Z</time>
      </trkpt>
      <trkpt lat="44.06411" lon="3.0338">
        <ele>639.6</ele>
        <time>2018-05-19T08:58:32Z</time>
      </trkpt>
      <trkpt lat="44.06408" lon="3.03375">
        <ele>639.5</ele>
        <time>2018-05-19T08:58:33Z</time>
      </trkpt>
      <trkpt lat="44.06405" lon="3.03371">
        <ele>639.4</ele>
        <time>2018-05-19T08:58:34Z</time>
      </trkpt>
      <trkpt lat="44.06399" lon="3.03365">
        <ele>639.3</ele>
        <time>2018-05-19T08:58:35Z</time>
      </trkpt>
      <trkpt lat="44.06393" lon="3.0336">
        <ele>639.1</ele>
        <time>2018-05-19T08:58:36Z</time>
      </trkpt>
      <trkpt lat="44.06386" lon="3.03354">
        <ele>638.8</ele>
        <time>2018-05-19T08:58:37Z</time>
      </trkpt>
      <trkpt lat="44.0638" lon="3.03349">
        <ele>638.5</ele>
        <time>2018-05-19T08:58:38Z</time>
      </trkpt>
      <trkpt lat="44.06375" lon="3.03344">
        <ele>638.3</ele>
        <time>2018-05-19T08:58:39Z</time>
      </trkpt>
      <trkpt lat="44.06369" lon="3.03341">
        <ele>638.2</ele>
        <time>2018-05-19T08:58:40Z</time>
      </trkpt>
      <trkpt lat="44.06363" lon="3.03339">
        <ele>638.1</ele>
        <time>2018-05-19T08:58:41Z</time>
      </trkpt>
      <trkpt lat="44.06357" lon="3.03338">
        <ele>637.9</ele>
        <time>2018-05-19T08:58:42Z</time>
      </trkpt>
      <trkpt lat="44.0635" lon="3.03337">
        <ele>637.7</ele>
        <time>2018-05-19T08:58:43Z</time>
      </trkpt>
      <trkpt lat="44.06348" lon="3.03328">
        <ele>637.4</ele>
        <time>2018-05-19T08:58:44Z</time>
      </trkpt>
      <trkpt lat="44.0635" lon="3.03322">
        <ele>637.2</ele>
        <time>2018-05-19T08:58:45Z</time>
      </trkpt>
      <trkpt lat="44.06352" lon="3.03317">
        <ele>637.1</ele>
        <time>2018-05-19T08:58:46Z</time>
      </trkpt>
      <trkpt lat="44.06355" lon="3.03312">
        <ele>637.1</ele>
        <time>2018-05-19T08:58:47Z</time>
      </trkpt>
      <trkpt lat="44.06357" lon="3.03307">
        <ele>637.1</ele>
        <time>2018-05-19T08:58:48Z</time>
      </trkpt>
      <trkpt lat="44.0636" lon="3.03301">
        <ele>637.1</ele>
        <time>2018-05-19T08:58:49Z</time>
      </trkpt>
      <trkpt lat="44.06362" lon="3.03297">
        <ele>637.2</ele>
        <time>2018-05-19T08:58:50Z</time>
      </trkpt>
      <trkpt lat="44.06364" lon="3.03292">
        <ele>637.2</ele>
        <time>2018-05-19T08:58:51Z</time>
      </trkpt>
      <trkpt lat="44.06366" lon="3.03287">
        <ele>637.2</ele>
        <time>2018-05-19T08:58:52Z</time>
      </trkpt>
      <trkpt lat="44.06369" lon="3.03283">
        <ele>637.3</ele>
        <time>2018-05-19T08:58:53Z</time>
      </trkpt>
      <trkpt lat="44.06373" lon="3.03278">
        <ele>637.3</ele>
        <time>2018-05-19T08:58:54Z</time>
      </trkpt>
      <trkpt lat="44.06378" lon="3.0327">
        <ele>637.4</ele>
        <time>2018-05-19T08:58:55Z</time>
      </trkpt>
      <trkpt lat="44.06381" lon="3.03265">
        <ele>637.5</ele>
        <time>2018-05-19T08:58:56Z</time>
      </trkpt>
      <trkpt lat="44.06385" lon="3.03261">
        <ele>637.5</ele>
        <time>2018-05-19T08:58:57Z</time>
      </trkpt>
      <trkpt lat="44.06387" lon="3.03258">
        <ele>637.6</ele>
        <time>2018-05-19T08:58:58Z</time>
      </trkpt>
      <trkpt lat="44.06391" lon="3.03254">
        <ele>637.7</ele>
        <time>2018-05-19T08:58:59Z</time>
      </trkpt>
      <trkpt lat="44.06395" lon="3.03251">
        <ele>637.8</ele>
        <time>2018-05-19T08:59:00Z</time>
      </trkpt>
      <trkpt lat="44.06399" lon="3.03248">
        <ele>637.9</ele>
        <time>2018-05-19T08:59:01Z</time>
      </trkpt>
      <trkpt lat="44.06402" lon="3.03245">
        <ele>638</ele>
        <time>2018-05-19T08:59:02Z</time>
      </trkpt>
      <trkpt lat="44.06406" lon="3.03241">
        <ele>638.1</ele>
        <time>2018-05-19T08:59:03Z</time>
      </trkpt>
      <trkpt lat="44.0641" lon="3.0324">
        <ele>638.3</ele>
        <time>2018-05-19T08:59:04Z</time>
      </trkpt>
      <trkpt lat="44.06414" lon="3.03238">
        <ele>638.5</ele>
        <time>2018-05-19T08:59:05Z</time>
      </trkpt>
      <trkpt lat="44.06417" lon="3.03234">
        <ele>638.8</ele>
        <time>2018-05-19T08:59:06Z</time>
      </trkpt>
      <trkpt lat="44.06419" lon="3.03231">
        <ele>639.2</ele>
        <time>2018-05-19T08:59:07Z</time>
      </trkpt>
      <trkpt lat="44.06421" lon="3.03226">
        <ele>639.6</ele>
        <time>2018-05-19T08:59:08Z</time>
      </trkpt>
      <trkpt lat="44.06422" lon="3.0322">
        <ele>639.8</ele>
        <time>2018-05-19T08:59:09Z</time>
      </trkpt>
      <trkpt lat="44.06423" lon="3.03214">
        <ele>639.9</ele>
        <time>2018-05-19T08:59:10Z</time>
      </trkpt>
      <trkpt lat="44.06423" lon="3.03209">
        <ele>640.1</ele>
        <time>2018-05-19T08:59:11Z</time>
      </trkpt>
      <trkpt lat="44.06424" lon="3.03201">
        <ele>640.2</ele>
        <time>2018-05-19T08:59:12Z</time>
      </trkpt>
      <trkpt lat="44.06424" lon="3.03193">
        <ele>640.2</ele>
        <time>2018-05-19T08:59:13Z</time>
      </trkpt>
      <trkpt lat="44.06424" lon="3.03184">
        <ele>640.3</ele>
        <time>2018-05-19T08:59:14Z</time>
      </trkpt>
      <trkpt lat="44.06424" lon="3.03176">
        <ele>640.4</ele>
        <time>2018-05-19T08:59:15Z</time>
      </trkpt>
      <trkpt lat="44.06423" lon="3.03167">
        <ele>640.5</ele>
        <time>2018-05-19T08:59:16Z</time>
      </trkpt>
      <trkpt lat="44.06423" lon="3.03158">
        <ele>640.5</ele>
        <time>2018-05-19T08:59:17Z</time>
      </trkpt>
      <trkpt lat="44.06425" lon="3.03148">
        <ele>640.6</ele>
        <time>2018-05-19T08:59:18Z</time>
      </trkpt>
      <trkpt lat="44.06426" lon="3.0314">
        <ele>640.7</ele>
        <time>2018-05-19T08:59:19Z</time>
      </trkpt>
      <trkpt lat="44.06428" lon="3.03134">
        <ele>640.7</ele>
        <time>2018-05-19T08:59:20Z</time>
      </trkpt>
      <trkpt lat="44.06429" lon="3.03126">
        <ele>640.8</ele>
        <time>2018-05-19T08:59:21Z</time>
      </trkpt>
      <trkpt lat="44.06429" lon="3.03118">
        <ele>640.8</ele>
        <time>2018-05-19T08:59:22Z</time>
      </trkpt>
      <trkpt lat="44.06432" lon="3.03108">
        <ele>640.8</ele>
        <time>2018-05-19T08:59:23Z</time>
      </trkpt>
      <trkpt lat="44.06434" lon="3.031">
        <ele>640.9</ele>
        <time>2018-05-19T08:59:24Z</time>
      </trkpt>
      <trkpt lat="44.06437" lon="3.03092">
        <ele>640.9</ele>
        <time>2018-05-19T08:59:25Z</time>
      </trkpt>
      <trkpt lat="44.06441" lon="3.03085">
        <ele>640.9</ele>
        <time>2018-05-19T08:59:26Z</time>
      </trkpt>
      <trkpt lat="44.06444" lon="3.03078">
        <ele>641</ele>
        <time>2018-05-19T08:59:27Z</time>
      </trkpt>
      <trkpt lat="44.06448" lon="3.03071">
        <ele>641</ele>
        <time>2018-05-19T08:59:28Z</time>
      </trkpt>
      <trkpt lat="44.06452" lon="3.03063">
        <ele>641</ele>
        <time>2018-05-19T08:59:29Z</time>
      </trkpt>
      <trkpt lat="44.06454" lon="3.03057">
        <ele>641</ele>
        <time>2018-05-19T08:59:30Z</time>
      </trkpt>
      <trkpt lat="44.06458" lon="3.03049">
        <ele>641</ele>
        <time>2018-05-19T08:59:31Z</time>
      </trkpt>
      <trkpt lat="44.0646" lon="3.03041">
        <ele>641</ele>
        <time>2018-05-19T08:59:32Z</time>
      </trkpt>
      <trkpt lat="44.06464" lon="3.03033">
        <ele>641</ele>
        <time>2018-05-19T08:59:33Z</time>
      </trkpt>
      <trkpt lat="44.06467" lon="3.03026">
        <ele>640.9</ele>
        <time>2018-05-19T08:59:34Z</time>
      </trkpt>
      <trkpt lat="44.06468" lon="3.03021">
        <ele>640.9</ele>
        <time>2018-05-19T08:59:35Z</time>
      </trkpt>
      <trkpt lat="44.06468" lon="3.03015">
        <ele>640.8</ele>
        <time>2018-05-19T08:59:36Z</time>
      </trkpt>
      <trkpt lat="44.06468" lon="3.03009">
        <ele>640.7</ele>
        <time>2018-05-19T08:59:37Z</time>
      </trkpt>
      <trkpt lat="44.06469" lon="3.03003">
        <ele>640.7</ele>
        <time>2018-05-19T08:59:38Z</time>
      </trkpt>
      <trkpt lat="44.06468" lon="3.02999">
        <ele>640.6</ele>
        <time>2018-05-19T08:59:39Z</time>
      </trkpt>
      <trkpt lat="44.0647" lon="3.02993">
        <ele>640.4</ele>
        <time>2018-05-19T08:59:40Z</time>
      </trkpt>
      <trkpt lat="44.06472" lon="3.02988">
        <ele>640.2</ele>
        <time>2018-05-19T08:59:41Z</time>
      </trkpt>
      <trkpt lat="44.06475" lon="3.02982">
        <ele>640</ele>
        <time>2018-05-19T08:59:42Z</time>
      </trkpt>
      <trkpt lat="44.06478" lon="3.02978">
        <ele>640</ele>
        <time>2018-05-19T08:59:43Z</time>
      </trkpt>
      <trkpt lat="44.0648" lon="3.02974">
        <ele>640</ele>
        <time>2018-05-19T08:59:44Z</time>
      </trkpt>
      <trkpt lat="44.06482" lon="3.0297">
        <ele>640</ele>
        <time>2018-05-19T08:59:45Z</time>
      </trkpt>
      <trkpt lat="44.06485" lon="3.02968">
        <ele>640</ele>
        <time>2018-05-19T08:59:46Z</time>
      </trkpt>
      <trkpt lat="44.06486" lon="3.02965">
        <ele>640</ele>
        <time>2018-05-19T08:59:47Z</time>
      </trkpt>
      <trkpt lat="44.06489" lon="3.02961">
        <ele>640.1</ele>
        <time>2018-05-19T08:59:48Z</time>
      </trkpt>
      <trkpt lat="44.06491" lon="3.02957">
        <ele>640.1</ele>
        <time>2018-05-19T08:59:49Z</time>
      </trkpt>
      <trkpt lat="44.06494" lon="3.02952">
        <ele>640.2</ele>
        <time>2018-05-19T08:59:50Z</time>
      </trkpt>
      <trkpt lat="44.06496" lon="3.02947">
        <ele>640.3</ele>
        <time>2018-05-19T08:59:51Z</time>
      </trkpt>
      <trkpt lat="44.06498" lon="3.02941">
        <ele>640.4</ele>
        <time>2018-05-19T08:59:52Z</time>
      </trkpt>
      <trkpt lat="44.065" lon="3.02936">
        <ele>640.4</ele>
        <time>2018-05-19T08:59:53Z</time>
      </trkpt>
      <trkpt lat="44.06502" lon="3.02931">
        <ele>640.5</ele>
        <time>2018-05-19T08:59:54Z</time>
      </trkpt>
      <trkpt lat="44.06503" lon="3.02926">
        <ele>640.8</ele>
        <time>2018-05-19T08:59:55Z</time>
      </trkpt>
      <trkpt lat="44.06504" lon="3.0292">
        <ele>641.2</ele>
        <time>2018-05-19T08:59:56Z</time>
      </trkpt>
      <trkpt lat="44.06506" lon="3.02915">
        <ele>641.6</ele>
        <time>2018-05-19T08:59:57Z</time>
      </trkpt>
      <trkpt lat="44.06507" lon="3.02909">
        <ele>642</ele>
        <time>2018-05-19T08:59:58Z</time>
      </trkpt>
      <trkpt lat="44.06509" lon="3.02905">
        <ele>642.2</ele>
        <time>2018-05-19T08:59:59Z</time>
      </trkpt>
      <trkpt lat="44.06511" lon="3.029">
        <ele>642.4</ele>
        <time>2018-05-19T09:00:00Z</time>
      </trkpt>
      <trkpt lat="44.06513" lon="3.02895">
        <ele>642.5</ele>
        <time>2018-05-19T09:00:02Z</time>
      </trkpt>
      <trkpt lat="44.06516" lon="3.02892">
        <ele>642.6</ele>
        <time>2018-05-19T09:00:04Z</time>
      </trkpt>
      <trkpt lat="44.06519" lon="3.0289">
        <ele>642.7</ele>
        <time>2018-05-19T09:00:06Z</time>
      </trkpt>
      <trkpt lat="44.06523" lon="3.0289">
        <ele>642.8</ele>
        <time>2018-05-19T09:00:08Z</time>
      </trkpt>
      <trkpt lat="44.06527" lon="3.02894">
        <ele>642.9</ele>
        <time>2018-05-19T09:00:10Z</time>
      </trkpt>
      <trkpt lat="44.06529" lon="3.02899">
        <ele>643</ele>
        <time>2018-05-19T09:00:12Z</time>
      </trkpt>
      <trkpt lat="44.06531" lon="3.02902">
        <ele>643.4</ele>
        <time>2018-05-19T09:00:14Z</time>
      </trkpt>
      <trkpt lat="44.06533" lon="3.02902">
        <ele>643.8</ele>
        <time>2018-05-19T09:00:20Z</time>
      </trkpt>
      <trkpt lat="44.06536" lon="3.02903">
        <ele>644.2</ele>
        <time>2018-05-19T09:00:35Z</time>
      </trkpt>
      <trkpt lat="44.0654" lon="3.02895">
        <ele>646.2</ele>
        <time>2018-05-19T09:02:58Z</time>
      </trkpt>
      <trkpt lat="44.0654" lon="3.0289">
        <ele>647.1</ele>
        <time>2018-05-19T09:03:01Z</time>
      </trkpt>
      <trkpt lat="44.06538" lon="3.02885">
        <ele>648.3</ele>
        <time>2018-05-19T09:03:04Z</time>
      </trkpt>
      <trkpt lat="44.06536" lon="3.02882">
        <ele>649.1</ele>
        <time>2018-05-19T09:03:06Z</time>
      </trkpt>
      <trkpt lat="44.06534" lon="3.02877">
        <ele>649</ele>
        <time>2018-05-19T09:03:09Z</time>
      </trkpt>
      <trkpt lat="44.06534" lon="3.02873">
        <ele>648.7</ele>
        <time>2018-05-19T09:03:11Z</time>
      </trkpt>
      <trkpt lat="44.06534" lon="3.02869">
        <ele>648.7</ele>
        <time>2018-05-19T09:03:15Z</time>
      </trkpt>
      <trkpt lat="44.06534" lon="3.02864">
        <ele>648.8</ele>
        <time>2018-05-19T09:03:20Z</time>
      </trkpt>
      <trkpt lat="44.06534" lon="3.0286">
        <ele>648.7</ele>
        <time>2018-05-19T09:03:23Z</time>
      </trkpt>
      <trkpt lat="44.06532" lon="3.02857">
        <ele>648.7</ele>
        <time>2018-05-19T09:03:26Z</time>
      </trkpt>
      <trkpt lat="44.0653" lon="3.02855">
        <ele>648.9</ele>
        <time>2018-05-19T09:03:30Z</time>
      </trkpt>
      <trkpt lat="44.06528" lon="3.02859">
        <ele>649.1</ele>
        <time>2018-05-19T09:03:40Z</time>
      </trkpt>
      <trkpt lat="44.06525" lon="3.02859">
        <ele>649.4</ele>
        <time>2018-05-19T09:03:42Z</time>
      </trkpt>
      <trkpt lat="44.06522" lon="3.0286">
        <ele>649.3</ele>
        <time>2018-05-19T09:03:44Z</time>
      </trkpt>
      <trkpt lat="44.06519" lon="3.0286">
        <ele>649</ele>
        <time>2018-05-19T09:03:46Z</time>
      </trkpt>
      <trkpt lat="44.06516" lon="3.02859">
        <ele>648.5</ele>
        <time>2018-05-19T09:03:49Z</time>
      </trkpt>
      <trkpt lat="44.06513" lon="3.02862">
        <ele>648</ele>
        <time>2018-05-19T09:03:53Z</time>
      </trkpt>
      <trkpt lat="44.06511" lon="3.02866">
        <ele>647.5</ele>
        <time>2018-05-19T09:03:55Z</time>
      </trkpt>
      <trkpt lat="44.06509" lon="3.02869">
        <ele>647.2</ele>
        <time>2018-05-19T09:03:58Z</time>
      </trkpt>
      <trkpt lat="44.06506" lon="3.02872">
        <ele>647</ele>
        <time>2018-05-19T09:04:02Z</time>
      </trkpt>
      <trkpt lat="44.06504" lon="3.02874">
        <ele>646.7</ele>
        <time>2018-05-19T09:04:04Z</time>
      </trkpt>
      <trkpt lat="44.06502" lon="3.02878">
        <ele>646.3</ele>
        <time>2018-05-19T09:04:06Z</time>
      </trkpt>
      <trkpt lat="44.065" lon="3.02882">
        <ele>646</ele>
        <time>2018-05-19T09:04:08Z</time>
      </trkpt>
      <trkpt lat="44.06497" lon="3.02884">
        <ele>645.7</ele>
        <time>2018-05-19T09:04:10Z</time>
      </trkpt>
      <trkpt lat="44.06495" lon="3.02887">
        <ele>645.4</ele>
        <time>2018-05-19T09:04:12Z</time>
      </trkpt>
      <trkpt lat="44.06494" lon="3.02891">
        <ele>645.2</ele>
        <time>2018-05-19T09:04:14Z</time>
      </trkpt>
      <trkpt lat="44.06494" lon="3.02896">
        <ele>645.2</ele>
        <time>2018-05-19T09:04:17Z</time>
      </trkpt>
      <trkpt lat="44.06492" lon="3.029">
        <ele>645.1</ele>
        <time>2018-05-19T09:04:22Z</time>
      </trkpt>
      <trkpt lat="44.0649" lon="3.02903">
        <ele>645.2</ele>
        <time>2018-05-19T09:04:24Z</time>
      </trkpt>
      <trkpt lat="44.06487" lon="3.02906">
        <ele>645.4</ele>
        <time>2018-05-19T09:04:27Z</time>
      </trkpt>
      <trkpt lat="44.06484" lon="3.02909">
        <ele>645.6</ele>
        <time>2018-05-19T09:04:30Z</time>
      </trkpt>
      <trkpt lat="44.06482" lon="3.02912">
        <ele>645.8</ele>
        <time>2018-05-19T09:04:32Z</time>
      </trkpt>
      <trkpt lat="44.06479" lon="3.02914">
        <ele>646.1</ele>
        <time>2018-05-19T09:04:34Z</time>
      </trkpt>
      <trkpt lat="44.06476" lon="3.02916">
        <ele>646.7</ele>
        <time>2018-05-19T09:04:36Z</time>
      </trkpt>
      <trkpt lat="44.06472" lon="3.02918">
        <ele>647.3</ele>
        <time>2018-05-19T09:04:38Z</time>
      </trkpt>
      <trkpt lat="44.0647" lon="3.02919">
        <ele>648.1</ele>
        <time>2018-05-19T09:04:40Z</time>
      </trkpt>
      <trkpt lat="44.06467" lon="3.0292">
        <ele>649</ele>
        <time>2018-05-19T09:04:44Z</time>
      </trkpt>
      <trkpt lat="44.06465" lon="3.02923">
        <ele>650</ele>
        <time>2018-05-19T09:04:48Z</time>
      </trkpt>
      <trkpt lat="44.06463" lon="3.02926">
        <ele>651</ele>
        <time>2018-05-19T09:04:51Z</time>
      </trkpt>
      <trkpt lat="44.06459" lon="3.02926">
        <ele>651.9</ele>
        <time>2018-05-19T09:04:54Z</time>
      </trkpt>
      <trkpt lat="44.06456" lon="3.02928">
        <ele>653</ele>
        <time>2018-05-19T09:04:57Z</time>
      </trkpt>
      <trkpt lat="44.06455" lon="3.02932">
        <ele>653.7</ele>
        <time>2018-05-19T09:05:00Z</time>
      </trkpt>
      <trkpt lat="44.06452" lon="3.02935">
        <ele>655.5</ele>
        <time>2018-05-19T09:05:03Z</time>
      </trkpt>
      <trkpt lat="44.06449" lon="3.02938">
        <ele>657.2</ele>
        <time>2018-05-19T09:05:05Z</time>
      </trkpt>
      <trkpt lat="44.06447" lon="3.02943">
        <ele>659</ele>
        <time>2018-05-19T09:05:08Z</time>
      </trkpt>
      <trkpt lat="44.06445" lon="3.02945">
        <ele>659.7</ele>
        <time>2018-05-19T09:05:10Z</time>
      </trkpt>
      <trkpt lat="44.06442" lon="3.02948">
        <ele>660.4</ele>
        <time>2018-05-19T09:05:12Z</time>
      </trkpt>
      <trkpt lat="44.0644" lon="3.02951">
        <ele>661.1</ele>
        <time>2018-05-19T09:05:14Z</time>
      </trkpt>
      <trkpt lat="44.06437" lon="3.02953">
        <ele>661.4</ele>
        <time>2018-05-19T09:05:16Z</time>
      </trkpt>
      <trkpt lat="44.06434" lon="3.02957">
        <ele>661.8</ele>
        <time>2018-05-19T09:05:19Z</time>
      </trkpt>
      <trkpt lat="44.06433" lon="3.02961">
        <ele>662.1</ele>
        <time>2018-05-19T09:05:22Z</time>
      </trkpt>
      <trkpt lat="44.06432" lon="3.02966">
        <ele>662.9</ele>
        <time>2018-05-19T09:05:26Z</time>
      </trkpt>
      <trkpt lat="44.06431" lon="3.0297">
        <ele>663.7</ele>
        <time>2018-05-19T09:05:29Z</time>
      </trkpt>
      <trkpt lat="44.06429" lon="3.02973">
        <ele>664.6</ele>
        <time>2018-05-19T09:05:32Z</time>
      </trkpt>
      <trkpt lat="44.06426" lon="3.02976">
        <ele>665.6</ele>
        <time>2018-05-19T09:05:35Z</time>
      </trkpt>
      <trkpt lat="44.06424" lon="3.0298">
        <ele>666.5</ele>
        <time>2018-05-19T09:05:39Z</time>
      </trkpt>
      <trkpt lat="44.06422" lon="3.02982">
        <ele>667.3</ele>
        <time>2018-05-19T09:05:41Z</time>
      </trkpt>
      <trkpt lat="44.06419" lon="3.02985">
        <ele>668.1</ele>
        <time>2018-05-19T09:05:43Z</time>
      </trkpt>
      <trkpt lat="44.06417" lon="3.02988">
        <ele>669</ele>
        <time>2018-05-19T09:05:45Z</time>
      </trkpt>
      <trkpt lat="44.06414" lon="3.02992">
        <ele>670</ele>
        <time>2018-05-19T09:05:48Z</time>
      </trkpt>
      <trkpt lat="44.06413" lon="3.02995">
        <ele>671.3</ele>
        <time>2018-05-19T09:05:51Z</time>
      </trkpt>
      <trkpt lat="44.06412" lon="3.02999">
        <ele>672.7</ele>
        <time>2018-05-19T09:05:54Z</time>
      </trkpt>
      <trkpt lat="44.06409" lon="3.03002">
        <ele>673.6</ele>
        <time>2018-05-19T09:06:01Z</time>
      </trkpt>
      <trkpt lat="44.06407" lon="3.03005">
        <ele>674.1</ele>
        <time>2018-05-19T09:06:08Z</time>
      </trkpt>
      <trkpt lat="44.06404" lon="3.03006">
        <ele>674.6</ele>
        <time>2018-05-19T09:06:14Z</time>
      </trkpt>
      <trkpt lat="44.06401" lon="3.03007">
        <ele>675.9</ele>
        <time>2018-05-19T09:06:17Z</time>
      </trkpt>
      <trkpt lat="44.06398" lon="3.03011">
        <ele>677.3</ele>
        <time>2018-05-19T09:06:21Z</time>
      </trkpt>
      <trkpt lat="44.06397" lon="3.03014">
        <ele>678.6</ele>
        <time>2018-05-19T09:06:24Z</time>
      </trkpt>
      <trkpt lat="44.06394" lon="3.03016">
        <ele>680.4</ele>
        <time>2018-05-19T09:06:27Z</time>
      </trkpt>
      <trkpt lat="44.06391" lon="3.03018">
        <ele>681.9</ele>
        <time>2018-05-19T09:06:32Z</time>
      </trkpt>
      <trkpt lat="44.06388" lon="3.03018">
        <ele>683.9</ele>
        <time>2018-05-19T09:06:38Z</time>
      </trkpt>
      <trkpt lat="44.06386" lon="3.03022">
        <ele>686.1</ele>
        <time>2018-05-19T09:06:43Z</time>
      </trkpt>
      <trkpt lat="44.06385" lon="3.03025">
        <ele>687.8</ele>
        <time>2018-05-19T09:06:47Z</time>
      </trkpt>
      <trkpt lat="44.06382" lon="3.03025">
        <ele>689</ele>
        <time>2018-05-19T09:06:51Z</time>
      </trkpt>
      <trkpt lat="44.06379" lon="3.03024">
        <ele>690.3</ele>
        <time>2018-05-19T09:07:01Z</time>
      </trkpt>
      <trkpt lat="44.06374" lon="3.03028">
        <ele>693.9</ele>
        <time>2018-05-19T09:08:52Z</time>
      </trkpt>
      <trkpt lat="44.06374" lon="3.03023">
        <ele>695.6</ele>
        <time>2018-05-19T09:09:28Z</time>
      </trkpt>
      <trkpt lat="44.06371" lon="3.03022">
        <ele>696</ele>
        <time>2018-05-19T09:09:32Z</time>
      </trkpt>
      <trkpt lat="44.06367" lon="3.03021">
        <ele>696</ele>
        <time>2018-05-19T09:09:35Z</time>
      </trkpt>
      <trkpt lat="44.06364" lon="3.03018">
        <ele>695.9</ele>
        <time>2018-05-19T09:09:37Z</time>
      </trkpt>
      <trkpt lat="44.06361" lon="3.03014">
        <ele>695.9</ele>
        <time>2018-05-19T09:09:39Z</time>
      </trkpt>
      <trkpt lat="44.0636" lon="3.0301">
        <ele>695.8</ele>
        <time>2018-05-19T09:09:41Z</time>
      </trkpt>
      <trkpt lat="44.06359" lon="3.03006">
        <ele>695.8</ele>
        <time>2018-05-19T09:09:43Z</time>
      </trkpt>
      <trkpt lat="44.06358" lon="3.03">
        <ele>695.7</ele>
        <time>2018-05-19T09:09:46Z</time>
      </trkpt>
      <trkpt lat="44.0636" lon="3.02994">
        <ele>695.6</ele>
        <time>2018-05-19T09:09:48Z</time>
      </trkpt>
      <trkpt lat="44.06362" lon="3.0299">
        <ele>695.5</ele>
        <time>2018-05-19T09:09:50Z</time>
      </trkpt>
      <trkpt lat="44.06365" lon="3.02985">
        <ele>695.4</ele>
        <time>2018-05-19T09:09:52Z</time>
      </trkpt>
      <trkpt lat="44.06367" lon="3.02982">
        <ele>695.4</ele>
        <time>2018-05-19T09:09:54Z</time>
      </trkpt>
      <trkpt lat="44.06369" lon="3.02979">
        <ele>695.3</ele>
        <time>2018-05-19T09:09:56Z</time>
      </trkpt>
      <trkpt lat="44.06372" lon="3.02976">
        <ele>695.3</ele>
        <time>2018-05-19T09:09:58Z</time>
      </trkpt>
      <trkpt lat="44.06374" lon="3.02973">
        <ele>695.2</ele>
        <time>2018-05-19T09:10:00Z</time>
      </trkpt>
      <trkpt lat="44.06378" lon="3.02969">
        <ele>695.1</ele>
        <time>2018-05-19T09:10:02Z</time>
      </trkpt>
      <trkpt lat="44.06382" lon="3.02965">
        <ele>695</ele>
        <time>2018-05-19T09:10:04Z</time>
      </trkpt>
      <trkpt lat="44.06385" lon="3.02962">
        <ele>694.9</ele>
        <time>2018-05-19T09:10:06Z</time>
      </trkpt>
      <trkpt lat="44.06388" lon="3.02957">
        <ele>694.9</ele>
        <time>2018-05-19T09:10:08Z</time>
      </trkpt>
      <trkpt lat="44.06391" lon="3.02953">
        <ele>694.8</ele>
        <time>2018-05-19T09:10:10Z</time>
      </trkpt>
      <trkpt lat="44.06393" lon="3.0295">
        <ele>694.8</ele>
        <time>2018-05-19T09:10:12Z</time>
      </trkpt>
      <trkpt lat="44.06395" lon="3.02946">
        <ele>694.8</ele>
        <time>2018-05-19T09:10:14Z</time>
      </trkpt>
      <trkpt lat="44.06397" lon="3.02942">
        <ele>694.7</ele>
        <time>2018-05-19T09:10:16Z</time>
      </trkpt>
      <trkpt lat="44.06399" lon="3.02938">
        <ele>694.7</ele>
        <time>2018-05-19T09:10:18Z</time>
      </trkpt>
      <trkpt lat="44.064" lon="3.02934">
        <ele>694.6</ele>
        <time>2018-05-19T09:10:20Z</time>
      </trkpt>
      <trkpt lat="44.06402" lon="3.0293">
        <ele>694.5</ele>
        <time>2018-05-19T09:10:22Z</time>
      </trkpt>
      <trkpt lat="44.06404" lon="3.02925">
        <ele>694.5</ele>
        <time>2018-05-19T09:10:24Z</time>
      </trkpt>
      <trkpt lat="44.06405" lon="3.0292">
        <ele>694.5</ele>
        <time>2018-05-19T09:10:26Z</time>
      </trkpt>
      <trkpt lat="44.06406" lon="3.02915">
        <ele>694.4</ele>
        <time>2018-05-19T09:10:29Z</time>
      </trkpt>
      <trkpt lat="44.06408" lon="3.02911">
        <ele>694.4</ele>
        <time>2018-05-19T09:10:31Z</time>
      </trkpt>
      <trkpt lat="44.0641" lon="3.02907">
        <ele>694.3</ele>
        <time>2018-05-19T09:10:33Z</time>
      </trkpt>
      <trkpt lat="44.06412" lon="3.02902">
        <ele>694.2</ele>
        <time>2018-05-19T09:10:35Z</time>
      </trkpt>
      <trkpt lat="44.06414" lon="3.02898">
        <ele>694.1</ele>
        <time>2018-05-19T09:10:37Z</time>
      </trkpt>
      <trkpt lat="44.06416" lon="3.02894">
        <ele>694</ele>
        <time>2018-05-19T09:10:39Z</time>
      </trkpt>
      <trkpt lat="44.06418" lon="3.02889">
        <ele>693.8</ele>
        <time>2018-05-19T09:10:41Z</time>
      </trkpt>
      <trkpt lat="44.06419" lon="3.02884">
        <ele>693.7</ele>
        <time>2018-05-19T09:10:43Z</time>
      </trkpt>
      <trkpt lat="44.06421" lon="3.02879">
        <ele>693.5</ele>
        <time>2018-05-19T09:10:45Z</time>
      </trkpt>
      <trkpt lat="44.06423" lon="3.02875">
        <ele>693.4</ele>
        <time>2018-05-19T09:10:47Z</time>
      </trkpt>
      <trkpt lat="44.06424" lon="3.02871">
        <ele>693.3</ele>
        <time>2018-05-19T09:10:49Z</time>
      </trkpt>
      <trkpt lat="44.06424" lon="3.02866">
        <ele>693.3</ele>
        <time>2018-05-19T09:10:51Z</time>
      </trkpt>
      <trkpt lat="44.06425" lon="3.02862">
        <ele>693.2</ele>
        <time>2018-05-19T09:10:53Z</time>
      </trkpt>
      <trkpt lat="44.06426" lon="3.02857">
        <ele>693.2</ele>
        <time>2018-05-19T09:10:55Z</time>
      </trkpt>
      <trkpt lat="44.06427" lon="3.02853">
        <ele>693.2</ele>
        <time>2018-05-19T09:10:57Z</time>
      </trkpt>
      <trkpt lat="44.06428" lon="3.02849">
        <ele>693.2</ele>
        <time>2018-05-19T09:10:59Z</time>
      </trkpt>
      <trkpt lat="44.06429" lon="3.02845">
        <ele>693.1</ele>
        <time>2018-05-19T09:11:01Z</time>
      </trkpt>
      <trkpt lat="44.0643" lon="3.0284">
        <ele>693.1</ele>
        <time>2018-05-19T09:11:03Z</time>
      </trkpt>
      <trkpt lat="44.0643" lon="3.02836">
        <ele>693.1</ele>
        <time>2018-05-19T09:11:05Z</time>
      </trkpt>
      <trkpt lat="44.06431" lon="3.02833">
        <ele>693</ele>
        <time>2018-05-19T09:11:07Z</time>
      </trkpt>
      <trkpt lat="44.06432" lon="3.02829">
        <ele>692.9</ele>
        <time>2018-05-19T09:11:09Z</time>
      </trkpt>
      <trkpt lat="44.06433" lon="3.02825">
        <ele>692.9</ele>
        <time>2018-05-19T09:11:11Z</time>
      </trkpt>
      <trkpt lat="44.06433" lon="3.0282">
        <ele>692.8</ele>
        <time>2018-05-19T09:11:13Z</time>
      </trkpt>
      <trkpt lat="44.06432" lon="3.02816">
        <ele>692.8</ele>
        <time>2018-05-19T09:11:15Z</time>
      </trkpt>
      <trkpt lat="44.06432" lon="3.02811">
        <ele>692.7</ele>
        <time>2018-05-19T09:11:18Z</time>
      </trkpt>
      <trkpt lat="44.0643" lon="3.02808">
        <ele>692.7</ele>
        <time>2018-05-19T09:11:22Z</time>
      </trkpt>
      <trkpt lat="44.06428" lon="3.02804">
        <ele>692.6</ele>
        <time>2018-05-19T09:11:24Z</time>
      </trkpt>
      <trkpt lat="44.06427" lon="3.02801">
        <ele>692.5</ele>
        <time>2018-05-19T09:11:26Z</time>
      </trkpt>
      <trkpt lat="44.06427" lon="3.02795">
        <ele>692.4</ele>
        <time>2018-05-19T09:11:29Z</time>
      </trkpt>
      <trkpt lat="44.06426" lon="3.02791">
        <ele>692.4</ele>
        <time>2018-05-19T09:11:31Z</time>
      </trkpt>
      <trkpt lat="44.06425" lon="3.02786">
        <ele>692.3</ele>
        <time>2018-05-19T09:11:33Z</time>
      </trkpt>
      <trkpt lat="44.06424" lon="3.0278">
        <ele>692.3</ele>
        <time>2018-05-19T09:11:35Z</time>
      </trkpt>
      <trkpt lat="44.06425" lon="3.02774">
        <ele>692.2</ele>
        <time>2018-05-19T09:11:37Z</time>
      </trkpt>
      <trkpt lat="44.06424" lon="3.02768">
        <ele>692.2</ele>
        <time>2018-05-19T09:11:39Z</time>
      </trkpt>
      <trkpt lat="44.06424" lon="3.02762">
        <ele>692.1</ele>
        <time>2018-05-19T09:11:41Z</time>
      </trkpt>
      <trkpt lat="44.06424" lon="3.02757">
        <ele>692.1</ele>
        <time>2018-05-19T09:11:43Z</time>
      </trkpt>
      <trkpt lat="44.06425" lon="3.0275">
        <ele>692</ele>
        <time>2018-05-19T09:11:45Z</time>
      </trkpt>
      <trkpt lat="44.06425" lon="3.02743">
        <ele>691.8</ele>
        <time>2018-05-19T09:11:47Z</time>
      </trkpt>
      <trkpt lat="44.06426" lon="3.02736">
        <ele>691.7</ele>
        <time>2018-05-19T09:11:49Z</time>
      </trkpt>
      <trkpt lat="44.06427" lon="3.0273">
        <ele>691.6</ele>
        <time>2018-05-19T09:11:51Z</time>
      </trkpt>
      <trkpt lat="44.06427" lon="3.02723">
        <ele>691.6</ele>
        <time>2018-05-19T09:11:53Z</time>
      </trkpt>
      <trkpt lat="44.06427" lon="3.02716">
        <ele>691.4</ele>
        <time>2018-05-19T09:11:55Z</time>
      </trkpt>
      <trkpt lat="44.06427" lon="3.02709">
        <ele>691.2</ele>
        <time>2018-05-19T09:11:57Z</time>
      </trkpt>
      <trkpt lat="44.06426" lon="3.02703">
        <ele>691.1</ele>
        <time>2018-05-19T09:11:59Z</time>
      </trkpt>
      <trkpt lat="44.06425" lon="3.02697">
        <ele>691</ele>
        <time>2018-05-19T09:12:01Z</time>
      </trkpt>
      <trkpt lat="44.06422" lon="3.02692">
        <ele>691.8</ele>
        <time>2018-05-19T09:12:03Z</time>
      </trkpt>
      <trkpt lat="44.06419" lon="3.02688">
        <ele>694.1</ele>
        <time>2018-05-19T09:12:05Z</time>
      </trkpt>
      <trkpt lat="44.06416" lon="3.02685">
        <ele>696.7</ele>
        <time>2018-05-19T09:12:07Z</time>
      </trkpt>
      <trkpt lat="44.06412" lon="3.02682">
        <ele>699.4</ele>
        <time>2018-05-19T09:12:09Z</time>
      </trkpt>
      <trkpt lat="44.06408" lon="3.02678">
        <ele>702.6</ele>
        <time>2018-05-19T09:12:11Z</time>
      </trkpt>
      <trkpt lat="44.06404" lon="3.02674">
        <ele>705.3</ele>
        <time>2018-05-19T09:12:13Z</time>
      </trkpt>
      <trkpt lat="44.064" lon="3.02669">
        <ele>707.5</ele>
        <time>2018-05-19T09:12:15Z</time>
      </trkpt>
      <trkpt lat="44.06398" lon="3.02664">
        <ele>709.2</ele>
        <time>2018-05-19T09:12:17Z</time>
      </trkpt>
      <trkpt lat="44.06395" lon="3.02659">
        <ele>710.8</ele>
        <time>2018-05-19T09:12:19Z</time>
      </trkpt>
      <trkpt lat="44.06393" lon="3.02654">
        <ele>711</ele>
        <time>2018-05-19T09:12:21Z</time>
      </trkpt>
      <trkpt lat="44.0639" lon="3.02647">
        <ele>711</ele>
        <time>2018-05-19T09:12:23Z</time>
      </trkpt>
      <trkpt lat="44.06388" lon="3.02642">
        <ele>711</ele>
        <time>2018-05-19T09:12:25Z</time>
      </trkpt>
      <trkpt lat="44.06386" lon="3.02637">
        <ele>711</ele>
        <time>2018-05-19T09:12:27Z</time>
      </trkpt>
      <trkpt lat="44.06385" lon="3.02631">
        <ele>711</ele>
        <time>2018-05-19T09:12:29Z</time>
      </trkpt>
      <trkpt lat="44.06384" lon="3.02627">
        <ele>711</ele>
        <time>2018-05-19T09:12:31Z</time>
      </trkpt>
      <trkpt lat="44.06381" lon="3.02623">
        <ele>711</ele>
        <time>2018-05-19T09:12:33Z</time>
      </trkpt>
      <trkpt lat="44.06379" lon="3.02617">
        <ele>711</ele>
        <time>2018-05-19T09:12:35Z</time>
      </trkpt>
      <trkpt lat="44.06378" lon="3.0261">
        <ele>711</ele>
        <time>2018-05-19T09:12:37Z</time>
      </trkpt>
      <trkpt lat="44.06377" lon="3.02605">
        <ele>710.8</ele>
        <time>2018-05-19T09:12:39Z</time>
      </trkpt>
      <trkpt lat="44.06375" lon="3.02599">
        <ele>710.6</ele>
        <time>2018-05-19T09:12:41Z</time>
      </trkpt>
      <trkpt lat="44.06374" lon="3.02593">
        <ele>710.5</ele>
        <time>2018-05-19T09:12:43Z</time>
      </trkpt>
      <trkpt lat="44.06373" lon="3.02588">
        <ele>710.3</ele>
        <time>2018-05-19T09:12:45Z</time>
      </trkpt>
      <trkpt lat="44.06371" lon="3.02583">
        <ele>710.1</ele>
        <time>2018-05-19T09:12:48Z</time>
      </trkpt>
      <trkpt lat="44.06371" lon="3.02577">
        <ele>709.9</ele>
        <time>2018-05-19T09:12:50Z</time>
      </trkpt>
      <trkpt lat="44.0637" lon="3.02573">
        <ele>709.8</ele>
        <time>2018-05-19T09:12:51Z</time>
      </trkpt>
      <trkpt lat="44.0637" lon="3.02569">
        <ele>709.7</ele>
        <time>2018-05-19T09:12:52Z</time>
      </trkpt>
      <trkpt lat="44.0637" lon="3.02566">
        <ele>709.5</ele>
        <time>2018-05-19T09:12:53Z</time>
      </trkpt>
      <trkpt lat="44.0637" lon="3.02562">
        <ele>709.4</ele>
        <time>2018-05-19T09:12:54Z</time>
      </trkpt>
      <trkpt lat="44.06369" lon="3.02558">
        <ele>709.2</ele>
        <time>2018-05-19T09:12:55Z</time>
      </trkpt>
      <trkpt lat="44.06369" lon="3.02554">
        <ele>709.1</ele>
        <time>2018-05-19T09:12:56Z</time>
      </trkpt>
      <trkpt lat="44.06368" lon="3.0255">
        <ele>708.9</ele>
        <time>2018-05-19T09:12:57Z</time>
      </trkpt>
      <trkpt lat="44.06367" lon="3.02544">
        <ele>708.6</ele>
        <time>2018-05-19T09:12:59Z</time>
      </trkpt>
      <trkpt lat="44.06366" lon="3.02537">
        <ele>708.1</ele>
        <time>2018-05-19T09:13:01Z</time>
      </trkpt>
      <trkpt lat="44.06366" lon="3.02529">
        <ele>707.6</ele>
        <time>2018-05-19T09:13:03Z</time>
      </trkpt>
      <trkpt lat="44.06365" lon="3.02526">
        <ele>707.2</ele>
        <time>2018-05-19T09:13:04Z</time>
      </trkpt>
      <trkpt lat="44.06364" lon="3.02522">
        <ele>706.9</ele>
        <time>2018-05-19T09:13:05Z</time>
      </trkpt>
      <trkpt lat="44.06363" lon="3.02519">
        <ele>706.7</ele>
        <time>2018-05-19T09:13:06Z</time>
      </trkpt>
      <trkpt lat="44.06362" lon="3.02515">
        <ele>706.5</ele>
        <time>2018-05-19T09:13:07Z</time>
      </trkpt>
      <trkpt lat="44.0636" lon="3.02508">
        <ele>706.1</ele>
        <time>2018-05-19T09:13:09Z</time>
      </trkpt>
      <trkpt lat="44.06358" lon="3.02502">
        <ele>705.7</ele>
        <time>2018-05-19T09:13:11Z</time>
      </trkpt>
      <trkpt lat="44.06356" lon="3.02496">
        <ele>705.3</ele>
        <time>2018-05-19T09:13:13Z</time>
      </trkpt>
      <trkpt lat="44.06354" lon="3.0249">
        <ele>704.9</ele>
        <time>2018-05-19T09:13:15Z</time>
      </trkpt>
      <trkpt lat="44.06352" lon="3.02484">
        <ele>704.5</ele>
        <time>2018-05-19T09:13:17Z</time>
      </trkpt>
      <trkpt lat="44.06349" lon="3.02478">
        <ele>704.1</ele>
        <time>2018-05-19T09:13:19Z</time>
      </trkpt>
      <trkpt lat="44.06347" lon="3.02472">
        <ele>705.3</ele>
        <time>2018-05-19T09:13:21Z</time>
      </trkpt>
      <trkpt lat="44.06345" lon="3.02466">
        <ele>707</ele>
        <time>2018-05-19T09:13:23Z</time>
      </trkpt>
      <trkpt lat="44.06344" lon="3.0246">
        <ele>708.5</ele>
        <time>2018-05-19T09:13:25Z</time>
      </trkpt>
      <trkpt lat="44.06343" lon="3.02455">
        <ele>709.2</ele>
        <time>2018-05-19T09:13:27Z</time>
      </trkpt>
      <trkpt lat="44.06342" lon="3.0245">
        <ele>710</ele>
        <time>2018-05-19T09:13:29Z</time>
      </trkpt>
      <trkpt lat="44.0634" lon="3.02445">
        <ele>710.8</ele>
        <time>2018-05-19T09:13:31Z</time>
      </trkpt>
      <trkpt lat="44.06338" lon="3.0244">
        <ele>711.9</ele>
        <time>2018-05-19T09:13:33Z</time>
      </trkpt>
      <trkpt lat="44.06337" lon="3.02436">
        <ele>713.3</ele>
        <time>2018-05-19T09:13:35Z</time>
      </trkpt>
      <trkpt lat="44.06335" lon="3.02432">
        <ele>714.9</ele>
        <time>2018-05-19T09:13:37Z</time>
      </trkpt>
      <trkpt lat="44.06333" lon="3.02427">
        <ele>715.8</ele>
        <time>2018-05-19T09:13:39Z</time>
      </trkpt>
      <trkpt lat="44.06332" lon="3.02422">
        <ele>716.8</ele>
        <time>2018-05-19T09:13:41Z</time>
      </trkpt>
      <trkpt lat="44.0633" lon="3.02418">
        <ele>717.8</ele>
        <time>2018-05-19T09:13:43Z</time>
      </trkpt>
      <trkpt lat="44.06328" lon="3.02414">
        <ele>719.5</ele>
        <time>2018-05-19T09:13:45Z</time>
      </trkpt>
      <trkpt lat="44.06325" lon="3.02409">
        <ele>721.8</ele>
        <time>2018-05-19T09:13:47Z</time>
      </trkpt>
      <trkpt lat="44.06323" lon="3.02405">
        <ele>723.9</ele>
        <time>2018-05-19T09:13:49Z</time>
      </trkpt>
      <trkpt lat="44.0632" lon="3.02402">
        <ele>724.7</ele>
        <time>2018-05-19T09:13:51Z</time>
      </trkpt>
      <trkpt lat="44.06318" lon="3.02401">
        <ele>725.3</ele>
        <time>2018-05-19T09:13:53Z</time>
      </trkpt>
      <trkpt lat="44.06315" lon="3.02397">
        <ele>726.1</ele>
        <time>2018-05-19T09:13:56Z</time>
      </trkpt>
      <trkpt lat="44.06313" lon="3.02394">
        <ele>726.7</ele>
        <time>2018-05-19T09:13:58Z</time>
      </trkpt>
      <trkpt lat="44.0631" lon="3.02394">
        <ele>727.1</ele>
        <time>2018-05-19T09:14:01Z</time>
      </trkpt>
      <trkpt lat="44.06307" lon="3.02395">
        <ele>727.2</ele>
        <time>2018-05-19T09:14:03Z</time>
      </trkpt>
      <trkpt lat="44.06304" lon="3.02398">
        <ele>727.4</ele>
        <time>2018-05-19T09:14:06Z</time>
      </trkpt>
      <trkpt lat="44.06303" lon="3.02403">
        <ele>727.7</ele>
        <time>2018-05-19T09:14:09Z</time>
      </trkpt>
      <trkpt lat="44.06303" lon="3.02408">
        <ele>728</ele>
        <time>2018-05-19T09:14:12Z</time>
      </trkpt>
      <trkpt lat="44.06304" lon="3.02411">
        <ele>728.2</ele>
        <time>2018-05-19T09:14:15Z</time>
      </trkpt>
      <trkpt lat="44.06303" lon="3.02416">
        <ele>728.5</ele>
        <time>2018-05-19T09:14:18Z</time>
      </trkpt>
      <trkpt lat="44.063" lon="3.02418">
        <ele>728.8</ele>
        <time>2018-05-19T09:14:27Z</time>
      </trkpt>
      <trkpt lat="44.063" lon="3.02422">
        <ele>729.1</ele>
        <time>2018-05-19T09:14:34Z</time>
      </trkpt>
      <trkpt lat="44.06299" lon="3.02427">
        <ele>729.3</ele>
        <time>2018-05-19T09:14:37Z</time>
      </trkpt>
      <trkpt lat="44.06299" lon="3.02431">
        <ele>729.5</ele>
        <time>2018-05-19T09:14:41Z</time>
      </trkpt>
      <trkpt lat="44.06297" lon="3.02435">
        <ele>729.6</ele>
        <time>2018-05-19T09:14:45Z</time>
      </trkpt>
      <trkpt lat="44.06295" lon="3.02438">
        <ele>729.7</ele>
        <time>2018-05-19T09:14:49Z</time>
      </trkpt>
      <trkpt lat="44.06296" lon="3.02442">
        <ele>729.7</ele>
        <time>2018-05-19T09:14:52Z</time>
      </trkpt>
      <trkpt lat="44.06295" lon="3.02446">
        <ele>729.6</ele>
        <time>2018-05-19T09:14:56Z</time>
      </trkpt>
      <trkpt lat="44.06294" lon="3.02451">
        <ele>729.5</ele>
        <time>2018-05-19T09:15:04Z</time>
      </trkpt>
      <trkpt lat="44.06294" lon="3.02455">
        <ele>728.6</ele>
        <time>2018-05-19T09:15:07Z</time>
      </trkpt>
      <trkpt lat="44.06293" lon="3.0246">
        <ele>728.4</ele>
        <time>2018-05-19T09:15:10Z</time>
      </trkpt>
      <trkpt lat="44.06292" lon="3.02464">
        <ele>728.2</ele>
        <time>2018-05-19T09:15:12Z</time>
      </trkpt>
      <trkpt lat="44.06291" lon="3.02468">
        <ele>728</ele>
        <time>2018-05-19T09:15:14Z</time>
      </trkpt>
      <trkpt lat="44.06291" lon="3.02472">
        <ele>727.8</ele>
        <time>2018-05-19T09:15:16Z</time>
      </trkpt>
      <trkpt lat="44.06289" lon="3.02477">
        <ele>727.7</ele>
        <time>2018-05-19T09:15:19Z</time>
      </trkpt>
      <trkpt lat="44.06289" lon="3.02482">
        <ele>727.6</ele>
        <time>2018-05-19T09:15:22Z</time>
      </trkpt>
      <trkpt lat="44.0629" lon="3.02487">
        <ele>727.6</ele>
        <time>2018-05-19T09:15:25Z</time>
      </trkpt>
      <trkpt lat="44.0629" lon="3.02491">
        <ele>727.6</ele>
        <time>2018-05-19T09:15:27Z</time>
      </trkpt>
      <trkpt lat="44.06289" lon="3.02496">
        <ele>727.7</ele>
        <time>2018-05-19T09:15:30Z</time>
      </trkpt>
      <trkpt lat="44.06287" lon="3.025">
        <ele>727.8</ele>
        <time>2018-05-19T09:15:33Z</time>
      </trkpt>
      <trkpt lat="44.06287" lon="3.02504">
        <ele>728</ele>
        <time>2018-05-19T09:15:36Z</time>
      </trkpt>
      <trkpt lat="44.06286" lon="3.02508">
        <ele>728.2</ele>
        <time>2018-05-19T09:15:38Z</time>
      </trkpt>
      <trkpt lat="44.06284" lon="3.02513">
        <ele>728.4</ele>
        <time>2018-05-19T09:15:41Z</time>
      </trkpt>
      <trkpt lat="44.06283" lon="3.02518">
        <ele>728.6</ele>
        <time>2018-05-19T09:15:44Z</time>
      </trkpt>
      <trkpt lat="44.06282" lon="3.02523">
        <ele>728.8</ele>
        <time>2018-05-19T09:15:47Z</time>
      </trkpt>
      <trkpt lat="44.0628" lon="3.02528">
        <ele>729</ele>
        <time>2018-05-19T09:15:50Z</time>
      </trkpt>
      <trkpt lat="44.06278" lon="3.0253">
        <ele>729.2</ele>
        <time>2018-05-19T09:15:52Z</time>
      </trkpt>
      <trkpt lat="44.06276" lon="3.02535">
        <ele>729.3</ele>
        <time>2018-05-19T09:15:55Z</time>
      </trkpt>
      <trkpt lat="44.06274" lon="3.0254">
        <ele>729.5</ele>
        <time>2018-05-19T09:15:58Z</time>
      </trkpt>
      <trkpt lat="44.06272" lon="3.02543">
        <ele>729.5</ele>
        <time>2018-05-19T09:16:00Z</time>
      </trkpt>
      <trkpt lat="44.06271" lon="3.02546">
        <ele>729.6</ele>
        <time>2018-05-19T09:16:02Z</time>
      </trkpt>
      <trkpt lat="44.06269" lon="3.02549">
        <ele>729.6</ele>
        <time>2018-05-19T09:16:04Z</time>
      </trkpt>
      <trkpt lat="44.06266" lon="3.02553">
        <ele>729.7</ele>
        <time>2018-05-19T09:16:06Z</time>
      </trkpt>
      <trkpt lat="44.06264" lon="3.02556">
        <ele>729.8</ele>
        <time>2018-05-19T09:16:08Z</time>
      </trkpt>
      <trkpt lat="44.06262" lon="3.02558">
        <ele>729.9</ele>
        <time>2018-05-19T09:16:10Z</time>
      </trkpt>
      <trkpt lat="44.06259" lon="3.0256">
        <ele>729.9</ele>
        <time>2018-05-19T09:16:13Z</time>
      </trkpt>
      <trkpt lat="44.06256" lon="3.02562">
        <ele>730</ele>
        <time>2018-05-19T09:16:16Z</time>
      </trkpt>
      <trkpt lat="44.06253" lon="3.02566">
        <ele>730</ele>
        <time>2018-05-19T09:16:19Z</time>
      </trkpt>
      <trkpt lat="44.06251" lon="3.02568">
        <ele>730.1</ele>
        <time>2018-05-19T09:16:21Z</time>
      </trkpt>
      <trkpt lat="44.06248" lon="3.0257">
        <ele>730.1</ele>
        <time>2018-05-19T09:16:23Z</time>
      </trkpt>
      <trkpt lat="44.06245" lon="3.02571">
        <ele>730.2</ele>
        <time>2018-05-19T09:16:25Z</time>
      </trkpt>
      <trkpt lat="44.06243" lon="3.02572">
        <ele>730.2</ele>
        <time>2018-05-19T09:16:27Z</time>
      </trkpt>
      <trkpt lat="44.0624" lon="3.02574">
        <ele>730.3</ele>
        <time>2018-05-19T09:16:29Z</time>
      </trkpt>
      <trkpt lat="44.06236" lon="3.02577">
        <ele>730.4</ele>
        <time>2018-05-19T09:16:32Z</time>
      </trkpt>
      <trkpt lat="44.06233" lon="3.02579">
        <ele>730.5</ele>
        <time>2018-05-19T09:16:35Z</time>
      </trkpt>
      <trkpt lat="44.0623" lon="3.02581">
        <ele>730.6</ele>
        <time>2018-05-19T09:16:37Z</time>
      </trkpt>
      <trkpt lat="44.06227" lon="3.02582">
        <ele>730.6</ele>
        <time>2018-05-19T09:16:39Z</time>
      </trkpt>
      <trkpt lat="44.06224" lon="3.02583">
        <ele>730.7</ele>
        <time>2018-05-19T09:16:41Z</time>
      </trkpt>
      <trkpt lat="44.06221" lon="3.02586">
        <ele>730.8</ele>
        <time>2018-05-19T09:16:43Z</time>
      </trkpt>
      <trkpt lat="44.06219" lon="3.02588">
        <ele>730.8</ele>
        <time>2018-05-19T09:16:45Z</time>
      </trkpt>
      <trkpt lat="44.06217" lon="3.02591">
        <ele>730.9</ele>
        <time>2018-05-19T09:16:47Z</time>
      </trkpt>
      <trkpt lat="44.06214" lon="3.02592">
        <ele>730.9</ele>
        <time>2018-05-19T09:16:49Z</time>
      </trkpt>
      <trkpt lat="44.06211" lon="3.02594">
        <ele>731</ele>
        <time>2018-05-19T09:16:51Z</time>
      </trkpt>
      <trkpt lat="44.06209" lon="3.02595">
        <ele>731</ele>
        <time>2018-05-19T09:16:53Z</time>
      </trkpt>
      <trkpt lat="44.06206" lon="3.02597">
        <ele>731</ele>
        <time>2018-05-19T09:16:55Z</time>
      </trkpt>
      <trkpt lat="44.06202" lon="3.02598">
        <ele>731</ele>
        <time>2018-05-19T09:16:57Z</time>
      </trkpt>
      <trkpt lat="44.06199" lon="3.026">
        <ele>731.1</ele>
        <time>2018-05-19T09:16:59Z</time>
      </trkpt>
      <trkpt lat="44.06196" lon="3.02602">
        <ele>731.1</ele>
        <time>2018-05-19T09:17:01Z</time>
      </trkpt>
      <trkpt lat="44.06193" lon="3.02603">
        <ele>731.1</ele>
        <time>2018-05-19T09:17:03Z</time>
      </trkpt>
      <trkpt lat="44.0619" lon="3.02604">
        <ele>731.1</ele>
        <time>2018-05-19T09:17:05Z</time>
      </trkpt>
      <trkpt lat="44.06187" lon="3.02605">
        <ele>731.1</ele>
        <time>2018-05-19T09:17:07Z</time>
      </trkpt>
      <trkpt lat="44.06184" lon="3.02606">
        <ele>731.1</ele>
        <time>2018-05-19T09:17:09Z</time>
      </trkpt>
      <trkpt lat="44.06182" lon="3.02608">
        <ele>731</ele>
        <time>2018-05-19T09:17:12Z</time>
      </trkpt>
      <trkpt lat="44.06179" lon="3.02612">
        <ele>731</ele>
        <time>2018-05-19T09:18:44Z</time>
      </trkpt>
      <trkpt lat="44.0618" lon="3.02618">
        <ele>731</ele>
        <time>2018-05-19T09:18:46Z</time>
      </trkpt>
      <trkpt lat="44.06182" lon="3.02621">
        <ele>731</ele>
        <time>2018-05-19T09:18:47Z</time>
      </trkpt>
      <trkpt lat="44.06184" lon="3.02623">
        <ele>731</ele>
        <time>2018-05-19T09:18:48Z</time>
      </trkpt>
      <trkpt lat="44.06189" lon="3.02626">
        <ele>730.5</ele>
        <time>2018-05-19T09:18:50Z</time>
      </trkpt>
      <trkpt lat="44.06192" lon="3.02627">
        <ele>730.1</ele>
        <time>2018-05-19T09:18:51Z</time>
      </trkpt>
      <trkpt lat="44.06196" lon="3.02629">
        <ele>729.5</ele>
        <time>2018-05-19T09:18:52Z</time>
      </trkpt>
      <trkpt lat="44.06199" lon="3.02632">
        <ele>728.8</ele>
        <time>2018-05-19T09:18:53Z</time>
      </trkpt>
      <trkpt lat="44.06202" lon="3.02635">
        <ele>728.3</ele>
        <time>2018-05-19T09:18:54Z</time>
      </trkpt>
      <trkpt lat="44.06199" lon="3.02636">
        <ele>728.8</ele>
        <time>2018-05-19T09:19:03Z</time>
      </trkpt>
      <trkpt lat="44.06196" lon="3.02635">
        <ele>729.5</ele>
        <time>2018-05-19T09:20:55Z</time>
      </trkpt>
      <trkpt lat="44.06193" lon="3.02633">
        <ele>730.3</ele>
        <time>2018-05-19T09:20:57Z</time>
      </trkpt>
      <trkpt lat="44.0619" lon="3.02629">
        <ele>730.9</ele>
        <time>2018-05-19T09:20:59Z</time>
      </trkpt>
      <trkpt lat="44.06188" lon="3.02625">
        <ele>731</ele>
        <time>2018-05-19T09:21:01Z</time>
      </trkpt>
      <trkpt lat="44.06185" lon="3.02621">
        <ele>731</ele>
        <time>2018-05-19T09:21:03Z</time>
      </trkpt>
      <trkpt lat="44.06182" lon="3.02618">
        <ele>731</ele>
        <time>2018-05-19T09:21:05Z</time>
      </trkpt>
      <trkpt lat="44.06178" lon="3.02613">
        <ele>731</ele>
        <time>2018-05-19T09:21:07Z</time>
      </trkpt>
      <trkpt lat="44.06176" lon="3.0261">
        <ele>731</ele>
        <time>2018-05-19T09:21:09Z</time>
      </trkpt>
      <trkpt lat="44.06173" lon="3.02606">
        <ele>731</ele>
        <time>2018-05-19T09:21:15Z</time>
      </trkpt>
      <trkpt lat="44.0617" lon="3.02603">
        <ele>730.8</ele>
        <time>2018-05-19T09:21:17Z</time>
      </trkpt>
      <trkpt lat="44.06166" lon="3.02599">
        <ele>730.5</ele>
        <time>2018-05-19T09:21:19Z</time>
      </trkpt>
      <trkpt lat="44.06163" lon="3.02595">
        <ele>730.3</ele>
        <time>2018-05-19T09:21:21Z</time>
      </trkpt>
      <trkpt lat="44.0616" lon="3.02588">
        <ele>729.3</ele>
        <time>2018-05-19T09:21:23Z</time>
      </trkpt>
      <trkpt lat="44.06158" lon="3.02582">
        <ele>728.9</ele>
        <time>2018-05-19T09:21:25Z</time>
      </trkpt>
      <trkpt lat="44.06157" lon="3.02575">
        <ele>728.4</ele>
        <time>2018-05-19T09:21:27Z</time>
      </trkpt>
      <trkpt lat="44.06156" lon="3.02568">
        <ele>727.8</ele>
        <time>2018-05-19T09:21:29Z</time>
      </trkpt>
      <trkpt lat="44.06156" lon="3.0256">
        <ele>727.3</ele>
        <time>2018-05-19T09:21:31Z</time>
      </trkpt>
      <trkpt lat="44.06155" lon="3.02556">
        <ele>727.1</ele>
        <time>2018-05-19T09:21:32Z</time>
      </trkpt>
      <trkpt lat="44.06155" lon="3.02552">
        <ele>726.9</ele>
        <time>2018-05-19T09:21:33Z</time>
      </trkpt>
      <trkpt lat="44.06155" lon="3.02548">
        <ele>726.7</ele>
        <time>2018-05-19T09:21:34Z</time>
      </trkpt>
      <trkpt lat="44.06155" lon="3.02543">
        <ele>726.5</ele>
        <time>2018-05-19T09:21:35Z</time>
      </trkpt>
      <trkpt lat="44.06154" lon="3.02539">
        <ele>726.4</ele>
        <time>2018-05-19T09:21:36Z</time>
      </trkpt>
      <trkpt lat="44.06154" lon="3.02535">
        <ele>726.4</ele>
        <time>2018-05-19T09:21:37Z</time>
      </trkpt>
      <trkpt lat="44.06154" lon="3.02531">
        <ele>726.3</ele>
        <time>2018-05-19T09:21:38Z</time>
      </trkpt>
      <trkpt lat="44.06153" lon="3.02527">
        <ele>726.2</ele>
        <time>2018-05-19T09:21:39Z</time>
      </trkpt>
      <trkpt lat="44.06153" lon="3.02523">
        <ele>726.2</ele>
        <time>2018-05-19T09:21:40Z</time>
      </trkpt>
      <trkpt lat="44.06152" lon="3.02518">
        <ele>726.1</ele>
        <time>2018-05-19T09:21:41Z</time>
      </trkpt>
      <trkpt lat="44.06152" lon="3.02513">
        <ele>726</ele>
        <time>2018-05-19T09:21:42Z</time>
      </trkpt>
      <trkpt lat="44.06152" lon="3.02508">
        <ele>725.9</ele>
        <time>2018-05-19T09:21:43Z</time>
      </trkpt>
      <trkpt lat="44.06151" lon="3.02502">
        <ele>725.9</ele>
        <time>2018-05-19T09:21:44Z</time>
      </trkpt>
      <trkpt lat="44.06151" lon="3.02496">
        <ele>725.8</ele>
        <time>2018-05-19T09:21:45Z</time>
      </trkpt>
      <trkpt lat="44.0615" lon="3.0249">
        <ele>725.7</ele>
        <time>2018-05-19T09:21:46Z</time>
      </trkpt>
      <trkpt lat="44.0615" lon="3.02481">
        <ele>725.5</ele>
        <time>2018-05-19T09:21:47Z</time>
      </trkpt>
      <trkpt lat="44.0615" lon="3.02472">
        <ele>725.1</ele>
        <time>2018-05-19T09:21:48Z</time>
      </trkpt>
      <trkpt lat="44.0615" lon="3.02463">
        <ele>724.8</ele>
        <time>2018-05-19T09:21:49Z</time>
      </trkpt>
      <trkpt lat="44.0615" lon="3.02454">
        <ele>724.4</ele>
        <time>2018-05-19T09:21:50Z</time>
      </trkpt>
      <trkpt lat="44.0615" lon="3.02444">
        <ele>724.1</ele>
        <time>2018-05-19T09:21:51Z</time>
      </trkpt>
      <trkpt lat="44.06149" lon="3.02432">
        <ele>723.8</ele>
        <time>2018-05-19T09:21:52Z</time>
      </trkpt>
      <trkpt lat="44.06148" lon="3.02419">
        <ele>723.5</ele>
        <time>2018-05-19T09:21:53Z</time>
      </trkpt>
      <trkpt lat="44.06147" lon="3.02407">
        <ele>723.1</ele>
        <time>2018-05-19T09:21:54Z</time>
      </trkpt>
      <trkpt lat="44.06147" lon="3.02394">
        <ele>722.6</ele>
        <time>2018-05-19T09:21:55Z</time>
      </trkpt>
      <trkpt lat="44.06146" lon="3.02382">
        <ele>722.2</ele>
        <time>2018-05-19T09:21:56Z</time>
      </trkpt>
      <trkpt lat="44.06145" lon="3.0237">
        <ele>721.9</ele>
        <time>2018-05-19T09:21:57Z</time>
      </trkpt>
      <trkpt lat="44.06145" lon="3.02358">
        <ele>721.8</ele>
        <time>2018-05-19T09:21:58Z</time>
      </trkpt>
      <trkpt lat="44.06144" lon="3.02348">
        <ele>721.6</ele>
        <time>2018-05-19T09:21:59Z</time>
      </trkpt>
      <trkpt lat="44.06143" lon="3.02341">
        <ele>721.5</ele>
        <time>2018-05-19T09:22:00Z</time>
      </trkpt>
      <trkpt lat="44.06142" lon="3.02333">
        <ele>721.4</ele>
        <time>2018-05-19T09:22:01Z</time>
      </trkpt>
      <trkpt lat="44.06141" lon="3.02324">
        <ele>721.3</ele>
        <time>2018-05-19T09:22:02Z</time>
      </trkpt>
      <trkpt lat="44.0614" lon="3.02318">
        <ele>721.2</ele>
        <time>2018-05-19T09:22:03Z</time>
      </trkpt>
      <trkpt lat="44.0614" lon="3.02313">
        <ele>721.2</ele>
        <time>2018-05-19T09:22:04Z</time>
      </trkpt>
      <trkpt lat="44.0614" lon="3.02309">
        <ele>721.1</ele>
        <time>2018-05-19T09:22:05Z</time>
      </trkpt>
      <trkpt lat="44.0614" lon="3.02304">
        <ele>721.1</ele>
        <time>2018-05-19T09:22:06Z</time>
      </trkpt>
      <trkpt lat="44.0614" lon="3.02298">
        <ele>721</ele>
        <time>2018-05-19T09:22:07Z</time>
      </trkpt>
      <trkpt lat="44.0614" lon="3.02293">
        <ele>721</ele>
        <time>2018-05-19T09:22:08Z</time>
      </trkpt>
      <trkpt lat="44.0614" lon="3.02289">
        <ele>721</ele>
        <time>2018-05-19T09:22:09Z</time>
      </trkpt>
      <trkpt lat="44.0614" lon="3.02283">
        <ele>721</ele>
        <time>2018-05-19T09:22:10Z</time>
      </trkpt>
      <trkpt lat="44.0614" lon="3.02276">
        <ele>721</ele>
        <time>2018-05-19T09:22:11Z</time>
      </trkpt>
      <trkpt lat="44.0614" lon="3.02271">
        <ele>721</ele>
        <time>2018-05-19T09:22:12Z</time>
      </trkpt>
      <trkpt lat="44.0614" lon="3.02267">
        <ele>721</ele>
        <time>2018-05-19T09:22:13Z</time>
      </trkpt>
      <trkpt lat="44.0614" lon="3.02261">
        <ele>721.1</ele>
        <time>2018-05-19T09:22:14Z</time>
      </trkpt>
      <trkpt lat="44.0614" lon="3.02256">
        <ele>721.1</ele>
        <time>2018-05-19T09:22:15Z</time>
      </trkpt>
      <trkpt lat="44.0614" lon="3.02252">
        <ele>721.2</ele>
        <time>2018-05-19T09:22:16Z</time>
      </trkpt>
      <trkpt lat="44.0614" lon="3.02247">
        <ele>721.3</ele>
        <time>2018-05-19T09:22:17Z</time>
      </trkpt>
      <trkpt lat="44.0614" lon="3.02243">
        <ele>721.3</ele>
        <time>2018-05-19T09:22:18Z</time>
      </trkpt>
      <trkpt lat="44.06141" lon="3.02239">
        <ele>721.4</ele>
        <time>2018-05-19T09:22:19Z</time>
      </trkpt>
      <trkpt lat="44.06141" lon="3.02235">
        <ele>721.4</ele>
        <time>2018-05-19T09:22:20Z</time>
      </trkpt>
      <trkpt lat="44.06141" lon="3.02231">
        <ele>721.5</ele>
        <time>2018-05-19T09:22:21Z</time>
      </trkpt>
      <trkpt lat="44.06142" lon="3.02226">
        <ele>721.6</ele>
        <time>2018-05-19T09:22:22Z</time>
      </trkpt>
      <trkpt lat="44.06142" lon="3.02222">
        <ele>721.6</ele>
        <time>2018-05-19T09:22:23Z</time>
      </trkpt>
      <trkpt lat="44.06143" lon="3.02217">
        <ele>721.7</ele>
        <time>2018-05-19T09:22:24Z</time>
      </trkpt>
      <trkpt lat="44.06143" lon="3.02213">
        <ele>721.8</ele>
        <time>2018-05-19T09:22:25Z</time>
      </trkpt>
      <trkpt lat="44.06144" lon="3.02208">
        <ele>721.8</ele>
        <time>2018-05-19T09:22:26Z</time>
      </trkpt>
      <trkpt lat="44.06144" lon="3.02203">
        <ele>721.9</ele>
        <time>2018-05-19T09:22:27Z</time>
      </trkpt>
      <trkpt lat="44.06145" lon="3.02198">
        <ele>722</ele>
        <time>2018-05-19T09:22:28Z</time>
      </trkpt>
      <trkpt lat="44.06146" lon="3.02192">
        <ele>722.1</ele>
        <time>2018-05-19T09:22:29Z</time>
      </trkpt>
      <trkpt lat="44.06147" lon="3.02186">
        <ele>722.2</ele>
        <time>2018-05-19T09:22:30Z</time>
      </trkpt>
      <trkpt lat="44.06148" lon="3.0218">
        <ele>722.3</ele>
        <time>2018-05-19T09:22:31Z</time>
      </trkpt>
      <trkpt lat="44.06149" lon="3.02175">
        <ele>722.4</ele>
        <time>2018-05-19T09:22:32Z</time>
      </trkpt>
      <trkpt lat="44.0615" lon="3.02166">
        <ele>722.6</ele>
        <time>2018-05-19T09:22:33Z</time>
      </trkpt>
      <trkpt lat="44.06151" lon="3.02159">
        <ele>722.8</ele>
        <time>2018-05-19T09:22:34Z</time>
      </trkpt>
      <trkpt lat="44.06151" lon="3.02152">
        <ele>723</ele>
        <time>2018-05-19T09:22:35Z</time>
      </trkpt>
      <trkpt lat="44.06151" lon="3.02145">
        <ele>723.2</ele>
        <time>2018-05-19T09:22:36Z</time>
      </trkpt>
      <trkpt lat="44.06153" lon="3.02138">
        <ele>723.3</ele>
        <time>2018-05-19T09:22:37Z</time>
      </trkpt>
      <trkpt lat="44.06153" lon="3.02131">
        <ele>723.5</ele>
        <time>2018-05-19T09:22:38Z</time>
      </trkpt>
      <trkpt lat="44.06155" lon="3.02125">
        <ele>723.7</ele>
        <time>2018-05-19T09:22:39Z</time>
      </trkpt>
      <trkpt lat="44.06156" lon="3.02117">
        <ele>723.9</ele>
        <time>2018-05-19T09:22:40Z</time>
      </trkpt>
      <trkpt lat="44.06158" lon="3.02109">
        <ele>724.2</ele>
        <time>2018-05-19T09:22:41Z</time>
      </trkpt>
      <trkpt lat="44.06158" lon="3.02102">
        <ele>724.4</ele>
        <time>2018-05-19T09:22:42Z</time>
      </trkpt>
      <trkpt lat="44.06159" lon="3.02096">
        <ele>724.6</ele>
        <time>2018-05-19T09:22:43Z</time>
      </trkpt>
      <trkpt lat="44.06159" lon="3.02088">
        <ele>724.8</ele>
        <time>2018-05-19T09:22:44Z</time>
      </trkpt>
      <trkpt lat="44.06161" lon="3.02081">
        <ele>725</ele>
        <time>2018-05-19T09:22:45Z</time>
      </trkpt>
      <trkpt lat="44.06162" lon="3.02075">
        <ele>725.2</ele>
        <time>2018-05-19T09:22:46Z</time>
      </trkpt>
      <trkpt lat="44.06163" lon="3.02069">
        <ele>725.3</ele>
        <time>2018-05-19T09:22:47Z</time>
      </trkpt>
      <trkpt lat="44.06165" lon="3.02062">
        <ele>725.6</ele>
        <time>2018-05-19T09:22:48Z</time>
      </trkpt>
      <trkpt lat="44.06166" lon="3.02057">
        <ele>725.7</ele>
        <time>2018-05-19T09:22:49Z</time>
      </trkpt>
      <trkpt lat="44.06166" lon="3.02051">
        <ele>725.9</ele>
        <time>2018-05-19T09:22:50Z</time>
      </trkpt>
      <trkpt lat="44.06167" lon="3.02045">
        <ele>726.1</ele>
        <time>2018-05-19T09:22:51Z</time>
      </trkpt>
      <trkpt lat="44.06168" lon="3.02038">
        <ele>726.4</ele>
        <time>2018-05-19T09:22:52Z</time>
      </trkpt>
      <trkpt lat="44.06169" lon="3.02031">
        <ele>726.7</ele>
        <time>2018-05-19T09:22:53Z</time>
      </trkpt>
      <trkpt lat="44.06169" lon="3.02025">
        <ele>726.8</ele>
        <time>2018-05-19T09:22:54Z</time>
      </trkpt>
      <trkpt lat="44.0617" lon="3.0202">
        <ele>726.9</ele>
        <time>2018-05-19T09:22:55Z</time>
      </trkpt>
      <trkpt lat="44.06171" lon="3.02014">
        <ele>727.1</ele>
        <time>2018-05-19T09:22:56Z</time>
      </trkpt>
      <trkpt lat="44.06172" lon="3.02008">
        <ele>727.2</ele>
        <time>2018-05-19T09:22:57Z</time>
      </trkpt>
      <trkpt lat="44.06173" lon="3.02002">
        <ele>727.4</ele>
        <time>2018-05-19T09:22:58Z</time>
      </trkpt>
      <trkpt lat="44.06174" lon="3.01996">
        <ele>727.6</ele>
        <time>2018-05-19T09:22:59Z</time>
      </trkpt>
      <trkpt lat="44.06174" lon="3.01992">
        <ele>727.7</ele>
        <time>2018-05-19T09:23:00Z</time>
      </trkpt>
      <trkpt lat="44.06174" lon="3.01986">
        <ele>727.9</ele>
        <time>2018-05-19T09:23:01Z</time>
      </trkpt>
      <trkpt lat="44.06173" lon="3.0198">
        <ele>728</ele>
        <time>2018-05-19T09:23:02Z</time>
      </trkpt>
      <trkpt lat="44.06173" lon="3.01973">
        <ele>728.3</ele>
        <time>2018-05-19T09:23:03Z</time>
      </trkpt>
      <trkpt lat="44.06172" lon="3.01968">
        <ele>728.5</ele>
        <time>2018-05-19T09:23:04Z</time>
      </trkpt>
      <trkpt lat="44.06171" lon="3.01963">
        <ele>728.7</ele>
        <time>2018-05-19T09:23:05Z</time>
      </trkpt>
      <trkpt lat="44.06168" lon="3.01959">
        <ele>728.9</ele>
        <time>2018-05-19T09:23:06Z</time>
      </trkpt>
      <trkpt lat="44.06167" lon="3.01953">
        <ele>729.2</ele>
        <time>2018-05-19T09:23:07Z</time>
      </trkpt>
      <trkpt lat="44.06165" lon="3.01948">
        <ele>729.4</ele>
        <time>2018-05-19T09:23:08Z</time>
      </trkpt>
      <trkpt lat="44.06164" lon="3.01943">
        <ele>729.6</ele>
        <time>2018-05-19T09:23:09Z</time>
      </trkpt>
      <trkpt lat="44.06162" lon="3.01938">
        <ele>729.9</ele>
        <time>2018-05-19T09:23:10Z</time>
      </trkpt>
      <trkpt lat="44.0616" lon="3.01933">
        <ele>730.1</ele>
        <time>2018-05-19T09:23:11Z</time>
      </trkpt>
      <trkpt lat="44.06158" lon="3.01928">
        <ele>730.5</ele>
        <time>2018-05-19T09:23:12Z</time>
      </trkpt>
      <trkpt lat="44.06156" lon="3.01924">
        <ele>730.7</ele>
        <time>2018-05-19T09:23:13Z</time>
      </trkpt>
      <trkpt lat="44.06154" lon="3.0192">
        <ele>730.9</ele>
        <time>2018-05-19T09:23:14Z</time>
      </trkpt>
      <trkpt lat="44.06153" lon="3.01915">
        <ele>731.1</ele>
        <time>2018-05-19T09:23:15Z</time>
      </trkpt>
      <trkpt lat="44.06151" lon="3.01911">
        <ele>731.2</ele>
        <time>2018-05-19T09:23:16Z</time>
      </trkpt>
      <trkpt lat="44.06149" lon="3.01907">
        <ele>731.4</ele>
        <time>2018-05-19T09:23:17Z</time>
      </trkpt>
      <trkpt lat="44.06147" lon="3.01903">
        <ele>731.6</ele>
        <time>2018-05-19T09:23:18Z</time>
      </trkpt>
      <trkpt lat="44.06145" lon="3.01899">
        <ele>731.7</ele>
        <time>2018-05-19T09:23:19Z</time>
      </trkpt>
      <trkpt lat="44.06143" lon="3.01895">
        <ele>731.8</ele>
        <time>2018-05-19T09:23:20Z</time>
      </trkpt>
      <trkpt lat="44.06142" lon="3.0189">
        <ele>731.9</ele>
        <time>2018-05-19T09:23:21Z</time>
      </trkpt>
      <trkpt lat="44.0614" lon="3.01886">
        <ele>732</ele>
        <time>2018-05-19T09:23:22Z</time>
      </trkpt>
      <trkpt lat="44.06138" lon="3.01882">
        <ele>732.1</ele>
        <time>2018-05-19T09:23:23Z</time>
      </trkpt>
      <trkpt lat="44.06136" lon="3.01877">
        <ele>732.3</ele>
        <time>2018-05-19T09:23:24Z</time>
      </trkpt>
      <trkpt lat="44.06133" lon="3.01873">
        <ele>732.4</ele>
        <time>2018-05-19T09:23:25Z</time>
      </trkpt>
      <trkpt lat="44.06131" lon="3.01869">
        <ele>732.5</ele>
        <time>2018-05-19T09:23:26Z</time>
      </trkpt>
      <trkpt lat="44.06129" lon="3.01865">
        <ele>732.6</ele>
        <time>2018-05-19T09:23:27Z</time>
      </trkpt>
      <trkpt lat="44.06126" lon="3.01861">
        <ele>732.8</ele>
        <time>2018-05-19T09:23:28Z</time>
      </trkpt>
      <trkpt lat="44.06124" lon="3.01857">
        <ele>732.9</ele>
        <time>2018-05-19T09:23:29Z</time>
      </trkpt>
      <trkpt lat="44.06122" lon="3.01853">
        <ele>733.1</ele>
        <time>2018-05-19T09:23:30Z</time>
      </trkpt>
      <trkpt lat="44.0612" lon="3.01849">
        <ele>733.2</ele>
        <time>2018-05-19T09:23:31Z</time>
      </trkpt>
      <trkpt lat="44.06118" lon="3.01844">
        <ele>733.4</ele>
        <time>2018-05-19T09:23:32Z</time>
      </trkpt>
      <trkpt lat="44.06116" lon="3.0184">
        <ele>733.6</ele>
        <time>2018-05-19T09:23:33Z</time>
      </trkpt>
      <trkpt lat="44.06113" lon="3.01836">
        <ele>733.8</ele>
        <time>2018-05-19T09:23:34Z</time>
      </trkpt>
      <trkpt lat="44.06111" lon="3.01832">
        <ele>734</ele>
        <time>2018-05-19T09:23:35Z</time>
      </trkpt>
      <trkpt lat="44.06108" lon="3.01828">
        <ele>734.1</ele>
        <time>2018-05-19T09:23:36Z</time>
      </trkpt>
      <trkpt lat="44.06106" lon="3.01823">
        <ele>734.3</ele>
        <time>2018-05-19T09:23:37Z</time>
      </trkpt>
      <trkpt lat="44.06103" lon="3.01819">
        <ele>734.4</ele>
        <time>2018-05-19T09:23:38Z</time>
      </trkpt>
      <trkpt lat="44.06101" lon="3.01815">
        <ele>734.6</ele>
        <time>2018-05-19T09:23:39Z</time>
      </trkpt>
      <trkpt lat="44.061" lon="3.01811">
        <ele>734.7</ele>
        <time>2018-05-19T09:23:40Z</time>
      </trkpt>
      <trkpt lat="44.06098" lon="3.01807">
        <ele>734.9</ele>
        <time>2018-05-19T09:23:41Z</time>
      </trkpt>
      <trkpt lat="44.06097" lon="3.01803">
        <ele>735</ele>
        <time>2018-05-19T09:23:42Z</time>
      </trkpt>
      <trkpt lat="44.06096" lon="3.01798">
        <ele>735</ele>
        <time>2018-05-19T09:23:43Z</time>
      </trkpt>
      <trkpt lat="44.06096" lon="3.01795">
        <ele>735</ele>
        <time>2018-05-19T09:23:44Z</time>
      </trkpt>
      <trkpt lat="44.06097" lon="3.01791">
        <ele>734.8</ele>
        <time>2018-05-19T09:23:45Z</time>
      </trkpt>
      <trkpt lat="44.061" lon="3.01784">
        <ele>734.4</ele>
        <time>2018-05-19T09:23:47Z</time>
      </trkpt>
      <trkpt lat="44.06101" lon="3.01781">
        <ele>734.2</ele>
        <time>2018-05-19T09:23:48Z</time>
      </trkpt>
      <trkpt lat="44.06104" lon="3.01778">
        <ele>733.9</ele>
        <time>2018-05-19T09:23:49Z</time>
      </trkpt>
      <trkpt lat="44.06106" lon="3.01774">
        <ele>733.6</ele>
        <time>2018-05-19T09:23:50Z</time>
      </trkpt>
      <trkpt lat="44.06109" lon="3.01771">
        <ele>733.4</ele>
        <time>2018-05-19T09:23:51Z</time>
      </trkpt>
      <trkpt lat="44.06111" lon="3.01768">
        <ele>733.3</ele>
        <time>2018-05-19T09:23:52Z</time>
      </trkpt>
      <trkpt lat="44.06114" lon="3.01764">
        <ele>733.1</ele>
        <time>2018-05-19T09:23:53Z</time>
      </trkpt>
      <trkpt lat="44.06116" lon="3.01761">
        <ele>733</ele>
        <time>2018-05-19T09:23:54Z</time>
      </trkpt>
      <trkpt lat="44.06119" lon="3.01758">
        <ele>732.9</ele>
        <time>2018-05-19T09:23:55Z</time>
      </trkpt>
      <trkpt lat="44.06122" lon="3.01755">
        <ele>732.8</ele>
        <time>2018-05-19T09:23:56Z</time>
      </trkpt>
      <trkpt lat="44.06125" lon="3.01752">
        <ele>732.6</ele>
        <time>2018-05-19T09:23:57Z</time>
      </trkpt>
      <trkpt lat="44.06128" lon="3.01748">
        <ele>732.5</ele>
        <time>2018-05-19T09:23:58Z</time>
      </trkpt>
      <trkpt lat="44.0613" lon="3.01745">
        <ele>732.4</ele>
        <time>2018-05-19T09:23:59Z</time>
      </trkpt>
      <trkpt lat="44.06133" lon="3.01742">
        <ele>732.3</ele>
        <time>2018-05-19T09:24:00Z</time>
      </trkpt>
      <trkpt lat="44.06136" lon="3.01739">
        <ele>732.2</ele>
        <time>2018-05-19T09:24:01Z</time>
      </trkpt>
      <trkpt lat="44.06139" lon="3.01735">
        <ele>732</ele>
        <time>2018-05-19T09:24:02Z</time>
      </trkpt>
      <trkpt lat="44.06141" lon="3.01732">
        <ele>731.9</ele>
        <time>2018-05-19T09:24:03Z</time>
      </trkpt>
      <trkpt lat="44.06144" lon="3.01728">
        <ele>731.7</ele>
        <time>2018-05-19T09:24:04Z</time>
      </trkpt>
      <trkpt lat="44.06147" lon="3.01724">
        <ele>731.6</ele>
        <time>2018-05-19T09:24:05Z</time>
      </trkpt>
      <trkpt lat="44.0615" lon="3.0172">
        <ele>731.5</ele>
        <time>2018-05-19T09:24:06Z</time>
      </trkpt>
      <trkpt lat="44.06153" lon="3.01716">
        <ele>731.2</ele>
        <time>2018-05-19T09:24:07Z</time>
      </trkpt>
      <trkpt lat="44.06157" lon="3.0171">
        <ele>730.8</ele>
        <time>2018-05-19T09:24:08Z</time>
      </trkpt>
      <trkpt lat="44.06161" lon="3.01705">
        <ele>730.4</ele>
        <time>2018-05-19T09:24:09Z</time>
      </trkpt>
      <trkpt lat="44.06165" lon="3.017">
        <ele>730.2</ele>
        <time>2018-05-19T09:24:10Z</time>
      </trkpt>
      <trkpt lat="44.06169" lon="3.01694">
        <ele>730</ele>
        <time>2018-05-19T09:24:11Z</time>
      </trkpt>
      <trkpt lat="44.06174" lon="3.01688">
        <ele>729.7</ele>
        <time>2018-05-19T09:24:12Z</time>
      </trkpt>
      <trkpt lat="44.06178" lon="3.01682">
        <ele>729.6</ele>
        <time>2018-05-19T09:24:13Z</time>
      </trkpt>
      <trkpt lat="44.06181" lon="3.01675">
        <ele>729.4</ele>
        <time>2018-05-19T09:24:14Z</time>
      </trkpt>
      <trkpt lat="44.06185" lon="3.01667">
        <ele>729.3</ele>
        <time>2018-05-19T09:24:15Z</time>
      </trkpt>
      <trkpt lat="44.0619" lon="3.0166">
        <ele>729.1</ele>
        <time>2018-05-19T09:24:16Z</time>
      </trkpt>
      <trkpt lat="44.06197" lon="3.01654">
        <ele>729</ele>
        <time>2018-05-19T09:24:17Z</time>
      </trkpt>
      <trkpt lat="44.06202" lon="3.01647">
        <ele>728.8</ele>
        <time>2018-05-19T09:24:18Z</time>
      </trkpt>
      <trkpt lat="44.06208" lon="3.0164">
        <ele>728.7</ele>
        <time>2018-05-19T09:24:19Z</time>
      </trkpt>
      <trkpt lat="44.06213" lon="3.01632">
        <ele>728.5</ele>
        <time>2018-05-19T09:24:20Z</time>
      </trkpt>
      <trkpt lat="44.06219" lon="3.01624">
        <ele>728.3</ele>
        <time>2018-05-19T09:24:21Z</time>
      </trkpt>
      <trkpt lat="44.06225" lon="3.01616">
        <ele>728.1</ele>
        <time>2018-05-19T09:24:22Z</time>
      </trkpt>
      <trkpt lat="44.06231" lon="3.01607">
        <ele>728</ele>
        <time>2018-05-19T09:24:23Z</time>
      </trkpt>
      <trkpt lat="44.06236" lon="3.016">
        <ele>727.8</ele>
        <time>2018-05-19T09:24:24Z</time>
      </trkpt>
      <trkpt lat="44.06241" lon="3.01591">
        <ele>727.6</ele>
        <time>2018-05-19T09:24:25Z</time>
      </trkpt>
      <trkpt lat="44.06247" lon="3.01584">
        <ele>727.4</ele>
        <time>2018-05-19T09:24:26Z</time>
      </trkpt>
      <trkpt lat="44.06251" lon="3.01577">
        <ele>727.1</ele>
        <time>2018-05-19T09:24:27Z</time>
      </trkpt>
      <trkpt lat="44.06255" lon="3.01569">
        <ele>726.9</ele>
        <time>2018-05-19T09:24:28Z</time>
      </trkpt>
      <trkpt lat="44.06259" lon="3.01561">
        <ele>726.6</ele>
        <time>2018-05-19T09:24:29Z</time>
      </trkpt>
      <trkpt lat="44.06263" lon="3.01554">
        <ele>726.4</ele>
        <time>2018-05-19T09:24:30Z</time>
      </trkpt>
      <trkpt lat="44.06266" lon="3.01548">
        <ele>726.2</ele>
        <time>2018-05-19T09:24:31Z</time>
      </trkpt>
      <trkpt lat="44.06271" lon="3.01541">
        <ele>726</ele>
        <time>2018-05-19T09:24:32Z</time>
      </trkpt>
      <trkpt lat="44.06275" lon="3.01535">
        <ele>725.8</ele>
        <time>2018-05-19T09:24:33Z</time>
      </trkpt>
      <trkpt lat="44.06278" lon="3.0153">
        <ele>725.6</ele>
        <time>2018-05-19T09:24:34Z</time>
      </trkpt>
      <trkpt lat="44.06281" lon="3.01525">
        <ele>725.5</ele>
        <time>2018-05-19T09:24:35Z</time>
      </trkpt>
      <trkpt lat="44.06284" lon="3.01518">
        <ele>725.2</ele>
        <time>2018-05-19T09:24:36Z</time>
      </trkpt>
      <trkpt lat="44.06288" lon="3.01512">
        <ele>725</ele>
        <time>2018-05-19T09:24:37Z</time>
      </trkpt>
      <trkpt lat="44.06291" lon="3.01507">
        <ele>724.8</ele>
        <time>2018-05-19T09:24:38Z</time>
      </trkpt>
      <trkpt lat="44.06294" lon="3.01503">
        <ele>724.6</ele>
        <time>2018-05-19T09:24:39Z</time>
      </trkpt>
      <trkpt lat="44.06297" lon="3.01497">
        <ele>724.4</ele>
        <time>2018-05-19T09:24:40Z</time>
      </trkpt>
      <trkpt lat="44.063" lon="3.01492">
        <ele>724.2</ele>
        <time>2018-05-19T09:24:41Z</time>
      </trkpt>
      <trkpt lat="44.06302" lon="3.01486">
        <ele>724</ele>
        <time>2018-05-19T09:24:42Z</time>
      </trkpt>
      <trkpt lat="44.06304" lon="3.01479">
        <ele>723.8</ele>
        <time>2018-05-19T09:24:43Z</time>
      </trkpt>
      <trkpt lat="44.06306" lon="3.01473">
        <ele>723.5</ele>
        <time>2018-05-19T09:24:44Z</time>
      </trkpt>
      <trkpt lat="44.06309" lon="3.01467">
        <ele>723.3</ele>
        <time>2018-05-19T09:24:45Z</time>
      </trkpt>
      <trkpt lat="44.0631" lon="3.0146">
        <ele>723</ele>
        <time>2018-05-19T09:24:46Z</time>
      </trkpt>
      <trkpt lat="44.06313" lon="3.01453">
        <ele>722.7</ele>
        <time>2018-05-19T09:24:47Z</time>
      </trkpt>
      <trkpt lat="44.06315" lon="3.01448">
        <ele>722.5</ele>
        <time>2018-05-19T09:24:48Z</time>
      </trkpt>
      <trkpt lat="44.06317" lon="3.01442">
        <ele>722.3</ele>
        <time>2018-05-19T09:24:49Z</time>
      </trkpt>
      <trkpt lat="44.06318" lon="3.01436">
        <ele>722.1</ele>
        <time>2018-05-19T09:24:50Z</time>
      </trkpt>
      <trkpt lat="44.06318" lon="3.01428">
        <ele>722</ele>
        <time>2018-05-19T09:24:51Z</time>
      </trkpt>
      <trkpt lat="44.0632" lon="3.01421">
        <ele>721.8</ele>
        <time>2018-05-19T09:24:52Z</time>
      </trkpt>
      <trkpt lat="44.0632" lon="3.01415">
        <ele>721.6</ele>
        <time>2018-05-19T09:24:53Z</time>
      </trkpt>
      <trkpt lat="44.06321" lon="3.0141">
        <ele>721.5</ele>
        <time>2018-05-19T09:24:54Z</time>
      </trkpt>
      <trkpt lat="44.06323" lon="3.01404">
        <ele>721.2</ele>
        <time>2018-05-19T09:24:55Z</time>
      </trkpt>
      <trkpt lat="44.06325" lon="3.01397">
        <ele>721</ele>
        <time>2018-05-19T09:24:56Z</time>
      </trkpt>
      <trkpt lat="44.06329" lon="3.0139">
        <ele>720.7</ele>
        <time>2018-05-19T09:24:57Z</time>
      </trkpt>
      <trkpt lat="44.06331" lon="3.01387">
        <ele>720.5</ele>
        <time>2018-05-19T09:24:58Z</time>
      </trkpt>
      <trkpt lat="44.06336" lon="3.01383">
        <ele>720.2</ele>
        <time>2018-05-19T09:24:59Z</time>
      </trkpt>
      <trkpt lat="44.06339" lon="3.0138">
        <ele>720.1</ele>
        <time>2018-05-19T09:25:00Z</time>
      </trkpt>
      <trkpt lat="44.06344" lon="3.01379">
        <ele>719.9</ele>
        <time>2018-05-19T09:25:01Z</time>
      </trkpt>
      <trkpt lat="44.0635" lon="3.01376">
        <ele>719.7</ele>
        <time>2018-05-19T09:25:02Z</time>
      </trkpt>
      <trkpt lat="44.06356" lon="3.01374">
        <ele>719.5</ele>
        <time>2018-05-19T09:25:03Z</time>
      </trkpt>
      <trkpt lat="44.06363" lon="3.01372">
        <ele>719.2</ele>
        <time>2018-05-19T09:25:04Z</time>
      </trkpt>
      <trkpt lat="44.0637" lon="3.01373">
        <ele>719</ele>
        <time>2018-05-19T09:25:05Z</time>
      </trkpt>
      <trkpt lat="44.06376" lon="3.01376">
        <ele>718.7</ele>
        <time>2018-05-19T09:25:06Z</time>
      </trkpt>
      <trkpt lat="44.06382" lon="3.01382">
        <ele>718.5</ele>
        <time>2018-05-19T09:25:07Z</time>
      </trkpt>
      <trkpt lat="44.06387" lon="3.0139">
        <ele>718.2</ele>
        <time>2018-05-19T09:25:08Z</time>
      </trkpt>
      <trkpt lat="44.06392" lon="3.01398">
        <ele>717.9</ele>
        <time>2018-05-19T09:25:09Z</time>
      </trkpt>
      <trkpt lat="44.06397" lon="3.01407">
        <ele>717.6</ele>
        <time>2018-05-19T09:25:10Z</time>
      </trkpt>
      <trkpt lat="44.06402" lon="3.01416">
        <ele>717.2</ele>
        <time>2018-05-19T09:25:11Z</time>
      </trkpt>
      <trkpt lat="44.06407" lon="3.01423">
        <ele>716.8</ele>
        <time>2018-05-19T09:25:12Z</time>
      </trkpt>
      <trkpt lat="44.06411" lon="3.01432">
        <ele>716.6</ele>
        <time>2018-05-19T09:25:13Z</time>
      </trkpt>
      <trkpt lat="44.06414" lon="3.01442">
        <ele>716.3</ele>
        <time>2018-05-19T09:25:14Z</time>
      </trkpt>
      <trkpt lat="44.06418" lon="3.0145">
        <ele>716</ele>
        <time>2018-05-19T09:25:15Z</time>
      </trkpt>
      <trkpt lat="44.06425" lon="3.01454">
        <ele>715.7</ele>
        <time>2018-05-19T09:25:16Z</time>
      </trkpt>
      <trkpt lat="44.06432" lon="3.01459">
        <ele>715.2</ele>
        <time>2018-05-19T09:25:17Z</time>
      </trkpt>
      <trkpt lat="44.06437" lon="3.0146">
        <ele>714.9</ele>
        <time>2018-05-19T09:25:18Z</time>
      </trkpt>
      <trkpt lat="44.06441" lon="3.0146">
        <ele>714.6</ele>
        <time>2018-05-19T09:25:19Z</time>
      </trkpt>
      <trkpt lat="44.06444" lon="3.01458">
        <ele>714.5</ele>
        <time>2018-05-19T09:25:20Z</time>
      </trkpt>
      <trkpt lat="44.06448" lon="3.01457">
        <ele>714.3</ele>
        <time>2018-05-19T09:25:21Z</time>
      </trkpt>
      <trkpt lat="44.06454" lon="3.01452">
        <ele>714</ele>
        <time>2018-05-19T09:25:23Z</time>
      </trkpt>
      <trkpt lat="44.06457" lon="3.0145">
        <ele>713.9</ele>
        <time>2018-05-19T09:25:24Z</time>
      </trkpt>
      <trkpt lat="44.06459" lon="3.01449">
        <ele>713.8</ele>
        <time>2018-05-19T09:25:25Z</time>
      </trkpt>
      <trkpt lat="44.06463" lon="3.01446">
        <ele>713.6</ele>
        <time>2018-05-19T09:25:26Z</time>
      </trkpt>
      <trkpt lat="44.06467" lon="3.01443">
        <ele>713.3</ele>
        <time>2018-05-19T09:25:27Z</time>
      </trkpt>
      <trkpt lat="44.06474" lon="3.01439">
        <ele>712.9</ele>
        <time>2018-05-19T09:25:29Z</time>
      </trkpt>
      <trkpt lat="44.06479" lon="3.01437">
        <ele>712.7</ele>
        <time>2018-05-19T09:25:30Z</time>
      </trkpt>
      <trkpt lat="44.06485" lon="3.01433">
        <ele>712.4</ele>
        <time>2018-05-19T09:25:31Z</time>
      </trkpt>
      <trkpt lat="44.06491" lon="3.0143">
        <ele>712.1</ele>
        <time>2018-05-19T09:25:32Z</time>
      </trkpt>
      <trkpt lat="44.06497" lon="3.01426">
        <ele>711.9</ele>
        <time>2018-05-19T09:25:33Z</time>
      </trkpt>
      <trkpt lat="44.06503" lon="3.01426">
        <ele>711.4</ele>
        <time>2018-05-19T09:25:34Z</time>
      </trkpt>
      <trkpt lat="44.06508" lon="3.01428">
        <ele>711</ele>
        <time>2018-05-19T09:25:35Z</time>
      </trkpt>
      <trkpt lat="44.06512" lon="3.01432">
        <ele>710.5</ele>
        <time>2018-05-19T09:25:36Z</time>
      </trkpt>
      <trkpt lat="44.06516" lon="3.01439">
        <ele>710</ele>
        <time>2018-05-19T09:25:37Z</time>
      </trkpt>
      <trkpt lat="44.0652" lon="3.01442">
        <ele>709.6</ele>
        <time>2018-05-19T09:25:38Z</time>
      </trkpt>
      <trkpt lat="44.06524" lon="3.01447">
        <ele>709.2</ele>
        <time>2018-05-19T09:25:39Z</time>
      </trkpt>
      <trkpt lat="44.06529" lon="3.01451">
        <ele>708.8</ele>
        <time>2018-05-19T09:25:40Z</time>
      </trkpt>
      <trkpt lat="44.06532" lon="3.0145">
        <ele>708.5</ele>
        <time>2018-05-19T09:25:41Z</time>
      </trkpt>
      <trkpt lat="44.06536" lon="3.01449">
        <ele>708.1</ele>
        <time>2018-05-19T09:25:42Z</time>
      </trkpt>
      <trkpt lat="44.06541" lon="3.01449">
        <ele>707.6</ele>
        <time>2018-05-19T09:25:43Z</time>
      </trkpt>
      <trkpt lat="44.06546" lon="3.01446">
        <ele>706.9</ele>
        <time>2018-05-19T09:25:44Z</time>
      </trkpt>
      <trkpt lat="44.06551" lon="3.01443">
        <ele>706.3</ele>
        <time>2018-05-19T09:25:45Z</time>
      </trkpt>
      <trkpt lat="44.06554" lon="3.0144">
        <ele>705.9</ele>
        <time>2018-05-19T09:25:46Z</time>
      </trkpt>
      <trkpt lat="44.06558" lon="3.01439">
        <ele>705.6</ele>
        <time>2018-05-19T09:25:47Z</time>
      </trkpt>
      <trkpt lat="44.06562" lon="3.01439">
        <ele>705.2</ele>
        <time>2018-05-19T09:25:49Z</time>
      </trkpt>
      <trkpt lat="44.06564" lon="3.01435">
        <ele>704.9</ele>
        <time>2018-05-19T09:25:51Z</time>
      </trkpt>
      <trkpt lat="44.06567" lon="3.01432">
        <ele>704.4</ele>
        <time>2018-05-19T09:25:52Z</time>
      </trkpt>
      <trkpt lat="44.0657" lon="3.01428">
        <ele>702.6</ele>
        <time>2018-05-19T09:25:53Z</time>
      </trkpt>
      <trkpt lat="44.06575" lon="3.01424">
        <ele>701.9</ele>
        <time>2018-05-19T09:25:55Z</time>
      </trkpt>
      <trkpt lat="44.06579" lon="3.01421">
        <ele>701.3</ele>
        <time>2018-05-19T09:25:56Z</time>
      </trkpt>
      <trkpt lat="44.06582" lon="3.01418">
        <ele>700.9</ele>
        <time>2018-05-19T09:25:57Z</time>
      </trkpt>
      <trkpt lat="44.06586" lon="3.01416">
        <ele>700.4</ele>
        <time>2018-05-19T09:25:59Z</time>
      </trkpt>
      <trkpt lat="44.06588" lon="3.01418">
        <ele>700.1</ele>
        <time>2018-05-19T09:26:04Z</time>
      </trkpt>
      <trkpt lat="44.06591" lon="3.01419">
        <ele>699.7</ele>
        <time>2018-05-19T09:26:13Z</time>
      </trkpt>
      <trkpt lat="44.06594" lon="3.01417">
        <ele>699.4</ele>
        <time>2018-05-19T09:26:15Z</time>
      </trkpt>
      <trkpt lat="44.06597" lon="3.01414">
        <ele>698.9</ele>
        <time>2018-05-19T09:26:17Z</time>
      </trkpt>
      <trkpt lat="44.06603" lon="3.01413">
        <ele>698.2</ele>
        <time>2018-05-19T09:26:19Z</time>
      </trkpt>
      <trkpt lat="44.06607" lon="3.01413">
        <ele>697.5</ele>
        <time>2018-05-19T09:26:20Z</time>
      </trkpt>
      <trkpt lat="44.06611" lon="3.01413">
        <ele>696.7</ele>
        <time>2018-05-19T09:26:21Z</time>
      </trkpt>
      <trkpt lat="44.06615" lon="3.01412">
        <ele>696.1</ele>
        <time>2018-05-19T09:26:22Z</time>
      </trkpt>
      <trkpt lat="44.06617" lon="3.01411">
        <ele>695.6</ele>
        <time>2018-05-19T09:26:23Z</time>
      </trkpt>
      <trkpt lat="44.06622" lon="3.0141">
        <ele>695.6</ele>
        <time>2018-05-19T09:26:25Z</time>
      </trkpt>
      <trkpt lat="44.06625" lon="3.0141">
        <ele>695.6</ele>
        <time>2018-05-19T09:26:26Z</time>
      </trkpt>
      <trkpt lat="44.0663" lon="3.01411">
        <ele>695.6</ele>
        <time>2018-05-19T09:26:28Z</time>
      </trkpt>
      <trkpt lat="44.06634" lon="3.01412">
        <ele>696.5</ele>
        <time>2018-05-19T09:26:29Z</time>
      </trkpt>
      <trkpt lat="44.06638" lon="3.01412">
        <ele>696.5</ele>
        <time>2018-05-19T09:26:30Z</time>
      </trkpt>
      <trkpt lat="44.06642" lon="3.01408">
        <ele>695.6</ele>
        <time>2018-05-19T09:26:32Z</time>
      </trkpt>
      <trkpt lat="44.06639" lon="3.01402">
        <ele>693.7</ele>
        <time>2018-05-19T09:26:34Z</time>
      </trkpt>
      <trkpt lat="44.06637" lon="3.01399">
        <ele>693.7</ele>
        <time>2018-05-19T09:26:35Z</time>
      </trkpt>
      <trkpt lat="44.06636" lon="3.01396">
        <ele>692.7</ele>
        <time>2018-05-19T09:26:36Z</time>
      </trkpt>
      <trkpt lat="44.06635" lon="3.0139">
        <ele>690.7</ele>
        <time>2018-05-19T09:26:38Z</time>
      </trkpt>
      <trkpt lat="44.06634" lon="3.01385">
        <ele>689.5</ele>
        <time>2018-05-19T09:26:53Z</time>
      </trkpt>
      <trkpt lat="44.06636" lon="3.01382">
        <ele>689.5</ele>
        <time>2018-05-19T09:26:57Z</time>
      </trkpt>
      <trkpt lat="44.06635" lon="3.01376">
        <ele>687.2</ele>
        <time>2018-05-19T09:26:59Z</time>
      </trkpt>
      <trkpt lat="44.06633" lon="3.0137">
        <ele>686.1</ele>
        <time>2018-05-19T09:27:01Z</time>
      </trkpt>
      <trkpt lat="44.06632" lon="3.01367">
        <ele>685.1</ele>
        <time>2018-05-19T09:27:03Z</time>
      </trkpt>
      <trkpt lat="44.0663" lon="3.01362">
        <ele>684</ele>
        <time>2018-05-19T09:27:06Z</time>
      </trkpt>
      <trkpt lat="44.06627" lon="3.01359">
        <ele>683</ele>
        <time>2018-05-19T09:27:08Z</time>
      </trkpt>
      <trkpt lat="44.06629" lon="3.01356">
        <ele>681.9</ele>
        <time>2018-05-19T09:27:12Z</time>
      </trkpt>
      <trkpt lat="44.06629" lon="3.01359">
        <ele>682.9</ele>
        <time>2018-05-19T09:27:18Z</time>
      </trkpt>
      <trkpt lat="44.06626" lon="3.0136">
        <ele>683</ele>
        <time>2018-05-19T09:27:40Z</time>
      </trkpt>
      <trkpt lat="44.06629" lon="3.01359">
        <ele>682.9</ele>
        <time>2018-05-19T09:27:44Z</time>
      </trkpt>
      <trkpt lat="44.06632" lon="3.01358">
        <ele>682.8</ele>
        <time>2018-05-19T09:27:51Z</time>
      </trkpt>
      <trkpt lat="44.06635" lon="3.01358">
        <ele>682.7</ele>
        <time>2018-05-19T09:28:34Z</time>
      </trkpt>
      <trkpt lat="44.06632" lon="3.01356">
        <ele>682.8</ele>
        <time>2018-05-19T09:28:37Z</time>
      </trkpt>
      <trkpt lat="44.06629" lon="3.01354">
        <ele>681.8</ele>
        <time>2018-05-19T09:28:41Z</time>
      </trkpt>
      <trkpt lat="44.06626" lon="3.01355">
        <ele>681.8</ele>
        <time>2018-05-19T09:28:45Z</time>
      </trkpt>
      <trkpt lat="44.06626" lon="3.01351">
        <ele>681.2</ele>
        <time>2018-05-19T09:28:52Z</time>
      </trkpt>
      <trkpt lat="44.06627" lon="3.01344">
        <ele>679.9</ele>
        <time>2018-05-19T09:28:55Z</time>
      </trkpt>
      <trkpt lat="44.06628" lon="3.01339">
        <ele>679.1</ele>
        <time>2018-05-19T09:28:56Z</time>
      </trkpt>
      <trkpt lat="44.06628" lon="3.01335">
        <ele>678.2</ele>
        <time>2018-05-19T09:28:57Z</time>
      </trkpt>
      <trkpt lat="44.06629" lon="3.01331">
        <ele>677.6</ele>
        <time>2018-05-19T09:28:58Z</time>
      </trkpt>
      <trkpt lat="44.06629" lon="3.01327">
        <ele>676.9</ele>
        <time>2018-05-19T09:29:00Z</time>
      </trkpt>
      <trkpt lat="44.06623" lon="3.01317">
        <ele>675.3</ele>
        <time>2018-05-19T09:29:02Z</time>
      </trkpt>
      <trkpt lat="44.06623" lon="3.01309">
        <ele>674.2</ele>
        <time>2018-05-19T09:29:03Z</time>
      </trkpt>
      <trkpt lat="44.0662" lon="3.01302">
        <ele>673.4</ele>
        <time>2018-05-19T09:29:04Z</time>
      </trkpt>
      <trkpt lat="44.06617" lon="3.01294">
        <ele>672.6</ele>
        <time>2018-05-19T09:29:05Z</time>
      </trkpt>
      <trkpt lat="44.06615" lon="3.01288">
        <ele>671.9</ele>
        <time>2018-05-19T09:29:06Z</time>
      </trkpt>
      <trkpt lat="44.06612" lon="3.01285">
        <ele>671.5</ele>
        <time>2018-05-19T09:29:07Z</time>
      </trkpt>
      <trkpt lat="44.06616" lon="3.01277">
        <ele>670.5</ele>
        <time>2018-05-19T09:29:09Z</time>
      </trkpt>
      <trkpt lat="44.06622" lon="3.01269">
        <ele>669.8</ele>
        <time>2018-05-19T09:29:10Z</time>
      </trkpt>
      <trkpt lat="44.06622" lon="3.01262">
        <ele>669.4</ele>
        <time>2018-05-19T09:29:11Z</time>
      </trkpt>
      <trkpt lat="44.06623" lon="3.01254">
        <ele>669</ele>
        <time>2018-05-19T09:29:12Z</time>
      </trkpt>
      <trkpt lat="44.06626" lon="3.01248">
        <ele>668.6</ele>
        <time>2018-05-19T09:29:13Z</time>
      </trkpt>
      <trkpt lat="44.06628" lon="3.01243">
        <ele>668.2</ele>
        <time>2018-05-19T09:29:14Z</time>
      </trkpt>
      <trkpt lat="44.0663" lon="3.01235">
        <ele>667.6</ele>
        <time>2018-05-19T09:29:15Z</time>
      </trkpt>
      <trkpt lat="44.06636" lon="3.01223">
        <ele>666.4</ele>
        <time>2018-05-19T09:29:16Z</time>
      </trkpt>
      <trkpt lat="44.06638" lon="3.0121">
        <ele>664.8</ele>
        <time>2018-05-19T09:29:17Z</time>
      </trkpt>
      <trkpt lat="44.06643" lon="3.01197">
        <ele>660.9</ele>
        <time>2018-05-19T09:29:18Z</time>
      </trkpt>
      <trkpt lat="44.06649" lon="3.01197">
        <ele>658.1</ele>
        <time>2018-05-19T09:29:19Z</time>
      </trkpt>
      <trkpt lat="44.06655" lon="3.01201">
        <ele>655.8</ele>
        <time>2018-05-19T09:29:20Z</time>
      </trkpt>
      <trkpt lat="44.06658" lon="3.01197">
        <ele>653.5</ele>
        <time>2018-05-19T09:29:21Z</time>
      </trkpt>
      <trkpt lat="44.06662" lon="3.01195">
        <ele>650.5</ele>
        <time>2018-05-19T09:29:22Z</time>
      </trkpt>
      <trkpt lat="44.06668" lon="3.01192">
        <ele>646.9</ele>
        <time>2018-05-19T09:29:23Z</time>
      </trkpt>
      <trkpt lat="44.06673" lon="3.01191">
        <ele>644</ele>
        <time>2018-05-19T09:29:24Z</time>
      </trkpt>
      <trkpt lat="44.06677" lon="3.01193">
        <ele>641.7</ele>
        <time>2018-05-19T09:29:25Z</time>
      </trkpt>
      <trkpt lat="44.06682" lon="3.01195">
        <ele>639.6</ele>
        <time>2018-05-19T09:29:26Z</time>
      </trkpt>
      <trkpt lat="44.06685" lon="3.01197">
        <ele>637.4</ele>
        <time>2018-05-19T09:29:27Z</time>
      </trkpt>
      <trkpt lat="44.06688" lon="3.01199">
        <ele>635.8</ele>
        <time>2018-05-19T09:29:28Z</time>
      </trkpt>
      <trkpt lat="44.06693" lon="3.012">
        <ele>633.1</ele>
        <time>2018-05-19T09:29:30Z</time>
      </trkpt>
      <trkpt lat="44.06699" lon="3.01201">
        <ele>630.9</ele>
        <time>2018-05-19T09:29:32Z</time>
      </trkpt>
      <trkpt lat="44.06702" lon="3.012">
        <ele>630.7</ele>
        <time>2018-05-19T09:29:33Z</time>
      </trkpt>
      <trkpt lat="44.06704" lon="3.01201">
        <ele>630.6</ele>
        <time>2018-05-19T09:29:34Z</time>
      </trkpt>
      <trkpt lat="44.06709" lon="3.01202">
        <ele>630.4</ele>
        <time>2018-05-19T09:29:36Z</time>
      </trkpt>
      <trkpt lat="44.06713" lon="3.01203">
        <ele>630.3</ele>
        <time>2018-05-19T09:29:38Z</time>
      </trkpt>
      <trkpt lat="44.06716" lon="3.01201">
        <ele>630.2</ele>
        <time>2018-05-19T09:29:40Z</time>
      </trkpt>
      <trkpt lat="44.06716" lon="3.01195">
        <ele>630</ele>
        <time>2018-05-19T09:29:44Z</time>
      </trkpt>
      <trkpt lat="44.06713" lon="3.01192">
        <ele>628.2</ele>
        <time>2018-05-19T09:29:45Z</time>
      </trkpt>
      <trkpt lat="44.06709" lon="3.01188">
        <ele>626.4</ele>
        <time>2018-05-19T09:29:46Z</time>
      </trkpt>
      <trkpt lat="44.06706" lon="3.01185">
        <ele>625.4</ele>
        <time>2018-05-19T09:29:47Z</time>
      </trkpt>
      <trkpt lat="44.06704" lon="3.01181">
        <ele>623.6</ele>
        <time>2018-05-19T09:29:49Z</time>
      </trkpt>
      <trkpt lat="44.06707" lon="3.01177">
        <ele>624.3</ele>
        <time>2018-05-19T09:29:50Z</time>
      </trkpt>
      <trkpt lat="44.06712" lon="3.01176">
        <ele>625.1</ele>
        <time>2018-05-19T09:29:51Z</time>
      </trkpt>
      <trkpt lat="44.06716" lon="3.01175">
        <ele>626</ele>
        <time>2018-05-19T09:29:52Z</time>
      </trkpt>
      <trkpt lat="44.06721" lon="3.01176">
        <ele>626.7</ele>
        <time>2018-05-19T09:29:53Z</time>
      </trkpt>
      <trkpt lat="44.06725" lon="3.01176">
        <ele>627.2</ele>
        <time>2018-05-19T09:29:54Z</time>
      </trkpt>
      <trkpt lat="44.06723" lon="3.01168">
        <ele>626.4</ele>
        <time>2018-05-19T09:29:57Z</time>
      </trkpt>
      <trkpt lat="44.06721" lon="3.01165">
        <ele>625.8</ele>
        <time>2018-05-19T09:29:58Z</time>
      </trkpt>
      <trkpt lat="44.06701" lon="3.0115">
        <ele>620.6</ele>
        <time>2018-05-19T09:30:00Z</time>
      </trkpt>
      <trkpt lat="44.06696" lon="3.01146">
        <ele>619</ele>
        <time>2018-05-19T09:30:01Z</time>
      </trkpt>
      <trkpt lat="44.06691" lon="3.01139">
        <ele>617</ele>
        <time>2018-05-19T09:30:02Z</time>
      </trkpt>
      <trkpt lat="44.06688" lon="3.01137">
        <ele>616.3</ele>
        <time>2018-05-19T09:30:03Z</time>
      </trkpt>
      <trkpt lat="44.06687" lon="3.01132">
        <ele>615.1</ele>
        <time>2018-05-19T09:30:04Z</time>
      </trkpt>
      <trkpt lat="44.06688" lon="3.01129">
        <ele>614.1</ele>
        <time>2018-05-19T09:30:06Z</time>
      </trkpt>
      <trkpt lat="44.06691" lon="3.01129">
        <ele>612.5</ele>
        <time>2018-05-19T09:30:09Z</time>
      </trkpt>
      <trkpt lat="44.06694" lon="3.01129">
        <ele>610.9</ele>
        <time>2018-05-19T09:30:10Z</time>
      </trkpt>
      <trkpt lat="44.06699" lon="3.01128">
        <ele>607.1</ele>
        <time>2018-05-19T09:30:12Z</time>
      </trkpt>
      <trkpt lat="44.06701" lon="3.01118">
        <ele>601.7</ele>
        <time>2018-05-19T09:30:15Z</time>
      </trkpt>
      <trkpt lat="44.06701" lon="3.01113">
        <ele>598.4</ele>
        <time>2018-05-19T09:30:16Z</time>
      </trkpt>
      <trkpt lat="44.06702" lon="3.01102">
        <ele>590.8</ele>
        <time>2018-05-19T09:30:17Z</time>
      </trkpt>
      <trkpt lat="44.06703" lon="3.01093">
        <ele>590.1</ele>
        <time>2018-05-19T09:30:18Z</time>
      </trkpt>
      <trkpt lat="44.06706" lon="3.01083">
        <ele>589.4</ele>
        <time>2018-05-19T09:30:19Z</time>
      </trkpt>
      <trkpt lat="44.0671" lon="3.01072">
        <ele>588</ele>
        <time>2018-05-19T09:30:20Z</time>
      </trkpt>
      <trkpt lat="44.06711" lon="3.01063">
        <ele>586.5</ele>
        <time>2018-05-19T09:30:21Z</time>
      </trkpt>
      <trkpt lat="44.0671" lon="3.01052">
        <ele>584.1</ele>
        <time>2018-05-19T09:30:22Z</time>
      </trkpt>
      <trkpt lat="44.06709" lon="3.01042">
        <ele>581.2</ele>
        <time>2018-05-19T09:30:23Z</time>
      </trkpt>
      <trkpt lat="44.06712" lon="3.01031">
        <ele>579.7</ele>
        <time>2018-05-19T09:30:24Z</time>
      </trkpt>
      <trkpt lat="44.06713" lon="3.0102">
        <ele>578.5</ele>
        <time>2018-05-19T09:30:25Z</time>
      </trkpt>
      <trkpt lat="44.06715" lon="3.0101">
        <ele>577.6</ele>
        <time>2018-05-19T09:30:26Z</time>
      </trkpt>
      <trkpt lat="44.06715" lon="3.00999">
        <ele>576.6</ele>
        <time>2018-05-19T09:30:27Z</time>
      </trkpt>
      <trkpt lat="44.06716" lon="3.00988">
        <ele>574.5</ele>
        <time>2018-05-19T09:30:28Z</time>
      </trkpt>
      <trkpt lat="44.06715" lon="3.00978">
        <ele>570.7</ele>
        <time>2018-05-19T09:30:29Z</time>
      </trkpt>
      <trkpt lat="44.06708" lon="3.00972">
        <ele>568.6</ele>
        <time>2018-05-19T09:30:30Z</time>
      </trkpt>
      <trkpt lat="44.06704" lon="3.00964">
        <ele>567.4</ele>
        <time>2018-05-19T09:30:31Z</time>
      </trkpt>
      <trkpt lat="44.06702" lon="3.00954">
        <ele>566</ele>
        <time>2018-05-19T09:30:32Z</time>
      </trkpt>
      <trkpt lat="44.06702" lon="3.00944">
        <ele>564.1</ele>
        <time>2018-05-19T09:30:33Z</time>
      </trkpt>
      <trkpt lat="44.06699" lon="3.00932">
        <ele>561.7</ele>
        <time>2018-05-19T09:30:34Z</time>
      </trkpt>
      <trkpt lat="44.06697" lon="3.00922">
        <ele>559.8</ele>
        <time>2018-05-19T09:30:35Z</time>
      </trkpt>
      <trkpt lat="44.06692" lon="3.00912">
        <ele>558.7</ele>
        <time>2018-05-19T09:30:36Z</time>
      </trkpt>
      <trkpt lat="44.06693" lon="3.00907">
        <ele>558.2</ele>
        <time>2018-05-19T09:30:37Z</time>
      </trkpt>
      <trkpt lat="44.06691" lon="3.009">
        <ele>557.6</ele>
        <time>2018-05-19T09:30:39Z</time>
      </trkpt>
      <trkpt lat="44.0669" lon="3.00904">
        <ele>557.3</ele>
        <time>2018-05-19T09:30:47Z</time>
      </trkpt>
      <trkpt lat="44.06694" lon="3.00905">
        <ele>556.4</ele>
        <time>2018-05-19T09:30:50Z</time>
      </trkpt>
      <trkpt lat="44.06699" lon="3.00908">
        <ele>555.6</ele>
        <time>2018-05-19T09:30:51Z</time>
      </trkpt>
      <trkpt lat="44.06706" lon="3.00911">
        <ele>554.3</ele>
        <time>2018-05-19T09:30:52Z</time>
      </trkpt>
      <trkpt lat="44.0671" lon="3.00921">
        <ele>552.3</ele>
        <time>2018-05-19T09:30:53Z</time>
      </trkpt>
      <trkpt lat="44.06713" lon="3.00926">
        <ele>551.5</ele>
        <time>2018-05-19T09:30:54Z</time>
      </trkpt>
      <trkpt lat="44.06713" lon="3.00922">
        <ele>550.9</ele>
        <time>2018-05-19T09:30:56Z</time>
      </trkpt>
      <trkpt lat="44.06716" lon="3.00918">
        <ele>550.3</ele>
        <time>2018-05-19T09:30:58Z</time>
      </trkpt>
      <trkpt lat="44.06719" lon="3.00916">
        <ele>549.9</ele>
        <time>2018-05-19T09:30:59Z</time>
      </trkpt>
      <trkpt lat="44.0672" lon="3.00911">
        <ele>549.5</ele>
        <time>2018-05-19T09:31:00Z</time>
      </trkpt>
      <trkpt lat="44.06723" lon="3.00905">
        <ele>549.1</ele>
        <time>2018-05-19T09:31:01Z</time>
      </trkpt>
      <trkpt lat="44.06727" lon="3.00899">
        <ele>548.6</ele>
        <time>2018-05-19T09:31:02Z</time>
      </trkpt>
      <trkpt lat="44.06731" lon="3.00894">
        <ele>548.2</ele>
        <time>2018-05-19T09:31:03Z</time>
      </trkpt>
      <trkpt lat="44.06734" lon="3.00887">
        <ele>547.8</ele>
        <time>2018-05-19T09:31:04Z</time>
      </trkpt>
      <trkpt lat="44.06737" lon="3.0088">
        <ele>547.4</ele>
        <time>2018-05-19T09:31:05Z</time>
      </trkpt>
      <trkpt lat="44.06741" lon="3.00869">
        <ele>546.7</ele>
        <time>2018-05-19T09:31:06Z</time>
      </trkpt>
      <trkpt lat="44.06746" lon="3.0086">
        <ele>546.1</ele>
        <time>2018-05-19T09:31:07Z</time>
      </trkpt>
      <trkpt lat="44.06749" lon="3.00855">
        <ele>545.7</ele>
        <time>2018-05-19T09:31:08Z</time>
      </trkpt>
      <trkpt lat="44.06763" lon="3.00831">
        <ele>542.8</ele>
        <time>2018-05-19T09:31:10Z</time>
      </trkpt>
      <trkpt lat="44.06768" lon="3.00816">
        <ele>541.2</ele>
        <time>2018-05-19T09:31:11Z</time>
      </trkpt>
      <trkpt lat="44.06773" lon="3.00802">
        <ele>539.7</ele>
        <time>2018-05-19T09:31:12Z</time>
      </trkpt>
      <trkpt lat="44.06779" lon="3.00796">
        <ele>538.8</ele>
        <time>2018-05-19T09:31:13Z</time>
      </trkpt>
      <trkpt lat="44.0678" lon="3.00791">
        <ele>538.1</ele>
        <time>2018-05-19T09:31:14Z</time>
      </trkpt>
      <trkpt lat="44.06785" lon="3.00788">
        <ele>537.1</ele>
        <time>2018-05-19T09:31:15Z</time>
      </trkpt>
      <trkpt lat="44.06789" lon="3.00784">
        <ele>536.1</ele>
        <time>2018-05-19T09:31:16Z</time>
      </trkpt>
      <trkpt lat="44.06794" lon="3.0078">
        <ele>535.1</ele>
        <time>2018-05-19T09:31:17Z</time>
      </trkpt>
      <trkpt lat="44.06799" lon="3.00774">
        <ele>534.1</ele>
        <time>2018-05-19T09:31:18Z</time>
      </trkpt>
      <trkpt lat="44.06801" lon="3.00768">
        <ele>533.4</ele>
        <time>2018-05-19T09:31:19Z</time>
      </trkpt>
      <trkpt lat="44.06805" lon="3.0076">
        <ele>532.7</ele>
        <time>2018-05-19T09:31:20Z</time>
      </trkpt>
      <trkpt lat="44.06808" lon="3.00753">
        <ele>532.1</ele>
        <time>2018-05-19T09:31:21Z</time>
      </trkpt>
      <trkpt lat="44.06811" lon="3.00746">
        <ele>531</ele>
        <time>2018-05-19T09:31:22Z</time>
      </trkpt>
      <trkpt lat="44.06815" lon="3.00738">
        <ele>529.9</ele>
        <time>2018-05-19T09:31:23Z</time>
      </trkpt>
      <trkpt lat="44.06819" lon="3.00728">
        <ele>528</ele>
        <time>2018-05-19T09:31:24Z</time>
      </trkpt>
      <trkpt lat="44.06821" lon="3.00723">
        <ele>526.9</ele>
        <time>2018-05-19T09:31:25Z</time>
      </trkpt>
      <trkpt lat="44.06822" lon="3.00717">
        <ele>525.9</ele>
        <time>2018-05-19T09:31:26Z</time>
      </trkpt>
      <trkpt lat="44.06823" lon="3.00711">
        <ele>524.9</ele>
        <time>2018-05-19T09:31:27Z</time>
      </trkpt>
      <trkpt lat="44.06823" lon="3.00701">
        <ele>524.1</ele>
        <time>2018-05-19T09:31:28Z</time>
      </trkpt>
      <trkpt lat="44.06822" lon="3.00691">
        <ele>523.4</ele>
        <time>2018-05-19T09:31:29Z</time>
      </trkpt>
      <trkpt lat="44.06821" lon="3.00682">
        <ele>522.6</ele>
        <time>2018-05-19T09:31:30Z</time>
      </trkpt>
      <trkpt lat="44.06821" lon="3.00672">
        <ele>521.4</ele>
        <time>2018-05-19T09:31:31Z</time>
      </trkpt>
      <trkpt lat="44.06825" lon="3.00665">
        <ele>520.1</ele>
        <time>2018-05-19T09:31:32Z</time>
      </trkpt>
      <trkpt lat="44.06825" lon="3.0066">
        <ele>519.1</ele>
        <time>2018-05-19T09:31:33Z</time>
      </trkpt>
      <trkpt lat="44.06829" lon="3.00653">
        <ele>517.7</ele>
        <time>2018-05-19T09:31:34Z</time>
      </trkpt>
      <trkpt lat="44.06833" lon="3.00643">
        <ele>515.4</ele>
        <time>2018-05-19T09:31:35Z</time>
      </trkpt>
      <trkpt lat="44.06833" lon="3.00635">
        <ele>514</ele>
        <time>2018-05-19T09:31:37Z</time>
      </trkpt>
      <trkpt lat="44.06834" lon="3.00628">
        <ele>512.9</ele>
        <time>2018-05-19T09:31:39Z</time>
      </trkpt>
      <trkpt lat="44.06836" lon="3.00625">
        <ele>512.3</ele>
        <time>2018-05-19T09:31:41Z</time>
      </trkpt>
      <trkpt lat="44.06843" lon="3.00628">
        <ele>510.9</ele>
        <time>2018-05-19T09:32:22Z</time>
      </trkpt>
      <trkpt lat="44.06848" lon="3.00625">
        <ele>509.9</ele>
        <time>2018-05-19T09:32:25Z</time>
      </trkpt>
      <trkpt lat="44.06853" lon="3.00622">
        <ele>508.9</ele>
        <time>2018-05-19T09:32:27Z</time>
      </trkpt>
      <trkpt lat="44.06858" lon="3.00619">
        <ele>508</ele>
        <time>2018-05-19T09:32:29Z</time>
      </trkpt>
      <trkpt lat="44.06861" lon="3.00617">
        <ele>507.4</ele>
        <time>2018-05-19T09:32:30Z</time>
      </trkpt>
      <trkpt lat="44.06864" lon="3.00614">
        <ele>506.8</ele>
        <time>2018-05-19T09:32:31Z</time>
      </trkpt>
      <trkpt lat="44.06866" lon="3.00611">
        <ele>506.2</ele>
        <time>2018-05-19T09:32:32Z</time>
      </trkpt>
      <trkpt lat="44.06869" lon="3.00609">
        <ele>505.6</ele>
        <time>2018-05-19T09:32:33Z</time>
      </trkpt>
      <trkpt lat="44.06872" lon="3.00606">
        <ele>505</ele>
        <time>2018-05-19T09:32:34Z</time>
      </trkpt>
      <trkpt lat="44.06875" lon="3.00603">
        <ele>504.5</ele>
        <time>2018-05-19T09:32:35Z</time>
      </trkpt>
      <trkpt lat="44.06878" lon="3.00601">
        <ele>503.9</ele>
        <time>2018-05-19T09:32:36Z</time>
      </trkpt>
      <trkpt lat="44.06881" lon="3.00597">
        <ele>503.2</ele>
        <time>2018-05-19T09:32:37Z</time>
      </trkpt>
      <trkpt lat="44.06884" lon="3.00593">
        <ele>502.5</ele>
        <time>2018-05-19T09:32:38Z</time>
      </trkpt>
      <trkpt lat="44.06887" lon="3.00589">
        <ele>501.8</ele>
        <time>2018-05-19T09:32:39Z</time>
      </trkpt>
      <trkpt lat="44.0689" lon="3.0058">
        <ele>500.5</ele>
        <time>2018-05-19T09:32:40Z</time>
      </trkpt>
      <trkpt lat="44.06893" lon="3.00574">
        <ele>499.7</ele>
        <time>2018-05-19T09:32:41Z</time>
      </trkpt>
      <trkpt lat="44.06895" lon="3.00568">
        <ele>498.9</ele>
        <time>2018-05-19T09:32:42Z</time>
      </trkpt>
      <trkpt lat="44.06898" lon="3.00565">
        <ele>498.3</ele>
        <time>2018-05-19T09:32:43Z</time>
      </trkpt>
      <trkpt lat="44.06901" lon="3.0056">
        <ele>497.6</ele>
        <time>2018-05-19T09:32:45Z</time>
      </trkpt>
      <trkpt lat="44.06903" lon="3.00556">
        <ele>497.1</ele>
        <time>2018-05-19T09:32:46Z</time>
      </trkpt>
      <trkpt lat="44.06905" lon="3.00552">
        <ele>496.6</ele>
        <time>2018-05-19T09:32:47Z</time>
      </trkpt>
      <trkpt lat="44.06908" lon="3.00547">
        <ele>496.2</ele>
        <time>2018-05-19T09:32:48Z</time>
      </trkpt>
      <trkpt lat="44.06913" lon="3.0054">
        <ele>495.5</ele>
        <time>2018-05-19T09:32:49Z</time>
      </trkpt>
      <trkpt lat="44.06916" lon="3.00536">
        <ele>495.2</ele>
        <time>2018-05-19T09:32:50Z</time>
      </trkpt>
      <trkpt lat="44.0692" lon="3.00529">
        <ele>494.7</ele>
        <time>2018-05-19T09:32:51Z</time>
      </trkpt>
      <trkpt lat="44.06923" lon="3.00525">
        <ele>494.4</ele>
        <time>2018-05-19T09:32:52Z</time>
      </trkpt>
      <trkpt lat="44.06928" lon="3.0052">
        <ele>494</ele>
        <time>2018-05-19T09:32:53Z</time>
      </trkpt>
      <trkpt lat="44.06934" lon="3.00515">
        <ele>493.2</ele>
        <time>2018-05-19T09:32:54Z</time>
      </trkpt>
      <trkpt lat="44.0694" lon="3.00512">
        <ele>492.2</ele>
        <time>2018-05-19T09:32:55Z</time>
      </trkpt>
      <trkpt lat="44.06947" lon="3.00509">
        <ele>491</ele>
        <time>2018-05-19T09:32:56Z</time>
      </trkpt>
      <trkpt lat="44.06952" lon="3.00506">
        <ele>490</ele>
        <time>2018-05-19T09:32:57Z</time>
      </trkpt>
      <trkpt lat="44.06959" lon="3.00502">
        <ele>488.8</ele>
        <time>2018-05-19T09:32:58Z</time>
      </trkpt>
      <trkpt lat="44.06963" lon="3.00498">
        <ele>488.2</ele>
        <time>2018-05-19T09:32:59Z</time>
      </trkpt>
      <trkpt lat="44.06967" lon="3.00495">
        <ele>487.9</ele>
        <time>2018-05-19T09:33:00Z</time>
      </trkpt>
      <trkpt lat="44.06969" lon="3.00492">
        <ele>487.6</ele>
        <time>2018-05-19T09:33:01Z</time>
      </trkpt>
      <trkpt lat="44.06973" lon="3.00488">
        <ele>487.2</ele>
        <time>2018-05-19T09:33:02Z</time>
      </trkpt>
      <trkpt lat="44.06977" lon="3.00487">
        <ele>486.7</ele>
        <time>2018-05-19T09:33:03Z</time>
      </trkpt>
      <trkpt lat="44.0698" lon="3.00483">
        <ele>486.2</ele>
        <time>2018-05-19T09:33:04Z</time>
      </trkpt>
      <trkpt lat="44.06984" lon="3.00481">
        <ele>485.7</ele>
        <time>2018-05-19T09:33:05Z</time>
      </trkpt>
      <trkpt lat="44.06988" lon="3.00476">
        <ele>485</ele>
        <time>2018-05-19T09:33:06Z</time>
      </trkpt>
      <trkpt lat="44.0699" lon="3.00471">
        <ele>484.2</ele>
        <time>2018-05-19T09:33:07Z</time>
      </trkpt>
      <trkpt lat="44.06992" lon="3.00467">
        <ele>483.6</ele>
        <time>2018-05-19T09:33:08Z</time>
      </trkpt>
      <trkpt lat="44.06994" lon="3.00463">
        <ele>482.9</ele>
        <time>2018-05-19T09:33:09Z</time>
      </trkpt>
      <trkpt lat="44.06995" lon="3.00459">
        <ele>482.4</ele>
        <time>2018-05-19T09:33:10Z</time>
      </trkpt>
      <trkpt lat="44.06996" lon="3.00455">
        <ele>481.8</ele>
        <time>2018-05-19T09:33:11Z</time>
      </trkpt>
      <trkpt lat="44.06997" lon="3.0045">
        <ele>481.3</ele>
        <time>2018-05-19T09:33:12Z</time>
      </trkpt>
      <trkpt lat="44.06998" lon="3.00445">
        <ele>480.7</ele>
        <time>2018-05-19T09:33:13Z</time>
      </trkpt>
      <trkpt lat="44.07001" lon="3.0044">
        <ele>480.1</ele>
        <time>2018-05-19T09:33:14Z</time>
      </trkpt>
      <trkpt lat="44.07003" lon="3.00435">
        <ele>479.7</ele>
        <time>2018-05-19T09:33:15Z</time>
      </trkpt>
      <trkpt lat="44.07005" lon="3.00431">
        <ele>479.5</ele>
        <time>2018-05-19T09:33:16Z</time>
      </trkpt>
      <trkpt lat="44.07008" lon="3.00426">
        <ele>479.2</ele>
        <time>2018-05-19T09:33:17Z</time>
      </trkpt>
      <trkpt lat="44.07013" lon="3.00422">
        <ele>478.9</ele>
        <time>2018-05-19T09:33:18Z</time>
      </trkpt>
      <trkpt lat="44.07016" lon="3.00416">
        <ele>478.6</ele>
        <time>2018-05-19T09:33:19Z</time>
      </trkpt>
      <trkpt lat="44.07018" lon="3.00408">
        <ele>478.2</ele>
        <time>2018-05-19T09:33:20Z</time>
      </trkpt>
      <trkpt lat="44.0702" lon="3.00401">
        <ele>477.8</ele>
        <time>2018-05-19T09:33:21Z</time>
      </trkpt>
      <trkpt lat="44.07021" lon="3.00396">
        <ele>477.5</ele>
        <time>2018-05-19T09:33:22Z</time>
      </trkpt>
      <trkpt lat="44.07022" lon="3.00391">
        <ele>477.3</ele>
        <time>2018-05-19T09:33:23Z</time>
      </trkpt>
      <trkpt lat="44.07024" lon="3.00385">
        <ele>476.9</ele>
        <time>2018-05-19T09:33:24Z</time>
      </trkpt>
      <trkpt lat="44.07025" lon="3.0038">
        <ele>476.5</ele>
        <time>2018-05-19T09:33:25Z</time>
      </trkpt>
      <trkpt lat="44.07026" lon="3.00375">
        <ele>476</ele>
        <time>2018-05-19T09:33:26Z</time>
      </trkpt>
      <trkpt lat="44.07029" lon="3.00371">
        <ele>475.5</ele>
        <time>2018-05-19T09:33:27Z</time>
      </trkpt>
      <trkpt lat="44.0703" lon="3.00365">
        <ele>474.8</ele>
        <time>2018-05-19T09:33:28Z</time>
      </trkpt>
      <trkpt lat="44.07032" lon="3.0036">
        <ele>474.1</ele>
        <time>2018-05-19T09:33:29Z</time>
      </trkpt>
      <trkpt lat="44.07036" lon="3.00352">
        <ele>473.1</ele>
        <time>2018-05-19T09:33:30Z</time>
      </trkpt>
      <trkpt lat="44.07037" lon="3.00342">
        <ele>471.8</ele>
        <time>2018-05-19T09:33:31Z</time>
      </trkpt>
      <trkpt lat="44.07039" lon="3.00333">
        <ele>470.8</ele>
        <time>2018-05-19T09:33:32Z</time>
      </trkpt>
      <trkpt lat="44.07039" lon="3.00324">
        <ele>469.9</ele>
        <time>2018-05-19T09:33:33Z</time>
      </trkpt>
      <trkpt lat="44.0704" lon="3.00315">
        <ele>469.1</ele>
        <time>2018-05-19T09:33:34Z</time>
      </trkpt>
      <trkpt lat="44.07043" lon="3.00305">
        <ele>467.8</ele>
        <time>2018-05-19T09:33:35Z</time>
      </trkpt>
      <trkpt lat="44.07049" lon="3.00296">
        <ele>466.2</ele>
        <time>2018-05-19T09:33:36Z</time>
      </trkpt>
      <trkpt lat="44.07054" lon="3.00289">
        <ele>466</ele>
        <time>2018-05-19T09:33:37Z</time>
      </trkpt>
      <trkpt lat="44.07059" lon="3.00283">
        <ele>466</ele>
        <time>2018-05-19T09:33:38Z</time>
      </trkpt>
      <trkpt lat="44.07065" lon="3.00278">
        <ele>466</ele>
        <time>2018-05-19T09:33:39Z</time>
      </trkpt>
      <trkpt lat="44.07068" lon="3.00275">
        <ele>466</ele>
        <time>2018-05-19T09:33:41Z</time>
      </trkpt>
      <trkpt lat="44.07071" lon="3.00277">
        <ele>466</ele>
        <time>2018-05-19T09:33:44Z</time>
      </trkpt>
      <trkpt lat="44.0707" lon="3.0028">
        <ele>466</ele>
        <time>2018-05-19T09:33:58Z</time>
      </trkpt>
      <trkpt lat="44.07069" lon="3.00275">
        <ele>466</ele>
        <time>2018-05-19T09:35:13Z</time>
      </trkpt>
      <trkpt lat="44.07074" lon="3.00269">
        <ele>466</ele>
        <time>2018-05-19T09:36:19Z</time>
      </trkpt>
      <trkpt lat="44.07075" lon="3.00265">
        <ele>466</ele>
        <time>2018-05-19T09:36:26Z</time>
      </trkpt>
      <trkpt lat="44.07072" lon="3.00267">
        <ele>466</ele>
        <time>2018-05-19T09:36:30Z</time>
      </trkpt>
      <trkpt lat="44.07072" lon="3.00272">
        <ele>466</ele>
        <time>2018-05-19T09:37:03Z</time>
      </trkpt>
      <trkpt lat="44.07071" lon="3.00276">
        <ele>466</ele>
        <time>2018-05-19T09:37:27Z</time>
      </trkpt>
      <trkpt lat="44.07072" lon="3.00279">
        <ele>465.9</ele>
        <time>2018-05-19T09:37:32Z</time>
      </trkpt>
      <trkpt lat="44.07074" lon="3.00276">
        <ele>465.8</ele>
        <time>2018-05-19T09:40:14Z</time>
      </trkpt>
      <trkpt lat="44.07077" lon="3.00276">
        <ele>465.7</ele>
        <time>2018-05-19T09:40:18Z</time>
      </trkpt>
      <trkpt lat="44.07079" lon="3.00273">
        <ele>465.7</ele>
        <time>2018-05-19T09:40:31Z</time>
      </trkpt>
      <trkpt lat="44.07083" lon="3.00273">
        <ele>465.6</ele>
        <time>2018-05-19T09:40:33Z</time>
      </trkpt>
      <trkpt lat="44.07088" lon="3.00273">
        <ele>465.4</ele>
        <time>2018-05-19T09:40:35Z</time>
      </trkpt>
      <trkpt lat="44.07093" lon="3.00275">
        <ele>465.2</ele>
        <time>2018-05-19T09:40:37Z</time>
      </trkpt>
      <trkpt lat="44.07096" lon="3.00275">
        <ele>465.2</ele>
        <time>2018-05-19T09:40:38Z</time>
      </trkpt>
      <trkpt lat="44.07099" lon="3.00275">
        <ele>465.1</ele>
        <time>2018-05-19T09:40:39Z</time>
      </trkpt>
      <trkpt lat="44.07102" lon="3.00273">
        <ele>465</ele>
        <time>2018-05-19T09:40:40Z</time>
      </trkpt>
      <trkpt lat="44.07104" lon="3.00272">
        <ele>464.9</ele>
        <time>2018-05-19T09:40:41Z</time>
      </trkpt>
      <trkpt lat="44.07109" lon="3.00268">
        <ele>464.7</ele>
        <time>2018-05-19T09:40:43Z</time>
      </trkpt>
      <trkpt lat="44.07113" lon="3.00265">
        <ele>464.5</ele>
        <time>2018-05-19T09:40:45Z</time>
      </trkpt>
      <trkpt lat="44.07116" lon="3.00263">
        <ele>464.4</ele>
        <time>2018-05-19T09:40:46Z</time>
      </trkpt>
      <trkpt lat="44.07119" lon="3.0026">
        <ele>464.3</ele>
        <time>2018-05-19T09:40:47Z</time>
      </trkpt>
      <trkpt lat="44.07121" lon="3.00257">
        <ele>464.2</ele>
        <time>2018-05-19T09:40:48Z</time>
      </trkpt>
      <trkpt lat="44.07124" lon="3.00254">
        <ele>464</ele>
        <time>2018-05-19T09:40:49Z</time>
      </trkpt>
      <trkpt lat="44.07126" lon="3.00249">
        <ele>463.9</ele>
        <time>2018-05-19T09:40:50Z</time>
      </trkpt>
      <trkpt lat="44.07128" lon="3.00244">
        <ele>463.8</ele>
        <time>2018-05-19T09:40:51Z</time>
      </trkpt>
      <trkpt lat="44.07129" lon="3.00238">
        <ele>463.7</ele>
        <time>2018-05-19T09:40:52Z</time>
      </trkpt>
      <trkpt lat="44.07131" lon="3.00233">
        <ele>463.6</ele>
        <time>2018-05-19T09:40:53Z</time>
      </trkpt>
      <trkpt lat="44.07133" lon="3.00227">
        <ele>463.4</ele>
        <time>2018-05-19T09:40:54Z</time>
      </trkpt>
      <trkpt lat="44.07135" lon="3.00223">
        <ele>463.3</ele>
        <time>2018-05-19T09:40:55Z</time>
      </trkpt>
      <trkpt lat="44.07138" lon="3.00219">
        <ele>463.3</ele>
        <time>2018-05-19T09:40:56Z</time>
      </trkpt>
      <trkpt lat="44.0714" lon="3.00216">
        <ele>463.2</ele>
        <time>2018-05-19T09:40:57Z</time>
      </trkpt>
      <trkpt lat="44.07142" lon="3.00213">
        <ele>463.2</ele>
        <time>2018-05-19T09:40:58Z</time>
      </trkpt>
      <trkpt lat="44.07145" lon="3.0021">
        <ele>463.2</ele>
        <time>2018-05-19T09:40:59Z</time>
      </trkpt>
      <trkpt lat="44.07147" lon="3.00208">
        <ele>463.1</ele>
        <time>2018-05-19T09:41:00Z</time>
      </trkpt>
      <trkpt lat="44.07149" lon="3.00205">
        <ele>463.1</ele>
        <time>2018-05-19T09:41:01Z</time>
      </trkpt>
      <trkpt lat="44.07152" lon="3.002">
        <ele>463</ele>
        <time>2018-05-19T09:41:03Z</time>
      </trkpt>
      <trkpt lat="44.07155" lon="3.00196">
        <ele>462.9</ele>
        <time>2018-05-19T09:41:05Z</time>
      </trkpt>
      <trkpt lat="44.07157" lon="3.00191">
        <ele>462.9</ele>
        <time>2018-05-19T09:41:07Z</time>
      </trkpt>
      <trkpt lat="44.0716" lon="3.00186">
        <ele>462.8</ele>
        <time>2018-05-19T09:41:09Z</time>
      </trkpt>
      <trkpt lat="44.07162" lon="3.00179">
        <ele>462.7</ele>
        <time>2018-05-19T09:41:11Z</time>
      </trkpt>
      <trkpt lat="44.07163" lon="3.00176">
        <ele>462.6</ele>
        <time>2018-05-19T09:41:12Z</time>
      </trkpt>
      <trkpt lat="44.07165" lon="3.00172">
        <ele>462.6</ele>
        <time>2018-05-19T09:41:13Z</time>
      </trkpt>
      <trkpt lat="44.07167" lon="3.00167">
        <ele>462.5</ele>
        <time>2018-05-19T09:41:14Z</time>
      </trkpt>
      <trkpt lat="44.07169" lon="3.00162">
        <ele>462.5</ele>
        <time>2018-05-19T09:41:15Z</time>
      </trkpt>
      <trkpt lat="44.07171" lon="3.00157">
        <ele>462.4</ele>
        <time>2018-05-19T09:41:16Z</time>
      </trkpt>
      <trkpt lat="44.07173" lon="3.00152">
        <ele>462.3</ele>
        <time>2018-05-19T09:41:17Z</time>
      </trkpt>
      <trkpt lat="44.07175" lon="3.00148">
        <ele>462.3</ele>
        <time>2018-05-19T09:41:18Z</time>
      </trkpt>
      <trkpt lat="44.07177" lon="3.00144">
        <ele>462.2</ele>
        <time>2018-05-19T09:41:19Z</time>
      </trkpt>
      <trkpt lat="44.07179" lon="3.00141">
        <ele>462.2</ele>
        <time>2018-05-19T09:41:20Z</time>
      </trkpt>
      <trkpt lat="44.07181" lon="3.00138">
        <ele>462.1</ele>
        <time>2018-05-19T09:41:21Z</time>
      </trkpt>
      <trkpt lat="44.07184" lon="3.00135">
        <ele>462</ele>
        <time>2018-05-19T09:41:22Z</time>
      </trkpt>
      <trkpt lat="44.07186" lon="3.00132">
        <ele>462</ele>
        <time>2018-05-19T09:41:23Z</time>
      </trkpt>
      <trkpt lat="44.07189" lon="3.00129">
        <ele>461.9</ele>
        <time>2018-05-19T09:41:24Z</time>
      </trkpt>
      <trkpt lat="44.07192" lon="3.00125">
        <ele>461.8</ele>
        <time>2018-05-19T09:41:25Z</time>
      </trkpt>
      <trkpt lat="44.07193" lon="3.0012">
        <ele>461.6</ele>
        <time>2018-05-19T09:41:26Z</time>
      </trkpt>
      <trkpt lat="44.07194" lon="3.00116">
        <ele>461.5</ele>
        <time>2018-05-19T09:41:27Z</time>
      </trkpt>
      <trkpt lat="44.07194" lon="3.00111">
        <ele>461.4</ele>
        <time>2018-05-19T09:41:28Z</time>
      </trkpt>
      <trkpt lat="44.07194" lon="3.00105">
        <ele>461.3</ele>
        <time>2018-05-19T09:41:29Z</time>
      </trkpt>
      <trkpt lat="44.07194" lon="3.00099">
        <ele>461.2</ele>
        <time>2018-05-19T09:41:30Z</time>
      </trkpt>
      <trkpt lat="44.07193" lon="3.0009">
        <ele>461</ele>
        <time>2018-05-19T09:41:31Z</time>
      </trkpt>
      <trkpt lat="44.07192" lon="3.00082">
        <ele>460.8</ele>
        <time>2018-05-19T09:41:32Z</time>
      </trkpt>
      <trkpt lat="44.07191" lon="3.00072">
        <ele>460.5</ele>
        <time>2018-05-19T09:41:33Z</time>
      </trkpt>
      <trkpt lat="44.07189" lon="3.0006">
        <ele>460.1</ele>
        <time>2018-05-19T09:41:34Z</time>
      </trkpt>
      <trkpt lat="44.07187" lon="3.00045">
        <ele>459.5</ele>
        <time>2018-05-19T09:41:35Z</time>
      </trkpt>
      <trkpt lat="44.07184" lon="3.00033">
        <ele>458.9</ele>
        <time>2018-05-19T09:41:36Z</time>
      </trkpt>
      <trkpt lat="44.07183" lon="3.00021">
        <ele>458</ele>
        <time>2018-05-19T09:41:37Z</time>
      </trkpt>
      <trkpt lat="44.07183" lon="3.00008">
        <ele>456.7</ele>
        <time>2018-05-19T09:41:38Z</time>
      </trkpt>
      <trkpt lat="44.07184" lon="2.99994">
        <ele>455.2</ele>
        <time>2018-05-19T09:41:39Z</time>
      </trkpt>
      <trkpt lat="44.07184" lon="2.99979">
        <ele>453.2</ele>
        <time>2018-05-19T09:41:40Z</time>
      </trkpt>
      <trkpt lat="44.07185" lon="2.99964">
        <ele>450.8</ele>
        <time>2018-05-19T09:41:41Z</time>
      </trkpt>
      <trkpt lat="44.07184" lon="2.9995">
        <ele>449.3</ele>
        <time>2018-05-19T09:41:42Z</time>
      </trkpt>
      <trkpt lat="44.07185" lon="2.99937">
        <ele>448.4</ele>
        <time>2018-05-19T09:41:43Z</time>
      </trkpt>
      <trkpt lat="44.07187" lon="2.99924">
        <ele>447.7</ele>
        <time>2018-05-19T09:41:44Z</time>
      </trkpt>
      <trkpt lat="44.07191" lon="2.9991">
        <ele>446.7</ele>
        <time>2018-05-19T09:41:45Z</time>
      </trkpt>
      <trkpt lat="44.07195" lon="2.99898">
        <ele>445.7</ele>
        <time>2018-05-19T09:41:46Z</time>
      </trkpt>
      <trkpt lat="44.072" lon="2.99889">
        <ele>445.1</ele>
        <time>2018-05-19T09:41:47Z</time>
      </trkpt>
      <trkpt lat="44.07204" lon="2.9988">
        <ele>444.7</ele>
        <time>2018-05-19T09:41:48Z</time>
      </trkpt>
      <trkpt lat="44.07207" lon="2.9987">
        <ele>444.4</ele>
        <time>2018-05-19T09:41:49Z</time>
      </trkpt>
      <trkpt lat="44.07209" lon="2.99863">
        <ele>444.2</ele>
        <time>2018-05-19T09:41:50Z</time>
      </trkpt>
      <trkpt lat="44.07211" lon="2.99858">
        <ele>444.1</ele>
        <time>2018-05-19T09:41:51Z</time>
      </trkpt>
      <trkpt lat="44.07213" lon="2.99853">
        <ele>444</ele>
        <time>2018-05-19T09:41:52Z</time>
      </trkpt>
      <trkpt lat="44.07215" lon="2.99849">
        <ele>443.8</ele>
        <time>2018-05-19T09:41:53Z</time>
      </trkpt>
      <trkpt lat="44.07217" lon="2.99846">
        <ele>443.7</ele>
        <time>2018-05-19T09:41:54Z</time>
      </trkpt>
      <trkpt lat="44.0722" lon="2.99844">
        <ele>443.5</ele>
        <time>2018-05-19T09:41:55Z</time>
      </trkpt>
      <trkpt lat="44.07225" lon="2.99844">
        <ele>443.3</ele>
        <time>2018-05-19T09:41:57Z</time>
      </trkpt>
      <trkpt lat="44.07228" lon="2.99841">
        <ele>443.2</ele>
        <time>2018-05-19T09:41:59Z</time>
      </trkpt>
      <trkpt lat="44.0723" lon="2.99838">
        <ele>442.8</ele>
        <time>2018-05-19T09:42:01Z</time>
      </trkpt>
      <trkpt lat="44.07234" lon="2.99833">
        <ele>442.3</ele>
        <time>2018-05-19T09:42:03Z</time>
      </trkpt>
      <trkpt lat="44.07236" lon="2.9983">
        <ele>442.1</ele>
        <time>2018-05-19T09:42:04Z</time>
      </trkpt>
      <trkpt lat="44.07239" lon="2.99826">
        <ele>441.9</ele>
        <time>2018-05-19T09:42:05Z</time>
      </trkpt>
      <trkpt lat="44.07241" lon="2.99819">
        <ele>441.9</ele>
        <time>2018-05-19T09:42:06Z</time>
      </trkpt>
      <trkpt lat="44.07244" lon="2.99814">
        <ele>441.9</ele>
        <time>2018-05-19T09:42:07Z</time>
      </trkpt>
      <trkpt lat="44.07246" lon="2.99807">
        <ele>442</ele>
        <time>2018-05-19T09:42:08Z</time>
      </trkpt>
      <trkpt lat="44.07247" lon="2.99801">
        <ele>442.1</ele>
        <time>2018-05-19T09:42:09Z</time>
      </trkpt>
      <trkpt lat="44.07248" lon="2.99797">
        <ele>442.3</ele>
        <time>2018-05-19T09:42:10Z</time>
      </trkpt>
      <trkpt lat="44.0725" lon="2.9979">
        <ele>442.6</ele>
        <time>2018-05-19T09:42:11Z</time>
      </trkpt>
      <trkpt lat="44.0725" lon="2.99783">
        <ele>443</ele>
        <time>2018-05-19T09:42:12Z</time>
      </trkpt>
      <trkpt lat="44.07252" lon="2.99777">
        <ele>443.2</ele>
        <time>2018-05-19T09:42:13Z</time>
      </trkpt>
      <trkpt lat="44.07253" lon="2.99773">
        <ele>443.4</ele>
        <time>2018-05-19T09:42:14Z</time>
      </trkpt>
      <trkpt lat="44.07255" lon="2.99768">
        <ele>443.6</ele>
        <time>2018-05-19T09:42:15Z</time>
      </trkpt>
      <trkpt lat="44.07256" lon="2.99761">
        <ele>443.8</ele>
        <time>2018-05-19T09:42:16Z</time>
      </trkpt>
      <trkpt lat="44.07258" lon="2.99757">
        <ele>444</ele>
        <time>2018-05-19T09:42:17Z</time>
      </trkpt>
      <trkpt lat="44.07261" lon="2.99752">
        <ele>444.1</ele>
        <time>2018-05-19T09:42:18Z</time>
      </trkpt>
      <trkpt lat="44.07262" lon="2.99747">
        <ele>444.2</ele>
        <time>2018-05-19T09:42:19Z</time>
      </trkpt>
      <trkpt lat="44.07264" lon="2.99742">
        <ele>444.3</ele>
        <time>2018-05-19T09:42:20Z</time>
      </trkpt>
      <trkpt lat="44.07267" lon="2.99737">
        <ele>444.4</ele>
        <time>2018-05-19T09:42:21Z</time>
      </trkpt>
      <trkpt lat="44.07269" lon="2.99732">
        <ele>444.6</ele>
        <time>2018-05-19T09:42:22Z</time>
      </trkpt>
      <trkpt lat="44.07272" lon="2.99728">
        <ele>444.8</ele>
        <time>2018-05-19T09:42:23Z</time>
      </trkpt>
      <trkpt lat="44.07275" lon="2.99725">
        <ele>445</ele>
        <time>2018-05-19T09:42:24Z</time>
      </trkpt>
      <trkpt lat="44.07278" lon="2.99722">
        <ele>445.3</ele>
        <time>2018-05-19T09:42:25Z</time>
      </trkpt>
      <trkpt lat="44.07282" lon="2.9972">
        <ele>445.6</ele>
        <time>2018-05-19T09:42:26Z</time>
      </trkpt>
      <trkpt lat="44.07285" lon="2.99718">
        <ele>446</ele>
        <time>2018-05-19T09:42:27Z</time>
      </trkpt>
      <trkpt lat="44.07288" lon="2.99715">
        <ele>446.4</ele>
        <time>2018-05-19T09:42:28Z</time>
      </trkpt>
      <trkpt lat="44.07292" lon="2.99713">
        <ele>446.8</ele>
        <time>2018-05-19T09:42:29Z</time>
      </trkpt>
      <trkpt lat="44.07295" lon="2.99712">
        <ele>447.1</ele>
        <time>2018-05-19T09:42:30Z</time>
      </trkpt>
      <trkpt lat="44.07299" lon="2.99711">
        <ele>447.4</ele>
        <time>2018-05-19T09:42:31Z</time>
      </trkpt>
      <trkpt lat="44.07303" lon="2.9971">
        <ele>447.7</ele>
        <time>2018-05-19T09:42:32Z</time>
      </trkpt>
      <trkpt lat="44.07307" lon="2.99709">
        <ele>448</ele>
        <time>2018-05-19T09:42:33Z</time>
      </trkpt>
      <trkpt lat="44.07311" lon="2.99709">
        <ele>448.3</ele>
        <time>2018-05-19T09:42:34Z</time>
      </trkpt>
      <trkpt lat="44.07315" lon="2.9971">
        <ele>448.5</ele>
        <time>2018-05-19T09:42:35Z</time>
      </trkpt>
      <trkpt lat="44.07319" lon="2.99711">
        <ele>448.8</ele>
        <time>2018-05-19T09:42:36Z</time>
      </trkpt>
      <trkpt lat="44.07324" lon="2.99713">
        <ele>449</ele>
        <time>2018-05-19T09:42:37Z</time>
      </trkpt>
      <trkpt lat="44.07328" lon="2.99715">
        <ele>449.3</ele>
        <time>2018-05-19T09:42:38Z</time>
      </trkpt>
      <trkpt lat="44.07333" lon="2.99717">
        <ele>449.6</ele>
        <time>2018-05-19T09:42:39Z</time>
      </trkpt>
      <trkpt lat="44.07337" lon="2.99719">
        <ele>449.8</ele>
        <time>2018-05-19T09:42:40Z</time>
      </trkpt>
      <trkpt lat="44.07341" lon="2.99722">
        <ele>450.1</ele>
        <time>2018-05-19T09:42:41Z</time>
      </trkpt>
      <trkpt lat="44.07345" lon="2.99724">
        <ele>450.4</ele>
        <time>2018-05-19T09:42:42Z</time>
      </trkpt>
      <trkpt lat="44.07348" lon="2.99726">
        <ele>450.6</ele>
        <time>2018-05-19T09:42:43Z</time>
      </trkpt>
      <trkpt lat="44.07352" lon="2.99729">
        <ele>450.8</ele>
        <time>2018-05-19T09:42:45Z</time>
      </trkpt>
      <trkpt lat="44.07357" lon="2.99731">
        <ele>451</ele>
        <time>2018-05-19T09:42:47Z</time>
      </trkpt>
      <trkpt lat="44.0736" lon="2.99733">
        <ele>451.2</ele>
        <time>2018-05-19T09:42:48Z</time>
      </trkpt>
      <trkpt lat="44.07363" lon="2.99735">
        <ele>451.4</ele>
        <time>2018-05-19T09:42:49Z</time>
      </trkpt>
      <trkpt lat="44.07367" lon="2.99736">
        <ele>451.6</ele>
        <time>2018-05-19T09:42:50Z</time>
      </trkpt>
      <trkpt lat="44.0737" lon="2.99738">
        <ele>451.9</ele>
        <time>2018-05-19T09:42:51Z</time>
      </trkpt>
      <trkpt lat="44.07373" lon="2.99739">
        <ele>452.2</ele>
        <time>2018-05-19T09:42:52Z</time>
      </trkpt>
      <trkpt lat="44.07376" lon="2.99741">
        <ele>452.5</ele>
        <time>2018-05-19T09:42:53Z</time>
      </trkpt>
      <trkpt lat="44.07379" lon="2.99743">
        <ele>452.9</ele>
        <time>2018-05-19T09:42:54Z</time>
      </trkpt>
      <trkpt lat="44.07382" lon="2.99745">
        <ele>453.3</ele>
        <time>2018-05-19T09:42:55Z</time>
      </trkpt>
      <trkpt lat="44.07385" lon="2.99747">
        <ele>453.6</ele>
        <time>2018-05-19T09:42:56Z</time>
      </trkpt>
      <trkpt lat="44.07388" lon="2.99749">
        <ele>454</ele>
        <time>2018-05-19T09:42:57Z</time>
      </trkpt>
      <trkpt lat="44.07391" lon="2.99751">
        <ele>454.4</ele>
        <time>2018-05-19T09:42:58Z</time>
      </trkpt>
      <trkpt lat="44.07394" lon="2.99753">
        <ele>454.8</ele>
        <time>2018-05-19T09:42:59Z</time>
      </trkpt>
      <trkpt lat="44.07397" lon="2.99756">
        <ele>455.1</ele>
        <time>2018-05-19T09:43:00Z</time>
      </trkpt>
      <trkpt lat="44.074" lon="2.99759">
        <ele>455.4</ele>
        <time>2018-05-19T09:43:01Z</time>
      </trkpt>
      <trkpt lat="44.07403" lon="2.99762">
        <ele>455.7</ele>
        <time>2018-05-19T09:43:02Z</time>
      </trkpt>
      <trkpt lat="44.07406" lon="2.99765">
        <ele>455.9</ele>
        <time>2018-05-19T09:43:03Z</time>
      </trkpt>
      <trkpt lat="44.07409" lon="2.99768">
        <ele>456.1</ele>
        <time>2018-05-19T09:43:04Z</time>
      </trkpt>
      <trkpt lat="44.07411" lon="2.99771">
        <ele>456.2</ele>
        <time>2018-05-19T09:43:05Z</time>
      </trkpt>
      <trkpt lat="44.07414" lon="2.99775">
        <ele>456.2</ele>
        <time>2018-05-19T09:43:06Z</time>
      </trkpt>
      <trkpt lat="44.07416" lon="2.99778">
        <ele>456.2</ele>
        <time>2018-05-19T09:43:07Z</time>
      </trkpt>
      <trkpt lat="44.07419" lon="2.99781">
        <ele>456.2</ele>
        <time>2018-05-19T09:43:08Z</time>
      </trkpt>
      <trkpt lat="44.07423" lon="2.99783">
        <ele>456.1</ele>
        <time>2018-05-19T09:43:09Z</time>
      </trkpt>
      <trkpt lat="44.07426" lon="2.99785">
        <ele>456</ele>
        <time>2018-05-19T09:43:10Z</time>
      </trkpt>
      <trkpt lat="44.0743" lon="2.99787">
        <ele>456</ele>
        <time>2018-05-19T09:43:11Z</time>
      </trkpt>
      <trkpt lat="44.07434" lon="2.99788">
        <ele>456.1</ele>
        <time>2018-05-19T09:43:12Z</time>
      </trkpt>
      <trkpt lat="44.07438" lon="2.99792">
        <ele>456.3</ele>
        <time>2018-05-19T09:43:13Z</time>
      </trkpt>
      <trkpt lat="44.07441" lon="2.99795">
        <ele>456.6</ele>
        <time>2018-05-19T09:43:14Z</time>
      </trkpt>
      <trkpt lat="44.07444" lon="2.99798">
        <ele>457</ele>
        <time>2018-05-19T09:43:15Z</time>
      </trkpt>
      <trkpt lat="44.07448" lon="2.99801">
        <ele>457.4</ele>
        <time>2018-05-19T09:43:16Z</time>
      </trkpt>
      <trkpt lat="44.07451" lon="2.99804">
        <ele>457.8</ele>
        <time>2018-05-19T09:43:17Z</time>
      </trkpt>
      <trkpt lat="44.07453" lon="2.99806">
        <ele>458</ele>
        <time>2018-05-19T09:43:18Z</time>
      </trkpt>
      <trkpt lat="44.07456" lon="2.99809">
        <ele>458.3</ele>
        <time>2018-05-19T09:43:19Z</time>
      </trkpt>
      <trkpt lat="44.07459" lon="2.99811">
        <ele>458.5</ele>
        <time>2018-05-19T09:43:20Z</time>
      </trkpt>
      <trkpt lat="44.07462" lon="2.99812">
        <ele>458.7</ele>
        <time>2018-05-19T09:43:21Z</time>
      </trkpt>
      <trkpt lat="44.07466" lon="2.99814">
        <ele>458.9</ele>
        <time>2018-05-19T09:43:22Z</time>
      </trkpt>
      <trkpt lat="44.07468" lon="2.99816">
        <ele>459.1</ele>
        <time>2018-05-19T09:43:23Z</time>
      </trkpt>
      <trkpt lat="44.07471" lon="2.99819">
        <ele>459.3</ele>
        <time>2018-05-19T09:43:24Z</time>
      </trkpt>
      <trkpt lat="44.07474" lon="2.99822">
        <ele>459.5</ele>
        <time>2018-05-19T09:43:25Z</time>
      </trkpt>
      <trkpt lat="44.07477" lon="2.99824">
        <ele>459.6</ele>
        <time>2018-05-19T09:43:26Z</time>
      </trkpt>
      <trkpt lat="44.07479" lon="2.99827">
        <ele>459.7</ele>
        <time>2018-05-19T09:43:27Z</time>
      </trkpt>
      <trkpt lat="44.07483" lon="2.99831">
        <ele>459.9</ele>
        <time>2018-05-19T09:43:28Z</time>
      </trkpt>
      <trkpt lat="44.07487" lon="2.99835">
        <ele>460.1</ele>
        <time>2018-05-19T09:43:29Z</time>
      </trkpt>
      <trkpt lat="44.0749" lon="2.99838">
        <ele>460.2</ele>
        <time>2018-05-19T09:43:30Z</time>
      </trkpt>
      <trkpt lat="44.07493" lon="2.9984">
        <ele>460.4</ele>
        <time>2018-05-19T09:43:31Z</time>
      </trkpt>
      <trkpt lat="44.07497" lon="2.99843">
        <ele>460.6</ele>
        <time>2018-05-19T09:43:32Z</time>
      </trkpt>
      <trkpt lat="44.075" lon="2.99845">
        <ele>460.8</ele>
        <time>2018-05-19T09:43:33Z</time>
      </trkpt>
      <trkpt lat="44.07503" lon="2.99847">
        <ele>460.9</ele>
        <time>2018-05-19T09:43:34Z</time>
      </trkpt>
      <trkpt lat="44.07506" lon="2.99849">
        <ele>461.1</ele>
        <time>2018-05-19T09:43:35Z</time>
      </trkpt>
      <trkpt lat="44.0751" lon="2.99852">
        <ele>461.2</ele>
        <time>2018-05-19T09:43:36Z</time>
      </trkpt>
      <trkpt lat="44.07513" lon="2.99855">
        <ele>461.4</ele>
        <time>2018-05-19T09:43:37Z</time>
      </trkpt>
      <trkpt lat="44.07516" lon="2.99859">
        <ele>461.6</ele>
        <time>2018-05-19T09:43:38Z</time>
      </trkpt>
      <trkpt lat="44.07519" lon="2.99862">
        <ele>461.7</ele>
        <time>2018-05-19T09:43:39Z</time>
      </trkpt>
      <trkpt lat="44.07521" lon="2.99866">
        <ele>461.9</ele>
        <time>2018-05-19T09:43:40Z</time>
      </trkpt>
      <trkpt lat="44.07525" lon="2.9987">
        <ele>462.1</ele>
        <time>2018-05-19T09:43:41Z</time>
      </trkpt>
      <trkpt lat="44.07528" lon="2.99874">
        <ele>462.3</ele>
        <time>2018-05-19T09:43:42Z</time>
      </trkpt>
      <trkpt lat="44.07531" lon="2.99877">
        <ele>462.5</ele>
        <time>2018-05-19T09:43:43Z</time>
      </trkpt>
      <trkpt lat="44.07534" lon="2.9988">
        <ele>462.8</ele>
        <time>2018-05-19T09:43:44Z</time>
      </trkpt>
      <trkpt lat="44.07537" lon="2.99884">
        <ele>463.1</ele>
        <time>2018-05-19T09:43:45Z</time>
      </trkpt>
      <trkpt lat="44.0754" lon="2.99888">
        <ele>463.4</ele>
        <time>2018-05-19T09:43:46Z</time>
      </trkpt>
      <trkpt lat="44.07542" lon="2.99892">
        <ele>463.7</ele>
        <time>2018-05-19T09:43:47Z</time>
      </trkpt>
      <trkpt lat="44.07545" lon="2.99895">
        <ele>463.9</ele>
        <time>2018-05-19T09:43:48Z</time>
      </trkpt>
      <trkpt lat="44.07547" lon="2.99898">
        <ele>464</ele>
        <time>2018-05-19T09:43:49Z</time>
      </trkpt>
      <trkpt lat="44.0755" lon="2.99902">
        <ele>464.1</ele>
        <time>2018-05-19T09:43:50Z</time>
      </trkpt>
      <trkpt lat="44.07554" lon="2.99905">
        <ele>464.2</ele>
        <time>2018-05-19T09:43:51Z</time>
      </trkpt>
      <trkpt lat="44.0756" lon="2.99913">
        <ele>464.4</ele>
        <time>2018-05-19T09:43:52Z</time>
      </trkpt>
      <trkpt lat="44.07563" lon="2.99916">
        <ele>464.5</ele>
        <time>2018-05-19T09:43:53Z</time>
      </trkpt>
      <trkpt lat="44.07566" lon="2.99922">
        <ele>464.7</ele>
        <time>2018-05-19T09:43:54Z</time>
      </trkpt>
      <trkpt lat="44.07569" lon="2.99925">
        <ele>464.9</ele>
        <time>2018-05-19T09:43:55Z</time>
      </trkpt>
      <trkpt lat="44.07572" lon="2.99929">
        <ele>465.1</ele>
        <time>2018-05-19T09:43:56Z</time>
      </trkpt>
      <trkpt lat="44.07576" lon="2.9993">
        <ele>465.5</ele>
        <time>2018-05-19T09:43:57Z</time>
      </trkpt>
      <trkpt lat="44.07582" lon="2.99931">
        <ele>466</ele>
        <time>2018-05-19T09:43:58Z</time>
      </trkpt>
      <trkpt lat="44.07585" lon="2.99932">
        <ele>466.3</ele>
        <time>2018-05-19T09:43:59Z</time>
      </trkpt>
      <trkpt lat="44.07589" lon="2.99932">
        <ele>466.7</ele>
        <time>2018-05-19T09:44:00Z</time>
      </trkpt>
      <trkpt lat="44.07593" lon="2.99932">
        <ele>467.1</ele>
        <time>2018-05-19T09:44:01Z</time>
      </trkpt>
      <trkpt lat="44.07597" lon="2.99933">
        <ele>467.5</ele>
        <time>2018-05-19T09:44:02Z</time>
      </trkpt>
      <trkpt lat="44.07601" lon="2.99934">
        <ele>467.9</ele>
        <time>2018-05-19T09:44:03Z</time>
      </trkpt>
      <trkpt lat="44.07605" lon="2.99935">
        <ele>468.2</ele>
        <time>2018-05-19T09:44:04Z</time>
      </trkpt>
      <trkpt lat="44.07608" lon="2.99935">
        <ele>468.6</ele>
        <time>2018-05-19T09:44:05Z</time>
      </trkpt>
      <trkpt lat="44.07612" lon="2.99936">
        <ele>468.9</ele>
        <time>2018-05-19T09:44:06Z</time>
      </trkpt>
      <trkpt lat="44.07615" lon="2.99937">
        <ele>469.2</ele>
        <time>2018-05-19T09:44:07Z</time>
      </trkpt>
      <trkpt lat="44.07618" lon="2.99939">
        <ele>469.6</ele>
        <time>2018-05-19T09:44:08Z</time>
      </trkpt>
      <trkpt lat="44.07621" lon="2.99941">
        <ele>469.9</ele>
        <time>2018-05-19T09:44:09Z</time>
      </trkpt>
      <trkpt lat="44.07623" lon="2.99944">
        <ele>470.1</ele>
        <time>2018-05-19T09:44:10Z</time>
      </trkpt>
      <trkpt lat="44.07625" lon="2.99947">
        <ele>470.5</ele>
        <time>2018-05-19T09:44:11Z</time>
      </trkpt>
      <trkpt lat="44.07627" lon="2.99951">
        <ele>470.8</ele>
        <time>2018-05-19T09:44:12Z</time>
      </trkpt>
      <trkpt lat="44.07629" lon="2.99954">
        <ele>471.1</ele>
        <time>2018-05-19T09:44:13Z</time>
      </trkpt>
      <trkpt lat="44.0763" lon="2.99958">
        <ele>471.3</ele>
        <time>2018-05-19T09:44:14Z</time>
      </trkpt>
      <trkpt lat="44.07632" lon="2.99964">
        <ele>471.8</ele>
        <time>2018-05-19T09:44:16Z</time>
      </trkpt>
      <trkpt lat="44.07633" lon="2.99968">
        <ele>472.1</ele>
        <time>2018-05-19T09:44:17Z</time>
      </trkpt>
      <trkpt lat="44.07633" lon="2.99972">
        <ele>472.4</ele>
        <time>2018-05-19T09:44:18Z</time>
      </trkpt>
      <trkpt lat="44.07633" lon="2.99977">
        <ele>472.7</ele>
        <time>2018-05-19T09:44:19Z</time>
      </trkpt>
      <trkpt lat="44.07633" lon="2.99982">
        <ele>473.1</ele>
        <time>2018-05-19T09:44:20Z</time>
      </trkpt>
      <trkpt lat="44.07633" lon="2.99986">
        <ele>473.3</ele>
        <time>2018-05-19T09:44:21Z</time>
      </trkpt>
      <trkpt lat="44.07632" lon="2.9999">
        <ele>473.6</ele>
        <time>2018-05-19T09:44:22Z</time>
      </trkpt>
      <trkpt lat="44.07631" lon="2.99994">
        <ele>473.8</ele>
        <time>2018-05-19T09:44:23Z</time>
      </trkpt>
      <trkpt lat="44.0763" lon="2.99998">
        <ele>473.9</ele>
        <time>2018-05-19T09:44:24Z</time>
      </trkpt>
      <trkpt lat="44.07629" lon="3.00002">
        <ele>473.9</ele>
        <time>2018-05-19T09:44:25Z</time>
      </trkpt>
      <trkpt lat="44.07627" lon="3.00006">
        <ele>473.9</ele>
        <time>2018-05-19T09:44:26Z</time>
      </trkpt>
      <trkpt lat="44.07626" lon="3.0001">
        <ele>473.9</ele>
        <time>2018-05-19T09:44:27Z</time>
      </trkpt>
      <trkpt lat="44.07624" lon="3.00013">
        <ele>473.8</ele>
        <time>2018-05-19T09:44:28Z</time>
      </trkpt>
      <trkpt lat="44.07622" lon="3.00018">
        <ele>473.6</ele>
        <time>2018-05-19T09:44:29Z</time>
      </trkpt>
      <trkpt lat="44.07621" lon="3.00022">
        <ele>473.5</ele>
        <time>2018-05-19T09:44:30Z</time>
      </trkpt>
      <trkpt lat="44.07618" lon="3.00026">
        <ele>473.3</ele>
        <time>2018-05-19T09:44:31Z</time>
      </trkpt>
      <trkpt lat="44.07616" lon="3.00031">
        <ele>473.1</ele>
        <time>2018-05-19T09:44:32Z</time>
      </trkpt>
      <trkpt lat="44.07614" lon="3.00036">
        <ele>472.9</ele>
        <time>2018-05-19T09:44:33Z</time>
      </trkpt>
      <trkpt lat="44.07612" lon="3.00041">
        <ele>472.7</ele>
        <time>2018-05-19T09:44:34Z</time>
      </trkpt>
      <trkpt lat="44.07607" lon="3.00047">
        <ele>472.5</ele>
        <time>2018-05-19T09:44:35Z</time>
      </trkpt>
      <trkpt lat="44.07604" lon="3.00055">
        <ele>472.3</ele>
        <time>2018-05-19T09:44:36Z</time>
      </trkpt>
      <trkpt lat="44.07601" lon="3.00062">
        <ele>472.2</ele>
        <time>2018-05-19T09:44:37Z</time>
      </trkpt>
      <trkpt lat="44.07597" lon="3.00071">
        <ele>472.1</ele>
        <time>2018-05-19T09:44:38Z</time>
      </trkpt>
      <trkpt lat="44.07596" lon="3.00078">
        <ele>472.1</ele>
        <time>2018-05-19T09:44:39Z</time>
      </trkpt>
      <trkpt lat="44.07594" lon="3.00086">
        <ele>472</ele>
        <time>2018-05-19T09:44:40Z</time>
      </trkpt>
      <trkpt lat="44.07595" lon="3.00092">
        <ele>472</ele>
        <time>2018-05-19T09:44:41Z</time>
      </trkpt>
      <trkpt lat="44.07597" lon="3.00096">
        <ele>472</ele>
        <time>2018-05-19T09:44:42Z</time>
      </trkpt>
      <trkpt lat="44.076" lon="3.001">
        <ele>472</ele>
        <time>2018-05-19T09:44:44Z</time>
      </trkpt>
      <trkpt lat="44.07604" lon="3.00104">
        <ele>472</ele>
        <time>2018-05-19T09:44:46Z</time>
      </trkpt>
      <trkpt lat="44.07608" lon="3.00105">
        <ele>472.1</ele>
        <time>2018-05-19T09:44:47Z</time>
      </trkpt>
      <trkpt lat="44.0761" lon="3.00112">
        <ele>472.2</ele>
        <time>2018-05-19T09:44:49Z</time>
      </trkpt>
      <trkpt lat="44.07613" lon="3.00114">
        <ele>472.3</ele>
        <time>2018-05-19T09:44:51Z</time>
      </trkpt>
      <trkpt lat="44.07615" lon="3.00119">
        <ele>472.5</ele>
        <time>2018-05-19T09:44:53Z</time>
      </trkpt>
      <trkpt lat="44.07618" lon="3.00124">
        <ele>472.7</ele>
        <time>2018-05-19T09:44:55Z</time>
      </trkpt>
      <trkpt lat="44.07621" lon="3.00129">
        <ele>472.9</ele>
        <time>2018-05-19T09:44:57Z</time>
      </trkpt>
      <trkpt lat="44.07624" lon="3.00131">
        <ele>473</ele>
        <time>2018-05-19T09:44:58Z</time>
      </trkpt>
      <trkpt lat="44.07627" lon="3.00133">
        <ele>473.1</ele>
        <time>2018-05-19T09:44:59Z</time>
      </trkpt>
      <trkpt lat="44.07631" lon="3.00133">
        <ele>473.3</ele>
        <time>2018-05-19T09:45:01Z</time>
      </trkpt>
      <trkpt lat="44.07635" lon="3.00133">
        <ele>473.6</ele>
        <time>2018-05-19T09:45:03Z</time>
      </trkpt>
      <trkpt lat="44.0764" lon="3.00134">
        <ele>474</ele>
        <time>2018-05-19T09:45:05Z</time>
      </trkpt>
      <trkpt lat="44.07644" lon="3.00136">
        <ele>474.4</ele>
        <time>2018-05-19T09:45:07Z</time>
      </trkpt>
      <trkpt lat="44.07648" lon="3.00141">
        <ele>475</ele>
        <time>2018-05-19T09:45:09Z</time>
      </trkpt>
      <trkpt lat="44.07651" lon="3.00147">
        <ele>475.8</ele>
        <time>2018-05-19T09:45:11Z</time>
      </trkpt>
      <trkpt lat="44.07653" lon="3.0015">
        <ele>476.3</ele>
        <time>2018-05-19T09:45:12Z</time>
      </trkpt>
      <trkpt lat="44.07656" lon="3.00155">
        <ele>477.2</ele>
        <time>2018-05-19T09:45:14Z</time>
      </trkpt>
      <trkpt lat="44.0766" lon="3.00158">
        <ele>477.9</ele>
        <time>2018-05-19T09:45:16Z</time>
      </trkpt>
      <trkpt lat="44.07663" lon="3.00161">
        <ele>478.7</ele>
        <time>2018-05-19T09:45:18Z</time>
      </trkpt>
      <trkpt lat="44.07667" lon="3.00163">
        <ele>479.4</ele>
        <time>2018-05-19T09:45:20Z</time>
      </trkpt>
      <trkpt lat="44.07671" lon="3.00166">
        <ele>480.1</ele>
        <time>2018-05-19T09:45:22Z</time>
      </trkpt>
      <trkpt lat="44.07674" lon="3.00169">
        <ele>480.8</ele>
        <time>2018-05-19T09:45:24Z</time>
      </trkpt>
      <trkpt lat="44.07679" lon="3.00171">
        <ele>481.6</ele>
        <time>2018-05-19T09:45:26Z</time>
      </trkpt>
      <trkpt lat="44.07684" lon="3.00173">
        <ele>482.4</ele>
        <time>2018-05-19T09:45:28Z</time>
      </trkpt>
      <trkpt lat="44.07689" lon="3.00175">
        <ele>483.2</ele>
        <time>2018-05-19T09:45:30Z</time>
      </trkpt>
      <trkpt lat="44.07694" lon="3.00178">
        <ele>484</ele>
        <time>2018-05-19T09:45:32Z</time>
      </trkpt>
      <trkpt lat="44.07698" lon="3.0018">
        <ele>484.8</ele>
        <time>2018-05-19T09:45:34Z</time>
      </trkpt>
      <trkpt lat="44.07703" lon="3.00183">
        <ele>485.6</ele>
        <time>2018-05-19T09:45:36Z</time>
      </trkpt>
      <trkpt lat="44.07706" lon="3.00185">
        <ele>486</ele>
        <time>2018-05-19T09:45:37Z</time>
      </trkpt>
      <trkpt lat="44.07709" lon="3.00187">
        <ele>486.3</ele>
        <time>2018-05-19T09:45:38Z</time>
      </trkpt>
      <trkpt lat="44.07712" lon="3.00187">
        <ele>486.5</ele>
        <time>2018-05-19T09:45:39Z</time>
      </trkpt>
      <trkpt lat="44.07715" lon="3.00187">
        <ele>486.8</ele>
        <time>2018-05-19T09:45:40Z</time>
      </trkpt>
      <trkpt lat="44.07718" lon="3.00186">
        <ele>486.9</ele>
        <time>2018-05-19T09:45:41Z</time>
      </trkpt>
      <trkpt lat="44.0772" lon="3.00183">
        <ele>487.1</ele>
        <time>2018-05-19T09:45:42Z</time>
      </trkpt>
      <trkpt lat="44.07722" lon="3.00179">
        <ele>487.3</ele>
        <time>2018-05-19T09:45:43Z</time>
      </trkpt>
      <trkpt lat="44.07724" lon="3.00175">
        <ele>487.5</ele>
        <time>2018-05-19T09:45:44Z</time>
      </trkpt>
      <trkpt lat="44.07725" lon="3.00172">
        <ele>487.7</ele>
        <time>2018-05-19T09:45:45Z</time>
      </trkpt>
      <trkpt lat="44.07727" lon="3.00166">
        <ele>488</ele>
        <time>2018-05-19T09:45:47Z</time>
      </trkpt>
      <trkpt lat="44.07729" lon="3.0016">
        <ele>488.5</ele>
        <time>2018-05-19T09:45:49Z</time>
      </trkpt>
      <trkpt lat="44.07732" lon="3.00155">
        <ele>489.1</ele>
        <time>2018-05-19T09:45:51Z</time>
      </trkpt>
      <trkpt lat="44.07736" lon="3.00151">
        <ele>489.8</ele>
        <time>2018-05-19T09:45:53Z</time>
      </trkpt>
      <trkpt lat="44.0774" lon="3.00148">
        <ele>490.6</ele>
        <time>2018-05-19T09:45:55Z</time>
      </trkpt>
      <trkpt lat="44.07745" lon="3.00146">
        <ele>491.5</ele>
        <time>2018-05-19T09:45:57Z</time>
      </trkpt>
      <trkpt lat="44.07749" lon="3.00145">
        <ele>492.2</ele>
        <time>2018-05-19T09:45:59Z</time>
      </trkpt>
      <trkpt lat="44.07752" lon="3.00143">
        <ele>492.8</ele>
        <time>2018-05-19T09:46:01Z</time>
      </trkpt>
      <trkpt lat="44.07756" lon="3.00143">
        <ele>493.5</ele>
        <time>2018-05-19T09:46:03Z</time>
      </trkpt>
      <trkpt lat="44.0776" lon="3.00145">
        <ele>494.4</ele>
        <time>2018-05-19T09:46:05Z</time>
      </trkpt>
      <trkpt lat="44.07764" lon="3.00145">
        <ele>495.1</ele>
        <time>2018-05-19T09:46:07Z</time>
      </trkpt>
      <trkpt lat="44.07767" lon="3.00144">
        <ele>495.9</ele>
        <time>2018-05-19T09:46:09Z</time>
      </trkpt>
      <trkpt lat="44.0777" lon="3.00142">
        <ele>496.5</ele>
        <time>2018-05-19T09:46:11Z</time>
      </trkpt>
      <trkpt lat="44.07774" lon="3.0014">
        <ele>497.3</ele>
        <time>2018-05-19T09:46:13Z</time>
      </trkpt>
      <trkpt lat="44.07778" lon="3.00138">
        <ele>497.9</ele>
        <time>2018-05-19T09:46:15Z</time>
      </trkpt>
      <trkpt lat="44.07781" lon="3.00135">
        <ele>498.5</ele>
        <time>2018-05-19T09:46:17Z</time>
      </trkpt>
      <trkpt lat="44.07785" lon="3.00132">
        <ele>499.1</ele>
        <time>2018-05-19T09:46:19Z</time>
      </trkpt>
      <trkpt lat="44.07788" lon="3.00128">
        <ele>499.7</ele>
        <time>2018-05-19T09:46:21Z</time>
      </trkpt>
      <trkpt lat="44.07791" lon="3.00124">
        <ele>500.3</ele>
        <time>2018-05-19T09:46:23Z</time>
      </trkpt>
      <trkpt lat="44.07794" lon="3.00119">
        <ele>500.9</ele>
        <time>2018-05-19T09:46:25Z</time>
      </trkpt>
      <trkpt lat="44.07796" lon="3.00115">
        <ele>501.6</ele>
        <time>2018-05-19T09:46:27Z</time>
      </trkpt>
      <trkpt lat="44.07799" lon="3.0011">
        <ele>502.3</ele>
        <time>2018-05-19T09:46:29Z</time>
      </trkpt>
      <trkpt lat="44.07801" lon="3.00105">
        <ele>503.2</ele>
        <time>2018-05-19T09:46:31Z</time>
      </trkpt>
      <trkpt lat="44.07803" lon="3.001">
        <ele>504</ele>
        <time>2018-05-19T09:46:33Z</time>
      </trkpt>
      <trkpt lat="44.07806" lon="3.00096">
        <ele>504.8</ele>
        <time>2018-05-19T09:46:35Z</time>
      </trkpt>
      <trkpt lat="44.07809" lon="3.00091">
        <ele>505.5</ele>
        <time>2018-05-19T09:46:37Z</time>
      </trkpt>
      <trkpt lat="44.07812" lon="3.00087">
        <ele>506.2</ele>
        <time>2018-05-19T09:46:39Z</time>
      </trkpt>
      <trkpt lat="44.07815" lon="3.00084">
        <ele>506.7</ele>
        <time>2018-05-19T09:46:41Z</time>
      </trkpt>
      <trkpt lat="44.07818" lon="3.00081">
        <ele>507.3</ele>
        <time>2018-05-19T09:46:43Z</time>
      </trkpt>
      <trkpt lat="44.0782" lon="3.00078">
        <ele>507.7</ele>
        <time>2018-05-19T09:46:45Z</time>
      </trkpt>
      <trkpt lat="44.07823" lon="3.00076">
        <ele>508.2</ele>
        <time>2018-05-19T09:46:47Z</time>
      </trkpt>
      <trkpt lat="44.07826" lon="3.00073">
        <ele>508.6</ele>
        <time>2018-05-19T09:46:49Z</time>
      </trkpt>
      <trkpt lat="44.07828" lon="3.00071">
        <ele>508.9</ele>
        <time>2018-05-19T09:46:51Z</time>
      </trkpt>
      <trkpt lat="44.07832" lon="3.00067">
        <ele>509.2</ele>
        <time>2018-05-19T09:46:53Z</time>
      </trkpt>
      <trkpt lat="44.07835" lon="3.00065">
        <ele>509.2</ele>
        <time>2018-05-19T09:46:54Z</time>
      </trkpt>
      <trkpt lat="44.07837" lon="3.00062">
        <ele>509.3</ele>
        <time>2018-05-19T09:46:55Z</time>
      </trkpt>
      <trkpt lat="44.07842" lon="3.00059">
        <ele>509.1</ele>
        <time>2018-05-19T09:46:56Z</time>
      </trkpt>
      <trkpt lat="44.07846" lon="3.00055">
        <ele>508.9</ele>
        <time>2018-05-19T09:46:57Z</time>
      </trkpt>
      <trkpt lat="44.0785" lon="3.0005">
        <ele>508.6</ele>
        <time>2018-05-19T09:46:58Z</time>
      </trkpt>
      <trkpt lat="44.07854" lon="3.00043">
        <ele>508.1</ele>
        <time>2018-05-19T09:46:59Z</time>
      </trkpt>
      <trkpt lat="44.07859" lon="3.00035">
        <ele>507.4</ele>
        <time>2018-05-19T09:47:00Z</time>
      </trkpt>
      <trkpt lat="44.07862" lon="3.00025">
        <ele>506.6</ele>
        <time>2018-05-19T09:47:01Z</time>
      </trkpt>
      <trkpt lat="44.07866" lon="3.00013">
        <ele>505.5</ele>
        <time>2018-05-19T09:47:02Z</time>
      </trkpt>
      <trkpt lat="44.07872" lon="3.00002">
        <ele>504.3</ele>
        <time>2018-05-19T09:47:03Z</time>
      </trkpt>
      <trkpt lat="44.07878" lon="2.99992">
        <ele>503</ele>
        <time>2018-05-19T09:47:04Z</time>
      </trkpt>
      <trkpt lat="44.07885" lon="2.99982">
        <ele>501.6</ele>
        <time>2018-05-19T09:47:05Z</time>
      </trkpt>
      <trkpt lat="44.07892" lon="2.99971">
        <ele>500</ele>
        <time>2018-05-19T09:47:06Z</time>
      </trkpt>
      <trkpt lat="44.07899" lon="2.99961">
        <ele>498.4</ele>
        <time>2018-05-19T09:47:07Z</time>
      </trkpt>
      <trkpt lat="44.07906" lon="2.99951">
        <ele>496.9</ele>
        <time>2018-05-19T09:47:08Z</time>
      </trkpt>
      <trkpt lat="44.07914" lon="2.99941">
        <ele>495.1</ele>
        <time>2018-05-19T09:47:09Z</time>
      </trkpt>
      <trkpt lat="44.07923" lon="2.99933">
        <ele>493.2</ele>
        <time>2018-05-19T09:47:10Z</time>
      </trkpt>
      <trkpt lat="44.07933" lon="2.99925">
        <ele>491.1</ele>
        <time>2018-05-19T09:47:11Z</time>
      </trkpt>
      <trkpt lat="44.07943" lon="2.99919">
        <ele>489.1</ele>
        <time>2018-05-19T09:47:12Z</time>
      </trkpt>
      <trkpt lat="44.07952" lon="2.99916">
        <ele>487.3</ele>
        <time>2018-05-19T09:47:13Z</time>
      </trkpt>
      <trkpt lat="44.07962" lon="2.99916">
        <ele>485.3</ele>
        <time>2018-05-19T09:47:14Z</time>
      </trkpt>
      <trkpt lat="44.0797" lon="2.9992">
        <ele>484</ele>
        <time>2018-05-19T09:47:15Z</time>
      </trkpt>
      <trkpt lat="44.07974" lon="2.99926">
        <ele>483.2</ele>
        <time>2018-05-19T09:47:16Z</time>
      </trkpt>
      <trkpt lat="44.07976" lon="2.99934">
        <ele>482.5</ele>
        <time>2018-05-19T09:47:17Z</time>
      </trkpt>
      <trkpt lat="44.07978" lon="2.99943">
        <ele>482</ele>
        <time>2018-05-19T09:47:18Z</time>
      </trkpt>
      <trkpt lat="44.0798" lon="2.99949">
        <ele>481.7</ele>
        <time>2018-05-19T09:47:19Z</time>
      </trkpt>
      <trkpt lat="44.07981" lon="2.99955">
        <ele>481.6</ele>
        <time>2018-05-19T09:47:20Z</time>
      </trkpt>
      <trkpt lat="44.07982" lon="2.9996">
        <ele>481.5</ele>
        <time>2018-05-19T09:47:21Z</time>
      </trkpt>
      <trkpt lat="44.07983" lon="2.99966">
        <ele>481.5</ele>
        <time>2018-05-19T09:47:22Z</time>
      </trkpt>
      <trkpt lat="44.07985" lon="2.99971">
        <ele>481.6</ele>
        <time>2018-05-19T09:47:23Z</time>
      </trkpt>
      <trkpt lat="44.07987" lon="2.99978">
        <ele>481.8</ele>
        <time>2018-05-19T09:47:24Z</time>
      </trkpt>
      <trkpt lat="44.07988" lon="2.99984">
        <ele>481.9</ele>
        <time>2018-05-19T09:47:25Z</time>
      </trkpt>
      <trkpt lat="44.0799" lon="2.99992">
        <ele>481.9</ele>
        <time>2018-05-19T09:47:26Z</time>
      </trkpt>
      <trkpt lat="44.07991" lon="3.00001">
        <ele>481.7</ele>
        <time>2018-05-19T09:47:27Z</time>
      </trkpt>
      <trkpt lat="44.07993" lon="3.00011">
        <ele>481.1</ele>
        <time>2018-05-19T09:47:28Z</time>
      </trkpt>
      <trkpt lat="44.07995" lon="3.00022">
        <ele>480.5</ele>
        <time>2018-05-19T09:47:29Z</time>
      </trkpt>
      <trkpt lat="44.07996" lon="3.00034">
        <ele>479.8</ele>
        <time>2018-05-19T09:47:30Z</time>
      </trkpt>
      <trkpt lat="44.07997" lon="3.00045">
        <ele>479.1</ele>
        <time>2018-05-19T09:47:31Z</time>
      </trkpt>
      <trkpt lat="44.07996" lon="3.00057">
        <ele>478.4</ele>
        <time>2018-05-19T09:47:32Z</time>
      </trkpt>
      <trkpt lat="44.07994" lon="3.00067">
        <ele>478</ele>
        <time>2018-05-19T09:47:33Z</time>
      </trkpt>
      <trkpt lat="44.07992" lon="3.00075">
        <ele>477.9</ele>
        <time>2018-05-19T09:47:34Z</time>
      </trkpt>
      <trkpt lat="44.07992" lon="3.00082">
        <ele>478</ele>
        <time>2018-05-19T09:47:35Z</time>
      </trkpt>
      <trkpt lat="44.07994" lon="3.00089">
        <ele>478.3</ele>
        <time>2018-05-19T09:47:36Z</time>
      </trkpt>
      <trkpt lat="44.07996" lon="3.00095">
        <ele>478.8</ele>
        <time>2018-05-19T09:47:37Z</time>
      </trkpt>
      <trkpt lat="44.07998" lon="3.00103">
        <ele>479.4</ele>
        <time>2018-05-19T09:47:38Z</time>
      </trkpt>
      <trkpt lat="44.07998" lon="3.0011">
        <ele>479.9</ele>
        <time>2018-05-19T09:47:39Z</time>
      </trkpt>
      <trkpt lat="44.07997" lon="3.00115">
        <ele>480.2</ele>
        <time>2018-05-19T09:47:40Z</time>
      </trkpt>
      <trkpt lat="44.07995" lon="3.00118">
        <ele>480.4</ele>
        <time>2018-05-19T09:47:41Z</time>
      </trkpt>
      <trkpt lat="44.07992" lon="3.00123">
        <ele>480.7</ele>
        <time>2018-05-19T09:47:43Z</time>
      </trkpt>
      <trkpt lat="44.07988" lon="3.00126">
        <ele>480.9</ele>
        <time>2018-05-19T09:47:46Z</time>
      </trkpt>
      <trkpt lat="44.07988" lon="3.00131">
        <ele>481.2</ele>
        <time>2018-05-19T09:47:48Z</time>
      </trkpt>
      <trkpt lat="44.07987" lon="3.00135">
        <ele>481.4</ele>
        <time>2018-05-19T09:47:52Z</time>
      </trkpt>
      <trkpt lat="44.07985" lon="3.00139">
        <ele>481.7</ele>
        <time>2018-05-19T09:47:56Z</time>
      </trkpt>
      <trkpt lat="44.07986" lon="3.00143">
        <ele>481.9</ele>
        <time>2018-05-19T09:47:58Z</time>
      </trkpt>
      <trkpt lat="44.07986" lon="3.00148">
        <ele>482.3</ele>
        <time>2018-05-19T09:48:00Z</time>
      </trkpt>
      <trkpt lat="44.07987" lon="3.00154">
        <ele>482.7</ele>
        <time>2018-05-19T09:48:02Z</time>
      </trkpt>
      <trkpt lat="44.07987" lon="3.00159">
        <ele>483.1</ele>
        <time>2018-05-19T09:48:04Z</time>
      </trkpt>
      <trkpt lat="44.07987" lon="3.00165">
        <ele>484</ele>
        <time>2018-05-19T09:48:06Z</time>
      </trkpt>
      <trkpt lat="44.07987" lon="3.00171">
        <ele>484.8</ele>
        <time>2018-05-19T09:48:08Z</time>
      </trkpt>
      <trkpt lat="44.07987" lon="3.00179">
        <ele>485.4</ele>
        <time>2018-05-19T09:48:10Z</time>
      </trkpt>
      <trkpt lat="44.07988" lon="3.00186">
        <ele>486.3</ele>
        <time>2018-05-19T09:48:12Z</time>
      </trkpt>
      <trkpt lat="44.07988" lon="3.0019">
        <ele>486.9</ele>
        <time>2018-05-19T09:48:13Z</time>
      </trkpt>
      <trkpt lat="44.07987" lon="3.00194">
        <ele>487.4</ele>
        <time>2018-05-19T09:48:14Z</time>
      </trkpt>
      <trkpt lat="44.07987" lon="3.00201">
        <ele>488.3</ele>
        <time>2018-05-19T09:48:16Z</time>
      </trkpt>
      <trkpt lat="44.07987" lon="3.00208">
        <ele>488.9</ele>
        <time>2018-05-19T09:48:18Z</time>
      </trkpt>
      <trkpt lat="44.07987" lon="3.00214">
        <ele>489.4</ele>
        <time>2018-05-19T09:48:20Z</time>
      </trkpt>
      <trkpt lat="44.07987" lon="3.0022">
        <ele>489.7</ele>
        <time>2018-05-19T09:48:22Z</time>
      </trkpt>
      <trkpt lat="44.07986" lon="3.00227">
        <ele>490</ele>
        <time>2018-05-19T09:48:24Z</time>
      </trkpt>
      <trkpt lat="44.07985" lon="3.00233">
        <ele>490.3</ele>
        <time>2018-05-19T09:48:26Z</time>
      </trkpt>
      <trkpt lat="44.07984" lon="3.0024">
        <ele>490.7</ele>
        <time>2018-05-19T09:48:28Z</time>
      </trkpt>
      <trkpt lat="44.07984" lon="3.00247">
        <ele>491.3</ele>
        <time>2018-05-19T09:48:30Z</time>
      </trkpt>
      <trkpt lat="44.07983" lon="3.00251">
        <ele>491.6</ele>
        <time>2018-05-19T09:48:31Z</time>
      </trkpt>
      <trkpt lat="44.07983" lon="3.00258">
        <ele>492.5</ele>
        <time>2018-05-19T09:48:33Z</time>
      </trkpt>
      <trkpt lat="44.07982" lon="3.00262">
        <ele>493</ele>
        <time>2018-05-19T09:48:34Z</time>
      </trkpt>
      <trkpt lat="44.07982" lon="3.00266">
        <ele>493.5</ele>
        <time>2018-05-19T09:48:35Z</time>
      </trkpt>
      <trkpt lat="44.07981" lon="3.0027">
        <ele>493.8</ele>
        <time>2018-05-19T09:48:36Z</time>
      </trkpt>
      <trkpt lat="44.07981" lon="3.00277">
        <ele>494.4</ele>
        <time>2018-05-19T09:48:38Z</time>
      </trkpt>
      <trkpt lat="44.07981" lon="3.00281">
        <ele>494.5</ele>
        <time>2018-05-19T09:48:39Z</time>
      </trkpt>
      <trkpt lat="44.0798" lon="3.00285">
        <ele>494.7</ele>
        <time>2018-05-19T09:48:40Z</time>
      </trkpt>
      <trkpt lat="44.0798" lon="3.00292">
        <ele>495</ele>
        <time>2018-05-19T09:48:42Z</time>
      </trkpt>
      <trkpt lat="44.0798" lon="3.00299">
        <ele>495.3</ele>
        <time>2018-05-19T09:48:44Z</time>
      </trkpt>
      <trkpt lat="44.0798" lon="3.00306">
        <ele>495.5</ele>
        <time>2018-05-19T09:48:46Z</time>
      </trkpt>
      <trkpt lat="44.0798" lon="3.00314">
        <ele>495.8</ele>
        <time>2018-05-19T09:48:48Z</time>
      </trkpt>
      <trkpt lat="44.0798" lon="3.00318">
        <ele>496</ele>
        <time>2018-05-19T09:48:49Z</time>
      </trkpt>
      <trkpt lat="44.0798" lon="3.00322">
        <ele>496.4</ele>
        <time>2018-05-19T09:48:50Z</time>
      </trkpt>
      <trkpt lat="44.0798" lon="3.00326">
        <ele>497</ele>
        <time>2018-05-19T09:48:51Z</time>
      </trkpt>
      <trkpt lat="44.0798" lon="3.0033">
        <ele>497.6</ele>
        <time>2018-05-19T09:48:52Z</time>
      </trkpt>
      <trkpt lat="44.07981" lon="3.00336">
        <ele>498.6</ele>
        <time>2018-05-19T09:48:54Z</time>
      </trkpt>
      <trkpt lat="44.07981" lon="3.00343">
        <ele>499.3</ele>
        <time>2018-05-19T09:48:56Z</time>
      </trkpt>
      <trkpt lat="44.07982" lon="3.00349">
        <ele>499.9</ele>
        <time>2018-05-19T09:48:58Z</time>
      </trkpt>
      <trkpt lat="44.07983" lon="3.00354">
        <ele>497.7</ele>
        <time>2018-05-19T09:49:00Z</time>
      </trkpt>
      <trkpt lat="44.07983" lon="3.00359">
        <ele>496</ele>
        <time>2018-05-19T09:49:02Z</time>
      </trkpt>
      <trkpt lat="44.07986" lon="3.00361">
        <ele>493.9</ele>
        <time>2018-05-19T09:49:24Z</time>
      </trkpt>
      <trkpt lat="44.07989" lon="3.00364">
        <ele>491.7</ele>
        <time>2018-05-19T09:49:28Z</time>
      </trkpt>
      <trkpt lat="44.07991" lon="3.00368">
        <ele>489.6</ele>
        <time>2018-05-19T09:49:30Z</time>
      </trkpt>
      <trkpt lat="44.07993" lon="3.00374">
        <ele>486.9</ele>
        <time>2018-05-19T09:49:32Z</time>
      </trkpt>
      <trkpt lat="44.07995" lon="3.00377">
        <ele>485.2</ele>
        <time>2018-05-19T09:49:33Z</time>
      </trkpt>
      <trkpt lat="44.07998" lon="3.00379">
        <ele>483.3</ele>
        <time>2018-05-19T09:49:34Z</time>
      </trkpt>
      <trkpt lat="44.08001" lon="3.00383">
        <ele>480.9</ele>
        <time>2018-05-19T09:49:35Z</time>
      </trkpt>
      <trkpt lat="44.08004" lon="3.00387">
        <ele>478.4</ele>
        <time>2018-05-19T09:49:36Z</time>
      </trkpt>
      <trkpt lat="44.08006" lon="3.00392">
        <ele>476.7</ele>
        <time>2018-05-19T09:49:37Z</time>
      </trkpt>
      <trkpt lat="44.08007" lon="3.00397">
        <ele>476.9</ele>
        <time>2018-05-19T09:49:38Z</time>
      </trkpt>
      <trkpt lat="44.08008" lon="3.004">
        <ele>477.1</ele>
        <time>2018-05-19T09:49:39Z</time>
      </trkpt>
      <trkpt lat="44.08009" lon="3.00404">
        <ele>477.3</ele>
        <time>2018-05-19T09:49:41Z</time>
      </trkpt>
      <trkpt lat="44.08011" lon="3.00407">
        <ele>477.4</ele>
        <time>2018-05-19T09:49:44Z</time>
      </trkpt>
      <trkpt lat="44.08016" lon="3.00408">
        <ele>477.7</ele>
        <time>2018-05-19T09:49:46Z</time>
      </trkpt>
      <trkpt lat="44.08021" lon="3.0041">
        <ele>478</ele>
        <time>2018-05-19T09:49:48Z</time>
      </trkpt>
      <trkpt lat="44.08023" lon="3.00413">
        <ele>478.2</ele>
        <time>2018-05-19T09:49:50Z</time>
      </trkpt>
      <trkpt lat="44.08025" lon="3.00417">
        <ele>478.4</ele>
        <time>2018-05-19T09:49:53Z</time>
      </trkpt>
      <trkpt lat="44.08027" lon="3.0042">
        <ele>478.6</ele>
        <time>2018-05-19T09:49:56Z</time>
      </trkpt>
      <trkpt lat="44.08028" lon="3.00425">
        <ele>478.8</ele>
        <time>2018-05-19T09:49:59Z</time>
      </trkpt>
      <trkpt lat="44.08028" lon="3.0043">
        <ele>479</ele>
        <time>2018-05-19T09:50:02Z</time>
      </trkpt>
      <trkpt lat="44.08028" lon="3.00434">
        <ele>479.1</ele>
        <time>2018-05-19T09:50:04Z</time>
      </trkpt>
      <trkpt lat="44.08029" lon="3.00438">
        <ele>479.3</ele>
        <time>2018-05-19T09:50:06Z</time>
      </trkpt>
      <trkpt lat="44.0803" lon="3.00442">
        <ele>479.5</ele>
        <time>2018-05-19T09:50:08Z</time>
      </trkpt>
      <trkpt lat="44.0803" lon="3.00447">
        <ele>479.7</ele>
        <time>2018-05-19T09:50:10Z</time>
      </trkpt>
      <trkpt lat="44.08031" lon="3.00452">
        <ele>479.9</ele>
        <time>2018-05-19T09:50:12Z</time>
      </trkpt>
      <trkpt lat="44.08031" lon="3.00456">
        <ele>482.9</ele>
        <time>2018-05-19T09:50:14Z</time>
      </trkpt>
      <trkpt lat="44.08034" lon="3.0046">
        <ele>482.9</ele>
        <time>2018-05-19T09:50:17Z</time>
      </trkpt>
      <trkpt lat="44.08037" lon="3.00461">
        <ele>482.9</ele>
        <time>2018-05-19T09:50:19Z</time>
      </trkpt>
      <trkpt lat="44.08039" lon="3.00463">
        <ele>482.9</ele>
        <time>2018-05-19T09:50:21Z</time>
      </trkpt>
      <trkpt lat="44.08042" lon="3.00464">
        <ele>482.9</ele>
        <time>2018-05-19T09:50:23Z</time>
      </trkpt>
      <trkpt lat="44.08044" lon="3.00465">
        <ele>482.9</ele>
        <time>2018-05-19T09:50:25Z</time>
      </trkpt>
      <trkpt lat="44.08048" lon="3.00466">
        <ele>482.8</ele>
        <time>2018-05-19T09:50:27Z</time>
      </trkpt>
      <trkpt lat="44.08052" lon="3.00466">
        <ele>482.8</ele>
        <time>2018-05-19T09:50:29Z</time>
      </trkpt>
      <trkpt lat="44.08056" lon="3.00467">
        <ele>482.8</ele>
        <time>2018-05-19T09:50:31Z</time>
      </trkpt>
      <trkpt lat="44.08059" lon="3.00467">
        <ele>482.8</ele>
        <time>2018-05-19T09:50:33Z</time>
      </trkpt>
      <trkpt lat="44.08063" lon="3.00468">
        <ele>482.8</ele>
        <time>2018-05-19T09:50:36Z</time>
      </trkpt>
      <trkpt lat="44.08066" lon="3.0047">
        <ele>482.7</ele>
        <time>2018-05-19T09:50:39Z</time>
      </trkpt>
      <trkpt lat="44.08065" lon="3.00466">
        <ele>482.7</ele>
        <time>2018-05-19T09:51:08Z</time>
      </trkpt>
      <trkpt lat="44.08068" lon="3.00466">
        <ele>482.6</ele>
        <time>2018-05-19T09:51:42Z</time>
      </trkpt>
      <trkpt lat="44.08069" lon="3.0047">
        <ele>482.6</ele>
        <time>2018-05-19T09:51:54Z</time>
      </trkpt>
      <trkpt lat="44.08071" lon="3.00472">
        <ele>482.5</ele>
        <time>2018-05-19T09:55:10Z</time>
      </trkpt>
      <trkpt lat="44.08073" lon="3.00475">
        <ele>482.5</ele>
        <time>2018-05-19T09:55:12Z</time>
      </trkpt>
      <trkpt lat="44.08076" lon="3.00479">
        <ele>482.4</ele>
        <time>2018-05-19T09:55:14Z</time>
      </trkpt>
      <trkpt lat="44.0808" lon="3.00482">
        <ele>482.1</ele>
        <time>2018-05-19T09:55:16Z</time>
      </trkpt>
      <trkpt lat="44.08085" lon="3.00485">
        <ele>481.7</ele>
        <time>2018-05-19T09:55:18Z</time>
      </trkpt>
      <trkpt lat="44.08089" lon="3.00485">
        <ele>481.5</ele>
        <time>2018-05-19T09:55:19Z</time>
      </trkpt>
      <trkpt lat="44.08092" lon="3.00486">
        <ele>481.3</ele>
        <time>2018-05-19T09:55:20Z</time>
      </trkpt>
      <trkpt lat="44.08096" lon="3.00487">
        <ele>481.1</ele>
        <time>2018-05-19T09:55:21Z</time>
      </trkpt>
      <trkpt lat="44.081" lon="3.00488">
        <ele>480.9</ele>
        <time>2018-05-19T09:55:22Z</time>
      </trkpt>
      <trkpt lat="44.08104" lon="3.00489">
        <ele>480.8</ele>
        <time>2018-05-19T09:55:23Z</time>
      </trkpt>
      <trkpt lat="44.08109" lon="3.0049">
        <ele>480.7</ele>
        <time>2018-05-19T09:55:24Z</time>
      </trkpt>
      <trkpt lat="44.08113" lon="3.0049">
        <ele>480.5</ele>
        <time>2018-05-19T09:55:25Z</time>
      </trkpt>
      <trkpt lat="44.08117" lon="3.00491">
        <ele>480.4</ele>
        <time>2018-05-19T09:55:26Z</time>
      </trkpt>
      <trkpt lat="44.08121" lon="3.00491">
        <ele>480.3</ele>
        <time>2018-05-19T09:55:27Z</time>
      </trkpt>
      <trkpt lat="44.08125" lon="3.0049">
        <ele>480.2</ele>
        <time>2018-05-19T09:55:28Z</time>
      </trkpt>
      <trkpt lat="44.08133" lon="3.00488">
        <ele>479.8</ele>
        <time>2018-05-19T09:55:29Z</time>
      </trkpt>
      <trkpt lat="44.0814" lon="3.00489">
        <ele>479.5</ele>
        <time>2018-05-19T09:55:30Z</time>
      </trkpt>
      <trkpt lat="44.08146" lon="3.0049">
        <ele>479.2</ele>
        <time>2018-05-19T09:55:31Z</time>
      </trkpt>
      <trkpt lat="44.08153" lon="3.0049">
        <ele>478.8</ele>
        <time>2018-05-19T09:55:32Z</time>
      </trkpt>
      <trkpt lat="44.0816" lon="3.0049">
        <ele>478.4</ele>
        <time>2018-05-19T09:55:33Z</time>
      </trkpt>
      <trkpt lat="44.08168" lon="3.00489">
        <ele>477.9</ele>
        <time>2018-05-19T09:55:34Z</time>
      </trkpt>
      <trkpt lat="44.08177" lon="3.0049">
        <ele>477.4</ele>
        <time>2018-05-19T09:55:35Z</time>
      </trkpt>
      <trkpt lat="44.08186" lon="3.00491">
        <ele>476.9</ele>
        <time>2018-05-19T09:55:36Z</time>
      </trkpt>
      <trkpt lat="44.08195" lon="3.00491">
        <ele>476.3</ele>
        <time>2018-05-19T09:55:37Z</time>
      </trkpt>
      <trkpt lat="44.08205" lon="3.00491">
        <ele>475.7</ele>
        <time>2018-05-19T09:55:38Z</time>
      </trkpt>
      <trkpt lat="44.08216" lon="3.00492">
        <ele>474.9</ele>
        <time>2018-05-19T09:55:39Z</time>
      </trkpt>
      <trkpt lat="44.08224" lon="3.00493">
        <ele>474.3</ele>
        <time>2018-05-19T09:55:40Z</time>
      </trkpt>
      <trkpt lat="44.08232" lon="3.00495">
        <ele>473.8</ele>
        <time>2018-05-19T09:55:41Z</time>
      </trkpt>
      <trkpt lat="44.0824" lon="3.00496">
        <ele>473.2</ele>
        <time>2018-05-19T09:55:42Z</time>
      </trkpt>
      <trkpt lat="44.0825" lon="3.00496">
        <ele>472.6</ele>
        <time>2018-05-19T09:55:43Z</time>
      </trkpt>
      <trkpt lat="44.08258" lon="3.00498">
        <ele>472</ele>
        <time>2018-05-19T09:55:44Z</time>
      </trkpt>
      <trkpt lat="44.08267" lon="3.005">
        <ele>471.5</ele>
        <time>2018-05-19T09:55:45Z</time>
      </trkpt>
      <trkpt lat="44.08274" lon="3.005">
        <ele>471</ele>
        <time>2018-05-19T09:55:46Z</time>
      </trkpt>
      <trkpt lat="44.08282" lon="3.005">
        <ele>470.6</ele>
        <time>2018-05-19T09:55:47Z</time>
      </trkpt>
      <trkpt lat="44.08288" lon="3.00494">
        <ele>470.4</ele>
        <time>2018-05-19T09:55:48Z</time>
      </trkpt>
      <trkpt lat="44.08293" lon="3.00489">
        <ele>470.2</ele>
        <time>2018-05-19T09:55:49Z</time>
      </trkpt>
      <trkpt lat="44.08298" lon="3.00483">
        <ele>470.1</ele>
        <time>2018-05-19T09:55:50Z</time>
      </trkpt>
      <trkpt lat="44.08301" lon="3.00476">
        <ele>469.9</ele>
        <time>2018-05-19T09:55:51Z</time>
      </trkpt>
      <trkpt lat="44.08304" lon="3.00469">
        <ele>469.7</ele>
        <time>2018-05-19T09:55:52Z</time>
      </trkpt>
      <trkpt lat="44.08308" lon="3.00462">
        <ele>469.5</ele>
        <time>2018-05-19T09:55:53Z</time>
      </trkpt>
      <trkpt lat="44.08312" lon="3.00455">
        <ele>469.4</ele>
        <time>2018-05-19T09:55:54Z</time>
      </trkpt>
      <trkpt lat="44.08314" lon="3.00448">
        <ele>469.2</ele>
        <time>2018-05-19T09:55:55Z</time>
      </trkpt>
      <trkpt lat="44.08316" lon="3.0044">
        <ele>469</ele>
        <time>2018-05-19T09:55:56Z</time>
      </trkpt>
      <trkpt lat="44.08317" lon="3.00433">
        <ele>468.8</ele>
        <time>2018-05-19T09:55:57Z</time>
      </trkpt>
      <trkpt lat="44.08318" lon="3.00425">
        <ele>468.6</ele>
        <time>2018-05-19T09:55:58Z</time>
      </trkpt>
      <trkpt lat="44.08319" lon="3.00418">
        <ele>468.5</ele>
        <time>2018-05-19T09:55:59Z</time>
      </trkpt>
      <trkpt lat="44.08319" lon="3.00412">
        <ele>468.4</ele>
        <time>2018-05-19T09:56:00Z</time>
      </trkpt>
      <trkpt lat="44.0832" lon="3.00402">
        <ele>468.2</ele>
        <time>2018-05-19T09:56:01Z</time>
      </trkpt>
      <trkpt lat="44.08321" lon="3.00395">
        <ele>468.1</ele>
        <time>2018-05-19T09:56:02Z</time>
      </trkpt>
      <trkpt lat="44.08321" lon="3.00388">
        <ele>468</ele>
        <time>2018-05-19T09:56:03Z</time>
      </trkpt>
      <trkpt lat="44.08321" lon="3.00382">
        <ele>467.9</ele>
        <time>2018-05-19T09:56:04Z</time>
      </trkpt>
      <trkpt lat="44.08321" lon="3.00377">
        <ele>467.7</ele>
        <time>2018-05-19T09:56:05Z</time>
      </trkpt>
      <trkpt lat="44.08321" lon="3.0037">
        <ele>467.6</ele>
        <time>2018-05-19T09:56:06Z</time>
      </trkpt>
      <trkpt lat="44.08321" lon="3.00363">
        <ele>467.4</ele>
        <time>2018-05-19T09:56:07Z</time>
      </trkpt>
      <trkpt lat="44.08322" lon="3.00356">
        <ele>467.1</ele>
        <time>2018-05-19T09:56:08Z</time>
      </trkpt>
      <trkpt lat="44.08325" lon="3.00346">
        <ele>466.9</ele>
        <time>2018-05-19T09:56:09Z</time>
      </trkpt>
      <trkpt lat="44.08325" lon="3.0034">
        <ele>466.8</ele>
        <time>2018-05-19T09:56:10Z</time>
      </trkpt>
      <trkpt lat="44.08325" lon="3.00334">
        <ele>466.7</ele>
        <time>2018-05-19T09:56:11Z</time>
      </trkpt>
      <trkpt lat="44.08326" lon="3.00329">
        <ele>466.5</ele>
        <time>2018-05-19T09:56:12Z</time>
      </trkpt>
      <trkpt lat="44.08327" lon="3.00322">
        <ele>466.2</ele>
        <time>2018-05-19T09:56:13Z</time>
      </trkpt>
      <trkpt lat="44.08328" lon="3.00316">
        <ele>466.1</ele>
        <time>2018-05-19T09:56:14Z</time>
      </trkpt>
      <trkpt lat="44.08329" lon="3.00309">
        <ele>465.9</ele>
        <time>2018-05-19T09:56:15Z</time>
      </trkpt>
      <trkpt lat="44.08329" lon="3.00302">
        <ele>465.7</ele>
        <time>2018-05-19T09:56:16Z</time>
      </trkpt>
      <trkpt lat="44.0833" lon="3.00296">
        <ele>465.3</ele>
        <time>2018-05-19T09:56:17Z</time>
      </trkpt>
      <trkpt lat="44.08331" lon="3.00289">
        <ele>465.1</ele>
        <time>2018-05-19T09:56:18Z</time>
      </trkpt>
      <trkpt lat="44.08332" lon="3.00284">
        <ele>464.9</ele>
        <time>2018-05-19T09:56:19Z</time>
      </trkpt>
      <trkpt lat="44.08333" lon="3.00277">
        <ele>464.7</ele>
        <time>2018-05-19T09:56:20Z</time>
      </trkpt>
      <trkpt lat="44.08335" lon="3.00271">
        <ele>464.5</ele>
        <time>2018-05-19T09:56:21Z</time>
      </trkpt>
      <trkpt lat="44.08337" lon="3.00267">
        <ele>464.3</ele>
        <time>2018-05-19T09:56:22Z</time>
      </trkpt>
      <trkpt lat="44.08339" lon="3.00261">
        <ele>464.1</ele>
        <time>2018-05-19T09:56:23Z</time>
      </trkpt>
      <trkpt lat="44.0834" lon="3.00256">
        <ele>463.8</ele>
        <time>2018-05-19T09:56:24Z</time>
      </trkpt>
      <trkpt lat="44.0834" lon="3.0025">
        <ele>463.6</ele>
        <time>2018-05-19T09:56:25Z</time>
      </trkpt>
      <trkpt lat="44.08341" lon="3.00245">
        <ele>463.5</ele>
        <time>2018-05-19T09:56:26Z</time>
      </trkpt>
      <trkpt lat="44.08343" lon="3.0024">
        <ele>463.3</ele>
        <time>2018-05-19T09:56:27Z</time>
      </trkpt>
      <trkpt lat="44.08343" lon="3.00234">
        <ele>463.1</ele>
        <time>2018-05-19T09:56:28Z</time>
      </trkpt>
      <trkpt lat="44.08345" lon="3.00227">
        <ele>462.9</ele>
        <time>2018-05-19T09:56:29Z</time>
      </trkpt>
      <trkpt lat="44.08344" lon="3.0022">
        <ele>462.6</ele>
        <time>2018-05-19T09:56:30Z</time>
      </trkpt>
      <trkpt lat="44.08343" lon="3.00212">
        <ele>462.2</ele>
        <time>2018-05-19T09:56:31Z</time>
      </trkpt>
      <trkpt lat="44.0834" lon="3.00203">
        <ele>461.9</ele>
        <time>2018-05-19T09:56:32Z</time>
      </trkpt>
      <trkpt lat="44.08338" lon="3.00195">
        <ele>461.7</ele>
        <time>2018-05-19T09:56:33Z</time>
      </trkpt>
      <trkpt lat="44.08335" lon="3.00188">
        <ele>461.5</ele>
        <time>2018-05-19T09:56:34Z</time>
      </trkpt>
      <trkpt lat="44.08334" lon="3.0018">
        <ele>461.2</ele>
        <time>2018-05-19T09:56:35Z</time>
      </trkpt>
      <trkpt lat="44.08333" lon="3.00173">
        <ele>460.8</ele>
        <time>2018-05-19T09:56:36Z</time>
      </trkpt>
      <trkpt lat="44.08333" lon="3.00166">
        <ele>460.5</ele>
        <time>2018-05-19T09:56:37Z</time>
      </trkpt>
      <trkpt lat="44.08332" lon="3.00161">
        <ele>460.4</ele>
        <time>2018-05-19T09:56:38Z</time>
      </trkpt>
      <trkpt lat="44.0833" lon="3.00156">
        <ele>460.2</ele>
        <time>2018-05-19T09:56:39Z</time>
      </trkpt>
      <trkpt lat="44.08327" lon="3.00152">
        <ele>459.9</ele>
        <time>2018-05-19T09:56:40Z</time>
      </trkpt>
      <trkpt lat="44.08322" lon="3.00149">
        <ele>459.8</ele>
        <time>2018-05-19T09:56:41Z</time>
      </trkpt>
      <trkpt lat="44.08315" lon="3.00147">
        <ele>459.7</ele>
        <time>2018-05-19T09:56:42Z</time>
      </trkpt>
      <trkpt lat="44.08307" lon="3.00144">
        <ele>459.5</ele>
        <time>2018-05-19T09:56:43Z</time>
      </trkpt>
      <trkpt lat="44.08301" lon="3.0014">
        <ele>459.2</ele>
        <time>2018-05-19T09:56:44Z</time>
      </trkpt>
      <trkpt lat="44.08293" lon="3.00138">
        <ele>458.7</ele>
        <time>2018-05-19T09:56:45Z</time>
      </trkpt>
      <trkpt lat="44.08283" lon="3.00133">
        <ele>457.8</ele>
        <time>2018-05-19T09:56:46Z</time>
      </trkpt>
      <trkpt lat="44.08275" lon="3.00128">
        <ele>457</ele>
        <time>2018-05-19T09:56:47Z</time>
      </trkpt>
      <trkpt lat="44.08268" lon="3.00121">
        <ele>455.9</ele>
        <time>2018-05-19T09:56:48Z</time>
      </trkpt>
      <trkpt lat="44.0826" lon="3.00115">
        <ele>454.6</ele>
        <time>2018-05-19T09:56:49Z</time>
      </trkpt>
      <trkpt lat="44.08252" lon="3.00106">
        <ele>452.9</ele>
        <time>2018-05-19T09:56:50Z</time>
      </trkpt>
      <trkpt lat="44.08244" lon="3.00098">
        <ele>451.3</ele>
        <time>2018-05-19T09:56:51Z</time>
      </trkpt>
      <trkpt lat="44.08236" lon="3.00091">
        <ele>449.8</ele>
        <time>2018-05-19T09:56:52Z</time>
      </trkpt>
      <trkpt lat="44.08226" lon="3.00083">
        <ele>448</ele>
        <time>2018-05-19T09:56:53Z</time>
      </trkpt>
      <trkpt lat="44.08218" lon="3.00073">
        <ele>446</ele>
        <time>2018-05-19T09:56:54Z</time>
      </trkpt>
      <trkpt lat="44.0821" lon="3.00066">
        <ele>443.4</ele>
        <time>2018-05-19T09:56:55Z</time>
      </trkpt>
      <trkpt lat="44.08201" lon="3.00058">
        <ele>441.5</ele>
        <time>2018-05-19T09:56:56Z</time>
      </trkpt>
      <trkpt lat="44.08192" lon="3.00051">
        <ele>439.3</ele>
        <time>2018-05-19T09:56:57Z</time>
      </trkpt>
      <trkpt lat="44.08181" lon="3.00043">
        <ele>436.7</ele>
        <time>2018-05-19T09:56:58Z</time>
      </trkpt>
      <trkpt lat="44.08172" lon="3.00036">
        <ele>435.5</ele>
        <time>2018-05-19T09:56:59Z</time>
      </trkpt>
      <trkpt lat="44.08165" lon="3.00029">
        <ele>434.8</ele>
        <time>2018-05-19T09:57:00Z</time>
      </trkpt>
      <trkpt lat="44.0816" lon="3.00017">
        <ele>434.2</ele>
        <time>2018-05-19T09:57:01Z</time>
      </trkpt>
      <trkpt lat="44.08157" lon="3.00006">
        <ele>433.6</ele>
        <time>2018-05-19T09:57:02Z</time>
      </trkpt>
      <trkpt lat="44.08156" lon="3">
        <ele>433.3</ele>
        <time>2018-05-19T09:57:03Z</time>
      </trkpt>
      <trkpt lat="44.08155" lon="2.99996">
        <ele>433.2</ele>
        <time>2018-05-19T09:57:04Z</time>
      </trkpt>
      <trkpt lat="44.08161" lon="2.99994">
        <ele>432.9</ele>
        <time>2018-05-19T09:57:06Z</time>
      </trkpt>
      <trkpt lat="44.08163" lon="2.99992">
        <ele>432.8</ele>
        <time>2018-05-19T09:57:08Z</time>
      </trkpt>
      <trkpt lat="44.08164" lon="2.99988">
        <ele>432.6</ele>
        <time>2018-05-19T09:57:09Z</time>
      </trkpt>
      <trkpt lat="44.08166" lon="2.99983">
        <ele>432.4</ele>
        <time>2018-05-19T09:57:11Z</time>
      </trkpt>
      <trkpt lat="44.08165" lon="2.99979">
        <ele>432.3</ele>
        <time>2018-05-19T09:57:15Z</time>
      </trkpt>
      <trkpt lat="44.08164" lon="2.99975">
        <ele>432.1</ele>
        <time>2018-05-19T09:57:21Z</time>
      </trkpt>
      <trkpt lat="44.08162" lon="2.9997">
        <ele>431.9</ele>
        <time>2018-05-19T09:57:24Z</time>
      </trkpt>
      <trkpt lat="44.08159" lon="2.99966">
        <ele>431.8</ele>
        <time>2018-05-19T09:57:26Z</time>
      </trkpt>
      <trkpt lat="44.08158" lon="2.99963">
        <ele>431.7</ele>
        <time>2018-05-19T09:57:27Z</time>
      </trkpt>
      <trkpt lat="44.08156" lon="2.99959">
        <ele>431.5</ele>
        <time>2018-05-19T09:57:28Z</time>
      </trkpt>
      <trkpt lat="44.08154" lon="2.99955">
        <ele>431.3</ele>
        <time>2018-05-19T09:57:29Z</time>
      </trkpt>
      <trkpt lat="44.08153" lon="2.9995">
        <ele>431.1</ele>
        <time>2018-05-19T09:57:30Z</time>
      </trkpt>
      <trkpt lat="44.08152" lon="2.99946">
        <ele>430.9</ele>
        <time>2018-05-19T09:57:31Z</time>
      </trkpt>
      <trkpt lat="44.08152" lon="2.99942">
        <ele>430.7</ele>
        <time>2018-05-19T09:57:32Z</time>
      </trkpt>
      <trkpt lat="44.08153" lon="2.99937">
        <ele>430.5</ele>
        <time>2018-05-19T09:57:33Z</time>
      </trkpt>
      <trkpt lat="44.08154" lon="2.99932">
        <ele>430.3</ele>
        <time>2018-05-19T09:57:34Z</time>
      </trkpt>
      <trkpt lat="44.08155" lon="2.99928">
        <ele>430.1</ele>
        <time>2018-05-19T09:57:35Z</time>
      </trkpt>
      <trkpt lat="44.08156" lon="2.99924">
        <ele>430</ele>
        <time>2018-05-19T09:57:36Z</time>
      </trkpt>
      <trkpt lat="44.08158" lon="2.99919">
        <ele>429.8</ele>
        <time>2018-05-19T09:57:37Z</time>
      </trkpt>
      <trkpt lat="44.08161" lon="2.99913">
        <ele>429.6</ele>
        <time>2018-05-19T09:57:38Z</time>
      </trkpt>
      <trkpt lat="44.08164" lon="2.99907">
        <ele>429.4</ele>
        <time>2018-05-19T09:57:39Z</time>
      </trkpt>
      <trkpt lat="44.08168" lon="2.999">
        <ele>429.1</ele>
        <time>2018-05-19T09:57:40Z</time>
      </trkpt>
      <trkpt lat="44.08173" lon="2.99894">
        <ele>428.9</ele>
        <time>2018-05-19T09:57:41Z</time>
      </trkpt>
      <trkpt lat="44.08182" lon="2.99881">
        <ele>428.5</ele>
        <time>2018-05-19T09:57:42Z</time>
      </trkpt>
      <trkpt lat="44.08186" lon="2.99875">
        <ele>427.9</ele>
        <time>2018-05-19T09:57:43Z</time>
      </trkpt>
      <trkpt lat="44.08189" lon="2.99867">
        <ele>427.8</ele>
        <time>2018-05-19T09:57:44Z</time>
      </trkpt>
      <trkpt lat="44.08193" lon="2.99859">
        <ele>427.7</ele>
        <time>2018-05-19T09:57:45Z</time>
      </trkpt>
      <trkpt lat="44.08195" lon="2.99852">
        <ele>427.5</ele>
        <time>2018-05-19T09:57:46Z</time>
      </trkpt>
      <trkpt lat="44.08199" lon="2.99844">
        <ele>427.4</ele>
        <time>2018-05-19T09:57:47Z</time>
      </trkpt>
      <trkpt lat="44.08204" lon="2.99839">
        <ele>427.1</ele>
        <time>2018-05-19T09:57:48Z</time>
      </trkpt>
      <trkpt lat="44.08212" lon="2.99835">
        <ele>426.6</ele>
        <time>2018-05-19T09:57:49Z</time>
      </trkpt>
      <trkpt lat="44.08214" lon="2.99828">
        <ele>426.5</ele>
        <time>2018-05-19T09:57:50Z</time>
      </trkpt>
      <trkpt lat="44.08219" lon="2.99822">
        <ele>426</ele>
        <time>2018-05-19T09:57:51Z</time>
      </trkpt>
      <trkpt lat="44.08218" lon="2.99813">
        <ele>425.1</ele>
        <time>2018-05-19T09:57:52Z</time>
      </trkpt>
      <trkpt lat="44.08218" lon="2.99804">
        <ele>424.7</ele>
        <time>2018-05-19T09:57:53Z</time>
      </trkpt>
      <trkpt lat="44.08217" lon="2.99797">
        <ele>424.3</ele>
        <time>2018-05-19T09:57:54Z</time>
      </trkpt>
      <trkpt lat="44.08218" lon="2.9979">
        <ele>423.9</ele>
        <time>2018-05-19T09:57:55Z</time>
      </trkpt>
      <trkpt lat="44.08217" lon="2.99782">
        <ele>423.7</ele>
        <time>2018-05-19T09:57:56Z</time>
      </trkpt>
      <trkpt lat="44.0822" lon="2.99772">
        <ele>423.1</ele>
        <time>2018-05-19T09:57:57Z</time>
      </trkpt>
      <trkpt lat="44.08222" lon="2.99766">
        <ele>422.5</ele>
        <time>2018-05-19T09:57:58Z</time>
      </trkpt>
      <trkpt lat="44.08222" lon="2.99758">
        <ele>421.8</ele>
        <time>2018-05-19T09:57:59Z</time>
      </trkpt>
      <trkpt lat="44.0822" lon="2.99748">
        <ele>421.2</ele>
        <time>2018-05-19T09:58:00Z</time>
      </trkpt>
      <trkpt lat="44.08217" lon="2.99738">
        <ele>420</ele>
        <time>2018-05-19T09:58:01Z</time>
      </trkpt>
      <trkpt lat="44.08216" lon="2.99729">
        <ele>418.5</ele>
        <time>2018-05-19T09:58:02Z</time>
      </trkpt>
      <trkpt lat="44.08214" lon="2.99721">
        <ele>417.7</ele>
        <time>2018-05-19T09:58:03Z</time>
      </trkpt>
      <trkpt lat="44.08212" lon="2.99714">
        <ele>416.5</ele>
        <time>2018-05-19T09:58:04Z</time>
      </trkpt>
      <trkpt lat="44.08211" lon="2.99705">
        <ele>415.2</ele>
        <time>2018-05-19T09:58:05Z</time>
      </trkpt>
      <trkpt lat="44.08213" lon="2.99696">
        <ele>414.3</ele>
        <time>2018-05-19T09:58:06Z</time>
      </trkpt>
      <trkpt lat="44.08212" lon="2.99688">
        <ele>413.3</ele>
        <time>2018-05-19T09:58:07Z</time>
      </trkpt>
      <trkpt lat="44.08211" lon="2.99679">
        <ele>412.5</ele>
        <time>2018-05-19T09:58:08Z</time>
      </trkpt>
      <trkpt lat="44.08213" lon="2.99668">
        <ele>411.3</ele>
        <time>2018-05-19T09:58:09Z</time>
      </trkpt>
      <trkpt lat="44.08213" lon="2.99657">
        <ele>410.4</ele>
        <time>2018-05-19T09:58:10Z</time>
      </trkpt>
      <trkpt lat="44.08215" lon="2.99646">
        <ele>409.5</ele>
        <time>2018-05-19T09:58:11Z</time>
      </trkpt>
      <trkpt lat="44.08216" lon="2.99639">
        <ele>409.2</ele>
        <time>2018-05-19T09:58:12Z</time>
      </trkpt>
      <trkpt lat="44.08219" lon="2.99631">
        <ele>408.9</ele>
        <time>2018-05-19T09:58:13Z</time>
      </trkpt>
      <trkpt lat="44.08221" lon="2.99625">
        <ele>408.9</ele>
        <time>2018-05-19T09:58:14Z</time>
      </trkpt>
      <trkpt lat="44.08222" lon="2.9962">
        <ele>409</ele>
        <time>2018-05-19T09:58:15Z</time>
      </trkpt>
      <trkpt lat="44.08222" lon="2.99615">
        <ele>408.6</ele>
        <time>2018-05-19T09:58:16Z</time>
      </trkpt>
      <trkpt lat="44.08223" lon="2.99609">
        <ele>408</ele>
        <time>2018-05-19T09:58:17Z</time>
      </trkpt>
      <trkpt lat="44.08224" lon="2.99603">
        <ele>407.6</ele>
        <time>2018-05-19T09:58:18Z</time>
      </trkpt>
      <trkpt lat="44.08227" lon="2.99596">
        <ele>406.9</ele>
        <time>2018-05-19T09:58:19Z</time>
      </trkpt>
      <trkpt lat="44.08227" lon="2.9959">
        <ele>406.3</ele>
        <time>2018-05-19T09:58:20Z</time>
      </trkpt>
      <trkpt lat="44.08226" lon="2.99581">
        <ele>405.3</ele>
        <time>2018-05-19T09:58:21Z</time>
      </trkpt>
      <trkpt lat="44.08224" lon="2.99572">
        <ele>404.4</ele>
        <time>2018-05-19T09:58:22Z</time>
      </trkpt>
      <trkpt lat="44.08226" lon="2.99562">
        <ele>403.8</ele>
        <time>2018-05-19T09:58:23Z</time>
      </trkpt>
      <trkpt lat="44.08225" lon="2.99553">
        <ele>403.4</ele>
        <time>2018-05-19T09:58:24Z</time>
      </trkpt>
      <trkpt lat="44.08226" lon="2.99542">
        <ele>402.8</ele>
        <time>2018-05-19T09:58:25Z</time>
      </trkpt>
      <trkpt lat="44.08227" lon="2.99532">
        <ele>402.5</ele>
        <time>2018-05-19T09:58:26Z</time>
      </trkpt>
      <trkpt lat="44.08227" lon="2.99521">
        <ele>402.1</ele>
        <time>2018-05-19T09:58:27Z</time>
      </trkpt>
      <trkpt lat="44.08227" lon="2.9951">
        <ele>401.8</ele>
        <time>2018-05-19T09:58:28Z</time>
      </trkpt>
      <trkpt lat="44.0823" lon="2.99496">
        <ele>401.3</ele>
        <time>2018-05-19T09:58:29Z</time>
      </trkpt>
      <trkpt lat="44.08228" lon="2.99484">
        <ele>400.4</ele>
        <time>2018-05-19T09:58:30Z</time>
      </trkpt>
      <trkpt lat="44.08227" lon="2.9947">
        <ele>399.6</ele>
        <time>2018-05-19T09:58:31Z</time>
      </trkpt>
      <trkpt lat="44.08227" lon="2.99456">
        <ele>398.4</ele>
        <time>2018-05-19T09:58:32Z</time>
      </trkpt>
      <trkpt lat="44.08227" lon="2.99444">
        <ele>397.2</ele>
        <time>2018-05-19T09:58:33Z</time>
      </trkpt>
      <trkpt lat="44.08228" lon="2.99432">
        <ele>396.2</ele>
        <time>2018-05-19T09:58:34Z</time>
      </trkpt>
      <trkpt lat="44.08227" lon="2.9942">
        <ele>395.6</ele>
        <time>2018-05-19T09:58:35Z</time>
      </trkpt>
      <trkpt lat="44.08228" lon="2.99408">
        <ele>394.6</ele>
        <time>2018-05-19T09:58:36Z</time>
      </trkpt>
      <trkpt lat="44.08227" lon="2.99394">
        <ele>393.2</ele>
        <time>2018-05-19T09:58:37Z</time>
      </trkpt>
      <trkpt lat="44.08226" lon="2.99379">
        <ele>391.7</ele>
        <time>2018-05-19T09:58:38Z</time>
      </trkpt>
      <trkpt lat="44.08225" lon="2.99366">
        <ele>390.3</ele>
        <time>2018-05-19T09:58:39Z</time>
      </trkpt>
      <trkpt lat="44.08226" lon="2.99351">
        <ele>389.1</ele>
        <time>2018-05-19T09:58:40Z</time>
      </trkpt>
      <trkpt lat="44.08227" lon="2.99338">
        <ele>387.7</ele>
        <time>2018-05-19T09:58:41Z</time>
      </trkpt>
      <trkpt lat="44.08225" lon="2.99326">
        <ele>386.5</ele>
        <time>2018-05-19T09:58:42Z</time>
      </trkpt>
      <trkpt lat="44.08224" lon="2.99312">
        <ele>385.1</ele>
        <time>2018-05-19T09:58:43Z</time>
      </trkpt>
      <trkpt lat="44.08223" lon="2.99299">
        <ele>383.7</ele>
        <time>2018-05-19T09:58:44Z</time>
      </trkpt>
      <trkpt lat="44.08223" lon="2.99284">
        <ele>382</ele>
        <time>2018-05-19T09:58:45Z</time>
      </trkpt>
      <trkpt lat="44.08223" lon="2.9927">
        <ele>380.6</ele>
        <time>2018-05-19T09:58:46Z</time>
      </trkpt>
      <trkpt lat="44.08222" lon="2.99258">
        <ele>379.3</ele>
        <time>2018-05-19T09:58:47Z</time>
      </trkpt>
      <trkpt lat="44.08219" lon="2.99245">
        <ele>377.8</ele>
        <time>2018-05-19T09:58:48Z</time>
      </trkpt>
      <trkpt lat="44.08214" lon="2.99233">
        <ele>376.7</ele>
        <time>2018-05-19T09:58:49Z</time>
      </trkpt>
      <trkpt lat="44.08211" lon="2.99222">
        <ele>375.8</ele>
        <time>2018-05-19T09:58:50Z</time>
      </trkpt>
      <trkpt lat="44.08209" lon="2.99212">
        <ele>374.8</ele>
        <time>2018-05-19T09:58:51Z</time>
      </trkpt>
      <trkpt lat="44.08205" lon="2.99202">
        <ele>373.8</ele>
        <time>2018-05-19T09:58:52Z</time>
      </trkpt>
      <trkpt lat="44.08203" lon="2.99193">
        <ele>372.6</ele>
        <time>2018-05-19T09:58:53Z</time>
      </trkpt>
      <trkpt lat="44.08202" lon="2.99184">
        <ele>371.2</ele>
        <time>2018-05-19T09:58:54Z</time>
      </trkpt>
      <trkpt lat="44.08199" lon="2.99175">
        <ele>370</ele>
        <time>2018-05-19T09:58:55Z</time>
      </trkpt>
      <trkpt lat="44.08197" lon="2.99167">
        <ele>369.3</ele>
        <time>2018-05-19T09:58:56Z</time>
      </trkpt>
      <trkpt lat="44.08196" lon="2.99159">
        <ele>368.4</ele>
        <time>2018-05-19T09:58:57Z</time>
      </trkpt>
      <trkpt lat="44.08195" lon="2.9915">
        <ele>368</ele>
        <time>2018-05-19T09:58:58Z</time>
      </trkpt>
      <trkpt lat="44.08194" lon="2.99141">
        <ele>367.4</ele>
        <time>2018-05-19T09:58:59Z</time>
      </trkpt>
      <trkpt lat="44.08196" lon="2.99132">
        <ele>366</ele>
        <time>2018-05-19T09:59:00Z</time>
      </trkpt>
      <trkpt lat="44.08196" lon="2.99124">
        <ele>364.8</ele>
        <time>2018-05-19T09:59:01Z</time>
      </trkpt>
      <trkpt lat="44.08194" lon="2.99116">
        <ele>363.9</ele>
        <time>2018-05-19T09:59:02Z</time>
      </trkpt>
      <trkpt lat="44.08194" lon="2.99109">
        <ele>363.2</ele>
        <time>2018-05-19T09:59:03Z</time>
      </trkpt>
      <trkpt lat="44.08194" lon="2.99101">
        <ele>362.9</ele>
        <time>2018-05-19T09:59:04Z</time>
      </trkpt>
      <trkpt lat="44.08193" lon="2.99092">
        <ele>362.1</ele>
        <time>2018-05-19T09:59:05Z</time>
      </trkpt>
      <trkpt lat="44.08191" lon="2.99085">
        <ele>361.1</ele>
        <time>2018-05-19T09:59:06Z</time>
      </trkpt>
      <trkpt lat="44.0819" lon="2.99078">
        <ele>360.4</ele>
        <time>2018-05-19T09:59:07Z</time>
      </trkpt>
      <trkpt lat="44.08189" lon="2.9907">
        <ele>359.8</ele>
        <time>2018-05-19T09:59:08Z</time>
      </trkpt>
      <trkpt lat="44.08189" lon="2.99062">
        <ele>359.4</ele>
        <time>2018-05-19T09:59:09Z</time>
      </trkpt>
      <trkpt lat="44.08192" lon="2.99054">
        <ele>358.3</ele>
        <time>2018-05-19T09:59:10Z</time>
      </trkpt>
      <trkpt lat="44.08197" lon="2.99045">
        <ele>355.9</ele>
        <time>2018-05-19T09:59:11Z</time>
      </trkpt>
      <trkpt lat="44.08203" lon="2.99035">
        <ele>353.6</ele>
        <time>2018-05-19T09:59:12Z</time>
      </trkpt>
      <trkpt lat="44.08208" lon="2.99026">
        <ele>351.8</ele>
        <time>2018-05-19T09:59:13Z</time>
      </trkpt>
      <trkpt lat="44.08211" lon="2.99016">
        <ele>350.3</ele>
        <time>2018-05-19T09:59:14Z</time>
      </trkpt>
      <trkpt lat="44.08212" lon="2.99007">
        <ele>348.8</ele>
        <time>2018-05-19T09:59:15Z</time>
      </trkpt>
      <trkpt lat="44.08211" lon="2.99">
        <ele>348.5</ele>
        <time>2018-05-19T09:59:16Z</time>
      </trkpt>
      <trkpt lat="44.08208" lon="2.98998">
        <ele>348.5</ele>
        <time>2018-05-19T09:59:17Z</time>
      </trkpt>
      <trkpt lat="44.082" lon="2.98995">
        <ele>349.1</ele>
        <time>2018-05-19T09:59:18Z</time>
      </trkpt>
      <trkpt lat="44.08195" lon="2.98996">
        <ele>350.6</ele>
        <time>2018-05-19T09:59:19Z</time>
      </trkpt>
      <trkpt lat="44.08188" lon="2.98998">
        <ele>352.6</ele>
        <time>2018-05-19T09:59:20Z</time>
      </trkpt>
      <trkpt lat="44.08183" lon="2.99001">
        <ele>354.4</ele>
        <time>2018-05-19T09:59:21Z</time>
      </trkpt>
      <trkpt lat="44.08177" lon="2.99004">
        <ele>355.8</ele>
        <time>2018-05-19T09:59:22Z</time>
      </trkpt>
      <trkpt lat="44.08172" lon="2.99006">
        <ele>357.1</ele>
        <time>2018-05-19T09:59:23Z</time>
      </trkpt>
      <trkpt lat="44.08167" lon="2.99007">
        <ele>358.5</ele>
        <time>2018-05-19T09:59:24Z</time>
      </trkpt>
      <trkpt lat="44.08164" lon="2.99005">
        <ele>358.8</ele>
        <time>2018-05-19T09:59:25Z</time>
      </trkpt>
      <trkpt lat="44.0816" lon="2.98996">
        <ele>358.9</ele>
        <time>2018-05-19T09:59:27Z</time>
      </trkpt>
      <trkpt lat="44.08157" lon="2.9899">
        <ele>358.9</ele>
        <time>2018-05-19T09:59:29Z</time>
      </trkpt>
      <trkpt lat="44.08159" lon="2.98984">
        <ele>358.9</ele>
        <time>2018-05-19T09:59:31Z</time>
      </trkpt>
      <trkpt lat="44.08159" lon="2.98979">
        <ele>358.8</ele>
        <time>2018-05-19T09:59:32Z</time>
      </trkpt>
      <trkpt lat="44.08158" lon="2.98973">
        <ele>358.8</ele>
        <time>2018-05-19T09:59:34Z</time>
      </trkpt>
      <trkpt lat="44.08154" lon="2.98972">
        <ele>359.3</ele>
        <time>2018-05-19T09:59:37Z</time>
      </trkpt>
      <trkpt lat="44.08151" lon="2.98971">
        <ele>359.8</ele>
        <time>2018-05-19T09:59:39Z</time>
      </trkpt>
      <trkpt lat="44.08146" lon="2.98969">
        <ele>360.3</ele>
        <time>2018-05-19T09:59:41Z</time>
      </trkpt>
      <trkpt lat="44.08142" lon="2.98967">
        <ele>360.8</ele>
        <time>2018-05-19T09:59:43Z</time>
      </trkpt>
      <trkpt lat="44.08139" lon="2.98965">
        <ele>361.4</ele>
        <time>2018-05-19T09:59:44Z</time>
      </trkpt>
      <trkpt lat="44.08136" lon="2.98963">
        <ele>361.9</ele>
        <time>2018-05-19T09:59:45Z</time>
      </trkpt>
      <trkpt lat="44.08133" lon="2.9896">
        <ele>362.6</ele>
        <time>2018-05-19T09:59:47Z</time>
      </trkpt>
      <trkpt lat="44.08129" lon="2.98957">
        <ele>363</ele>
        <time>2018-05-19T09:59:49Z</time>
      </trkpt>
      <trkpt lat="44.08127" lon="2.98954">
        <ele>363.4</ele>
        <time>2018-05-19T09:59:51Z</time>
      </trkpt>
      <trkpt lat="44.08124" lon="2.9895">
        <ele>364</ele>
        <time>2018-05-19T09:59:53Z</time>
      </trkpt>
      <trkpt lat="44.08121" lon="2.98945">
        <ele>364.6</ele>
        <time>2018-05-19T09:59:55Z</time>
      </trkpt>
      <trkpt lat="44.08119" lon="2.98943">
        <ele>364.9</ele>
        <time>2018-05-19T09:59:56Z</time>
      </trkpt>
      <trkpt lat="44.08116" lon="2.98941">
        <ele>365.2</ele>
        <time>2018-05-19T09:59:57Z</time>
      </trkpt>
      <trkpt lat="44.08113" lon="2.98938">
        <ele>365.4</ele>
        <time>2018-05-19T09:59:58Z</time>
      </trkpt>
      <trkpt lat="44.08111" lon="2.98936">
        <ele>365.7</ele>
        <time>2018-05-19T09:59:59Z</time>
      </trkpt>
      <trkpt lat="44.08109" lon="2.98933">
        <ele>366.1</ele>
        <time>2018-05-19T10:00:00Z</time>
      </trkpt>
      <trkpt lat="44.08106" lon="2.9893">
        <ele>366.5</ele>
        <time>2018-05-19T10:00:01Z</time>
      </trkpt>
      <trkpt lat="44.08104" lon="2.98926">
        <ele>366.7</ele>
        <time>2018-05-19T10:00:02Z</time>
      </trkpt>
      <trkpt lat="44.08101" lon="2.98923">
        <ele>366.8</ele>
        <time>2018-05-19T10:00:03Z</time>
      </trkpt>
      <trkpt lat="44.08098" lon="2.98919">
        <ele>366.9</ele>
        <time>2018-05-19T10:00:04Z</time>
      </trkpt>
      <trkpt lat="44.08095" lon="2.98916">
        <ele>366.9</ele>
        <time>2018-05-19T10:00:05Z</time>
      </trkpt>
      <trkpt lat="44.08092" lon="2.98912">
        <ele>366.9</ele>
        <time>2018-05-19T10:00:06Z</time>
      </trkpt>
      <trkpt lat="44.08089" lon="2.98908">
        <ele>366.7</ele>
        <time>2018-05-19T10:00:07Z</time>
      </trkpt>
      <trkpt lat="44.08086" lon="2.98905">
        <ele>366.6</ele>
        <time>2018-05-19T10:00:08Z</time>
      </trkpt>
      <trkpt lat="44.08083" lon="2.98901">
        <ele>366.5</ele>
        <time>2018-05-19T10:00:09Z</time>
      </trkpt>
      <trkpt lat="44.0808" lon="2.98897">
        <ele>366.3</ele>
        <time>2018-05-19T10:00:10Z</time>
      </trkpt>
      <trkpt lat="44.08077" lon="2.98893">
        <ele>366</ele>
        <time>2018-05-19T10:00:11Z</time>
      </trkpt>
      <trkpt lat="44.08075" lon="2.9889">
        <ele>365.8</ele>
        <time>2018-05-19T10:00:12Z</time>
      </trkpt>
      <trkpt lat="44.08072" lon="2.98887">
        <ele>365.7</ele>
        <time>2018-05-19T10:00:13Z</time>
      </trkpt>
      <trkpt lat="44.08068" lon="2.98883">
        <ele>365.7</ele>
        <time>2018-05-19T10:00:14Z</time>
      </trkpt>
      <trkpt lat="44.08064" lon="2.9888">
        <ele>365.3</ele>
        <time>2018-05-19T10:00:15Z</time>
      </trkpt>
      <trkpt lat="44.08061" lon="2.98877">
        <ele>364.6</ele>
        <time>2018-05-19T10:00:16Z</time>
      </trkpt>
      <trkpt lat="44.08058" lon="2.98873">
        <ele>364.6</ele>
        <time>2018-05-19T10:00:17Z</time>
      </trkpt>
      <trkpt lat="44.08055" lon="2.98868">
        <ele>364.2</ele>
        <time>2018-05-19T10:00:18Z</time>
      </trkpt>
      <trkpt lat="44.08051" lon="2.98865">
        <ele>363.5</ele>
        <time>2018-05-19T10:00:19Z</time>
      </trkpt>
      <trkpt lat="44.08048" lon="2.98862">
        <ele>363.1</ele>
        <time>2018-05-19T10:00:20Z</time>
      </trkpt>
      <trkpt lat="44.08045" lon="2.98858">
        <ele>362.7</ele>
        <time>2018-05-19T10:00:21Z</time>
      </trkpt>
      <trkpt lat="44.08041" lon="2.98855">
        <ele>362.5</ele>
        <time>2018-05-19T10:00:22Z</time>
      </trkpt>
      <trkpt lat="44.08038" lon="2.98852">
        <ele>362.3</ele>
        <time>2018-05-19T10:00:23Z</time>
      </trkpt>
      <trkpt lat="44.08035" lon="2.98849">
        <ele>362.1</ele>
        <time>2018-05-19T10:00:24Z</time>
      </trkpt>
      <trkpt lat="44.08033" lon="2.98846">
        <ele>361.8</ele>
        <time>2018-05-19T10:00:25Z</time>
      </trkpt>
      <trkpt lat="44.08031" lon="2.98843">
        <ele>361.5</ele>
        <time>2018-05-19T10:00:26Z</time>
      </trkpt>
      <trkpt lat="44.08028" lon="2.9884">
        <ele>361.1</ele>
        <time>2018-05-19T10:00:27Z</time>
      </trkpt>
      <trkpt lat="44.08026" lon="2.98837">
        <ele>360.9</ele>
        <time>2018-05-19T10:00:28Z</time>
      </trkpt>
      <trkpt lat="44.08023" lon="2.98833">
        <ele>360.8</ele>
        <time>2018-05-19T10:00:29Z</time>
      </trkpt>
      <trkpt lat="44.08021" lon="2.98831">
        <ele>360.5</ele>
        <time>2018-05-19T10:00:30Z</time>
      </trkpt>
      <trkpt lat="44.08018" lon="2.98827">
        <ele>359.6</ele>
        <time>2018-05-19T10:00:32Z</time>
      </trkpt>
      <trkpt lat="44.08016" lon="2.98823">
        <ele>359</ele>
        <time>2018-05-19T10:00:35Z</time>
      </trkpt>
      <trkpt lat="44.08011" lon="2.98815">
        <ele>358.5</ele>
        <time>2018-05-19T10:05:30Z</time>
      </trkpt>
      <trkpt lat="44.08014" lon="2.9881">
        <ele>358</ele>
        <time>2018-05-19T10:05:32Z</time>
      </trkpt>
      <trkpt lat="44.08014" lon="2.98801">
        <ele>357.7</ele>
        <time>2018-05-19T10:05:33Z</time>
      </trkpt>
      <trkpt lat="44.08015" lon="2.98792">
        <ele>357.4</ele>
        <time>2018-05-19T10:05:34Z</time>
      </trkpt>
      <trkpt lat="44.08016" lon="2.98782">
        <ele>357</ele>
        <time>2018-05-19T10:05:35Z</time>
      </trkpt>
      <trkpt lat="44.08018" lon="2.98771">
        <ele>356.5</ele>
        <time>2018-05-19T10:05:36Z</time>
      </trkpt>
      <trkpt lat="44.0802" lon="2.9876">
        <ele>355.7</ele>
        <time>2018-05-19T10:05:37Z</time>
      </trkpt>
      <trkpt lat="44.08023" lon="2.98748">
        <ele>355.1</ele>
        <time>2018-05-19T10:05:38Z</time>
      </trkpt>
      <trkpt lat="44.08026" lon="2.98736">
        <ele>354.8</ele>
        <time>2018-05-19T10:05:39Z</time>
      </trkpt>
      <trkpt lat="44.08029" lon="2.98724">
        <ele>354.4</ele>
        <time>2018-05-19T10:05:40Z</time>
      </trkpt>
      <trkpt lat="44.08033" lon="2.98712">
        <ele>354.1</ele>
        <time>2018-05-19T10:05:41Z</time>
      </trkpt>
      <trkpt lat="44.08038" lon="2.98699">
        <ele>353.6</ele>
        <time>2018-05-19T10:05:42Z</time>
      </trkpt>
      <trkpt lat="44.08043" lon="2.98687">
        <ele>353.2</ele>
        <time>2018-05-19T10:05:43Z</time>
      </trkpt>
      <trkpt lat="44.08045" lon="2.98677">
        <ele>352.7</ele>
        <time>2018-05-19T10:05:44Z</time>
      </trkpt>
      <trkpt lat="44.08045" lon="2.98667">
        <ele>351.9</ele>
        <time>2018-05-19T10:05:45Z</time>
      </trkpt>
      <trkpt lat="44.08041" lon="2.98657">
        <ele>351.2</ele>
        <time>2018-05-19T10:05:46Z</time>
      </trkpt>
      <trkpt lat="44.08036" lon="2.98649">
        <ele>350.4</ele>
        <time>2018-05-19T10:05:47Z</time>
      </trkpt>
      <trkpt lat="44.08029" lon="2.9864">
        <ele>349.5</ele>
        <time>2018-05-19T10:05:48Z</time>
      </trkpt>
      <trkpt lat="44.08023" lon="2.98631">
        <ele>349</ele>
        <time>2018-05-19T10:05:49Z</time>
      </trkpt>
      <trkpt lat="44.08014" lon="2.98623">
        <ele>348.3</ele>
        <time>2018-05-19T10:05:50Z</time>
      </trkpt>
      <trkpt lat="44.08006" lon="2.98615">
        <ele>347.2</ele>
        <time>2018-05-19T10:05:51Z</time>
      </trkpt>
      <trkpt lat="44.08001" lon="2.98605">
        <ele>346.1</ele>
        <time>2018-05-19T10:05:52Z</time>
      </trkpt>
      <trkpt lat="44.07996" lon="2.98597">
        <ele>344.5</ele>
        <time>2018-05-19T10:05:53Z</time>
      </trkpt>
      <trkpt lat="44.07998" lon="2.98592">
        <ele>343.4</ele>
        <time>2018-05-19T10:05:54Z</time>
      </trkpt>
      <trkpt lat="44.08007" lon="2.98588">
        <ele>341.5</ele>
        <time>2018-05-19T10:05:55Z</time>
      </trkpt>
      <trkpt lat="44.0801" lon="2.98582">
        <ele>341</ele>
        <time>2018-05-19T10:05:56Z</time>
      </trkpt>
      <trkpt lat="44.08015" lon="2.98575">
        <ele>341</ele>
        <time>2018-05-19T10:05:57Z</time>
      </trkpt>
      <trkpt lat="44.08018" lon="2.98569">
        <ele>341</ele>
        <time>2018-05-19T10:05:58Z</time>
      </trkpt>
      <trkpt lat="44.0802" lon="2.98563">
        <ele>341</ele>
        <time>2018-05-19T10:05:59Z</time>
      </trkpt>
      <trkpt lat="44.08022" lon="2.98558">
        <ele>341</ele>
        <time>2018-05-19T10:06:00Z</time>
      </trkpt>
      <trkpt lat="44.08024" lon="2.98554">
        <ele>341</ele>
        <time>2018-05-19T10:06:01Z</time>
      </trkpt>
      <trkpt lat="44.08026" lon="2.9855">
        <ele>341</ele>
        <time>2018-05-19T10:06:02Z</time>
      </trkpt>
      <trkpt lat="44.08027" lon="2.98544">
        <ele>341</ele>
        <time>2018-05-19T10:06:04Z</time>
      </trkpt>
      <trkpt lat="44.08028" lon="2.98539">
        <ele>341</ele>
        <time>2018-05-19T10:06:05Z</time>
      </trkpt>
      <trkpt lat="44.08028" lon="2.98532">
        <ele>341</ele>
        <time>2018-05-19T10:06:07Z</time>
      </trkpt>
      <trkpt lat="44.08029" lon="2.98527">
        <ele>341</ele>
        <time>2018-05-19T10:06:09Z</time>
      </trkpt>
      <trkpt lat="44.08029" lon="2.98522">
        <ele>341</ele>
        <time>2018-05-19T10:06:11Z</time>
      </trkpt>
      <trkpt lat="44.08028" lon="2.98517">
        <ele>341</ele>
        <time>2018-05-19T10:06:14Z</time>
      </trkpt>
      <trkpt lat="44.08029" lon="2.98511">
        <ele>341</ele>
        <time>2018-05-19T10:06:17Z</time>
      </trkpt>
      <trkpt lat="44.0803" lon="2.98504">
        <ele>341</ele>
        <time>2018-05-19T10:06:19Z</time>
      </trkpt>
      <trkpt lat="44.08031" lon="2.985">
        <ele>341.4</ele>
        <time>2018-05-19T10:06:20Z</time>
      </trkpt>
      <trkpt lat="44.08032" lon="2.98496">
        <ele>341.9</ele>
        <time>2018-05-19T10:06:21Z</time>
      </trkpt>
      <trkpt lat="44.08034" lon="2.9849">
        <ele>342.6</ele>
        <time>2018-05-19T10:06:23Z</time>
      </trkpt>
      <trkpt lat="44.08035" lon="2.98485">
        <ele>343.1</ele>
        <time>2018-05-19T10:06:25Z</time>
      </trkpt>
      <trkpt lat="44.08036" lon="2.98481">
        <ele>343.5</ele>
        <time>2018-05-19T10:06:28Z</time>
      </trkpt>
      <trkpt lat="44.08036" lon="2.98478">
        <ele>343.9</ele>
        <time>2018-05-19T10:06:32Z</time>
      </trkpt>
      <trkpt lat="44.08033" lon="2.9848">
        <ele>343.6</ele>
        <time>2018-05-19T10:06:55Z</time>
      </trkpt>
      <trkpt lat="44.08031" lon="2.98482">
        <ele>343.4</ele>
        <time>2018-05-19T10:06:58Z</time>
      </trkpt>
      <trkpt lat="44.08031" lon="2.98486">
        <ele>343.3</ele>
        <time>2018-05-19T10:07:08Z</time>
      </trkpt>
      <trkpt lat="44.08033" lon="2.98487">
        <ele>343.1</ele>
        <time>2018-05-19T10:07:16Z</time>
      </trkpt>
      <trkpt lat="44.08035" lon="2.9849">
        <ele>343</ele>
        <time>2018-05-19T10:07:19Z</time>
      </trkpt>
      <trkpt lat="44.08038" lon="2.98494">
        <ele>342.7</ele>
        <time>2018-05-19T10:07:22Z</time>
      </trkpt>
      <trkpt lat="44.08041" lon="2.98495">
        <ele>342.5</ele>
        <time>2018-05-19T10:07:25Z</time>
      </trkpt>
      <trkpt lat="44.08044" lon="2.98497">
        <ele>342.4</ele>
        <time>2018-05-19T10:07:27Z</time>
      </trkpt>
      <trkpt lat="44.08048" lon="2.98499">
        <ele>342.1</ele>
        <time>2018-05-19T10:07:30Z</time>
      </trkpt>
      <trkpt lat="44.08053" lon="2.98502">
        <ele>341.6</ele>
        <time>2018-05-19T10:07:32Z</time>
      </trkpt>
      <trkpt lat="44.08057" lon="2.98504">
        <ele>340.9</ele>
        <time>2018-05-19T10:07:34Z</time>
      </trkpt>
      <trkpt lat="44.08062" lon="2.98508">
        <ele>340.2</ele>
        <time>2018-05-19T10:07:36Z</time>
      </trkpt>
      <trkpt lat="44.08064" lon="2.9851">
        <ele>340.2</ele>
        <time>2018-05-19T10:07:37Z</time>
      </trkpt>
      <trkpt lat="44.08067" lon="2.98512">
        <ele>339.8</ele>
        <time>2018-05-19T10:07:38Z</time>
      </trkpt>
      <trkpt lat="44.08072" lon="2.98514">
        <ele>339.6</ele>
        <time>2018-05-19T10:07:40Z</time>
      </trkpt>
      <trkpt lat="44.08075" lon="2.98516">
        <ele>339.3</ele>
        <time>2018-05-19T10:07:41Z</time>
      </trkpt>
      <trkpt lat="44.08078" lon="2.98517">
        <ele>339.2</ele>
        <time>2018-05-19T10:07:42Z</time>
      </trkpt>
      <trkpt lat="44.08081" lon="2.98519">
        <ele>339.1</ele>
        <time>2018-05-19T10:07:43Z</time>
      </trkpt>
      <trkpt lat="44.08084" lon="2.9852">
        <ele>338.9</ele>
        <time>2018-05-19T10:07:44Z</time>
      </trkpt>
      <trkpt lat="44.08087" lon="2.98523">
        <ele>338.9</ele>
        <time>2018-05-19T10:07:45Z</time>
      </trkpt>
      <trkpt lat="44.0809" lon="2.98525">
        <ele>338.8</ele>
        <time>2018-05-19T10:07:46Z</time>
      </trkpt>
      <trkpt lat="44.08093" lon="2.98528">
        <ele>338.7</ele>
        <time>2018-05-19T10:07:47Z</time>
      </trkpt>
      <trkpt lat="44.08096" lon="2.9853">
        <ele>338.7</ele>
        <time>2018-05-19T10:07:48Z</time>
      </trkpt>
      <trkpt lat="44.08098" lon="2.98532">
        <ele>338.6</ele>
        <time>2018-05-19T10:07:49Z</time>
      </trkpt>
      <trkpt lat="44.08101" lon="2.98535">
        <ele>338.6</ele>
        <time>2018-05-19T10:07:50Z</time>
      </trkpt>
      <trkpt lat="44.08104" lon="2.98537">
        <ele>338.6</ele>
        <time>2018-05-19T10:07:51Z</time>
      </trkpt>
      <trkpt lat="44.08106" lon="2.98539">
        <ele>338.6</ele>
        <time>2018-05-19T10:07:52Z</time>
      </trkpt>
      <trkpt lat="44.08112" lon="2.98541">
        <ele>338.6</ele>
        <time>2018-05-19T10:07:54Z</time>
      </trkpt>
      <trkpt lat="44.08115" lon="2.98543">
        <ele>338.6</ele>
        <time>2018-05-19T10:07:55Z</time>
      </trkpt>
      <trkpt lat="44.08118" lon="2.98544">
        <ele>338.6</ele>
        <time>2018-05-19T10:07:56Z</time>
      </trkpt>
      <trkpt lat="44.08121" lon="2.98546">
        <ele>338.6</ele>
        <time>2018-05-19T10:07:57Z</time>
      </trkpt>
      <trkpt lat="44.08124" lon="2.98548">
        <ele>338.6</ele>
        <time>2018-05-19T10:07:58Z</time>
      </trkpt>
      <trkpt lat="44.08127" lon="2.9855">
        <ele>338.6</ele>
        <time>2018-05-19T10:07:59Z</time>
      </trkpt>
      <trkpt lat="44.08131" lon="2.98552">
        <ele>338.6</ele>
        <time>2018-05-19T10:08:00Z</time>
      </trkpt>
      <trkpt lat="44.08135" lon="2.98554">
        <ele>338.6</ele>
        <time>2018-05-19T10:08:01Z</time>
      </trkpt>
      <trkpt lat="44.08138" lon="2.98557">
        <ele>338.6</ele>
        <time>2018-05-19T10:08:02Z</time>
      </trkpt>
      <trkpt lat="44.08142" lon="2.9856">
        <ele>338.6</ele>
        <time>2018-05-19T10:08:03Z</time>
      </trkpt>
      <trkpt lat="44.08146" lon="2.98563">
        <ele>338.6</ele>
        <time>2018-05-19T10:08:04Z</time>
      </trkpt>
      <trkpt lat="44.0815" lon="2.98565">
        <ele>338.6</ele>
        <time>2018-05-19T10:08:05Z</time>
      </trkpt>
      <trkpt lat="44.08154" lon="2.98567">
        <ele>338.5</ele>
        <time>2018-05-19T10:08:06Z</time>
      </trkpt>
      <trkpt lat="44.08158" lon="2.9857">
        <ele>338.4</ele>
        <time>2018-05-19T10:08:07Z</time>
      </trkpt>
      <trkpt lat="44.08161" lon="2.98572">
        <ele>338.4</ele>
        <time>2018-05-19T10:08:08Z</time>
      </trkpt>
      <trkpt lat="44.08165" lon="2.98575">
        <ele>338.3</ele>
        <time>2018-05-19T10:08:09Z</time>
      </trkpt>
      <trkpt lat="44.08168" lon="2.98578">
        <ele>338.2</ele>
        <time>2018-05-19T10:08:10Z</time>
      </trkpt>
      <trkpt lat="44.08172" lon="2.9858">
        <ele>338.1</ele>
        <time>2018-05-19T10:08:11Z</time>
      </trkpt>
      <trkpt lat="44.08175" lon="2.98582">
        <ele>338</ele>
        <time>2018-05-19T10:08:12Z</time>
      </trkpt>
      <trkpt lat="44.08179" lon="2.98584">
        <ele>337.9</ele>
        <time>2018-05-19T10:08:13Z</time>
      </trkpt>
      <trkpt lat="44.08182" lon="2.98586">
        <ele>337.8</ele>
        <time>2018-05-19T10:08:14Z</time>
      </trkpt>
      <trkpt lat="44.08185" lon="2.98589">
        <ele>337.7</ele>
        <time>2018-05-19T10:08:15Z</time>
      </trkpt>
      <trkpt lat="44.08188" lon="2.98591">
        <ele>337.6</ele>
        <time>2018-05-19T10:08:16Z</time>
      </trkpt>
      <trkpt lat="44.08191" lon="2.98593">
        <ele>337.5</ele>
        <time>2018-05-19T10:08:17Z</time>
      </trkpt>
      <trkpt lat="44.08195" lon="2.98595">
        <ele>337.3</ele>
        <time>2018-05-19T10:08:18Z</time>
      </trkpt>
      <trkpt lat="44.08198" lon="2.98597">
        <ele>337.2</ele>
        <time>2018-05-19T10:08:19Z</time>
      </trkpt>
      <trkpt lat="44.08202" lon="2.986">
        <ele>337.1</ele>
        <time>2018-05-19T10:08:20Z</time>
      </trkpt>
      <trkpt lat="44.08205" lon="2.98602">
        <ele>336.9</ele>
        <time>2018-05-19T10:08:21Z</time>
      </trkpt>
      <trkpt lat="44.08209" lon="2.98604">
        <ele>336.7</ele>
        <time>2018-05-19T10:08:22Z</time>
      </trkpt>
      <trkpt lat="44.08212" lon="2.98607">
        <ele>336.5</ele>
        <time>2018-05-19T10:08:23Z</time>
      </trkpt>
      <trkpt lat="44.08215" lon="2.98609">
        <ele>336.2</ele>
        <time>2018-05-19T10:08:24Z</time>
      </trkpt>
      <trkpt lat="44.08218" lon="2.98611">
        <ele>335.9</ele>
        <time>2018-05-19T10:08:25Z</time>
      </trkpt>
      <trkpt lat="44.08221" lon="2.98613">
        <ele>335.7</ele>
        <time>2018-05-19T10:08:26Z</time>
      </trkpt>
      <trkpt lat="44.08224" lon="2.98615">
        <ele>335.4</ele>
        <time>2018-05-19T10:08:27Z</time>
      </trkpt>
      <trkpt lat="44.08227" lon="2.98616">
        <ele>335.1</ele>
        <time>2018-05-19T10:08:28Z</time>
      </trkpt>
      <trkpt lat="44.0823" lon="2.98618">
        <ele>334.9</ele>
        <time>2018-05-19T10:08:29Z</time>
      </trkpt>
      <trkpt lat="44.08232" lon="2.98619">
        <ele>334.7</ele>
        <time>2018-05-19T10:08:30Z</time>
      </trkpt>
      <trkpt lat="44.08235" lon="2.9862">
        <ele>334.5</ele>
        <time>2018-05-19T10:08:31Z</time>
      </trkpt>
      <trkpt lat="44.08239" lon="2.98622">
        <ele>334.4</ele>
        <time>2018-05-19T10:08:33Z</time>
      </trkpt>
      <trkpt lat="44.08243" lon="2.98624">
        <ele>334.3</ele>
        <time>2018-05-19T10:08:35Z</time>
      </trkpt>
      <trkpt lat="44.08247" lon="2.98626">
        <ele>334.3</ele>
        <time>2018-05-19T10:08:36Z</time>
      </trkpt>
      <trkpt lat="44.0825" lon="2.98629">
        <ele>334.4</ele>
        <time>2018-05-19T10:08:37Z</time>
      </trkpt>
      <trkpt lat="44.08254" lon="2.98631">
        <ele>334.4</ele>
        <time>2018-05-19T10:08:38Z</time>
      </trkpt>
      <trkpt lat="44.08258" lon="2.98634">
        <ele>334.4</ele>
        <time>2018-05-19T10:08:39Z</time>
      </trkpt>
      <trkpt lat="44.08262" lon="2.98637">
        <ele>334.4</ele>
        <time>2018-05-19T10:08:40Z</time>
      </trkpt>
      <trkpt lat="44.08266" lon="2.98639">
        <ele>334.1</ele>
        <time>2018-05-19T10:08:41Z</time>
      </trkpt>
      <trkpt lat="44.08269" lon="2.98642">
        <ele>333.9</ele>
        <time>2018-05-19T10:08:42Z</time>
      </trkpt>
      <trkpt lat="44.08272" lon="2.98644">
        <ele>333.8</ele>
        <time>2018-05-19T10:08:43Z</time>
      </trkpt>
      <trkpt lat="44.08275" lon="2.98646">
        <ele>333.7</ele>
        <time>2018-05-19T10:08:44Z</time>
      </trkpt>
      <trkpt lat="44.08278" lon="2.98648">
        <ele>333.6</ele>
        <time>2018-05-19T10:08:45Z</time>
      </trkpt>
      <trkpt lat="44.08282" lon="2.9865">
        <ele>333.6</ele>
        <time>2018-05-19T10:08:47Z</time>
      </trkpt>
      <trkpt lat="44.08286" lon="2.98651">
        <ele>333.6</ele>
        <time>2018-05-19T10:08:49Z</time>
      </trkpt>
      <trkpt lat="44.0829" lon="2.98653">
        <ele>334</ele>
        <time>2018-05-19T10:08:50Z</time>
      </trkpt>
      <trkpt lat="44.08293" lon="2.98655">
        <ele>334.4</ele>
        <time>2018-05-19T10:08:51Z</time>
      </trkpt>
      <trkpt lat="44.08297" lon="2.98657">
        <ele>334.8</ele>
        <time>2018-05-19T10:08:52Z</time>
      </trkpt>
      <trkpt lat="44.083" lon="2.98659">
        <ele>335.4</ele>
        <time>2018-05-19T10:08:53Z</time>
      </trkpt>
      <trkpt lat="44.08304" lon="2.98661">
        <ele>336.1</ele>
        <time>2018-05-19T10:08:54Z</time>
      </trkpt>
      <trkpt lat="44.08307" lon="2.98663">
        <ele>336.8</ele>
        <time>2018-05-19T10:08:55Z</time>
      </trkpt>
      <trkpt lat="44.0831" lon="2.98666">
        <ele>337.5</ele>
        <time>2018-05-19T10:08:56Z</time>
      </trkpt>
      <trkpt lat="44.08314" lon="2.98668">
        <ele>337.5</ele>
        <time>2018-05-19T10:08:57Z</time>
      </trkpt>
      <trkpt lat="44.08317" lon="2.9867">
        <ele>337.5</ele>
        <time>2018-05-19T10:08:58Z</time>
      </trkpt>
      <trkpt lat="44.08319" lon="2.98672">
        <ele>337.4</ele>
        <time>2018-05-19T10:08:59Z</time>
      </trkpt>
      <trkpt lat="44.08323" lon="2.98674">
        <ele>337.4</ele>
        <time>2018-05-19T10:09:00Z</time>
      </trkpt>
      <trkpt lat="44.08326" lon="2.98677">
        <ele>337.4</ele>
        <time>2018-05-19T10:09:01Z</time>
      </trkpt>
      <trkpt lat="44.08329" lon="2.98679">
        <ele>337.4</ele>
        <time>2018-05-19T10:09:02Z</time>
      </trkpt>
      <trkpt lat="44.08332" lon="2.9868">
        <ele>337.4</ele>
        <time>2018-05-19T10:09:03Z</time>
      </trkpt>
      <trkpt lat="44.08334" lon="2.98682">
        <ele>337.4</ele>
        <time>2018-05-19T10:09:04Z</time>
      </trkpt>
      <trkpt lat="44.08337" lon="2.98684">
        <ele>337.3</ele>
        <time>2018-05-19T10:09:05Z</time>
      </trkpt>
      <trkpt lat="44.0834" lon="2.98686">
        <ele>337.3</ele>
        <time>2018-05-19T10:09:06Z</time>
      </trkpt>
      <trkpt lat="44.08344" lon="2.98688">
        <ele>337.3</ele>
        <time>2018-05-19T10:09:08Z</time>
      </trkpt>
      <trkpt lat="44.08347" lon="2.9869">
        <ele>337.3</ele>
        <time>2018-05-19T10:09:25Z</time>
      </trkpt>
      <trkpt lat="44.08351" lon="2.98691">
        <ele>337.3</ele>
        <time>2018-05-19T10:09:28Z</time>
      </trkpt>
      <trkpt lat="44.08355" lon="2.98694">
        <ele>337.3</ele>
        <time>2018-05-19T10:09:30Z</time>
      </trkpt>
      <trkpt lat="44.08359" lon="2.98697">
        <ele>337.3</ele>
        <time>2018-05-19T10:09:32Z</time>
      </trkpt>
      <trkpt lat="44.08362" lon="2.98701">
        <ele>337.3</ele>
        <time>2018-05-19T10:09:34Z</time>
      </trkpt>
      <trkpt lat="44.08366" lon="2.98704">
        <ele>337.4</ele>
        <time>2018-05-19T10:09:36Z</time>
      </trkpt>
      <trkpt lat="44.0837" lon="2.98708">
        <ele>337.4</ele>
        <time>2018-05-19T10:09:38Z</time>
      </trkpt>
      <trkpt lat="44.08373" lon="2.9871">
        <ele>337.4</ele>
        <time>2018-05-19T10:09:40Z</time>
      </trkpt>
      <trkpt lat="44.08375" lon="2.98711">
        <ele>337.4</ele>
        <time>2018-05-19T10:09:47Z</time>
      </trkpt>
      <trkpt lat="44.08377" lon="2.98707">
        <ele>337.4</ele>
        <time>2018-05-19T10:09:51Z</time>
      </trkpt>
      <trkpt lat="44.08375" lon="2.98702">
        <ele>337.4</ele>
        <time>2018-05-19T10:09:53Z</time>
      </trkpt>
      <trkpt lat="44.08373" lon="2.98699">
        <ele>337.3</ele>
        <time>2018-05-19T10:09:54Z</time>
      </trkpt>
      <trkpt lat="44.0837" lon="2.98696">
        <ele>337.3</ele>
        <time>2018-05-19T10:09:55Z</time>
      </trkpt>
      <trkpt lat="44.08367" lon="2.98693">
        <ele>337.3</ele>
        <time>2018-05-19T10:09:56Z</time>
      </trkpt>
      <trkpt lat="44.08364" lon="2.9869">
        <ele>337.3</ele>
        <time>2018-05-19T10:09:57Z</time>
      </trkpt>
      <trkpt lat="44.08362" lon="2.98687">
        <ele>337.3</ele>
        <time>2018-05-19T10:10:02Z</time>
      </trkpt>
      <trkpt lat="44.0836" lon="2.98684">
        <ele>337.3</ele>
        <time>2018-05-19T10:10:16Z</time>
      </trkpt>
      <trkpt lat="44.08355" lon="2.98681">
        <ele>337.4</ele>
        <time>2018-05-19T10:11:14Z</time>
      </trkpt>
      <trkpt lat="44.08352" lon="2.9868">
        <ele>337.4</ele>
        <time>2018-05-19T10:11:17Z</time>
      </trkpt>
      <trkpt lat="44.0835" lon="2.98678">
        <ele>337.4</ele>
        <time>2018-05-19T10:11:19Z</time>
      </trkpt>
      <trkpt lat="44.08346" lon="2.98677">
        <ele>337.4</ele>
        <time>2018-05-19T10:11:22Z</time>
      </trkpt>
      <trkpt lat="44.08342" lon="2.98679">
        <ele>337.5</ele>
        <time>2018-05-19T10:11:25Z</time>
      </trkpt>
      <trkpt lat="44.08339" lon="2.9868">
        <ele>337.5</ele>
        <time>2018-05-19T10:11:27Z</time>
      </trkpt>
      <trkpt lat="44.08337" lon="2.98681">
        <ele>337.5</ele>
        <time>2018-05-19T10:11:29Z</time>
      </trkpt>
      <trkpt lat="44.08334" lon="2.98686">
        <ele>337.6</ele>
        <time>2018-05-19T10:11:31Z</time>
      </trkpt>
      <trkpt lat="44.08334" lon="2.98692">
        <ele>337.6</ele>
        <time>2018-05-19T10:11:33Z</time>
      </trkpt>
      <trkpt lat="44.08335" lon="2.98696">
        <ele>337.6</ele>
        <time>2018-05-19T10:11:35Z</time>
      </trkpt>
      <trkpt lat="44.08337" lon="2.987">
        <ele>337.6</ele>
        <time>2018-05-19T10:11:37Z</time>
      </trkpt>
      <trkpt lat="44.0834" lon="2.98703">
        <ele>337.7</ele>
        <time>2018-05-19T10:11:39Z</time>
      </trkpt>
      <trkpt lat="44.08345" lon="2.98707">
        <ele>337.7</ele>
        <time>2018-05-19T10:11:41Z</time>
      </trkpt>
      <trkpt lat="44.08349" lon="2.9871">
        <ele>337.7</ele>
        <time>2018-05-19T10:11:43Z</time>
      </trkpt>
      <trkpt lat="44.08353" lon="2.98712">
        <ele>337.7</ele>
        <time>2018-05-19T10:11:45Z</time>
      </trkpt>
      <trkpt lat="44.08357" lon="2.98716">
        <ele>337.8</ele>
        <time>2018-05-19T10:11:47Z</time>
      </trkpt>
      <trkpt lat="44.0836" lon="2.98718">
        <ele>337.8</ele>
        <time>2018-05-19T10:11:48Z</time>
      </trkpt>
      <trkpt lat="44.08362" lon="2.98722">
        <ele>337.8</ele>
        <time>2018-05-19T10:11:49Z</time>
      </trkpt>
      <trkpt lat="44.08364" lon="2.98725">
        <ele>337.8</ele>
        <time>2018-05-19T10:11:50Z</time>
      </trkpt>
      <trkpt lat="44.08365" lon="2.98729">
        <ele>337.8</ele>
        <time>2018-05-19T10:11:51Z</time>
      </trkpt>
      <trkpt lat="44.08366" lon="2.98733">
        <ele>337.8</ele>
        <time>2018-05-19T10:11:52Z</time>
      </trkpt>
      <trkpt lat="44.08367" lon="2.98737">
        <ele>337.8</ele>
        <time>2018-05-19T10:11:53Z</time>
      </trkpt>
      <trkpt lat="44.08367" lon="2.98742">
        <ele>337.9</ele>
        <time>2018-05-19T10:11:54Z</time>
      </trkpt>
      <trkpt lat="44.08367" lon="2.98747">
        <ele>337.9</ele>
        <time>2018-05-19T10:11:55Z</time>
      </trkpt>
      <trkpt lat="44.08367" lon="2.98751">
        <ele>337.9</ele>
        <time>2018-05-19T10:11:56Z</time>
      </trkpt>
      <trkpt lat="44.08366" lon="2.98755">
        <ele>337.9</ele>
        <time>2018-05-19T10:11:57Z</time>
      </trkpt>
      <trkpt lat="44.08365" lon="2.98761">
        <ele>337.9</ele>
        <time>2018-05-19T10:11:58Z</time>
      </trkpt>
      <trkpt lat="44.08364" lon="2.98766">
        <ele>337.9</ele>
        <time>2018-05-19T10:11:59Z</time>
      </trkpt>
      <trkpt lat="44.08364" lon="2.98772">
        <ele>338</ele>
        <time>2018-05-19T10:12:00Z</time>
      </trkpt>
      <trkpt lat="44.08363" lon="2.98777">
        <ele>338</ele>
        <time>2018-05-19T10:12:01Z</time>
      </trkpt>
      <trkpt lat="44.08363" lon="2.98781">
        <ele>338</ele>
        <time>2018-05-19T10:12:02Z</time>
      </trkpt>
      <trkpt lat="44.08363" lon="2.98785">
        <ele>338</ele>
        <time>2018-05-19T10:12:03Z</time>
      </trkpt>
      <trkpt lat="44.08363" lon="2.98789">
        <ele>338</ele>
        <time>2018-05-19T10:12:04Z</time>
      </trkpt>
      <trkpt lat="44.08363" lon="2.98794">
        <ele>338</ele>
        <time>2018-05-19T10:12:05Z</time>
      </trkpt>
      <trkpt lat="44.08363" lon="2.98799">
        <ele>338</ele>
        <time>2018-05-19T10:12:06Z</time>
      </trkpt>
      <trkpt lat="44.08363" lon="2.98804">
        <ele>338</ele>
        <time>2018-05-19T10:12:07Z</time>
      </trkpt>
      <trkpt lat="44.08363" lon="2.9881">
        <ele>338.1</ele>
        <time>2018-05-19T10:12:08Z</time>
      </trkpt>
      <trkpt lat="44.08364" lon="2.98816">
        <ele>338.1</ele>
        <time>2018-05-19T10:12:09Z</time>
      </trkpt>
      <trkpt lat="44.08364" lon="2.98822">
        <ele>338.1</ele>
        <time>2018-05-19T10:12:10Z</time>
      </trkpt>
      <trkpt lat="44.08365" lon="2.98828">
        <ele>338.1</ele>
        <time>2018-05-19T10:12:11Z</time>
      </trkpt>
      <trkpt lat="44.08366" lon="2.98833">
        <ele>338.1</ele>
        <time>2018-05-19T10:12:12Z</time>
      </trkpt>
      <trkpt lat="44.08367" lon="2.98837">
        <ele>338.1</ele>
        <time>2018-05-19T10:12:13Z</time>
      </trkpt>
      <trkpt lat="44.08367" lon="2.98842">
        <ele>338.2</ele>
        <time>2018-05-19T10:12:14Z</time>
      </trkpt>
      <trkpt lat="44.08368" lon="2.98847">
        <ele>338.2</ele>
        <time>2018-05-19T10:12:15Z</time>
      </trkpt>
      <trkpt lat="44.08368" lon="2.98853">
        <ele>338.2</ele>
        <time>2018-05-19T10:12:16Z</time>
      </trkpt>
      <trkpt lat="44.08369" lon="2.98859">
        <ele>338.2</ele>
        <time>2018-05-19T10:12:17Z</time>
      </trkpt>
      <trkpt lat="44.0837" lon="2.98865">
        <ele>338.2</ele>
        <time>2018-05-19T10:12:18Z</time>
      </trkpt>
      <trkpt lat="44.08371" lon="2.98871">
        <ele>338.2</ele>
        <time>2018-05-19T10:12:19Z</time>
      </trkpt>
      <trkpt lat="44.08372" lon="2.98876">
        <ele>338.2</ele>
        <time>2018-05-19T10:12:20Z</time>
      </trkpt>
      <trkpt lat="44.08373" lon="2.9888">
        <ele>338.2</ele>
        <time>2018-05-19T10:12:21Z</time>
      </trkpt>
      <trkpt lat="44.08374" lon="2.98885">
        <ele>338.3</ele>
        <time>2018-05-19T10:12:23Z</time>
      </trkpt>
      <trkpt lat="44.08375" lon="2.98891">
        <ele>338.3</ele>
        <time>2018-05-19T10:12:25Z</time>
      </trkpt>
      <trkpt lat="44.08375" lon="2.98896">
        <ele>338.3</ele>
        <time>2018-05-19T10:12:28Z</time>
      </trkpt>
      <trkpt lat="44.08376" lon="2.989">
        <ele>338.3</ele>
        <time>2018-05-19T10:12:30Z</time>
      </trkpt>
      <trkpt lat="44.08378" lon="2.98905">
        <ele>338.3</ele>
        <time>2018-05-19T10:12:32Z</time>
      </trkpt>
      <trkpt lat="44.08379" lon="2.98909">
        <ele>338.3</ele>
        <time>2018-05-19T10:12:35Z</time>
      </trkpt>
      <trkpt lat="44.08382" lon="2.98912">
        <ele>338.3</ele>
        <time>2018-05-19T10:12:40Z</time>
      </trkpt>
      <trkpt lat="44.08383" lon="2.98915">
        <ele>338.3</ele>
        <time>2018-05-19T10:12:45Z</time>
      </trkpt>
      <trkpt lat="44.08379" lon="2.98913">
        <ele>338.3</ele>
        <time>2018-05-19T10:13:22Z</time>
      </trkpt>
      <trkpt lat="44.08378" lon="2.98918">
        <ele>338.3</ele>
        <time>2018-05-19T10:13:28Z</time>
      </trkpt>
      <trkpt lat="44.0838" lon="2.98921">
        <ele>338.4</ele>
        <time>2018-05-19T10:13:32Z</time>
      </trkpt>
      <trkpt lat="44.08379" lon="2.98916">
        <ele>338.3</ele>
        <time>2018-05-19T10:13:48Z</time>
      </trkpt>
      <trkpt lat="44.08376" lon="2.98912">
        <ele>338.3</ele>
        <time>2018-05-19T10:13:51Z</time>
      </trkpt>
      <trkpt lat="44.08375" lon="2.98909">
        <ele>338.3</ele>
        <time>2018-05-19T10:13:53Z</time>
      </trkpt>
      <trkpt lat="44.08372" lon="2.98905">
        <ele>338.3</ele>
        <time>2018-05-19T10:13:55Z</time>
      </trkpt>
      <trkpt lat="44.0837" lon="2.98902">
        <ele>338.3</ele>
        <time>2018-05-19T10:13:57Z</time>
      </trkpt>
      <trkpt lat="44.08368" lon="2.98897">
        <ele>338.3</ele>
        <time>2018-05-19T10:13:59Z</time>
      </trkpt>
      <trkpt lat="44.08366" lon="2.98892">
        <ele>338.3</ele>
        <time>2018-05-19T10:14:01Z</time>
      </trkpt>
      <trkpt lat="44.08364" lon="2.98887">
        <ele>338.3</ele>
        <time>2018-05-19T10:14:03Z</time>
      </trkpt>
      <trkpt lat="44.08362" lon="2.98881">
        <ele>338.3</ele>
        <time>2018-05-19T10:14:05Z</time>
      </trkpt>
      <trkpt lat="44.08361" lon="2.98877">
        <ele>338.3</ele>
        <time>2018-05-19T10:14:07Z</time>
      </trkpt>
      <trkpt lat="44.0836" lon="2.98872">
        <ele>338.2</ele>
        <time>2018-05-19T10:14:09Z</time>
      </trkpt>
      <trkpt lat="44.08359" lon="2.98869">
        <ele>338.2</ele>
        <time>2018-05-19T10:14:11Z</time>
      </trkpt>
      <trkpt lat="44.08359" lon="2.98863">
        <ele>338.2</ele>
        <time>2018-05-19T10:14:13Z</time>
      </trkpt>
      <trkpt lat="44.08359" lon="2.98857">
        <ele>338.2</ele>
        <time>2018-05-19T10:14:15Z</time>
      </trkpt>
      <trkpt lat="44.08359" lon="2.98852">
        <ele>338.2</ele>
        <time>2018-05-19T10:14:18Z</time>
      </trkpt>
      <trkpt lat="44.08359" lon="2.98848">
        <ele>338.2</ele>
        <time>2018-05-19T10:14:21Z</time>
      </trkpt>
      <trkpt lat="44.08356" lon="2.98846">
        <ele>338.2</ele>
        <time>2018-05-19T10:14:24Z</time>
      </trkpt>
      <trkpt lat="44.08356" lon="2.98843">
        <ele>338.2</ele>
        <time>2018-05-19T10:14:27Z</time>
      </trkpt>
      <trkpt lat="44.08357" lon="2.98838">
        <ele>338.2</ele>
        <time>2018-05-19T10:14:30Z</time>
      </trkpt>
      <trkpt lat="44.08357" lon="2.98832">
        <ele>338.2</ele>
        <time>2018-05-19T10:16:41Z</time>
      </trkpt>
      <trkpt lat="44.0836" lon="2.98831">
        <ele>338.2</ele>
        <time>2018-05-19T10:16:58Z</time>
      </trkpt>
      <trkpt lat="44.08361" lon="2.98828">
        <ele>338.2</ele>
        <time>2018-05-19T10:17:05Z</time>
      </trkpt>
      <trkpt lat="44.08357" lon="2.98829">
        <ele>338.2</ele>
        <time>2018-05-19T10:22:02Z</time>
      </trkpt>
      <trkpt lat="44.0836" lon="2.98831">
        <ele>338.2</ele>
        <time>2018-05-19T10:22:13Z</time>
      </trkpt>
      <trkpt lat="44.08359" lon="2.98835">
        <ele>338.2</ele>
        <time>2018-05-19T10:22:24Z</time>
      </trkpt>
      <trkpt lat="44.0836" lon="2.9884">
        <ele>338.2</ele>
        <time>2018-05-19T10:22:27Z</time>
      </trkpt>
      <trkpt lat="44.08361" lon="2.98846">
        <ele>338.2</ele>
        <time>2018-05-19T10:22:30Z</time>
      </trkpt>
      <trkpt lat="44.08362" lon="2.98851">
        <ele>338.2</ele>
        <time>2018-05-19T10:22:32Z</time>
      </trkpt>
      <trkpt lat="44.08364" lon="2.98855">
        <ele>338.2</ele>
        <time>2018-05-19T10:22:34Z</time>
      </trkpt>
      <trkpt lat="44.08365" lon="2.9886">
        <ele>338.3</ele>
        <time>2018-05-19T10:22:36Z</time>
      </trkpt>
      <trkpt lat="44.08366" lon="2.98867">
        <ele>338.3</ele>
        <time>2018-05-19T10:22:38Z</time>
      </trkpt>
      <trkpt lat="44.08367" lon="2.98873">
        <ele>338.3</ele>
        <time>2018-05-19T10:22:40Z</time>
      </trkpt>
      <trkpt lat="44.08368" lon="2.98878">
        <ele>338.3</ele>
        <time>2018-05-19T10:22:41Z</time>
      </trkpt>
      <trkpt lat="44.08369" lon="2.98882">
        <ele>338.3</ele>
        <time>2018-05-19T10:22:42Z</time>
      </trkpt>
      <trkpt lat="44.0837" lon="2.98887">
        <ele>338.3</ele>
        <time>2018-05-19T10:22:43Z</time>
      </trkpt>
      <trkpt lat="44.08372" lon="2.98891">
        <ele>338.3</ele>
        <time>2018-05-19T10:22:44Z</time>
      </trkpt>
      <trkpt lat="44.08373" lon="2.98896">
        <ele>338.3</ele>
        <time>2018-05-19T10:22:45Z</time>
      </trkpt>
      <trkpt lat="44.08375" lon="2.989">
        <ele>338.3</ele>
        <time>2018-05-19T10:22:46Z</time>
      </trkpt>
      <trkpt lat="44.08377" lon="2.98904">
        <ele>338.3</ele>
        <time>2018-05-19T10:22:47Z</time>
      </trkpt>
      <trkpt lat="44.08378" lon="2.98908">
        <ele>338.4</ele>
        <time>2018-05-19T10:22:48Z</time>
      </trkpt>
      <trkpt lat="44.0838" lon="2.98912">
        <ele>338.4</ele>
        <time>2018-05-19T10:22:49Z</time>
      </trkpt>
      <trkpt lat="44.08382" lon="2.98918">
        <ele>338.4</ele>
        <time>2018-05-19T10:22:50Z</time>
      </trkpt>
      <trkpt lat="44.08385" lon="2.98923">
        <ele>338.4</ele>
        <time>2018-05-19T10:22:51Z</time>
      </trkpt>
      <trkpt lat="44.08387" lon="2.98929">
        <ele>338.4</ele>
        <time>2018-05-19T10:22:52Z</time>
      </trkpt>
      <trkpt lat="44.08389" lon="2.98934">
        <ele>338.4</ele>
        <time>2018-05-19T10:22:53Z</time>
      </trkpt>
      <trkpt lat="44.0839" lon="2.98939">
        <ele>338.4</ele>
        <time>2018-05-19T10:22:54Z</time>
      </trkpt>
      <trkpt lat="44.08392" lon="2.98943">
        <ele>338.4</ele>
        <time>2018-05-19T10:22:55Z</time>
      </trkpt>
      <trkpt lat="44.08394" lon="2.98947">
        <ele>338.4</ele>
        <time>2018-05-19T10:22:56Z</time>
      </trkpt>
      <trkpt lat="44.08395" lon="2.98951">
        <ele>338.5</ele>
        <time>2018-05-19T10:22:57Z</time>
      </trkpt>
      <trkpt lat="44.08397" lon="2.98954">
        <ele>338.5</ele>
        <time>2018-05-19T10:22:58Z</time>
      </trkpt>
      <trkpt lat="44.08398" lon="2.98958">
        <ele>338.5</ele>
        <time>2018-05-19T10:22:59Z</time>
      </trkpt>
      <trkpt lat="44.084" lon="2.98962">
        <ele>338.5</ele>
        <time>2018-05-19T10:23:00Z</time>
      </trkpt>
      <trkpt lat="44.08401" lon="2.98966">
        <ele>338.5</ele>
        <time>2018-05-19T10:23:01Z</time>
      </trkpt>
      <trkpt lat="44.08403" lon="2.9897">
        <ele>338.5</ele>
        <time>2018-05-19T10:23:02Z</time>
      </trkpt>
      <trkpt lat="44.08403" lon="2.98975">
        <ele>338.5</ele>
        <time>2018-05-19T10:23:03Z</time>
      </trkpt>
      <trkpt lat="44.08405" lon="2.9898">
        <ele>338.5</ele>
        <time>2018-05-19T10:23:04Z</time>
      </trkpt>
      <trkpt lat="44.08406" lon="2.98986">
        <ele>338.5</ele>
        <time>2018-05-19T10:23:05Z</time>
      </trkpt>
      <trkpt lat="44.08408" lon="2.98991">
        <ele>338.5</ele>
        <time>2018-05-19T10:23:06Z</time>
      </trkpt>
      <trkpt lat="44.0841" lon="2.98996">
        <ele>338.5</ele>
        <time>2018-05-19T10:23:07Z</time>
      </trkpt>
      <trkpt lat="44.08412" lon="2.99001">
        <ele>338.6</ele>
        <time>2018-05-19T10:23:08Z</time>
      </trkpt>
      <trkpt lat="44.08413" lon="2.99005">
        <ele>338.6</ele>
        <time>2018-05-19T10:23:09Z</time>
      </trkpt>
      <trkpt lat="44.08415" lon="2.9901">
        <ele>338.6</ele>
        <time>2018-05-19T10:23:10Z</time>
      </trkpt>
      <trkpt lat="44.08417" lon="2.99016">
        <ele>338.6</ele>
        <time>2018-05-19T10:23:11Z</time>
      </trkpt>
      <trkpt lat="44.08419" lon="2.99021">
        <ele>338.6</ele>
        <time>2018-05-19T10:23:12Z</time>
      </trkpt>
      <trkpt lat="44.08421" lon="2.99026">
        <ele>338.6</ele>
        <time>2018-05-19T10:23:13Z</time>
      </trkpt>
      <trkpt lat="44.08423" lon="2.9903">
        <ele>338.6</ele>
        <time>2018-05-19T10:23:14Z</time>
      </trkpt>
      <trkpt lat="44.08425" lon="2.99035">
        <ele>338.6</ele>
        <time>2018-05-19T10:23:15Z</time>
      </trkpt>
      <trkpt lat="44.08427" lon="2.99041">
        <ele>338.7</ele>
        <time>2018-05-19T10:23:16Z</time>
      </trkpt>
      <trkpt lat="44.08429" lon="2.99047">
        <ele>338.7</ele>
        <time>2018-05-19T10:23:17Z</time>
      </trkpt>
      <trkpt lat="44.08432" lon="2.99052">
        <ele>338.7</ele>
        <time>2018-05-19T10:23:18Z</time>
      </trkpt>
      <trkpt lat="44.08434" lon="2.99058">
        <ele>338.7</ele>
        <time>2018-05-19T10:23:19Z</time>
      </trkpt>
      <trkpt lat="44.08436" lon="2.99064">
        <ele>338.7</ele>
        <time>2018-05-19T10:23:20Z</time>
      </trkpt>
      <trkpt lat="44.08438" lon="2.99068">
        <ele>338.7</ele>
        <time>2018-05-19T10:23:21Z</time>
      </trkpt>
      <trkpt lat="44.08439" lon="2.99073">
        <ele>338.7</ele>
        <time>2018-05-19T10:23:22Z</time>
      </trkpt>
      <trkpt lat="44.08441" lon="2.99078">
        <ele>338.7</ele>
        <time>2018-05-19T10:23:23Z</time>
      </trkpt>
      <trkpt lat="44.08442" lon="2.99082">
        <ele>338.8</ele>
        <time>2018-05-19T10:23:24Z</time>
      </trkpt>
      <trkpt lat="44.08444" lon="2.99088">
        <ele>338.8</ele>
        <time>2018-05-19T10:23:25Z</time>
      </trkpt>
      <trkpt lat="44.08447" lon="2.99094">
        <ele>338.8</ele>
        <time>2018-05-19T10:23:26Z</time>
      </trkpt>
      <trkpt lat="44.08449" lon="2.991">
        <ele>338.8</ele>
        <time>2018-05-19T10:23:27Z</time>
      </trkpt>
      <trkpt lat="44.08451" lon="2.99105">
        <ele>338.8</ele>
        <time>2018-05-19T10:23:28Z</time>
      </trkpt>
      <trkpt lat="44.08452" lon="2.99109">
        <ele>338.8</ele>
        <time>2018-05-19T10:23:29Z</time>
      </trkpt>
      <trkpt lat="44.08454" lon="2.99113">
        <ele>338.8</ele>
        <time>2018-05-19T10:23:30Z</time>
      </trkpt>
      <trkpt lat="44.08456" lon="2.99118">
        <ele>338.8</ele>
        <time>2018-05-19T10:23:31Z</time>
      </trkpt>
      <trkpt lat="44.08458" lon="2.99122">
        <ele>338.9</ele>
        <time>2018-05-19T10:23:32Z</time>
      </trkpt>
      <trkpt lat="44.08459" lon="2.99126">
        <ele>338.9</ele>
        <time>2018-05-19T10:23:33Z</time>
      </trkpt>
      <trkpt lat="44.08461" lon="2.9913">
        <ele>338.9</ele>
        <time>2018-05-19T10:23:34Z</time>
      </trkpt>
      <trkpt lat="44.08463" lon="2.99135">
        <ele>338.9</ele>
        <time>2018-05-19T10:23:35Z</time>
      </trkpt>
      <trkpt lat="44.08465" lon="2.9914">
        <ele>338.9</ele>
        <time>2018-05-19T10:23:36Z</time>
      </trkpt>
      <trkpt lat="44.08466" lon="2.99144">
        <ele>338.9</ele>
        <time>2018-05-19T10:23:37Z</time>
      </trkpt>
      <trkpt lat="44.08468" lon="2.99148">
        <ele>338.9</ele>
        <time>2018-05-19T10:23:38Z</time>
      </trkpt>
      <trkpt lat="44.08469" lon="2.99152">
        <ele>339</ele>
        <time>2018-05-19T10:23:39Z</time>
      </trkpt>
      <trkpt lat="44.08471" lon="2.99156">
        <ele>339</ele>
        <time>2018-05-19T10:23:40Z</time>
      </trkpt>
      <trkpt lat="44.08472" lon="2.99159">
        <ele>339</ele>
        <time>2018-05-19T10:23:41Z</time>
      </trkpt>
      <trkpt lat="44.08473" lon="2.99164">
        <ele>339</ele>
        <time>2018-05-19T10:23:43Z</time>
      </trkpt>
      <trkpt lat="44.0847" lon="2.99169">
        <ele>339</ele>
        <time>2018-05-19T10:23:45Z</time>
      </trkpt>
      <trkpt lat="44.08466" lon="2.99171">
        <ele>339</ele>
        <time>2018-05-19T10:23:47Z</time>
      </trkpt>
      <trkpt lat="44.08464" lon="2.99173">
        <ele>339</ele>
        <time>2018-05-19T10:23:48Z</time>
      </trkpt>
      <trkpt lat="44.08462" lon="2.99176">
        <ele>339.1</ele>
        <time>2018-05-19T10:23:49Z</time>
      </trkpt>
      <trkpt lat="44.0846" lon="2.99183">
        <ele>339.2</ele>
        <time>2018-05-19T10:23:51Z</time>
      </trkpt>
      <trkpt lat="44.08459" lon="2.99188">
        <ele>339.3</ele>
        <time>2018-05-19T10:23:53Z</time>
      </trkpt>
      <trkpt lat="44.0846" lon="2.99192">
        <ele>339.4</ele>
        <time>2018-05-19T10:23:55Z</time>
      </trkpt>
      <trkpt lat="44.08462" lon="2.99195">
        <ele>339.3</ele>
        <time>2018-05-19T10:23:57Z</time>
      </trkpt>
      <trkpt lat="44.08465" lon="2.99198">
        <ele>339.3</ele>
        <time>2018-05-19T10:24:01Z</time>
      </trkpt>
      <trkpt lat="44.08466" lon="2.99202">
        <ele>339.3</ele>
        <time>2018-05-19T10:24:04Z</time>
      </trkpt>
      <trkpt lat="44.08469" lon="2.99206">
        <ele>339.2</ele>
        <time>2018-05-19T10:24:06Z</time>
      </trkpt>
      <trkpt lat="44.08472" lon="2.99211">
        <ele>339.2</ele>
        <time>2018-05-19T10:24:08Z</time>
      </trkpt>
      <trkpt lat="44.08474" lon="2.99206">
        <ele>339.1</ele>
        <time>2018-05-19T10:24:23Z</time>
      </trkpt>
      <trkpt lat="44.08475" lon="2.99203">
        <ele>339.1</ele>
        <time>2018-05-19T10:24:25Z</time>
      </trkpt>
      <trkpt lat="44.08478" lon="2.992">
        <ele>339.2</ele>
        <time>2018-05-19T10:24:28Z</time>
      </trkpt>
      <trkpt lat="44.08481" lon="2.99202">
        <ele>339.2</ele>
        <time>2018-05-19T10:24:30Z</time>
      </trkpt>
      <trkpt lat="44.08484" lon="2.99205">
        <ele>339.4</ele>
        <time>2018-05-19T10:24:32Z</time>
      </trkpt>
      <trkpt lat="44.08488" lon="2.99209">
        <ele>339.7</ele>
        <time>2018-05-19T10:24:34Z</time>
      </trkpt>
      <trkpt lat="44.08492" lon="2.99214">
        <ele>339.9</ele>
        <time>2018-05-19T10:24:36Z</time>
      </trkpt>
      <trkpt lat="44.08494" lon="2.99218">
        <ele>340.1</ele>
        <time>2018-05-19T10:24:37Z</time>
      </trkpt>
      <trkpt lat="44.08497" lon="2.99221">
        <ele>340.1</ele>
        <time>2018-05-19T10:24:38Z</time>
      </trkpt>
      <trkpt lat="44.08499" lon="2.99224">
        <ele>340.1</ele>
        <time>2018-05-19T10:24:39Z</time>
      </trkpt>
      <trkpt lat="44.08502" lon="2.99227">
        <ele>340</ele>
        <time>2018-05-19T10:24:40Z</time>
      </trkpt>
      <trkpt lat="44.08505" lon="2.99233">
        <ele>339.8</ele>
        <time>2018-05-19T10:24:42Z</time>
      </trkpt>
      <trkpt lat="44.08508" lon="2.99237">
        <ele>339.6</ele>
        <time>2018-05-19T10:24:43Z</time>
      </trkpt>
      <trkpt lat="44.0851" lon="2.99241">
        <ele>339.5</ele>
        <time>2018-05-19T10:24:44Z</time>
      </trkpt>
      <trkpt lat="44.08512" lon="2.99245">
        <ele>339.4</ele>
        <time>2018-05-19T10:24:45Z</time>
      </trkpt>
      <trkpt lat="44.08515" lon="2.99248">
        <ele>339.3</ele>
        <time>2018-05-19T10:24:46Z</time>
      </trkpt>
      <trkpt lat="44.08516" lon="2.99252">
        <ele>339.2</ele>
        <time>2018-05-19T10:24:47Z</time>
      </trkpt>
      <trkpt lat="44.08519" lon="2.99255">
        <ele>339.1</ele>
        <time>2018-05-19T10:24:48Z</time>
      </trkpt>
      <trkpt lat="44.08521" lon="2.99259">
        <ele>339.1</ele>
        <time>2018-05-19T10:24:49Z</time>
      </trkpt>
      <trkpt lat="44.08523" lon="2.99263">
        <ele>339.2</ele>
        <time>2018-05-19T10:24:50Z</time>
      </trkpt>
      <trkpt lat="44.08526" lon="2.99266">
        <ele>339.3</ele>
        <time>2018-05-19T10:24:51Z</time>
      </trkpt>
      <trkpt lat="44.08529" lon="2.9927">
        <ele>339.4</ele>
        <time>2018-05-19T10:24:52Z</time>
      </trkpt>
      <trkpt lat="44.08532" lon="2.99274">
        <ele>339.6</ele>
        <time>2018-05-19T10:24:53Z</time>
      </trkpt>
      <trkpt lat="44.08535" lon="2.99278">
        <ele>339.6</ele>
        <time>2018-05-19T10:24:54Z</time>
      </trkpt>
      <trkpt lat="44.08539" lon="2.99282">
        <ele>339.7</ele>
        <time>2018-05-19T10:24:55Z</time>
      </trkpt>
      <trkpt lat="44.08542" lon="2.99287">
        <ele>339.7</ele>
        <time>2018-05-19T10:24:56Z</time>
      </trkpt>
      <trkpt lat="44.08546" lon="2.99291">
        <ele>339.6</ele>
        <time>2018-05-19T10:24:57Z</time>
      </trkpt>
      <trkpt lat="44.08549" lon="2.99296">
        <ele>339.6</ele>
        <time>2018-05-19T10:24:58Z</time>
      </trkpt>
      <trkpt lat="44.08552" lon="2.993">
        <ele>339.5</ele>
        <time>2018-05-19T10:24:59Z</time>
      </trkpt>
      <trkpt lat="44.08554" lon="2.99304">
        <ele>339.5</ele>
        <time>2018-05-19T10:25:00Z</time>
      </trkpt>
      <trkpt lat="44.08557" lon="2.99308">
        <ele>339.5</ele>
        <time>2018-05-19T10:25:01Z</time>
      </trkpt>
      <trkpt lat="44.0856" lon="2.99312">
        <ele>339.5</ele>
        <time>2018-05-19T10:25:02Z</time>
      </trkpt>
      <trkpt lat="44.08563" lon="2.99317">
        <ele>339.6</ele>
        <time>2018-05-19T10:25:03Z</time>
      </trkpt>
      <trkpt lat="44.08566" lon="2.99321">
        <ele>339.6</ele>
        <time>2018-05-19T10:25:04Z</time>
      </trkpt>
      <trkpt lat="44.08569" lon="2.99325">
        <ele>339.6</ele>
        <time>2018-05-19T10:25:05Z</time>
      </trkpt>
      <trkpt lat="44.08572" lon="2.99329">
        <ele>339.6</ele>
        <time>2018-05-19T10:25:06Z</time>
      </trkpt>
      <trkpt lat="44.08574" lon="2.99333">
        <ele>339.6</ele>
        <time>2018-05-19T10:25:07Z</time>
      </trkpt>
      <trkpt lat="44.08577" lon="2.99337">
        <ele>339.6</ele>
        <time>2018-05-19T10:25:08Z</time>
      </trkpt>
      <trkpt lat="44.08579" lon="2.99341">
        <ele>339.5</ele>
        <time>2018-05-19T10:25:09Z</time>
      </trkpt>
      <trkpt lat="44.08582" lon="2.99344">
        <ele>339.4</ele>
        <time>2018-05-19T10:25:10Z</time>
      </trkpt>
      <trkpt lat="44.08585" lon="2.99348">
        <ele>339.4</ele>
        <time>2018-05-19T10:25:11Z</time>
      </trkpt>
      <trkpt lat="44.08587" lon="2.99352">
        <ele>339.3</ele>
        <time>2018-05-19T10:25:12Z</time>
      </trkpt>
      <trkpt lat="44.0859" lon="2.99356">
        <ele>339.3</ele>
        <time>2018-05-19T10:25:13Z</time>
      </trkpt>
      <trkpt lat="44.08592" lon="2.9936">
        <ele>339.3</ele>
        <time>2018-05-19T10:25:14Z</time>
      </trkpt>
      <trkpt lat="44.08594" lon="2.99363">
        <ele>339.2</ele>
        <time>2018-05-19T10:25:15Z</time>
      </trkpt>
      <trkpt lat="44.08597" lon="2.99367">
        <ele>339.1</ele>
        <time>2018-05-19T10:25:16Z</time>
      </trkpt>
      <trkpt lat="44.086" lon="2.99371">
        <ele>339.1</ele>
        <time>2018-05-19T10:25:17Z</time>
      </trkpt>
      <trkpt lat="44.08603" lon="2.99375">
        <ele>339</ele>
        <time>2018-05-19T10:25:18Z</time>
      </trkpt>
      <trkpt lat="44.08605" lon="2.99379">
        <ele>339</ele>
        <time>2018-05-19T10:25:19Z</time>
      </trkpt>
      <trkpt lat="44.08608" lon="2.99383">
        <ele>338.9</ele>
        <time>2018-05-19T10:25:20Z</time>
      </trkpt>
      <trkpt lat="44.08611" lon="2.99388">
        <ele>338.9</ele>
        <time>2018-05-19T10:25:21Z</time>
      </trkpt>
      <trkpt lat="44.08614" lon="2.99392">
        <ele>338.8</ele>
        <time>2018-05-19T10:25:22Z</time>
      </trkpt>
      <trkpt lat="44.08616" lon="2.99397">
        <ele>338.8</ele>
        <time>2018-05-19T10:25:23Z</time>
      </trkpt>
      <trkpt lat="44.08619" lon="2.99402">
        <ele>338.8</ele>
        <time>2018-05-19T10:25:24Z</time>
      </trkpt>
      <trkpt lat="44.08622" lon="2.99407">
        <ele>338.9</ele>
        <time>2018-05-19T10:25:25Z</time>
      </trkpt>
      <trkpt lat="44.08625" lon="2.99412">
        <ele>338.9</ele>
        <time>2018-05-19T10:25:26Z</time>
      </trkpt>
      <trkpt lat="44.08627" lon="2.99417">
        <ele>338.9</ele>
        <time>2018-05-19T10:25:27Z</time>
      </trkpt>
      <trkpt lat="44.0863" lon="2.99422">
        <ele>338.9</ele>
        <time>2018-05-19T10:25:28Z</time>
      </trkpt>
      <trkpt lat="44.08633" lon="2.99426">
        <ele>339</ele>
        <time>2018-05-19T10:25:29Z</time>
      </trkpt>
      <trkpt lat="44.08636" lon="2.9943">
        <ele>338.9</ele>
        <time>2018-05-19T10:25:30Z</time>
      </trkpt>
      <trkpt lat="44.08639" lon="2.99434">
        <ele>338.9</ele>
        <time>2018-05-19T10:25:31Z</time>
      </trkpt>
      <trkpt lat="44.08642" lon="2.99438">
        <ele>338.9</ele>
        <time>2018-05-19T10:25:32Z</time>
      </trkpt>
      <trkpt lat="44.08645" lon="2.99443">
        <ele>338.9</ele>
        <time>2018-05-19T10:25:33Z</time>
      </trkpt>
      <trkpt lat="44.08648" lon="2.99448">
        <ele>338.7</ele>
        <time>2018-05-19T10:25:34Z</time>
      </trkpt>
      <trkpt lat="44.08651" lon="2.99453">
        <ele>338.5</ele>
        <time>2018-05-19T10:25:35Z</time>
      </trkpt>
      <trkpt lat="44.08654" lon="2.99458">
        <ele>338.4</ele>
        <time>2018-05-19T10:25:36Z</time>
      </trkpt>
      <trkpt lat="44.08656" lon="2.99462">
        <ele>338.3</ele>
        <time>2018-05-19T10:25:37Z</time>
      </trkpt>
      <trkpt lat="44.08659" lon="2.99466">
        <ele>338.3</ele>
        <time>2018-05-19T10:25:38Z</time>
      </trkpt>
      <trkpt lat="44.08662" lon="2.99471">
        <ele>338.4</ele>
        <time>2018-05-19T10:25:39Z</time>
      </trkpt>
      <trkpt lat="44.08665" lon="2.99475">
        <ele>338.4</ele>
        <time>2018-05-19T10:25:40Z</time>
      </trkpt>
      <trkpt lat="44.08667" lon="2.99479">
        <ele>338.5</ele>
        <time>2018-05-19T10:25:41Z</time>
      </trkpt>
      <trkpt lat="44.0867" lon="2.99484">
        <ele>338.5</ele>
        <time>2018-05-19T10:25:42Z</time>
      </trkpt>
      <trkpt lat="44.08673" lon="2.99489">
        <ele>338.4</ele>
        <time>2018-05-19T10:25:43Z</time>
      </trkpt>
      <trkpt lat="44.08676" lon="2.99493">
        <ele>338.4</ele>
        <time>2018-05-19T10:25:44Z</time>
      </trkpt>
      <trkpt lat="44.08679" lon="2.99498">
        <ele>338.4</ele>
        <time>2018-05-19T10:25:45Z</time>
      </trkpt>
      <trkpt lat="44.08682" lon="2.99501">
        <ele>338.5</ele>
        <time>2018-05-19T10:25:46Z</time>
      </trkpt>
      <trkpt lat="44.08685" lon="2.99504">
        <ele>338.5</ele>
        <time>2018-05-19T10:25:47Z</time>
      </trkpt>
      <trkpt lat="44.08688" lon="2.99507">
        <ele>338.4</ele>
        <time>2018-05-19T10:25:48Z</time>
      </trkpt>
      <trkpt lat="44.08692" lon="2.99511">
        <ele>338.3</ele>
        <time>2018-05-19T10:25:49Z</time>
      </trkpt>
      <trkpt lat="44.08696" lon="2.99515">
        <ele>338.3</ele>
        <time>2018-05-19T10:25:50Z</time>
      </trkpt>
      <trkpt lat="44.087" lon="2.99518">
        <ele>338.2</ele>
        <time>2018-05-19T10:25:51Z</time>
      </trkpt>
      <trkpt lat="44.08704" lon="2.99521">
        <ele>338.2</ele>
        <time>2018-05-19T10:25:52Z</time>
      </trkpt>
      <trkpt lat="44.08708" lon="2.99525">
        <ele>338.1</ele>
        <time>2018-05-19T10:25:53Z</time>
      </trkpt>
      <trkpt lat="44.08711" lon="2.99529">
        <ele>338.1</ele>
        <time>2018-05-19T10:25:54Z</time>
      </trkpt>
      <trkpt lat="44.08715" lon="2.99531">
        <ele>338.1</ele>
        <time>2018-05-19T10:25:55Z</time>
      </trkpt>
      <trkpt lat="44.08718" lon="2.99532">
        <ele>338.1</ele>
        <time>2018-05-19T10:25:56Z</time>
      </trkpt>
      <trkpt lat="44.0872" lon="2.99536">
        <ele>338.1</ele>
        <time>2018-05-19T10:25:57Z</time>
      </trkpt>
      <trkpt lat="44.08724" lon="2.9954">
        <ele>338.1</ele>
        <time>2018-05-19T10:25:58Z</time>
      </trkpt>
      <trkpt lat="44.08728" lon="2.99543">
        <ele>338.2</ele>
        <time>2018-05-19T10:25:59Z</time>
      </trkpt>
      <trkpt lat="44.08732" lon="2.99546">
        <ele>338.3</ele>
        <time>2018-05-19T10:26:00Z</time>
      </trkpt>
      <trkpt lat="44.08735" lon="2.9955">
        <ele>338.3</ele>
        <time>2018-05-19T10:26:01Z</time>
      </trkpt>
      <trkpt lat="44.0874" lon="2.99556">
        <ele>338.4</ele>
        <time>2018-05-19T10:26:02Z</time>
      </trkpt>
      <trkpt lat="44.08743" lon="2.9956">
        <ele>338.3</ele>
        <time>2018-05-19T10:26:03Z</time>
      </trkpt>
      <trkpt lat="44.08747" lon="2.99564">
        <ele>338.3</ele>
        <time>2018-05-19T10:26:04Z</time>
      </trkpt>
      <trkpt lat="44.08751" lon="2.99567">
        <ele>338.3</ele>
        <time>2018-05-19T10:26:05Z</time>
      </trkpt>
      <trkpt lat="44.08756" lon="2.99571">
        <ele>338.4</ele>
        <time>2018-05-19T10:26:06Z</time>
      </trkpt>
      <trkpt lat="44.0876" lon="2.99577">
        <ele>338.6</ele>
        <time>2018-05-19T10:26:07Z</time>
      </trkpt>
      <trkpt lat="44.08764" lon="2.99581">
        <ele>338.9</ele>
        <time>2018-05-19T10:26:08Z</time>
      </trkpt>
      <trkpt lat="44.08769" lon="2.99586">
        <ele>339.1</ele>
        <time>2018-05-19T10:26:09Z</time>
      </trkpt>
      <trkpt lat="44.08774" lon="2.99593">
        <ele>339.4</ele>
        <time>2018-05-19T10:26:10Z</time>
      </trkpt>
      <trkpt lat="44.08777" lon="2.99596">
        <ele>339.6</ele>
        <time>2018-05-19T10:26:11Z</time>
      </trkpt>
      <trkpt lat="44.0878" lon="2.99598">
        <ele>339.7</ele>
        <time>2018-05-19T10:26:12Z</time>
      </trkpt>
      <trkpt lat="44.08784" lon="2.99603">
        <ele>340</ele>
        <time>2018-05-19T10:26:13Z</time>
      </trkpt>
      <trkpt lat="44.08788" lon="2.99607">
        <ele>340</ele>
        <time>2018-05-19T10:26:14Z</time>
      </trkpt>
      <trkpt lat="44.08792" lon="2.99612">
        <ele>340</ele>
        <time>2018-05-19T10:26:15Z</time>
      </trkpt>
      <trkpt lat="44.08796" lon="2.99614">
        <ele>340.7</ele>
        <time>2018-05-19T10:26:16Z</time>
      </trkpt>
      <trkpt lat="44.088" lon="2.99617">
        <ele>341.3</ele>
        <time>2018-05-19T10:26:17Z</time>
      </trkpt>
      <trkpt lat="44.08803" lon="2.99619">
        <ele>341.8</ele>
        <time>2018-05-19T10:26:18Z</time>
      </trkpt>
      <trkpt lat="44.08806" lon="2.99621">
        <ele>342.5</ele>
        <time>2018-05-19T10:26:19Z</time>
      </trkpt>
      <trkpt lat="44.0881" lon="2.99624">
        <ele>343</ele>
        <time>2018-05-19T10:26:20Z</time>
      </trkpt>
      <trkpt lat="44.08814" lon="2.99628">
        <ele>343.4</ele>
        <time>2018-05-19T10:26:21Z</time>
      </trkpt>
      <trkpt lat="44.08816" lon="2.99632">
        <ele>343.7</ele>
        <time>2018-05-19T10:26:22Z</time>
      </trkpt>
      <trkpt lat="44.08819" lon="2.99634">
        <ele>344.3</ele>
        <time>2018-05-19T10:26:23Z</time>
      </trkpt>
      <trkpt lat="44.08822" lon="2.99638">
        <ele>344.6</ele>
        <time>2018-05-19T10:26:24Z</time>
      </trkpt>
      <trkpt lat="44.08825" lon="2.99641">
        <ele>344.9</ele>
        <time>2018-05-19T10:26:25Z</time>
      </trkpt>
      <trkpt lat="44.08827" lon="2.99643">
        <ele>345.6</ele>
        <time>2018-05-19T10:26:26Z</time>
      </trkpt>
      <trkpt lat="44.0883" lon="2.99645">
        <ele>346</ele>
        <time>2018-05-19T10:26:27Z</time>
      </trkpt>
      <trkpt lat="44.08832" lon="2.99648">
        <ele>345.8</ele>
        <time>2018-05-19T10:26:28Z</time>
      </trkpt>
      <trkpt lat="44.08836" lon="2.99652">
        <ele>346.6</ele>
        <time>2018-05-19T10:26:30Z</time>
      </trkpt>
      <trkpt lat="44.08839" lon="2.99655">
        <ele>346.8</ele>
        <time>2018-05-19T10:26:31Z</time>
      </trkpt>
      <trkpt lat="44.08841" lon="2.99657">
        <ele>347.1</ele>
        <time>2018-05-19T10:26:32Z</time>
      </trkpt>
      <trkpt lat="44.08844" lon="2.99659">
        <ele>347.8</ele>
        <time>2018-05-19T10:26:33Z</time>
      </trkpt>
      <trkpt lat="44.08847" lon="2.99661">
        <ele>348</ele>
        <time>2018-05-19T10:26:34Z</time>
      </trkpt>
      <trkpt lat="44.08851" lon="2.99662">
        <ele>348.7</ele>
        <time>2018-05-19T10:26:35Z</time>
      </trkpt>
      <trkpt lat="44.08855" lon="2.99663">
        <ele>350</ele>
        <time>2018-05-19T10:26:37Z</time>
      </trkpt>
      <trkpt lat="44.0886" lon="2.99664">
        <ele>350.8</ele>
        <time>2018-05-19T10:26:39Z</time>
      </trkpt>
      <trkpt lat="44.08862" lon="2.99665">
        <ele>351.1</ele>
        <time>2018-05-19T10:26:40Z</time>
      </trkpt>
      <trkpt lat="44.08865" lon="2.99668">
        <ele>351.3</ele>
        <time>2018-05-19T10:26:41Z</time>
      </trkpt>
      <trkpt lat="44.08867" lon="2.9967">
        <ele>351.6</ele>
        <time>2018-05-19T10:26:42Z</time>
      </trkpt>
      <trkpt lat="44.08872" lon="2.99673">
        <ele>352</ele>
        <time>2018-05-19T10:26:44Z</time>
      </trkpt>
      <trkpt lat="44.08875" lon="2.99675">
        <ele>352.3</ele>
        <time>2018-05-19T10:26:45Z</time>
      </trkpt>
      <trkpt lat="44.08879" lon="2.99677">
        <ele>352.6</ele>
        <time>2018-05-19T10:26:46Z</time>
      </trkpt>
      <trkpt lat="44.08881" lon="2.99679">
        <ele>352.8</ele>
        <time>2018-05-19T10:26:47Z</time>
      </trkpt>
      <trkpt lat="44.08884" lon="2.99681">
        <ele>353.1</ele>
        <time>2018-05-19T10:26:48Z</time>
      </trkpt>
      <trkpt lat="44.08888" lon="2.99684">
        <ele>353.5</ele>
        <time>2018-05-19T10:26:49Z</time>
      </trkpt>
      <trkpt lat="44.08894" lon="2.99689">
        <ele>354.1</ele>
        <time>2018-05-19T10:26:50Z</time>
      </trkpt>
      <trkpt lat="44.08898" lon="2.99694">
        <ele>354.6</ele>
        <time>2018-05-19T10:26:51Z</time>
      </trkpt>
      <trkpt lat="44.08903" lon="2.99698">
        <ele>355.1</ele>
        <time>2018-05-19T10:26:52Z</time>
      </trkpt>
      <trkpt lat="44.08908" lon="2.99701">
        <ele>355.5</ele>
        <time>2018-05-19T10:26:53Z</time>
      </trkpt>
      <trkpt lat="44.08912" lon="2.99704">
        <ele>355.9</ele>
        <time>2018-05-19T10:26:54Z</time>
      </trkpt>
      <trkpt lat="44.08916" lon="2.99708">
        <ele>356.4</ele>
        <time>2018-05-19T10:26:55Z</time>
      </trkpt>
      <trkpt lat="44.08921" lon="2.9971">
        <ele>356.7</ele>
        <time>2018-05-19T10:26:56Z</time>
      </trkpt>
      <trkpt lat="44.08924" lon="2.99712">
        <ele>357.1</ele>
        <time>2018-05-19T10:26:57Z</time>
      </trkpt>
      <trkpt lat="44.08928" lon="2.99714">
        <ele>357.4</ele>
        <time>2018-05-19T10:26:58Z</time>
      </trkpt>
      <trkpt lat="44.08932" lon="2.99719">
        <ele>357.8</ele>
        <time>2018-05-19T10:26:59Z</time>
      </trkpt>
      <trkpt lat="44.08935" lon="2.99722">
        <ele>358.2</ele>
        <time>2018-05-19T10:27:01Z</time>
      </trkpt>
      <trkpt lat="44.0894" lon="2.99726">
        <ele>358.7</ele>
        <time>2018-05-19T10:27:03Z</time>
      </trkpt>
      <trkpt lat="44.08943" lon="2.99728">
        <ele>359</ele>
        <time>2018-05-19T10:27:04Z</time>
      </trkpt>
      <trkpt lat="44.08946" lon="2.99731">
        <ele>359</ele>
        <time>2018-05-19T10:27:06Z</time>
      </trkpt>
      <trkpt lat="44.08949" lon="2.99733">
        <ele>359.2</ele>
        <time>2018-05-19T10:27:11Z</time>
      </trkpt>
      <trkpt lat="44.08951" lon="2.99736">
        <ele>359.4</ele>
        <time>2018-05-19T10:27:24Z</time>
      </trkpt>
      <trkpt lat="44.08951" lon="2.99741">
        <ele>360</ele>
        <time>2018-05-19T10:27:27Z</time>
      </trkpt>
      <trkpt lat="44.08953" lon="2.99744">
        <ele>360.8</ele>
        <time>2018-05-19T10:27:28Z</time>
      </trkpt>
      <trkpt lat="44.08956" lon="2.99747">
        <ele>361.6</ele>
        <time>2018-05-19T10:27:29Z</time>
      </trkpt>
      <trkpt lat="44.08959" lon="2.99749">
        <ele>361.8</ele>
        <time>2018-05-19T10:27:30Z</time>
      </trkpt>
      <trkpt lat="44.08964" lon="2.9975">
        <ele>362.2</ele>
        <time>2018-05-19T10:27:32Z</time>
      </trkpt>
      <trkpt lat="44.08967" lon="2.99752">
        <ele>361.6</ele>
        <time>2018-05-19T10:27:33Z</time>
      </trkpt>
      <trkpt lat="44.08971" lon="2.99754">
        <ele>360.7</ele>
        <time>2018-05-19T10:27:34Z</time>
      </trkpt>
      <trkpt lat="44.08977" lon="2.99759">
        <ele>358.9</ele>
        <time>2018-05-19T10:27:35Z</time>
      </trkpt>
      <trkpt lat="44.08981" lon="2.99764">
        <ele>357</ele>
        <time>2018-05-19T10:27:36Z</time>
      </trkpt>
      <trkpt lat="44.08985" lon="2.99767">
        <ele>355.1</ele>
        <time>2018-05-19T10:27:37Z</time>
      </trkpt>
      <trkpt lat="44.08989" lon="2.9977">
        <ele>354.4</ele>
        <time>2018-05-19T10:27:38Z</time>
      </trkpt>
      <trkpt lat="44.08994" lon="2.99773">
        <ele>355</ele>
        <time>2018-05-19T10:27:39Z</time>
      </trkpt>
      <trkpt lat="44.08998" lon="2.99777">
        <ele>355.7</ele>
        <time>2018-05-19T10:27:40Z</time>
      </trkpt>
      <trkpt lat="44.09002" lon="2.9978">
        <ele>356</ele>
        <time>2018-05-19T10:27:41Z</time>
      </trkpt>
      <trkpt lat="44.09005" lon="2.99783">
        <ele>358.9</ele>
        <time>2018-05-19T10:27:42Z</time>
      </trkpt>
      <trkpt lat="44.09009" lon="2.99785">
        <ele>360.7</ele>
        <time>2018-05-19T10:27:44Z</time>
      </trkpt>
      <trkpt lat="44.09014" lon="2.99786">
        <ele>360.7</ele>
        <time>2018-05-19T10:27:45Z</time>
      </trkpt>
      <trkpt lat="44.09017" lon="2.99791">
        <ele>360.8</ele>
        <time>2018-05-19T10:27:46Z</time>
      </trkpt>
      <trkpt lat="44.09021" lon="2.99796">
        <ele>361</ele>
        <time>2018-05-19T10:27:47Z</time>
      </trkpt>
      <trkpt lat="44.09024" lon="2.99799">
        <ele>360</ele>
        <time>2018-05-19T10:27:48Z</time>
      </trkpt>
      <trkpt lat="44.09026" lon="2.99801">
        <ele>359.1</ele>
        <time>2018-05-19T10:27:49Z</time>
      </trkpt>
      <trkpt lat="44.09029" lon="2.99796">
        <ele>358.2</ele>
        <time>2018-05-19T10:27:53Z</time>
      </trkpt>
      <trkpt lat="44.0903" lon="2.998">
        <ele>358.2</ele>
        <time>2018-05-19T10:27:57Z</time>
      </trkpt>
      <trkpt lat="44.09031" lon="2.99804">
        <ele>358.2</ele>
        <time>2018-05-19T10:28:01Z</time>
      </trkpt>
      <trkpt lat="44.09033" lon="2.99807">
        <ele>359</ele>
        <time>2018-05-19T10:28:04Z</time>
      </trkpt>
      <trkpt lat="44.09037" lon="2.99811">
        <ele>360.8</ele>
        <time>2018-05-19T10:28:06Z</time>
      </trkpt>
      <trkpt lat="44.09039" lon="2.99813">
        <ele>361.7</ele>
        <time>2018-05-19T10:28:07Z</time>
      </trkpt>
      <trkpt lat="44.09042" lon="2.99816">
        <ele>362.4</ele>
        <time>2018-05-19T10:28:08Z</time>
      </trkpt>
      <trkpt lat="44.09044" lon="2.99818">
        <ele>363.2</ele>
        <time>2018-05-19T10:28:09Z</time>
      </trkpt>
      <trkpt lat="44.09046" lon="2.99822">
        <ele>364</ele>
        <time>2018-05-19T10:28:10Z</time>
      </trkpt>
      <trkpt lat="44.09047" lon="2.99825">
        <ele>363.8</ele>
        <time>2018-05-19T10:28:11Z</time>
      </trkpt>
      <trkpt lat="44.09049" lon="2.99829">
        <ele>363.7</ele>
        <time>2018-05-19T10:28:12Z</time>
      </trkpt>
      <trkpt lat="44.0905" lon="2.99832">
        <ele>363.4</ele>
        <time>2018-05-19T10:28:13Z</time>
      </trkpt>
      <trkpt lat="44.09052" lon="2.99837">
        <ele>362.6</ele>
        <time>2018-05-19T10:28:14Z</time>
      </trkpt>
      <trkpt lat="44.09054" lon="2.99841">
        <ele>361.5</ele>
        <time>2018-05-19T10:28:15Z</time>
      </trkpt>
      <trkpt lat="44.09056" lon="2.99845">
        <ele>360.6</ele>
        <time>2018-05-19T10:28:16Z</time>
      </trkpt>
      <trkpt lat="44.09059" lon="2.9985">
        <ele>360.6</ele>
        <time>2018-05-19T10:28:17Z</time>
      </trkpt>
      <trkpt lat="44.09061" lon="2.99854">
        <ele>360.6</ele>
        <time>2018-05-19T10:28:18Z</time>
      </trkpt>
      <trkpt lat="44.09062" lon="2.99859">
        <ele>360.8</ele>
        <time>2018-05-19T10:28:19Z</time>
      </trkpt>
      <trkpt lat="44.09064" lon="2.99863">
        <ele>361.1</ele>
        <time>2018-05-19T10:28:20Z</time>
      </trkpt>
      <trkpt lat="44.09066" lon="2.99867">
        <ele>361.3</ele>
        <time>2018-05-19T10:28:21Z</time>
      </trkpt>
      <trkpt lat="44.09067" lon="2.9987">
        <ele>360</ele>
        <time>2018-05-19T10:28:22Z</time>
      </trkpt>
      <trkpt lat="44.09069" lon="2.99873">
        <ele>358.4</ele>
        <time>2018-05-19T10:28:23Z</time>
      </trkpt>
      <trkpt lat="44.09071" lon="2.99877">
        <ele>356.6</ele>
        <time>2018-05-19T10:28:24Z</time>
      </trkpt>
      <trkpt lat="44.09073" lon="2.99882">
        <ele>354.9</ele>
        <time>2018-05-19T10:28:25Z</time>
      </trkpt>
      <trkpt lat="44.09075" lon="2.99887">
        <ele>353.2</ele>
        <time>2018-05-19T10:28:26Z</time>
      </trkpt>
      <trkpt lat="44.09077" lon="2.99892">
        <ele>352.1</ele>
        <time>2018-05-19T10:28:27Z</time>
      </trkpt>
      <trkpt lat="44.09079" lon="2.99896">
        <ele>351.1</ele>
        <time>2018-05-19T10:28:28Z</time>
      </trkpt>
      <trkpt lat="44.09081" lon="2.999">
        <ele>351.3</ele>
        <time>2018-05-19T10:28:29Z</time>
      </trkpt>
      <trkpt lat="44.09083" lon="2.99904">
        <ele>351.5</ele>
        <time>2018-05-19T10:28:30Z</time>
      </trkpt>
      <trkpt lat="44.09085" lon="2.99908">
        <ele>352.4</ele>
        <time>2018-05-19T10:28:31Z</time>
      </trkpt>
      <trkpt lat="44.09086" lon="2.99912">
        <ele>353.3</ele>
        <time>2018-05-19T10:28:32Z</time>
      </trkpt>
      <trkpt lat="44.09088" lon="2.99916">
        <ele>354.6</ele>
        <time>2018-05-19T10:28:34Z</time>
      </trkpt>
      <trkpt lat="44.09089" lon="2.9992">
        <ele>355.9</ele>
        <time>2018-05-19T10:28:37Z</time>
      </trkpt>
      <trkpt lat="44.09089" lon="2.99928">
        <ele>358</ele>
        <time>2018-05-19T10:29:33Z</time>
      </trkpt>
      <trkpt lat="44.09091" lon="2.99931">
        <ele>359.1</ele>
        <time>2018-05-19T10:29:34Z</time>
      </trkpt>
      <trkpt lat="44.09092" lon="2.99936">
        <ele>360.2</ele>
        <time>2018-05-19T10:29:35Z</time>
      </trkpt>
      <trkpt lat="44.09093" lon="2.9994">
        <ele>361.1</ele>
        <time>2018-05-19T10:29:36Z</time>
      </trkpt>
      <trkpt lat="44.09094" lon="2.99945">
        <ele>361.9</ele>
        <time>2018-05-19T10:29:37Z</time>
      </trkpt>
      <trkpt lat="44.09095" lon="2.9995">
        <ele>362.2</ele>
        <time>2018-05-19T10:29:38Z</time>
      </trkpt>
      <trkpt lat="44.09097" lon="2.99954">
        <ele>362</ele>
        <time>2018-05-19T10:29:39Z</time>
      </trkpt>
      <trkpt lat="44.09098" lon="2.99959">
        <ele>359.9</ele>
        <time>2018-05-19T10:29:40Z</time>
      </trkpt>
      <trkpt lat="44.09099" lon="2.99963">
        <ele>357.8</ele>
        <time>2018-05-19T10:29:41Z</time>
      </trkpt>
      <trkpt lat="44.091" lon="2.99968">
        <ele>356.4</ele>
        <time>2018-05-19T10:29:42Z</time>
      </trkpt>
      <trkpt lat="44.09101" lon="2.99971">
        <ele>355.4</ele>
        <time>2018-05-19T10:29:43Z</time>
      </trkpt>
      <trkpt lat="44.09103" lon="2.99977">
        <ele>353.5</ele>
        <time>2018-05-19T10:29:45Z</time>
      </trkpt>
      <trkpt lat="44.09102" lon="2.99981">
        <ele>351.9</ele>
        <time>2018-05-19T10:29:48Z</time>
      </trkpt>
      <trkpt lat="44.09101" lon="2.99986">
        <ele>350.2</ele>
        <time>2018-05-19T10:29:52Z</time>
      </trkpt>
      <trkpt lat="44.09102" lon="2.9999">
        <ele>349.8</ele>
        <time>2018-05-19T10:29:54Z</time>
      </trkpt>
      <trkpt lat="44.09104" lon="2.99992">
        <ele>351.2</ele>
        <time>2018-05-19T10:29:57Z</time>
      </trkpt>
      <trkpt lat="44.09109" lon="2.99993">
        <ele>353.9</ele>
        <time>2018-05-19T10:29:59Z</time>
      </trkpt>
      <trkpt lat="44.09114" lon="2.99991">
        <ele>356.4</ele>
        <time>2018-05-19T10:30:01Z</time>
      </trkpt>
      <trkpt lat="44.09119" lon="2.99991">
        <ele>358.7</ele>
        <time>2018-05-19T10:30:03Z</time>
      </trkpt>
      <trkpt lat="44.09124" lon="2.9999">
        <ele>360.3</ele>
        <time>2018-05-19T10:30:05Z</time>
      </trkpt>
      <trkpt lat="44.09127" lon="2.9999">
        <ele>361</ele>
        <time>2018-05-19T10:30:07Z</time>
      </trkpt>
      <trkpt lat="44.09132" lon="2.99988">
        <ele>360.7</ele>
        <time>2018-05-19T10:30:09Z</time>
      </trkpt>
      <trkpt lat="44.09135" lon="2.99984">
        <ele>358.5</ele>
        <time>2018-05-19T10:30:11Z</time>
      </trkpt>
      <trkpt lat="44.09136" lon="2.99978">
        <ele>357.1</ele>
        <time>2018-05-19T10:30:13Z</time>
      </trkpt>
      <trkpt lat="44.09135" lon="2.99972">
        <ele>355.7</ele>
        <time>2018-05-19T10:30:15Z</time>
      </trkpt>
      <trkpt lat="44.09134" lon="2.99967">
        <ele>354</ele>
        <time>2018-05-19T10:30:17Z</time>
      </trkpt>
      <trkpt lat="44.09133" lon="2.99962">
        <ele>351.6</ele>
        <time>2018-05-19T10:30:19Z</time>
      </trkpt>
      <trkpt lat="44.09132" lon="2.99956">
        <ele>349.1</ele>
        <time>2018-05-19T10:30:21Z</time>
      </trkpt>
      <trkpt lat="44.09131" lon="2.99952">
        <ele>349</ele>
        <time>2018-05-19T10:30:23Z</time>
      </trkpt>
      <trkpt lat="44.09132" lon="2.99948">
        <ele>348.8</ele>
        <time>2018-05-19T10:30:26Z</time>
      </trkpt>
      <trkpt lat="44.09135" lon="2.99946">
        <ele>348.6</ele>
        <time>2018-05-19T10:30:29Z</time>
      </trkpt>
      <trkpt lat="44.09137" lon="2.99947">
        <ele>348.4</ele>
        <time>2018-05-19T10:30:32Z</time>
      </trkpt>
      <trkpt lat="44.09137" lon="2.99951">
        <ele>348.2</ele>
        <time>2018-05-19T10:30:36Z</time>
      </trkpt>
      <trkpt lat="44.09139" lon="2.99952">
        <ele>348</ele>
        <time>2018-05-19T10:30:51Z</time>
      </trkpt>
      <trkpt lat="44.09141" lon="2.99956">
        <ele>347.7</ele>
        <time>2018-05-19T10:31:11Z</time>
      </trkpt>
      <trkpt lat="44.09142" lon="2.9996">
        <ele>347.6</ele>
        <time>2018-05-19T10:31:14Z</time>
      </trkpt>
      <trkpt lat="44.09142" lon="2.99957">
        <ele>347.5</ele>
        <time>2018-05-19T10:31:18Z</time>
      </trkpt>
      <trkpt lat="44.0914" lon="2.99954">
        <ele>347.4</ele>
        <time>2018-05-19T10:31:21Z</time>
      </trkpt>
      <trkpt lat="44.09138" lon="2.99957">
        <ele>347.3</ele>
        <time>2018-05-19T10:31:35Z</time>
      </trkpt>
      <trkpt lat="44.0914" lon="2.99959">
        <ele>347.1</ele>
        <time>2018-05-19T10:31:52Z</time>
      </trkpt>
      <trkpt lat="44.09141" lon="2.99964">
        <ele>347</ele>
        <time>2018-05-19T10:31:54Z</time>
      </trkpt>
      <trkpt lat="44.09143" lon="2.99968">
        <ele>346.9</ele>
        <time>2018-05-19T10:31:56Z</time>
      </trkpt>
      <trkpt lat="44.09146" lon="2.99971">
        <ele>346.7</ele>
        <time>2018-05-19T10:31:58Z</time>
      </trkpt>
      <trkpt lat="44.09147" lon="2.99976">
        <ele>346.6</ele>
        <time>2018-05-19T10:32:00Z</time>
      </trkpt>
      <trkpt lat="44.09148" lon="2.9998">
        <ele>346.5</ele>
        <time>2018-05-19T10:32:01Z</time>
      </trkpt>
      <trkpt lat="44.09149" lon="2.99984">
        <ele>346.3</ele>
        <time>2018-05-19T10:32:02Z</time>
      </trkpt>
      <trkpt lat="44.0915" lon="2.99988">
        <ele>346.2</ele>
        <time>2018-05-19T10:32:03Z</time>
      </trkpt>
      <trkpt lat="44.0915" lon="2.99992">
        <ele>346.1</ele>
        <time>2018-05-19T10:32:04Z</time>
      </trkpt>
      <trkpt lat="44.09151" lon="2.99996">
        <ele>346</ele>
        <time>2018-05-19T10:32:05Z</time>
      </trkpt>
      <trkpt lat="44.09152" lon="3.00001">
        <ele>345.8</ele>
        <time>2018-05-19T10:32:06Z</time>
      </trkpt>
      <trkpt lat="44.09153" lon="3.00006">
        <ele>345.6</ele>
        <time>2018-05-19T10:32:07Z</time>
      </trkpt>
      <trkpt lat="44.09154" lon="3.0001">
        <ele>345.4</ele>
        <time>2018-05-19T10:32:08Z</time>
      </trkpt>
      <trkpt lat="44.09154" lon="3.00014">
        <ele>345.2</ele>
        <time>2018-05-19T10:32:09Z</time>
      </trkpt>
      <trkpt lat="44.09155" lon="3.00018">
        <ele>345.2</ele>
        <time>2018-05-19T10:32:10Z</time>
      </trkpt>
      <trkpt lat="44.09155" lon="3.00022">
        <ele>345.1</ele>
        <time>2018-05-19T10:32:11Z</time>
      </trkpt>
      <trkpt lat="44.09154" lon="3.00026">
        <ele>345.1</ele>
        <time>2018-05-19T10:32:12Z</time>
      </trkpt>
      <trkpt lat="44.09154" lon="3.0003">
        <ele>345</ele>
        <time>2018-05-19T10:32:13Z</time>
      </trkpt>
      <trkpt lat="44.09154" lon="3.00035">
        <ele>344.9</ele>
        <time>2018-05-19T10:32:14Z</time>
      </trkpt>
      <trkpt lat="44.09153" lon="3.00039">
        <ele>344.8</ele>
        <time>2018-05-19T10:32:15Z</time>
      </trkpt>
      <trkpt lat="44.09152" lon="3.00044">
        <ele>344.8</ele>
        <time>2018-05-19T10:32:16Z</time>
      </trkpt>
      <trkpt lat="44.09151" lon="3.00048">
        <ele>344.7</ele>
        <time>2018-05-19T10:32:17Z</time>
      </trkpt>
      <trkpt lat="44.0915" lon="3.00052">
        <ele>344.6</ele>
        <time>2018-05-19T10:32:18Z</time>
      </trkpt>
      <trkpt lat="44.09149" lon="3.00056">
        <ele>344.6</ele>
        <time>2018-05-19T10:32:19Z</time>
      </trkpt>
      <trkpt lat="44.09148" lon="3.00061">
        <ele>344.5</ele>
        <time>2018-05-19T10:32:21Z</time>
      </trkpt>
      <trkpt lat="44.09147" lon="3.00068">
        <ele>344.3</ele>
        <time>2018-05-19T10:32:23Z</time>
      </trkpt>
      <trkpt lat="44.09147" lon="3.00073">
        <ele>344.3</ele>
        <time>2018-05-19T10:32:25Z</time>
      </trkpt>
      <trkpt lat="44.09148" lon="3.00079">
        <ele>344.3</ele>
        <time>2018-05-19T10:32:27Z</time>
      </trkpt>
      <trkpt lat="44.09151" lon="3.00081">
        <ele>344.6</ele>
        <time>2018-05-19T10:32:30Z</time>
      </trkpt>
      <trkpt lat="44.09154" lon="3.00078">
        <ele>344.9</ele>
        <time>2018-05-19T10:32:32Z</time>
      </trkpt>
      <trkpt lat="44.09156" lon="3.00072">
        <ele>345.5</ele>
        <time>2018-05-19T10:32:34Z</time>
      </trkpt>
      <trkpt lat="44.09158" lon="3.00065">
        <ele>346</ele>
        <time>2018-05-19T10:32:36Z</time>
      </trkpt>
      <trkpt lat="44.09159" lon="3.0006">
        <ele>346.7</ele>
        <time>2018-05-19T10:32:38Z</time>
      </trkpt>
      <trkpt lat="44.09159" lon="3.00055">
        <ele>347.7</ele>
        <time>2018-05-19T10:32:40Z</time>
      </trkpt>
      <trkpt lat="44.09159" lon="3.0005">
        <ele>357.5</ele>
        <time>2018-05-19T10:32:42Z</time>
      </trkpt>
      <trkpt lat="44.0916" lon="3.00045">
        <ele>358.3</ele>
        <time>2018-05-19T10:32:44Z</time>
      </trkpt>
      <trkpt lat="44.09161" lon="3.00041">
        <ele>359</ele>
        <time>2018-05-19T10:32:48Z</time>
      </trkpt>
      <trkpt lat="44.09161" lon="3.00035">
        <ele>359.6</ele>
        <time>2018-05-19T10:32:51Z</time>
      </trkpt>
      <trkpt lat="44.09161" lon="3.00031">
        <ele>360</ele>
        <time>2018-05-19T10:32:53Z</time>
      </trkpt>
      <trkpt lat="44.09162" lon="3.00026">
        <ele>360.5</ele>
        <time>2018-05-19T10:32:56Z</time>
      </trkpt>
      <trkpt lat="44.09163" lon="3.00022">
        <ele>360.9</ele>
        <time>2018-05-19T10:32:58Z</time>
      </trkpt>
      <trkpt lat="44.09165" lon="3.00017">
        <ele>362</ele>
        <time>2018-05-19T10:33:00Z</time>
      </trkpt>
      <trkpt lat="44.09167" lon="3.00012">
        <ele>362</ele>
        <time>2018-05-19T10:33:02Z</time>
      </trkpt>
      <trkpt lat="44.09169" lon="3.00008">
        <ele>362</ele>
        <time>2018-05-19T10:33:04Z</time>
      </trkpt>
      <trkpt lat="44.09172" lon="3.00004">
        <ele>362</ele>
        <time>2018-05-19T10:33:06Z</time>
      </trkpt>
      <trkpt lat="44.09175" lon="3.00001">
        <ele>362</ele>
        <time>2018-05-19T10:33:08Z</time>
      </trkpt>
      <trkpt lat="44.09179" lon="2.99998">
        <ele>362</ele>
        <time>2018-05-19T10:33:10Z</time>
      </trkpt>
      <trkpt lat="44.09182" lon="2.99997">
        <ele>362</ele>
        <time>2018-05-19T10:33:12Z</time>
      </trkpt>
      <trkpt lat="44.09185" lon="2.99999">
        <ele>362</ele>
        <time>2018-05-19T10:33:15Z</time>
      </trkpt>
      <trkpt lat="44.09182" lon="2.99999">
        <ele>362</ele>
        <time>2018-05-19T10:33:21Z</time>
      </trkpt>
      <trkpt lat="44.09181" lon="2.99994">
        <ele>362</ele>
        <time>2018-05-19T10:33:25Z</time>
      </trkpt>
      <trkpt lat="44.09178" lon="2.99997">
        <ele>362</ele>
        <time>2018-05-19T10:34:46Z</time>
      </trkpt>
      <trkpt lat="44.09178" lon="3.00001">
        <ele>362</ele>
        <time>2018-05-19T10:34:47Z</time>
      </trkpt>
      <trkpt lat="44.09176" lon="3.00005">
        <ele>362</ele>
        <time>2018-05-19T10:34:48Z</time>
      </trkpt>
      <trkpt lat="44.09175" lon="3.00009">
        <ele>362</ele>
        <time>2018-05-19T10:34:49Z</time>
      </trkpt>
      <trkpt lat="44.09174" lon="3.00013">
        <ele>362</ele>
        <time>2018-05-19T10:34:50Z</time>
      </trkpt>
      <trkpt lat="44.09173" lon="3.00018">
        <ele>362</ele>
        <time>2018-05-19T10:34:51Z</time>
      </trkpt>
      <trkpt lat="44.09172" lon="3.00023">
        <ele>362</ele>
        <time>2018-05-19T10:34:52Z</time>
      </trkpt>
      <trkpt lat="44.09172" lon="3.00028">
        <ele>362</ele>
        <time>2018-05-19T10:34:53Z</time>
      </trkpt>
      <trkpt lat="44.09172" lon="3.00032">
        <ele>362</ele>
        <time>2018-05-19T10:34:54Z</time>
      </trkpt>
      <trkpt lat="44.09174" lon="3.00039">
        <ele>362</ele>
        <time>2018-05-19T10:34:56Z</time>
      </trkpt>
      <trkpt lat="44.09176" lon="3.00045">
        <ele>362</ele>
        <time>2018-05-19T10:34:58Z</time>
      </trkpt>
      <trkpt lat="44.0918" lon="3.00049">
        <ele>362</ele>
        <time>2018-05-19T10:35:00Z</time>
      </trkpt>
      <trkpt lat="44.09185" lon="3.00051">
        <ele>362</ele>
        <time>2018-05-19T10:35:02Z</time>
      </trkpt>
      <trkpt lat="44.0919" lon="3.00049">
        <ele>362</ele>
        <time>2018-05-19T10:35:04Z</time>
      </trkpt>
      <trkpt lat="44.09194" lon="3.00046">
        <ele>362</ele>
        <time>2018-05-19T10:35:06Z</time>
      </trkpt>
      <trkpt lat="44.09197" lon="3.00042">
        <ele>362</ele>
        <time>2018-05-19T10:35:08Z</time>
      </trkpt>
      <trkpt lat="44.09198" lon="3.00036">
        <ele>362</ele>
        <time>2018-05-19T10:35:10Z</time>
      </trkpt>
      <trkpt lat="44.09199" lon="3.00029">
        <ele>362</ele>
        <time>2018-05-19T10:35:12Z</time>
      </trkpt>
      <trkpt lat="44.09198" lon="3.00023">
        <ele>362</ele>
        <time>2018-05-19T10:35:14Z</time>
      </trkpt>
      <trkpt lat="44.09196" lon="3.00017">
        <ele>362</ele>
        <time>2018-05-19T10:35:16Z</time>
      </trkpt>
      <trkpt lat="44.09195" lon="3.00011">
        <ele>362</ele>
        <time>2018-05-19T10:35:18Z</time>
      </trkpt>
      <trkpt lat="44.09194" lon="3.00007">
        <ele>362</ele>
        <time>2018-05-19T10:35:20Z</time>
      </trkpt>
      <trkpt lat="44.09193" lon="3.00001">
        <ele>362</ele>
        <time>2018-05-19T10:35:22Z</time>
      </trkpt>
      <trkpt lat="44.09193" lon="2.99996">
        <ele>363.8</ele>
        <time>2018-05-19T10:35:24Z</time>
      </trkpt>
      <trkpt lat="44.09192" lon="2.99992">
        <ele>365.2</ele>
        <time>2018-05-19T10:35:26Z</time>
      </trkpt>
      <trkpt lat="44.0919" lon="2.99987">
        <ele>367</ele>
        <time>2018-05-19T10:35:28Z</time>
      </trkpt>
      <trkpt lat="44.09189" lon="2.99982">
        <ele>368.5</ele>
        <time>2018-05-19T10:35:30Z</time>
      </trkpt>
      <trkpt lat="44.09188" lon="2.99978">
        <ele>369.8</ele>
        <time>2018-05-19T10:35:32Z</time>
      </trkpt>
      <trkpt lat="44.09186" lon="2.99974">
        <ele>371.3</ele>
        <time>2018-05-19T10:35:38Z</time>
      </trkpt>
      <trkpt lat="44.09188" lon="2.9997">
        <ele>372.8</ele>
        <time>2018-05-19T10:35:40Z</time>
      </trkpt>
      <trkpt lat="44.09189" lon="2.99965">
        <ele>374.3</ele>
        <time>2018-05-19T10:35:42Z</time>
      </trkpt>
      <trkpt lat="44.09187" lon="2.9996">
        <ele>376</ele>
        <time>2018-05-19T10:35:44Z</time>
      </trkpt>
      <trkpt lat="44.09185" lon="2.99957">
        <ele>375.3</ele>
        <time>2018-05-19T10:35:46Z</time>
      </trkpt>
      <trkpt lat="44.09183" lon="2.99953">
        <ele>374.7</ele>
        <time>2018-05-19T10:35:48Z</time>
      </trkpt>
      <trkpt lat="44.09182" lon="2.99949">
        <ele>374.1</ele>
        <time>2018-05-19T10:35:50Z</time>
      </trkpt>
      <trkpt lat="44.09179" lon="2.99946">
        <ele>373.4</ele>
        <time>2018-05-19T10:35:52Z</time>
      </trkpt>
      <trkpt lat="44.09176" lon="2.99943">
        <ele>372.7</ele>
        <time>2018-05-19T10:35:54Z</time>
      </trkpt>
      <trkpt lat="44.09174" lon="2.99941">
        <ele>372.2</ele>
        <time>2018-05-19T10:35:56Z</time>
      </trkpt>
      <trkpt lat="44.09172" lon="2.99938">
        <ele>371.6</ele>
        <time>2018-05-19T10:35:58Z</time>
      </trkpt>
      <trkpt lat="44.0917" lon="2.99935">
        <ele>370.9</ele>
        <time>2018-05-19T10:36:01Z</time>
      </trkpt>
      <trkpt lat="44.09167" lon="2.99931">
        <ele>370.2</ele>
        <time>2018-05-19T10:36:03Z</time>
      </trkpt>
      <trkpt lat="44.09165" lon="2.99926">
        <ele>369.5</ele>
        <time>2018-05-19T10:36:05Z</time>
      </trkpt>
      <trkpt lat="44.09164" lon="2.99922">
        <ele>368.8</ele>
        <time>2018-05-19T10:36:07Z</time>
      </trkpt>
      <trkpt lat="44.09163" lon="2.99919">
        <ele>368.3</ele>
        <time>2018-05-19T10:36:09Z</time>
      </trkpt>
      <trkpt lat="44.0916" lon="2.99915">
        <ele>367.6</ele>
        <time>2018-05-19T10:36:12Z</time>
      </trkpt>
      <trkpt lat="44.09159" lon="2.99912">
        <ele>367</ele>
        <time>2018-05-19T10:36:14Z</time>
      </trkpt>
      <trkpt lat="44.09158" lon="2.99908">
        <ele>367</ele>
        <time>2018-05-19T10:36:16Z</time>
      </trkpt>
      <trkpt lat="44.09156" lon="2.99904">
        <ele>367</ele>
        <time>2018-05-19T10:36:18Z</time>
      </trkpt>
      <trkpt lat="44.09155" lon="2.99901">
        <ele>367</ele>
        <time>2018-05-19T10:36:20Z</time>
      </trkpt>
      <trkpt lat="44.09152" lon="2.999">
        <ele>367</ele>
        <time>2018-05-19T10:36:24Z</time>
      </trkpt>
      <trkpt lat="44.09154" lon="2.99895">
        <ele>367</ele>
        <time>2018-05-19T10:36:29Z</time>
      </trkpt>
      <trkpt lat="44.09156" lon="2.99893">
        <ele>367</ele>
        <time>2018-05-19T10:36:45Z</time>
      </trkpt>
      <trkpt lat="44.09159" lon="2.99892">
        <ele>367</ele>
        <time>2018-05-19T10:36:49Z</time>
      </trkpt>
      <trkpt lat="44.09163" lon="2.99891">
        <ele>367</ele>
        <time>2018-05-19T10:36:54Z</time>
      </trkpt>
      <trkpt lat="44.09158" lon="2.99889">
        <ele>367</ele>
        <time>2018-05-19T10:39:07Z</time>
      </trkpt>
      <trkpt lat="44.09156" lon="2.99894">
        <ele>367</ele>
        <time>2018-05-19T10:39:29Z</time>
      </trkpt>
      <trkpt lat="44.09156" lon="2.99896">
        <ele>367</ele>
        <time>2018-05-19T10:43:00Z</time>
      </trkpt>
      <trkpt lat="44.09158" lon="2.99899">
        <ele>367</ele>
        <time>2018-05-19T10:43:04Z</time>
      </trkpt>
      <trkpt lat="44.09161" lon="2.999">
        <ele>367</ele>
        <time>2018-05-19T10:43:08Z</time>
      </trkpt>
      <trkpt lat="44.09164" lon="2.99903">
        <ele>367</ele>
        <time>2018-05-19T10:43:11Z</time>
      </trkpt>
      <trkpt lat="44.09167" lon="2.99906">
        <ele>368.1</ele>
        <time>2018-05-19T10:43:13Z</time>
      </trkpt>
      <trkpt lat="44.09171" lon="2.99909">
        <ele>369.7</ele>
        <time>2018-05-19T10:43:15Z</time>
      </trkpt>
      <trkpt lat="44.09176" lon="2.99912">
        <ele>371.3</ele>
        <time>2018-05-19T10:43:17Z</time>
      </trkpt>
      <trkpt lat="44.0918" lon="2.99916">
        <ele>372.9</ele>
        <time>2018-05-19T10:43:19Z</time>
      </trkpt>
      <trkpt lat="44.09184" lon="2.99919">
        <ele>374.5</ele>
        <time>2018-05-19T10:43:21Z</time>
      </trkpt>
      <trkpt lat="44.09188" lon="2.9992">
        <ele>376.1</ele>
        <time>2018-05-19T10:43:23Z</time>
      </trkpt>
      <trkpt lat="44.09191" lon="2.99923">
        <ele>377</ele>
        <time>2018-05-19T10:43:26Z</time>
      </trkpt>
      <trkpt lat="44.09195" lon="2.99924">
        <ele>378</ele>
        <time>2018-05-19T10:43:29Z</time>
      </trkpt>
      <trkpt lat="44.09198" lon="2.99924">
        <ele>378.6</ele>
        <time>2018-05-19T10:43:31Z</time>
      </trkpt>
      <trkpt lat="44.092" lon="2.99928">
        <ele>379.3</ele>
        <time>2018-05-19T10:43:35Z</time>
      </trkpt>
      <trkpt lat="44.09203" lon="2.9993">
        <ele>380</ele>
        <time>2018-05-19T10:43:38Z</time>
      </trkpt>
      <trkpt lat="44.09206" lon="2.9993">
        <ele>380.6</ele>
        <time>2018-05-19T10:43:40Z</time>
      </trkpt>
      <trkpt lat="44.09209" lon="2.99931">
        <ele>381.1</ele>
        <time>2018-05-19T10:43:42Z</time>
      </trkpt>
      <trkpt lat="44.09213" lon="2.99931">
        <ele>381.8</ele>
        <time>2018-05-19T10:43:44Z</time>
      </trkpt>
      <trkpt lat="44.09217" lon="2.99931">
        <ele>382.5</ele>
        <time>2018-05-19T10:43:46Z</time>
      </trkpt>
      <trkpt lat="44.09221" lon="2.99932">
        <ele>383.2</ele>
        <time>2018-05-19T10:43:48Z</time>
      </trkpt>
      <trkpt lat="44.09226" lon="2.99933">
        <ele>384</ele>
        <time>2018-05-19T10:43:50Z</time>
      </trkpt>
      <trkpt lat="44.0923" lon="2.99935">
        <ele>384.8</ele>
        <time>2018-05-19T10:43:52Z</time>
      </trkpt>
      <trkpt lat="44.09234" lon="2.99936">
        <ele>385.4</ele>
        <time>2018-05-19T10:43:54Z</time>
      </trkpt>
      <trkpt lat="44.09237" lon="2.99937">
        <ele>386</ele>
        <time>2018-05-19T10:43:56Z</time>
      </trkpt>
      <trkpt lat="44.0924" lon="2.99938">
        <ele>386.4</ele>
        <time>2018-05-19T10:43:58Z</time>
      </trkpt>
      <trkpt lat="44.09243" lon="2.99939">
        <ele>387</ele>
        <time>2018-05-19T10:44:00Z</time>
      </trkpt>
      <trkpt lat="44.09247" lon="2.99941">
        <ele>387.6</ele>
        <time>2018-05-19T10:44:02Z</time>
      </trkpt>
      <trkpt lat="44.0925" lon="2.99942">
        <ele>388.3</ele>
        <time>2018-05-19T10:44:04Z</time>
      </trkpt>
      <trkpt lat="44.09254" lon="2.99943">
        <ele>388.9</ele>
        <time>2018-05-19T10:44:06Z</time>
      </trkpt>
      <trkpt lat="44.09258" lon="2.99945">
        <ele>389.6</ele>
        <time>2018-05-19T10:44:08Z</time>
      </trkpt>
      <trkpt lat="44.09261" lon="2.99946">
        <ele>390.2</ele>
        <time>2018-05-19T10:44:10Z</time>
      </trkpt>
      <trkpt lat="44.09265" lon="2.99947">
        <ele>390.9</ele>
        <time>2018-05-19T10:44:12Z</time>
      </trkpt>
      <trkpt lat="44.09268" lon="2.99948">
        <ele>391.6</ele>
        <time>2018-05-19T10:44:14Z</time>
      </trkpt>
      <trkpt lat="44.09271" lon="2.99951">
        <ele>392.2</ele>
        <time>2018-05-19T10:44:16Z</time>
      </trkpt>
      <trkpt lat="44.09274" lon="2.99954">
        <ele>392.5</ele>
        <time>2018-05-19T10:44:18Z</time>
      </trkpt>
      <trkpt lat="44.09278" lon="2.99955">
        <ele>392.8</ele>
        <time>2018-05-19T10:44:20Z</time>
      </trkpt>
      <trkpt lat="44.09281" lon="2.99957">
        <ele>393.2</ele>
        <time>2018-05-19T10:44:22Z</time>
      </trkpt>
      <trkpt lat="44.09285" lon="2.99959">
        <ele>393.6</ele>
        <time>2018-05-19T10:44:24Z</time>
      </trkpt>
      <trkpt lat="44.09287" lon="2.99962">
        <ele>393.9</ele>
        <time>2018-05-19T10:44:26Z</time>
      </trkpt>
      <trkpt lat="44.0929" lon="2.99966">
        <ele>394.4</ele>
        <time>2018-05-19T10:44:28Z</time>
      </trkpt>
      <trkpt lat="44.09293" lon="2.9997">
        <ele>395</ele>
        <time>2018-05-19T10:44:30Z</time>
      </trkpt>
      <trkpt lat="44.09295" lon="2.99973">
        <ele>395.5</ele>
        <time>2018-05-19T10:44:32Z</time>
      </trkpt>
      <trkpt lat="44.09298" lon="2.99977">
        <ele>396.1</ele>
        <time>2018-05-19T10:44:34Z</time>
      </trkpt>
      <trkpt lat="44.09301" lon="2.99981">
        <ele>396.7</ele>
        <time>2018-05-19T10:44:36Z</time>
      </trkpt>
      <trkpt lat="44.09304" lon="2.99986">
        <ele>397.3</ele>
        <time>2018-05-19T10:44:38Z</time>
      </trkpt>
      <trkpt lat="44.09307" lon="2.9999">
        <ele>398</ele>
        <time>2018-05-19T10:44:40Z</time>
      </trkpt>
      <trkpt lat="44.09309" lon="2.99995">
        <ele>398.6</ele>
        <time>2018-05-19T10:44:42Z</time>
      </trkpt>
      <trkpt lat="44.09312" lon="2.99999">
        <ele>397.4</ele>
        <time>2018-05-19T10:44:44Z</time>
      </trkpt>
      <trkpt lat="44.09314" lon="3.00005">
        <ele>394.4</ele>
        <time>2018-05-19T10:44:46Z</time>
      </trkpt>
      <trkpt lat="44.09316" lon="3.00009">
        <ele>392</ele>
        <time>2018-05-19T10:44:48Z</time>
      </trkpt>
      <trkpt lat="44.09317" lon="3.00013">
        <ele>389.8</ele>
        <time>2018-05-19T10:44:50Z</time>
      </trkpt>
      <trkpt lat="44.09318" lon="3.00018">
        <ele>387.6</ele>
        <time>2018-05-19T10:44:52Z</time>
      </trkpt>
      <trkpt lat="44.0932" lon="3.00023">
        <ele>384.9</ele>
        <time>2018-05-19T10:44:54Z</time>
      </trkpt>
      <trkpt lat="44.09322" lon="3.00029">
        <ele>381.7</ele>
        <time>2018-05-19T10:44:56Z</time>
      </trkpt>
      <trkpt lat="44.09323" lon="3.00034">
        <ele>382.7</ele>
        <time>2018-05-19T10:44:58Z</time>
      </trkpt>
      <trkpt lat="44.09324" lon="3.00038">
        <ele>384</ele>
        <time>2018-05-19T10:45:00Z</time>
      </trkpt>
      <trkpt lat="44.09326" lon="3.00042">
        <ele>385.4</ele>
        <time>2018-05-19T10:45:03Z</time>
      </trkpt>
      <trkpt lat="44.09329" lon="3.00043">
        <ele>386.4</ele>
        <time>2018-05-19T10:45:05Z</time>
      </trkpt>
      <trkpt lat="44.09333" lon="3.0004">
        <ele>387.8</ele>
        <time>2018-05-19T10:45:08Z</time>
      </trkpt>
      <trkpt lat="44.09333" lon="3.00034">
        <ele>389.1</ele>
        <time>2018-05-19T10:45:10Z</time>
      </trkpt>
      <trkpt lat="44.09332" lon="3.00029">
        <ele>390.4</ele>
        <time>2018-05-19T10:45:12Z</time>
      </trkpt>
      <trkpt lat="44.09331" lon="3.00024">
        <ele>391.5</ele>
        <time>2018-05-19T10:45:14Z</time>
      </trkpt>
      <trkpt lat="44.09331" lon="3.00018">
        <ele>392.6</ele>
        <time>2018-05-19T10:45:16Z</time>
      </trkpt>
      <trkpt lat="44.09331" lon="3.00013">
        <ele>393.7</ele>
        <time>2018-05-19T10:45:18Z</time>
      </trkpt>
      <trkpt lat="44.0933" lon="3.00008">
        <ele>394.8</ele>
        <time>2018-05-19T10:45:20Z</time>
      </trkpt>
      <trkpt lat="44.0933" lon="3.00002">
        <ele>395.9</ele>
        <time>2018-05-19T10:45:22Z</time>
      </trkpt>
      <trkpt lat="44.0933" lon="2.99996">
        <ele>397</ele>
        <time>2018-05-19T10:45:24Z</time>
      </trkpt>
      <trkpt lat="44.0933" lon="2.99989">
        <ele>398.2</ele>
        <time>2018-05-19T10:45:26Z</time>
      </trkpt>
      <trkpt lat="44.0933" lon="2.99983">
        <ele>399.3</ele>
        <time>2018-05-19T10:45:28Z</time>
      </trkpt>
      <trkpt lat="44.09329" lon="2.99978">
        <ele>400.2</ele>
        <time>2018-05-19T10:45:30Z</time>
      </trkpt>
      <trkpt lat="44.09328" lon="2.99972">
        <ele>401.2</ele>
        <time>2018-05-19T10:45:32Z</time>
      </trkpt>
      <trkpt lat="44.09328" lon="2.99966">
        <ele>402.3</ele>
        <time>2018-05-19T10:45:34Z</time>
      </trkpt>
      <trkpt lat="44.09327" lon="2.99961">
        <ele>403.1</ele>
        <time>2018-05-19T10:45:36Z</time>
      </trkpt>
      <trkpt lat="44.09326" lon="2.99955">
        <ele>404</ele>
        <time>2018-05-19T10:45:38Z</time>
      </trkpt>
      <trkpt lat="44.09325" lon="2.9995">
        <ele>404.9</ele>
        <time>2018-05-19T10:45:40Z</time>
      </trkpt>
      <trkpt lat="44.09324" lon="2.99945">
        <ele>405.8</ele>
        <time>2018-05-19T10:45:42Z</time>
      </trkpt>
      <trkpt lat="44.09322" lon="2.9994">
        <ele>406.6</ele>
        <time>2018-05-19T10:45:44Z</time>
      </trkpt>
      <trkpt lat="44.0932" lon="2.99936">
        <ele>407.4</ele>
        <time>2018-05-19T10:45:46Z</time>
      </trkpt>
      <trkpt lat="44.09318" lon="2.99931">
        <ele>408.4</ele>
        <time>2018-05-19T10:45:48Z</time>
      </trkpt>
      <trkpt lat="44.09316" lon="2.99926">
        <ele>409.4</ele>
        <time>2018-05-19T10:45:50Z</time>
      </trkpt>
      <trkpt lat="44.09314" lon="2.99922">
        <ele>410.3</ele>
        <time>2018-05-19T10:45:52Z</time>
      </trkpt>
      <trkpt lat="44.09311" lon="2.99917">
        <ele>411.2</ele>
        <time>2018-05-19T10:45:54Z</time>
      </trkpt>
      <trkpt lat="44.09308" lon="2.99913">
        <ele>412.1</ele>
        <time>2018-05-19T10:45:56Z</time>
      </trkpt>
      <trkpt lat="44.09306" lon="2.99908">
        <ele>413.1</ele>
        <time>2018-05-19T10:45:58Z</time>
      </trkpt>
      <trkpt lat="44.09303" lon="2.99904">
        <ele>414.1</ele>
        <time>2018-05-19T10:46:00Z</time>
      </trkpt>
      <trkpt lat="44.093" lon="2.99899">
        <ele>415</ele>
        <time>2018-05-19T10:46:02Z</time>
      </trkpt>
      <trkpt lat="44.09297" lon="2.99896">
        <ele>415.8</ele>
        <time>2018-05-19T10:46:04Z</time>
      </trkpt>
      <trkpt lat="44.09294" lon="2.99893">
        <ele>416</ele>
        <time>2018-05-19T10:46:07Z</time>
      </trkpt>
      <trkpt lat="44.0929" lon="2.99889">
        <ele>416</ele>
        <time>2018-05-19T10:46:09Z</time>
      </trkpt>
      <trkpt lat="44.09287" lon="2.99886">
        <ele>416</ele>
        <time>2018-05-19T10:46:11Z</time>
      </trkpt>
      <trkpt lat="44.09284" lon="2.99883">
        <ele>416</ele>
        <time>2018-05-19T10:46:13Z</time>
      </trkpt>
      <trkpt lat="44.09281" lon="2.99879">
        <ele>416</ele>
        <time>2018-05-19T10:46:15Z</time>
      </trkpt>
      <trkpt lat="44.09278" lon="2.99875">
        <ele>416</ele>
        <time>2018-05-19T10:46:17Z</time>
      </trkpt>
      <trkpt lat="44.09275" lon="2.99871">
        <ele>416</ele>
        <time>2018-05-19T10:46:19Z</time>
      </trkpt>
      <trkpt lat="44.09272" lon="2.99868">
        <ele>416</ele>
        <time>2018-05-19T10:46:21Z</time>
      </trkpt>
      <trkpt lat="44.09269" lon="2.99863">
        <ele>416</ele>
        <time>2018-05-19T10:46:23Z</time>
      </trkpt>
      <trkpt lat="44.09267" lon="2.99859">
        <ele>416</ele>
        <time>2018-05-19T10:46:25Z</time>
      </trkpt>
      <trkpt lat="44.09264" lon="2.99855">
        <ele>416</ele>
        <time>2018-05-19T10:46:27Z</time>
      </trkpt>
      <trkpt lat="44.09261" lon="2.99851">
        <ele>416</ele>
        <time>2018-05-19T10:46:29Z</time>
      </trkpt>
      <trkpt lat="44.09259" lon="2.99848">
        <ele>415.9</ele>
        <time>2018-05-19T10:46:31Z</time>
      </trkpt>
      <trkpt lat="44.09256" lon="2.99845">
        <ele>415.9</ele>
        <time>2018-05-19T10:46:33Z</time>
      </trkpt>
      <trkpt lat="44.09253" lon="2.99841">
        <ele>415.9</ele>
        <time>2018-05-19T10:46:35Z</time>
      </trkpt>
      <trkpt lat="44.0925" lon="2.99836">
        <ele>415.9</ele>
        <time>2018-05-19T10:46:37Z</time>
      </trkpt>
      <trkpt lat="44.09247" lon="2.99831">
        <ele>415.9</ele>
        <time>2018-05-19T10:46:39Z</time>
      </trkpt>
      <trkpt lat="44.09244" lon="2.99826">
        <ele>415.9</ele>
        <time>2018-05-19T10:46:41Z</time>
      </trkpt>
      <trkpt lat="44.09242" lon="2.99822">
        <ele>415.9</ele>
        <time>2018-05-19T10:46:43Z</time>
      </trkpt>
      <trkpt lat="44.09239" lon="2.99817">
        <ele>415.9</ele>
        <time>2018-05-19T10:46:45Z</time>
      </trkpt>
      <trkpt lat="44.09236" lon="2.99811">
        <ele>415.9</ele>
        <time>2018-05-19T10:46:47Z</time>
      </trkpt>
      <trkpt lat="44.09233" lon="2.99805">
        <ele>415.9</ele>
        <time>2018-05-19T10:46:49Z</time>
      </trkpt>
      <trkpt lat="44.09231" lon="2.99802">
        <ele>415.9</ele>
        <time>2018-05-19T10:46:50Z</time>
      </trkpt>
      <trkpt lat="44.09229" lon="2.99798">
        <ele>415.9</ele>
        <time>2018-05-19T10:46:51Z</time>
      </trkpt>
      <trkpt lat="44.09228" lon="2.99794">
        <ele>415.9</ele>
        <time>2018-05-19T10:46:52Z</time>
      </trkpt>
      <trkpt lat="44.09226" lon="2.9979">
        <ele>415.9</ele>
        <time>2018-05-19T10:46:53Z</time>
      </trkpt>
      <trkpt lat="44.09224" lon="2.99787">
        <ele>415.9</ele>
        <time>2018-05-19T10:46:54Z</time>
      </trkpt>
      <trkpt lat="44.09221" lon="2.99783">
        <ele>415.9</ele>
        <time>2018-05-19T10:46:55Z</time>
      </trkpt>
      <trkpt lat="44.09219" lon="2.99779">
        <ele>415.9</ele>
        <time>2018-05-19T10:46:56Z</time>
      </trkpt>
      <trkpt lat="44.09217" lon="2.99776">
        <ele>415.9</ele>
        <time>2018-05-19T10:46:57Z</time>
      </trkpt>
      <trkpt lat="44.09216" lon="2.99773">
        <ele>415.9</ele>
        <time>2018-05-19T10:46:58Z</time>
      </trkpt>
      <trkpt lat="44.09214" lon="2.99769">
        <ele>415.9</ele>
        <time>2018-05-19T10:46:59Z</time>
      </trkpt>
      <trkpt lat="44.09212" lon="2.99765">
        <ele>416</ele>
        <time>2018-05-19T10:47:00Z</time>
      </trkpt>
      <trkpt lat="44.09211" lon="2.99761">
        <ele>416</ele>
        <time>2018-05-19T10:47:01Z</time>
      </trkpt>
      <trkpt lat="44.09209" lon="2.99757">
        <ele>416.1</ele>
        <time>2018-05-19T10:47:02Z</time>
      </trkpt>
      <trkpt lat="44.09208" lon="2.99754">
        <ele>416.1</ele>
        <time>2018-05-19T10:47:03Z</time>
      </trkpt>
      <trkpt lat="44.09207" lon="2.9975">
        <ele>416.2</ele>
        <time>2018-05-19T10:47:04Z</time>
      </trkpt>
      <trkpt lat="44.09205" lon="2.99747">
        <ele>416.3</ele>
        <time>2018-05-19T10:47:05Z</time>
      </trkpt>
      <trkpt lat="44.09204" lon="2.99743">
        <ele>416.4</ele>
        <time>2018-05-19T10:47:06Z</time>
      </trkpt>
      <trkpt lat="44.09203" lon="2.99739">
        <ele>416.5</ele>
        <time>2018-05-19T10:47:07Z</time>
      </trkpt>
      <trkpt lat="44.09202" lon="2.99734">
        <ele>416.7</ele>
        <time>2018-05-19T10:47:08Z</time>
      </trkpt>
      <trkpt lat="44.09201" lon="2.99729">
        <ele>416.8</ele>
        <time>2018-05-19T10:47:09Z</time>
      </trkpt>
      <trkpt lat="44.09201" lon="2.99723">
        <ele>417</ele>
        <time>2018-05-19T10:47:10Z</time>
      </trkpt>
      <trkpt lat="44.092" lon="2.99718">
        <ele>417.2</ele>
        <time>2018-05-19T10:47:11Z</time>
      </trkpt>
      <trkpt lat="44.092" lon="2.99713">
        <ele>417.4</ele>
        <time>2018-05-19T10:47:12Z</time>
      </trkpt>
      <trkpt lat="44.092" lon="2.99707">
        <ele>417.7</ele>
        <time>2018-05-19T10:47:13Z</time>
      </trkpt>
      <trkpt lat="44.09201" lon="2.99702">
        <ele>417.9</ele>
        <time>2018-05-19T10:47:14Z</time>
      </trkpt>
      <trkpt lat="44.09202" lon="2.99697">
        <ele>418.1</ele>
        <time>2018-05-19T10:47:15Z</time>
      </trkpt>
      <trkpt lat="44.09203" lon="2.99692">
        <ele>418.4</ele>
        <time>2018-05-19T10:47:16Z</time>
      </trkpt>
      <trkpt lat="44.09203" lon="2.99688">
        <ele>418.6</ele>
        <time>2018-05-19T10:47:17Z</time>
      </trkpt>
      <trkpt lat="44.09204" lon="2.99683">
        <ele>418.8</ele>
        <time>2018-05-19T10:47:18Z</time>
      </trkpt>
      <trkpt lat="44.09204" lon="2.99679">
        <ele>419</ele>
        <time>2018-05-19T10:47:19Z</time>
      </trkpt>
      <trkpt lat="44.09205" lon="2.99674">
        <ele>419.2</ele>
        <time>2018-05-19T10:47:20Z</time>
      </trkpt>
      <trkpt lat="44.09205" lon="2.9967">
        <ele>419.4</ele>
        <time>2018-05-19T10:47:21Z</time>
      </trkpt>
      <trkpt lat="44.09206" lon="2.99667">
        <ele>419.5</ele>
        <time>2018-05-19T10:47:22Z</time>
      </trkpt>
      <trkpt lat="44.09206" lon="2.9966">
        <ele>419.8</ele>
        <time>2018-05-19T10:47:24Z</time>
      </trkpt>
      <trkpt lat="44.09207" lon="2.99653">
        <ele>420.1</ele>
        <time>2018-05-19T10:47:26Z</time>
      </trkpt>
      <trkpt lat="44.09208" lon="2.99647">
        <ele>420.3</ele>
        <time>2018-05-19T10:47:28Z</time>
      </trkpt>
      <trkpt lat="44.09208" lon="2.99641">
        <ele>420.6</ele>
        <time>2018-05-19T10:47:30Z</time>
      </trkpt>
      <trkpt lat="44.09209" lon="2.99636">
        <ele>420.7</ele>
        <time>2018-05-19T10:47:32Z</time>
      </trkpt>
      <trkpt lat="44.09212" lon="2.99631">
        <ele>420.9</ele>
        <time>2018-05-19T10:47:34Z</time>
      </trkpt>
      <trkpt lat="44.09216" lon="2.99628">
        <ele>421.3</ele>
        <time>2018-05-19T10:47:36Z</time>
      </trkpt>
      <trkpt lat="44.0922" lon="2.99627">
        <ele>421.8</ele>
        <time>2018-05-19T10:47:38Z</time>
      </trkpt>
      <trkpt lat="44.09224" lon="2.99627">
        <ele>422.4</ele>
        <time>2018-05-19T10:47:40Z</time>
      </trkpt>
      <trkpt lat="44.09229" lon="2.99627">
        <ele>422.9</ele>
        <time>2018-05-19T10:47:42Z</time>
      </trkpt>
      <trkpt lat="44.09233" lon="2.99629">
        <ele>423.1</ele>
        <time>2018-05-19T10:47:44Z</time>
      </trkpt>
      <trkpt lat="44.09237" lon="2.9963">
        <ele>423.5</ele>
        <time>2018-05-19T10:47:46Z</time>
      </trkpt>
      <trkpt lat="44.09242" lon="2.99632">
        <ele>423.9</ele>
        <time>2018-05-19T10:47:48Z</time>
      </trkpt>
      <trkpt lat="44.09246" lon="2.99633">
        <ele>424.3</ele>
        <time>2018-05-19T10:47:50Z</time>
      </trkpt>
      <trkpt lat="44.09251" lon="2.99635">
        <ele>424.7</ele>
        <time>2018-05-19T10:47:52Z</time>
      </trkpt>
      <trkpt lat="44.09256" lon="2.99636">
        <ele>424.9</ele>
        <time>2018-05-19T10:47:54Z</time>
      </trkpt>
      <trkpt lat="44.0926" lon="2.99637">
        <ele>425.2</ele>
        <time>2018-05-19T10:47:56Z</time>
      </trkpt>
      <trkpt lat="44.09265" lon="2.99639">
        <ele>425.6</ele>
        <time>2018-05-19T10:47:58Z</time>
      </trkpt>
      <trkpt lat="44.09271" lon="2.9964">
        <ele>426.1</ele>
        <time>2018-05-19T10:48:00Z</time>
      </trkpt>
      <trkpt lat="44.09275" lon="2.99641">
        <ele>426.3</ele>
        <time>2018-05-19T10:48:02Z</time>
      </trkpt>
      <trkpt lat="44.0928" lon="2.99641">
        <ele>426.7</ele>
        <time>2018-05-19T10:48:04Z</time>
      </trkpt>
      <trkpt lat="44.09285" lon="2.99642">
        <ele>427.2</ele>
        <time>2018-05-19T10:48:06Z</time>
      </trkpt>
      <trkpt lat="44.0929" lon="2.99642">
        <ele>427.8</ele>
        <time>2018-05-19T10:48:08Z</time>
      </trkpt>
      <trkpt lat="44.09293" lon="2.99642">
        <ele>428.1</ele>
        <time>2018-05-19T10:48:09Z</time>
      </trkpt>
      <trkpt lat="44.09298" lon="2.99642">
        <ele>428.6</ele>
        <time>2018-05-19T10:48:11Z</time>
      </trkpt>
      <trkpt lat="44.09301" lon="2.99642">
        <ele>428.9</ele>
        <time>2018-05-19T10:48:12Z</time>
      </trkpt>
      <trkpt lat="44.09304" lon="2.99642">
        <ele>429.2</ele>
        <time>2018-05-19T10:48:13Z</time>
      </trkpt>
      <trkpt lat="44.09307" lon="2.99643">
        <ele>429.5</ele>
        <time>2018-05-19T10:48:14Z</time>
      </trkpt>
      <trkpt lat="44.0931" lon="2.99642">
        <ele>429.7</ele>
        <time>2018-05-19T10:48:15Z</time>
      </trkpt>
      <trkpt lat="44.09313" lon="2.99642">
        <ele>430.2</ele>
        <time>2018-05-19T10:48:16Z</time>
      </trkpt>
      <trkpt lat="44.09316" lon="2.99642">
        <ele>430.7</ele>
        <time>2018-05-19T10:48:17Z</time>
      </trkpt>
      <trkpt lat="44.09319" lon="2.99641">
        <ele>431.3</ele>
        <time>2018-05-19T10:48:18Z</time>
      </trkpt>
      <trkpt lat="44.09322" lon="2.99641">
        <ele>431.9</ele>
        <time>2018-05-19T10:48:19Z</time>
      </trkpt>
      <trkpt lat="44.09326" lon="2.99641">
        <ele>432.4</ele>
        <time>2018-05-19T10:48:20Z</time>
      </trkpt>
      <trkpt lat="44.09329" lon="2.99641">
        <ele>432.8</ele>
        <time>2018-05-19T10:48:21Z</time>
      </trkpt>
      <trkpt lat="44.09332" lon="2.99641">
        <ele>433.2</ele>
        <time>2018-05-19T10:48:22Z</time>
      </trkpt>
      <trkpt lat="44.09335" lon="2.9964">
        <ele>433.7</ele>
        <time>2018-05-19T10:48:23Z</time>
      </trkpt>
      <trkpt lat="44.09338" lon="2.9964">
        <ele>434.1</ele>
        <time>2018-05-19T10:48:24Z</time>
      </trkpt>
      <trkpt lat="44.09341" lon="2.99639">
        <ele>434.5</ele>
        <time>2018-05-19T10:48:25Z</time>
      </trkpt>
      <trkpt lat="44.09344" lon="2.99639">
        <ele>435</ele>
        <time>2018-05-19T10:48:26Z</time>
      </trkpt>
      <trkpt lat="44.09348" lon="2.99639">
        <ele>435.4</ele>
        <time>2018-05-19T10:48:27Z</time>
      </trkpt>
      <trkpt lat="44.09351" lon="2.99638">
        <ele>436</ele>
        <time>2018-05-19T10:48:28Z</time>
      </trkpt>
      <trkpt lat="44.09354" lon="2.99638">
        <ele>436.6</ele>
        <time>2018-05-19T10:48:29Z</time>
      </trkpt>
      <trkpt lat="44.09357" lon="2.99637">
        <ele>437</ele>
        <time>2018-05-19T10:48:30Z</time>
      </trkpt>
      <trkpt lat="44.0936" lon="2.99637">
        <ele>437.1</ele>
        <time>2018-05-19T10:48:31Z</time>
      </trkpt>
      <trkpt lat="44.09363" lon="2.99637">
        <ele>437.2</ele>
        <time>2018-05-19T10:48:32Z</time>
      </trkpt>
      <trkpt lat="44.09366" lon="2.99637">
        <ele>437.4</ele>
        <time>2018-05-19T10:48:33Z</time>
      </trkpt>
      <trkpt lat="44.09369" lon="2.99637">
        <ele>437.7</ele>
        <time>2018-05-19T10:48:34Z</time>
      </trkpt>
      <trkpt lat="44.09372" lon="2.99636">
        <ele>438</ele>
        <time>2018-05-19T10:48:35Z</time>
      </trkpt>
      <trkpt lat="44.09375" lon="2.99636">
        <ele>438.3</ele>
        <time>2018-05-19T10:48:36Z</time>
      </trkpt>
      <trkpt lat="44.09378" lon="2.99636">
        <ele>438.6</ele>
        <time>2018-05-19T10:48:37Z</time>
      </trkpt>
      <trkpt lat="44.09381" lon="2.99637">
        <ele>438.9</ele>
        <time>2018-05-19T10:48:38Z</time>
      </trkpt>
      <trkpt lat="44.09384" lon="2.99637">
        <ele>439.1</ele>
        <time>2018-05-19T10:48:39Z</time>
      </trkpt>
      <trkpt lat="44.09387" lon="2.99637">
        <ele>439.4</ele>
        <time>2018-05-19T10:48:40Z</time>
      </trkpt>
      <trkpt lat="44.0939" lon="2.99637">
        <ele>439.6</ele>
        <time>2018-05-19T10:48:41Z</time>
      </trkpt>
      <trkpt lat="44.09396" lon="2.99638">
        <ele>440.1</ele>
        <time>2018-05-19T10:48:43Z</time>
      </trkpt>
      <trkpt lat="44.09401" lon="2.99638">
        <ele>440.6</ele>
        <time>2018-05-19T10:48:45Z</time>
      </trkpt>
      <trkpt lat="44.09406" lon="2.99639">
        <ele>441.2</ele>
        <time>2018-05-19T10:48:47Z</time>
      </trkpt>
      <trkpt lat="44.09411" lon="2.99639">
        <ele>441.7</ele>
        <time>2018-05-19T10:48:49Z</time>
      </trkpt>
      <trkpt lat="44.09414" lon="2.9964">
        <ele>442</ele>
        <time>2018-05-19T10:48:50Z</time>
      </trkpt>
      <trkpt lat="44.09419" lon="2.99641">
        <ele>442.5</ele>
        <time>2018-05-19T10:48:52Z</time>
      </trkpt>
      <trkpt lat="44.09424" lon="2.99642">
        <ele>443</ele>
        <time>2018-05-19T10:48:54Z</time>
      </trkpt>
      <trkpt lat="44.0943" lon="2.99642">
        <ele>443.5</ele>
        <time>2018-05-19T10:48:56Z</time>
      </trkpt>
      <trkpt lat="44.09433" lon="2.99642">
        <ele>443.7</ele>
        <time>2018-05-19T10:48:57Z</time>
      </trkpt>
      <trkpt lat="44.09436" lon="2.99643">
        <ele>444</ele>
        <time>2018-05-19T10:48:58Z</time>
      </trkpt>
      <trkpt lat="44.09439" lon="2.99643">
        <ele>444.3</ele>
        <time>2018-05-19T10:48:59Z</time>
      </trkpt>
      <trkpt lat="44.09442" lon="2.99642">
        <ele>444.5</ele>
        <time>2018-05-19T10:49:00Z</time>
      </trkpt>
      <trkpt lat="44.09445" lon="2.99642">
        <ele>444.8</ele>
        <time>2018-05-19T10:49:01Z</time>
      </trkpt>
      <trkpt lat="44.09448" lon="2.99642">
        <ele>445</ele>
        <time>2018-05-19T10:49:02Z</time>
      </trkpt>
      <trkpt lat="44.09451" lon="2.99641">
        <ele>445.2</ele>
        <time>2018-05-19T10:49:03Z</time>
      </trkpt>
      <trkpt lat="44.09454" lon="2.99641">
        <ele>445.4</ele>
        <time>2018-05-19T10:49:04Z</time>
      </trkpt>
      <trkpt lat="44.09457" lon="2.99641">
        <ele>445.6</ele>
        <time>2018-05-19T10:49:05Z</time>
      </trkpt>
      <trkpt lat="44.0946" lon="2.9964">
        <ele>445.8</ele>
        <time>2018-05-19T10:49:06Z</time>
      </trkpt>
      <trkpt lat="44.09462" lon="2.9964">
        <ele>446</ele>
        <time>2018-05-19T10:49:07Z</time>
      </trkpt>
      <trkpt lat="44.09466" lon="2.99639">
        <ele>446</ele>
        <time>2018-05-19T10:49:08Z</time>
      </trkpt>
      <trkpt lat="44.09469" lon="2.99639">
        <ele>446</ele>
        <time>2018-05-19T10:49:09Z</time>
      </trkpt>
      <trkpt lat="44.09472" lon="2.99639">
        <ele>446</ele>
        <time>2018-05-19T10:49:10Z</time>
      </trkpt>
      <trkpt lat="44.09474" lon="2.99638">
        <ele>446.1</ele>
        <time>2018-05-19T10:49:11Z</time>
      </trkpt>
      <trkpt lat="44.09477" lon="2.99638">
        <ele>446.1</ele>
        <time>2018-05-19T10:49:12Z</time>
      </trkpt>
      <trkpt lat="44.0948" lon="2.99637">
        <ele>446.2</ele>
        <time>2018-05-19T10:49:13Z</time>
      </trkpt>
      <trkpt lat="44.09483" lon="2.99636">
        <ele>446.2</ele>
        <time>2018-05-19T10:49:14Z</time>
      </trkpt>
      <trkpt lat="44.09486" lon="2.99635">
        <ele>446.3</ele>
        <time>2018-05-19T10:49:15Z</time>
      </trkpt>
      <trkpt lat="44.09489" lon="2.99635">
        <ele>446.3</ele>
        <time>2018-05-19T10:49:16Z</time>
      </trkpt>
      <trkpt lat="44.09494" lon="2.99633">
        <ele>446.4</ele>
        <time>2018-05-19T10:49:18Z</time>
      </trkpt>
      <trkpt lat="44.09499" lon="2.99633">
        <ele>446.5</ele>
        <time>2018-05-19T10:49:20Z</time>
      </trkpt>
      <trkpt lat="44.09503" lon="2.99632">
        <ele>446.5</ele>
        <time>2018-05-19T10:49:22Z</time>
      </trkpt>
      <trkpt lat="44.09508" lon="2.99631">
        <ele>446.6</ele>
        <time>2018-05-19T10:49:24Z</time>
      </trkpt>
      <trkpt lat="44.09511" lon="2.9963">
        <ele>446.6</ele>
        <time>2018-05-19T10:49:25Z</time>
      </trkpt>
      <trkpt lat="44.09514" lon="2.99629">
        <ele>446.7</ele>
        <time>2018-05-19T10:49:26Z</time>
      </trkpt>
      <trkpt lat="44.09516" lon="2.99628">
        <ele>446.7</ele>
        <time>2018-05-19T10:49:27Z</time>
      </trkpt>
      <trkpt lat="44.09521" lon="2.99626">
        <ele>446.8</ele>
        <time>2018-05-19T10:49:29Z</time>
      </trkpt>
      <trkpt lat="44.09526" lon="2.99623">
        <ele>447</ele>
        <time>2018-05-19T10:49:31Z</time>
      </trkpt>
      <trkpt lat="44.09531" lon="2.99622">
        <ele>447.2</ele>
        <time>2018-05-19T10:49:33Z</time>
      </trkpt>
      <trkpt lat="44.09536" lon="2.99621">
        <ele>447.4</ele>
        <time>2018-05-19T10:49:35Z</time>
      </trkpt>
      <trkpt lat="44.0954" lon="2.99621">
        <ele>447.6</ele>
        <time>2018-05-19T10:49:37Z</time>
      </trkpt>
      <trkpt lat="44.09545" lon="2.9962">
        <ele>447.7</ele>
        <time>2018-05-19T10:49:39Z</time>
      </trkpt>
      <trkpt lat="44.0955" lon="2.9962">
        <ele>447.9</ele>
        <time>2018-05-19T10:49:41Z</time>
      </trkpt>
      <trkpt lat="44.09554" lon="2.99621">
        <ele>448.1</ele>
        <time>2018-05-19T10:49:43Z</time>
      </trkpt>
      <trkpt lat="44.09558" lon="2.99621">
        <ele>448.3</ele>
        <time>2018-05-19T10:49:45Z</time>
      </trkpt>
      <trkpt lat="44.09562" lon="2.99622">
        <ele>448.4</ele>
        <time>2018-05-19T10:49:47Z</time>
      </trkpt>
      <trkpt lat="44.09566" lon="2.99622">
        <ele>448.6</ele>
        <time>2018-05-19T10:49:49Z</time>
      </trkpt>
      <trkpt lat="44.09571" lon="2.99623">
        <ele>448.8</ele>
        <time>2018-05-19T10:49:51Z</time>
      </trkpt>
      <trkpt lat="44.09575" lon="2.99624">
        <ele>449</ele>
        <time>2018-05-19T10:49:53Z</time>
      </trkpt>
      <trkpt lat="44.0958" lon="2.99626">
        <ele>449.1</ele>
        <time>2018-05-19T10:49:55Z</time>
      </trkpt>
      <trkpt lat="44.09585" lon="2.99629">
        <ele>449.1</ele>
        <time>2018-05-19T10:49:57Z</time>
      </trkpt>
      <trkpt lat="44.09589" lon="2.99632">
        <ele>449.2</ele>
        <time>2018-05-19T10:49:59Z</time>
      </trkpt>
      <trkpt lat="44.09594" lon="2.99636">
        <ele>449.2</ele>
        <time>2018-05-19T10:50:01Z</time>
      </trkpt>
      <trkpt lat="44.09599" lon="2.99639">
        <ele>449.3</ele>
        <time>2018-05-19T10:50:03Z</time>
      </trkpt>
      <trkpt lat="44.09601" lon="2.99641">
        <ele>449.3</ele>
        <time>2018-05-19T10:50:04Z</time>
      </trkpt>
      <trkpt lat="44.09604" lon="2.99643">
        <ele>449.4</ele>
        <time>2018-05-19T10:50:05Z</time>
      </trkpt>
      <trkpt lat="44.09607" lon="2.99645">
        <ele>449.4</ele>
        <time>2018-05-19T10:50:06Z</time>
      </trkpt>
      <trkpt lat="44.0961" lon="2.99647">
        <ele>449.4</ele>
        <time>2018-05-19T10:50:07Z</time>
      </trkpt>
      <trkpt lat="44.09613" lon="2.99649">
        <ele>449.5</ele>
        <time>2018-05-19T10:50:08Z</time>
      </trkpt>
      <trkpt lat="44.09617" lon="2.99651">
        <ele>449.5</ele>
        <time>2018-05-19T10:50:09Z</time>
      </trkpt>
      <trkpt lat="44.0962" lon="2.99653">
        <ele>449.5</ele>
        <time>2018-05-19T10:50:10Z</time>
      </trkpt>
      <trkpt lat="44.09623" lon="2.99654">
        <ele>449.6</ele>
        <time>2018-05-19T10:50:11Z</time>
      </trkpt>
      <trkpt lat="44.09626" lon="2.99655">
        <ele>449.6</ele>
        <time>2018-05-19T10:50:12Z</time>
      </trkpt>
      <trkpt lat="44.09629" lon="2.99656">
        <ele>449.6</ele>
        <time>2018-05-19T10:50:13Z</time>
      </trkpt>
      <trkpt lat="44.09632" lon="2.99656">
        <ele>449.7</ele>
        <time>2018-05-19T10:50:14Z</time>
      </trkpt>
      <trkpt lat="44.09635" lon="2.99656">
        <ele>449.7</ele>
        <time>2018-05-19T10:50:15Z</time>
      </trkpt>
      <trkpt lat="44.09638" lon="2.99656">
        <ele>449.8</ele>
        <time>2018-05-19T10:50:16Z</time>
      </trkpt>
      <trkpt lat="44.09641" lon="2.99656">
        <ele>449.8</ele>
        <time>2018-05-19T10:50:17Z</time>
      </trkpt>
      <trkpt lat="44.09644" lon="2.99656">
        <ele>449.9</ele>
        <time>2018-05-19T10:50:18Z</time>
      </trkpt>
      <trkpt lat="44.09647" lon="2.99656">
        <ele>450</ele>
        <time>2018-05-19T10:50:19Z</time>
      </trkpt>
      <trkpt lat="44.0965" lon="2.99656">
        <ele>450.3</ele>
        <time>2018-05-19T10:50:20Z</time>
      </trkpt>
      <trkpt lat="44.09653" lon="2.99657">
        <ele>450.5</ele>
        <time>2018-05-19T10:50:21Z</time>
      </trkpt>
      <trkpt lat="44.09656" lon="2.99658">
        <ele>450.8</ele>
        <time>2018-05-19T10:50:22Z</time>
      </trkpt>
      <trkpt lat="44.09659" lon="2.99658">
        <ele>451</ele>
        <time>2018-05-19T10:50:23Z</time>
      </trkpt>
      <trkpt lat="44.09662" lon="2.99658">
        <ele>451.3</ele>
        <time>2018-05-19T10:50:24Z</time>
      </trkpt>
      <trkpt lat="44.09666" lon="2.99658">
        <ele>451.6</ele>
        <time>2018-05-19T10:50:25Z</time>
      </trkpt>
      <trkpt lat="44.09669" lon="2.99658">
        <ele>451.9</ele>
        <time>2018-05-19T10:50:26Z</time>
      </trkpt>
      <trkpt lat="44.09673" lon="2.99658">
        <ele>452</ele>
        <time>2018-05-19T10:50:27Z</time>
      </trkpt>
      <trkpt lat="44.09677" lon="2.99658">
        <ele>452</ele>
        <time>2018-05-19T10:50:28Z</time>
      </trkpt>
      <trkpt lat="44.0968" lon="2.99658">
        <ele>452</ele>
        <time>2018-05-19T10:50:29Z</time>
      </trkpt>
      <trkpt lat="44.09683" lon="2.99659">
        <ele>452</ele>
        <time>2018-05-19T10:50:30Z</time>
      </trkpt>
      <trkpt lat="44.09687" lon="2.9966">
        <ele>452.1</ele>
        <time>2018-05-19T10:50:31Z</time>
      </trkpt>
      <trkpt lat="44.0969" lon="2.9966">
        <ele>452.2</ele>
        <time>2018-05-19T10:50:32Z</time>
      </trkpt>
      <trkpt lat="44.09693" lon="2.99661">
        <ele>452.1</ele>
        <time>2018-05-19T10:50:33Z</time>
      </trkpt>
      <trkpt lat="44.09696" lon="2.99661">
        <ele>452</ele>
        <time>2018-05-19T10:50:34Z</time>
      </trkpt>
      <trkpt lat="44.09701" lon="2.99662">
        <ele>452.1</ele>
        <time>2018-05-19T10:50:36Z</time>
      </trkpt>
      <trkpt lat="44.09706" lon="2.99662">
        <ele>452.2</ele>
        <time>2018-05-19T10:50:38Z</time>
      </trkpt>
      <trkpt lat="44.09711" lon="2.99663">
        <ele>452.1</ele>
        <time>2018-05-19T10:50:40Z</time>
      </trkpt>
      <trkpt lat="44.09716" lon="2.99663">
        <ele>452.1</ele>
        <time>2018-05-19T10:50:42Z</time>
      </trkpt>
      <trkpt lat="44.09719" lon="2.99663">
        <ele>452.1</ele>
        <time>2018-05-19T10:50:43Z</time>
      </trkpt>
      <trkpt lat="44.09724" lon="2.99664">
        <ele>452.1</ele>
        <time>2018-05-19T10:50:45Z</time>
      </trkpt>
      <trkpt lat="44.09729" lon="2.99664">
        <ele>452</ele>
        <time>2018-05-19T10:50:47Z</time>
      </trkpt>
      <trkpt lat="44.09734" lon="2.99665">
        <ele>452</ele>
        <time>2018-05-19T10:50:49Z</time>
      </trkpt>
      <trkpt lat="44.09739" lon="2.99666">
        <ele>452</ele>
        <time>2018-05-19T10:50:51Z</time>
      </trkpt>
      <trkpt lat="44.09743" lon="2.99667">
        <ele>451.9</ele>
        <time>2018-05-19T10:50:53Z</time>
      </trkpt>
      <trkpt lat="44.09748" lon="2.99668">
        <ele>451.8</ele>
        <time>2018-05-19T10:50:55Z</time>
      </trkpt>
      <trkpt lat="44.09752" lon="2.99668">
        <ele>451.8</ele>
        <time>2018-05-19T10:50:57Z</time>
      </trkpt>
      <trkpt lat="44.09757" lon="2.99669">
        <ele>451.7</ele>
        <time>2018-05-19T10:50:59Z</time>
      </trkpt>
      <trkpt lat="44.09761" lon="2.9967">
        <ele>451.6</ele>
        <time>2018-05-19T10:51:01Z</time>
      </trkpt>
      <trkpt lat="44.09765" lon="2.99671">
        <ele>451.6</ele>
        <time>2018-05-19T10:51:03Z</time>
      </trkpt>
      <trkpt lat="44.09769" lon="2.99673">
        <ele>451.5</ele>
        <time>2018-05-19T10:51:05Z</time>
      </trkpt>
      <trkpt lat="44.09773" lon="2.99674">
        <ele>451.4</ele>
        <time>2018-05-19T10:51:07Z</time>
      </trkpt>
      <trkpt lat="44.09777" lon="2.99675">
        <ele>451.4</ele>
        <time>2018-05-19T10:51:09Z</time>
      </trkpt>
      <trkpt lat="44.09782" lon="2.99675">
        <ele>451.3</ele>
        <time>2018-05-19T10:51:11Z</time>
      </trkpt>
      <trkpt lat="44.09786" lon="2.99676">
        <ele>451.2</ele>
        <time>2018-05-19T10:51:13Z</time>
      </trkpt>
      <trkpt lat="44.0979" lon="2.99677">
        <ele>451.1</ele>
        <time>2018-05-19T10:51:15Z</time>
      </trkpt>
      <trkpt lat="44.09795" lon="2.99678">
        <ele>450.9</ele>
        <time>2018-05-19T10:51:17Z</time>
      </trkpt>
      <trkpt lat="44.09799" lon="2.99678">
        <ele>450.8</ele>
        <time>2018-05-19T10:51:19Z</time>
      </trkpt>
      <trkpt lat="44.09803" lon="2.99679">
        <ele>450.7</ele>
        <time>2018-05-19T10:51:21Z</time>
      </trkpt>
      <trkpt lat="44.09807" lon="2.99679">
        <ele>450.6</ele>
        <time>2018-05-19T10:51:23Z</time>
      </trkpt>
      <trkpt lat="44.09811" lon="2.9968">
        <ele>450.4</ele>
        <time>2018-05-19T10:51:25Z</time>
      </trkpt>
      <trkpt lat="44.09816" lon="2.9968">
        <ele>450.3</ele>
        <time>2018-05-19T10:51:27Z</time>
      </trkpt>
      <trkpt lat="44.09819" lon="2.9968">
        <ele>450.2</ele>
        <time>2018-05-19T10:51:29Z</time>
      </trkpt>
      <trkpt lat="44.09824" lon="2.9968">
        <ele>450</ele>
        <time>2018-05-19T10:51:31Z</time>
      </trkpt>
      <trkpt lat="44.09828" lon="2.9968">
        <ele>450.3</ele>
        <time>2018-05-19T10:51:33Z</time>
      </trkpt>
      <trkpt lat="44.09832" lon="2.9968">
        <ele>450.7</ele>
        <time>2018-05-19T10:51:35Z</time>
      </trkpt>
      <trkpt lat="44.09836" lon="2.9968">
        <ele>451</ele>
        <time>2018-05-19T10:51:37Z</time>
      </trkpt>
      <trkpt lat="44.0984" lon="2.99679">
        <ele>451.4</ele>
        <time>2018-05-19T10:51:39Z</time>
      </trkpt>
      <trkpt lat="44.09844" lon="2.99678">
        <ele>451.8</ele>
        <time>2018-05-19T10:51:41Z</time>
      </trkpt>
      <trkpt lat="44.09848" lon="2.99676">
        <ele>452.3</ele>
        <time>2018-05-19T10:51:43Z</time>
      </trkpt>
      <trkpt lat="44.09852" lon="2.99675">
        <ele>452.7</ele>
        <time>2018-05-19T10:51:45Z</time>
      </trkpt>
      <trkpt lat="44.09856" lon="2.99672">
        <ele>453</ele>
        <time>2018-05-19T10:51:47Z</time>
      </trkpt>
      <trkpt lat="44.0986" lon="2.9967">
        <ele>453.2</ele>
        <time>2018-05-19T10:51:49Z</time>
      </trkpt>
      <trkpt lat="44.09865" lon="2.99668">
        <ele>453.5</ele>
        <time>2018-05-19T10:51:51Z</time>
      </trkpt>
      <trkpt lat="44.09869" lon="2.99665">
        <ele>453.7</ele>
        <time>2018-05-19T10:51:53Z</time>
      </trkpt>
      <trkpt lat="44.09874" lon="2.99662">
        <ele>454</ele>
        <time>2018-05-19T10:51:55Z</time>
      </trkpt>
      <trkpt lat="44.09879" lon="2.9966">
        <ele>454.2</ele>
        <time>2018-05-19T10:51:57Z</time>
      </trkpt>
      <trkpt lat="44.09883" lon="2.99657">
        <ele>454.4</ele>
        <time>2018-05-19T10:51:59Z</time>
      </trkpt>
      <trkpt lat="44.09887" lon="2.99653">
        <ele>454.7</ele>
        <time>2018-05-19T10:52:01Z</time>
      </trkpt>
      <trkpt lat="44.09892" lon="2.9965">
        <ele>454.9</ele>
        <time>2018-05-19T10:52:03Z</time>
      </trkpt>
      <trkpt lat="44.09897" lon="2.99648">
        <ele>455.2</ele>
        <time>2018-05-19T10:52:05Z</time>
      </trkpt>
      <trkpt lat="44.09901" lon="2.99646">
        <ele>455.4</ele>
        <time>2018-05-19T10:52:07Z</time>
      </trkpt>
      <trkpt lat="44.09906" lon="2.99643">
        <ele>455.6</ele>
        <time>2018-05-19T10:52:09Z</time>
      </trkpt>
      <trkpt lat="44.09911" lon="2.99642">
        <ele>455.8</ele>
        <time>2018-05-19T10:52:11Z</time>
      </trkpt>
      <trkpt lat="44.09916" lon="2.99641">
        <ele>456.1</ele>
        <time>2018-05-19T10:52:13Z</time>
      </trkpt>
      <trkpt lat="44.09921" lon="2.9964">
        <ele>456.3</ele>
        <time>2018-05-19T10:52:15Z</time>
      </trkpt>
      <trkpt lat="44.09926" lon="2.99639">
        <ele>456.5</ele>
        <time>2018-05-19T10:52:17Z</time>
      </trkpt>
      <trkpt lat="44.09931" lon="2.99638">
        <ele>456.7</ele>
        <time>2018-05-19T10:52:19Z</time>
      </trkpt>
      <trkpt lat="44.09936" lon="2.99637">
        <ele>456.9</ele>
        <time>2018-05-19T10:52:21Z</time>
      </trkpt>
      <trkpt lat="44.0994" lon="2.99636">
        <ele>457.1</ele>
        <time>2018-05-19T10:52:23Z</time>
      </trkpt>
      <trkpt lat="44.09945" lon="2.99635">
        <ele>457.3</ele>
        <time>2018-05-19T10:52:25Z</time>
      </trkpt>
      <trkpt lat="44.09948" lon="2.99635">
        <ele>457.4</ele>
        <time>2018-05-19T10:52:26Z</time>
      </trkpt>
      <trkpt lat="44.09953" lon="2.99635">
        <ele>457.6</ele>
        <time>2018-05-19T10:52:28Z</time>
      </trkpt>
      <trkpt lat="44.09958" lon="2.99634">
        <ele>457.9</ele>
        <time>2018-05-19T10:52:30Z</time>
      </trkpt>
      <trkpt lat="44.09963" lon="2.99633">
        <ele>458.1</ele>
        <time>2018-05-19T10:52:32Z</time>
      </trkpt>
      <trkpt lat="44.09968" lon="2.99631">
        <ele>458.3</ele>
        <time>2018-05-19T10:52:34Z</time>
      </trkpt>
      <trkpt lat="44.09971" lon="2.9963">
        <ele>458.4</ele>
        <time>2018-05-19T10:52:35Z</time>
      </trkpt>
      <trkpt lat="44.09975" lon="2.99629">
        <ele>458.6</ele>
        <time>2018-05-19T10:52:36Z</time>
      </trkpt>
      <trkpt lat="44.09978" lon="2.99628">
        <ele>458.7</ele>
        <time>2018-05-19T10:52:37Z</time>
      </trkpt>
      <trkpt lat="44.09981" lon="2.99627">
        <ele>458.9</ele>
        <time>2018-05-19T10:52:38Z</time>
      </trkpt>
      <trkpt lat="44.09984" lon="2.99626">
        <ele>459</ele>
        <time>2018-05-19T10:52:39Z</time>
      </trkpt>
      <trkpt lat="44.09987" lon="2.99625">
        <ele>459.1</ele>
        <time>2018-05-19T10:52:40Z</time>
      </trkpt>
      <trkpt lat="44.0999" lon="2.99624">
        <ele>459.3</ele>
        <time>2018-05-19T10:52:41Z</time>
      </trkpt>
      <trkpt lat="44.09993" lon="2.99622">
        <ele>459.4</ele>
        <time>2018-05-19T10:52:42Z</time>
      </trkpt>
      <trkpt lat="44.09996" lon="2.99621">
        <ele>459.6</ele>
        <time>2018-05-19T10:52:43Z</time>
      </trkpt>
      <trkpt lat="44.09999" lon="2.9962">
        <ele>459.7</ele>
        <time>2018-05-19T10:52:44Z</time>
      </trkpt>
      <trkpt lat="44.10001" lon="2.99618">
        <ele>459.9</ele>
        <time>2018-05-19T10:52:45Z</time>
      </trkpt>
      <trkpt lat="44.10004" lon="2.99617">
        <ele>460</ele>
        <time>2018-05-19T10:52:46Z</time>
      </trkpt>
      <trkpt lat="44.10007" lon="2.99616">
        <ele>460.1</ele>
        <time>2018-05-19T10:52:47Z</time>
      </trkpt>
      <trkpt lat="44.1001" lon="2.99614">
        <ele>460.3</ele>
        <time>2018-05-19T10:52:48Z</time>
      </trkpt>
      <trkpt lat="44.10013" lon="2.99613">
        <ele>460.4</ele>
        <time>2018-05-19T10:52:49Z</time>
      </trkpt>
      <trkpt lat="44.10018" lon="2.99611">
        <ele>460.6</ele>
        <time>2018-05-19T10:52:51Z</time>
      </trkpt>
      <trkpt lat="44.1002" lon="2.9961">
        <ele>460.8</ele>
        <time>2018-05-19T10:52:52Z</time>
      </trkpt>
      <trkpt lat="44.10023" lon="2.99609">
        <ele>461</ele>
        <time>2018-05-19T10:52:53Z</time>
      </trkpt>
      <trkpt lat="44.10026" lon="2.99608">
        <ele>461.3</ele>
        <time>2018-05-19T10:52:54Z</time>
      </trkpt>
      <trkpt lat="44.10031" lon="2.99608">
        <ele>461.8</ele>
        <time>2018-05-19T10:52:56Z</time>
      </trkpt>
      <trkpt lat="44.10035" lon="2.99606">
        <ele>462.2</ele>
        <time>2018-05-19T10:52:58Z</time>
      </trkpt>
      <trkpt lat="44.10039" lon="2.99604">
        <ele>462.7</ele>
        <time>2018-05-19T10:53:00Z</time>
      </trkpt>
      <trkpt lat="44.10042" lon="2.99603">
        <ele>463.1</ele>
        <time>2018-05-19T10:53:01Z</time>
      </trkpt>
      <trkpt lat="44.10045" lon="2.99601">
        <ele>463.4</ele>
        <time>2018-05-19T10:53:02Z</time>
      </trkpt>
      <trkpt lat="44.10048" lon="2.99599">
        <ele>463.9</ele>
        <time>2018-05-19T10:53:04Z</time>
      </trkpt>
      <trkpt lat="44.10051" lon="2.99597">
        <ele>464.2</ele>
        <time>2018-05-19T10:53:05Z</time>
      </trkpt>
      <trkpt lat="44.10055" lon="2.99594">
        <ele>464.7</ele>
        <time>2018-05-19T10:53:07Z</time>
      </trkpt>
      <trkpt lat="44.10058" lon="2.9959">
        <ele>465</ele>
        <time>2018-05-19T10:53:09Z</time>
      </trkpt>
      <trkpt lat="44.1006" lon="2.99588">
        <ele>464.9</ele>
        <time>2018-05-19T10:53:12Z</time>
      </trkpt>
      <trkpt lat="44.10064" lon="2.99585">
        <ele>464.7</ele>
        <time>2018-05-19T10:53:28Z</time>
      </trkpt>
      <trkpt lat="44.10065" lon="2.99579">
        <ele>464.5</ele>
        <time>2018-05-19T10:53:30Z</time>
      </trkpt>
      <trkpt lat="44.10067" lon="2.99573">
        <ele>464.2</ele>
        <time>2018-05-19T10:53:32Z</time>
      </trkpt>
      <trkpt lat="44.10069" lon="2.9957">
        <ele>464.1</ele>
        <time>2018-05-19T10:53:33Z</time>
      </trkpt>
      <trkpt lat="44.10071" lon="2.99567">
        <ele>463.9</ele>
        <time>2018-05-19T10:53:34Z</time>
      </trkpt>
      <trkpt lat="44.10073" lon="2.99563">
        <ele>463.7</ele>
        <time>2018-05-19T10:53:35Z</time>
      </trkpt>
      <trkpt lat="44.10075" lon="2.99559">
        <ele>463.6</ele>
        <time>2018-05-19T10:53:36Z</time>
      </trkpt>
      <trkpt lat="44.10077" lon="2.99555">
        <ele>463.5</ele>
        <time>2018-05-19T10:53:37Z</time>
      </trkpt>
      <trkpt lat="44.1008" lon="2.9955">
        <ele>463.5</ele>
        <time>2018-05-19T10:53:38Z</time>
      </trkpt>
      <trkpt lat="44.10082" lon="2.99545">
        <ele>463.4</ele>
        <time>2018-05-19T10:53:39Z</time>
      </trkpt>
      <trkpt lat="44.10085" lon="2.9954">
        <ele>463.3</ele>
        <time>2018-05-19T10:53:40Z</time>
      </trkpt>
      <trkpt lat="44.10087" lon="2.99536">
        <ele>463.2</ele>
        <time>2018-05-19T10:53:41Z</time>
      </trkpt>
      <trkpt lat="44.1009" lon="2.99532">
        <ele>463.1</ele>
        <time>2018-05-19T10:53:42Z</time>
      </trkpt>
      <trkpt lat="44.10093" lon="2.9953">
        <ele>463</ele>
        <time>2018-05-19T10:53:43Z</time>
      </trkpt>
      <trkpt lat="44.10097" lon="2.99525">
        <ele>463</ele>
        <time>2018-05-19T10:53:44Z</time>
      </trkpt>
      <trkpt lat="44.101" lon="2.99521">
        <ele>462.9</ele>
        <time>2018-05-19T10:53:45Z</time>
      </trkpt>
      <trkpt lat="44.10104" lon="2.99516">
        <ele>462.9</ele>
        <time>2018-05-19T10:53:46Z</time>
      </trkpt>
      <trkpt lat="44.10108" lon="2.99511">
        <ele>462.8</ele>
        <time>2018-05-19T10:53:47Z</time>
      </trkpt>
      <trkpt lat="44.10113" lon="2.99507">
        <ele>462.8</ele>
        <time>2018-05-19T10:53:48Z</time>
      </trkpt>
      <trkpt lat="44.10117" lon="2.99504">
        <ele>462.7</ele>
        <time>2018-05-19T10:53:49Z</time>
      </trkpt>
      <trkpt lat="44.10121" lon="2.995">
        <ele>462.7</ele>
        <time>2018-05-19T10:53:50Z</time>
      </trkpt>
      <trkpt lat="44.10125" lon="2.99497">
        <ele>462.6</ele>
        <time>2018-05-19T10:53:51Z</time>
      </trkpt>
      <trkpt lat="44.10128" lon="2.99494">
        <ele>462.6</ele>
        <time>2018-05-19T10:53:52Z</time>
      </trkpt>
      <trkpt lat="44.10133" lon="2.99491">
        <ele>462.5</ele>
        <time>2018-05-19T10:53:53Z</time>
      </trkpt>
      <trkpt lat="44.10136" lon="2.99489">
        <ele>462.5</ele>
        <time>2018-05-19T10:53:54Z</time>
      </trkpt>
      <trkpt lat="44.1014" lon="2.99486">
        <ele>462.5</ele>
        <time>2018-05-19T10:53:55Z</time>
      </trkpt>
      <trkpt lat="44.10144" lon="2.99483">
        <ele>462.4</ele>
        <time>2018-05-19T10:53:56Z</time>
      </trkpt>
      <trkpt lat="44.10148" lon="2.9948">
        <ele>462.4</ele>
        <time>2018-05-19T10:53:57Z</time>
      </trkpt>
      <trkpt lat="44.10153" lon="2.99478">
        <ele>462.4</ele>
        <time>2018-05-19T10:53:58Z</time>
      </trkpt>
      <trkpt lat="44.10157" lon="2.99475">
        <ele>462.4</ele>
        <time>2018-05-19T10:53:59Z</time>
      </trkpt>
      <trkpt lat="44.10161" lon="2.99473">
        <ele>462.4</ele>
        <time>2018-05-19T10:54:00Z</time>
      </trkpt>
      <trkpt lat="44.10165" lon="2.99471">
        <ele>462.4</ele>
        <time>2018-05-19T10:54:01Z</time>
      </trkpt>
      <trkpt lat="44.10169" lon="2.99468">
        <ele>462.4</ele>
        <time>2018-05-19T10:54:02Z</time>
      </trkpt>
      <trkpt lat="44.10174" lon="2.99465">
        <ele>462.4</ele>
        <time>2018-05-19T10:54:03Z</time>
      </trkpt>
      <trkpt lat="44.10179" lon="2.99463">
        <ele>462.4</ele>
        <time>2018-05-19T10:54:04Z</time>
      </trkpt>
      <trkpt lat="44.10184" lon="2.99461">
        <ele>462.4</ele>
        <time>2018-05-19T10:54:05Z</time>
      </trkpt>
      <trkpt lat="44.10188" lon="2.99458">
        <ele>462.4</ele>
        <time>2018-05-19T10:54:06Z</time>
      </trkpt>
      <trkpt lat="44.10193" lon="2.99456">
        <ele>462.4</ele>
        <time>2018-05-19T10:54:07Z</time>
      </trkpt>
      <trkpt lat="44.10197" lon="2.99454">
        <ele>462.5</ele>
        <time>2018-05-19T10:54:08Z</time>
      </trkpt>
      <trkpt lat="44.10202" lon="2.99452">
        <ele>462.6</ele>
        <time>2018-05-19T10:54:09Z</time>
      </trkpt>
      <trkpt lat="44.10206" lon="2.9945">
        <ele>462.7</ele>
        <time>2018-05-19T10:54:10Z</time>
      </trkpt>
      <trkpt lat="44.1021" lon="2.99448">
        <ele>462.8</ele>
        <time>2018-05-19T10:54:11Z</time>
      </trkpt>
      <trkpt lat="44.10214" lon="2.99446">
        <ele>462.9</ele>
        <time>2018-05-19T10:54:12Z</time>
      </trkpt>
      <trkpt lat="44.10219" lon="2.99445">
        <ele>463</ele>
        <time>2018-05-19T10:54:13Z</time>
      </trkpt>
      <trkpt lat="44.10223" lon="2.99444">
        <ele>463.1</ele>
        <time>2018-05-19T10:54:14Z</time>
      </trkpt>
      <trkpt lat="44.10227" lon="2.99443">
        <ele>463.3</ele>
        <time>2018-05-19T10:54:15Z</time>
      </trkpt>
      <trkpt lat="44.10231" lon="2.99442">
        <ele>463.4</ele>
        <time>2018-05-19T10:54:16Z</time>
      </trkpt>
      <trkpt lat="44.10235" lon="2.9944">
        <ele>463.5</ele>
        <time>2018-05-19T10:54:17Z</time>
      </trkpt>
      <trkpt lat="44.10239" lon="2.9944">
        <ele>463.7</ele>
        <time>2018-05-19T10:54:18Z</time>
      </trkpt>
      <trkpt lat="44.10247" lon="2.99439">
        <ele>464.3</ele>
        <time>2018-05-19T10:54:20Z</time>
      </trkpt>
      <trkpt lat="44.10251" lon="2.99438">
        <ele>464.6</ele>
        <time>2018-05-19T10:54:21Z</time>
      </trkpt>
      <trkpt lat="44.10255" lon="2.99436">
        <ele>465</ele>
        <time>2018-05-19T10:54:22Z</time>
      </trkpt>
      <trkpt lat="44.1026" lon="2.99433">
        <ele>465.3</ele>
        <time>2018-05-19T10:54:23Z</time>
      </trkpt>
      <trkpt lat="44.10263" lon="2.99433">
        <ele>465.6</ele>
        <time>2018-05-19T10:54:24Z</time>
      </trkpt>
      <trkpt lat="44.10268" lon="2.99433">
        <ele>466</ele>
        <time>2018-05-19T10:54:25Z</time>
      </trkpt>
      <trkpt lat="44.10272" lon="2.99433">
        <ele>466.3</ele>
        <time>2018-05-19T10:54:26Z</time>
      </trkpt>
      <trkpt lat="44.10276" lon="2.99432">
        <ele>466.6</ele>
        <time>2018-05-19T10:54:27Z</time>
      </trkpt>
      <trkpt lat="44.10279" lon="2.99431">
        <ele>467.1</ele>
        <time>2018-05-19T10:54:28Z</time>
      </trkpt>
      <trkpt lat="44.10283" lon="2.9943">
        <ele>467.7</ele>
        <time>2018-05-19T10:54:29Z</time>
      </trkpt>
      <trkpt lat="44.10286" lon="2.9943">
        <ele>468.4</ele>
        <time>2018-05-19T10:54:30Z</time>
      </trkpt>
      <trkpt lat="44.1029" lon="2.99429">
        <ele>469</ele>
        <time>2018-05-19T10:54:31Z</time>
      </trkpt>
      <trkpt lat="44.10294" lon="2.99429">
        <ele>469.4</ele>
        <time>2018-05-19T10:54:32Z</time>
      </trkpt>
      <trkpt lat="44.10297" lon="2.99429">
        <ele>469.7</ele>
        <time>2018-05-19T10:54:33Z</time>
      </trkpt>
      <trkpt lat="44.10301" lon="2.99428">
        <ele>470</ele>
        <time>2018-05-19T10:54:34Z</time>
      </trkpt>
      <trkpt lat="44.10304" lon="2.99428">
        <ele>470.2</ele>
        <time>2018-05-19T10:54:35Z</time>
      </trkpt>
      <trkpt lat="44.10308" lon="2.99427">
        <ele>470.5</ele>
        <time>2018-05-19T10:54:36Z</time>
      </trkpt>
      <trkpt lat="44.10312" lon="2.99426">
        <ele>470.8</ele>
        <time>2018-05-19T10:54:37Z</time>
      </trkpt>
      <trkpt lat="44.10315" lon="2.99425">
        <ele>471.1</ele>
        <time>2018-05-19T10:54:38Z</time>
      </trkpt>
      <trkpt lat="44.1032" lon="2.99424">
        <ele>471.4</ele>
        <time>2018-05-19T10:54:39Z</time>
      </trkpt>
      <trkpt lat="44.10324" lon="2.99423">
        <ele>471.7</ele>
        <time>2018-05-19T10:54:40Z</time>
      </trkpt>
      <trkpt lat="44.10328" lon="2.99422">
        <ele>472.1</ele>
        <time>2018-05-19T10:54:41Z</time>
      </trkpt>
      <trkpt lat="44.10332" lon="2.99421">
        <ele>472.4</ele>
        <time>2018-05-19T10:54:42Z</time>
      </trkpt>
      <trkpt lat="44.10337" lon="2.9942">
        <ele>472.7</ele>
        <time>2018-05-19T10:54:43Z</time>
      </trkpt>
      <trkpt lat="44.10341" lon="2.99419">
        <ele>472.9</ele>
        <time>2018-05-19T10:54:44Z</time>
      </trkpt>
      <trkpt lat="44.10345" lon="2.99418">
        <ele>473.1</ele>
        <time>2018-05-19T10:54:45Z</time>
      </trkpt>
      <trkpt lat="44.10349" lon="2.99416">
        <ele>473.2</ele>
        <time>2018-05-19T10:54:46Z</time>
      </trkpt>
      <trkpt lat="44.10354" lon="2.99415">
        <ele>473.4</ele>
        <time>2018-05-19T10:54:47Z</time>
      </trkpt>
      <trkpt lat="44.10358" lon="2.99414">
        <ele>473.6</ele>
        <time>2018-05-19T10:54:48Z</time>
      </trkpt>
      <trkpt lat="44.10363" lon="2.99413">
        <ele>473.7</ele>
        <time>2018-05-19T10:54:49Z</time>
      </trkpt>
      <trkpt lat="44.10367" lon="2.99412">
        <ele>473.8</ele>
        <time>2018-05-19T10:54:50Z</time>
      </trkpt>
      <trkpt lat="44.10372" lon="2.9941">
        <ele>473.8</ele>
        <time>2018-05-19T10:54:51Z</time>
      </trkpt>
      <trkpt lat="44.10376" lon="2.99408">
        <ele>473.8</ele>
        <time>2018-05-19T10:54:52Z</time>
      </trkpt>
      <trkpt lat="44.10381" lon="2.99407">
        <ele>473.8</ele>
        <time>2018-05-19T10:54:53Z</time>
      </trkpt>
      <trkpt lat="44.10385" lon="2.99406">
        <ele>473.8</ele>
        <time>2018-05-19T10:54:54Z</time>
      </trkpt>
      <trkpt lat="44.10389" lon="2.99406">
        <ele>473.8</ele>
        <time>2018-05-19T10:54:55Z</time>
      </trkpt>
      <trkpt lat="44.10394" lon="2.99404">
        <ele>473.8</ele>
        <time>2018-05-19T10:54:56Z</time>
      </trkpt>
      <trkpt lat="44.10398" lon="2.99403">
        <ele>473.8</ele>
        <time>2018-05-19T10:54:57Z</time>
      </trkpt>
      <trkpt lat="44.10402" lon="2.99402">
        <ele>473.8</ele>
        <time>2018-05-19T10:54:58Z</time>
      </trkpt>
      <trkpt lat="44.10406" lon="2.99402">
        <ele>473.8</ele>
        <time>2018-05-19T10:54:59Z</time>
      </trkpt>
      <trkpt lat="44.1041" lon="2.99401">
        <ele>473.8</ele>
        <time>2018-05-19T10:55:00Z</time>
      </trkpt>
      <trkpt lat="44.10415" lon="2.994">
        <ele>473.7</ele>
        <time>2018-05-19T10:55:01Z</time>
      </trkpt>
      <trkpt lat="44.10419" lon="2.99399">
        <ele>473.6</ele>
        <time>2018-05-19T10:55:02Z</time>
      </trkpt>
      <trkpt lat="44.10424" lon="2.99398">
        <ele>473.6</ele>
        <time>2018-05-19T10:55:03Z</time>
      </trkpt>
      <trkpt lat="44.10428" lon="2.99397">
        <ele>473.5</ele>
        <time>2018-05-19T10:55:04Z</time>
      </trkpt>
      <trkpt lat="44.10432" lon="2.99396">
        <ele>473.4</ele>
        <time>2018-05-19T10:55:05Z</time>
      </trkpt>
      <trkpt lat="44.10436" lon="2.99395">
        <ele>473.4</ele>
        <time>2018-05-19T10:55:06Z</time>
      </trkpt>
      <trkpt lat="44.10439" lon="2.99395">
        <ele>473.3</ele>
        <time>2018-05-19T10:55:07Z</time>
      </trkpt>
      <trkpt lat="44.10443" lon="2.99396">
        <ele>473.3</ele>
        <time>2018-05-19T10:55:08Z</time>
      </trkpt>
      <trkpt lat="44.10448" lon="2.99395">
        <ele>473.2</ele>
        <time>2018-05-19T10:55:09Z</time>
      </trkpt>
      <trkpt lat="44.10453" lon="2.99393">
        <ele>473.1</ele>
        <time>2018-05-19T10:55:10Z</time>
      </trkpt>
      <trkpt lat="44.10458" lon="2.99393">
        <ele>473</ele>
        <time>2018-05-19T10:55:11Z</time>
      </trkpt>
      <trkpt lat="44.10463" lon="2.99391">
        <ele>472.9</ele>
        <time>2018-05-19T10:55:12Z</time>
      </trkpt>
      <trkpt lat="44.10467" lon="2.99391">
        <ele>472.8</ele>
        <time>2018-05-19T10:55:13Z</time>
      </trkpt>
      <trkpt lat="44.10473" lon="2.99389">
        <ele>472.7</ele>
        <time>2018-05-19T10:55:14Z</time>
      </trkpt>
      <trkpt lat="44.10478" lon="2.99389">
        <ele>472.5</ele>
        <time>2018-05-19T10:55:15Z</time>
      </trkpt>
      <trkpt lat="44.10482" lon="2.99389">
        <ele>472.4</ele>
        <time>2018-05-19T10:55:16Z</time>
      </trkpt>
      <trkpt lat="44.10488" lon="2.99388">
        <ele>472.3</ele>
        <time>2018-05-19T10:55:17Z</time>
      </trkpt>
      <trkpt lat="44.10492" lon="2.99386">
        <ele>472.2</ele>
        <time>2018-05-19T10:55:18Z</time>
      </trkpt>
      <trkpt lat="44.10496" lon="2.99386">
        <ele>472.1</ele>
        <time>2018-05-19T10:55:19Z</time>
      </trkpt>
      <trkpt lat="44.10501" lon="2.99386">
        <ele>472</ele>
        <time>2018-05-19T10:55:20Z</time>
      </trkpt>
      <trkpt lat="44.10506" lon="2.99385">
        <ele>471.9</ele>
        <time>2018-05-19T10:55:21Z</time>
      </trkpt>
      <trkpt lat="44.10511" lon="2.99385">
        <ele>471.8</ele>
        <time>2018-05-19T10:55:22Z</time>
      </trkpt>
      <trkpt lat="44.10516" lon="2.99384">
        <ele>471.7</ele>
        <time>2018-05-19T10:55:23Z</time>
      </trkpt>
      <trkpt lat="44.1052" lon="2.99385">
        <ele>471.7</ele>
        <time>2018-05-19T10:55:24Z</time>
      </trkpt>
      <trkpt lat="44.10525" lon="2.99385">
        <ele>471.6</ele>
        <time>2018-05-19T10:55:25Z</time>
      </trkpt>
      <trkpt lat="44.10529" lon="2.99385">
        <ele>471.5</ele>
        <time>2018-05-19T10:55:26Z</time>
      </trkpt>
      <trkpt lat="44.10533" lon="2.99386">
        <ele>471.4</ele>
        <time>2018-05-19T10:55:27Z</time>
      </trkpt>
      <trkpt lat="44.10537" lon="2.99387">
        <ele>471.4</ele>
        <time>2018-05-19T10:55:28Z</time>
      </trkpt>
      <trkpt lat="44.10541" lon="2.99387">
        <ele>471.3</ele>
        <time>2018-05-19T10:55:29Z</time>
      </trkpt>
      <trkpt lat="44.10546" lon="2.99387">
        <ele>471.2</ele>
        <time>2018-05-19T10:55:30Z</time>
      </trkpt>
      <trkpt lat="44.1055" lon="2.99387">
        <ele>471.1</ele>
        <time>2018-05-19T10:55:31Z</time>
      </trkpt>
      <trkpt lat="44.10555" lon="2.99387">
        <ele>471.1</ele>
        <time>2018-05-19T10:55:32Z</time>
      </trkpt>
      <trkpt lat="44.10559" lon="2.99387">
        <ele>471</ele>
        <time>2018-05-19T10:55:33Z</time>
      </trkpt>
      <trkpt lat="44.10563" lon="2.99387">
        <ele>470.8</ele>
        <time>2018-05-19T10:55:34Z</time>
      </trkpt>
      <trkpt lat="44.10568" lon="2.99387">
        <ele>470.6</ele>
        <time>2018-05-19T10:55:35Z</time>
      </trkpt>
      <trkpt lat="44.10572" lon="2.99387">
        <ele>470.4</ele>
        <time>2018-05-19T10:55:36Z</time>
      </trkpt>
      <trkpt lat="44.10576" lon="2.99387">
        <ele>470.3</ele>
        <time>2018-05-19T10:55:37Z</time>
      </trkpt>
      <trkpt lat="44.10579" lon="2.99387">
        <ele>470.1</ele>
        <time>2018-05-19T10:55:38Z</time>
      </trkpt>
      <trkpt lat="44.10583" lon="2.99388">
        <ele>470</ele>
        <time>2018-05-19T10:55:39Z</time>
      </trkpt>
      <trkpt lat="44.10587" lon="2.99388">
        <ele>469.8</ele>
        <time>2018-05-19T10:55:40Z</time>
      </trkpt>
      <trkpt lat="44.10591" lon="2.99387">
        <ele>469.6</ele>
        <time>2018-05-19T10:55:41Z</time>
      </trkpt>
      <trkpt lat="44.10595" lon="2.99387">
        <ele>469.5</ele>
        <time>2018-05-19T10:55:42Z</time>
      </trkpt>
      <trkpt lat="44.10599" lon="2.99386">
        <ele>469.3</ele>
        <time>2018-05-19T10:55:43Z</time>
      </trkpt>
      <trkpt lat="44.10603" lon="2.99386">
        <ele>469.1</ele>
        <time>2018-05-19T10:55:44Z</time>
      </trkpt>
      <trkpt lat="44.10607" lon="2.99386">
        <ele>469</ele>
        <time>2018-05-19T10:55:45Z</time>
      </trkpt>
      <trkpt lat="44.10611" lon="2.99386">
        <ele>469</ele>
        <time>2018-05-19T10:55:46Z</time>
      </trkpt>
      <trkpt lat="44.10616" lon="2.99387">
        <ele>469</ele>
        <time>2018-05-19T10:55:47Z</time>
      </trkpt>
      <trkpt lat="44.1062" lon="2.99387">
        <ele>469</ele>
        <time>2018-05-19T10:55:48Z</time>
      </trkpt>
      <trkpt lat="44.10624" lon="2.99387">
        <ele>469</ele>
        <time>2018-05-19T10:55:49Z</time>
      </trkpt>
      <trkpt lat="44.10628" lon="2.99387">
        <ele>469.1</ele>
        <time>2018-05-19T10:55:50Z</time>
      </trkpt>
      <trkpt lat="44.10632" lon="2.99388">
        <ele>469.1</ele>
        <time>2018-05-19T10:55:51Z</time>
      </trkpt>
      <trkpt lat="44.10636" lon="2.99388">
        <ele>469.1</ele>
        <time>2018-05-19T10:55:52Z</time>
      </trkpt>
      <trkpt lat="44.1064" lon="2.99388">
        <ele>469.1</ele>
        <time>2018-05-19T10:55:53Z</time>
      </trkpt>
      <trkpt lat="44.10644" lon="2.99388">
        <ele>469.1</ele>
        <time>2018-05-19T10:55:54Z</time>
      </trkpt>
      <trkpt lat="44.10648" lon="2.99388">
        <ele>469.1</ele>
        <time>2018-05-19T10:55:55Z</time>
      </trkpt>
      <trkpt lat="44.10652" lon="2.99389">
        <ele>469.1</ele>
        <time>2018-05-19T10:55:56Z</time>
      </trkpt>
      <trkpt lat="44.10656" lon="2.99389">
        <ele>469.1</ele>
        <time>2018-05-19T10:55:57Z</time>
      </trkpt>
      <trkpt lat="44.1066" lon="2.9939">
        <ele>469.1</ele>
        <time>2018-05-19T10:55:58Z</time>
      </trkpt>
      <trkpt lat="44.10664" lon="2.9939">
        <ele>469.1</ele>
        <time>2018-05-19T10:55:59Z</time>
      </trkpt>
      <trkpt lat="44.10668" lon="2.99391">
        <ele>469.2</ele>
        <time>2018-05-19T10:56:00Z</time>
      </trkpt>
      <trkpt lat="44.10672" lon="2.99391">
        <ele>469.2</ele>
        <time>2018-05-19T10:56:01Z</time>
      </trkpt>
      <trkpt lat="44.10676" lon="2.99391">
        <ele>469.2</ele>
        <time>2018-05-19T10:56:02Z</time>
      </trkpt>
      <trkpt lat="44.1068" lon="2.99392">
        <ele>469.2</ele>
        <time>2018-05-19T10:56:03Z</time>
      </trkpt>
      <trkpt lat="44.10684" lon="2.99392">
        <ele>469.2</ele>
        <time>2018-05-19T10:56:04Z</time>
      </trkpt>
      <trkpt lat="44.10689" lon="2.99392">
        <ele>469.2</ele>
        <time>2018-05-19T10:56:05Z</time>
      </trkpt>
      <trkpt lat="44.10693" lon="2.99392">
        <ele>469.2</ele>
        <time>2018-05-19T10:56:06Z</time>
      </trkpt>
      <trkpt lat="44.10697" lon="2.99393">
        <ele>469.2</ele>
        <time>2018-05-19T10:56:07Z</time>
      </trkpt>
      <trkpt lat="44.10702" lon="2.99393">
        <ele>469.2</ele>
        <time>2018-05-19T10:56:08Z</time>
      </trkpt>
      <trkpt lat="44.10706" lon="2.99393">
        <ele>469.3</ele>
        <time>2018-05-19T10:56:09Z</time>
      </trkpt>
      <trkpt lat="44.10711" lon="2.99394">
        <ele>469.3</ele>
        <time>2018-05-19T10:56:10Z</time>
      </trkpt>
      <trkpt lat="44.10716" lon="2.99394">
        <ele>469.3</ele>
        <time>2018-05-19T10:56:11Z</time>
      </trkpt>
      <trkpt lat="44.1072" lon="2.99394">
        <ele>469.4</ele>
        <time>2018-05-19T10:56:12Z</time>
      </trkpt>
      <trkpt lat="44.10725" lon="2.99395">
        <ele>469.4</ele>
        <time>2018-05-19T10:56:13Z</time>
      </trkpt>
      <trkpt lat="44.1073" lon="2.99395">
        <ele>469.4</ele>
        <time>2018-05-19T10:56:14Z</time>
      </trkpt>
      <trkpt lat="44.10734" lon="2.99395">
        <ele>469.4</ele>
        <time>2018-05-19T10:56:15Z</time>
      </trkpt>
      <trkpt lat="44.10738" lon="2.99396">
        <ele>469.5</ele>
        <time>2018-05-19T10:56:16Z</time>
      </trkpt>
      <trkpt lat="44.10742" lon="2.99396">
        <ele>469.5</ele>
        <time>2018-05-19T10:56:17Z</time>
      </trkpt>
      <trkpt lat="44.10747" lon="2.99397">
        <ele>469.5</ele>
        <time>2018-05-19T10:56:18Z</time>
      </trkpt>
      <trkpt lat="44.10751" lon="2.99397">
        <ele>469.5</ele>
        <time>2018-05-19T10:56:19Z</time>
      </trkpt>
      <trkpt lat="44.10755" lon="2.99398">
        <ele>469.6</ele>
        <time>2018-05-19T10:56:20Z</time>
      </trkpt>
      <trkpt lat="44.1076" lon="2.99398">
        <ele>469.6</ele>
        <time>2018-05-19T10:56:21Z</time>
      </trkpt>
      <trkpt lat="44.10763" lon="2.99399">
        <ele>469.7</ele>
        <time>2018-05-19T10:56:22Z</time>
      </trkpt>
      <trkpt lat="44.10767" lon="2.99399">
        <ele>469.8</ele>
        <time>2018-05-19T10:56:23Z</time>
      </trkpt>
      <trkpt lat="44.10771" lon="2.99399">
        <ele>469.9</ele>
        <time>2018-05-19T10:56:24Z</time>
      </trkpt>
      <trkpt lat="44.10776" lon="2.99399">
        <ele>470.1</ele>
        <time>2018-05-19T10:56:25Z</time>
      </trkpt>
      <trkpt lat="44.1078" lon="2.99399">
        <ele>470.2</ele>
        <time>2018-05-19T10:56:26Z</time>
      </trkpt>
      <trkpt lat="44.10784" lon="2.99399">
        <ele>470.4</ele>
        <time>2018-05-19T10:56:27Z</time>
      </trkpt>
      <trkpt lat="44.10788" lon="2.99399">
        <ele>470.5</ele>
        <time>2018-05-19T10:56:28Z</time>
      </trkpt>
      <trkpt lat="44.10792" lon="2.99399">
        <ele>470.7</ele>
        <time>2018-05-19T10:56:29Z</time>
      </trkpt>
      <trkpt lat="44.10796" lon="2.994">
        <ele>470.9</ele>
        <time>2018-05-19T10:56:30Z</time>
      </trkpt>
      <trkpt lat="44.108" lon="2.99401">
        <ele>471.1</ele>
        <time>2018-05-19T10:56:31Z</time>
      </trkpt>
      <trkpt lat="44.10803" lon="2.99402">
        <ele>471.2</ele>
        <time>2018-05-19T10:56:32Z</time>
      </trkpt>
      <trkpt lat="44.10807" lon="2.99402">
        <ele>471.4</ele>
        <time>2018-05-19T10:56:33Z</time>
      </trkpt>
      <trkpt lat="44.10811" lon="2.99403">
        <ele>471.6</ele>
        <time>2018-05-19T10:56:34Z</time>
      </trkpt>
      <trkpt lat="44.10815" lon="2.99403">
        <ele>471.8</ele>
        <time>2018-05-19T10:56:35Z</time>
      </trkpt>
      <trkpt lat="44.10818" lon="2.99403">
        <ele>471.9</ele>
        <time>2018-05-19T10:56:36Z</time>
      </trkpt>
      <trkpt lat="44.10822" lon="2.99402">
        <ele>472.1</ele>
        <time>2018-05-19T10:56:37Z</time>
      </trkpt>
      <trkpt lat="44.10825" lon="2.99403">
        <ele>472.2</ele>
        <time>2018-05-19T10:56:38Z</time>
      </trkpt>
      <trkpt lat="44.10828" lon="2.99403">
        <ele>472.4</ele>
        <time>2018-05-19T10:56:39Z</time>
      </trkpt>
      <trkpt lat="44.10832" lon="2.99404">
        <ele>472.5</ele>
        <time>2018-05-19T10:56:40Z</time>
      </trkpt>
      <trkpt lat="44.10836" lon="2.99404">
        <ele>472.7</ele>
        <time>2018-05-19T10:56:41Z</time>
      </trkpt>
      <trkpt lat="44.10839" lon="2.99404">
        <ele>472.9</ele>
        <time>2018-05-19T10:56:42Z</time>
      </trkpt>
      <trkpt lat="44.10843" lon="2.99405">
        <ele>473</ele>
        <time>2018-05-19T10:56:43Z</time>
      </trkpt>
      <trkpt lat="44.10847" lon="2.99405">
        <ele>473.2</ele>
        <time>2018-05-19T10:56:44Z</time>
      </trkpt>
      <trkpt lat="44.1085" lon="2.99406">
        <ele>473.4</ele>
        <time>2018-05-19T10:56:45Z</time>
      </trkpt>
      <trkpt lat="44.10854" lon="2.99407">
        <ele>473.5</ele>
        <time>2018-05-19T10:56:46Z</time>
      </trkpt>
      <trkpt lat="44.10858" lon="2.99408">
        <ele>473.7</ele>
        <time>2018-05-19T10:56:47Z</time>
      </trkpt>
      <trkpt lat="44.10861" lon="2.99408">
        <ele>473.9</ele>
        <time>2018-05-19T10:56:48Z</time>
      </trkpt>
      <trkpt lat="44.10865" lon="2.99409">
        <ele>474</ele>
        <time>2018-05-19T10:56:49Z</time>
      </trkpt>
      <trkpt lat="44.10869" lon="2.9941">
        <ele>474.2</ele>
        <time>2018-05-19T10:56:50Z</time>
      </trkpt>
      <trkpt lat="44.10873" lon="2.9941">
        <ele>474.3</ele>
        <time>2018-05-19T10:56:51Z</time>
      </trkpt>
      <trkpt lat="44.10877" lon="2.99411">
        <ele>474.4</ele>
        <time>2018-05-19T10:56:52Z</time>
      </trkpt>
      <trkpt lat="44.1088" lon="2.99411">
        <ele>474.5</ele>
        <time>2018-05-19T10:56:53Z</time>
      </trkpt>
      <trkpt lat="44.10883" lon="2.99412">
        <ele>474.6</ele>
        <time>2018-05-19T10:56:54Z</time>
      </trkpt>
      <trkpt lat="44.10887" lon="2.99412">
        <ele>474.7</ele>
        <time>2018-05-19T10:56:55Z</time>
      </trkpt>
      <trkpt lat="44.10891" lon="2.99413">
        <ele>474.8</ele>
        <time>2018-05-19T10:56:56Z</time>
      </trkpt>
      <trkpt lat="44.10894" lon="2.99414">
        <ele>474.9</ele>
        <time>2018-05-19T10:56:57Z</time>
      </trkpt>
      <trkpt lat="44.10898" lon="2.99416">
        <ele>474.9</ele>
        <time>2018-05-19T10:56:58Z</time>
      </trkpt>
      <trkpt lat="44.10901" lon="2.99417">
        <ele>475</ele>
        <time>2018-05-19T10:56:59Z</time>
      </trkpt>
      <trkpt lat="44.10905" lon="2.99418">
        <ele>475</ele>
        <time>2018-05-19T10:57:00Z</time>
      </trkpt>
      <trkpt lat="44.10909" lon="2.99419">
        <ele>475.1</ele>
        <time>2018-05-19T10:57:01Z</time>
      </trkpt>
      <trkpt lat="44.10913" lon="2.9942">
        <ele>475.1</ele>
        <time>2018-05-19T10:57:02Z</time>
      </trkpt>
      <trkpt lat="44.10916" lon="2.99421">
        <ele>475.1</ele>
        <time>2018-05-19T10:57:03Z</time>
      </trkpt>
      <trkpt lat="44.1092" lon="2.99422">
        <ele>475.2</ele>
        <time>2018-05-19T10:57:04Z</time>
      </trkpt>
      <trkpt lat="44.10924" lon="2.99422">
        <ele>475.2</ele>
        <time>2018-05-19T10:57:05Z</time>
      </trkpt>
      <trkpt lat="44.10928" lon="2.99423">
        <ele>475.3</ele>
        <time>2018-05-19T10:57:06Z</time>
      </trkpt>
      <trkpt lat="44.10932" lon="2.99424">
        <ele>475.3</ele>
        <time>2018-05-19T10:57:07Z</time>
      </trkpt>
      <trkpt lat="44.10936" lon="2.99425">
        <ele>475.3</ele>
        <time>2018-05-19T10:57:08Z</time>
      </trkpt>
      <trkpt lat="44.1094" lon="2.99425">
        <ele>475.4</ele>
        <time>2018-05-19T10:57:09Z</time>
      </trkpt>
      <trkpt lat="44.10943" lon="2.99425">
        <ele>475.4</ele>
        <time>2018-05-19T10:57:10Z</time>
      </trkpt>
      <trkpt lat="44.10947" lon="2.99426">
        <ele>475.5</ele>
        <time>2018-05-19T10:57:11Z</time>
      </trkpt>
      <trkpt lat="44.10951" lon="2.99427">
        <ele>475.6</ele>
        <time>2018-05-19T10:57:12Z</time>
      </trkpt>
      <trkpt lat="44.10955" lon="2.99427">
        <ele>475.7</ele>
        <time>2018-05-19T10:57:13Z</time>
      </trkpt>
      <trkpt lat="44.1096" lon="2.99428">
        <ele>475.8</ele>
        <time>2018-05-19T10:57:14Z</time>
      </trkpt>
      <trkpt lat="44.10964" lon="2.99428">
        <ele>476</ele>
        <time>2018-05-19T10:57:15Z</time>
      </trkpt>
      <trkpt lat="44.10968" lon="2.99428">
        <ele>476.1</ele>
        <time>2018-05-19T10:57:16Z</time>
      </trkpt>
      <trkpt lat="44.10972" lon="2.99428">
        <ele>476.3</ele>
        <time>2018-05-19T10:57:17Z</time>
      </trkpt>
      <trkpt lat="44.10976" lon="2.99429">
        <ele>476.5</ele>
        <time>2018-05-19T10:57:18Z</time>
      </trkpt>
      <trkpt lat="44.10981" lon="2.99429">
        <ele>476.7</ele>
        <time>2018-05-19T10:57:19Z</time>
      </trkpt>
      <trkpt lat="44.10985" lon="2.99429">
        <ele>476.9</ele>
        <time>2018-05-19T10:57:20Z</time>
      </trkpt>
      <trkpt lat="44.1099" lon="2.9943">
        <ele>477.1</ele>
        <time>2018-05-19T10:57:21Z</time>
      </trkpt>
      <trkpt lat="44.10995" lon="2.9943">
        <ele>477.2</ele>
        <time>2018-05-19T10:57:22Z</time>
      </trkpt>
      <trkpt lat="44.10998" lon="2.99431">
        <ele>477.4</ele>
        <time>2018-05-19T10:57:23Z</time>
      </trkpt>
      <trkpt lat="44.11003" lon="2.99431">
        <ele>477.5</ele>
        <time>2018-05-19T10:57:24Z</time>
      </trkpt>
      <trkpt lat="44.11007" lon="2.99432">
        <ele>477.6</ele>
        <time>2018-05-19T10:57:25Z</time>
      </trkpt>
      <trkpt lat="44.11011" lon="2.99434">
        <ele>477.7</ele>
        <time>2018-05-19T10:57:26Z</time>
      </trkpt>
      <trkpt lat="44.11015" lon="2.99435">
        <ele>477.8</ele>
        <time>2018-05-19T10:57:27Z</time>
      </trkpt>
      <trkpt lat="44.11019" lon="2.99437">
        <ele>477.8</ele>
        <time>2018-05-19T10:57:28Z</time>
      </trkpt>
      <trkpt lat="44.11022" lon="2.9944">
        <ele>477.9</ele>
        <time>2018-05-19T10:57:29Z</time>
      </trkpt>
      <trkpt lat="44.11025" lon="2.99443">
        <ele>477.9</ele>
        <time>2018-05-19T10:57:30Z</time>
      </trkpt>
      <trkpt lat="44.11029" lon="2.99448">
        <ele>477.9</ele>
        <time>2018-05-19T10:57:31Z</time>
      </trkpt>
      <trkpt lat="44.11033" lon="2.99452">
        <ele>478</ele>
        <time>2018-05-19T10:57:32Z</time>
      </trkpt>
      <trkpt lat="44.11036" lon="2.99456">
        <ele>478.6</ele>
        <time>2018-05-19T10:57:33Z</time>
      </trkpt>
      <trkpt lat="44.1104" lon="2.99461">
        <ele>479.1</ele>
        <time>2018-05-19T10:57:34Z</time>
      </trkpt>
      <trkpt lat="44.11043" lon="2.99465">
        <ele>479.6</ele>
        <time>2018-05-19T10:57:35Z</time>
      </trkpt>
      <trkpt lat="44.11046" lon="2.99468">
        <ele>480</ele>
        <time>2018-05-19T10:57:36Z</time>
      </trkpt>
      <trkpt lat="44.11049" lon="2.99472">
        <ele>480.3</ele>
        <time>2018-05-19T10:57:37Z</time>
      </trkpt>
      <trkpt lat="44.11051" lon="2.99476">
        <ele>480.4</ele>
        <time>2018-05-19T10:57:38Z</time>
      </trkpt>
      <trkpt lat="44.11054" lon="2.99479">
        <ele>480.6</ele>
        <time>2018-05-19T10:57:39Z</time>
      </trkpt>
      <trkpt lat="44.11057" lon="2.99483">
        <ele>480.8</ele>
        <time>2018-05-19T10:57:40Z</time>
      </trkpt>
      <trkpt lat="44.1106" lon="2.99487">
        <ele>480.9</ele>
        <time>2018-05-19T10:57:41Z</time>
      </trkpt>
      <trkpt lat="44.11062" lon="2.99491">
        <ele>481</ele>
        <time>2018-05-19T10:57:42Z</time>
      </trkpt>
      <trkpt lat="44.11065" lon="2.99495">
        <ele>481.1</ele>
        <time>2018-05-19T10:57:43Z</time>
      </trkpt>
      <trkpt lat="44.11068" lon="2.99498">
        <ele>481.2</ele>
        <time>2018-05-19T10:57:44Z</time>
      </trkpt>
      <trkpt lat="44.11071" lon="2.99502">
        <ele>481.3</ele>
        <time>2018-05-19T10:57:45Z</time>
      </trkpt>
      <trkpt lat="44.11074" lon="2.99506">
        <ele>481.4</ele>
        <time>2018-05-19T10:57:46Z</time>
      </trkpt>
      <trkpt lat="44.11077" lon="2.99509">
        <ele>481.6</ele>
        <time>2018-05-19T10:57:47Z</time>
      </trkpt>
      <trkpt lat="44.1108" lon="2.99513">
        <ele>481.7</ele>
        <time>2018-05-19T10:57:48Z</time>
      </trkpt>
      <trkpt lat="44.11083" lon="2.99517">
        <ele>481.9</ele>
        <time>2018-05-19T10:57:49Z</time>
      </trkpt>
      <trkpt lat="44.11086" lon="2.9952">
        <ele>482.1</ele>
        <time>2018-05-19T10:57:50Z</time>
      </trkpt>
      <trkpt lat="44.1109" lon="2.99524">
        <ele>482.4</ele>
        <time>2018-05-19T10:57:51Z</time>
      </trkpt>
      <trkpt lat="44.11093" lon="2.99527">
        <ele>482.6</ele>
        <time>2018-05-19T10:57:52Z</time>
      </trkpt>
      <trkpt lat="44.11096" lon="2.99531">
        <ele>482.9</ele>
        <time>2018-05-19T10:57:53Z</time>
      </trkpt>
      <trkpt lat="44.111" lon="2.99534">
        <ele>483.2</ele>
        <time>2018-05-19T10:57:54Z</time>
      </trkpt>
      <trkpt lat="44.11103" lon="2.99537">
        <ele>483.6</ele>
        <time>2018-05-19T10:57:55Z</time>
      </trkpt>
      <trkpt lat="44.11106" lon="2.9954">
        <ele>483.8</ele>
        <time>2018-05-19T10:57:56Z</time>
      </trkpt>
      <trkpt lat="44.11109" lon="2.99543">
        <ele>484.2</ele>
        <time>2018-05-19T10:57:57Z</time>
      </trkpt>
      <trkpt lat="44.11112" lon="2.99547">
        <ele>484.6</ele>
        <time>2018-05-19T10:57:58Z</time>
      </trkpt>
      <trkpt lat="44.11115" lon="2.99551">
        <ele>485</ele>
        <time>2018-05-19T10:57:59Z</time>
      </trkpt>
      <trkpt lat="44.11118" lon="2.99554">
        <ele>485.4</ele>
        <time>2018-05-19T10:58:00Z</time>
      </trkpt>
      <trkpt lat="44.1112" lon="2.99557">
        <ele>485.6</ele>
        <time>2018-05-19T10:58:01Z</time>
      </trkpt>
      <trkpt lat="44.11123" lon="2.99561">
        <ele>485.9</ele>
        <time>2018-05-19T10:58:02Z</time>
      </trkpt>
      <trkpt lat="44.11125" lon="2.99564">
        <ele>486.1</ele>
        <time>2018-05-19T10:58:03Z</time>
      </trkpt>
      <trkpt lat="44.11128" lon="2.99568">
        <ele>486.2</ele>
        <time>2018-05-19T10:58:04Z</time>
      </trkpt>
      <trkpt lat="44.1113" lon="2.99571">
        <ele>486.3</ele>
        <time>2018-05-19T10:58:05Z</time>
      </trkpt>
      <trkpt lat="44.11132" lon="2.99575">
        <ele>486.4</ele>
        <time>2018-05-19T10:58:06Z</time>
      </trkpt>
      <trkpt lat="44.11135" lon="2.99579">
        <ele>486.5</ele>
        <time>2018-05-19T10:58:07Z</time>
      </trkpt>
      <trkpt lat="44.11137" lon="2.99583">
        <ele>486.6</ele>
        <time>2018-05-19T10:58:08Z</time>
      </trkpt>
      <trkpt lat="44.1114" lon="2.99587">
        <ele>486.7</ele>
        <time>2018-05-19T10:58:09Z</time>
      </trkpt>
      <trkpt lat="44.11142" lon="2.9959">
        <ele>486.8</ele>
        <time>2018-05-19T10:58:10Z</time>
      </trkpt>
      <trkpt lat="44.11145" lon="2.99594">
        <ele>487</ele>
        <time>2018-05-19T10:58:11Z</time>
      </trkpt>
      <trkpt lat="44.11147" lon="2.99598">
        <ele>487.2</ele>
        <time>2018-05-19T10:58:12Z</time>
      </trkpt>
      <trkpt lat="44.1115" lon="2.99602">
        <ele>487.5</ele>
        <time>2018-05-19T10:58:13Z</time>
      </trkpt>
      <trkpt lat="44.11152" lon="2.99607">
        <ele>487.8</ele>
        <time>2018-05-19T10:58:14Z</time>
      </trkpt>
      <trkpt lat="44.11155" lon="2.99611">
        <ele>488.1</ele>
        <time>2018-05-19T10:58:15Z</time>
      </trkpt>
      <trkpt lat="44.11158" lon="2.99615">
        <ele>488.4</ele>
        <time>2018-05-19T10:58:16Z</time>
      </trkpt>
      <trkpt lat="44.1116" lon="2.99619">
        <ele>488.6</ele>
        <time>2018-05-19T10:58:17Z</time>
      </trkpt>
      <trkpt lat="44.11163" lon="2.99623">
        <ele>488.8</ele>
        <time>2018-05-19T10:58:18Z</time>
      </trkpt>
      <trkpt lat="44.11165" lon="2.99626">
        <ele>488.9</ele>
        <time>2018-05-19T10:58:19Z</time>
      </trkpt>
      <trkpt lat="44.11167" lon="2.99629">
        <ele>489</ele>
        <time>2018-05-19T10:58:20Z</time>
      </trkpt>
      <trkpt lat="44.11169" lon="2.99634">
        <ele>489.2</ele>
        <time>2018-05-19T10:58:22Z</time>
      </trkpt>
      <trkpt lat="44.11169" lon="2.99639">
        <ele>489.3</ele>
        <time>2018-05-19T10:58:24Z</time>
      </trkpt>
      <trkpt lat="44.11167" lon="2.99644">
        <ele>489.4</ele>
        <time>2018-05-19T10:58:26Z</time>
      </trkpt>
      <trkpt lat="44.11165" lon="2.99648">
        <ele>489.5</ele>
        <time>2018-05-19T10:58:28Z</time>
      </trkpt>
      <trkpt lat="44.11163" lon="2.99653">
        <ele>489.5</ele>
        <time>2018-05-19T10:58:30Z</time>
      </trkpt>
      <trkpt lat="44.11163" lon="2.99658">
        <ele>489.5</ele>
        <time>2018-05-19T10:58:32Z</time>
      </trkpt>
      <trkpt lat="44.11162" lon="2.99663">
        <ele>489.6</ele>
        <time>2018-05-19T10:58:34Z</time>
      </trkpt>
      <trkpt lat="44.11163" lon="2.99669">
        <ele>489.6</ele>
        <time>2018-05-19T10:58:36Z</time>
      </trkpt>
      <trkpt lat="44.11164" lon="2.99674">
        <ele>489.6</ele>
        <time>2018-05-19T10:58:38Z</time>
      </trkpt>
      <trkpt lat="44.11167" lon="2.99679">
        <ele>489.6</ele>
        <time>2018-05-19T10:58:40Z</time>
      </trkpt>
      <trkpt lat="44.11169" lon="2.99684">
        <ele>489.7</ele>
        <time>2018-05-19T10:58:42Z</time>
      </trkpt>
      <trkpt lat="44.11172" lon="2.9969">
        <ele>489.7</ele>
        <time>2018-05-19T10:58:44Z</time>
      </trkpt>
      <trkpt lat="44.11175" lon="2.99695">
        <ele>489.7</ele>
        <time>2018-05-19T10:58:46Z</time>
      </trkpt>
      <trkpt lat="44.11177" lon="2.997">
        <ele>489.8</ele>
        <time>2018-05-19T10:58:48Z</time>
      </trkpt>
      <trkpt lat="44.1118" lon="2.99706">
        <ele>489.8</ele>
        <time>2018-05-19T10:58:50Z</time>
      </trkpt>
      <trkpt lat="44.11182" lon="2.99712">
        <ele>489.9</ele>
        <time>2018-05-19T10:58:52Z</time>
      </trkpt>
      <trkpt lat="44.11184" lon="2.99715">
        <ele>489.9</ele>
        <time>2018-05-19T10:58:53Z</time>
      </trkpt>
      <trkpt lat="44.11185" lon="2.99719">
        <ele>489.9</ele>
        <time>2018-05-19T10:58:54Z</time>
      </trkpt>
      <trkpt lat="44.11186" lon="2.99722">
        <ele>489.9</ele>
        <time>2018-05-19T10:58:55Z</time>
      </trkpt>
      <trkpt lat="44.11189" lon="2.99728">
        <ele>490.1</ele>
        <time>2018-05-19T10:58:57Z</time>
      </trkpt>
      <trkpt lat="44.11191" lon="2.99732">
        <ele>490.1</ele>
        <time>2018-05-19T10:58:58Z</time>
      </trkpt>
      <trkpt lat="44.11192" lon="2.99735">
        <ele>490.2</ele>
        <time>2018-05-19T10:58:59Z</time>
      </trkpt>
      <trkpt lat="44.11194" lon="2.99741">
        <ele>490.4</ele>
        <time>2018-05-19T10:59:01Z</time>
      </trkpt>
      <trkpt lat="44.11197" lon="2.99748">
        <ele>490.6</ele>
        <time>2018-05-19T10:59:03Z</time>
      </trkpt>
      <trkpt lat="44.11198" lon="2.99752">
        <ele>490.7</ele>
        <time>2018-05-19T10:59:04Z</time>
      </trkpt>
      <trkpt lat="44.112" lon="2.99756">
        <ele>490.8</ele>
        <time>2018-05-19T10:59:05Z</time>
      </trkpt>
      <trkpt lat="44.11201" lon="2.9976">
        <ele>491</ele>
        <time>2018-05-19T10:59:06Z</time>
      </trkpt>
      <trkpt lat="44.11203" lon="2.99764">
        <ele>491.1</ele>
        <time>2018-05-19T10:59:07Z</time>
      </trkpt>
      <trkpt lat="44.11204" lon="2.99768">
        <ele>491.3</ele>
        <time>2018-05-19T10:59:08Z</time>
      </trkpt>
      <trkpt lat="44.11205" lon="2.99772">
        <ele>491.4</ele>
        <time>2018-05-19T10:59:09Z</time>
      </trkpt>
      <trkpt lat="44.11206" lon="2.99775">
        <ele>491.6</ele>
        <time>2018-05-19T10:59:10Z</time>
      </trkpt>
      <trkpt lat="44.11207" lon="2.99779">
        <ele>491.7</ele>
        <time>2018-05-19T10:59:11Z</time>
      </trkpt>
      <trkpt lat="44.11208" lon="2.99784">
        <ele>491.9</ele>
        <time>2018-05-19T10:59:12Z</time>
      </trkpt>
      <trkpt lat="44.11209" lon="2.99788">
        <ele>492</ele>
        <time>2018-05-19T10:59:13Z</time>
      </trkpt>
      <trkpt lat="44.11211" lon="2.99792">
        <ele>492.2</ele>
        <time>2018-05-19T10:59:14Z</time>
      </trkpt>
      <trkpt lat="44.11212" lon="2.99797">
        <ele>492.3</ele>
        <time>2018-05-19T10:59:15Z</time>
      </trkpt>
      <trkpt lat="44.11214" lon="2.99801">
        <ele>492.5</ele>
        <time>2018-05-19T10:59:16Z</time>
      </trkpt>
      <trkpt lat="44.11215" lon="2.99805">
        <ele>492.6</ele>
        <time>2018-05-19T10:59:17Z</time>
      </trkpt>
      <trkpt lat="44.11217" lon="2.99809">
        <ele>492.8</ele>
        <time>2018-05-19T10:59:18Z</time>
      </trkpt>
      <trkpt lat="44.11219" lon="2.99813">
        <ele>492.9</ele>
        <time>2018-05-19T10:59:19Z</time>
      </trkpt>
      <trkpt lat="44.1122" lon="2.99817">
        <ele>493</ele>
        <time>2018-05-19T10:59:20Z</time>
      </trkpt>
      <trkpt lat="44.11222" lon="2.99821">
        <ele>493.1</ele>
        <time>2018-05-19T10:59:21Z</time>
      </trkpt>
      <trkpt lat="44.11224" lon="2.99825">
        <ele>493.2</ele>
        <time>2018-05-19T10:59:22Z</time>
      </trkpt>
      <trkpt lat="44.11225" lon="2.99829">
        <ele>493.3</ele>
        <time>2018-05-19T10:59:23Z</time>
      </trkpt>
      <trkpt lat="44.11227" lon="2.99833">
        <ele>493.4</ele>
        <time>2018-05-19T10:59:24Z</time>
      </trkpt>
      <trkpt lat="44.11229" lon="2.99837">
        <ele>493.5</ele>
        <time>2018-05-19T10:59:25Z</time>
      </trkpt>
      <trkpt lat="44.1123" lon="2.99841">
        <ele>493.5</ele>
        <time>2018-05-19T10:59:26Z</time>
      </trkpt>
      <trkpt lat="44.11232" lon="2.99844">
        <ele>493.6</ele>
        <time>2018-05-19T10:59:27Z</time>
      </trkpt>
      <trkpt lat="44.11234" lon="2.99848">
        <ele>493.6</ele>
        <time>2018-05-19T10:59:28Z</time>
      </trkpt>
      <trkpt lat="44.11236" lon="2.99851">
        <ele>493.7</ele>
        <time>2018-05-19T10:59:29Z</time>
      </trkpt>
      <trkpt lat="44.11238" lon="2.99855">
        <ele>493.7</ele>
        <time>2018-05-19T10:59:30Z</time>
      </trkpt>
      <trkpt lat="44.11239" lon="2.99859">
        <ele>493.8</ele>
        <time>2018-05-19T10:59:31Z</time>
      </trkpt>
      <trkpt lat="44.11241" lon="2.99863">
        <ele>493.8</ele>
        <time>2018-05-19T10:59:32Z</time>
      </trkpt>
      <trkpt lat="44.11243" lon="2.99866">
        <ele>493.9</ele>
        <time>2018-05-19T10:59:33Z</time>
      </trkpt>
      <trkpt lat="44.11245" lon="2.9987">
        <ele>493.9</ele>
        <time>2018-05-19T10:59:34Z</time>
      </trkpt>
      <trkpt lat="44.11246" lon="2.99874">
        <ele>494</ele>
        <time>2018-05-19T10:59:35Z</time>
      </trkpt>
      <trkpt lat="44.11247" lon="2.99878">
        <ele>494.1</ele>
        <time>2018-05-19T10:59:36Z</time>
      </trkpt>
      <trkpt lat="44.11249" lon="2.99882">
        <ele>494.2</ele>
        <time>2018-05-19T10:59:37Z</time>
      </trkpt>
      <trkpt lat="44.1125" lon="2.99886">
        <ele>494.4</ele>
        <time>2018-05-19T10:59:38Z</time>
      </trkpt>
      <trkpt lat="44.11252" lon="2.99891">
        <ele>494.5</ele>
        <time>2018-05-19T10:59:39Z</time>
      </trkpt>
      <trkpt lat="44.11254" lon="2.99895">
        <ele>494.6</ele>
        <time>2018-05-19T10:59:40Z</time>
      </trkpt>
      <trkpt lat="44.11256" lon="2.99898">
        <ele>494.7</ele>
        <time>2018-05-19T10:59:41Z</time>
      </trkpt>
      <trkpt lat="44.11258" lon="2.99902">
        <ele>494.8</ele>
        <time>2018-05-19T10:59:42Z</time>
      </trkpt>
      <trkpt lat="44.11259" lon="2.99906">
        <ele>495</ele>
        <time>2018-05-19T10:59:43Z</time>
      </trkpt>
      <trkpt lat="44.11261" lon="2.9991">
        <ele>495</ele>
        <time>2018-05-19T10:59:44Z</time>
      </trkpt>
      <trkpt lat="44.11262" lon="2.99913">
        <ele>495.1</ele>
        <time>2018-05-19T10:59:45Z</time>
      </trkpt>
      <trkpt lat="44.11264" lon="2.99917">
        <ele>495.2</ele>
        <time>2018-05-19T10:59:46Z</time>
      </trkpt>
      <trkpt lat="44.11265" lon="2.99921">
        <ele>495.2</ele>
        <time>2018-05-19T10:59:47Z</time>
      </trkpt>
      <trkpt lat="44.11267" lon="2.99925">
        <ele>495.3</ele>
        <time>2018-05-19T10:59:48Z</time>
      </trkpt>
      <trkpt lat="44.11269" lon="2.99928">
        <ele>495.4</ele>
        <time>2018-05-19T10:59:49Z</time>
      </trkpt>
      <trkpt lat="44.11271" lon="2.99932">
        <ele>495.4</ele>
        <time>2018-05-19T10:59:50Z</time>
      </trkpt>
      <trkpt lat="44.11272" lon="2.99936">
        <ele>495.5</ele>
        <time>2018-05-19T10:59:51Z</time>
      </trkpt>
      <trkpt lat="44.11274" lon="2.9994">
        <ele>495.6</ele>
        <time>2018-05-19T10:59:52Z</time>
      </trkpt>
      <trkpt lat="44.11275" lon="2.99944">
        <ele>495.8</ele>
        <time>2018-05-19T10:59:53Z</time>
      </trkpt>
      <trkpt lat="44.11277" lon="2.99948">
        <ele>495.9</ele>
        <time>2018-05-19T10:59:54Z</time>
      </trkpt>
      <trkpt lat="44.11279" lon="2.99952">
        <ele>496.1</ele>
        <time>2018-05-19T10:59:55Z</time>
      </trkpt>
      <trkpt lat="44.1128" lon="2.99956">
        <ele>496.2</ele>
        <time>2018-05-19T10:59:56Z</time>
      </trkpt>
      <trkpt lat="44.11282" lon="2.9996">
        <ele>496.4</ele>
        <time>2018-05-19T10:59:57Z</time>
      </trkpt>
      <trkpt lat="44.11283" lon="2.99964">
        <ele>496.5</ele>
        <time>2018-05-19T10:59:58Z</time>
      </trkpt>
      <trkpt lat="44.11285" lon="2.99968">
        <ele>496.6</ele>
        <time>2018-05-19T10:59:59Z</time>
      </trkpt>
      <trkpt lat="44.11287" lon="2.99972">
        <ele>496.7</ele>
        <time>2018-05-19T11:00:00Z</time>
      </trkpt>
      <trkpt lat="44.11288" lon="2.99976">
        <ele>496.9</ele>
        <time>2018-05-19T11:00:01Z</time>
      </trkpt>
      <trkpt lat="44.1129" lon="2.9998">
        <ele>497</ele>
        <time>2018-05-19T11:00:02Z</time>
      </trkpt>
      <trkpt lat="44.11292" lon="2.99983">
        <ele>497</ele>
        <time>2018-05-19T11:00:03Z</time>
      </trkpt>
      <trkpt lat="44.11294" lon="2.99987">
        <ele>497.1</ele>
        <time>2018-05-19T11:00:04Z</time>
      </trkpt>
      <trkpt lat="44.11295" lon="2.9999">
        <ele>497.1</ele>
        <time>2018-05-19T11:00:05Z</time>
      </trkpt>
      <trkpt lat="44.11297" lon="2.99994">
        <ele>497.2</ele>
        <time>2018-05-19T11:00:06Z</time>
      </trkpt>
      <trkpt lat="44.11298" lon="2.99998">
        <ele>497.3</ele>
        <time>2018-05-19T11:00:07Z</time>
      </trkpt>
      <trkpt lat="44.113" lon="3.00002">
        <ele>497.4</ele>
        <time>2018-05-19T11:00:08Z</time>
      </trkpt>
      <trkpt lat="44.11302" lon="3.00006">
        <ele>497.4</ele>
        <time>2018-05-19T11:00:09Z</time>
      </trkpt>
      <trkpt lat="44.11304" lon="3.0001">
        <ele>497.5</ele>
        <time>2018-05-19T11:00:10Z</time>
      </trkpt>
      <trkpt lat="44.11305" lon="3.00014">
        <ele>497.6</ele>
        <time>2018-05-19T11:00:11Z</time>
      </trkpt>
      <trkpt lat="44.11307" lon="3.00019">
        <ele>497.6</ele>
        <time>2018-05-19T11:00:12Z</time>
      </trkpt>
      <trkpt lat="44.11309" lon="3.00023">
        <ele>497.7</ele>
        <time>2018-05-19T11:00:13Z</time>
      </trkpt>
      <trkpt lat="44.11311" lon="3.00027">
        <ele>497.8</ele>
        <time>2018-05-19T11:00:14Z</time>
      </trkpt>
      <trkpt lat="44.11313" lon="3.00031">
        <ele>497.9</ele>
        <time>2018-05-19T11:00:15Z</time>
      </trkpt>
      <trkpt lat="44.11315" lon="3.00036">
        <ele>498</ele>
        <time>2018-05-19T11:00:16Z</time>
      </trkpt>
      <trkpt lat="44.11317" lon="3.0004">
        <ele>498.1</ele>
        <time>2018-05-19T11:00:17Z</time>
      </trkpt>
      <trkpt lat="44.11318" lon="3.00044">
        <ele>498.2</ele>
        <time>2018-05-19T11:00:18Z</time>
      </trkpt>
      <trkpt lat="44.1132" lon="3.00048">
        <ele>498.3</ele>
        <time>2018-05-19T11:00:19Z</time>
      </trkpt>
      <trkpt lat="44.11322" lon="3.00051">
        <ele>498.4</ele>
        <time>2018-05-19T11:00:20Z</time>
      </trkpt>
      <trkpt lat="44.11323" lon="3.00055">
        <ele>498.5</ele>
        <time>2018-05-19T11:00:21Z</time>
      </trkpt>
      <trkpt lat="44.11325" lon="3.00059">
        <ele>498.6</ele>
        <time>2018-05-19T11:00:22Z</time>
      </trkpt>
      <trkpt lat="44.11327" lon="3.00062">
        <ele>498.8</ele>
        <time>2018-05-19T11:00:23Z</time>
      </trkpt>
      <trkpt lat="44.11329" lon="3.00066">
        <ele>498.9</ele>
        <time>2018-05-19T11:00:24Z</time>
      </trkpt>
      <trkpt lat="44.11331" lon="3.00069">
        <ele>499</ele>
        <time>2018-05-19T11:00:25Z</time>
      </trkpt>
      <trkpt lat="44.11333" lon="3.00072">
        <ele>499.1</ele>
        <time>2018-05-19T11:00:26Z</time>
      </trkpt>
      <trkpt lat="44.11335" lon="3.00075">
        <ele>499.2</ele>
        <time>2018-05-19T11:00:27Z</time>
      </trkpt>
      <trkpt lat="44.11338" lon="3.00081">
        <ele>499.3</ele>
        <time>2018-05-19T11:00:29Z</time>
      </trkpt>
      <trkpt lat="44.1134" lon="3.00087">
        <ele>499.4</ele>
        <time>2018-05-19T11:00:31Z</time>
      </trkpt>
      <trkpt lat="44.11344" lon="3.00092">
        <ele>499.5</ele>
        <time>2018-05-19T11:00:33Z</time>
      </trkpt>
      <trkpt lat="44.11347" lon="3.00097">
        <ele>499.6</ele>
        <time>2018-05-19T11:00:35Z</time>
      </trkpt>
      <trkpt lat="44.1135" lon="3.00102">
        <ele>499.8</ele>
        <time>2018-05-19T11:00:37Z</time>
      </trkpt>
      <trkpt lat="44.11353" lon="3.00107">
        <ele>500</ele>
        <time>2018-05-19T11:00:39Z</time>
      </trkpt>
      <trkpt lat="44.11355" lon="3.00113">
        <ele>500.2</ele>
        <time>2018-05-19T11:00:41Z</time>
      </trkpt>
      <trkpt lat="44.11357" lon="3.00119">
        <ele>500.4</ele>
        <time>2018-05-19T11:00:43Z</time>
      </trkpt>
      <trkpt lat="44.11359" lon="3.00124">
        <ele>500.6</ele>
        <time>2018-05-19T11:00:45Z</time>
      </trkpt>
      <trkpt lat="44.11361" lon="3.00129">
        <ele>500.7</ele>
        <time>2018-05-19T11:00:47Z</time>
      </trkpt>
      <trkpt lat="44.11364" lon="3.00134">
        <ele>500.8</ele>
        <time>2018-05-19T11:00:49Z</time>
      </trkpt>
      <trkpt lat="44.11366" lon="3.0014">
        <ele>500.9</ele>
        <time>2018-05-19T11:00:51Z</time>
      </trkpt>
      <trkpt lat="44.11367" lon="3.00143">
        <ele>500.9</ele>
        <time>2018-05-19T11:00:52Z</time>
      </trkpt>
      <trkpt lat="44.11369" lon="3.00147">
        <ele>501</ele>
        <time>2018-05-19T11:00:53Z</time>
      </trkpt>
      <trkpt lat="44.1137" lon="3.00151">
        <ele>501</ele>
        <time>2018-05-19T11:00:54Z</time>
      </trkpt>
      <trkpt lat="44.11372" lon="3.00155">
        <ele>501.1</ele>
        <time>2018-05-19T11:00:55Z</time>
      </trkpt>
      <trkpt lat="44.11374" lon="3.00158">
        <ele>501.1</ele>
        <time>2018-05-19T11:00:56Z</time>
      </trkpt>
      <trkpt lat="44.11376" lon="3.00161">
        <ele>501.1</ele>
        <time>2018-05-19T11:00:57Z</time>
      </trkpt>
      <trkpt lat="44.11377" lon="3.00165">
        <ele>501.2</ele>
        <time>2018-05-19T11:00:58Z</time>
      </trkpt>
      <trkpt lat="44.11379" lon="3.00168">
        <ele>501.2</ele>
        <time>2018-05-19T11:00:59Z</time>
      </trkpt>
      <trkpt lat="44.1138" lon="3.00172">
        <ele>501.3</ele>
        <time>2018-05-19T11:01:00Z</time>
      </trkpt>
      <trkpt lat="44.11382" lon="3.00176">
        <ele>501.3</ele>
        <time>2018-05-19T11:01:01Z</time>
      </trkpt>
      <trkpt lat="44.11384" lon="3.00179">
        <ele>501.3</ele>
        <time>2018-05-19T11:01:02Z</time>
      </trkpt>
      <trkpt lat="44.11386" lon="3.00183">
        <ele>501.4</ele>
        <time>2018-05-19T11:01:03Z</time>
      </trkpt>
      <trkpt lat="44.11388" lon="3.00186">
        <ele>501.4</ele>
        <time>2018-05-19T11:01:04Z</time>
      </trkpt>
      <trkpt lat="44.11391" lon="3.00189">
        <ele>501.4</ele>
        <time>2018-05-19T11:01:05Z</time>
      </trkpt>
      <trkpt lat="44.11393" lon="3.00192">
        <ele>501.4</ele>
        <time>2018-05-19T11:01:06Z</time>
      </trkpt>
      <trkpt lat="44.11396" lon="3.00195">
        <ele>501.5</ele>
        <time>2018-05-19T11:01:07Z</time>
      </trkpt>
      <trkpt lat="44.11398" lon="3.00198">
        <ele>501.5</ele>
        <time>2018-05-19T11:01:08Z</time>
      </trkpt>
      <trkpt lat="44.11402" lon="3.00203">
        <ele>501.6</ele>
        <time>2018-05-19T11:01:10Z</time>
      </trkpt>
      <trkpt lat="44.11405" lon="3.00207">
        <ele>501.7</ele>
        <time>2018-05-19T11:01:12Z</time>
      </trkpt>
      <trkpt lat="44.11408" lon="3.00212">
        <ele>501.7</ele>
        <time>2018-05-19T11:01:14Z</time>
      </trkpt>
      <trkpt lat="44.11411" lon="3.00215">
        <ele>501.9</ele>
        <time>2018-05-19T11:01:16Z</time>
      </trkpt>
      <trkpt lat="44.11413" lon="3.00219">
        <ele>502</ele>
        <time>2018-05-19T11:01:18Z</time>
      </trkpt>
      <trkpt lat="44.11415" lon="3.00222">
        <ele>502.2</ele>
        <time>2018-05-19T11:01:20Z</time>
      </trkpt>
      <trkpt lat="44.11418" lon="3.00225">
        <ele>502.5</ele>
        <time>2018-05-19T11:01:22Z</time>
      </trkpt>
      <trkpt lat="44.11421" lon="3.00228">
        <ele>502.7</ele>
        <time>2018-05-19T11:01:24Z</time>
      </trkpt>
      <trkpt lat="44.11422" lon="3.00232">
        <ele>503.2</ele>
        <time>2018-05-19T11:01:27Z</time>
      </trkpt>
      <trkpt lat="44.11419" lon="3.00234">
        <ele>511.7</ele>
        <time>2018-05-19T11:01:31Z</time>
      </trkpt>
      <trkpt lat="44.11415" lon="3.00233">
        <ele>515.1</ele>
        <time>2018-05-19T11:01:34Z</time>
      </trkpt>
      <trkpt lat="44.11412" lon="3.00232">
        <ele>515.3</ele>
        <time>2018-05-19T11:01:36Z</time>
      </trkpt>
      <trkpt lat="44.11409" lon="3.00229">
        <ele>515.5</ele>
        <time>2018-05-19T11:01:39Z</time>
      </trkpt>
      <trkpt lat="44.11406" lon="3.00226">
        <ele>515.8</ele>
        <time>2018-05-19T11:01:41Z</time>
      </trkpt>
      <trkpt lat="44.11404" lon="3.00224">
        <ele>516</ele>
        <time>2018-05-19T11:01:43Z</time>
      </trkpt>
      <trkpt lat="44.114" lon="3.00222">
        <ele>516.2</ele>
        <time>2018-05-19T11:01:45Z</time>
      </trkpt>
      <trkpt lat="44.11397" lon="3.0022">
        <ele>516.4</ele>
        <time>2018-05-19T11:01:47Z</time>
      </trkpt>
      <trkpt lat="44.11393" lon="3.00219">
        <ele>516.7</ele>
        <time>2018-05-19T11:01:49Z</time>
      </trkpt>
      <trkpt lat="44.11389" lon="3.00218">
        <ele>516.9</ele>
        <time>2018-05-19T11:01:51Z</time>
      </trkpt>
      <trkpt lat="44.11386" lon="3.00216">
        <ele>517.1</ele>
        <time>2018-05-19T11:01:53Z</time>
      </trkpt>
      <trkpt lat="44.11383" lon="3.00214">
        <ele>517.3</ele>
        <time>2018-05-19T11:01:55Z</time>
      </trkpt>
      <trkpt lat="44.11379" lon="3.00211">
        <ele>517.5</ele>
        <time>2018-05-19T11:01:57Z</time>
      </trkpt>
      <trkpt lat="44.11375" lon="3.00209">
        <ele>517.8</ele>
        <time>2018-05-19T11:01:59Z</time>
      </trkpt>
      <trkpt lat="44.11371" lon="3.00207">
        <ele>518</ele>
        <time>2018-05-19T11:02:01Z</time>
      </trkpt>
      <trkpt lat="44.11368" lon="3.00204">
        <ele>518.2</ele>
        <time>2018-05-19T11:02:03Z</time>
      </trkpt>
      <trkpt lat="44.11364" lon="3.00201">
        <ele>518.5</ele>
        <time>2018-05-19T11:02:06Z</time>
      </trkpt>
      <trkpt lat="44.11359" lon="3.002">
        <ele>518.7</ele>
        <time>2018-05-19T11:02:08Z</time>
      </trkpt>
      <trkpt lat="44.11356" lon="3.00199">
        <ele>518.9</ele>
        <time>2018-05-19T11:02:10Z</time>
      </trkpt>
      <trkpt lat="44.11352" lon="3.00197">
        <ele>519.2</ele>
        <time>2018-05-19T11:02:12Z</time>
      </trkpt>
      <trkpt lat="44.11348" lon="3.00196">
        <ele>519.4</ele>
        <time>2018-05-19T11:02:14Z</time>
      </trkpt>
      <trkpt lat="44.11345" lon="3.00194">
        <ele>519.6</ele>
        <time>2018-05-19T11:02:16Z</time>
      </trkpt>
      <trkpt lat="44.11342" lon="3.00193">
        <ele>519.9</ele>
        <time>2018-05-19T11:02:18Z</time>
      </trkpt>
      <trkpt lat="44.11338" lon="3.00192">
        <ele>520.1</ele>
        <time>2018-05-19T11:02:20Z</time>
      </trkpt>
      <trkpt lat="44.11334" lon="3.00191">
        <ele>520.3</ele>
        <time>2018-05-19T11:02:22Z</time>
      </trkpt>
      <trkpt lat="44.11331" lon="3.0019">
        <ele>520.6</ele>
        <time>2018-05-19T11:02:24Z</time>
      </trkpt>
      <trkpt lat="44.11327" lon="3.00188">
        <ele>520.9</ele>
        <time>2018-05-19T11:02:26Z</time>
      </trkpt>
      <trkpt lat="44.11323" lon="3.00187">
        <ele>521.2</ele>
        <time>2018-05-19T11:02:28Z</time>
      </trkpt>
      <trkpt lat="44.1132" lon="3.00185">
        <ele>521.5</ele>
        <time>2018-05-19T11:02:30Z</time>
      </trkpt>
      <trkpt lat="44.11317" lon="3.00183">
        <ele>521.8</ele>
        <time>2018-05-19T11:02:32Z</time>
      </trkpt>
      <trkpt lat="44.11313" lon="3.00181">
        <ele>522.1</ele>
        <time>2018-05-19T11:02:34Z</time>
      </trkpt>
      <trkpt lat="44.1131" lon="3.00177">
        <ele>522.4</ele>
        <time>2018-05-19T11:02:37Z</time>
      </trkpt>
      <trkpt lat="44.11308" lon="3.00173">
        <ele>522.8</ele>
        <time>2018-05-19T11:02:40Z</time>
      </trkpt>
      <trkpt lat="44.11305" lon="3.0017">
        <ele>523.1</ele>
        <time>2018-05-19T11:02:43Z</time>
      </trkpt>
      <trkpt lat="44.11301" lon="3.00168">
        <ele>523.5</ele>
        <time>2018-05-19T11:02:46Z</time>
      </trkpt>
      <trkpt lat="44.11298" lon="3.00167">
        <ele>523.9</ele>
        <time>2018-05-19T11:02:48Z</time>
      </trkpt>
      <trkpt lat="44.11294" lon="3.00166">
        <ele>524.2</ele>
        <time>2018-05-19T11:02:50Z</time>
      </trkpt>
      <trkpt lat="44.11292" lon="3.00165">
        <ele>524.5</ele>
        <time>2018-05-19T11:02:52Z</time>
      </trkpt>
      <trkpt lat="44.11289" lon="3.00162">
        <ele>524.8</ele>
        <time>2018-05-19T11:02:55Z</time>
      </trkpt>
      <trkpt lat="44.11286" lon="3.00159">
        <ele>525.3</ele>
        <time>2018-05-19T11:02:59Z</time>
      </trkpt>
      <trkpt lat="44.11284" lon="3.00157">
        <ele>525.6</ele>
        <time>2018-05-19T11:03:01Z</time>
      </trkpt>
      <trkpt lat="44.11283" lon="3.00153">
        <ele>526.1</ele>
        <time>2018-05-19T11:03:04Z</time>
      </trkpt>
      <trkpt lat="44.11281" lon="3.0015">
        <ele>526.5</ele>
        <time>2018-05-19T11:03:07Z</time>
      </trkpt>
      <trkpt lat="44.11278" lon="3.00146">
        <ele>527.2</ele>
        <time>2018-05-19T11:03:10Z</time>
      </trkpt>
      <trkpt lat="44.11275" lon="3.00144">
        <ele>527.9</ele>
        <time>2018-05-19T11:03:12Z</time>
      </trkpt>
      <trkpt lat="44.11272" lon="3.00142">
        <ele>528.4</ele>
        <time>2018-05-19T11:03:14Z</time>
      </trkpt>
      <trkpt lat="44.11269" lon="3.0014">
        <ele>529.1</ele>
        <time>2018-05-19T11:03:16Z</time>
      </trkpt>
      <trkpt lat="44.11266" lon="3.00137">
        <ele>529.9</ele>
        <time>2018-05-19T11:03:19Z</time>
      </trkpt>
      <trkpt lat="44.11263" lon="3.00135">
        <ele>530.5</ele>
        <time>2018-05-19T11:03:21Z</time>
      </trkpt>
      <trkpt lat="44.11261" lon="3.00133">
        <ele>531.1</ele>
        <time>2018-05-19T11:03:24Z</time>
      </trkpt>
      <trkpt lat="44.11258" lon="3.00131">
        <ele>531.7</ele>
        <time>2018-05-19T11:03:27Z</time>
      </trkpt>
      <trkpt lat="44.11256" lon="3.00129">
        <ele>532.2</ele>
        <time>2018-05-19T11:03:29Z</time>
      </trkpt>
      <trkpt lat="44.11252" lon="3.00126">
        <ele>532.9</ele>
        <time>2018-05-19T11:03:31Z</time>
      </trkpt>
      <trkpt lat="44.11248" lon="3.00124">
        <ele>533.6</ele>
        <time>2018-05-19T11:03:33Z</time>
      </trkpt>
      <trkpt lat="44.11245" lon="3.00122">
        <ele>534.2</ele>
        <time>2018-05-19T11:03:35Z</time>
      </trkpt>
      <trkpt lat="44.11242" lon="3.00121">
        <ele>534.8</ele>
        <time>2018-05-19T11:03:37Z</time>
      </trkpt>
      <trkpt lat="44.11239" lon="3.00119">
        <ele>535.3</ele>
        <time>2018-05-19T11:03:39Z</time>
      </trkpt>
      <trkpt lat="44.11237" lon="3.00116">
        <ele>535.8</ele>
        <time>2018-05-19T11:03:41Z</time>
      </trkpt>
      <trkpt lat="44.11235" lon="3.00112">
        <ele>536.5</ele>
        <time>2018-05-19T11:03:44Z</time>
      </trkpt>
      <trkpt lat="44.11232" lon="3.00109">
        <ele>537</ele>
        <time>2018-05-19T11:03:47Z</time>
      </trkpt>
      <trkpt lat="44.1123" lon="3.00105">
        <ele>537.6</ele>
        <time>2018-05-19T11:03:50Z</time>
      </trkpt>
      <trkpt lat="44.11227" lon="3.00103">
        <ele>538.1</ele>
        <time>2018-05-19T11:03:52Z</time>
      </trkpt>
      <trkpt lat="44.11223" lon="3.00102">
        <ele>538.7</ele>
        <time>2018-05-19T11:03:54Z</time>
      </trkpt>
      <trkpt lat="44.1122" lon="3.00101">
        <ele>539.3</ele>
        <time>2018-05-19T11:03:56Z</time>
      </trkpt>
      <trkpt lat="44.11217" lon="3.001">
        <ele>539.7</ele>
        <time>2018-05-19T11:03:58Z</time>
      </trkpt>
      <trkpt lat="44.11215" lon="3.00097">
        <ele>540.1</ele>
        <time>2018-05-19T11:04:00Z</time>
      </trkpt>
      <trkpt lat="44.11213" lon="3.00092">
        <ele>540.6</ele>
        <time>2018-05-19T11:04:04Z</time>
      </trkpt>
      <trkpt lat="44.11212" lon="3.00089">
        <ele>541</ele>
        <time>2018-05-19T11:04:07Z</time>
      </trkpt>
      <trkpt lat="44.1121" lon="3.00085">
        <ele>541.3</ele>
        <time>2018-05-19T11:04:10Z</time>
      </trkpt>
      <trkpt lat="44.11209" lon="3.00082">
        <ele>541.7</ele>
        <time>2018-05-19T11:04:13Z</time>
      </trkpt>
      <trkpt lat="44.11209" lon="3.00078">
        <ele>542.1</ele>
        <time>2018-05-19T11:04:16Z</time>
      </trkpt>
      <trkpt lat="44.11207" lon="3.00076">
        <ele>542.4</ele>
        <time>2018-05-19T11:04:18Z</time>
      </trkpt>
      <trkpt lat="44.11203" lon="3.00073">
        <ele>542.8</ele>
        <time>2018-05-19T11:04:20Z</time>
      </trkpt>
      <trkpt lat="44.112" lon="3.00071">
        <ele>543.2</ele>
        <time>2018-05-19T11:04:22Z</time>
      </trkpt>
      <trkpt lat="44.11196" lon="3.00069">
        <ele>543.6</ele>
        <time>2018-05-19T11:04:25Z</time>
      </trkpt>
      <trkpt lat="44.11193" lon="3.00065">
        <ele>544.1</ele>
        <time>2018-05-19T11:04:28Z</time>
      </trkpt>
      <trkpt lat="44.1119" lon="3.00063">
        <ele>544.4</ele>
        <time>2018-05-19T11:04:30Z</time>
      </trkpt>
      <trkpt lat="44.11185" lon="3.0006">
        <ele>544.9</ele>
        <time>2018-05-19T11:04:32Z</time>
      </trkpt>
      <trkpt lat="44.11183" lon="3.00059">
        <ele>545.2</ele>
        <time>2018-05-19T11:04:33Z</time>
      </trkpt>
      <trkpt lat="44.11178" lon="3.00056">
        <ele>545.7</ele>
        <time>2018-05-19T11:04:35Z</time>
      </trkpt>
      <trkpt lat="44.11175" lon="3.00053">
        <ele>546</ele>
        <time>2018-05-19T11:04:37Z</time>
      </trkpt>
      <trkpt lat="44.11171" lon="3.0005">
        <ele>546.5</ele>
        <time>2018-05-19T11:04:39Z</time>
      </trkpt>
      <trkpt lat="44.11167" lon="3.00049">
        <ele>546.8</ele>
        <time>2018-05-19T11:04:41Z</time>
      </trkpt>
      <trkpt lat="44.11164" lon="3.00048">
        <ele>547.2</ele>
        <time>2018-05-19T11:04:43Z</time>
      </trkpt>
      <trkpt lat="44.1116" lon="3.00046">
        <ele>547.6</ele>
        <time>2018-05-19T11:04:45Z</time>
      </trkpt>
      <trkpt lat="44.11156" lon="3.00044">
        <ele>548</ele>
        <time>2018-05-19T11:04:48Z</time>
      </trkpt>
      <trkpt lat="44.11154" lon="3.00042">
        <ele>548.3</ele>
        <time>2018-05-19T11:04:51Z</time>
      </trkpt>
      <trkpt lat="44.11151" lon="3.00038">
        <ele>548.6</ele>
        <time>2018-05-19T11:04:54Z</time>
      </trkpt>
      <trkpt lat="44.11149" lon="3.00034">
        <ele>549</ele>
        <time>2018-05-19T11:04:57Z</time>
      </trkpt>
      <trkpt lat="44.11148" lon="3.0003">
        <ele>549.3</ele>
        <time>2018-05-19T11:05:00Z</time>
      </trkpt>
      <trkpt lat="44.11147" lon="3.00025">
        <ele>549.7</ele>
        <time>2018-05-19T11:05:03Z</time>
      </trkpt>
      <trkpt lat="44.11145" lon="3.00021">
        <ele>550.1</ele>
        <time>2018-05-19T11:05:06Z</time>
      </trkpt>
      <trkpt lat="44.11143" lon="3.00018">
        <ele>550.4</ele>
        <time>2018-05-19T11:05:08Z</time>
      </trkpt>
      <trkpt lat="44.11141" lon="3.00016">
        <ele>550.7</ele>
        <time>2018-05-19T11:05:10Z</time>
      </trkpt>
      <trkpt lat="44.1114" lon="3.00012">
        <ele>551</ele>
        <time>2018-05-19T11:05:13Z</time>
      </trkpt>
      <trkpt lat="44.11137" lon="3.00007">
        <ele>551.4</ele>
        <time>2018-05-19T11:05:16Z</time>
      </trkpt>
      <trkpt lat="44.11136" lon="3.00004">
        <ele>551.7</ele>
        <time>2018-05-19T11:05:18Z</time>
      </trkpt>
      <trkpt lat="44.11136" lon="2.99999">
        <ele>552.1</ele>
        <time>2018-05-19T11:05:22Z</time>
      </trkpt>
      <trkpt lat="44.11136" lon="2.99993">
        <ele>552.5</ele>
        <time>2018-05-19T11:05:25Z</time>
      </trkpt>
      <trkpt lat="44.11134" lon="2.99989">
        <ele>552.9</ele>
        <time>2018-05-19T11:05:27Z</time>
      </trkpt>
      <trkpt lat="44.11131" lon="2.99986">
        <ele>553.3</ele>
        <time>2018-05-19T11:05:29Z</time>
      </trkpt>
      <trkpt lat="44.11129" lon="2.99982">
        <ele>553.7</ele>
        <time>2018-05-19T11:05:31Z</time>
      </trkpt>
      <trkpt lat="44.11125" lon="2.99979">
        <ele>554.1</ele>
        <time>2018-05-19T11:05:34Z</time>
      </trkpt>
      <trkpt lat="44.11122" lon="2.99977">
        <ele>554.5</ele>
        <time>2018-05-19T11:05:36Z</time>
      </trkpt>
      <trkpt lat="44.11119" lon="2.99975">
        <ele>554.9</ele>
        <time>2018-05-19T11:05:38Z</time>
      </trkpt>
      <trkpt lat="44.11116" lon="2.99974">
        <ele>555.2</ele>
        <time>2018-05-19T11:05:40Z</time>
      </trkpt>
      <trkpt lat="44.11113" lon="2.9997">
        <ele>555.6</ele>
        <time>2018-05-19T11:05:43Z</time>
      </trkpt>
      <trkpt lat="44.11111" lon="2.99967">
        <ele>556</ele>
        <time>2018-05-19T11:05:45Z</time>
      </trkpt>
      <trkpt lat="44.11108" lon="2.99965">
        <ele>556.3</ele>
        <time>2018-05-19T11:05:47Z</time>
      </trkpt>
      <trkpt lat="44.11106" lon="2.99961">
        <ele>556.6</ele>
        <time>2018-05-19T11:05:49Z</time>
      </trkpt>
      <trkpt lat="44.11105" lon="2.99958">
        <ele>556.9</ele>
        <time>2018-05-19T11:05:51Z</time>
      </trkpt>
      <trkpt lat="44.11103" lon="2.99954">
        <ele>557.3</ele>
        <time>2018-05-19T11:05:53Z</time>
      </trkpt>
      <trkpt lat="44.11101" lon="2.99951">
        <ele>557.6</ele>
        <time>2018-05-19T11:05:55Z</time>
      </trkpt>
      <trkpt lat="44.11101" lon="2.99946">
        <ele>558.1</ele>
        <time>2018-05-19T11:05:58Z</time>
      </trkpt>
      <trkpt lat="44.11099" lon="2.99943">
        <ele>558.4</ele>
        <time>2018-05-19T11:06:00Z</time>
      </trkpt>
      <trkpt lat="44.11095" lon="2.99941">
        <ele>558.9</ele>
        <time>2018-05-19T11:06:02Z</time>
      </trkpt>
      <trkpt lat="44.11091" lon="2.99938">
        <ele>559.5</ele>
        <time>2018-05-19T11:06:04Z</time>
      </trkpt>
      <trkpt lat="44.11088" lon="2.99936">
        <ele>559.9</ele>
        <time>2018-05-19T11:06:06Z</time>
      </trkpt>
      <trkpt lat="44.11085" lon="2.99931">
        <ele>560.4</ele>
        <time>2018-05-19T11:06:09Z</time>
      </trkpt>
      <trkpt lat="44.11081" lon="2.99929">
        <ele>561</ele>
        <time>2018-05-19T11:06:11Z</time>
      </trkpt>
      <trkpt lat="44.11076" lon="2.99926">
        <ele>561.6</ele>
        <time>2018-05-19T11:06:13Z</time>
      </trkpt>
      <trkpt lat="44.11072" lon="2.99924">
        <ele>562.1</ele>
        <time>2018-05-19T11:06:15Z</time>
      </trkpt>
      <trkpt lat="44.11069" lon="2.99921">
        <ele>562.6</ele>
        <time>2018-05-19T11:06:17Z</time>
      </trkpt>
      <trkpt lat="44.11067" lon="2.99918">
        <ele>563</ele>
        <time>2018-05-19T11:06:19Z</time>
      </trkpt>
      <trkpt lat="44.11065" lon="2.99914">
        <ele>563.4</ele>
        <time>2018-05-19T11:06:22Z</time>
      </trkpt>
      <trkpt lat="44.11062" lon="2.99909">
        <ele>563.9</ele>
        <time>2018-05-19T11:06:25Z</time>
      </trkpt>
      <trkpt lat="44.1106" lon="2.99907">
        <ele>564.2</ele>
        <time>2018-05-19T11:06:27Z</time>
      </trkpt>
      <trkpt lat="44.11057" lon="2.99905">
        <ele>564.5</ele>
        <time>2018-05-19T11:06:29Z</time>
      </trkpt>
      <trkpt lat="44.11056" lon="2.99902">
        <ele>564.8</ele>
        <time>2018-05-19T11:06:32Z</time>
      </trkpt>
      <trkpt lat="44.11054" lon="2.99898">
        <ele>565.2</ele>
        <time>2018-05-19T11:06:36Z</time>
      </trkpt>
      <trkpt lat="44.11052" lon="2.99894">
        <ele>565.5</ele>
        <time>2018-05-19T11:06:39Z</time>
      </trkpt>
      <trkpt lat="44.1105" lon="2.9989">
        <ele>565.8</ele>
        <time>2018-05-19T11:06:42Z</time>
      </trkpt>
      <trkpt lat="44.11049" lon="2.99886">
        <ele>566.2</ele>
        <time>2018-05-19T11:06:45Z</time>
      </trkpt>
      <trkpt lat="44.11047" lon="2.99883">
        <ele>566.4</ele>
        <time>2018-05-19T11:06:47Z</time>
      </trkpt>
      <trkpt lat="44.11044" lon="2.9988">
        <ele>566.8</ele>
        <time>2018-05-19T11:06:50Z</time>
      </trkpt>
      <trkpt lat="44.11042" lon="2.99877">
        <ele>567</ele>
        <time>2018-05-19T11:06:52Z</time>
      </trkpt>
      <trkpt lat="44.11039" lon="2.99873">
        <ele>567.4</ele>
        <time>2018-05-19T11:06:55Z</time>
      </trkpt>
      <trkpt lat="44.11036" lon="2.9987">
        <ele>567.7</ele>
        <time>2018-05-19T11:06:57Z</time>
      </trkpt>
      <trkpt lat="44.11034" lon="2.99866">
        <ele>568.1</ele>
        <time>2018-05-19T11:07:00Z</time>
      </trkpt>
      <trkpt lat="44.11034" lon="2.99861">
        <ele>568.4</ele>
        <time>2018-05-19T11:07:03Z</time>
      </trkpt>
      <trkpt lat="44.11033" lon="2.99858">
        <ele>568.6</ele>
        <time>2018-05-19T11:07:05Z</time>
      </trkpt>
      <trkpt lat="44.1103" lon="2.99854">
        <ele>568.9</ele>
        <time>2018-05-19T11:07:07Z</time>
      </trkpt>
      <trkpt lat="44.11028" lon="2.99851">
        <ele>569.2</ele>
        <time>2018-05-19T11:07:09Z</time>
      </trkpt>
      <trkpt lat="44.11027" lon="2.99848">
        <ele>569.4</ele>
        <time>2018-05-19T11:07:11Z</time>
      </trkpt>
      <trkpt lat="44.11024" lon="2.99844">
        <ele>569.7</ele>
        <time>2018-05-19T11:07:14Z</time>
      </trkpt>
      <trkpt lat="44.11022" lon="2.99842">
        <ele>569.9</ele>
        <time>2018-05-19T11:07:16Z</time>
      </trkpt>
      <trkpt lat="44.11018" lon="2.9984">
        <ele>570.2</ele>
        <time>2018-05-19T11:07:18Z</time>
      </trkpt>
      <trkpt lat="44.11016" lon="2.99837">
        <ele>570.4</ele>
        <time>2018-05-19T11:07:20Z</time>
      </trkpt>
      <trkpt lat="44.11013" lon="2.99833">
        <ele>570.7</ele>
        <time>2018-05-19T11:07:23Z</time>
      </trkpt>
      <trkpt lat="44.11011" lon="2.9983">
        <ele>570.9</ele>
        <time>2018-05-19T11:07:25Z</time>
      </trkpt>
      <trkpt lat="44.11007" lon="2.99828">
        <ele>571.2</ele>
        <time>2018-05-19T11:07:27Z</time>
      </trkpt>
      <trkpt lat="44.11003" lon="2.99826">
        <ele>571.5</ele>
        <time>2018-05-19T11:07:29Z</time>
      </trkpt>
      <trkpt lat="44.10999" lon="2.99823">
        <ele>571.8</ele>
        <time>2018-05-19T11:07:31Z</time>
      </trkpt>
      <trkpt lat="44.10996" lon="2.99821">
        <ele>572</ele>
        <time>2018-05-19T11:07:33Z</time>
      </trkpt>
      <trkpt lat="44.10993" lon="2.99817">
        <ele>572.3</ele>
        <time>2018-05-19T11:07:36Z</time>
      </trkpt>
      <trkpt lat="44.1099" lon="2.99815">
        <ele>572.6</ele>
        <time>2018-05-19T11:07:38Z</time>
      </trkpt>
      <trkpt lat="44.10987" lon="2.99812">
        <ele>572.8</ele>
        <time>2018-05-19T11:07:41Z</time>
      </trkpt>
      <trkpt lat="44.10984" lon="2.99808">
        <ele>573.1</ele>
        <time>2018-05-19T11:07:43Z</time>
      </trkpt>
      <trkpt lat="44.10981" lon="2.99805">
        <ele>573.3</ele>
        <time>2018-05-19T11:07:45Z</time>
      </trkpt>
      <trkpt lat="44.10978" lon="2.99802">
        <ele>573.6</ele>
        <time>2018-05-19T11:07:47Z</time>
      </trkpt>
      <trkpt lat="44.10975" lon="2.99801">
        <ele>573.9</ele>
        <time>2018-05-19T11:07:50Z</time>
      </trkpt>
      <trkpt lat="44.10972" lon="2.998">
        <ele>574.1</ele>
        <time>2018-05-19T11:07:52Z</time>
      </trkpt>
      <trkpt lat="44.10969" lon="2.99797">
        <ele>574.4</ele>
        <time>2018-05-19T11:07:54Z</time>
      </trkpt>
      <trkpt lat="44.10966" lon="2.99795">
        <ele>574.7</ele>
        <time>2018-05-19T11:07:56Z</time>
      </trkpt>
      <trkpt lat="44.10962" lon="2.99792">
        <ele>575</ele>
        <time>2018-05-19T11:07:58Z</time>
      </trkpt>
      <trkpt lat="44.10959" lon="2.99789">
        <ele>575.3</ele>
        <time>2018-05-19T11:08:00Z</time>
      </trkpt>
      <trkpt lat="44.10958" lon="2.99786">
        <ele>575.5</ele>
        <time>2018-05-19T11:08:02Z</time>
      </trkpt>
      <trkpt lat="44.10954" lon="2.99783">
        <ele>575.8</ele>
        <time>2018-05-19T11:08:04Z</time>
      </trkpt>
      <trkpt lat="44.10951" lon="2.9978">
        <ele>576</ele>
        <time>2018-05-19T11:08:06Z</time>
      </trkpt>
      <trkpt lat="44.10949" lon="2.99777">
        <ele>576.3</ele>
        <time>2018-05-19T11:08:08Z</time>
      </trkpt>
      <trkpt lat="44.10945" lon="2.99775">
        <ele>576.5</ele>
        <time>2018-05-19T11:08:10Z</time>
      </trkpt>
      <trkpt lat="44.10942" lon="2.99772">
        <ele>576.8</ele>
        <time>2018-05-19T11:08:12Z</time>
      </trkpt>
      <trkpt lat="44.10939" lon="2.99771">
        <ele>577</ele>
        <time>2018-05-19T11:08:14Z</time>
      </trkpt>
      <trkpt lat="44.10936" lon="2.9977">
        <ele>577.3</ele>
        <time>2018-05-19T11:08:17Z</time>
      </trkpt>
      <trkpt lat="44.10933" lon="2.99768">
        <ele>577.5</ele>
        <time>2018-05-19T11:08:19Z</time>
      </trkpt>
      <trkpt lat="44.10929" lon="2.99766">
        <ele>577.8</ele>
        <time>2018-05-19T11:08:21Z</time>
      </trkpt>
      <trkpt lat="44.10926" lon="2.99764">
        <ele>578.1</ele>
        <time>2018-05-19T11:08:23Z</time>
      </trkpt>
      <trkpt lat="44.10923" lon="2.99762">
        <ele>578.4</ele>
        <time>2018-05-19T11:08:25Z</time>
      </trkpt>
      <trkpt lat="44.1092" lon="2.9976">
        <ele>578.7</ele>
        <time>2018-05-19T11:08:27Z</time>
      </trkpt>
      <trkpt lat="44.10916" lon="2.99757">
        <ele>579.1</ele>
        <time>2018-05-19T11:08:29Z</time>
      </trkpt>
      <trkpt lat="44.10913" lon="2.99755">
        <ele>579.5</ele>
        <time>2018-05-19T11:08:31Z</time>
      </trkpt>
      <trkpt lat="44.1091" lon="2.99754">
        <ele>579.8</ele>
        <time>2018-05-19T11:08:33Z</time>
      </trkpt>
      <trkpt lat="44.10907" lon="2.99757">
        <ele>580.3</ele>
        <time>2018-05-19T11:08:36Z</time>
      </trkpt>
      <trkpt lat="44.10907" lon="2.99761">
        <ele>580.7</ele>
        <time>2018-05-19T11:08:39Z</time>
      </trkpt>
      <trkpt lat="44.10909" lon="2.99763">
        <ele>581.1</ele>
        <time>2018-05-19T11:08:42Z</time>
      </trkpt>
      <trkpt lat="44.10912" lon="2.99765">
        <ele>581.5</ele>
        <time>2018-05-19T11:08:52Z</time>
      </trkpt>
      <trkpt lat="44.10914" lon="2.99765">
        <ele>581.9</ele>
        <time>2018-05-19T11:09:45Z</time>
      </trkpt>
      <trkpt lat="44.10917" lon="2.99768">
        <ele>582.6</ele>
        <time>2018-05-19T11:09:48Z</time>
      </trkpt>
      <trkpt lat="44.1092" lon="2.99771">
        <ele>583.4</ele>
        <time>2018-05-19T11:09:51Z</time>
      </trkpt>
      <trkpt lat="44.10921" lon="2.99774">
        <ele>583.9</ele>
        <time>2018-05-19T11:09:53Z</time>
      </trkpt>
      <trkpt lat="44.10923" lon="2.99778">
        <ele>584.6</ele>
        <time>2018-05-19T11:09:55Z</time>
      </trkpt>
      <trkpt lat="44.10925" lon="2.99781">
        <ele>585.2</ele>
        <time>2018-05-19T11:09:57Z</time>
      </trkpt>
      <trkpt lat="44.10928" lon="2.99785">
        <ele>585.9</ele>
        <time>2018-05-19T11:10:00Z</time>
      </trkpt>
      <trkpt lat="44.1093" lon="2.99788">
        <ele>586.4</ele>
        <time>2018-05-19T11:10:02Z</time>
      </trkpt>
      <trkpt lat="44.10932" lon="2.99791">
        <ele>586.8</ele>
        <time>2018-05-19T11:10:04Z</time>
      </trkpt>
      <trkpt lat="44.10934" lon="2.99795">
        <ele>587.3</ele>
        <time>2018-05-19T11:10:07Z</time>
      </trkpt>
      <trkpt lat="44.10936" lon="2.99798">
        <ele>587.7</ele>
        <time>2018-05-19T11:10:09Z</time>
      </trkpt>
      <trkpt lat="44.10938" lon="2.99801">
        <ele>588</ele>
        <time>2018-05-19T11:10:11Z</time>
      </trkpt>
      <trkpt lat="44.10941" lon="2.99804">
        <ele>588.3</ele>
        <time>2018-05-19T11:10:13Z</time>
      </trkpt>
      <trkpt lat="44.10943" lon="2.99807">
        <ele>588.7</ele>
        <time>2018-05-19T11:10:15Z</time>
      </trkpt>
      <trkpt lat="44.10945" lon="2.99812">
        <ele>589</ele>
        <time>2018-05-19T11:10:18Z</time>
      </trkpt>
      <trkpt lat="44.10948" lon="2.99815">
        <ele>589.2</ele>
        <time>2018-05-19T11:10:20Z</time>
      </trkpt>
      <trkpt lat="44.1095" lon="2.99818">
        <ele>589.5</ele>
        <time>2018-05-19T11:10:22Z</time>
      </trkpt>
      <trkpt lat="44.10951" lon="2.99822">
        <ele>589.7</ele>
        <time>2018-05-19T11:10:24Z</time>
      </trkpt>
      <trkpt lat="44.10953" lon="2.99826">
        <ele>589.9</ele>
        <time>2018-05-19T11:10:26Z</time>
      </trkpt>
      <trkpt lat="44.10954" lon="2.9983">
        <ele>590.1</ele>
        <time>2018-05-19T11:10:28Z</time>
      </trkpt>
      <trkpt lat="44.10956" lon="2.99834">
        <ele>590.3</ele>
        <time>2018-05-19T11:10:30Z</time>
      </trkpt>
      <trkpt lat="44.10959" lon="2.99838">
        <ele>590.5</ele>
        <time>2018-05-19T11:10:32Z</time>
      </trkpt>
      <trkpt lat="44.10961" lon="2.99842">
        <ele>590.6</ele>
        <time>2018-05-19T11:10:34Z</time>
      </trkpt>
      <trkpt lat="44.10963" lon="2.99846">
        <ele>590.8</ele>
        <time>2018-05-19T11:10:37Z</time>
      </trkpt>
      <trkpt lat="44.10965" lon="2.9985">
        <ele>590.9</ele>
        <time>2018-05-19T11:10:39Z</time>
      </trkpt>
      <trkpt lat="44.10967" lon="2.99854">
        <ele>591</ele>
        <time>2018-05-19T11:10:41Z</time>
      </trkpt>
      <trkpt lat="44.10968" lon="2.99858">
        <ele>591.2</ele>
        <time>2018-05-19T11:10:43Z</time>
      </trkpt>
      <trkpt lat="44.1097" lon="2.99863">
        <ele>591.3</ele>
        <time>2018-05-19T11:10:45Z</time>
      </trkpt>
      <trkpt lat="44.10971" lon="2.99867">
        <ele>591.5</ele>
        <time>2018-05-19T11:10:47Z</time>
      </trkpt>
      <trkpt lat="44.10973" lon="2.99871">
        <ele>591.7</ele>
        <time>2018-05-19T11:10:49Z</time>
      </trkpt>
      <trkpt lat="44.10975" lon="2.99875">
        <ele>591.9</ele>
        <time>2018-05-19T11:10:51Z</time>
      </trkpt>
      <trkpt lat="44.10977" lon="2.9988">
        <ele>592.1</ele>
        <time>2018-05-19T11:10:53Z</time>
      </trkpt>
      <trkpt lat="44.10978" lon="2.99884">
        <ele>592.3</ele>
        <time>2018-05-19T11:10:55Z</time>
      </trkpt>
      <trkpt lat="44.1098" lon="2.99889">
        <ele>592.5</ele>
        <time>2018-05-19T11:10:57Z</time>
      </trkpt>
      <trkpt lat="44.10982" lon="2.99893">
        <ele>592.8</ele>
        <time>2018-05-19T11:10:59Z</time>
      </trkpt>
      <trkpt lat="44.10984" lon="2.99899">
        <ele>593</ele>
        <time>2018-05-19T11:11:01Z</time>
      </trkpt>
      <trkpt lat="44.10986" lon="2.99904">
        <ele>593.2</ele>
        <time>2018-05-19T11:11:03Z</time>
      </trkpt>
      <trkpt lat="44.10986" lon="2.99909">
        <ele>593.5</ele>
        <time>2018-05-19T11:11:05Z</time>
      </trkpt>
      <trkpt lat="44.10988" lon="2.99915">
        <ele>593.8</ele>
        <time>2018-05-19T11:11:07Z</time>
      </trkpt>
      <trkpt lat="44.1099" lon="2.9992">
        <ele>594</ele>
        <time>2018-05-19T11:11:09Z</time>
      </trkpt>
      <trkpt lat="44.10991" lon="2.99924">
        <ele>594.2</ele>
        <time>2018-05-19T11:11:11Z</time>
      </trkpt>
      <trkpt lat="44.10992" lon="2.99929">
        <ele>594.4</ele>
        <time>2018-05-19T11:11:13Z</time>
      </trkpt>
      <trkpt lat="44.10993" lon="2.99933">
        <ele>594.6</ele>
        <time>2018-05-19T11:11:15Z</time>
      </trkpt>
      <trkpt lat="44.10994" lon="2.99937">
        <ele>594.8</ele>
        <time>2018-05-19T11:11:17Z</time>
      </trkpt>
      <trkpt lat="44.10995" lon="2.99941">
        <ele>595</ele>
        <time>2018-05-19T11:11:19Z</time>
      </trkpt>
      <trkpt lat="44.10996" lon="2.99946">
        <ele>595.2</ele>
        <time>2018-05-19T11:11:21Z</time>
      </trkpt>
      <trkpt lat="44.10997" lon="2.9995">
        <ele>595.4</ele>
        <time>2018-05-19T11:11:23Z</time>
      </trkpt>
      <trkpt lat="44.10999" lon="2.99953">
        <ele>595.6</ele>
        <time>2018-05-19T11:11:25Z</time>
      </trkpt>
      <trkpt lat="44.11" lon="2.99959">
        <ele>595.8</ele>
        <time>2018-05-19T11:11:28Z</time>
      </trkpt>
      <trkpt lat="44.11001" lon="2.99963">
        <ele>596</ele>
        <time>2018-05-19T11:11:30Z</time>
      </trkpt>
      <trkpt lat="44.11002" lon="2.99968">
        <ele>596.1</ele>
        <time>2018-05-19T11:11:32Z</time>
      </trkpt>
      <trkpt lat="44.11002" lon="2.99972">
        <ele>596.2</ele>
        <time>2018-05-19T11:11:34Z</time>
      </trkpt>
      <trkpt lat="44.11003" lon="2.99977">
        <ele>596.4</ele>
        <time>2018-05-19T11:11:36Z</time>
      </trkpt>
      <trkpt lat="44.11005" lon="2.99981">
        <ele>596.5</ele>
        <time>2018-05-19T11:11:38Z</time>
      </trkpt>
      <trkpt lat="44.11006" lon="2.99986">
        <ele>596.7</ele>
        <time>2018-05-19T11:11:40Z</time>
      </trkpt>
      <trkpt lat="44.11007" lon="2.9999">
        <ele>596.8</ele>
        <time>2018-05-19T11:11:42Z</time>
      </trkpt>
      <trkpt lat="44.11007" lon="2.99994">
        <ele>597</ele>
        <time>2018-05-19T11:11:44Z</time>
      </trkpt>
      <trkpt lat="44.11009" lon="2.99998">
        <ele>597.2</ele>
        <time>2018-05-19T11:11:46Z</time>
      </trkpt>
      <trkpt lat="44.1101" lon="3.00003">
        <ele>597.5</ele>
        <time>2018-05-19T11:11:49Z</time>
      </trkpt>
      <trkpt lat="44.11012" lon="3.00008">
        <ele>597.7</ele>
        <time>2018-05-19T11:11:51Z</time>
      </trkpt>
      <trkpt lat="44.11013" lon="3.00011">
        <ele>597.9</ele>
        <time>2018-05-19T11:11:53Z</time>
      </trkpt>
      <trkpt lat="44.11014" lon="3.00015">
        <ele>598.1</ele>
        <time>2018-05-19T11:12:00Z</time>
      </trkpt>
      <trkpt lat="44.11014" lon="3.00019">
        <ele>598.2</ele>
        <time>2018-05-19T11:12:07Z</time>
      </trkpt>
      <trkpt lat="44.11012" lon="3.00022">
        <ele>598.3</ele>
        <time>2018-05-19T11:12:14Z</time>
      </trkpt>
      <trkpt lat="44.11014" lon="3.00024">
        <ele>598.4</ele>
        <time>2018-05-19T11:12:20Z</time>
      </trkpt>
      <trkpt lat="44.11011" lon="3.00023">
        <ele>598.4</ele>
        <time>2018-05-19T11:12:53Z</time>
      </trkpt>
      <trkpt lat="44.11008" lon="3.00023">
        <ele>598.5</ele>
        <time>2018-05-19T11:12:55Z</time>
      </trkpt>
      <trkpt lat="44.11005" lon="3.00024">
        <ele>598.6</ele>
        <time>2018-05-19T11:12:58Z</time>
      </trkpt>
      <trkpt lat="44.11008" lon="3.00025">
        <ele>598.7</ele>
        <time>2018-05-19T11:13:23Z</time>
      </trkpt>
      <trkpt lat="44.11011" lon="3.00025">
        <ele>598.8</ele>
        <time>2018-05-19T11:13:37Z</time>
      </trkpt>
      <trkpt lat="44.11015" lon="3.00028">
        <ele>598.9</ele>
        <time>2018-05-19T11:17:27Z</time>
      </trkpt>
      <trkpt lat="44.11012" lon="3.00027">
        <ele>599</ele>
        <time>2018-05-19T11:17:29Z</time>
      </trkpt>
      <trkpt lat="44.11009" lon="3.00023">
        <ele>599</ele>
        <time>2018-05-19T11:17:31Z</time>
      </trkpt>
      <trkpt lat="44.11007" lon="3.0002">
        <ele>599</ele>
        <time>2018-05-19T11:17:33Z</time>
      </trkpt>
      <trkpt lat="44.11004" lon="3.00016">
        <ele>599.1</ele>
        <time>2018-05-19T11:17:35Z</time>
      </trkpt>
      <trkpt lat="44.11002" lon="3.00011">
        <ele>599.2</ele>
        <time>2018-05-19T11:17:37Z</time>
      </trkpt>
      <trkpt lat="44.11001" lon="3.00007">
        <ele>599.2</ele>
        <time>2018-05-19T11:17:39Z</time>
      </trkpt>
      <trkpt lat="44.11" lon="3.00002">
        <ele>599.3</ele>
        <time>2018-05-19T11:17:41Z</time>
      </trkpt>
      <trkpt lat="44.10998" lon="2.99999">
        <ele>599.3</ele>
        <time>2018-05-19T11:17:42Z</time>
      </trkpt>
      <trkpt lat="44.10996" lon="2.99994">
        <ele>599.4</ele>
        <time>2018-05-19T11:17:44Z</time>
      </trkpt>
      <trkpt lat="44.10994" lon="2.9999">
        <ele>599.5</ele>
        <time>2018-05-19T11:17:46Z</time>
      </trkpt>
      <trkpt lat="44.10992" lon="2.99986">
        <ele>599.5</ele>
        <time>2018-05-19T11:17:48Z</time>
      </trkpt>
      <trkpt lat="44.10989" lon="2.99981">
        <ele>599.7</ele>
        <time>2018-05-19T11:17:50Z</time>
      </trkpt>
      <trkpt lat="44.10986" lon="2.99975">
        <ele>599.9</ele>
        <time>2018-05-19T11:17:52Z</time>
      </trkpt>
      <trkpt lat="44.10985" lon="2.99972">
        <ele>600.1</ele>
        <time>2018-05-19T11:17:53Z</time>
      </trkpt>
      <trkpt lat="44.10982" lon="2.99966">
        <ele>600.4</ele>
        <time>2018-05-19T11:17:55Z</time>
      </trkpt>
      <trkpt lat="44.1098" lon="2.99963">
        <ele>600.6</ele>
        <time>2018-05-19T11:17:56Z</time>
      </trkpt>
      <trkpt lat="44.10978" lon="2.99959">
        <ele>600.8</ele>
        <time>2018-05-19T11:17:57Z</time>
      </trkpt>
      <trkpt lat="44.10976" lon="2.99955">
        <ele>601</ele>
        <time>2018-05-19T11:17:58Z</time>
      </trkpt>
      <trkpt lat="44.10974" lon="2.9995">
        <ele>601.3</ele>
        <time>2018-05-19T11:17:59Z</time>
      </trkpt>
      <trkpt lat="44.10972" lon="2.99946">
        <ele>601.5</ele>
        <time>2018-05-19T11:18:00Z</time>
      </trkpt>
      <trkpt lat="44.1097" lon="2.99942">
        <ele>601.7</ele>
        <time>2018-05-19T11:18:01Z</time>
      </trkpt>
      <trkpt lat="44.10968" lon="2.99938">
        <ele>601.9</ele>
        <time>2018-05-19T11:18:02Z</time>
      </trkpt>
      <trkpt lat="44.10966" lon="2.99934">
        <ele>602.1</ele>
        <time>2018-05-19T11:18:03Z</time>
      </trkpt>
      <trkpt lat="44.10963" lon="2.99931">
        <ele>602.3</ele>
        <time>2018-05-19T11:18:04Z</time>
      </trkpt>
      <trkpt lat="44.10961" lon="2.99928">
        <ele>602.5</ele>
        <time>2018-05-19T11:18:05Z</time>
      </trkpt>
      <trkpt lat="44.10958" lon="2.99925">
        <ele>602.7</ele>
        <time>2018-05-19T11:18:06Z</time>
      </trkpt>
      <trkpt lat="44.10956" lon="2.99922">
        <ele>602.8</ele>
        <time>2018-05-19T11:18:07Z</time>
      </trkpt>
      <trkpt lat="44.10954" lon="2.99919">
        <ele>602.9</ele>
        <time>2018-05-19T11:18:08Z</time>
      </trkpt>
      <trkpt lat="44.10952" lon="2.99915">
        <ele>603</ele>
        <time>2018-05-19T11:18:09Z</time>
      </trkpt>
      <trkpt lat="44.1095" lon="2.99911">
        <ele>603.2</ele>
        <time>2018-05-19T11:18:10Z</time>
      </trkpt>
      <trkpt lat="44.10947" lon="2.99908">
        <ele>603.3</ele>
        <time>2018-05-19T11:18:11Z</time>
      </trkpt>
      <trkpt lat="44.10945" lon="2.99904">
        <ele>603.4</ele>
        <time>2018-05-19T11:18:12Z</time>
      </trkpt>
      <trkpt lat="44.10943" lon="2.99902">
        <ele>603.5</ele>
        <time>2018-05-19T11:18:13Z</time>
      </trkpt>
      <trkpt lat="44.1094" lon="2.99899">
        <ele>603.7</ele>
        <time>2018-05-19T11:18:14Z</time>
      </trkpt>
      <trkpt lat="44.10938" lon="2.99896">
        <ele>603.9</ele>
        <time>2018-05-19T11:18:15Z</time>
      </trkpt>
      <trkpt lat="44.10934" lon="2.99891">
        <ele>604.2</ele>
        <time>2018-05-19T11:18:17Z</time>
      </trkpt>
      <trkpt lat="44.10931" lon="2.99886">
        <ele>604.7</ele>
        <time>2018-05-19T11:18:19Z</time>
      </trkpt>
      <trkpt lat="44.10927" lon="2.99882">
        <ele>605.1</ele>
        <time>2018-05-19T11:18:21Z</time>
      </trkpt>
      <trkpt lat="44.10924" lon="2.99878">
        <ele>605.4</ele>
        <time>2018-05-19T11:18:23Z</time>
      </trkpt>
      <trkpt lat="44.10921" lon="2.99876">
        <ele>605.7</ele>
        <time>2018-05-19T11:18:25Z</time>
      </trkpt>
      <trkpt lat="44.10917" lon="2.99875">
        <ele>606</ele>
        <time>2018-05-19T11:18:27Z</time>
      </trkpt>
      <trkpt lat="44.10914" lon="2.99874">
        <ele>606.3</ele>
        <time>2018-05-19T11:18:29Z</time>
      </trkpt>
      <trkpt lat="44.10909" lon="2.99871">
        <ele>606.6</ele>
        <time>2018-05-19T11:18:31Z</time>
      </trkpt>
      <trkpt lat="44.10904" lon="2.99868">
        <ele>606.9</ele>
        <time>2018-05-19T11:18:33Z</time>
      </trkpt>
      <trkpt lat="44.109" lon="2.99864">
        <ele>607.3</ele>
        <time>2018-05-19T11:18:35Z</time>
      </trkpt>
      <trkpt lat="44.10896" lon="2.99862">
        <ele>607.5</ele>
        <time>2018-05-19T11:18:37Z</time>
      </trkpt>
      <trkpt lat="44.10892" lon="2.99861">
        <ele>607.8</ele>
        <time>2018-05-19T11:18:39Z</time>
      </trkpt>
      <trkpt lat="44.10887" lon="2.9986">
        <ele>608.1</ele>
        <time>2018-05-19T11:18:41Z</time>
      </trkpt>
      <trkpt lat="44.10884" lon="2.9986">
        <ele>608.3</ele>
        <time>2018-05-19T11:18:43Z</time>
      </trkpt>
      <trkpt lat="44.10881" lon="2.9986">
        <ele>608.5</ele>
        <time>2018-05-19T11:18:45Z</time>
      </trkpt>
      <trkpt lat="44.10878" lon="2.99863">
        <ele>608.7</ele>
        <time>2018-05-19T11:18:47Z</time>
      </trkpt>
      <trkpt lat="44.10876" lon="2.99866">
        <ele>608.8</ele>
        <time>2018-05-19T11:18:49Z</time>
      </trkpt>
      <trkpt lat="44.10875" lon="2.99871">
        <ele>609</ele>
        <time>2018-05-19T11:18:51Z</time>
      </trkpt>
      <trkpt lat="44.10873" lon="2.99876">
        <ele>609.2</ele>
        <time>2018-05-19T11:18:53Z</time>
      </trkpt>
      <trkpt lat="44.10869" lon="2.9988">
        <ele>609.5</ele>
        <time>2018-05-19T11:18:55Z</time>
      </trkpt>
      <trkpt lat="44.10868" lon="2.99883">
        <ele>609.7</ele>
        <time>2018-05-19T11:18:56Z</time>
      </trkpt>
      <trkpt lat="44.10865" lon="2.99889">
        <ele>610</ele>
        <time>2018-05-19T11:18:58Z</time>
      </trkpt>
      <trkpt lat="44.10862" lon="2.99895">
        <ele>610.3</ele>
        <time>2018-05-19T11:19:00Z</time>
      </trkpt>
      <trkpt lat="44.10861" lon="2.99901">
        <ele>610.5</ele>
        <time>2018-05-19T11:19:02Z</time>
      </trkpt>
      <trkpt lat="44.10861" lon="2.99906">
        <ele>610.6</ele>
        <time>2018-05-19T11:19:04Z</time>
      </trkpt>
      <trkpt lat="44.10859" lon="2.9991">
        <ele>610.7</ele>
        <time>2018-05-19T11:19:06Z</time>
      </trkpt>
      <trkpt lat="44.10859" lon="2.99915">
        <ele>610.9</ele>
        <time>2018-05-19T11:19:08Z</time>
      </trkpt>
      <trkpt lat="44.10858" lon="2.9992">
        <ele>611</ele>
        <time>2018-05-19T11:19:10Z</time>
      </trkpt>
      <trkpt lat="44.10857" lon="2.99924">
        <ele>611.2</ele>
        <time>2018-05-19T11:19:12Z</time>
      </trkpt>
      <trkpt lat="44.10856" lon="2.99929">
        <ele>611.4</ele>
        <time>2018-05-19T11:19:14Z</time>
      </trkpt>
      <trkpt lat="44.10854" lon="2.99935">
        <ele>611.6</ele>
        <time>2018-05-19T11:19:16Z</time>
      </trkpt>
      <trkpt lat="44.10851" lon="2.99941">
        <ele>611.9</ele>
        <time>2018-05-19T11:19:18Z</time>
      </trkpt>
      <trkpt lat="44.10849" lon="2.99944">
        <ele>612</ele>
        <time>2018-05-19T11:19:19Z</time>
      </trkpt>
      <trkpt lat="44.10847" lon="2.99947">
        <ele>612.2</ele>
        <time>2018-05-19T11:19:20Z</time>
      </trkpt>
      <trkpt lat="44.10844" lon="2.99952">
        <ele>612.4</ele>
        <time>2018-05-19T11:19:22Z</time>
      </trkpt>
      <trkpt lat="44.10842" lon="2.99957">
        <ele>612.6</ele>
        <time>2018-05-19T11:19:24Z</time>
      </trkpt>
      <trkpt lat="44.10841" lon="2.99961">
        <ele>612.7</ele>
        <time>2018-05-19T11:19:26Z</time>
      </trkpt>
      <trkpt lat="44.10841" lon="2.99966">
        <ele>612.9</ele>
        <time>2018-05-19T11:19:28Z</time>
      </trkpt>
      <trkpt lat="44.10839" lon="2.9997">
        <ele>613.1</ele>
        <time>2018-05-19T11:19:30Z</time>
      </trkpt>
      <trkpt lat="44.10836" lon="2.99973">
        <ele>613.3</ele>
        <time>2018-05-19T11:19:32Z</time>
      </trkpt>
      <trkpt lat="44.10833" lon="2.99977">
        <ele>613.5</ele>
        <time>2018-05-19T11:19:34Z</time>
      </trkpt>
      <trkpt lat="44.10831" lon="2.99983">
        <ele>613.9</ele>
        <time>2018-05-19T11:19:36Z</time>
      </trkpt>
      <trkpt lat="44.1083" lon="2.99987">
        <ele>614.1</ele>
        <time>2018-05-19T11:19:38Z</time>
      </trkpt>
      <trkpt lat="44.10829" lon="2.99992">
        <ele>614.3</ele>
        <time>2018-05-19T11:19:41Z</time>
      </trkpt>
      <trkpt lat="44.10827" lon="2.99997">
        <ele>614.6</ele>
        <time>2018-05-19T11:19:43Z</time>
      </trkpt>
      <trkpt lat="44.10824" lon="3">
        <ele>614.9</ele>
        <time>2018-05-19T11:19:45Z</time>
      </trkpt>
      <trkpt lat="44.10821" lon="3.00003">
        <ele>615.2</ele>
        <time>2018-05-19T11:19:47Z</time>
      </trkpt>
      <trkpt lat="44.10818" lon="3.00008">
        <ele>615.6</ele>
        <time>2018-05-19T11:19:49Z</time>
      </trkpt>
      <trkpt lat="44.10814" lon="3.00012">
        <ele>616.1</ele>
        <time>2018-05-19T11:19:51Z</time>
      </trkpt>
      <trkpt lat="44.10812" lon="3.00017">
        <ele>616.3</ele>
        <time>2018-05-19T11:19:53Z</time>
      </trkpt>
      <trkpt lat="44.10811" lon="3.00022">
        <ele>616.5</ele>
        <time>2018-05-19T11:19:55Z</time>
      </trkpt>
      <trkpt lat="44.1081" lon="3.00026">
        <ele>616.7</ele>
        <time>2018-05-19T11:19:57Z</time>
      </trkpt>
      <trkpt lat="44.10809" lon="3.00031">
        <ele>616.9</ele>
        <time>2018-05-19T11:19:59Z</time>
      </trkpt>
      <trkpt lat="44.10806" lon="3.00035">
        <ele>617.1</ele>
        <time>2018-05-19T11:20:01Z</time>
      </trkpt>
      <trkpt lat="44.10803" lon="3.0004">
        <ele>617.3</ele>
        <time>2018-05-19T11:20:03Z</time>
      </trkpt>
      <trkpt lat="44.108" lon="3.00044">
        <ele>617.6</ele>
        <time>2018-05-19T11:20:05Z</time>
      </trkpt>
      <trkpt lat="44.10796" lon="3.00046">
        <ele>617.8</ele>
        <time>2018-05-19T11:20:07Z</time>
      </trkpt>
      <trkpt lat="44.10792" lon="3.00047">
        <ele>618</ele>
        <time>2018-05-19T11:20:09Z</time>
      </trkpt>
      <trkpt lat="44.10787" lon="3.00048">
        <ele>618.1</ele>
        <time>2018-05-19T11:20:11Z</time>
      </trkpt>
      <trkpt lat="44.10783" lon="3.0005">
        <ele>618.2</ele>
        <time>2018-05-19T11:20:13Z</time>
      </trkpt>
      <trkpt lat="44.10779" lon="3.00052">
        <ele>618.3</ele>
        <time>2018-05-19T11:20:15Z</time>
      </trkpt>
      <trkpt lat="44.10775" lon="3.00054">
        <ele>618.3</ele>
        <time>2018-05-19T11:20:17Z</time>
      </trkpt>
      <trkpt lat="44.1077" lon="3.00054">
        <ele>618.3</ele>
        <time>2018-05-19T11:20:19Z</time>
      </trkpt>
      <trkpt lat="44.10767" lon="3.00055">
        <ele>618.3</ele>
        <time>2018-05-19T11:20:21Z</time>
      </trkpt>
      <trkpt lat="44.10765" lon="3.0006">
        <ele>618.3</ele>
        <time>2018-05-19T11:20:24Z</time>
      </trkpt>
      <trkpt lat="44.10762" lon="3.00064">
        <ele>618.3</ele>
        <time>2018-05-19T11:20:26Z</time>
      </trkpt>
      <trkpt lat="44.10759" lon="3.00067">
        <ele>618.2</ele>
        <time>2018-05-19T11:20:28Z</time>
      </trkpt>
      <trkpt lat="44.10754" lon="3.00069">
        <ele>618.1</ele>
        <time>2018-05-19T11:20:30Z</time>
      </trkpt>
      <trkpt lat="44.10749" lon="3.0007">
        <ele>618</ele>
        <time>2018-05-19T11:20:32Z</time>
      </trkpt>
      <trkpt lat="44.10744" lon="3.0007">
        <ele>617.9</ele>
        <time>2018-05-19T11:20:34Z</time>
      </trkpt>
      <trkpt lat="44.10741" lon="3.00067">
        <ele>617.7</ele>
        <time>2018-05-19T11:20:35Z</time>
      </trkpt>
      <trkpt lat="44.10738" lon="3.00064">
        <ele>617.5</ele>
        <time>2018-05-19T11:20:36Z</time>
      </trkpt>
      <trkpt lat="44.10735" lon="3.00061">
        <ele>617</ele>
        <time>2018-05-19T11:20:37Z</time>
      </trkpt>
      <trkpt lat="44.10731" lon="3.0006">
        <ele>616.6</ele>
        <time>2018-05-19T11:20:38Z</time>
      </trkpt>
      <trkpt lat="44.10726" lon="3.00055">
        <ele>616.3</ele>
        <time>2018-05-19T11:20:39Z</time>
      </trkpt>
      <trkpt lat="44.10723" lon="3.00051">
        <ele>616.1</ele>
        <time>2018-05-19T11:20:40Z</time>
      </trkpt>
      <trkpt lat="44.10721" lon="3.00046">
        <ele>616</ele>
        <time>2018-05-19T11:20:41Z</time>
      </trkpt>
      <trkpt lat="44.10718" lon="3.00043">
        <ele>615.9</ele>
        <time>2018-05-19T11:20:42Z</time>
      </trkpt>
      <trkpt lat="44.10714" lon="3.0004">
        <ele>615.9</ele>
        <time>2018-05-19T11:20:43Z</time>
      </trkpt>
      <trkpt lat="44.1071" lon="3.0004">
        <ele>615.8</ele>
        <time>2018-05-19T11:20:44Z</time>
      </trkpt>
      <trkpt lat="44.10707" lon="3.00041">
        <ele>615.9</ele>
        <time>2018-05-19T11:20:45Z</time>
      </trkpt>
      <trkpt lat="44.10703" lon="3.00044">
        <ele>615.9</ele>
        <time>2018-05-19T11:20:47Z</time>
      </trkpt>
      <trkpt lat="44.10699" lon="3.00047">
        <ele>616.1</ele>
        <time>2018-05-19T11:20:49Z</time>
      </trkpt>
      <trkpt lat="44.10694" lon="3.0005">
        <ele>616.3</ele>
        <time>2018-05-19T11:20:51Z</time>
      </trkpt>
      <trkpt lat="44.10689" lon="3.00051">
        <ele>616.6</ele>
        <time>2018-05-19T11:20:53Z</time>
      </trkpt>
      <trkpt lat="44.10685" lon="3.00054">
        <ele>616.9</ele>
        <time>2018-05-19T11:20:55Z</time>
      </trkpt>
      <trkpt lat="44.10682" lon="3.00059">
        <ele>617.1</ele>
        <time>2018-05-19T11:20:57Z</time>
      </trkpt>
      <trkpt lat="44.10678" lon="3.00064">
        <ele>617.2</ele>
        <time>2018-05-19T11:20:59Z</time>
      </trkpt>
      <trkpt lat="44.10674" lon="3.00069">
        <ele>617.3</ele>
        <time>2018-05-19T11:21:01Z</time>
      </trkpt>
      <trkpt lat="44.10672" lon="3.00071">
        <ele>617.3</ele>
        <time>2018-05-19T11:21:02Z</time>
      </trkpt>
      <trkpt lat="44.1067" lon="3.00073">
        <ele>617.4</ele>
        <time>2018-05-19T11:21:03Z</time>
      </trkpt>
      <trkpt lat="44.10667" lon="3.00074">
        <ele>617.4</ele>
        <time>2018-05-19T11:21:04Z</time>
      </trkpt>
      <trkpt lat="44.10663" lon="3.00075">
        <ele>617.5</ele>
        <time>2018-05-19T11:21:05Z</time>
      </trkpt>
      <trkpt lat="44.1066" lon="3.00076">
        <ele>617.5</ele>
        <time>2018-05-19T11:21:06Z</time>
      </trkpt>
      <trkpt lat="44.10656" lon="3.00078">
        <ele>617.5</ele>
        <time>2018-05-19T11:21:07Z</time>
      </trkpt>
      <trkpt lat="44.10654" lon="3.0008">
        <ele>617.5</ele>
        <time>2018-05-19T11:21:08Z</time>
      </trkpt>
      <trkpt lat="44.10651" lon="3.00083">
        <ele>617.5</ele>
        <time>2018-05-19T11:21:09Z</time>
      </trkpt>
      <trkpt lat="44.10648" lon="3.00085">
        <ele>617.5</ele>
        <time>2018-05-19T11:21:10Z</time>
      </trkpt>
      <trkpt lat="44.10646" lon="3.00088">
        <ele>617.5</ele>
        <time>2018-05-19T11:21:11Z</time>
      </trkpt>
      <trkpt lat="44.10643" lon="3.00091">
        <ele>617.5</ele>
        <time>2018-05-19T11:21:12Z</time>
      </trkpt>
      <trkpt lat="44.10641" lon="3.00095">
        <ele>617.5</ele>
        <time>2018-05-19T11:21:13Z</time>
      </trkpt>
      <trkpt lat="44.10639" lon="3.00098">
        <ele>617.6</ele>
        <time>2018-05-19T11:21:14Z</time>
      </trkpt>
      <trkpt lat="44.10637" lon="3.00101">
        <ele>617.6</ele>
        <time>2018-05-19T11:21:15Z</time>
      </trkpt>
      <trkpt lat="44.10634" lon="3.00107">
        <ele>617.6</ele>
        <time>2018-05-19T11:21:17Z</time>
      </trkpt>
      <trkpt lat="44.10632" lon="3.00109">
        <ele>617.7</ele>
        <time>2018-05-19T11:21:18Z</time>
      </trkpt>
      <trkpt lat="44.1063" lon="3.00113">
        <ele>617.7</ele>
        <time>2018-05-19T11:21:19Z</time>
      </trkpt>
      <trkpt lat="44.10628" lon="3.00116">
        <ele>617.7</ele>
        <time>2018-05-19T11:21:20Z</time>
      </trkpt>
      <trkpt lat="44.10625" lon="3.00119">
        <ele>617.7</ele>
        <time>2018-05-19T11:21:21Z</time>
      </trkpt>
      <trkpt lat="44.10623" lon="3.00122">
        <ele>617.8</ele>
        <time>2018-05-19T11:21:22Z</time>
      </trkpt>
      <trkpt lat="44.10621" lon="3.00125">
        <ele>617.9</ele>
        <time>2018-05-19T11:21:23Z</time>
      </trkpt>
      <trkpt lat="44.10618" lon="3.00127">
        <ele>618.1</ele>
        <time>2018-05-19T11:21:24Z</time>
      </trkpt>
      <trkpt lat="44.10616" lon="3.0013">
        <ele>618.2</ele>
        <time>2018-05-19T11:21:25Z</time>
      </trkpt>
      <trkpt lat="44.10614" lon="3.00134">
        <ele>618.4</ele>
        <time>2018-05-19T11:21:26Z</time>
      </trkpt>
      <trkpt lat="44.10613" lon="3.00138">
        <ele>618.6</ele>
        <time>2018-05-19T11:21:27Z</time>
      </trkpt>
      <trkpt lat="44.10612" lon="3.00142">
        <ele>618.7</ele>
        <time>2018-05-19T11:21:28Z</time>
      </trkpt>
      <trkpt lat="44.10612" lon="3.00146">
        <ele>618.8</ele>
        <time>2018-05-19T11:21:29Z</time>
      </trkpt>
      <trkpt lat="44.1061" lon="3.0015">
        <ele>618.9</ele>
        <time>2018-05-19T11:21:30Z</time>
      </trkpt>
      <trkpt lat="44.10609" lon="3.00154">
        <ele>619</ele>
        <time>2018-05-19T11:21:31Z</time>
      </trkpt>
      <trkpt lat="44.10606" lon="3.00158">
        <ele>619.1</ele>
        <time>2018-05-19T11:21:32Z</time>
      </trkpt>
      <trkpt lat="44.10604" lon="3.00162">
        <ele>619.1</ele>
        <time>2018-05-19T11:21:33Z</time>
      </trkpt>
      <trkpt lat="44.10602" lon="3.00167">
        <ele>619.2</ele>
        <time>2018-05-19T11:21:34Z</time>
      </trkpt>
      <trkpt lat="44.106" lon="3.00172">
        <ele>619.4</ele>
        <time>2018-05-19T11:21:35Z</time>
      </trkpt>
      <trkpt lat="44.106" lon="3.00176">
        <ele>619.6</ele>
        <time>2018-05-19T11:21:36Z</time>
      </trkpt>
      <trkpt lat="44.106" lon="3.0018">
        <ele>619.8</ele>
        <time>2018-05-19T11:21:37Z</time>
      </trkpt>
      <trkpt lat="44.10599" lon="3.00185">
        <ele>620</ele>
        <time>2018-05-19T11:21:38Z</time>
      </trkpt>
      <trkpt lat="44.10598" lon="3.00189">
        <ele>620.2</ele>
        <time>2018-05-19T11:21:39Z</time>
      </trkpt>
      <trkpt lat="44.10597" lon="3.00193">
        <ele>620.5</ele>
        <time>2018-05-19T11:21:40Z</time>
      </trkpt>
      <trkpt lat="44.10596" lon="3.00199">
        <ele>620.9</ele>
        <time>2018-05-19T11:21:42Z</time>
      </trkpt>
      <trkpt lat="44.10596" lon="3.00204">
        <ele>621.1</ele>
        <time>2018-05-19T11:21:44Z</time>
      </trkpt>
      <trkpt lat="44.10597" lon="3.00209">
        <ele>621.1</ele>
        <time>2018-05-19T11:21:46Z</time>
      </trkpt>
      <trkpt lat="44.10597" lon="3.00213">
        <ele>621.2</ele>
        <time>2018-05-19T11:21:48Z</time>
      </trkpt>
      <trkpt lat="44.10598" lon="3.00217">
        <ele>621.3</ele>
        <time>2018-05-19T11:21:50Z</time>
      </trkpt>
      <trkpt lat="44.106" lon="3.00222">
        <ele>621.3</ele>
        <time>2018-05-19T11:21:53Z</time>
      </trkpt>
      <trkpt lat="44.10602" lon="3.00226">
        <ele>621.4</ele>
        <time>2018-05-19T11:21:55Z</time>
      </trkpt>
      <trkpt lat="44.10603" lon="3.0023">
        <ele>621.5</ele>
        <time>2018-05-19T11:21:57Z</time>
      </trkpt>
      <trkpt lat="44.10605" lon="3.00234">
        <ele>621.6</ele>
        <time>2018-05-19T11:21:59Z</time>
      </trkpt>
      <trkpt lat="44.10606" lon="3.00239">
        <ele>621.7</ele>
        <time>2018-05-19T11:22:01Z</time>
      </trkpt>
      <trkpt lat="44.10607" lon="3.00243">
        <ele>621.7</ele>
        <time>2018-05-19T11:22:03Z</time>
      </trkpt>
      <trkpt lat="44.10609" lon="3.00246">
        <ele>621.8</ele>
        <time>2018-05-19T11:22:05Z</time>
      </trkpt>
      <trkpt lat="44.10611" lon="3.0025">
        <ele>621.9</ele>
        <time>2018-05-19T11:22:08Z</time>
      </trkpt>
      <trkpt lat="44.10612" lon="3.00254">
        <ele>622</ele>
        <time>2018-05-19T11:22:11Z</time>
      </trkpt>
      <trkpt lat="44.10613" lon="3.00263">
        <ele>622.2</ele>
        <time>2018-05-19T11:25:13Z</time>
      </trkpt>
      <trkpt lat="44.10614" lon="3.00267">
        <ele>622.3</ele>
        <time>2018-05-19T11:25:15Z</time>
      </trkpt>
      <trkpt lat="44.10616" lon="3.00272">
        <ele>622.4</ele>
        <time>2018-05-19T11:25:17Z</time>
      </trkpt>
      <trkpt lat="44.10617" lon="3.00277">
        <ele>622.5</ele>
        <time>2018-05-19T11:25:19Z</time>
      </trkpt>
      <trkpt lat="44.10619" lon="3.00283">
        <ele>622.6</ele>
        <time>2018-05-19T11:25:21Z</time>
      </trkpt>
      <trkpt lat="44.10621" lon="3.00288">
        <ele>622.7</ele>
        <time>2018-05-19T11:25:23Z</time>
      </trkpt>
      <trkpt lat="44.10623" lon="3.00293">
        <ele>622.8</ele>
        <time>2018-05-19T11:25:25Z</time>
      </trkpt>
      <trkpt lat="44.10627" lon="3.00297">
        <ele>623.4</ele>
        <time>2018-05-19T11:25:27Z</time>
      </trkpt>
      <trkpt lat="44.10631" lon="3.003">
        <ele>623.6</ele>
        <time>2018-05-19T11:25:29Z</time>
      </trkpt>
      <trkpt lat="44.10634" lon="3.00304">
        <ele>623.7</ele>
        <time>2018-05-19T11:25:31Z</time>
      </trkpt>
      <trkpt lat="44.10636" lon="3.0031">
        <ele>623.8</ele>
        <time>2018-05-19T11:25:33Z</time>
      </trkpt>
      <trkpt lat="44.10639" lon="3.00315">
        <ele>623.9</ele>
        <time>2018-05-19T11:25:35Z</time>
      </trkpt>
      <trkpt lat="44.10641" lon="3.00321">
        <ele>624</ele>
        <time>2018-05-19T11:25:37Z</time>
      </trkpt>
      <trkpt lat="44.10642" lon="3.00326">
        <ele>624.1</ele>
        <time>2018-05-19T11:25:39Z</time>
      </trkpt>
      <trkpt lat="44.10643" lon="3.00332">
        <ele>624.2</ele>
        <time>2018-05-19T11:25:41Z</time>
      </trkpt>
      <trkpt lat="44.10645" lon="3.00339">
        <ele>624.3</ele>
        <time>2018-05-19T11:25:43Z</time>
      </trkpt>
      <trkpt lat="44.10646" lon="3.00342">
        <ele>624.4</ele>
        <time>2018-05-19T11:25:44Z</time>
      </trkpt>
      <trkpt lat="44.10648" lon="3.00346">
        <ele>624.5</ele>
        <time>2018-05-19T11:25:45Z</time>
      </trkpt>
      <trkpt lat="44.1065" lon="3.0035">
        <ele>624.6</ele>
        <time>2018-05-19T11:25:46Z</time>
      </trkpt>
      <trkpt lat="44.10652" lon="3.00355">
        <ele>624.7</ele>
        <time>2018-05-19T11:25:47Z</time>
      </trkpt>
      <trkpt lat="44.10654" lon="3.0036">
        <ele>624.8</ele>
        <time>2018-05-19T11:25:48Z</time>
      </trkpt>
      <trkpt lat="44.10656" lon="3.00367">
        <ele>625</ele>
        <time>2018-05-19T11:25:49Z</time>
      </trkpt>
      <trkpt lat="44.10657" lon="3.00373">
        <ele>625.2</ele>
        <time>2018-05-19T11:25:50Z</time>
      </trkpt>
      <trkpt lat="44.10659" lon="3.0038">
        <ele>625.3</ele>
        <time>2018-05-19T11:25:51Z</time>
      </trkpt>
      <trkpt lat="44.10661" lon="3.00387">
        <ele>625.5</ele>
        <time>2018-05-19T11:25:52Z</time>
      </trkpt>
      <trkpt lat="44.10663" lon="3.00396">
        <ele>625.8</ele>
        <time>2018-05-19T11:25:53Z</time>
      </trkpt>
      <trkpt lat="44.10666" lon="3.00404">
        <ele>626.1</ele>
        <time>2018-05-19T11:25:54Z</time>
      </trkpt>
      <trkpt lat="44.10669" lon="3.00412">
        <ele>626.5</ele>
        <time>2018-05-19T11:25:55Z</time>
      </trkpt>
      <trkpt lat="44.10673" lon="3.00418">
        <ele>626.8</ele>
        <time>2018-05-19T11:25:56Z</time>
      </trkpt>
      <trkpt lat="44.10675" lon="3.00424">
        <ele>627.1</ele>
        <time>2018-05-19T11:25:57Z</time>
      </trkpt>
      <trkpt lat="44.10677" lon="3.00431">
        <ele>627.3</ele>
        <time>2018-05-19T11:25:58Z</time>
      </trkpt>
      <trkpt lat="44.10678" lon="3.00439">
        <ele>627.5</ele>
        <time>2018-05-19T11:25:59Z</time>
      </trkpt>
      <trkpt lat="44.10681" lon="3.00448">
        <ele>627.9</ele>
        <time>2018-05-19T11:26:00Z</time>
      </trkpt>
      <trkpt lat="44.10682" lon="3.00456">
        <ele>628.3</ele>
        <time>2018-05-19T11:26:01Z</time>
      </trkpt>
      <trkpt lat="44.10683" lon="3.00464">
        <ele>628.7</ele>
        <time>2018-05-19T11:26:02Z</time>
      </trkpt>
      <trkpt lat="44.10684" lon="3.00472">
        <ele>629.2</ele>
        <time>2018-05-19T11:26:03Z</time>
      </trkpt>
      <trkpt lat="44.10684" lon="3.00481">
        <ele>629.8</ele>
        <time>2018-05-19T11:26:04Z</time>
      </trkpt>
      <trkpt lat="44.10684" lon="3.00489">
        <ele>630.3</ele>
        <time>2018-05-19T11:26:05Z</time>
      </trkpt>
      <trkpt lat="44.10686" lon="3.00495">
        <ele>630.8</ele>
        <time>2018-05-19T11:26:06Z</time>
      </trkpt>
      <trkpt lat="44.10685" lon="3.00501">
        <ele>631.2</ele>
        <time>2018-05-19T11:26:07Z</time>
      </trkpt>
      <trkpt lat="44.10685" lon="3.00508">
        <ele>631.7</ele>
        <time>2018-05-19T11:26:08Z</time>
      </trkpt>
      <trkpt lat="44.10683" lon="3.00515">
        <ele>632.3</ele>
        <time>2018-05-19T11:26:09Z</time>
      </trkpt>
      <trkpt lat="44.10682" lon="3.00522">
        <ele>632.8</ele>
        <time>2018-05-19T11:26:10Z</time>
      </trkpt>
      <trkpt lat="44.1068" lon="3.00528">
        <ele>633.3</ele>
        <time>2018-05-19T11:26:11Z</time>
      </trkpt>
      <trkpt lat="44.10678" lon="3.00535">
        <ele>633.7</ele>
        <time>2018-05-19T11:26:12Z</time>
      </trkpt>
      <trkpt lat="44.10677" lon="3.00542">
        <ele>634.3</ele>
        <time>2018-05-19T11:26:13Z</time>
      </trkpt>
      <trkpt lat="44.10675" lon="3.00551">
        <ele>634.8</ele>
        <time>2018-05-19T11:26:14Z</time>
      </trkpt>
      <trkpt lat="44.10675" lon="3.00556">
        <ele>635.1</ele>
        <time>2018-05-19T11:26:15Z</time>
      </trkpt>
      <trkpt lat="44.10675" lon="3.00562">
        <ele>635.4</ele>
        <time>2018-05-19T11:26:16Z</time>
      </trkpt>
      <trkpt lat="44.10675" lon="3.00567">
        <ele>635.6</ele>
        <time>2018-05-19T11:26:17Z</time>
      </trkpt>
      <trkpt lat="44.10674" lon="3.00573">
        <ele>635.8</ele>
        <time>2018-05-19T11:26:18Z</time>
      </trkpt>
      <trkpt lat="44.10674" lon="3.00579">
        <ele>636</ele>
        <time>2018-05-19T11:26:19Z</time>
      </trkpt>
      <trkpt lat="44.10673" lon="3.00584">
        <ele>636.1</ele>
        <time>2018-05-19T11:26:20Z</time>
      </trkpt>
      <trkpt lat="44.10673" lon="3.0059">
        <ele>636.3</ele>
        <time>2018-05-19T11:26:21Z</time>
      </trkpt>
      <trkpt lat="44.10672" lon="3.00595">
        <ele>636.4</ele>
        <time>2018-05-19T11:26:22Z</time>
      </trkpt>
      <trkpt lat="44.10672" lon="3.006">
        <ele>636.6</ele>
        <time>2018-05-19T11:26:23Z</time>
      </trkpt>
      <trkpt lat="44.10672" lon="3.00605">
        <ele>636.7</ele>
        <time>2018-05-19T11:26:24Z</time>
      </trkpt>
      <trkpt lat="44.10673" lon="3.00611">
        <ele>636.9</ele>
        <time>2018-05-19T11:26:25Z</time>
      </trkpt>
      <trkpt lat="44.10674" lon="3.00616">
        <ele>637</ele>
        <time>2018-05-19T11:26:26Z</time>
      </trkpt>
      <trkpt lat="44.10674" lon="3.00621">
        <ele>637.2</ele>
        <time>2018-05-19T11:26:27Z</time>
      </trkpt>
      <trkpt lat="44.10675" lon="3.00626">
        <ele>637.4</ele>
        <time>2018-05-19T11:26:28Z</time>
      </trkpt>
      <trkpt lat="44.10677" lon="3.0063">
        <ele>637.6</ele>
        <time>2018-05-19T11:26:29Z</time>
      </trkpt>
      <trkpt lat="44.10678" lon="3.00634">
        <ele>637.7</ele>
        <time>2018-05-19T11:26:30Z</time>
      </trkpt>
      <trkpt lat="44.10678" lon="3.00638">
        <ele>637.8</ele>
        <time>2018-05-19T11:26:31Z</time>
      </trkpt>
      <trkpt lat="44.10679" lon="3.00641">
        <ele>637.9</ele>
        <time>2018-05-19T11:26:32Z</time>
      </trkpt>
      <trkpt lat="44.1068" lon="3.00645">
        <ele>638</ele>
        <time>2018-05-19T11:26:33Z</time>
      </trkpt>
      <trkpt lat="44.10681" lon="3.00652">
        <ele>638.2</ele>
        <time>2018-05-19T11:26:35Z</time>
      </trkpt>
      <trkpt lat="44.10682" lon="3.00659">
        <ele>638.4</ele>
        <time>2018-05-19T11:26:37Z</time>
      </trkpt>
      <trkpt lat="44.10682" lon="3.00663">
        <ele>638.5</ele>
        <time>2018-05-19T11:26:38Z</time>
      </trkpt>
      <trkpt lat="44.10683" lon="3.00667">
        <ele>638.7</ele>
        <time>2018-05-19T11:26:39Z</time>
      </trkpt>
      <trkpt lat="44.10684" lon="3.00672">
        <ele>638.9</ele>
        <time>2018-05-19T11:26:40Z</time>
      </trkpt>
      <trkpt lat="44.10685" lon="3.00676">
        <ele>639</ele>
        <time>2018-05-19T11:26:41Z</time>
      </trkpt>
      <trkpt lat="44.10686" lon="3.0068">
        <ele>639.2</ele>
        <time>2018-05-19T11:26:42Z</time>
      </trkpt>
      <trkpt lat="44.10688" lon="3.00684">
        <ele>639.3</ele>
        <time>2018-05-19T11:26:43Z</time>
      </trkpt>
      <trkpt lat="44.10689" lon="3.00687">
        <ele>639.4</ele>
        <time>2018-05-19T11:26:44Z</time>
      </trkpt>
      <trkpt lat="44.10691" lon="3.00691">
        <ele>639.6</ele>
        <time>2018-05-19T11:26:45Z</time>
      </trkpt>
      <trkpt lat="44.10693" lon="3.00696">
        <ele>639.9</ele>
        <time>2018-05-19T11:26:46Z</time>
      </trkpt>
      <trkpt lat="44.10695" lon="3.007">
        <ele>640.1</ele>
        <time>2018-05-19T11:26:47Z</time>
      </trkpt>
      <trkpt lat="44.10696" lon="3.00705">
        <ele>640.2</ele>
        <time>2018-05-19T11:26:48Z</time>
      </trkpt>
      <trkpt lat="44.10696" lon="3.00711">
        <ele>640.4</ele>
        <time>2018-05-19T11:26:49Z</time>
      </trkpt>
      <trkpt lat="44.10697" lon="3.00717">
        <ele>640.6</ele>
        <time>2018-05-19T11:26:50Z</time>
      </trkpt>
      <trkpt lat="44.10694" lon="3.00725">
        <ele>640.9</ele>
        <time>2018-05-19T11:26:51Z</time>
      </trkpt>
      <trkpt lat="44.10694" lon="3.00732">
        <ele>641.3</ele>
        <time>2018-05-19T11:26:52Z</time>
      </trkpt>
      <trkpt lat="44.10691" lon="3.00741">
        <ele>641.8</ele>
        <time>2018-05-19T11:26:53Z</time>
      </trkpt>
      <trkpt lat="44.1069" lon="3.00749">
        <ele>642.3</ele>
        <time>2018-05-19T11:26:54Z</time>
      </trkpt>
      <trkpt lat="44.10689" lon="3.00758">
        <ele>642.8</ele>
        <time>2018-05-19T11:26:55Z</time>
      </trkpt>
      <trkpt lat="44.10688" lon="3.00767">
        <ele>643.3</ele>
        <time>2018-05-19T11:26:56Z</time>
      </trkpt>
      <trkpt lat="44.10688" lon="3.00774">
        <ele>643.8</ele>
        <time>2018-05-19T11:26:57Z</time>
      </trkpt>
      <trkpt lat="44.10687" lon="3.00783">
        <ele>644.4</ele>
        <time>2018-05-19T11:26:58Z</time>
      </trkpt>
      <trkpt lat="44.10686" lon="3.0079">
        <ele>644.9</ele>
        <time>2018-05-19T11:26:59Z</time>
      </trkpt>
      <trkpt lat="44.10685" lon="3.00798">
        <ele>645.4</ele>
        <time>2018-05-19T11:27:00Z</time>
      </trkpt>
      <trkpt lat="44.10685" lon="3.00804">
        <ele>645.9</ele>
        <time>2018-05-19T11:27:01Z</time>
      </trkpt>
      <trkpt lat="44.10684" lon="3.0081">
        <ele>646.3</ele>
        <time>2018-05-19T11:27:02Z</time>
      </trkpt>
      <trkpt lat="44.10683" lon="3.00814">
        <ele>646.6</ele>
        <time>2018-05-19T11:27:03Z</time>
      </trkpt>
      <trkpt lat="44.10683" lon="3.0082">
        <ele>647</ele>
        <time>2018-05-19T11:27:04Z</time>
      </trkpt>
      <trkpt lat="44.10683" lon="3.00824">
        <ele>647.2</ele>
        <time>2018-05-19T11:27:05Z</time>
      </trkpt>
      <trkpt lat="44.10682" lon="3.00828">
        <ele>647.5</ele>
        <time>2018-05-19T11:27:06Z</time>
      </trkpt>
      <trkpt lat="44.10682" lon="3.00835">
        <ele>647.9</ele>
        <time>2018-05-19T11:27:08Z</time>
      </trkpt>
      <trkpt lat="44.10683" lon="3.00839">
        <ele>648.2</ele>
        <time>2018-05-19T11:27:10Z</time>
      </trkpt>
      <trkpt lat="44.10684" lon="3.00845">
        <ele>648.5</ele>
        <time>2018-05-19T11:27:12Z</time>
      </trkpt>
      <trkpt lat="44.10686" lon="3.0085">
        <ele>648.7</ele>
        <time>2018-05-19T11:27:14Z</time>
      </trkpt>
      <trkpt lat="44.10687" lon="3.00855">
        <ele>648.9</ele>
        <time>2018-05-19T11:27:16Z</time>
      </trkpt>
      <trkpt lat="44.10688" lon="3.0086">
        <ele>649</ele>
        <time>2018-05-19T11:27:18Z</time>
      </trkpt>
      <trkpt lat="44.10691" lon="3.00865">
        <ele>649</ele>
        <time>2018-05-19T11:27:20Z</time>
      </trkpt>
      <trkpt lat="44.10691" lon="3.0087">
        <ele>649.1</ele>
        <time>2018-05-19T11:27:22Z</time>
      </trkpt>
      <trkpt lat="44.10692" lon="3.00875">
        <ele>649.1</ele>
        <time>2018-05-19T11:27:24Z</time>
      </trkpt>
      <trkpt lat="44.10693" lon="3.0088">
        <ele>649.2</ele>
        <time>2018-05-19T11:27:26Z</time>
      </trkpt>
      <trkpt lat="44.10695" lon="3.00885">
        <ele>649.2</ele>
        <time>2018-05-19T11:27:28Z</time>
      </trkpt>
      <trkpt lat="44.10697" lon="3.00891">
        <ele>649.3</ele>
        <time>2018-05-19T11:27:30Z</time>
      </trkpt>
      <trkpt lat="44.10697" lon="3.00896">
        <ele>649.3</ele>
        <time>2018-05-19T11:27:32Z</time>
      </trkpt>
      <trkpt lat="44.10698" lon="3.00902">
        <ele>649.4</ele>
        <time>2018-05-19T11:27:34Z</time>
      </trkpt>
      <trkpt lat="44.10699" lon="3.00908">
        <ele>649.4</ele>
        <time>2018-05-19T11:27:36Z</time>
      </trkpt>
      <trkpt lat="44.10699" lon="3.00914">
        <ele>649.5</ele>
        <time>2018-05-19T11:27:38Z</time>
      </trkpt>
      <trkpt lat="44.10699" lon="3.0092">
        <ele>649.5</ele>
        <time>2018-05-19T11:27:40Z</time>
      </trkpt>
      <trkpt lat="44.107" lon="3.00927">
        <ele>649.6</ele>
        <time>2018-05-19T11:27:42Z</time>
      </trkpt>
      <trkpt lat="44.107" lon="3.00934">
        <ele>649.6</ele>
        <time>2018-05-19T11:27:44Z</time>
      </trkpt>
      <trkpt lat="44.107" lon="3.00938">
        <ele>649.7</ele>
        <time>2018-05-19T11:27:45Z</time>
      </trkpt>
      <trkpt lat="44.107" lon="3.00942">
        <ele>649.7</ele>
        <time>2018-05-19T11:27:46Z</time>
      </trkpt>
      <trkpt lat="44.107" lon="3.00946">
        <ele>649.8</ele>
        <time>2018-05-19T11:27:47Z</time>
      </trkpt>
      <trkpt lat="44.107" lon="3.0095">
        <ele>649.8</ele>
        <time>2018-05-19T11:27:48Z</time>
      </trkpt>
      <trkpt lat="44.107" lon="3.00955">
        <ele>649.8</ele>
        <time>2018-05-19T11:27:49Z</time>
      </trkpt>
      <trkpt lat="44.10701" lon="3.00959">
        <ele>649.9</ele>
        <time>2018-05-19T11:27:50Z</time>
      </trkpt>
      <trkpt lat="44.107" lon="3.00964">
        <ele>649.9</ele>
        <time>2018-05-19T11:27:51Z</time>
      </trkpt>
      <trkpt lat="44.107" lon="3.00969">
        <ele>649.9</ele>
        <time>2018-05-19T11:27:52Z</time>
      </trkpt>
      <trkpt lat="44.107" lon="3.00974">
        <ele>650</ele>
        <time>2018-05-19T11:27:53Z</time>
      </trkpt>
      <trkpt lat="44.10699" lon="3.00979">
        <ele>650</ele>
        <time>2018-05-19T11:27:54Z</time>
      </trkpt>
      <trkpt lat="44.10699" lon="3.00984">
        <ele>649.9</ele>
        <time>2018-05-19T11:27:55Z</time>
      </trkpt>
      <trkpt lat="44.10699" lon="3.00989">
        <ele>649.9</ele>
        <time>2018-05-19T11:27:56Z</time>
      </trkpt>
      <trkpt lat="44.10698" lon="3.00993">
        <ele>649.9</ele>
        <time>2018-05-19T11:27:57Z</time>
      </trkpt>
      <trkpt lat="44.10698" lon="3.00999">
        <ele>649.8</ele>
        <time>2018-05-19T11:27:58Z</time>
      </trkpt>
      <trkpt lat="44.10697" lon="3.01004">
        <ele>649.8</ele>
        <time>2018-05-19T11:27:59Z</time>
      </trkpt>
      <trkpt lat="44.10696" lon="3.01009">
        <ele>649.7</ele>
        <time>2018-05-19T11:28:00Z</time>
      </trkpt>
      <trkpt lat="44.10695" lon="3.01015">
        <ele>649.6</ele>
        <time>2018-05-19T11:28:01Z</time>
      </trkpt>
      <trkpt lat="44.10695" lon="3.01021">
        <ele>649.6</ele>
        <time>2018-05-19T11:28:02Z</time>
      </trkpt>
      <trkpt lat="44.10695" lon="3.01029">
        <ele>649.6</ele>
        <time>2018-05-19T11:28:03Z</time>
      </trkpt>
      <trkpt lat="44.10696" lon="3.01035">
        <ele>649.5</ele>
        <time>2018-05-19T11:28:04Z</time>
      </trkpt>
      <trkpt lat="44.10699" lon="3.0104">
        <ele>649.5</ele>
        <time>2018-05-19T11:28:05Z</time>
      </trkpt>
      <trkpt lat="44.10703" lon="3.01044">
        <ele>649.5</ele>
        <time>2018-05-19T11:28:06Z</time>
      </trkpt>
      <trkpt lat="44.10707" lon="3.01047">
        <ele>649.6</ele>
        <time>2018-05-19T11:28:07Z</time>
      </trkpt>
      <trkpt lat="44.1071" lon="3.01049">
        <ele>649.7</ele>
        <time>2018-05-19T11:28:08Z</time>
      </trkpt>
      <trkpt lat="44.10713" lon="3.01049">
        <ele>649.7</ele>
        <time>2018-05-19T11:28:09Z</time>
      </trkpt>
      <trkpt lat="44.10716" lon="3.01051">
        <ele>649.8</ele>
        <time>2018-05-19T11:28:10Z</time>
      </trkpt>
      <trkpt lat="44.1072" lon="3.01052">
        <ele>649.9</ele>
        <time>2018-05-19T11:28:11Z</time>
      </trkpt>
      <trkpt lat="44.10725" lon="3.01053">
        <ele>650</ele>
        <time>2018-05-19T11:28:12Z</time>
      </trkpt>
      <trkpt lat="44.10729" lon="3.01053">
        <ele>650.1</ele>
        <time>2018-05-19T11:28:13Z</time>
      </trkpt>
      <trkpt lat="44.10732" lon="3.01055">
        <ele>650.2</ele>
        <time>2018-05-19T11:28:14Z</time>
      </trkpt>
      <trkpt lat="44.10737" lon="3.01057">
        <ele>650.2</ele>
        <time>2018-05-19T11:28:15Z</time>
      </trkpt>
      <trkpt lat="44.10741" lon="3.0106">
        <ele>650.2</ele>
        <time>2018-05-19T11:28:17Z</time>
      </trkpt>
      <trkpt lat="44.10744" lon="3.01061">
        <ele>650.2</ele>
        <time>2018-05-19T11:28:18Z</time>
      </trkpt>
      <trkpt lat="44.10747" lon="3.01062">
        <ele>650.2</ele>
        <time>2018-05-19T11:28:19Z</time>
      </trkpt>
      <trkpt lat="44.1075" lon="3.01064">
        <ele>650.2</ele>
        <time>2018-05-19T11:28:20Z</time>
      </trkpt>
      <trkpt lat="44.10754" lon="3.01066">
        <ele>650.2</ele>
        <time>2018-05-19T11:28:21Z</time>
      </trkpt>
      <trkpt lat="44.10757" lon="3.01069">
        <ele>650.1</ele>
        <time>2018-05-19T11:28:22Z</time>
      </trkpt>
      <trkpt lat="44.10761" lon="3.01071">
        <ele>650.1</ele>
        <time>2018-05-19T11:28:23Z</time>
      </trkpt>
      <trkpt lat="44.10764" lon="3.01073">
        <ele>650.1</ele>
        <time>2018-05-19T11:28:24Z</time>
      </trkpt>
      <trkpt lat="44.10768" lon="3.01075">
        <ele>650.1</ele>
        <time>2018-05-19T11:28:25Z</time>
      </trkpt>
      <trkpt lat="44.10771" lon="3.01077">
        <ele>650.1</ele>
        <time>2018-05-19T11:28:26Z</time>
      </trkpt>
      <trkpt lat="44.10774" lon="3.01079">
        <ele>650</ele>
        <time>2018-05-19T11:28:27Z</time>
      </trkpt>
      <trkpt lat="44.10777" lon="3.01081">
        <ele>650</ele>
        <time>2018-05-19T11:28:28Z</time>
      </trkpt>
      <trkpt lat="44.1078" lon="3.01083">
        <ele>649.9</ele>
        <time>2018-05-19T11:28:29Z</time>
      </trkpt>
      <trkpt lat="44.10783" lon="3.01084">
        <ele>649.9</ele>
        <time>2018-05-19T11:28:30Z</time>
      </trkpt>
      <trkpt lat="44.10787" lon="3.01087">
        <ele>649.8</ele>
        <time>2018-05-19T11:28:32Z</time>
      </trkpt>
      <trkpt lat="44.1079" lon="3.0109">
        <ele>649.7</ele>
        <time>2018-05-19T11:28:34Z</time>
      </trkpt>
      <trkpt lat="44.10793" lon="3.01092">
        <ele>649.5</ele>
        <time>2018-05-19T11:28:37Z</time>
      </trkpt>
      <trkpt lat="44.10792" lon="3.01088">
        <ele>649.4</ele>
        <time>2018-05-19T11:28:43Z</time>
      </trkpt>
      <trkpt lat="44.10789" lon="3.01088">
        <ele>649.2</ele>
        <time>2018-05-19T11:28:47Z</time>
      </trkpt>
      <trkpt lat="44.10789" lon="3.01084">
        <ele>649</ele>
        <time>2018-05-19T11:29:45Z</time>
      </trkpt>
      <trkpt lat="44.1079" lon="3.01088">
        <ele>649</ele>
        <time>2018-05-19T11:31:00Z</time>
      </trkpt>
      <trkpt lat="44.10789" lon="3.01091">
        <ele>648.9</ele>
        <time>2018-05-19T11:31:02Z</time>
      </trkpt>
      <trkpt lat="44.10787" lon="3.01096">
        <ele>648.8</ele>
        <time>2018-05-19T11:31:04Z</time>
      </trkpt>
      <trkpt lat="44.10787" lon="3.011">
        <ele>648.7</ele>
        <time>2018-05-19T11:31:05Z</time>
      </trkpt>
      <trkpt lat="44.10788" lon="3.01104">
        <ele>648.5</ele>
        <time>2018-05-19T11:31:06Z</time>
      </trkpt>
      <trkpt lat="44.10789" lon="3.01108">
        <ele>648.4</ele>
        <time>2018-05-19T11:31:07Z</time>
      </trkpt>
      <trkpt lat="44.10791" lon="3.01112">
        <ele>648.3</ele>
        <time>2018-05-19T11:31:08Z</time>
      </trkpt>
      <trkpt lat="44.10793" lon="3.01116">
        <ele>648.2</ele>
        <time>2018-05-19T11:31:09Z</time>
      </trkpt>
      <trkpt lat="44.10796" lon="3.0112">
        <ele>647.9</ele>
        <time>2018-05-19T11:31:10Z</time>
      </trkpt>
      <trkpt lat="44.10799" lon="3.01124">
        <ele>647.5</ele>
        <time>2018-05-19T11:31:11Z</time>
      </trkpt>
      <trkpt lat="44.10802" lon="3.01128">
        <ele>647.1</ele>
        <time>2018-05-19T11:31:12Z</time>
      </trkpt>
      <trkpt lat="44.10806" lon="3.01133">
        <ele>646.7</ele>
        <time>2018-05-19T11:31:13Z</time>
      </trkpt>
      <trkpt lat="44.10809" lon="3.01139">
        <ele>646.1</ele>
        <time>2018-05-19T11:31:14Z</time>
      </trkpt>
      <trkpt lat="44.10812" lon="3.01148">
        <ele>645.4</ele>
        <time>2018-05-19T11:31:15Z</time>
      </trkpt>
      <trkpt lat="44.10815" lon="3.01157">
        <ele>644.9</ele>
        <time>2018-05-19T11:31:16Z</time>
      </trkpt>
      <trkpt lat="44.10819" lon="3.01164">
        <ele>644.2</ele>
        <time>2018-05-19T11:31:17Z</time>
      </trkpt>
      <trkpt lat="44.10821" lon="3.01172">
        <ele>643.6</ele>
        <time>2018-05-19T11:31:18Z</time>
      </trkpt>
      <trkpt lat="44.10824" lon="3.0118">
        <ele>642.4</ele>
        <time>2018-05-19T11:31:19Z</time>
      </trkpt>
      <trkpt lat="44.10827" lon="3.01187">
        <ele>640.7</ele>
        <time>2018-05-19T11:31:20Z</time>
      </trkpt>
      <trkpt lat="44.10828" lon="3.01192">
        <ele>639.7</ele>
        <time>2018-05-19T11:31:21Z</time>
      </trkpt>
      <trkpt lat="44.1083" lon="3.01197">
        <ele>638.5</ele>
        <time>2018-05-19T11:31:22Z</time>
      </trkpt>
      <trkpt lat="44.10832" lon="3.01202">
        <ele>637.3</ele>
        <time>2018-05-19T11:31:23Z</time>
      </trkpt>
      <trkpt lat="44.10834" lon="3.01206">
        <ele>636.7</ele>
        <time>2018-05-19T11:31:24Z</time>
      </trkpt>
      <trkpt lat="44.10837" lon="3.01211">
        <ele>635.9</ele>
        <time>2018-05-19T11:31:25Z</time>
      </trkpt>
      <trkpt lat="44.10841" lon="3.01215">
        <ele>634.6</ele>
        <time>2018-05-19T11:31:26Z</time>
      </trkpt>
      <trkpt lat="44.10845" lon="3.01219">
        <ele>633.3</ele>
        <time>2018-05-19T11:31:27Z</time>
      </trkpt>
      <trkpt lat="44.10848" lon="3.01226">
        <ele>631.2</ele>
        <time>2018-05-19T11:31:28Z</time>
      </trkpt>
      <trkpt lat="44.10851" lon="3.01231">
        <ele>630</ele>
        <time>2018-05-19T11:31:29Z</time>
      </trkpt>
      <trkpt lat="44.10854" lon="3.01235">
        <ele>629.4</ele>
        <time>2018-05-19T11:31:30Z</time>
      </trkpt>
      <trkpt lat="44.10858" lon="3.0124">
        <ele>628.6</ele>
        <time>2018-05-19T11:31:31Z</time>
      </trkpt>
      <trkpt lat="44.10862" lon="3.01246">
        <ele>627.4</ele>
        <time>2018-05-19T11:31:32Z</time>
      </trkpt>
      <trkpt lat="44.10865" lon="3.01252">
        <ele>626.2</ele>
        <time>2018-05-19T11:31:33Z</time>
      </trkpt>
      <trkpt lat="44.10867" lon="3.01259">
        <ele>625.4</ele>
        <time>2018-05-19T11:31:34Z</time>
      </trkpt>
      <trkpt lat="44.10869" lon="3.01266">
        <ele>624.3</ele>
        <time>2018-05-19T11:31:35Z</time>
      </trkpt>
      <trkpt lat="44.10871" lon="3.01272">
        <ele>623.7</ele>
        <time>2018-05-19T11:31:36Z</time>
      </trkpt>
      <trkpt lat="44.10871" lon="3.01278">
        <ele>623</ele>
        <time>2018-05-19T11:31:37Z</time>
      </trkpt>
      <trkpt lat="44.10872" lon="3.01286">
        <ele>622.2</ele>
        <time>2018-05-19T11:31:38Z</time>
      </trkpt>
      <trkpt lat="44.10874" lon="3.01295">
        <ele>621.5</ele>
        <time>2018-05-19T11:31:39Z</time>
      </trkpt>
      <trkpt lat="44.10874" lon="3.01305">
        <ele>620.4</ele>
        <time>2018-05-19T11:31:40Z</time>
      </trkpt>
      <trkpt lat="44.10875" lon="3.01314">
        <ele>619.4</ele>
        <time>2018-05-19T11:31:41Z</time>
      </trkpt>
      <trkpt lat="44.10875" lon="3.01323">
        <ele>618.2</ele>
        <time>2018-05-19T11:31:42Z</time>
      </trkpt>
      <trkpt lat="44.10877" lon="3.0133">
        <ele>616.9</ele>
        <time>2018-05-19T11:31:43Z</time>
      </trkpt>
      <trkpt lat="44.10877" lon="3.01338">
        <ele>615.9</ele>
        <time>2018-05-19T11:31:44Z</time>
      </trkpt>
      <trkpt lat="44.10876" lon="3.01344">
        <ele>615.1</ele>
        <time>2018-05-19T11:31:45Z</time>
      </trkpt>
      <trkpt lat="44.10874" lon="3.0135">
        <ele>614.7</ele>
        <time>2018-05-19T11:31:46Z</time>
      </trkpt>
      <trkpt lat="44.10872" lon="3.01357">
        <ele>614</ele>
        <time>2018-05-19T11:31:47Z</time>
      </trkpt>
      <trkpt lat="44.10866" lon="3.01361">
        <ele>613.1</ele>
        <time>2018-05-19T11:31:48Z</time>
      </trkpt>
      <trkpt lat="44.10861" lon="3.01363">
        <ele>612.6</ele>
        <time>2018-05-19T11:31:49Z</time>
      </trkpt>
      <trkpt lat="44.10854" lon="3.01367">
        <ele>611.8</ele>
        <time>2018-05-19T11:31:50Z</time>
      </trkpt>
      <trkpt lat="44.10849" lon="3.01369">
        <ele>611.1</ele>
        <time>2018-05-19T11:31:51Z</time>
      </trkpt>
      <trkpt lat="44.10843" lon="3.01372">
        <ele>610.4</ele>
        <time>2018-05-19T11:31:52Z</time>
      </trkpt>
      <trkpt lat="44.10837" lon="3.01373">
        <ele>609.7</ele>
        <time>2018-05-19T11:31:53Z</time>
      </trkpt>
      <trkpt lat="44.1083" lon="3.01374">
        <ele>609.5</ele>
        <time>2018-05-19T11:31:54Z</time>
      </trkpt>
      <trkpt lat="44.10824" lon="3.01377">
        <ele>609.3</ele>
        <time>2018-05-19T11:31:55Z</time>
      </trkpt>
      <trkpt lat="44.10819" lon="3.01379">
        <ele>609.1</ele>
        <time>2018-05-19T11:31:56Z</time>
      </trkpt>
      <trkpt lat="44.10813" lon="3.01382">
        <ele>608.7</ele>
        <time>2018-05-19T11:31:57Z</time>
      </trkpt>
      <trkpt lat="44.10809" lon="3.01385">
        <ele>608.4</ele>
        <time>2018-05-19T11:31:58Z</time>
      </trkpt>
      <trkpt lat="44.10807" lon="3.01388">
        <ele>608.2</ele>
        <time>2018-05-19T11:32:00Z</time>
      </trkpt>
      <trkpt lat="44.1081" lon="3.01384">
        <ele>608</ele>
        <time>2018-05-19T11:32:16Z</time>
      </trkpt>
      <trkpt lat="44.10808" lon="3.01387">
        <ele>608</ele>
        <time>2018-05-19T11:32:50Z</time>
      </trkpt>
      <trkpt lat="44.10804" lon="3.01388">
        <ele>607.9</ele>
        <time>2018-05-19T11:33:05Z</time>
      </trkpt>
      <trkpt lat="44.10801" lon="3.01391">
        <ele>607.8</ele>
        <time>2018-05-19T11:33:07Z</time>
      </trkpt>
      <trkpt lat="44.10797" lon="3.01395">
        <ele>607.7</ele>
        <time>2018-05-19T11:33:09Z</time>
      </trkpt>
      <trkpt lat="44.10795" lon="3.01399">
        <ele>607.7</ele>
        <time>2018-05-19T11:33:11Z</time>
      </trkpt>
      <trkpt lat="44.10794" lon="3.01402">
        <ele>607.6</ele>
        <time>2018-05-19T11:33:14Z</time>
      </trkpt>
      <trkpt lat="44.10791" lon="3.01403">
        <ele>607.6</ele>
        <time>2018-05-19T11:33:22Z</time>
      </trkpt>
      <trkpt lat="44.10788" lon="3.01405">
        <ele>607.5</ele>
        <time>2018-05-19T11:33:26Z</time>
      </trkpt>
      <trkpt lat="44.10787" lon="3.01409">
        <ele>607.5</ele>
        <time>2018-05-19T11:33:28Z</time>
      </trkpt>
      <trkpt lat="44.10785" lon="3.01413">
        <ele>607.5</ele>
        <time>2018-05-19T11:33:31Z</time>
      </trkpt>
      <trkpt lat="44.10784" lon="3.01419">
        <ele>607.5</ele>
        <time>2018-05-19T11:33:34Z</time>
      </trkpt>
      <trkpt lat="44.10783" lon="3.01423">
        <ele>607.4</ele>
        <time>2018-05-19T11:33:35Z</time>
      </trkpt>
      <trkpt lat="44.10783" lon="3.01428">
        <ele>607.4</ele>
        <time>2018-05-19T11:33:36Z</time>
      </trkpt>
      <trkpt lat="44.10784" lon="3.01434">
        <ele>607.4</ele>
        <time>2018-05-19T11:33:37Z</time>
      </trkpt>
      <trkpt lat="44.10785" lon="3.01439">
        <ele>607.4</ele>
        <time>2018-05-19T11:33:38Z</time>
      </trkpt>
      <trkpt lat="44.10787" lon="3.01445">
        <ele>607.3</ele>
        <time>2018-05-19T11:33:39Z</time>
      </trkpt>
      <trkpt lat="44.10788" lon="3.01454">
        <ele>607.2</ele>
        <time>2018-05-19T11:33:40Z</time>
      </trkpt>
      <trkpt lat="44.10789" lon="3.01462">
        <ele>606</ele>
        <time>2018-05-19T11:33:41Z</time>
      </trkpt>
      <trkpt lat="44.10789" lon="3.0147">
        <ele>604.7</ele>
        <time>2018-05-19T11:33:42Z</time>
      </trkpt>
      <trkpt lat="44.10788" lon="3.01479">
        <ele>603.5</ele>
        <time>2018-05-19T11:33:43Z</time>
      </trkpt>
      <trkpt lat="44.10787" lon="3.01489">
        <ele>602.4</ele>
        <time>2018-05-19T11:33:44Z</time>
      </trkpt>
      <trkpt lat="44.10787" lon="3.01498">
        <ele>600.8</ele>
        <time>2018-05-19T11:33:45Z</time>
      </trkpt>
      <trkpt lat="44.10787" lon="3.01508">
        <ele>599.6</ele>
        <time>2018-05-19T11:33:46Z</time>
      </trkpt>
      <trkpt lat="44.10787" lon="3.01516">
        <ele>599.2</ele>
        <time>2018-05-19T11:33:47Z</time>
      </trkpt>
      <trkpt lat="44.10789" lon="3.01524">
        <ele>597.2</ele>
        <time>2018-05-19T11:33:48Z</time>
      </trkpt>
      <trkpt lat="44.10791" lon="3.01531">
        <ele>596.8</ele>
        <time>2018-05-19T11:33:49Z</time>
      </trkpt>
      <trkpt lat="44.10794" lon="3.01538">
        <ele>596.7</ele>
        <time>2018-05-19T11:33:50Z</time>
      </trkpt>
      <trkpt lat="44.10797" lon="3.01545">
        <ele>596.9</ele>
        <time>2018-05-19T11:33:51Z</time>
      </trkpt>
      <trkpt lat="44.10799" lon="3.01551">
        <ele>597.6</ele>
        <time>2018-05-19T11:33:52Z</time>
      </trkpt>
      <trkpt lat="44.108" lon="3.01557">
        <ele>598.5</ele>
        <time>2018-05-19T11:33:53Z</time>
      </trkpt>
      <trkpt lat="44.10802" lon="3.01562">
        <ele>599.4</ele>
        <time>2018-05-19T11:33:54Z</time>
      </trkpt>
      <trkpt lat="44.10802" lon="3.01567">
        <ele>600</ele>
        <time>2018-05-19T11:33:55Z</time>
      </trkpt>
      <trkpt lat="44.10803" lon="3.01571">
        <ele>600.5</ele>
        <time>2018-05-19T11:33:56Z</time>
      </trkpt>
      <trkpt lat="44.10802" lon="3.01575">
        <ele>600.8</ele>
        <time>2018-05-19T11:33:57Z</time>
      </trkpt>
      <trkpt lat="44.10803" lon="3.01582">
        <ele>601.2</ele>
        <time>2018-05-19T11:33:58Z</time>
      </trkpt>
      <trkpt lat="44.10805" lon="3.01587">
        <ele>601.6</ele>
        <time>2018-05-19T11:33:59Z</time>
      </trkpt>
      <trkpt lat="44.10805" lon="3.01594">
        <ele>602.1</ele>
        <time>2018-05-19T11:34:00Z</time>
      </trkpt>
      <trkpt lat="44.10806" lon="3.01599">
        <ele>602.5</ele>
        <time>2018-05-19T11:34:01Z</time>
      </trkpt>
      <trkpt lat="44.10807" lon="3.01604">
        <ele>602.8</ele>
        <time>2018-05-19T11:34:02Z</time>
      </trkpt>
      <trkpt lat="44.10809" lon="3.01609">
        <ele>603.2</ele>
        <time>2018-05-19T11:34:03Z</time>
      </trkpt>
      <trkpt lat="44.10811" lon="3.01615">
        <ele>603.6</ele>
        <time>2018-05-19T11:34:04Z</time>
      </trkpt>
      <trkpt lat="44.10812" lon="3.0162">
        <ele>603.8</ele>
        <time>2018-05-19T11:34:05Z</time>
      </trkpt>
      <trkpt lat="44.10814" lon="3.01624">
        <ele>604</ele>
        <time>2018-05-19T11:34:06Z</time>
      </trkpt>
      <trkpt lat="44.10815" lon="3.01629">
        <ele>604.3</ele>
        <time>2018-05-19T11:34:07Z</time>
      </trkpt>
      <trkpt lat="44.10816" lon="3.01633">
        <ele>604.5</ele>
        <time>2018-05-19T11:34:08Z</time>
      </trkpt>
      <trkpt lat="44.10818" lon="3.01638">
        <ele>604.8</ele>
        <time>2018-05-19T11:34:09Z</time>
      </trkpt>
      <trkpt lat="44.10819" lon="3.01642">
        <ele>605</ele>
        <time>2018-05-19T11:34:10Z</time>
      </trkpt>
      <trkpt lat="44.1082" lon="3.01647">
        <ele>605.3</ele>
        <time>2018-05-19T11:34:11Z</time>
      </trkpt>
      <trkpt lat="44.10822" lon="3.01651">
        <ele>605.5</ele>
        <time>2018-05-19T11:34:12Z</time>
      </trkpt>
      <trkpt lat="44.10823" lon="3.01655">
        <ele>605.7</ele>
        <time>2018-05-19T11:34:13Z</time>
      </trkpt>
      <trkpt lat="44.10825" lon="3.0166">
        <ele>605.9</ele>
        <time>2018-05-19T11:34:14Z</time>
      </trkpt>
      <trkpt lat="44.10826" lon="3.01664">
        <ele>606.1</ele>
        <time>2018-05-19T11:34:15Z</time>
      </trkpt>
      <trkpt lat="44.10827" lon="3.01669">
        <ele>606.2</ele>
        <time>2018-05-19T11:34:16Z</time>
      </trkpt>
      <trkpt lat="44.10828" lon="3.01674">
        <ele>606.3</ele>
        <time>2018-05-19T11:34:17Z</time>
      </trkpt>
      <trkpt lat="44.10829" lon="3.01679">
        <ele>606.4</ele>
        <time>2018-05-19T11:34:18Z</time>
      </trkpt>
      <trkpt lat="44.1083" lon="3.01683">
        <ele>606.4</ele>
        <time>2018-05-19T11:34:19Z</time>
      </trkpt>
      <trkpt lat="44.10831" lon="3.01688">
        <ele>606.5</ele>
        <time>2018-05-19T11:34:20Z</time>
      </trkpt>
      <trkpt lat="44.10831" lon="3.01692">
        <ele>606.5</ele>
        <time>2018-05-19T11:34:21Z</time>
      </trkpt>
      <trkpt lat="44.10832" lon="3.01696">
        <ele>606.6</ele>
        <time>2018-05-19T11:34:22Z</time>
      </trkpt>
      <trkpt lat="44.10833" lon="3.017">
        <ele>606.7</ele>
        <time>2018-05-19T11:34:23Z</time>
      </trkpt>
      <trkpt lat="44.10834" lon="3.01703">
        <ele>606.8</ele>
        <time>2018-05-19T11:34:24Z</time>
      </trkpt>
      <trkpt lat="44.10835" lon="3.01707">
        <ele>606.8</ele>
        <time>2018-05-19T11:34:25Z</time>
      </trkpt>
      <trkpt lat="44.10836" lon="3.01711">
        <ele>606.9</ele>
        <time>2018-05-19T11:34:26Z</time>
      </trkpt>
      <trkpt lat="44.10838" lon="3.01717">
        <ele>607</ele>
        <time>2018-05-19T11:34:28Z</time>
      </trkpt>
      <trkpt lat="44.1084" lon="3.01724">
        <ele>607.2</ele>
        <time>2018-05-19T11:34:30Z</time>
      </trkpt>
      <trkpt lat="44.10841" lon="3.01727">
        <ele>607.3</ele>
        <time>2018-05-19T11:34:31Z</time>
      </trkpt>
      <trkpt lat="44.10842" lon="3.01731">
        <ele>607.5</ele>
        <time>2018-05-19T11:34:32Z</time>
      </trkpt>
      <trkpt lat="44.10843" lon="3.01735">
        <ele>607.7</ele>
        <time>2018-05-19T11:34:33Z</time>
      </trkpt>
      <trkpt lat="44.10844" lon="3.01739">
        <ele>607.9</ele>
        <time>2018-05-19T11:34:34Z</time>
      </trkpt>
      <trkpt lat="44.10846" lon="3.01743">
        <ele>608.1</ele>
        <time>2018-05-19T11:34:35Z</time>
      </trkpt>
      <trkpt lat="44.10847" lon="3.01746">
        <ele>608.2</ele>
        <time>2018-05-19T11:34:36Z</time>
      </trkpt>
      <trkpt lat="44.10848" lon="3.0175">
        <ele>608.3</ele>
        <time>2018-05-19T11:34:37Z</time>
      </trkpt>
      <trkpt lat="44.1085" lon="3.01754">
        <ele>608.4</ele>
        <time>2018-05-19T11:34:38Z</time>
      </trkpt>
      <trkpt lat="44.10851" lon="3.01758">
        <ele>608.5</ele>
        <time>2018-05-19T11:34:39Z</time>
      </trkpt>
      <trkpt lat="44.10853" lon="3.01764">
        <ele>608.6</ele>
        <time>2018-05-19T11:34:41Z</time>
      </trkpt>
      <trkpt lat="44.10855" lon="3.01768">
        <ele>608.7</ele>
        <time>2018-05-19T11:34:42Z</time>
      </trkpt>
      <trkpt lat="44.10857" lon="3.01771">
        <ele>608.7</ele>
        <time>2018-05-19T11:34:43Z</time>
      </trkpt>
      <trkpt lat="44.10858" lon="3.01775">
        <ele>608.8</ele>
        <time>2018-05-19T11:34:44Z</time>
      </trkpt>
      <trkpt lat="44.10859" lon="3.01779">
        <ele>608.8</ele>
        <time>2018-05-19T11:34:45Z</time>
      </trkpt>
      <trkpt lat="44.1086" lon="3.01782">
        <ele>608.9</ele>
        <time>2018-05-19T11:34:46Z</time>
      </trkpt>
      <trkpt lat="44.10862" lon="3.01786">
        <ele>608.9</ele>
        <time>2018-05-19T11:34:47Z</time>
      </trkpt>
      <trkpt lat="44.10864" lon="3.01791">
        <ele>609</ele>
        <time>2018-05-19T11:34:49Z</time>
      </trkpt>
      <trkpt lat="44.10867" lon="3.01797">
        <ele>609</ele>
        <time>2018-05-19T11:34:51Z</time>
      </trkpt>
      <trkpt lat="44.10868" lon="3.01801">
        <ele>609.1</ele>
        <time>2018-05-19T11:34:52Z</time>
      </trkpt>
      <trkpt lat="44.10869" lon="3.01804">
        <ele>609.1</ele>
        <time>2018-05-19T11:34:53Z</time>
      </trkpt>
      <trkpt lat="44.10871" lon="3.01808">
        <ele>609.1</ele>
        <time>2018-05-19T11:34:54Z</time>
      </trkpt>
      <trkpt lat="44.10872" lon="3.01811">
        <ele>609.1</ele>
        <time>2018-05-19T11:34:55Z</time>
      </trkpt>
      <trkpt lat="44.10873" lon="3.01815">
        <ele>609.1</ele>
        <time>2018-05-19T11:34:56Z</time>
      </trkpt>
      <trkpt lat="44.10875" lon="3.01818">
        <ele>609.1</ele>
        <time>2018-05-19T11:34:57Z</time>
      </trkpt>
      <trkpt lat="44.10877" lon="3.01822">
        <ele>609.1</ele>
        <time>2018-05-19T11:34:58Z</time>
      </trkpt>
      <trkpt lat="44.10878" lon="3.01825">
        <ele>609.2</ele>
        <time>2018-05-19T11:34:59Z</time>
      </trkpt>
      <trkpt lat="44.1088" lon="3.01829">
        <ele>609.2</ele>
        <time>2018-05-19T11:35:00Z</time>
      </trkpt>
      <trkpt lat="44.10882" lon="3.01833">
        <ele>609.2</ele>
        <time>2018-05-19T11:35:01Z</time>
      </trkpt>
      <trkpt lat="44.10884" lon="3.01838">
        <ele>609.2</ele>
        <time>2018-05-19T11:35:02Z</time>
      </trkpt>
      <trkpt lat="44.10886" lon="3.01842">
        <ele>609.2</ele>
        <time>2018-05-19T11:35:03Z</time>
      </trkpt>
      <trkpt lat="44.10888" lon="3.01846">
        <ele>609.2</ele>
        <time>2018-05-19T11:35:04Z</time>
      </trkpt>
      <trkpt lat="44.10889" lon="3.0185">
        <ele>609.3</ele>
        <time>2018-05-19T11:35:05Z</time>
      </trkpt>
      <trkpt lat="44.10891" lon="3.01855">
        <ele>609.3</ele>
        <time>2018-05-19T11:35:06Z</time>
      </trkpt>
      <trkpt lat="44.10893" lon="3.01859">
        <ele>609.3</ele>
        <time>2018-05-19T11:35:07Z</time>
      </trkpt>
      <trkpt lat="44.10895" lon="3.01864">
        <ele>609.3</ele>
        <time>2018-05-19T11:35:08Z</time>
      </trkpt>
      <trkpt lat="44.10897" lon="3.01869">
        <ele>609.4</ele>
        <time>2018-05-19T11:35:09Z</time>
      </trkpt>
      <trkpt lat="44.10898" lon="3.01874">
        <ele>609.4</ele>
        <time>2018-05-19T11:35:10Z</time>
      </trkpt>
      <trkpt lat="44.109" lon="3.01879">
        <ele>609.4</ele>
        <time>2018-05-19T11:35:11Z</time>
      </trkpt>
      <trkpt lat="44.10902" lon="3.01883">
        <ele>609.4</ele>
        <time>2018-05-19T11:35:12Z</time>
      </trkpt>
      <trkpt lat="44.10904" lon="3.01888">
        <ele>609.5</ele>
        <time>2018-05-19T11:35:13Z</time>
      </trkpt>
      <trkpt lat="44.10906" lon="3.01892">
        <ele>609.5</ele>
        <time>2018-05-19T11:35:14Z</time>
      </trkpt>
      <trkpt lat="44.10908" lon="3.01897">
        <ele>609.5</ele>
        <time>2018-05-19T11:35:15Z</time>
      </trkpt>
      <trkpt lat="44.1091" lon="3.01901">
        <ele>609.5</ele>
        <time>2018-05-19T11:35:16Z</time>
      </trkpt>
      <trkpt lat="44.10912" lon="3.01906">
        <ele>609.5</ele>
        <time>2018-05-19T11:35:17Z</time>
      </trkpt>
      <trkpt lat="44.10913" lon="3.01911">
        <ele>609.6</ele>
        <time>2018-05-19T11:35:18Z</time>
      </trkpt>
      <trkpt lat="44.10915" lon="3.01915">
        <ele>609.6</ele>
        <time>2018-05-19T11:35:19Z</time>
      </trkpt>
      <trkpt lat="44.10917" lon="3.0192">
        <ele>609.6</ele>
        <time>2018-05-19T11:35:20Z</time>
      </trkpt>
      <trkpt lat="44.10919" lon="3.01924">
        <ele>609.6</ele>
        <time>2018-05-19T11:35:21Z</time>
      </trkpt>
      <trkpt lat="44.10921" lon="3.01929">
        <ele>609.6</ele>
        <time>2018-05-19T11:35:22Z</time>
      </trkpt>
      <trkpt lat="44.10923" lon="3.01933">
        <ele>609.6</ele>
        <time>2018-05-19T11:35:23Z</time>
      </trkpt>
      <trkpt lat="44.10925" lon="3.01938">
        <ele>609.7</ele>
        <time>2018-05-19T11:35:24Z</time>
      </trkpt>
      <trkpt lat="44.10928" lon="3.01942">
        <ele>609.7</ele>
        <time>2018-05-19T11:35:25Z</time>
      </trkpt>
      <trkpt lat="44.10929" lon="3.01947">
        <ele>609.7</ele>
        <time>2018-05-19T11:35:26Z</time>
      </trkpt>
      <trkpt lat="44.10931" lon="3.0195">
        <ele>609.7</ele>
        <time>2018-05-19T11:35:27Z</time>
      </trkpt>
      <trkpt lat="44.10932" lon="3.01953">
        <ele>609.7</ele>
        <time>2018-05-19T11:35:28Z</time>
      </trkpt>
      <trkpt lat="44.10934" lon="3.01957">
        <ele>609.7</ele>
        <time>2018-05-19T11:35:29Z</time>
      </trkpt>
      <trkpt lat="44.10936" lon="3.01961">
        <ele>609.8</ele>
        <time>2018-05-19T11:35:30Z</time>
      </trkpt>
      <trkpt lat="44.10938" lon="3.01964">
        <ele>609.8</ele>
        <time>2018-05-19T11:35:31Z</time>
      </trkpt>
      <trkpt lat="44.1094" lon="3.01967">
        <ele>609.8</ele>
        <time>2018-05-19T11:35:32Z</time>
      </trkpt>
      <trkpt lat="44.10943" lon="3.01971">
        <ele>609.8</ele>
        <time>2018-05-19T11:35:33Z</time>
      </trkpt>
      <trkpt lat="44.10946" lon="3.01974">
        <ele>609.8</ele>
        <time>2018-05-19T11:35:34Z</time>
      </trkpt>
      <trkpt lat="44.10948" lon="3.01976">
        <ele>609.9</ele>
        <time>2018-05-19T11:35:35Z</time>
      </trkpt>
      <trkpt lat="44.1095" lon="3.01979">
        <ele>609.9</ele>
        <time>2018-05-19T11:35:36Z</time>
      </trkpt>
      <trkpt lat="44.10952" lon="3.01982">
        <ele>609.9</ele>
        <time>2018-05-19T11:35:37Z</time>
      </trkpt>
      <trkpt lat="44.10954" lon="3.01985">
        <ele>609.9</ele>
        <time>2018-05-19T11:35:38Z</time>
      </trkpt>
      <trkpt lat="44.10958" lon="3.0199">
        <ele>610</ele>
        <time>2018-05-19T11:35:40Z</time>
      </trkpt>
      <trkpt lat="44.10962" lon="3.01995">
        <ele>610</ele>
        <time>2018-05-19T11:35:42Z</time>
      </trkpt>
      <trkpt lat="44.10964" lon="3.01999">
        <ele>610</ele>
        <time>2018-05-19T11:35:44Z</time>
      </trkpt>
      <trkpt lat="44.10967" lon="3.01998">
        <ele>609.9</ele>
        <time>2018-05-19T11:36:31Z</time>
      </trkpt>
      <trkpt lat="44.1097" lon="3.02">
        <ele>609.7</ele>
        <time>2018-05-19T11:36:45Z</time>
      </trkpt>
      <trkpt lat="44.10967" lon="3.02004">
        <ele>609.5</ele>
        <time>2018-05-19T11:37:29Z</time>
      </trkpt>
      <trkpt lat="44.10965" lon="3.02007">
        <ele>609.3</ele>
        <time>2018-05-19T11:37:32Z</time>
      </trkpt>
      <trkpt lat="44.10963" lon="3.02011">
        <ele>609.2</ele>
        <time>2018-05-19T11:37:34Z</time>
      </trkpt>
      <trkpt lat="44.10961" lon="3.02015">
        <ele>609</ele>
        <time>2018-05-19T11:37:36Z</time>
      </trkpt>
      <trkpt lat="44.10959" lon="3.0202">
        <ele>608.9</ele>
        <time>2018-05-19T11:37:38Z</time>
      </trkpt>
      <trkpt lat="44.10957" lon="3.02025">
        <ele>608.7</ele>
        <time>2018-05-19T11:37:40Z</time>
      </trkpt>
      <trkpt lat="44.10955" lon="3.02031">
        <ele>608.5</ele>
        <time>2018-05-19T11:37:42Z</time>
      </trkpt>
      <trkpt lat="44.10954" lon="3.02037">
        <ele>608.4</ele>
        <time>2018-05-19T11:37:44Z</time>
      </trkpt>
      <trkpt lat="44.10953" lon="3.02041">
        <ele>608.3</ele>
        <time>2018-05-19T11:37:46Z</time>
      </trkpt>
      <trkpt lat="44.10952" lon="3.02046">
        <ele>608.3</ele>
        <time>2018-05-19T11:37:48Z</time>
      </trkpt>
      <trkpt lat="44.10952" lon="3.02049">
        <ele>608.2</ele>
        <time>2018-05-19T11:37:50Z</time>
      </trkpt>
      <trkpt lat="44.10952" lon="3.02054">
        <ele>608.1</ele>
        <time>2018-05-19T11:37:53Z</time>
      </trkpt>
      <trkpt lat="44.10951" lon="3.02057">
        <ele>608</ele>
        <time>2018-05-19T11:37:58Z</time>
      </trkpt>
      <trkpt lat="44.10945" lon="3.02064">
        <ele>608.7</ele>
        <time>2018-05-19T11:39:21Z</time>
      </trkpt>
      <trkpt lat="44.10947" lon="3.02067">
        <ele>609.1</ele>
        <time>2018-05-19T11:39:23Z</time>
      </trkpt>
      <trkpt lat="44.1095" lon="3.02071">
        <ele>609.7</ele>
        <time>2018-05-19T11:39:25Z</time>
      </trkpt>
      <trkpt lat="44.10952" lon="3.02074">
        <ele>610.3</ele>
        <time>2018-05-19T11:39:27Z</time>
      </trkpt>
      <trkpt lat="44.10955" lon="3.02078">
        <ele>610.9</ele>
        <time>2018-05-19T11:39:29Z</time>
      </trkpt>
      <trkpt lat="44.10958" lon="3.02081">
        <ele>611.4</ele>
        <time>2018-05-19T11:39:31Z</time>
      </trkpt>
      <trkpt lat="44.10961" lon="3.02085">
        <ele>612</ele>
        <time>2018-05-19T11:39:33Z</time>
      </trkpt>
      <trkpt lat="44.10964" lon="3.02089">
        <ele>612.5</ele>
        <time>2018-05-19T11:39:35Z</time>
      </trkpt>
      <trkpt lat="44.10966" lon="3.02093">
        <ele>613</ele>
        <time>2018-05-19T11:39:37Z</time>
      </trkpt>
      <trkpt lat="44.10967" lon="3.02095">
        <ele>613.4</ele>
        <time>2018-05-19T11:39:39Z</time>
      </trkpt>
      <trkpt lat="44.1097" lon="3.02098">
        <ele>613.8</ele>
        <time>2018-05-19T11:39:41Z</time>
      </trkpt>
      <trkpt lat="44.10973" lon="3.02101">
        <ele>614.3</ele>
        <time>2018-05-19T11:39:44Z</time>
      </trkpt>
      <trkpt lat="44.10975" lon="3.02103">
        <ele>614.7</ele>
        <time>2018-05-19T11:39:46Z</time>
      </trkpt>
      <trkpt lat="44.10977" lon="3.02106">
        <ele>615.1</ele>
        <time>2018-05-19T11:39:48Z</time>
      </trkpt>
      <trkpt lat="44.10979" lon="3.0211">
        <ele>615.5</ele>
        <time>2018-05-19T11:39:50Z</time>
      </trkpt>
      <trkpt lat="44.10981" lon="3.02114">
        <ele>615.9</ele>
        <time>2018-05-19T11:39:52Z</time>
      </trkpt>
      <trkpt lat="44.10983" lon="3.02118">
        <ele>616.4</ele>
        <time>2018-05-19T11:39:55Z</time>
      </trkpt>
      <trkpt lat="44.10986" lon="3.02122">
        <ele>616.9</ele>
        <time>2018-05-19T11:39:57Z</time>
      </trkpt>
      <trkpt lat="44.10988" lon="3.02125">
        <ele>617.2</ele>
        <time>2018-05-19T11:39:59Z</time>
      </trkpt>
      <trkpt lat="44.1099" lon="3.02127">
        <ele>617.5</ele>
        <time>2018-05-19T11:40:01Z</time>
      </trkpt>
      <trkpt lat="44.10993" lon="3.02129">
        <ele>617.8</ele>
        <time>2018-05-19T11:40:03Z</time>
      </trkpt>
      <trkpt lat="44.10995" lon="3.02131">
        <ele>618.2</ele>
        <time>2018-05-19T11:40:05Z</time>
      </trkpt>
      <trkpt lat="44.10997" lon="3.02134">
        <ele>618.5</ele>
        <time>2018-05-19T11:40:07Z</time>
      </trkpt>
      <trkpt lat="44.11" lon="3.02138">
        <ele>619</ele>
        <time>2018-05-19T11:40:09Z</time>
      </trkpt>
      <trkpt lat="44.11002" lon="3.02141">
        <ele>619.2</ele>
        <time>2018-05-19T11:40:11Z</time>
      </trkpt>
      <trkpt lat="44.11005" lon="3.02143">
        <ele>619.6</ele>
        <time>2018-05-19T11:40:14Z</time>
      </trkpt>
      <trkpt lat="44.11007" lon="3.02145">
        <ele>619.9</ele>
        <time>2018-05-19T11:40:17Z</time>
      </trkpt>
      <trkpt lat="44.1101" lon="3.02148">
        <ele>620.3</ele>
        <time>2018-05-19T11:40:20Z</time>
      </trkpt>
      <trkpt lat="44.11012" lon="3.02151">
        <ele>620.6</ele>
        <time>2018-05-19T11:40:22Z</time>
      </trkpt>
      <trkpt lat="44.11014" lon="3.02155">
        <ele>621</ele>
        <time>2018-05-19T11:40:24Z</time>
      </trkpt>
      <trkpt lat="44.11017" lon="3.02158">
        <ele>621.4</ele>
        <time>2018-05-19T11:40:26Z</time>
      </trkpt>
      <trkpt lat="44.11019" lon="3.02161">
        <ele>621.7</ele>
        <time>2018-05-19T11:40:28Z</time>
      </trkpt>
      <trkpt lat="44.11021" lon="3.02164">
        <ele>622.1</ele>
        <time>2018-05-19T11:40:31Z</time>
      </trkpt>
      <trkpt lat="44.11024" lon="3.02168">
        <ele>622.4</ele>
        <time>2018-05-19T11:40:33Z</time>
      </trkpt>
      <trkpt lat="44.11026" lon="3.02172">
        <ele>622.8</ele>
        <time>2018-05-19T11:40:35Z</time>
      </trkpt>
      <trkpt lat="44.11029" lon="3.02175">
        <ele>623.2</ele>
        <time>2018-05-19T11:40:38Z</time>
      </trkpt>
      <trkpt lat="44.11031" lon="3.02177">
        <ele>623.6</ele>
        <time>2018-05-19T11:40:41Z</time>
      </trkpt>
      <trkpt lat="44.11035" lon="3.02179">
        <ele>624</ele>
        <time>2018-05-19T11:40:44Z</time>
      </trkpt>
      <trkpt lat="44.11038" lon="3.02181">
        <ele>624.4</ele>
        <time>2018-05-19T11:40:46Z</time>
      </trkpt>
      <trkpt lat="44.11041" lon="3.02182">
        <ele>624.8</ele>
        <time>2018-05-19T11:40:49Z</time>
      </trkpt>
      <trkpt lat="44.11043" lon="3.02184">
        <ele>625.1</ele>
        <time>2018-05-19T11:40:51Z</time>
      </trkpt>
      <trkpt lat="44.11046" lon="3.02187">
        <ele>625.6</ele>
        <time>2018-05-19T11:40:53Z</time>
      </trkpt>
      <trkpt lat="44.11049" lon="3.0219">
        <ele>625.9</ele>
        <time>2018-05-19T11:40:55Z</time>
      </trkpt>
      <trkpt lat="44.11051" lon="3.02192">
        <ele>626.4</ele>
        <time>2018-05-19T11:40:58Z</time>
      </trkpt>
      <trkpt lat="44.11054" lon="3.02195">
        <ele>626.9</ele>
        <time>2018-05-19T11:41:01Z</time>
      </trkpt>
      <trkpt lat="44.11057" lon="3.02196">
        <ele>627.4</ele>
        <time>2018-05-19T11:41:03Z</time>
      </trkpt>
      <trkpt lat="44.1106" lon="3.02199">
        <ele>628</ele>
        <time>2018-05-19T11:41:05Z</time>
      </trkpt>
      <trkpt lat="44.11063" lon="3.02202">
        <ele>628.6</ele>
        <time>2018-05-19T11:41:07Z</time>
      </trkpt>
      <trkpt lat="44.11065" lon="3.02205">
        <ele>629.2</ele>
        <time>2018-05-19T11:41:09Z</time>
      </trkpt>
      <trkpt lat="44.11063" lon="3.02209">
        <ele>629.9</ele>
        <time>2018-05-19T11:41:13Z</time>
      </trkpt>
      <trkpt lat="44.11059" lon="3.0221">
        <ele>630.8</ele>
        <time>2018-05-19T11:41:16Z</time>
      </trkpt>
      <trkpt lat="44.11056" lon="3.02212">
        <ele>631.6</ele>
        <time>2018-05-19T11:41:19Z</time>
      </trkpt>
      <trkpt lat="44.11052" lon="3.02212">
        <ele>632.2</ele>
        <time>2018-05-19T11:41:22Z</time>
      </trkpt>
      <trkpt lat="44.11049" lon="3.02213">
        <ele>632.4</ele>
        <time>2018-05-19T11:41:25Z</time>
      </trkpt>
      <trkpt lat="44.11046" lon="3.02213">
        <ele>632.5</ele>
        <time>2018-05-19T11:41:27Z</time>
      </trkpt>
      <trkpt lat="44.11043" lon="3.02214">
        <ele>632.7</ele>
        <time>2018-05-19T11:41:29Z</time>
      </trkpt>
      <trkpt lat="44.1104" lon="3.02215">
        <ele>632.9</ele>
        <time>2018-05-19T11:41:31Z</time>
      </trkpt>
      <trkpt lat="44.11037" lon="3.02216">
        <ele>633.1</ele>
        <time>2018-05-19T11:41:33Z</time>
      </trkpt>
      <trkpt lat="44.11033" lon="3.02217">
        <ele>633.3</ele>
        <time>2018-05-19T11:41:35Z</time>
      </trkpt>
      <trkpt lat="44.11029" lon="3.02218">
        <ele>633.5</ele>
        <time>2018-05-19T11:41:37Z</time>
      </trkpt>
      <trkpt lat="44.11026" lon="3.0222">
        <ele>633.8</ele>
        <time>2018-05-19T11:41:39Z</time>
      </trkpt>
      <trkpt lat="44.11022" lon="3.0222">
        <ele>634.2</ele>
        <time>2018-05-19T11:41:42Z</time>
      </trkpt>
      <trkpt lat="44.11018" lon="3.02221">
        <ele>634.6</ele>
        <time>2018-05-19T11:41:44Z</time>
      </trkpt>
      <trkpt lat="44.11015" lon="3.02222">
        <ele>634.9</ele>
        <time>2018-05-19T11:41:46Z</time>
      </trkpt>
      <trkpt lat="44.11012" lon="3.02222">
        <ele>635.2</ele>
        <time>2018-05-19T11:41:48Z</time>
      </trkpt>
      <trkpt lat="44.11008" lon="3.02222">
        <ele>635.5</ele>
        <time>2018-05-19T11:41:50Z</time>
      </trkpt>
      <trkpt lat="44.11005" lon="3.02222">
        <ele>635.7</ele>
        <time>2018-05-19T11:41:52Z</time>
      </trkpt>
      <trkpt lat="44.11001" lon="3.02224">
        <ele>636</ele>
        <time>2018-05-19T11:41:54Z</time>
      </trkpt>
      <trkpt lat="44.10998" lon="3.02227">
        <ele>636.2</ele>
        <time>2018-05-19T11:41:56Z</time>
      </trkpt>
      <trkpt lat="44.10996" lon="3.02232">
        <ele>636.4</ele>
        <time>2018-05-19T11:41:58Z</time>
      </trkpt>
      <trkpt lat="44.10996" lon="3.02236">
        <ele>636.6</ele>
        <time>2018-05-19T11:42:00Z</time>
      </trkpt>
      <trkpt lat="44.10996" lon="3.02241">
        <ele>636.7</ele>
        <time>2018-05-19T11:42:02Z</time>
      </trkpt>
      <trkpt lat="44.10994" lon="3.02246">
        <ele>636.9</ele>
        <time>2018-05-19T11:42:06Z</time>
      </trkpt>
      <trkpt lat="44.10993" lon="3.02249">
        <ele>637.1</ele>
        <time>2018-05-19T11:42:09Z</time>
      </trkpt>
      <trkpt lat="44.1099" lon="3.02253">
        <ele>637.4</ele>
        <time>2018-05-19T11:42:12Z</time>
      </trkpt>
      <trkpt lat="44.10987" lon="3.02256">
        <ele>637.6</ele>
        <time>2018-05-19T11:42:14Z</time>
      </trkpt>
      <trkpt lat="44.10985" lon="3.02257">
        <ele>637.7</ele>
        <time>2018-05-19T11:42:16Z</time>
      </trkpt>
      <trkpt lat="44.10982" lon="3.02256">
        <ele>637.8</ele>
        <time>2018-05-19T11:42:22Z</time>
      </trkpt>
      <trkpt lat="44.10984" lon="3.02257">
        <ele>637.9</ele>
        <time>2018-05-19T11:42:35Z</time>
      </trkpt>
      <trkpt lat="44.10987" lon="3.02259">
        <ele>638</ele>
        <time>2018-05-19T11:42:37Z</time>
      </trkpt>
      <trkpt lat="44.1099" lon="3.02261">
        <ele>638</ele>
        <time>2018-05-19T11:42:40Z</time>
      </trkpt>
      <trkpt lat="44.10993" lon="3.02263">
        <ele>637.6</ele>
        <time>2018-05-19T11:42:44Z</time>
      </trkpt>
      <trkpt lat="44.10995" lon="3.02266">
        <ele>637.2</ele>
        <time>2018-05-19T11:42:47Z</time>
      </trkpt>
      <trkpt lat="44.10992" lon="3.02269">
        <ele>636.9</ele>
        <time>2018-05-19T11:42:50Z</time>
      </trkpt>
      <trkpt lat="44.10989" lon="3.02266">
        <ele>636.4</ele>
        <time>2018-05-19T11:42:52Z</time>
      </trkpt>
      <trkpt lat="44.10987" lon="3.02263">
        <ele>636.1</ele>
        <time>2018-05-19T11:42:53Z</time>
      </trkpt>
      <trkpt lat="44.10985" lon="3.0226">
        <ele>635.9</ele>
        <time>2018-05-19T11:42:54Z</time>
      </trkpt>
      <trkpt lat="44.10982" lon="3.02256">
        <ele>635.8</ele>
        <time>2018-05-19T11:42:55Z</time>
      </trkpt>
      <trkpt lat="44.10979" lon="3.02253">
        <ele>635.6</ele>
        <time>2018-05-19T11:42:56Z</time>
      </trkpt>
      <trkpt lat="44.10975" lon="3.0225">
        <ele>635.5</ele>
        <time>2018-05-19T11:42:57Z</time>
      </trkpt>
      <trkpt lat="44.10971" lon="3.02247">
        <ele>635.4</ele>
        <time>2018-05-19T11:42:58Z</time>
      </trkpt>
      <trkpt lat="44.10968" lon="3.02245">
        <ele>635.3</ele>
        <time>2018-05-19T11:42:59Z</time>
      </trkpt>
      <trkpt lat="44.10964" lon="3.02242">
        <ele>635.2</ele>
        <time>2018-05-19T11:43:00Z</time>
      </trkpt>
      <trkpt lat="44.1096" lon="3.02239">
        <ele>635</ele>
        <time>2018-05-19T11:43:01Z</time>
      </trkpt>
      <trkpt lat="44.10957" lon="3.02236">
        <ele>634.9</ele>
        <time>2018-05-19T11:43:02Z</time>
      </trkpt>
      <trkpt lat="44.10952" lon="3.02232">
        <ele>634.7</ele>
        <time>2018-05-19T11:43:03Z</time>
      </trkpt>
      <trkpt lat="44.10948" lon="3.02228">
        <ele>634.6</ele>
        <time>2018-05-19T11:43:04Z</time>
      </trkpt>
      <trkpt lat="44.10943" lon="3.02224">
        <ele>634.4</ele>
        <time>2018-05-19T11:43:05Z</time>
      </trkpt>
      <trkpt lat="44.10938" lon="3.0222">
        <ele>634.3</ele>
        <time>2018-05-19T11:43:06Z</time>
      </trkpt>
      <trkpt lat="44.10933" lon="3.02216">
        <ele>634.1</ele>
        <time>2018-05-19T11:43:07Z</time>
      </trkpt>
      <trkpt lat="44.10929" lon="3.02213">
        <ele>633.9</ele>
        <time>2018-05-19T11:43:08Z</time>
      </trkpt>
      <trkpt lat="44.10924" lon="3.02208">
        <ele>633.5</ele>
        <time>2018-05-19T11:43:09Z</time>
      </trkpt>
      <trkpt lat="44.10919" lon="3.02204">
        <ele>632.8</ele>
        <time>2018-05-19T11:43:10Z</time>
      </trkpt>
      <trkpt lat="44.10914" lon="3.02199">
        <ele>632.3</ele>
        <time>2018-05-19T11:43:11Z</time>
      </trkpt>
      <trkpt lat="44.10909" lon="3.02194">
        <ele>632.2</ele>
        <time>2018-05-19T11:43:12Z</time>
      </trkpt>
      <trkpt lat="44.10904" lon="3.02188">
        <ele>632</ele>
        <time>2018-05-19T11:43:13Z</time>
      </trkpt>
      <trkpt lat="44.109" lon="3.02184">
        <ele>631.9</ele>
        <time>2018-05-19T11:43:14Z</time>
      </trkpt>
      <trkpt lat="44.10896" lon="3.02181">
        <ele>631.8</ele>
        <time>2018-05-19T11:43:15Z</time>
      </trkpt>
      <trkpt lat="44.10892" lon="3.02174">
        <ele>631.7</ele>
        <time>2018-05-19T11:43:16Z</time>
      </trkpt>
      <trkpt lat="44.10888" lon="3.02169">
        <ele>631.6</ele>
        <time>2018-05-19T11:43:17Z</time>
      </trkpt>
      <trkpt lat="44.10884" lon="3.02164">
        <ele>631.5</ele>
        <time>2018-05-19T11:43:18Z</time>
      </trkpt>
      <trkpt lat="44.1088" lon="3.02159">
        <ele>631.4</ele>
        <time>2018-05-19T11:43:19Z</time>
      </trkpt>
      <trkpt lat="44.10875" lon="3.02154">
        <ele>631.3</ele>
        <time>2018-05-19T11:43:20Z</time>
      </trkpt>
      <trkpt lat="44.10871" lon="3.02148">
        <ele>631.3</ele>
        <time>2018-05-19T11:43:21Z</time>
      </trkpt>
      <trkpt lat="44.10867" lon="3.02144">
        <ele>631.2</ele>
        <time>2018-05-19T11:43:22Z</time>
      </trkpt>
      <trkpt lat="44.10864" lon="3.02142">
        <ele>631.1</ele>
        <time>2018-05-19T11:43:23Z</time>
      </trkpt>
      <trkpt lat="44.1086" lon="3.02141">
        <ele>631.1</ele>
        <time>2018-05-19T11:43:24Z</time>
      </trkpt>
      <trkpt lat="44.10857" lon="3.02141">
        <ele>631</ele>
        <time>2018-05-19T11:43:25Z</time>
      </trkpt>
      <trkpt lat="44.10855" lon="3.02142">
        <ele>631</ele>
        <time>2018-05-19T11:43:26Z</time>
      </trkpt>
      <trkpt lat="44.10851" lon="3.02145">
        <ele>630.8</ele>
        <time>2018-05-19T11:43:28Z</time>
      </trkpt>
      <trkpt lat="44.1085" lon="3.0215">
        <ele>630.2</ele>
        <time>2018-05-19T11:43:30Z</time>
      </trkpt>
      <trkpt lat="44.10849" lon="3.02154">
        <ele>629.7</ele>
        <time>2018-05-19T11:43:32Z</time>
      </trkpt>
      <trkpt lat="44.10846" lon="3.0216">
        <ele>628.9</ele>
        <time>2018-05-19T11:43:34Z</time>
      </trkpt>
      <trkpt lat="44.10844" lon="3.02165">
        <ele>628.3</ele>
        <time>2018-05-19T11:43:35Z</time>
      </trkpt>
      <trkpt lat="44.10841" lon="3.02173">
        <ele>627.3</ele>
        <time>2018-05-19T11:43:36Z</time>
      </trkpt>
      <trkpt lat="44.10839" lon="3.02177">
        <ele>626.7</ele>
        <time>2018-05-19T11:43:37Z</time>
      </trkpt>
      <trkpt lat="44.10837" lon="3.02183">
        <ele>626</ele>
        <time>2018-05-19T11:43:38Z</time>
      </trkpt>
      <trkpt lat="44.10835" lon="3.0219">
        <ele>625.2</ele>
        <time>2018-05-19T11:43:39Z</time>
      </trkpt>
      <trkpt lat="44.10834" lon="3.02196">
        <ele>624.4</ele>
        <time>2018-05-19T11:43:40Z</time>
      </trkpt>
      <trkpt lat="44.1083" lon="3.02203">
        <ele>623.8</ele>
        <time>2018-05-19T11:43:41Z</time>
      </trkpt>
      <trkpt lat="44.10827" lon="3.02208">
        <ele>623.7</ele>
        <time>2018-05-19T11:43:42Z</time>
      </trkpt>
      <trkpt lat="44.10823" lon="3.02214">
        <ele>623.5</ele>
        <time>2018-05-19T11:43:43Z</time>
      </trkpt>
      <trkpt lat="44.10818" lon="3.0222">
        <ele>623.1</ele>
        <time>2018-05-19T11:43:44Z</time>
      </trkpt>
      <trkpt lat="44.10813" lon="3.02229">
        <ele>622.1</ele>
        <time>2018-05-19T11:43:45Z</time>
      </trkpt>
      <trkpt lat="44.10807" lon="3.02238">
        <ele>621.7</ele>
        <time>2018-05-19T11:43:46Z</time>
      </trkpt>
      <trkpt lat="44.10801" lon="3.02247">
        <ele>621.4</ele>
        <time>2018-05-19T11:43:47Z</time>
      </trkpt>
      <trkpt lat="44.10797" lon="3.02255">
        <ele>621.1</ele>
        <time>2018-05-19T11:43:48Z</time>
      </trkpt>
      <trkpt lat="44.10793" lon="3.02261">
        <ele>620.6</ele>
        <time>2018-05-19T11:43:49Z</time>
      </trkpt>
      <trkpt lat="44.1079" lon="3.02268">
        <ele>620.2</ele>
        <time>2018-05-19T11:43:50Z</time>
      </trkpt>
      <trkpt lat="44.10785" lon="3.02275">
        <ele>619.9</ele>
        <time>2018-05-19T11:43:51Z</time>
      </trkpt>
      <trkpt lat="44.10781" lon="3.02284">
        <ele>619.7</ele>
        <time>2018-05-19T11:43:52Z</time>
      </trkpt>
      <trkpt lat="44.10775" lon="3.02291">
        <ele>619.6</ele>
        <time>2018-05-19T11:43:53Z</time>
      </trkpt>
      <trkpt lat="44.10771" lon="3.023">
        <ele>619.5</ele>
        <time>2018-05-19T11:43:54Z</time>
      </trkpt>
      <trkpt lat="44.10766" lon="3.02308">
        <ele>619.5</ele>
        <time>2018-05-19T11:43:55Z</time>
      </trkpt>
      <trkpt lat="44.1076" lon="3.02316">
        <ele>619.4</ele>
        <time>2018-05-19T11:43:56Z</time>
      </trkpt>
      <trkpt lat="44.10756" lon="3.02324">
        <ele>619.4</ele>
        <time>2018-05-19T11:43:57Z</time>
      </trkpt>
      <trkpt lat="44.10751" lon="3.02331">
        <ele>619.3</ele>
        <time>2018-05-19T11:43:58Z</time>
      </trkpt>
      <trkpt lat="44.10746" lon="3.02338">
        <ele>619.3</ele>
        <time>2018-05-19T11:43:59Z</time>
      </trkpt>
      <trkpt lat="44.10741" lon="3.02345">
        <ele>619.2</ele>
        <time>2018-05-19T11:44:00Z</time>
      </trkpt>
      <trkpt lat="44.10736" lon="3.02351">
        <ele>619.1</ele>
        <time>2018-05-19T11:44:01Z</time>
      </trkpt>
      <trkpt lat="44.10732" lon="3.02359">
        <ele>619</ele>
        <time>2018-05-19T11:44:02Z</time>
      </trkpt>
      <trkpt lat="44.10728" lon="3.02365">
        <ele>618.9</ele>
        <time>2018-05-19T11:44:03Z</time>
      </trkpt>
      <trkpt lat="44.10723" lon="3.02372">
        <ele>618.4</ele>
        <time>2018-05-19T11:44:04Z</time>
      </trkpt>
      <trkpt lat="44.10718" lon="3.02378">
        <ele>618</ele>
        <time>2018-05-19T11:44:05Z</time>
      </trkpt>
      <trkpt lat="44.10713" lon="3.02386">
        <ele>617.7</ele>
        <time>2018-05-19T11:44:06Z</time>
      </trkpt>
      <trkpt lat="44.10707" lon="3.02393">
        <ele>617.5</ele>
        <time>2018-05-19T11:44:07Z</time>
      </trkpt>
      <trkpt lat="44.10702" lon="3.024">
        <ele>617.4</ele>
        <time>2018-05-19T11:44:08Z</time>
      </trkpt>
      <trkpt lat="44.10695" lon="3.02406">
        <ele>617.1</ele>
        <time>2018-05-19T11:44:09Z</time>
      </trkpt>
      <trkpt lat="44.10688" lon="3.02411">
        <ele>616.9</ele>
        <time>2018-05-19T11:44:10Z</time>
      </trkpt>
      <trkpt lat="44.10682" lon="3.02417">
        <ele>616.2</ele>
        <time>2018-05-19T11:44:11Z</time>
      </trkpt>
      <trkpt lat="44.10675" lon="3.02423">
        <ele>615.8</ele>
        <time>2018-05-19T11:44:12Z</time>
      </trkpt>
      <trkpt lat="44.10668" lon="3.02431">
        <ele>615.5</ele>
        <time>2018-05-19T11:44:13Z</time>
      </trkpt>
      <trkpt lat="44.1066" lon="3.02438">
        <ele>615.2</ele>
        <time>2018-05-19T11:44:14Z</time>
      </trkpt>
      <trkpt lat="44.10651" lon="3.02445">
        <ele>614.9</ele>
        <time>2018-05-19T11:44:15Z</time>
      </trkpt>
      <trkpt lat="44.10644" lon="3.02453">
        <ele>614.5</ele>
        <time>2018-05-19T11:44:16Z</time>
      </trkpt>
      <trkpt lat="44.10637" lon="3.02461">
        <ele>613.7</ele>
        <time>2018-05-19T11:44:17Z</time>
      </trkpt>
      <trkpt lat="44.10629" lon="3.02469">
        <ele>613.3</ele>
        <time>2018-05-19T11:44:18Z</time>
      </trkpt>
      <trkpt lat="44.10621" lon="3.02475">
        <ele>613</ele>
        <time>2018-05-19T11:44:19Z</time>
      </trkpt>
      <trkpt lat="44.10614" lon="3.02479">
        <ele>612.7</ele>
        <time>2018-05-19T11:44:20Z</time>
      </trkpt>
      <trkpt lat="44.10608" lon="3.02483">
        <ele>612</ele>
        <time>2018-05-19T11:44:21Z</time>
      </trkpt>
      <trkpt lat="44.10602" lon="3.02487">
        <ele>611.6</ele>
        <time>2018-05-19T11:44:22Z</time>
      </trkpt>
      <trkpt lat="44.10596" lon="3.02492">
        <ele>611.3</ele>
        <time>2018-05-19T11:44:23Z</time>
      </trkpt>
      <trkpt lat="44.10593" lon="3.02494">
        <ele>611.2</ele>
        <time>2018-05-19T11:44:24Z</time>
      </trkpt>
      <trkpt lat="44.1059" lon="3.02496">
        <ele>611.1</ele>
        <time>2018-05-19T11:44:26Z</time>
      </trkpt>
      <trkpt lat="44.10587" lon="3.02497">
        <ele>611</ele>
        <time>2018-05-19T11:44:28Z</time>
      </trkpt>
      <trkpt lat="44.10585" lon="3.02501">
        <ele>611</ele>
        <time>2018-05-19T11:44:38Z</time>
      </trkpt>
      <trkpt lat="44.10583" lon="3.02499">
        <ele>611</ele>
        <time>2018-05-19T11:44:58Z</time>
      </trkpt>
      <trkpt lat="44.10583" lon="3.02505">
        <ele>610.9</ele>
        <time>2018-05-19T11:47:15Z</time>
      </trkpt>
      <trkpt lat="44.10579" lon="3.02508">
        <ele>610.9</ele>
        <time>2018-05-19T11:47:17Z</time>
      </trkpt>
      <trkpt lat="44.10576" lon="3.0251">
        <ele>610.9</ele>
        <time>2018-05-19T11:47:18Z</time>
      </trkpt>
      <trkpt lat="44.10573" lon="3.02512">
        <ele>610.9</ele>
        <time>2018-05-19T11:47:19Z</time>
      </trkpt>
      <trkpt lat="44.1057" lon="3.02514">
        <ele>610.9</ele>
        <time>2018-05-19T11:47:20Z</time>
      </trkpt>
      <trkpt lat="44.10567" lon="3.02517">
        <ele>610.8</ele>
        <time>2018-05-19T11:47:21Z</time>
      </trkpt>
      <trkpt lat="44.10564" lon="3.02519">
        <ele>610.8</ele>
        <time>2018-05-19T11:47:22Z</time>
      </trkpt>
      <trkpt lat="44.10561" lon="3.02521">
        <ele>610.8</ele>
        <time>2018-05-19T11:47:23Z</time>
      </trkpt>
      <trkpt lat="44.10559" lon="3.02524">
        <ele>610.8</ele>
        <time>2018-05-19T11:47:24Z</time>
      </trkpt>
      <trkpt lat="44.10556" lon="3.02526">
        <ele>610.8</ele>
        <time>2018-05-19T11:47:25Z</time>
      </trkpt>
      <trkpt lat="44.10553" lon="3.02529">
        <ele>610.7</ele>
        <time>2018-05-19T11:47:26Z</time>
      </trkpt>
      <trkpt lat="44.1055" lon="3.02532">
        <ele>610.7</ele>
        <time>2018-05-19T11:47:27Z</time>
      </trkpt>
      <trkpt lat="44.10546" lon="3.02535">
        <ele>610.7</ele>
        <time>2018-05-19T11:47:28Z</time>
      </trkpt>
      <trkpt lat="44.10543" lon="3.02538">
        <ele>610.7</ele>
        <time>2018-05-19T11:47:29Z</time>
      </trkpt>
      <trkpt lat="44.10539" lon="3.02541">
        <ele>610.6</ele>
        <time>2018-05-19T11:47:30Z</time>
      </trkpt>
      <trkpt lat="44.10536" lon="3.02544">
        <ele>610.5</ele>
        <time>2018-05-19T11:47:31Z</time>
      </trkpt>
      <trkpt lat="44.10532" lon="3.02546">
        <ele>610.4</ele>
        <time>2018-05-19T11:47:32Z</time>
      </trkpt>
      <trkpt lat="44.10529" lon="3.02548">
        <ele>610.3</ele>
        <time>2018-05-19T11:47:33Z</time>
      </trkpt>
      <trkpt lat="44.10526" lon="3.02551">
        <ele>610.3</ele>
        <time>2018-05-19T11:47:34Z</time>
      </trkpt>
      <trkpt lat="44.10523" lon="3.02553">
        <ele>610.2</ele>
        <time>2018-05-19T11:47:35Z</time>
      </trkpt>
      <trkpt lat="44.1052" lon="3.02554">
        <ele>610.1</ele>
        <time>2018-05-19T11:47:36Z</time>
      </trkpt>
      <trkpt lat="44.10517" lon="3.02555">
        <ele>610.1</ele>
        <time>2018-05-19T11:47:37Z</time>
      </trkpt>
      <trkpt lat="44.10514" lon="3.02555">
        <ele>610</ele>
        <time>2018-05-19T11:47:38Z</time>
      </trkpt>
      <trkpt lat="44.1051" lon="3.02555">
        <ele>610</ele>
        <time>2018-05-19T11:47:39Z</time>
      </trkpt>
      <trkpt lat="44.10507" lon="3.02553">
        <ele>610</ele>
        <time>2018-05-19T11:47:40Z</time>
      </trkpt>
      <trkpt lat="44.10504" lon="3.02551">
        <ele>609.9</ele>
        <time>2018-05-19T11:47:41Z</time>
      </trkpt>
      <trkpt lat="44.10501" lon="3.02548">
        <ele>609.9</ele>
        <time>2018-05-19T11:47:42Z</time>
      </trkpt>
      <trkpt lat="44.10498" lon="3.02545">
        <ele>609.9</ele>
        <time>2018-05-19T11:47:43Z</time>
      </trkpt>
      <trkpt lat="44.10495" lon="3.02542">
        <ele>609.9</ele>
        <time>2018-05-19T11:47:44Z</time>
      </trkpt>
      <trkpt lat="44.10493" lon="3.02539">
        <ele>609.9</ele>
        <time>2018-05-19T11:47:45Z</time>
      </trkpt>
      <trkpt lat="44.1049" lon="3.02536">
        <ele>609.9</ele>
        <time>2018-05-19T11:47:46Z</time>
      </trkpt>
      <trkpt lat="44.10488" lon="3.02534">
        <ele>609.9</ele>
        <time>2018-05-19T11:47:47Z</time>
      </trkpt>
      <trkpt lat="44.10485" lon="3.02531">
        <ele>609.8</ele>
        <time>2018-05-19T11:47:48Z</time>
      </trkpt>
      <trkpt lat="44.10483" lon="3.02528">
        <ele>609.8</ele>
        <time>2018-05-19T11:47:49Z</time>
      </trkpt>
      <trkpt lat="44.1048" lon="3.02525">
        <ele>609.8</ele>
        <time>2018-05-19T11:47:50Z</time>
      </trkpt>
      <trkpt lat="44.10478" lon="3.02523">
        <ele>609.8</ele>
        <time>2018-05-19T11:47:51Z</time>
      </trkpt>
      <trkpt lat="44.10475" lon="3.0252">
        <ele>609.8</ele>
        <time>2018-05-19T11:47:52Z</time>
      </trkpt>
      <trkpt lat="44.10473" lon="3.02518">
        <ele>609.8</ele>
        <time>2018-05-19T11:47:53Z</time>
      </trkpt>
      <trkpt lat="44.10471" lon="3.02515">
        <ele>609.7</ele>
        <time>2018-05-19T11:47:54Z</time>
      </trkpt>
      <trkpt lat="44.10468" lon="3.02513">
        <ele>609.7</ele>
        <time>2018-05-19T11:47:55Z</time>
      </trkpt>
      <trkpt lat="44.10466" lon="3.0251">
        <ele>609.7</ele>
        <time>2018-05-19T11:47:56Z</time>
      </trkpt>
      <trkpt lat="44.10463" lon="3.02508">
        <ele>609.7</ele>
        <time>2018-05-19T11:47:57Z</time>
      </trkpt>
      <trkpt lat="44.10461" lon="3.02505">
        <ele>609.7</ele>
        <time>2018-05-19T11:47:58Z</time>
      </trkpt>
      <trkpt lat="44.10458" lon="3.02503">
        <ele>609.6</ele>
        <time>2018-05-19T11:47:59Z</time>
      </trkpt>
      <trkpt lat="44.10456" lon="3.02501">
        <ele>609.6</ele>
        <time>2018-05-19T11:48:00Z</time>
      </trkpt>
      <trkpt lat="44.10453" lon="3.02498">
        <ele>609.6</ele>
        <time>2018-05-19T11:48:01Z</time>
      </trkpt>
      <trkpt lat="44.1045" lon="3.02495">
        <ele>609.6</ele>
        <time>2018-05-19T11:48:02Z</time>
      </trkpt>
      <trkpt lat="44.10448" lon="3.02492">
        <ele>609.5</ele>
        <time>2018-05-19T11:48:03Z</time>
      </trkpt>
      <trkpt lat="44.10446" lon="3.0249">
        <ele>609.5</ele>
        <time>2018-05-19T11:48:04Z</time>
      </trkpt>
      <trkpt lat="44.10443" lon="3.02487">
        <ele>609.5</ele>
        <time>2018-05-19T11:48:05Z</time>
      </trkpt>
      <trkpt lat="44.1044" lon="3.02484">
        <ele>609.5</ele>
        <time>2018-05-19T11:48:06Z</time>
      </trkpt>
      <trkpt lat="44.10437" lon="3.02481">
        <ele>609.4</ele>
        <time>2018-05-19T11:48:07Z</time>
      </trkpt>
      <trkpt lat="44.10435" lon="3.02477">
        <ele>609.4</ele>
        <time>2018-05-19T11:48:08Z</time>
      </trkpt>
      <trkpt lat="44.10432" lon="3.02474">
        <ele>609.4</ele>
        <time>2018-05-19T11:48:09Z</time>
      </trkpt>
      <trkpt lat="44.1043" lon="3.0247">
        <ele>609.4</ele>
        <time>2018-05-19T11:48:10Z</time>
      </trkpt>
      <trkpt lat="44.10427" lon="3.02467">
        <ele>609.3</ele>
        <time>2018-05-19T11:48:11Z</time>
      </trkpt>
      <trkpt lat="44.10425" lon="3.02463">
        <ele>609.3</ele>
        <time>2018-05-19T11:48:12Z</time>
      </trkpt>
      <trkpt lat="44.10422" lon="3.0246">
        <ele>609.3</ele>
        <time>2018-05-19T11:48:13Z</time>
      </trkpt>
      <trkpt lat="44.1042" lon="3.02456">
        <ele>609.3</ele>
        <time>2018-05-19T11:48:14Z</time>
      </trkpt>
      <trkpt lat="44.10417" lon="3.02452">
        <ele>609.2</ele>
        <time>2018-05-19T11:48:15Z</time>
      </trkpt>
      <trkpt lat="44.10415" lon="3.02447">
        <ele>609.2</ele>
        <time>2018-05-19T11:48:16Z</time>
      </trkpt>
      <trkpt lat="44.10412" lon="3.02443">
        <ele>609.2</ele>
        <time>2018-05-19T11:48:17Z</time>
      </trkpt>
      <trkpt lat="44.10409" lon="3.02439">
        <ele>609.1</ele>
        <time>2018-05-19T11:48:18Z</time>
      </trkpt>
      <trkpt lat="44.10407" lon="3.02435">
        <ele>609.1</ele>
        <time>2018-05-19T11:48:19Z</time>
      </trkpt>
      <trkpt lat="44.10405" lon="3.02431">
        <ele>609.1</ele>
        <time>2018-05-19T11:48:20Z</time>
      </trkpt>
      <trkpt lat="44.10403" lon="3.02428">
        <ele>609</ele>
        <time>2018-05-19T11:48:21Z</time>
      </trkpt>
      <trkpt lat="44.104" lon="3.02424">
        <ele>609</ele>
        <time>2018-05-19T11:48:22Z</time>
      </trkpt>
      <trkpt lat="44.10397" lon="3.02421">
        <ele>609</ele>
        <time>2018-05-19T11:48:23Z</time>
      </trkpt>
      <trkpt lat="44.10395" lon="3.02417">
        <ele>609</ele>
        <time>2018-05-19T11:48:24Z</time>
      </trkpt>
      <trkpt lat="44.10392" lon="3.02414">
        <ele>608.9</ele>
        <time>2018-05-19T11:48:25Z</time>
      </trkpt>
      <trkpt lat="44.1039" lon="3.02411">
        <ele>608.9</ele>
        <time>2018-05-19T11:48:26Z</time>
      </trkpt>
      <trkpt lat="44.10387" lon="3.02407">
        <ele>608.8</ele>
        <time>2018-05-19T11:48:27Z</time>
      </trkpt>
      <trkpt lat="44.10385" lon="3.02403">
        <ele>608.8</ele>
        <time>2018-05-19T11:48:28Z</time>
      </trkpt>
      <trkpt lat="44.10382" lon="3.02399">
        <ele>608.8</ele>
        <time>2018-05-19T11:48:29Z</time>
      </trkpt>
      <trkpt lat="44.1038" lon="3.02395">
        <ele>608.7</ele>
        <time>2018-05-19T11:48:30Z</time>
      </trkpt>
      <trkpt lat="44.10378" lon="3.02392">
        <ele>608.7</ele>
        <time>2018-05-19T11:48:31Z</time>
      </trkpt>
      <trkpt lat="44.10376" lon="3.02387">
        <ele>608.7</ele>
        <time>2018-05-19T11:48:32Z</time>
      </trkpt>
      <trkpt lat="44.10374" lon="3.02383">
        <ele>608.6</ele>
        <time>2018-05-19T11:48:33Z</time>
      </trkpt>
      <trkpt lat="44.10372" lon="3.02378">
        <ele>608.6</ele>
        <time>2018-05-19T11:48:34Z</time>
      </trkpt>
      <trkpt lat="44.1037" lon="3.02373">
        <ele>608.6</ele>
        <time>2018-05-19T11:48:35Z</time>
      </trkpt>
      <trkpt lat="44.10368" lon="3.02368">
        <ele>608.6</ele>
        <time>2018-05-19T11:48:36Z</time>
      </trkpt>
      <trkpt lat="44.10366" lon="3.02364">
        <ele>608.5</ele>
        <time>2018-05-19T11:48:37Z</time>
      </trkpt>
      <trkpt lat="44.10365" lon="3.02359">
        <ele>608.5</ele>
        <time>2018-05-19T11:48:38Z</time>
      </trkpt>
      <trkpt lat="44.10363" lon="3.02354">
        <ele>608.5</ele>
        <time>2018-05-19T11:48:39Z</time>
      </trkpt>
      <trkpt lat="44.1036" lon="3.0235">
        <ele>608.4</ele>
        <time>2018-05-19T11:48:40Z</time>
      </trkpt>
      <trkpt lat="44.10358" lon="3.02345">
        <ele>608.4</ele>
        <time>2018-05-19T11:48:41Z</time>
      </trkpt>
      <trkpt lat="44.10355" lon="3.0234">
        <ele>608.4</ele>
        <time>2018-05-19T11:48:42Z</time>
      </trkpt>
      <trkpt lat="44.10353" lon="3.02336">
        <ele>608.4</ele>
        <time>2018-05-19T11:48:43Z</time>
      </trkpt>
      <trkpt lat="44.10349" lon="3.02331">
        <ele>608.3</ele>
        <time>2018-05-19T11:48:44Z</time>
      </trkpt>
      <trkpt lat="44.10345" lon="3.02327">
        <ele>608.3</ele>
        <time>2018-05-19T11:48:45Z</time>
      </trkpt>
      <trkpt lat="44.10342" lon="3.02323">
        <ele>608.3</ele>
        <time>2018-05-19T11:48:46Z</time>
      </trkpt>
      <trkpt lat="44.10337" lon="3.02318">
        <ele>608.2</ele>
        <time>2018-05-19T11:48:47Z</time>
      </trkpt>
      <trkpt lat="44.10333" lon="3.02314">
        <ele>608.1</ele>
        <time>2018-05-19T11:48:48Z</time>
      </trkpt>
      <trkpt lat="44.10328" lon="3.0231">
        <ele>608.1</ele>
        <time>2018-05-19T11:48:49Z</time>
      </trkpt>
      <trkpt lat="44.10325" lon="3.02306">
        <ele>608</ele>
        <time>2018-05-19T11:48:50Z</time>
      </trkpt>
      <trkpt lat="44.10321" lon="3.02302">
        <ele>608</ele>
        <time>2018-05-19T11:48:51Z</time>
      </trkpt>
      <trkpt lat="44.10316" lon="3.023">
        <ele>607.9</ele>
        <time>2018-05-19T11:48:52Z</time>
      </trkpt>
      <trkpt lat="44.10312" lon="3.02296">
        <ele>607.8</ele>
        <time>2018-05-19T11:48:53Z</time>
      </trkpt>
      <trkpt lat="44.10307" lon="3.02292">
        <ele>607.7</ele>
        <time>2018-05-19T11:48:54Z</time>
      </trkpt>
      <trkpt lat="44.10303" lon="3.02288">
        <ele>607.7</ele>
        <time>2018-05-19T11:48:55Z</time>
      </trkpt>
      <trkpt lat="44.10297" lon="3.02284">
        <ele>607.5</ele>
        <time>2018-05-19T11:48:56Z</time>
      </trkpt>
      <trkpt lat="44.10292" lon="3.02281">
        <ele>607.3</ele>
        <time>2018-05-19T11:48:57Z</time>
      </trkpt>
      <trkpt lat="44.10287" lon="3.02277">
        <ele>607</ele>
        <time>2018-05-19T11:48:58Z</time>
      </trkpt>
      <trkpt lat="44.10282" lon="3.02272">
        <ele>606.5</ele>
        <time>2018-05-19T11:48:59Z</time>
      </trkpt>
      <trkpt lat="44.10276" lon="3.02267">
        <ele>605.9</ele>
        <time>2018-05-19T11:49:00Z</time>
      </trkpt>
      <trkpt lat="44.1027" lon="3.02262">
        <ele>605.7</ele>
        <time>2018-05-19T11:49:01Z</time>
      </trkpt>
      <trkpt lat="44.10265" lon="3.02258">
        <ele>605.6</ele>
        <time>2018-05-19T11:49:02Z</time>
      </trkpt>
      <trkpt lat="44.10259" lon="3.02251">
        <ele>605.4</ele>
        <time>2018-05-19T11:49:03Z</time>
      </trkpt>
      <trkpt lat="44.10252" lon="3.02246">
        <ele>605.2</ele>
        <time>2018-05-19T11:49:04Z</time>
      </trkpt>
      <trkpt lat="44.10247" lon="3.0224">
        <ele>605.1</ele>
        <time>2018-05-19T11:49:05Z</time>
      </trkpt>
      <trkpt lat="44.1024" lon="3.02235">
        <ele>604.9</ele>
        <time>2018-05-19T11:49:06Z</time>
      </trkpt>
      <trkpt lat="44.10234" lon="3.02229">
        <ele>604.7</ele>
        <time>2018-05-19T11:49:07Z</time>
      </trkpt>
      <trkpt lat="44.10228" lon="3.02224">
        <ele>604.3</ele>
        <time>2018-05-19T11:49:08Z</time>
      </trkpt>
      <trkpt lat="44.10221" lon="3.02218">
        <ele>603.5</ele>
        <time>2018-05-19T11:49:09Z</time>
      </trkpt>
      <trkpt lat="44.10214" lon="3.02212">
        <ele>602.7</ele>
        <time>2018-05-19T11:49:10Z</time>
      </trkpt>
      <trkpt lat="44.10209" lon="3.02206">
        <ele>602.4</ele>
        <time>2018-05-19T11:49:11Z</time>
      </trkpt>
      <trkpt lat="44.10205" lon="3.022">
        <ele>602</ele>
        <time>2018-05-19T11:49:12Z</time>
      </trkpt>
      <trkpt lat="44.10201" lon="3.02193">
        <ele>600.7</ele>
        <time>2018-05-19T11:49:13Z</time>
      </trkpt>
      <trkpt lat="44.10197" lon="3.02187">
        <ele>599.9</ele>
        <time>2018-05-19T11:49:14Z</time>
      </trkpt>
      <trkpt lat="44.10193" lon="3.0218">
        <ele>599.5</ele>
        <time>2018-05-19T11:49:15Z</time>
      </trkpt>
      <trkpt lat="44.10189" lon="3.02174">
        <ele>599.2</ele>
        <time>2018-05-19T11:49:16Z</time>
      </trkpt>
      <trkpt lat="44.10185" lon="3.02168">
        <ele>599</ele>
        <time>2018-05-19T11:49:17Z</time>
      </trkpt>
      <trkpt lat="44.10182" lon="3.02162">
        <ele>598.8</ele>
        <time>2018-05-19T11:49:18Z</time>
      </trkpt>
      <trkpt lat="44.10179" lon="3.02156">
        <ele>598.6</ele>
        <time>2018-05-19T11:49:19Z</time>
      </trkpt>
      <trkpt lat="44.10175" lon="3.02149">
        <ele>598.4</ele>
        <time>2018-05-19T11:49:20Z</time>
      </trkpt>
      <trkpt lat="44.10169" lon="3.02144">
        <ele>598.1</ele>
        <time>2018-05-19T11:49:21Z</time>
      </trkpt>
      <trkpt lat="44.10163" lon="3.02141">
        <ele>597.8</ele>
        <time>2018-05-19T11:49:22Z</time>
      </trkpt>
      <trkpt lat="44.10156" lon="3.02137">
        <ele>597</ele>
        <time>2018-05-19T11:49:23Z</time>
      </trkpt>
      <trkpt lat="44.10149" lon="3.02135">
        <ele>596.1</ele>
        <time>2018-05-19T11:49:24Z</time>
      </trkpt>
      <trkpt lat="44.10142" lon="3.02132">
        <ele>595.5</ele>
        <time>2018-05-19T11:49:25Z</time>
      </trkpt>
      <trkpt lat="44.10134" lon="3.0213">
        <ele>595.1</ele>
        <time>2018-05-19T11:49:26Z</time>
      </trkpt>
      <trkpt lat="44.10127" lon="3.02127">
        <ele>594.9</ele>
        <time>2018-05-19T11:49:27Z</time>
      </trkpt>
      <trkpt lat="44.10119" lon="3.02125">
        <ele>594.6</ele>
        <time>2018-05-19T11:49:28Z</time>
      </trkpt>
      <trkpt lat="44.10112" lon="3.02121">
        <ele>594.4</ele>
        <time>2018-05-19T11:49:29Z</time>
      </trkpt>
      <trkpt lat="44.10104" lon="3.02118">
        <ele>594.2</ele>
        <time>2018-05-19T11:49:30Z</time>
      </trkpt>
      <trkpt lat="44.10096" lon="3.02114">
        <ele>594</ele>
        <time>2018-05-19T11:49:31Z</time>
      </trkpt>
      <trkpt lat="44.10088" lon="3.0211">
        <ele>593.8</ele>
        <time>2018-05-19T11:49:32Z</time>
      </trkpt>
      <trkpt lat="44.10081" lon="3.02107">
        <ele>593.6</ele>
        <time>2018-05-19T11:49:33Z</time>
      </trkpt>
      <trkpt lat="44.10073" lon="3.02103">
        <ele>593.1</ele>
        <time>2018-05-19T11:49:34Z</time>
      </trkpt>
      <trkpt lat="44.10065" lon="3.02099">
        <ele>592</ele>
        <time>2018-05-19T11:49:35Z</time>
      </trkpt>
      <trkpt lat="44.10057" lon="3.02096">
        <ele>591.3</ele>
        <time>2018-05-19T11:49:36Z</time>
      </trkpt>
      <trkpt lat="44.10048" lon="3.02092">
        <ele>590.8</ele>
        <time>2018-05-19T11:49:37Z</time>
      </trkpt>
      <trkpt lat="44.10039" lon="3.02088">
        <ele>590.4</ele>
        <time>2018-05-19T11:49:38Z</time>
      </trkpt>
      <trkpt lat="44.10029" lon="3.02085">
        <ele>590.1</ele>
        <time>2018-05-19T11:49:39Z</time>
      </trkpt>
      <trkpt lat="44.1002" lon="3.02081">
        <ele>589.7</ele>
        <time>2018-05-19T11:49:40Z</time>
      </trkpt>
      <trkpt lat="44.1001" lon="3.02078">
        <ele>589.1</ele>
        <time>2018-05-19T11:49:41Z</time>
      </trkpt>
      <trkpt lat="44.1" lon="3.02074">
        <ele>587.6</ele>
        <time>2018-05-19T11:49:42Z</time>
      </trkpt>
      <trkpt lat="44.0999" lon="3.0207">
        <ele>586.9</ele>
        <time>2018-05-19T11:49:43Z</time>
      </trkpt>
      <trkpt lat="44.09981" lon="3.02065">
        <ele>586.6</ele>
        <time>2018-05-19T11:49:44Z</time>
      </trkpt>
      <trkpt lat="44.09972" lon="3.02059">
        <ele>586.1</ele>
        <time>2018-05-19T11:49:45Z</time>
      </trkpt>
      <trkpt lat="44.09963" lon="3.02052">
        <ele>585.7</ele>
        <time>2018-05-19T11:49:46Z</time>
      </trkpt>
      <trkpt lat="44.09955" lon="3.02043">
        <ele>585.3</ele>
        <time>2018-05-19T11:49:47Z</time>
      </trkpt>
      <trkpt lat="44.09948" lon="3.02031">
        <ele>583.7</ele>
        <time>2018-05-19T11:49:48Z</time>
      </trkpt>
      <trkpt lat="44.09942" lon="3.02018">
        <ele>582.9</ele>
        <time>2018-05-19T11:49:49Z</time>
      </trkpt>
      <trkpt lat="44.09937" lon="3.02006">
        <ele>582.3</ele>
        <time>2018-05-19T11:49:50Z</time>
      </trkpt>
      <trkpt lat="44.09932" lon="3.01994">
        <ele>581.8</ele>
        <time>2018-05-19T11:49:51Z</time>
      </trkpt>
      <trkpt lat="44.09926" lon="3.01983">
        <ele>581.3</ele>
        <time>2018-05-19T11:49:52Z</time>
      </trkpt>
      <trkpt lat="44.09919" lon="3.01972">
        <ele>580.4</ele>
        <time>2018-05-19T11:49:53Z</time>
      </trkpt>
      <trkpt lat="44.09912" lon="3.0196">
        <ele>579.3</ele>
        <time>2018-05-19T11:49:54Z</time>
      </trkpt>
      <trkpt lat="44.09906" lon="3.01949">
        <ele>578.8</ele>
        <time>2018-05-19T11:49:55Z</time>
      </trkpt>
      <trkpt lat="44.099" lon="3.01939">
        <ele>578.4</ele>
        <time>2018-05-19T11:49:56Z</time>
      </trkpt>
      <trkpt lat="44.09894" lon="3.01928">
        <ele>578.2</ele>
        <time>2018-05-19T11:49:57Z</time>
      </trkpt>
      <trkpt lat="44.09889" lon="3.01918">
        <ele>578</ele>
        <time>2018-05-19T11:49:58Z</time>
      </trkpt>
      <trkpt lat="44.09884" lon="3.0191">
        <ele>577.9</ele>
        <time>2018-05-19T11:49:59Z</time>
      </trkpt>
      <trkpt lat="44.09878" lon="3.019">
        <ele>577.7</ele>
        <time>2018-05-19T11:50:00Z</time>
      </trkpt>
      <trkpt lat="44.09873" lon="3.01893">
        <ele>577.4</ele>
        <time>2018-05-19T11:50:01Z</time>
      </trkpt>
      <trkpt lat="44.09867" lon="3.01891">
        <ele>577.2</ele>
        <time>2018-05-19T11:50:02Z</time>
      </trkpt>
      <trkpt lat="44.09863" lon="3.01892">
        <ele>577</ele>
        <time>2018-05-19T11:50:03Z</time>
      </trkpt>
      <trkpt lat="44.0986" lon="3.01894">
        <ele>577</ele>
        <time>2018-05-19T11:50:04Z</time>
      </trkpt>
      <trkpt lat="44.09856" lon="3.01899">
        <ele>577</ele>
        <time>2018-05-19T11:50:06Z</time>
      </trkpt>
      <trkpt lat="44.09854" lon="3.01901">
        <ele>576.9</ele>
        <time>2018-05-19T11:50:07Z</time>
      </trkpt>
      <trkpt lat="44.09852" lon="3.01903">
        <ele>576.8</ele>
        <time>2018-05-19T11:50:08Z</time>
      </trkpt>
      <trkpt lat="44.09849" lon="3.01906">
        <ele>576.7</ele>
        <time>2018-05-19T11:50:09Z</time>
      </trkpt>
      <trkpt lat="44.09846" lon="3.01908">
        <ele>576.7</ele>
        <time>2018-05-19T11:50:10Z</time>
      </trkpt>
      <trkpt lat="44.09841" lon="3.01906">
        <ele>576.8</ele>
        <time>2018-05-19T11:50:12Z</time>
      </trkpt>
      <trkpt lat="44.09838" lon="3.01906">
        <ele>576.8</ele>
        <time>2018-05-19T11:50:13Z</time>
      </trkpt>
      <trkpt lat="44.09835" lon="3.01904">
        <ele>576.9</ele>
        <time>2018-05-19T11:50:14Z</time>
      </trkpt>
      <trkpt lat="44.09831" lon="3.01903">
        <ele>577</ele>
        <time>2018-05-19T11:50:15Z</time>
      </trkpt>
      <trkpt lat="44.09828" lon="3.01902">
        <ele>577.1</ele>
        <time>2018-05-19T11:50:16Z</time>
      </trkpt>
      <trkpt lat="44.09824" lon="3.01901">
        <ele>577.2</ele>
        <time>2018-05-19T11:50:17Z</time>
      </trkpt>
      <trkpt lat="44.0982" lon="3.019">
        <ele>577.4</ele>
        <time>2018-05-19T11:50:18Z</time>
      </trkpt>
      <trkpt lat="44.09817" lon="3.01899">
        <ele>577.5</ele>
        <time>2018-05-19T11:50:19Z</time>
      </trkpt>
      <trkpt lat="44.09813" lon="3.01899">
        <ele>577.5</ele>
        <time>2018-05-19T11:50:20Z</time>
      </trkpt>
      <trkpt lat="44.09809" lon="3.01899">
        <ele>577.5</ele>
        <time>2018-05-19T11:50:21Z</time>
      </trkpt>
      <trkpt lat="44.09805" lon="3.01899">
        <ele>577.5</ele>
        <time>2018-05-19T11:50:22Z</time>
      </trkpt>
      <trkpt lat="44.098" lon="3.019">
        <ele>577.5</ele>
        <time>2018-05-19T11:50:23Z</time>
      </trkpt>
      <trkpt lat="44.09795" lon="3.01904">
        <ele>577.4</ele>
        <time>2018-05-19T11:50:24Z</time>
      </trkpt>
      <trkpt lat="44.0979" lon="3.01906">
        <ele>577.2</ele>
        <time>2018-05-19T11:50:25Z</time>
      </trkpt>
      <trkpt lat="44.09785" lon="3.01908">
        <ele>576.9</ele>
        <time>2018-05-19T11:50:26Z</time>
      </trkpt>
      <trkpt lat="44.0978" lon="3.0191">
        <ele>576.6</ele>
        <time>2018-05-19T11:50:27Z</time>
      </trkpt>
      <trkpt lat="44.09774" lon="3.01913">
        <ele>576.1</ele>
        <time>2018-05-19T11:50:28Z</time>
      </trkpt>
      <trkpt lat="44.09769" lon="3.01915">
        <ele>575.9</ele>
        <time>2018-05-19T11:50:29Z</time>
      </trkpt>
      <trkpt lat="44.09764" lon="3.01919">
        <ele>575.6</ele>
        <time>2018-05-19T11:50:30Z</time>
      </trkpt>
      <trkpt lat="44.09758" lon="3.01921">
        <ele>575.2</ele>
        <time>2018-05-19T11:50:31Z</time>
      </trkpt>
      <trkpt lat="44.09752" lon="3.01924">
        <ele>574.8</ele>
        <time>2018-05-19T11:50:32Z</time>
      </trkpt>
      <trkpt lat="44.09745" lon="3.01927">
        <ele>574.5</ele>
        <time>2018-05-19T11:50:33Z</time>
      </trkpt>
      <trkpt lat="44.0974" lon="3.0193">
        <ele>574.4</ele>
        <time>2018-05-19T11:50:34Z</time>
      </trkpt>
      <trkpt lat="44.09734" lon="3.01933">
        <ele>574.3</ele>
        <time>2018-05-19T11:50:35Z</time>
      </trkpt>
      <trkpt lat="44.09728" lon="3.01937">
        <ele>574.2</ele>
        <time>2018-05-19T11:50:36Z</time>
      </trkpt>
      <trkpt lat="44.09723" lon="3.0194">
        <ele>574.2</ele>
        <time>2018-05-19T11:50:37Z</time>
      </trkpt>
      <trkpt lat="44.09717" lon="3.01944">
        <ele>574.3</ele>
        <time>2018-05-19T11:50:38Z</time>
      </trkpt>
      <trkpt lat="44.09711" lon="3.01947">
        <ele>574.4</ele>
        <time>2018-05-19T11:50:39Z</time>
      </trkpt>
      <trkpt lat="44.09706" lon="3.01949">
        <ele>574.5</ele>
        <time>2018-05-19T11:50:40Z</time>
      </trkpt>
      <trkpt lat="44.097" lon="3.01953">
        <ele>574.7</ele>
        <time>2018-05-19T11:50:41Z</time>
      </trkpt>
      <trkpt lat="44.09695" lon="3.01955">
        <ele>574.8</ele>
        <time>2018-05-19T11:50:42Z</time>
      </trkpt>
      <trkpt lat="44.0969" lon="3.01958">
        <ele>574.9</ele>
        <time>2018-05-19T11:50:43Z</time>
      </trkpt>
      <trkpt lat="44.09686" lon="3.01959">
        <ele>575</ele>
        <time>2018-05-19T11:50:44Z</time>
      </trkpt>
      <trkpt lat="44.09681" lon="3.01962">
        <ele>575.1</ele>
        <time>2018-05-19T11:50:45Z</time>
      </trkpt>
      <trkpt lat="44.09675" lon="3.01964">
        <ele>575.3</ele>
        <time>2018-05-19T11:50:46Z</time>
      </trkpt>
      <trkpt lat="44.0967" lon="3.01966">
        <ele>575.5</ele>
        <time>2018-05-19T11:50:47Z</time>
      </trkpt>
      <trkpt lat="44.09665" lon="3.01969">
        <ele>575.7</ele>
        <time>2018-05-19T11:50:48Z</time>
      </trkpt>
      <trkpt lat="44.0966" lon="3.01971">
        <ele>576</ele>
        <time>2018-05-19T11:50:49Z</time>
      </trkpt>
      <trkpt lat="44.09655" lon="3.01974">
        <ele>576.3</ele>
        <time>2018-05-19T11:50:50Z</time>
      </trkpt>
      <trkpt lat="44.0965" lon="3.01976">
        <ele>576.5</ele>
        <time>2018-05-19T11:50:51Z</time>
      </trkpt>
      <trkpt lat="44.09646" lon="3.01978">
        <ele>577</ele>
        <time>2018-05-19T11:50:52Z</time>
      </trkpt>
      <trkpt lat="44.09642" lon="3.01979">
        <ele>577.4</ele>
        <time>2018-05-19T11:50:53Z</time>
      </trkpt>
      <trkpt lat="44.09637" lon="3.01979">
        <ele>578</ele>
        <time>2018-05-19T11:50:54Z</time>
      </trkpt>
      <trkpt lat="44.09634" lon="3.01978">
        <ele>578.5</ele>
        <time>2018-05-19T11:50:55Z</time>
      </trkpt>
      <trkpt lat="44.09629" lon="3.01976">
        <ele>578.9</ele>
        <time>2018-05-19T11:50:56Z</time>
      </trkpt>
      <trkpt lat="44.09626" lon="3.01974">
        <ele>579</ele>
        <time>2018-05-19T11:50:57Z</time>
      </trkpt>
      <trkpt lat="44.09624" lon="3.0197">
        <ele>579</ele>
        <time>2018-05-19T11:50:58Z</time>
      </trkpt>
      <trkpt lat="44.09624" lon="3.01964">
        <ele>578.7</ele>
        <time>2018-05-19T11:50:59Z</time>
      </trkpt>
      <trkpt lat="44.09623" lon="3.01959">
        <ele>578.4</ele>
        <time>2018-05-19T11:51:00Z</time>
      </trkpt>
      <trkpt lat="44.09623" lon="3.01953">
        <ele>578</ele>
        <time>2018-05-19T11:51:01Z</time>
      </trkpt>
      <trkpt lat="44.09624" lon="3.01947">
        <ele>577.6</ele>
        <time>2018-05-19T11:51:02Z</time>
      </trkpt>
      <trkpt lat="44.09625" lon="3.01941">
        <ele>577.3</ele>
        <time>2018-05-19T11:51:03Z</time>
      </trkpt>
      <trkpt lat="44.09625" lon="3.01935">
        <ele>577</ele>
        <time>2018-05-19T11:51:04Z</time>
      </trkpt>
      <trkpt lat="44.09626" lon="3.01928">
        <ele>576.9</ele>
        <time>2018-05-19T11:51:05Z</time>
      </trkpt>
      <trkpt lat="44.09627" lon="3.01921">
        <ele>576.4</ele>
        <time>2018-05-19T11:51:06Z</time>
      </trkpt>
      <trkpt lat="44.09627" lon="3.01914">
        <ele>576</ele>
        <time>2018-05-19T11:51:07Z</time>
      </trkpt>
      <trkpt lat="44.09627" lon="3.01908">
        <ele>575.7</ele>
        <time>2018-05-19T11:51:08Z</time>
      </trkpt>
      <trkpt lat="44.09628" lon="3.01901">
        <ele>575.4</ele>
        <time>2018-05-19T11:51:09Z</time>
      </trkpt>
      <trkpt lat="44.09629" lon="3.01895">
        <ele>575.1</ele>
        <time>2018-05-19T11:51:10Z</time>
      </trkpt>
      <trkpt lat="44.09628" lon="3.01888">
        <ele>574.7</ele>
        <time>2018-05-19T11:51:11Z</time>
      </trkpt>
      <trkpt lat="44.09629" lon="3.01879">
        <ele>574</ele>
        <time>2018-05-19T11:51:12Z</time>
      </trkpt>
      <trkpt lat="44.09628" lon="3.01871">
        <ele>573.3</ele>
        <time>2018-05-19T11:51:13Z</time>
      </trkpt>
      <trkpt lat="44.09627" lon="3.01864">
        <ele>573</ele>
        <time>2018-05-19T11:51:14Z</time>
      </trkpt>
      <trkpt lat="44.09627" lon="3.01855">
        <ele>572.7</ele>
        <time>2018-05-19T11:51:15Z</time>
      </trkpt>
      <trkpt lat="44.09626" lon="3.01847">
        <ele>572.2</ele>
        <time>2018-05-19T11:51:16Z</time>
      </trkpt>
      <trkpt lat="44.09626" lon="3.01839">
        <ele>572</ele>
        <time>2018-05-19T11:51:17Z</time>
      </trkpt>
      <trkpt lat="44.09624" lon="3.01831">
        <ele>571.9</ele>
        <time>2018-05-19T11:51:18Z</time>
      </trkpt>
      <trkpt lat="44.09622" lon="3.01824">
        <ele>571.8</ele>
        <time>2018-05-19T11:51:19Z</time>
      </trkpt>
      <trkpt lat="44.0962" lon="3.0182">
        <ele>571.8</ele>
        <time>2018-05-19T11:51:20Z</time>
      </trkpt>
      <trkpt lat="44.09618" lon="3.01815">
        <ele>572</ele>
        <time>2018-05-19T11:51:21Z</time>
      </trkpt>
      <trkpt lat="44.09615" lon="3.01812">
        <ele>572.3</ele>
        <time>2018-05-19T11:51:22Z</time>
      </trkpt>
      <trkpt lat="44.09611" lon="3.01808">
        <ele>572.8</ele>
        <time>2018-05-19T11:51:24Z</time>
      </trkpt>
      <trkpt lat="44.09607" lon="3.01805">
        <ele>573.3</ele>
        <time>2018-05-19T11:51:26Z</time>
      </trkpt>
      <trkpt lat="44.09602" lon="3.01802">
        <ele>573.7</ele>
        <time>2018-05-19T11:51:28Z</time>
      </trkpt>
      <trkpt lat="44.09599" lon="3.01799">
        <ele>574.1</ele>
        <time>2018-05-19T11:51:30Z</time>
      </trkpt>
      <trkpt lat="44.09595" lon="3.01796">
        <ele>574.5</ele>
        <time>2018-05-19T11:51:32Z</time>
      </trkpt>
      <trkpt lat="44.09592" lon="3.01793">
        <ele>575</ele>
        <time>2018-05-19T11:51:34Z</time>
      </trkpt>
      <trkpt lat="44.09588" lon="3.0179">
        <ele>575.7</ele>
        <time>2018-05-19T11:51:36Z</time>
      </trkpt>
      <trkpt lat="44.09585" lon="3.01787">
        <ele>576.1</ele>
        <time>2018-05-19T11:51:38Z</time>
      </trkpt>
      <trkpt lat="44.09581" lon="3.01785">
        <ele>576.2</ele>
        <time>2018-05-19T11:51:40Z</time>
      </trkpt>
      <trkpt lat="44.09578" lon="3.01783">
        <ele>576.3</ele>
        <time>2018-05-19T11:51:42Z</time>
      </trkpt>
      <trkpt lat="44.09575" lon="3.01781">
        <ele>576.5</ele>
        <time>2018-05-19T11:51:44Z</time>
      </trkpt>
      <trkpt lat="44.09572" lon="3.01778">
        <ele>576.6</ele>
        <time>2018-05-19T11:51:46Z</time>
      </trkpt>
      <trkpt lat="44.09569" lon="3.01775">
        <ele>576.5</ele>
        <time>2018-05-19T11:51:48Z</time>
      </trkpt>
      <trkpt lat="44.09565" lon="3.01772">
        <ele>576.5</ele>
        <time>2018-05-19T11:51:50Z</time>
      </trkpt>
      <trkpt lat="44.09562" lon="3.0177">
        <ele>576.8</ele>
        <time>2018-05-19T11:51:52Z</time>
      </trkpt>
      <trkpt lat="44.09559" lon="3.01766">
        <ele>577</ele>
        <time>2018-05-19T11:51:54Z</time>
      </trkpt>
      <trkpt lat="44.09556" lon="3.01762">
        <ele>577</ele>
        <time>2018-05-19T11:51:56Z</time>
      </trkpt>
      <trkpt lat="44.09552" lon="3.01758">
        <ele>577.1</ele>
        <time>2018-05-19T11:51:58Z</time>
      </trkpt>
      <trkpt lat="44.09548" lon="3.01754">
        <ele>577.2</ele>
        <time>2018-05-19T11:52:00Z</time>
      </trkpt>
      <trkpt lat="44.09546" lon="3.01751">
        <ele>577.2</ele>
        <time>2018-05-19T11:52:01Z</time>
      </trkpt>
      <trkpt lat="44.09544" lon="3.01748">
        <ele>577.2</ele>
        <time>2018-05-19T11:52:02Z</time>
      </trkpt>
      <trkpt lat="44.09542" lon="3.01745">
        <ele>577.2</ele>
        <time>2018-05-19T11:52:03Z</time>
      </trkpt>
      <trkpt lat="44.0954" lon="3.01742">
        <ele>577.2</ele>
        <time>2018-05-19T11:52:04Z</time>
      </trkpt>
      <trkpt lat="44.09538" lon="3.0174">
        <ele>577.1</ele>
        <time>2018-05-19T11:52:05Z</time>
      </trkpt>
      <trkpt lat="44.09536" lon="3.01737">
        <ele>577</ele>
        <time>2018-05-19T11:52:06Z</time>
      </trkpt>
      <trkpt lat="44.09534" lon="3.01735">
        <ele>576.9</ele>
        <time>2018-05-19T11:52:07Z</time>
      </trkpt>
      <trkpt lat="44.09532" lon="3.01732">
        <ele>576.9</ele>
        <time>2018-05-19T11:52:08Z</time>
      </trkpt>
      <trkpt lat="44.0953" lon="3.01729">
        <ele>576.8</ele>
        <time>2018-05-19T11:52:09Z</time>
      </trkpt>
      <trkpt lat="44.09528" lon="3.01726">
        <ele>576.8</ele>
        <time>2018-05-19T11:52:10Z</time>
      </trkpt>
      <trkpt lat="44.09526" lon="3.01722">
        <ele>576.7</ele>
        <time>2018-05-19T11:52:11Z</time>
      </trkpt>
      <trkpt lat="44.09524" lon="3.01719">
        <ele>576.7</ele>
        <time>2018-05-19T11:52:12Z</time>
      </trkpt>
      <trkpt lat="44.09522" lon="3.01717">
        <ele>576.7</ele>
        <time>2018-05-19T11:52:13Z</time>
      </trkpt>
      <trkpt lat="44.0952" lon="3.01713">
        <ele>576.7</ele>
        <time>2018-05-19T11:52:14Z</time>
      </trkpt>
      <trkpt lat="44.09518" lon="3.0171">
        <ele>576.5</ele>
        <time>2018-05-19T11:52:15Z</time>
      </trkpt>
      <trkpt lat="44.09515" lon="3.01707">
        <ele>576.3</ele>
        <time>2018-05-19T11:52:16Z</time>
      </trkpt>
      <trkpt lat="44.09513" lon="3.01703">
        <ele>576.3</ele>
        <time>2018-05-19T11:52:17Z</time>
      </trkpt>
      <trkpt lat="44.09511" lon="3.017">
        <ele>576.2</ele>
        <time>2018-05-19T11:52:18Z</time>
      </trkpt>
      <trkpt lat="44.09509" lon="3.01697">
        <ele>576.1</ele>
        <time>2018-05-19T11:52:19Z</time>
      </trkpt>
      <trkpt lat="44.09507" lon="3.01693">
        <ele>575.9</ele>
        <time>2018-05-19T11:52:20Z</time>
      </trkpt>
      <trkpt lat="44.09505" lon="3.01689">
        <ele>575.7</ele>
        <time>2018-05-19T11:52:21Z</time>
      </trkpt>
      <trkpt lat="44.09503" lon="3.01685">
        <ele>575.8</ele>
        <time>2018-05-19T11:52:22Z</time>
      </trkpt>
      <trkpt lat="44.09501" lon="3.01681">
        <ele>575.9</ele>
        <time>2018-05-19T11:52:23Z</time>
      </trkpt>
      <trkpt lat="44.09499" lon="3.01676">
        <ele>575.8</ele>
        <time>2018-05-19T11:52:24Z</time>
      </trkpt>
      <trkpt lat="44.09497" lon="3.01672">
        <ele>575.7</ele>
        <time>2018-05-19T11:52:25Z</time>
      </trkpt>
      <trkpt lat="44.09494" lon="3.01667">
        <ele>575.4</ele>
        <time>2018-05-19T11:52:26Z</time>
      </trkpt>
      <trkpt lat="44.09492" lon="3.01662">
        <ele>575.1</ele>
        <time>2018-05-19T11:52:27Z</time>
      </trkpt>
      <trkpt lat="44.0949" lon="3.01657">
        <ele>574.9</ele>
        <time>2018-05-19T11:52:28Z</time>
      </trkpt>
      <trkpt lat="44.09488" lon="3.01652">
        <ele>574.8</ele>
        <time>2018-05-19T11:52:29Z</time>
      </trkpt>
      <trkpt lat="44.09486" lon="3.01646">
        <ele>574.9</ele>
        <time>2018-05-19T11:52:30Z</time>
      </trkpt>
      <trkpt lat="44.09483" lon="3.0164">
        <ele>575</ele>
        <time>2018-05-19T11:52:31Z</time>
      </trkpt>
      <trkpt lat="44.09482" lon="3.01635">
        <ele>574.7</ele>
        <time>2018-05-19T11:52:32Z</time>
      </trkpt>
      <trkpt lat="44.0948" lon="3.01629">
        <ele>574.4</ele>
        <time>2018-05-19T11:52:33Z</time>
      </trkpt>
      <trkpt lat="44.09478" lon="3.01623">
        <ele>574.4</ele>
        <time>2018-05-19T11:52:34Z</time>
      </trkpt>
      <trkpt lat="44.09476" lon="3.01618">
        <ele>574.4</ele>
        <time>2018-05-19T11:52:35Z</time>
      </trkpt>
      <trkpt lat="44.09473" lon="3.01611">
        <ele>574.9</ele>
        <time>2018-05-19T11:52:36Z</time>
      </trkpt>
      <trkpt lat="44.09472" lon="3.01605">
        <ele>575</ele>
        <time>2018-05-19T11:52:37Z</time>
      </trkpt>
      <trkpt lat="44.0947" lon="3.01596">
        <ele>574.9</ele>
        <time>2018-05-19T11:52:38Z</time>
      </trkpt>
      <trkpt lat="44.09469" lon="3.01587">
        <ele>574.4</ele>
        <time>2018-05-19T11:52:39Z</time>
      </trkpt>
      <trkpt lat="44.09467" lon="3.0158">
        <ele>573.9</ele>
        <time>2018-05-19T11:52:40Z</time>
      </trkpt>
      <trkpt lat="44.09464" lon="3.0157">
        <ele>573.5</ele>
        <time>2018-05-19T11:52:41Z</time>
      </trkpt>
      <trkpt lat="44.09463" lon="3.01561">
        <ele>572.9</ele>
        <time>2018-05-19T11:52:42Z</time>
      </trkpt>
      <trkpt lat="44.09462" lon="3.01551">
        <ele>572.1</ele>
        <time>2018-05-19T11:52:43Z</time>
      </trkpt>
      <trkpt lat="44.09462" lon="3.0154">
        <ele>571.8</ele>
        <time>2018-05-19T11:52:44Z</time>
      </trkpt>
      <trkpt lat="44.09464" lon="3.0153">
        <ele>571.1</ele>
        <time>2018-05-19T11:52:45Z</time>
      </trkpt>
      <trkpt lat="44.09466" lon="3.01519">
        <ele>570.7</ele>
        <time>2018-05-19T11:52:46Z</time>
      </trkpt>
      <trkpt lat="44.09468" lon="3.01508">
        <ele>570.3</ele>
        <time>2018-05-19T11:52:47Z</time>
      </trkpt>
      <trkpt lat="44.0947" lon="3.01497">
        <ele>569.9</ele>
        <time>2018-05-19T11:52:48Z</time>
      </trkpt>
      <trkpt lat="44.09473" lon="3.01486">
        <ele>569.8</ele>
        <time>2018-05-19T11:52:49Z</time>
      </trkpt>
      <trkpt lat="44.09474" lon="3.01476">
        <ele>569.7</ele>
        <time>2018-05-19T11:52:50Z</time>
      </trkpt>
      <trkpt lat="44.09473" lon="3.01467">
        <ele>569.7</ele>
        <time>2018-05-19T11:52:51Z</time>
      </trkpt>
      <trkpt lat="44.0947" lon="3.01458">
        <ele>570</ele>
        <time>2018-05-19T11:52:52Z</time>
      </trkpt>
      <trkpt lat="44.09466" lon="3.01452">
        <ele>570.3</ele>
        <time>2018-05-19T11:52:53Z</time>
      </trkpt>
      <trkpt lat="44.09462" lon="3.01445">
        <ele>570.5</ele>
        <time>2018-05-19T11:52:54Z</time>
      </trkpt>
      <trkpt lat="44.09458" lon="3.01438">
        <ele>570.8</ele>
        <time>2018-05-19T11:52:55Z</time>
      </trkpt>
      <trkpt lat="44.09453" lon="3.01429">
        <ele>571</ele>
        <time>2018-05-19T11:52:56Z</time>
      </trkpt>
      <trkpt lat="44.09448" lon="3.01421">
        <ele>571.1</ele>
        <time>2018-05-19T11:52:57Z</time>
      </trkpt>
      <trkpt lat="44.09445" lon="3.01414">
        <ele>571.1</ele>
        <time>2018-05-19T11:52:58Z</time>
      </trkpt>
      <trkpt lat="44.0944" lon="3.01407">
        <ele>571.1</ele>
        <time>2018-05-19T11:52:59Z</time>
      </trkpt>
      <trkpt lat="44.09436" lon="3.01401">
        <ele>570.9</ele>
        <time>2018-05-19T11:53:00Z</time>
      </trkpt>
      <trkpt lat="44.0943" lon="3.01393">
        <ele>570.7</ele>
        <time>2018-05-19T11:53:01Z</time>
      </trkpt>
      <trkpt lat="44.09425" lon="3.01386">
        <ele>570.5</ele>
        <time>2018-05-19T11:53:02Z</time>
      </trkpt>
      <trkpt lat="44.09419" lon="3.01378">
        <ele>570.3</ele>
        <time>2018-05-19T11:53:03Z</time>
      </trkpt>
      <trkpt lat="44.09415" lon="3.01372">
        <ele>570.1</ele>
        <time>2018-05-19T11:53:04Z</time>
      </trkpt>
      <trkpt lat="44.0941" lon="3.01366">
        <ele>569.9</ele>
        <time>2018-05-19T11:53:05Z</time>
      </trkpt>
      <trkpt lat="44.09404" lon="3.01359">
        <ele>569.6</ele>
        <time>2018-05-19T11:53:06Z</time>
      </trkpt>
      <trkpt lat="44.09399" lon="3.01353">
        <ele>569.2</ele>
        <time>2018-05-19T11:53:07Z</time>
      </trkpt>
      <trkpt lat="44.09393" lon="3.01347">
        <ele>568.6</ele>
        <time>2018-05-19T11:53:08Z</time>
      </trkpt>
      <trkpt lat="44.09387" lon="3.01342">
        <ele>568</ele>
        <time>2018-05-19T11:53:09Z</time>
      </trkpt>
      <trkpt lat="44.0938" lon="3.01334">
        <ele>567</ele>
        <time>2018-05-19T11:53:10Z</time>
      </trkpt>
      <trkpt lat="44.09373" lon="3.01326">
        <ele>566.4</ele>
        <time>2018-05-19T11:53:11Z</time>
      </trkpt>
      <trkpt lat="44.09366" lon="3.0132">
        <ele>565.8</ele>
        <time>2018-05-19T11:53:12Z</time>
      </trkpt>
      <trkpt lat="44.09359" lon="3.01315">
        <ele>565.1</ele>
        <time>2018-05-19T11:53:13Z</time>
      </trkpt>
      <trkpt lat="44.09352" lon="3.01308">
        <ele>564.2</ele>
        <time>2018-05-19T11:53:14Z</time>
      </trkpt>
      <trkpt lat="44.09345" lon="3.01302">
        <ele>563.2</ele>
        <time>2018-05-19T11:53:15Z</time>
      </trkpt>
      <trkpt lat="44.09339" lon="3.01296">
        <ele>562.4</ele>
        <time>2018-05-19T11:53:16Z</time>
      </trkpt>
      <trkpt lat="44.09337" lon="3.01293">
        <ele>562.1</ele>
        <time>2018-05-19T11:53:17Z</time>
      </trkpt>
      <trkpt lat="44.09335" lon="3.0129">
        <ele>561.9</ele>
        <time>2018-05-19T11:53:35Z</time>
      </trkpt>
      <trkpt lat="44.09334" lon="3.01295">
        <ele>561.6</ele>
        <time>2018-05-19T11:53:45Z</time>
      </trkpt>
      <trkpt lat="44.09331" lon="3.01299">
        <ele>561.3</ele>
        <time>2018-05-19T11:53:47Z</time>
      </trkpt>
      <trkpt lat="44.09327" lon="3.01302">
        <ele>560.7</ele>
        <time>2018-05-19T11:53:49Z</time>
      </trkpt>
      <trkpt lat="44.09323" lon="3.01304">
        <ele>559.9</ele>
        <time>2018-05-19T11:53:50Z</time>
      </trkpt>
      <trkpt lat="44.09318" lon="3.01307">
        <ele>558.7</ele>
        <time>2018-05-19T11:53:51Z</time>
      </trkpt>
      <trkpt lat="44.09313" lon="3.01309">
        <ele>558</ele>
        <time>2018-05-19T11:53:52Z</time>
      </trkpt>
      <trkpt lat="44.09309" lon="3.01311">
        <ele>557.5</ele>
        <time>2018-05-19T11:53:53Z</time>
      </trkpt>
      <trkpt lat="44.09305" lon="3.0131">
        <ele>556.8</ele>
        <time>2018-05-19T11:53:54Z</time>
      </trkpt>
      <trkpt lat="44.09302" lon="3.0131">
        <ele>556.2</ele>
        <time>2018-05-19T11:53:55Z</time>
      </trkpt>
      <trkpt lat="44.09298" lon="3.01313">
        <ele>555.1</ele>
        <time>2018-05-19T11:53:56Z</time>
      </trkpt>
      <trkpt lat="44.09293" lon="3.01317">
        <ele>554.3</ele>
        <time>2018-05-19T11:53:57Z</time>
      </trkpt>
      <trkpt lat="44.0929" lon="3.01321">
        <ele>554</ele>
        <time>2018-05-19T11:53:58Z</time>
      </trkpt>
      <trkpt lat="44.09285" lon="3.01327">
        <ele>553.3</ele>
        <time>2018-05-19T11:53:59Z</time>
      </trkpt>
      <trkpt lat="44.09281" lon="3.01331">
        <ele>553</ele>
        <time>2018-05-19T11:54:00Z</time>
      </trkpt>
      <trkpt lat="44.09279" lon="3.01336">
        <ele>552.7</ele>
        <time>2018-05-19T11:54:01Z</time>
      </trkpt>
      <trkpt lat="44.09277" lon="3.01342">
        <ele>552.5</ele>
        <time>2018-05-19T11:54:02Z</time>
      </trkpt>
      <trkpt lat="44.09274" lon="3.01347">
        <ele>552.3</ele>
        <time>2018-05-19T11:54:03Z</time>
      </trkpt>
      <trkpt lat="44.0927" lon="3.0135">
        <ele>552.1</ele>
        <time>2018-05-19T11:54:04Z</time>
      </trkpt>
      <trkpt lat="44.09266" lon="3.01353">
        <ele>552</ele>
        <time>2018-05-19T11:54:05Z</time>
      </trkpt>
      <trkpt lat="44.09262" lon="3.01361">
        <ele>551.8</ele>
        <time>2018-05-19T11:54:06Z</time>
      </trkpt>
      <trkpt lat="44.09261" lon="3.01367">
        <ele>551.7</ele>
        <time>2018-05-19T11:54:07Z</time>
      </trkpt>
      <trkpt lat="44.09258" lon="3.01372">
        <ele>551.5</ele>
        <time>2018-05-19T11:54:08Z</time>
      </trkpt>
      <trkpt lat="44.09253" lon="3.01377">
        <ele>551.3</ele>
        <time>2018-05-19T11:54:09Z</time>
      </trkpt>
      <trkpt lat="44.09247" lon="3.01384">
        <ele>551</ele>
        <time>2018-05-19T11:54:10Z</time>
      </trkpt>
      <trkpt lat="44.0924" lon="3.01388">
        <ele>550.5</ele>
        <time>2018-05-19T11:54:11Z</time>
      </trkpt>
      <trkpt lat="44.09234" lon="3.01391">
        <ele>549.6</ele>
        <time>2018-05-19T11:54:12Z</time>
      </trkpt>
      <trkpt lat="44.09226" lon="3.01392">
        <ele>548.7</ele>
        <time>2018-05-19T11:54:13Z</time>
      </trkpt>
      <trkpt lat="44.09217" lon="3.01393">
        <ele>548.3</ele>
        <time>2018-05-19T11:54:14Z</time>
      </trkpt>
      <trkpt lat="44.09208" lon="3.01395">
        <ele>547.7</ele>
        <time>2018-05-19T11:54:15Z</time>
      </trkpt>
      <trkpt lat="44.092" lon="3.01397">
        <ele>547.4</ele>
        <time>2018-05-19T11:54:16Z</time>
      </trkpt>
      <trkpt lat="44.09191" lon="3.014">
        <ele>547.1</ele>
        <time>2018-05-19T11:54:17Z</time>
      </trkpt>
      <trkpt lat="44.09183" lon="3.01403">
        <ele>546.6</ele>
        <time>2018-05-19T11:54:18Z</time>
      </trkpt>
      <trkpt lat="44.09177" lon="3.01405">
        <ele>546.3</ele>
        <time>2018-05-19T11:54:19Z</time>
      </trkpt>
      <trkpt lat="44.09173" lon="3.01407">
        <ele>545.1</ele>
        <time>2018-05-19T11:54:20Z</time>
      </trkpt>
      <trkpt lat="44.0917" lon="3.01407">
        <ele>543.9</ele>
        <time>2018-05-19T11:54:21Z</time>
      </trkpt>
      <trkpt lat="44.09167" lon="3.0141">
        <ele>543.2</ele>
        <time>2018-05-19T11:54:22Z</time>
      </trkpt>
      <trkpt lat="44.09163" lon="3.01412">
        <ele>542.6</ele>
        <time>2018-05-19T11:54:23Z</time>
      </trkpt>
      <trkpt lat="44.0916" lon="3.01413">
        <ele>542.1</ele>
        <time>2018-05-19T11:54:24Z</time>
      </trkpt>
      <trkpt lat="44.09157" lon="3.01414">
        <ele>541.8</ele>
        <time>2018-05-19T11:54:25Z</time>
      </trkpt>
      <trkpt lat="44.09153" lon="3.01417">
        <ele>541.3</ele>
        <time>2018-05-19T11:54:29Z</time>
      </trkpt>
      <trkpt lat="44.09151" lon="3.01419">
        <ele>540.6</ele>
        <time>2018-05-19T11:54:31Z</time>
      </trkpt>
      <trkpt lat="44.09147" lon="3.01421">
        <ele>539.3</ele>
        <time>2018-05-19T11:54:33Z</time>
      </trkpt>
      <trkpt lat="44.09144" lon="3.01421">
        <ele>538.6</ele>
        <time>2018-05-19T11:54:35Z</time>
      </trkpt>
      <trkpt lat="44.09139" lon="3.01419">
        <ele>538.1</ele>
        <time>2018-05-19T11:54:37Z</time>
      </trkpt>
      <trkpt lat="44.09135" lon="3.01419">
        <ele>537.5</ele>
        <time>2018-05-19T11:54:39Z</time>
      </trkpt>
      <trkpt lat="44.09132" lon="3.0142">
        <ele>537.1</ele>
        <time>2018-05-19T11:54:40Z</time>
      </trkpt>
      <trkpt lat="44.09127" lon="3.01422">
        <ele>536.8</ele>
        <time>2018-05-19T11:54:41Z</time>
      </trkpt>
      <trkpt lat="44.09121" lon="3.01427">
        <ele>536</ele>
        <time>2018-05-19T11:54:42Z</time>
      </trkpt>
      <trkpt lat="44.09117" lon="3.01431">
        <ele>535</ele>
        <time>2018-05-19T11:54:43Z</time>
      </trkpt>
      <trkpt lat="44.09112" lon="3.01435">
        <ele>534.4</ele>
        <time>2018-05-19T11:54:44Z</time>
      </trkpt>
      <trkpt lat="44.09108" lon="3.01437">
        <ele>534</ele>
        <time>2018-05-19T11:54:45Z</time>
      </trkpt>
      <trkpt lat="44.09105" lon="3.01438">
        <ele>533.7</ele>
        <time>2018-05-19T11:54:46Z</time>
      </trkpt>
      <trkpt lat="44.09102" lon="3.01439">
        <ele>533.5</ele>
        <time>2018-05-19T11:54:47Z</time>
      </trkpt>
      <trkpt lat="44.09101" lon="3.01443">
        <ele>533.3</ele>
        <time>2018-05-19T11:54:48Z</time>
      </trkpt>
      <trkpt lat="44.09098" lon="3.01448">
        <ele>532.8</ele>
        <time>2018-05-19T11:54:50Z</time>
      </trkpt>
      <trkpt lat="44.09096" lon="3.01451">
        <ele>532.3</ele>
        <time>2018-05-19T11:54:51Z</time>
      </trkpt>
      <trkpt lat="44.09091" lon="3.01454">
        <ele>530.9</ele>
        <time>2018-05-19T11:54:53Z</time>
      </trkpt>
      <trkpt lat="44.09088" lon="3.01456">
        <ele>530.4</ele>
        <time>2018-05-19T11:54:54Z</time>
      </trkpt>
      <trkpt lat="44.09085" lon="3.01458">
        <ele>529.8</ele>
        <time>2018-05-19T11:54:55Z</time>
      </trkpt>
      <trkpt lat="44.0908" lon="3.01462">
        <ele>529.4</ele>
        <time>2018-05-19T11:54:56Z</time>
      </trkpt>
      <trkpt lat="44.09075" lon="3.01464">
        <ele>529</ele>
        <time>2018-05-19T11:54:57Z</time>
      </trkpt>
      <trkpt lat="44.09067" lon="3.01462">
        <ele>528.6</ele>
        <time>2018-05-19T11:54:58Z</time>
      </trkpt>
      <trkpt lat="44.0906" lon="3.01462">
        <ele>527.6</ele>
        <time>2018-05-19T11:54:59Z</time>
      </trkpt>
      <trkpt lat="44.09053" lon="3.01463">
        <ele>526.5</ele>
        <time>2018-05-19T11:55:00Z</time>
      </trkpt>
      <trkpt lat="44.09044" lon="3.01464">
        <ele>525.9</ele>
        <time>2018-05-19T11:55:01Z</time>
      </trkpt>
      <trkpt lat="44.09039" lon="3.01467">
        <ele>525.6</ele>
        <time>2018-05-19T11:55:02Z</time>
      </trkpt>
      <trkpt lat="44.09034" lon="3.01471">
        <ele>525.1</ele>
        <time>2018-05-19T11:55:03Z</time>
      </trkpt>
      <trkpt lat="44.0903" lon="3.01476">
        <ele>524.2</ele>
        <time>2018-05-19T11:55:04Z</time>
      </trkpt>
      <trkpt lat="44.09026" lon="3.01481">
        <ele>523.8</ele>
        <time>2018-05-19T11:55:05Z</time>
      </trkpt>
      <trkpt lat="44.09022" lon="3.01487">
        <ele>523.2</ele>
        <time>2018-05-19T11:55:06Z</time>
      </trkpt>
      <trkpt lat="44.09017" lon="3.01495">
        <ele>522.7</ele>
        <time>2018-05-19T11:55:07Z</time>
      </trkpt>
      <trkpt lat="44.09013" lon="3.01502">
        <ele>522.3</ele>
        <time>2018-05-19T11:55:08Z</time>
      </trkpt>
      <trkpt lat="44.09009" lon="3.01507">
        <ele>521.3</ele>
        <time>2018-05-19T11:55:09Z</time>
      </trkpt>
      <trkpt lat="44.09006" lon="3.01511">
        <ele>520.8</ele>
        <time>2018-05-19T11:55:11Z</time>
      </trkpt>
      <trkpt lat="44.09003" lon="3.01514">
        <ele>520.5</ele>
        <time>2018-05-19T11:55:12Z</time>
      </trkpt>
      <trkpt lat="44.09001" lon="3.01517">
        <ele>520.3</ele>
        <time>2018-05-19T11:55:15Z</time>
      </trkpt>
      <trkpt lat="44.08999" lon="3.01519">
        <ele>520.2</ele>
        <time>2018-05-19T11:55:24Z</time>
      </trkpt>
      <trkpt lat="44.09" lon="3.01524">
        <ele>520</ele>
        <time>2018-05-19T11:56:06Z</time>
      </trkpt>
      <trkpt lat="44.08997" lon="3.01528">
        <ele>519.7</ele>
        <time>2018-05-19T11:56:10Z</time>
      </trkpt>
      <trkpt lat="44.08994" lon="3.01532">
        <ele>519.6</ele>
        <time>2018-05-19T11:56:12Z</time>
      </trkpt>
      <trkpt lat="44.08993" lon="3.01537">
        <ele>519.4</ele>
        <time>2018-05-19T11:56:13Z</time>
      </trkpt>
      <trkpt lat="44.08991" lon="3.01543">
        <ele>518.6</ele>
        <time>2018-05-19T11:56:14Z</time>
      </trkpt>
      <trkpt lat="44.08988" lon="3.0156">
        <ele>517.2</ele>
        <time>2018-05-19T11:56:15Z</time>
      </trkpt>
      <trkpt lat="44.08986" lon="3.0157">
        <ele>516.7</ele>
        <time>2018-05-19T11:56:16Z</time>
      </trkpt>
      <trkpt lat="44.08984" lon="3.0158">
        <ele>516.3</ele>
        <time>2018-05-19T11:56:17Z</time>
      </trkpt>
      <trkpt lat="44.08981" lon="3.01591">
        <ele>515.2</ele>
        <time>2018-05-19T11:56:18Z</time>
      </trkpt>
      <trkpt lat="44.08979" lon="3.01601">
        <ele>514.8</ele>
        <time>2018-05-19T11:56:19Z</time>
      </trkpt>
      <trkpt lat="44.08979" lon="3.01612">
        <ele>514.4</ele>
        <time>2018-05-19T11:56:20Z</time>
      </trkpt>
      <trkpt lat="44.08977" lon="3.01623">
        <ele>514.2</ele>
        <time>2018-05-19T11:56:21Z</time>
      </trkpt>
      <trkpt lat="44.08979" lon="3.0163">
        <ele>514.2</ele>
        <time>2018-05-19T11:56:22Z</time>
      </trkpt>
      <trkpt lat="44.0898" lon="3.01637">
        <ele>514.1</ele>
        <time>2018-05-19T11:56:23Z</time>
      </trkpt>
      <trkpt lat="44.0898" lon="3.01643">
        <ele>514.1</ele>
        <time>2018-05-19T11:56:24Z</time>
      </trkpt>
      <trkpt lat="44.08985" lon="3.0165">
        <ele>514</ele>
        <time>2018-05-19T11:56:26Z</time>
      </trkpt>
      <trkpt lat="44.08986" lon="3.01655">
        <ele>514</ele>
        <time>2018-05-19T11:56:27Z</time>
      </trkpt>
      <trkpt lat="44.08988" lon="3.0166">
        <ele>513.9</ele>
        <time>2018-05-19T11:56:28Z</time>
      </trkpt>
      <trkpt lat="44.08989" lon="3.01665">
        <ele>513.9</ele>
        <time>2018-05-19T11:56:29Z</time>
      </trkpt>
      <trkpt lat="44.0899" lon="3.01669">
        <ele>513.8</ele>
        <time>2018-05-19T11:56:30Z</time>
      </trkpt>
      <trkpt lat="44.08993" lon="3.01676">
        <ele>513.8</ele>
        <time>2018-05-19T11:56:32Z</time>
      </trkpt>
      <trkpt lat="44.08995" lon="3.01678">
        <ele>513.7</ele>
        <time>2018-05-19T11:56:33Z</time>
      </trkpt>
      <trkpt lat="44.08998" lon="3.01682">
        <ele>513.7</ele>
        <time>2018-05-19T11:56:35Z</time>
      </trkpt>
      <trkpt lat="44.09002" lon="3.01684">
        <ele>513.7</ele>
        <time>2018-05-19T11:56:37Z</time>
      </trkpt>
      <trkpt lat="44.09005" lon="3.01685">
        <ele>513.7</ele>
        <time>2018-05-19T11:56:39Z</time>
      </trkpt>
      <trkpt lat="44.09008" lon="3.01685">
        <ele>513.6</ele>
        <time>2018-05-19T11:56:42Z</time>
      </trkpt>
      <trkpt lat="44.09005" lon="3.01685">
        <ele>513.6</ele>
        <time>2018-05-19T11:57:27Z</time>
      </trkpt>
      <trkpt lat="44.09008" lon="3.01688">
        <ele>513.6</ele>
        <time>2018-05-19T11:57:33Z</time>
      </trkpt>
      <trkpt lat="44.09011" lon="3.01688">
        <ele>513.6</ele>
        <time>2018-05-19T11:57:38Z</time>
      </trkpt>
      <trkpt lat="44.09014" lon="3.0169">
        <ele>513.6</ele>
        <time>2018-05-19T11:57:42Z</time>
      </trkpt>
      <trkpt lat="44.09018" lon="3.01691">
        <ele>513.6</ele>
        <time>2018-05-19T11:57:45Z</time>
      </trkpt>
      <trkpt lat="44.0902" lon="3.01694">
        <ele>513.5</ele>
        <time>2018-05-19T11:57:51Z</time>
      </trkpt>
      <trkpt lat="44.09022" lon="3.01695">
        <ele>513.5</ele>
        <time>2018-05-19T11:57:54Z</time>
      </trkpt>
      <trkpt lat="44.09026" lon="3.01697">
        <ele>513.5</ele>
        <time>2018-05-19T11:57:58Z</time>
      </trkpt>
      <trkpt lat="44.09029" lon="3.01699">
        <ele>513.5</ele>
        <time>2018-05-19T11:58:02Z</time>
      </trkpt>
      <trkpt lat="44.09032" lon="3.017">
        <ele>513.5</ele>
        <time>2018-05-19T11:58:05Z</time>
      </trkpt>
      <trkpt lat="44.09035" lon="3.01703">
        <ele>513.5</ele>
        <time>2018-05-19T11:58:09Z</time>
      </trkpt>
      <trkpt lat="44.09038" lon="3.01703">
        <ele>513.5</ele>
        <time>2018-05-19T11:58:13Z</time>
      </trkpt>
      <trkpt lat="44.09043" lon="3.01704">
        <ele>513.4</ele>
        <time>2018-05-19T11:58:16Z</time>
      </trkpt>
      <trkpt lat="44.09046" lon="3.01705">
        <ele>513.4</ele>
        <time>2018-05-19T11:58:18Z</time>
      </trkpt>
      <trkpt lat="44.0905" lon="3.01706">
        <ele>513.4</ele>
        <time>2018-05-19T11:58:20Z</time>
      </trkpt>
      <trkpt lat="44.09054" lon="3.01707">
        <ele>513.4</ele>
        <time>2018-05-19T11:58:22Z</time>
      </trkpt>
      <trkpt lat="44.09058" lon="3.01709">
        <ele>513.4</ele>
        <time>2018-05-19T11:58:24Z</time>
      </trkpt>
      <trkpt lat="44.09061" lon="3.01711">
        <ele>513.3</ele>
        <time>2018-05-19T11:58:26Z</time>
      </trkpt>
      <trkpt lat="44.09066" lon="3.01714">
        <ele>513.3</ele>
        <time>2018-05-19T11:58:28Z</time>
      </trkpt>
      <trkpt lat="44.0907" lon="3.01716">
        <ele>513.3</ele>
        <time>2018-05-19T11:58:30Z</time>
      </trkpt>
      <trkpt lat="44.09073" lon="3.01718">
        <ele>513.3</ele>
        <time>2018-05-19T11:58:32Z</time>
      </trkpt>
      <trkpt lat="44.09077" lon="3.01721">
        <ele>513.2</ele>
        <time>2018-05-19T11:58:34Z</time>
      </trkpt>
      <trkpt lat="44.0908" lon="3.01724">
        <ele>513.2</ele>
        <time>2018-05-19T11:58:36Z</time>
      </trkpt>
      <trkpt lat="44.09083" lon="3.01727">
        <ele>513.2</ele>
        <time>2018-05-19T11:58:38Z</time>
      </trkpt>
      <trkpt lat="44.09085" lon="3.01729">
        <ele>513.2</ele>
        <time>2018-05-19T11:58:40Z</time>
      </trkpt>
      <trkpt lat="44.09088" lon="3.01731">
        <ele>513.2</ele>
        <time>2018-05-19T11:58:43Z</time>
      </trkpt>
      <trkpt lat="44.0909" lon="3.01733">
        <ele>513.2</ele>
        <time>2018-05-19T11:58:45Z</time>
      </trkpt>
      <trkpt lat="44.09092" lon="3.01736">
        <ele>513.1</ele>
        <time>2018-05-19T11:58:47Z</time>
      </trkpt>
      <trkpt lat="44.09095" lon="3.01739">
        <ele>513.1</ele>
        <time>2018-05-19T11:58:49Z</time>
      </trkpt>
      <trkpt lat="44.09098" lon="3.01742">
        <ele>513.1</ele>
        <time>2018-05-19T11:58:51Z</time>
      </trkpt>
      <trkpt lat="44.09101" lon="3.01745">
        <ele>513.1</ele>
        <time>2018-05-19T11:58:53Z</time>
      </trkpt>
      <trkpt lat="44.09103" lon="3.01747">
        <ele>513.1</ele>
        <time>2018-05-19T11:58:55Z</time>
      </trkpt>
      <trkpt lat="44.09106" lon="3.0175">
        <ele>513.1</ele>
        <time>2018-05-19T11:58:57Z</time>
      </trkpt>
      <trkpt lat="44.09108" lon="3.01752">
        <ele>513.1</ele>
        <time>2018-05-19T11:58:59Z</time>
      </trkpt>
      <trkpt lat="44.0911" lon="3.01755">
        <ele>513</ele>
        <time>2018-05-19T11:59:01Z</time>
      </trkpt>
      <trkpt lat="44.09112" lon="3.01758">
        <ele>513</ele>
        <time>2018-05-19T11:59:03Z</time>
      </trkpt>
      <trkpt lat="44.09114" lon="3.01761">
        <ele>513</ele>
        <time>2018-05-19T11:59:05Z</time>
      </trkpt>
      <trkpt lat="44.09116" lon="3.01764">
        <ele>513</ele>
        <time>2018-05-19T11:59:07Z</time>
      </trkpt>
      <trkpt lat="44.09118" lon="3.01768">
        <ele>512.9</ele>
        <time>2018-05-19T11:59:09Z</time>
      </trkpt>
      <trkpt lat="44.09121" lon="3.01771">
        <ele>512.9</ele>
        <time>2018-05-19T11:59:12Z</time>
      </trkpt>
      <trkpt lat="44.09123" lon="3.01773">
        <ele>512.9</ele>
        <time>2018-05-19T11:59:14Z</time>
      </trkpt>
      <trkpt lat="44.09126" lon="3.01776">
        <ele>512.9</ele>
        <time>2018-05-19T11:59:17Z</time>
      </trkpt>
      <trkpt lat="44.09129" lon="3.01778">
        <ele>512.9</ele>
        <time>2018-05-19T11:59:19Z</time>
      </trkpt>
      <trkpt lat="44.09132" lon="3.0178">
        <ele>512.8</ele>
        <time>2018-05-19T11:59:21Z</time>
      </trkpt>
      <trkpt lat="44.09135" lon="3.01783">
        <ele>512.8</ele>
        <time>2018-05-19T11:59:23Z</time>
      </trkpt>
      <trkpt lat="44.09138" lon="3.01786">
        <ele>512.8</ele>
        <time>2018-05-19T11:59:25Z</time>
      </trkpt>
      <trkpt lat="44.0914" lon="3.01789">
        <ele>512.7</ele>
        <time>2018-05-19T11:59:28Z</time>
      </trkpt>
      <trkpt lat="44.09142" lon="3.01792">
        <ele>512.7</ele>
        <time>2018-05-19T11:59:30Z</time>
      </trkpt>
      <trkpt lat="44.09144" lon="3.01795">
        <ele>512.7</ele>
        <time>2018-05-19T11:59:32Z</time>
      </trkpt>
      <trkpt lat="44.09148" lon="3.01798">
        <ele>512.6</ele>
        <time>2018-05-19T11:59:35Z</time>
      </trkpt>
      <trkpt lat="44.09151" lon="3.018">
        <ele>512.6</ele>
        <time>2018-05-19T11:59:38Z</time>
      </trkpt>
      <trkpt lat="44.09154" lon="3.01802">
        <ele>512.6</ele>
        <time>2018-05-19T11:59:42Z</time>
      </trkpt>
      <trkpt lat="44.09156" lon="3.01805">
        <ele>512.5</ele>
        <time>2018-05-19T11:59:45Z</time>
      </trkpt>
      <trkpt lat="44.09158" lon="3.01809">
        <ele>512.5</ele>
        <time>2018-05-19T11:59:47Z</time>
      </trkpt>
      <trkpt lat="44.0916" lon="3.01813">
        <ele>512.4</ele>
        <time>2018-05-19T11:59:49Z</time>
      </trkpt>
      <trkpt lat="44.09162" lon="3.01816">
        <ele>512.4</ele>
        <time>2018-05-19T11:59:51Z</time>
      </trkpt>
      <trkpt lat="44.09164" lon="3.0182">
        <ele>512.4</ele>
        <time>2018-05-19T11:59:54Z</time>
      </trkpt>
      <trkpt lat="44.09162" lon="3.01824">
        <ele>512.3</ele>
        <time>2018-05-19T12:04:12Z</time>
      </trkpt>
      <trkpt lat="44.09159" lon="3.01826">
        <ele>512.3</ele>
        <time>2018-05-19T12:04:14Z</time>
      </trkpt>
      <trkpt lat="44.09155" lon="3.0183">
        <ele>512.2</ele>
        <time>2018-05-19T12:04:16Z</time>
      </trkpt>
      <trkpt lat="44.09152" lon="3.01833">
        <ele>512.1</ele>
        <time>2018-05-19T12:04:18Z</time>
      </trkpt>
      <trkpt lat="44.09149" lon="3.01836">
        <ele>512</ele>
        <time>2018-05-19T12:04:20Z</time>
      </trkpt>
      <trkpt lat="44.09145" lon="3.01839">
        <ele>511.9</ele>
        <time>2018-05-19T12:04:22Z</time>
      </trkpt>
      <trkpt lat="44.09142" lon="3.01843">
        <ele>511.9</ele>
        <time>2018-05-19T12:04:24Z</time>
      </trkpt>
      <trkpt lat="44.0914" lon="3.01847">
        <ele>511.8</ele>
        <time>2018-05-19T12:04:26Z</time>
      </trkpt>
      <trkpt lat="44.09138" lon="3.01851">
        <ele>511.7</ele>
        <time>2018-05-19T12:04:28Z</time>
      </trkpt>
      <trkpt lat="44.09136" lon="3.01854">
        <ele>511.6</ele>
        <time>2018-05-19T12:04:30Z</time>
      </trkpt>
      <trkpt lat="44.09134" lon="3.01859">
        <ele>511.4</ele>
        <time>2018-05-19T12:04:32Z</time>
      </trkpt>
      <trkpt lat="44.09132" lon="3.01863">
        <ele>511.3</ele>
        <time>2018-05-19T12:04:35Z</time>
      </trkpt>
      <trkpt lat="44.0913" lon="3.01867">
        <ele>511.1</ele>
        <time>2018-05-19T12:04:37Z</time>
      </trkpt>
      <trkpt lat="44.09129" lon="3.01871">
        <ele>511</ele>
        <time>2018-05-19T12:04:39Z</time>
      </trkpt>
      <trkpt lat="44.09127" lon="3.01874">
        <ele>510.8</ele>
        <time>2018-05-19T12:04:41Z</time>
      </trkpt>
      <trkpt lat="44.09126" lon="3.01878">
        <ele>510.6</ele>
        <time>2018-05-19T12:04:43Z</time>
      </trkpt>
      <trkpt lat="44.09124" lon="3.01882">
        <ele>510.5</ele>
        <time>2018-05-19T12:04:45Z</time>
      </trkpt>
      <trkpt lat="44.09121" lon="3.01886">
        <ele>510.2</ele>
        <time>2018-05-19T12:04:47Z</time>
      </trkpt>
      <trkpt lat="44.09119" lon="3.0189">
        <ele>510</ele>
        <time>2018-05-19T12:04:49Z</time>
      </trkpt>
      <trkpt lat="44.09117" lon="3.01892">
        <ele>509.9</ele>
        <time>2018-05-19T12:04:51Z</time>
      </trkpt>
      <trkpt lat="44.09114" lon="3.01894">
        <ele>509.8</ele>
        <time>2018-05-19T12:04:53Z</time>
      </trkpt>
      <trkpt lat="44.09111" lon="3.01896">
        <ele>509.6</ele>
        <time>2018-05-19T12:04:55Z</time>
      </trkpt>
      <trkpt lat="44.09109" lon="3.01899">
        <ele>509.5</ele>
        <time>2018-05-19T12:04:57Z</time>
      </trkpt>
      <trkpt lat="44.09107" lon="3.01902">
        <ele>509.4</ele>
        <time>2018-05-19T12:04:59Z</time>
      </trkpt>
      <trkpt lat="44.09103" lon="3.01905">
        <ele>509.2</ele>
        <time>2018-05-19T12:05:01Z</time>
      </trkpt>
      <trkpt lat="44.09097" lon="3.01906">
        <ele>509</ele>
        <time>2018-05-19T12:05:03Z</time>
      </trkpt>
      <trkpt lat="44.09091" lon="3.01907">
        <ele>509.3</ele>
        <time>2018-05-19T12:05:04Z</time>
      </trkpt>
      <trkpt lat="44.09085" lon="3.01908">
        <ele>509.5</ele>
        <time>2018-05-19T12:05:05Z</time>
      </trkpt>
      <trkpt lat="44.09079" lon="3.01908">
        <ele>509.7</ele>
        <time>2018-05-19T12:05:06Z</time>
      </trkpt>
      <trkpt lat="44.09072" lon="3.01907">
        <ele>510.1</ele>
        <time>2018-05-19T12:05:07Z</time>
      </trkpt>
      <trkpt lat="44.09065" lon="3.01906">
        <ele>510.2</ele>
        <time>2018-05-19T12:05:08Z</time>
      </trkpt>
      <trkpt lat="44.09059" lon="3.01908">
        <ele>510.2</ele>
        <time>2018-05-19T12:05:09Z</time>
      </trkpt>
      <trkpt lat="44.09055" lon="3.01908">
        <ele>510.2</ele>
        <time>2018-05-19T12:05:10Z</time>
      </trkpt>
      <trkpt lat="44.09048" lon="3.01909">
        <ele>510.2</ele>
        <time>2018-05-19T12:05:11Z</time>
      </trkpt>
      <trkpt lat="44.09043" lon="3.0191">
        <ele>510.2</ele>
        <time>2018-05-19T12:05:12Z</time>
      </trkpt>
      <trkpt lat="44.09036" lon="3.01909">
        <ele>510.3</ele>
        <time>2018-05-19T12:05:13Z</time>
      </trkpt>
      <trkpt lat="44.0903" lon="3.01908">
        <ele>510.3</ele>
        <time>2018-05-19T12:05:14Z</time>
      </trkpt>
      <trkpt lat="44.09024" lon="3.01908">
        <ele>510.4</ele>
        <time>2018-05-19T12:05:15Z</time>
      </trkpt>
      <trkpt lat="44.09016" lon="3.0191">
        <ele>510.6</ele>
        <time>2018-05-19T12:05:16Z</time>
      </trkpt>
      <trkpt lat="44.0901" lon="3.01913">
        <ele>510.7</ele>
        <time>2018-05-19T12:05:17Z</time>
      </trkpt>
      <trkpt lat="44.09005" lon="3.01916">
        <ele>510.9</ele>
        <time>2018-05-19T12:05:18Z</time>
      </trkpt>
      <trkpt lat="44.08999" lon="3.01918">
        <ele>511</ele>
        <time>2018-05-19T12:05:19Z</time>
      </trkpt>
      <trkpt lat="44.08992" lon="3.01921">
        <ele>511.1</ele>
        <time>2018-05-19T12:05:20Z</time>
      </trkpt>
      <trkpt lat="44.08986" lon="3.01923">
        <ele>511.2</ele>
        <time>2018-05-19T12:05:21Z</time>
      </trkpt>
      <trkpt lat="44.08979" lon="3.01924">
        <ele>511.4</ele>
        <time>2018-05-19T12:05:22Z</time>
      </trkpt>
      <trkpt lat="44.08973" lon="3.01926">
        <ele>511.7</ele>
        <time>2018-05-19T12:05:23Z</time>
      </trkpt>
      <trkpt lat="44.08967" lon="3.01928">
        <ele>512</ele>
        <time>2018-05-19T12:05:24Z</time>
      </trkpt>
      <trkpt lat="44.08961" lon="3.01931">
        <ele>512.4</ele>
        <time>2018-05-19T12:05:25Z</time>
      </trkpt>
      <trkpt lat="44.08954" lon="3.01932">
        <ele>512.8</ele>
        <time>2018-05-19T12:05:26Z</time>
      </trkpt>
      <trkpt lat="44.08949" lon="3.01933">
        <ele>513</ele>
        <time>2018-05-19T12:05:27Z</time>
      </trkpt>
      <trkpt lat="44.08943" lon="3.01934">
        <ele>513.2</ele>
        <time>2018-05-19T12:05:28Z</time>
      </trkpt>
      <trkpt lat="44.08938" lon="3.01934">
        <ele>513.4</ele>
        <time>2018-05-19T12:05:29Z</time>
      </trkpt>
      <trkpt lat="44.08932" lon="3.01936">
        <ele>513.8</ele>
        <time>2018-05-19T12:05:30Z</time>
      </trkpt>
      <trkpt lat="44.08926" lon="3.0194">
        <ele>514</ele>
        <time>2018-05-19T12:05:31Z</time>
      </trkpt>
      <trkpt lat="44.08919" lon="3.01945">
        <ele>514.2</ele>
        <time>2018-05-19T12:05:32Z</time>
      </trkpt>
      <trkpt lat="44.08913" lon="3.01952">
        <ele>514.4</ele>
        <time>2018-05-19T12:05:33Z</time>
      </trkpt>
      <trkpt lat="44.08907" lon="3.01959">
        <ele>514.5</ele>
        <time>2018-05-19T12:05:34Z</time>
      </trkpt>
      <trkpt lat="44.08901" lon="3.01966">
        <ele>514.7</ele>
        <time>2018-05-19T12:05:35Z</time>
      </trkpt>
      <trkpt lat="44.08895" lon="3.01973">
        <ele>514.8</ele>
        <time>2018-05-19T12:05:36Z</time>
      </trkpt>
      <trkpt lat="44.0889" lon="3.01979">
        <ele>514.8</ele>
        <time>2018-05-19T12:05:37Z</time>
      </trkpt>
      <trkpt lat="44.08886" lon="3.01988">
        <ele>515</ele>
        <time>2018-05-19T12:05:38Z</time>
      </trkpt>
      <trkpt lat="44.08882" lon="3.01999">
        <ele>515.2</ele>
        <time>2018-05-19T12:05:39Z</time>
      </trkpt>
      <trkpt lat="44.08878" lon="3.02009">
        <ele>515.3</ele>
        <time>2018-05-19T12:05:40Z</time>
      </trkpt>
      <trkpt lat="44.08875" lon="3.02018">
        <ele>515.4</ele>
        <time>2018-05-19T12:05:41Z</time>
      </trkpt>
      <trkpt lat="44.08874" lon="3.02029">
        <ele>515.4</ele>
        <time>2018-05-19T12:05:42Z</time>
      </trkpt>
      <trkpt lat="44.08874" lon="3.02042">
        <ele>515.6</ele>
        <time>2018-05-19T12:05:43Z</time>
      </trkpt>
      <trkpt lat="44.08873" lon="3.02052">
        <ele>515.8</ele>
        <time>2018-05-19T12:05:44Z</time>
      </trkpt>
      <trkpt lat="44.08873" lon="3.02061">
        <ele>516</ele>
        <time>2018-05-19T12:05:45Z</time>
      </trkpt>
      <trkpt lat="44.08873" lon="3.02069">
        <ele>516.1</ele>
        <time>2018-05-19T12:05:46Z</time>
      </trkpt>
      <trkpt lat="44.08876" lon="3.02075">
        <ele>516.2</ele>
        <time>2018-05-19T12:05:47Z</time>
      </trkpt>
      <trkpt lat="44.08879" lon="3.0208">
        <ele>516.3</ele>
        <time>2018-05-19T12:05:48Z</time>
      </trkpt>
      <trkpt lat="44.08882" lon="3.02082">
        <ele>516.3</ele>
        <time>2018-05-19T12:05:49Z</time>
      </trkpt>
      <trkpt lat="44.08884" lon="3.02084">
        <ele>516.4</ele>
        <time>2018-05-19T12:05:50Z</time>
      </trkpt>
      <trkpt lat="44.08887" lon="3.02087">
        <ele>516.4</ele>
        <time>2018-05-19T12:05:52Z</time>
      </trkpt>
      <trkpt lat="44.0889" lon="3.02091">
        <ele>516.4</ele>
        <time>2018-05-19T12:05:55Z</time>
      </trkpt>
      <trkpt lat="44.08892" lon="3.02093">
        <ele>516.5</ele>
        <time>2018-05-19T12:05:58Z</time>
      </trkpt>
      <trkpt lat="44.08895" lon="3.02094">
        <ele>516.5</ele>
        <time>2018-05-19T12:06:01Z</time>
      </trkpt>
      <trkpt lat="44.08898" lon="3.02097">
        <ele>516.5</ele>
        <time>2018-05-19T12:06:04Z</time>
      </trkpt>
      <trkpt lat="44.08902" lon="3.02099">
        <ele>516.6</ele>
        <time>2018-05-19T12:06:07Z</time>
      </trkpt>
      <trkpt lat="44.08904" lon="3.02102">
        <ele>516.6</ele>
        <time>2018-05-19T12:06:09Z</time>
      </trkpt>
      <trkpt lat="44.08907" lon="3.02105">
        <ele>516.6</ele>
        <time>2018-05-19T12:06:11Z</time>
      </trkpt>
      <trkpt lat="44.08909" lon="3.02108">
        <ele>516.7</ele>
        <time>2018-05-19T12:06:13Z</time>
      </trkpt>
      <trkpt lat="44.08912" lon="3.02111">
        <ele>516.8</ele>
        <time>2018-05-19T12:06:15Z</time>
      </trkpt>
      <trkpt lat="44.08913" lon="3.02115">
        <ele>516.8</ele>
        <time>2018-05-19T12:06:27Z</time>
      </trkpt>
      <trkpt lat="44.08914" lon="3.02119">
        <ele>516.9</ele>
        <time>2018-05-19T12:06:31Z</time>
      </trkpt>
      <trkpt lat="44.08915" lon="3.02123">
        <ele>516.9</ele>
        <time>2018-05-19T12:06:34Z</time>
      </trkpt>
      <trkpt lat="44.08914" lon="3.02127">
        <ele>516</ele>
        <time>2018-05-19T12:06:44Z</time>
      </trkpt>
      <trkpt lat="44.08914" lon="3.02131">
        <ele>515.6</ele>
        <time>2018-05-19T12:06:52Z</time>
      </trkpt>
      <trkpt lat="44.08912" lon="3.02135">
        <ele>514.9</ele>
        <time>2018-05-19T12:09:47Z</time>
      </trkpt>
      <trkpt lat="44.08916" lon="3.02137">
        <ele>514.2</ele>
        <time>2018-05-19T12:09:50Z</time>
      </trkpt>
      <trkpt lat="44.08918" lon="3.02138">
        <ele>513.2</ele>
        <time>2018-05-19T12:09:53Z</time>
      </trkpt>
      <trkpt lat="44.08921" lon="3.0214">
        <ele>512.1</ele>
        <time>2018-05-19T12:09:59Z</time>
      </trkpt>
      <trkpt lat="44.08916" lon="3.02142">
        <ele>510.2</ele>
        <time>2018-05-19T12:12:13Z</time>
      </trkpt>
      <trkpt lat="44.08918" lon="3.02145">
        <ele>509.5</ele>
        <time>2018-05-19T12:12:16Z</time>
      </trkpt>
      <trkpt lat="44.0892" lon="3.02151">
        <ele>508.5</ele>
        <time>2018-05-19T12:12:18Z</time>
      </trkpt>
      <trkpt lat="44.08922" lon="3.02155">
        <ele>507.8</ele>
        <time>2018-05-19T12:12:19Z</time>
      </trkpt>
      <trkpt lat="44.08925" lon="3.02163">
        <ele>506.9</ele>
        <time>2018-05-19T12:12:20Z</time>
      </trkpt>
      <trkpt lat="44.08927" lon="3.0217">
        <ele>505.9</ele>
        <time>2018-05-19T12:12:21Z</time>
      </trkpt>
      <trkpt lat="44.0893" lon="3.02177">
        <ele>504.7</ele>
        <time>2018-05-19T12:12:22Z</time>
      </trkpt>
      <trkpt lat="44.08933" lon="3.02185">
        <ele>504</ele>
        <time>2018-05-19T12:12:23Z</time>
      </trkpt>
      <trkpt lat="44.08936" lon="3.02193">
        <ele>504</ele>
        <time>2018-05-19T12:12:24Z</time>
      </trkpt>
      <trkpt lat="44.08939" lon="3.02202">
        <ele>504</ele>
        <time>2018-05-19T12:12:25Z</time>
      </trkpt>
      <trkpt lat="44.08943" lon="3.02211">
        <ele>504</ele>
        <time>2018-05-19T12:12:26Z</time>
      </trkpt>
      <trkpt lat="44.08946" lon="3.02218">
        <ele>504</ele>
        <time>2018-05-19T12:12:27Z</time>
      </trkpt>
      <trkpt lat="44.08949" lon="3.02223">
        <ele>504</ele>
        <time>2018-05-19T12:12:28Z</time>
      </trkpt>
      <trkpt lat="44.08952" lon="3.02227">
        <ele>504</ele>
        <time>2018-05-19T12:12:29Z</time>
      </trkpt>
      <trkpt lat="44.08955" lon="3.0223">
        <ele>504</ele>
        <time>2018-05-19T12:12:30Z</time>
      </trkpt>
      <trkpt lat="44.08958" lon="3.02234">
        <ele>504</ele>
        <time>2018-05-19T12:12:32Z</time>
      </trkpt>
      <trkpt lat="44.0896" lon="3.02239">
        <ele>504</ele>
        <time>2018-05-19T12:12:35Z</time>
      </trkpt>
      <trkpt lat="44.0896" lon="3.02245">
        <ele>504</ele>
        <time>2018-05-19T12:12:37Z</time>
      </trkpt>
      <trkpt lat="44.08962" lon="3.0225">
        <ele>503.4</ele>
        <time>2018-05-19T12:12:38Z</time>
      </trkpt>
      <trkpt lat="44.08964" lon="3.02258">
        <ele>503.5</ele>
        <time>2018-05-19T12:12:39Z</time>
      </trkpt>
      <trkpt lat="44.08966" lon="3.02266">
        <ele>504.1</ele>
        <time>2018-05-19T12:12:40Z</time>
      </trkpt>
      <trkpt lat="44.08968" lon="3.02274">
        <ele>503.9</ele>
        <time>2018-05-19T12:12:41Z</time>
      </trkpt>
      <trkpt lat="44.0897" lon="3.02281">
        <ele>505.9</ele>
        <time>2018-05-19T12:12:42Z</time>
      </trkpt>
      <trkpt lat="44.08973" lon="3.02288">
        <ele>507.7</ele>
        <time>2018-05-19T12:12:43Z</time>
      </trkpt>
      <trkpt lat="44.08976" lon="3.02292">
        <ele>508.9</ele>
        <time>2018-05-19T12:12:44Z</time>
      </trkpt>
      <trkpt lat="44.08979" lon="3.02295">
        <ele>509.2</ele>
        <time>2018-05-19T12:12:45Z</time>
      </trkpt>
      <trkpt lat="44.08982" lon="3.02299">
        <ele>509.5</ele>
        <time>2018-05-19T12:12:47Z</time>
      </trkpt>
      <trkpt lat="44.08984" lon="3.02304">
        <ele>509.5</ele>
        <time>2018-05-19T12:12:49Z</time>
      </trkpt>
      <trkpt lat="44.08986" lon="3.02309">
        <ele>509.6</ele>
        <time>2018-05-19T12:12:50Z</time>
      </trkpt>
      <trkpt lat="44.08987" lon="3.02314">
        <ele>508.8</ele>
        <time>2018-05-19T12:12:51Z</time>
      </trkpt>
      <trkpt lat="44.08989" lon="3.0232">
        <ele>508</ele>
        <time>2018-05-19T12:12:52Z</time>
      </trkpt>
      <trkpt lat="44.0899" lon="3.02326">
        <ele>506.6</ele>
        <time>2018-05-19T12:12:53Z</time>
      </trkpt>
      <trkpt lat="44.08992" lon="3.0233">
        <ele>505.4</ele>
        <time>2018-05-19T12:12:54Z</time>
      </trkpt>
      <trkpt lat="44.08993" lon="3.02334">
        <ele>505</ele>
        <time>2018-05-19T12:12:55Z</time>
      </trkpt>
      <trkpt lat="44.08995" lon="3.02339">
        <ele>504.9</ele>
        <time>2018-05-19T12:12:56Z</time>
      </trkpt>
      <trkpt lat="44.08996" lon="3.02344">
        <ele>504.7</ele>
        <time>2018-05-19T12:12:57Z</time>
      </trkpt>
      <trkpt lat="44.08997" lon="3.02348">
        <ele>504</ele>
        <time>2018-05-19T12:12:58Z</time>
      </trkpt>
      <trkpt lat="44.08999" lon="3.02351">
        <ele>503.4</ele>
        <time>2018-05-19T12:12:59Z</time>
      </trkpt>
      <trkpt lat="44.09004" lon="3.02354">
        <ele>503</ele>
        <time>2018-05-19T12:13:00Z</time>
      </trkpt>
      <trkpt lat="44.09008" lon="3.02359">
        <ele>502.2</ele>
        <time>2018-05-19T12:13:01Z</time>
      </trkpt>
      <trkpt lat="44.09011" lon="3.02364">
        <ele>500.5</ele>
        <time>2018-05-19T12:13:02Z</time>
      </trkpt>
      <trkpt lat="44.09015" lon="3.02371">
        <ele>499.1</ele>
        <time>2018-05-19T12:13:03Z</time>
      </trkpt>
      <trkpt lat="44.09018" lon="3.02376">
        <ele>497.7</ele>
        <time>2018-05-19T12:13:04Z</time>
      </trkpt>
      <trkpt lat="44.09022" lon="3.02382">
        <ele>496.3</ele>
        <time>2018-05-19T12:13:05Z</time>
      </trkpt>
      <trkpt lat="44.09025" lon="3.02385">
        <ele>496.3</ele>
        <time>2018-05-19T12:13:06Z</time>
      </trkpt>
      <trkpt lat="44.09028" lon="3.02388">
        <ele>496.2</ele>
        <time>2018-05-19T12:13:07Z</time>
      </trkpt>
      <trkpt lat="44.09032" lon="3.02391">
        <ele>496.5</ele>
        <time>2018-05-19T12:13:09Z</time>
      </trkpt>
      <trkpt lat="44.09035" lon="3.02391">
        <ele>496.7</ele>
        <time>2018-05-19T12:13:11Z</time>
      </trkpt>
      <trkpt lat="44.09039" lon="3.02393">
        <ele>496.9</ele>
        <time>2018-05-19T12:13:14Z</time>
      </trkpt>
      <trkpt lat="44.09041" lon="3.02396">
        <ele>496.9</ele>
        <time>2018-05-19T12:13:16Z</time>
      </trkpt>
      <trkpt lat="44.09044" lon="3.02398">
        <ele>496.9</ele>
        <time>2018-05-19T12:13:18Z</time>
      </trkpt>
      <trkpt lat="44.09048" lon="3.024">
        <ele>497.5</ele>
        <time>2018-05-19T12:13:20Z</time>
      </trkpt>
      <trkpt lat="44.09051" lon="3.024">
        <ele>498.3</ele>
        <time>2018-05-19T12:13:22Z</time>
      </trkpt>
      <trkpt lat="44.09055" lon="3.02401">
        <ele>499.2</ele>
        <time>2018-05-19T12:13:25Z</time>
      </trkpt>
      <trkpt lat="44.09058" lon="3.02401">
        <ele>499</ele>
        <time>2018-05-19T12:13:27Z</time>
      </trkpt>
      <trkpt lat="44.09061" lon="3.02401">
        <ele>498.7</ele>
        <time>2018-05-19T12:13:29Z</time>
      </trkpt>
      <trkpt lat="44.09065" lon="3.02402">
        <ele>498.5</ele>
        <time>2018-05-19T12:13:32Z</time>
      </trkpt>
      <trkpt lat="44.09068" lon="3.02404">
        <ele>498.3</ele>
        <time>2018-05-19T12:13:34Z</time>
      </trkpt>
      <trkpt lat="44.09072" lon="3.02406">
        <ele>498.1</ele>
        <time>2018-05-19T12:13:37Z</time>
      </trkpt>
      <trkpt lat="44.09075" lon="3.02406">
        <ele>498</ele>
        <time>2018-05-19T12:13:39Z</time>
      </trkpt>
      <trkpt lat="44.09078" lon="3.02406">
        <ele>497.8</ele>
        <time>2018-05-19T12:13:41Z</time>
      </trkpt>
      <trkpt lat="44.09082" lon="3.02407">
        <ele>498.1</ele>
        <time>2018-05-19T12:13:43Z</time>
      </trkpt>
      <trkpt lat="44.09084" lon="3.02407">
        <ele>498.5</ele>
        <time>2018-05-19T12:13:45Z</time>
      </trkpt>
      <trkpt lat="44.09087" lon="3.02407">
        <ele>499</ele>
        <time>2018-05-19T12:13:47Z</time>
      </trkpt>
      <trkpt lat="44.09091" lon="3.02407">
        <ele>499.7</ele>
        <time>2018-05-19T12:13:49Z</time>
      </trkpt>
      <trkpt lat="44.09094" lon="3.02408">
        <ele>500.2</ele>
        <time>2018-05-19T12:13:51Z</time>
      </trkpt>
      <trkpt lat="44.09098" lon="3.02412">
        <ele>500.4</ele>
        <time>2018-05-19T12:13:53Z</time>
      </trkpt>
      <trkpt lat="44.09101" lon="3.02414">
        <ele>500.2</ele>
        <time>2018-05-19T12:13:54Z</time>
      </trkpt>
      <trkpt lat="44.09105" lon="3.02417">
        <ele>499.4</ele>
        <time>2018-05-19T12:13:55Z</time>
      </trkpt>
      <trkpt lat="44.09108" lon="3.0242">
        <ele>498.3</ele>
        <time>2018-05-19T12:13:56Z</time>
      </trkpt>
      <trkpt lat="44.09112" lon="3.02422">
        <ele>497.4</ele>
        <time>2018-05-19T12:13:58Z</time>
      </trkpt>
      <trkpt lat="44.09115" lon="3.02424">
        <ele>497.6</ele>
        <time>2018-05-19T12:14:00Z</time>
      </trkpt>
      <trkpt lat="44.09118" lon="3.02426">
        <ele>497.8</ele>
        <time>2018-05-19T12:14:02Z</time>
      </trkpt>
      <trkpt lat="44.09122" lon="3.0243">
        <ele>497.9</ele>
        <time>2018-05-19T12:14:04Z</time>
      </trkpt>
      <trkpt lat="44.09127" lon="3.02433">
        <ele>497.9</ele>
        <time>2018-05-19T12:14:06Z</time>
      </trkpt>
      <trkpt lat="44.09131" lon="3.02436">
        <ele>498.6</ele>
        <time>2018-05-19T12:14:08Z</time>
      </trkpt>
      <trkpt lat="44.09135" lon="3.0244">
        <ele>499.1</ele>
        <time>2018-05-19T12:14:10Z</time>
      </trkpt>
      <trkpt lat="44.09138" lon="3.02442">
        <ele>498.8</ele>
        <time>2018-05-19T12:14:11Z</time>
      </trkpt>
      <trkpt lat="44.0914" lon="3.02444">
        <ele>498.6</ele>
        <time>2018-05-19T12:14:12Z</time>
      </trkpt>
      <trkpt lat="44.09143" lon="3.02446">
        <ele>498.6</ele>
        <time>2018-05-19T12:14:13Z</time>
      </trkpt>
      <trkpt lat="44.09145" lon="3.02448">
        <ele>499.2</ele>
        <time>2018-05-19T12:14:14Z</time>
      </trkpt>
      <trkpt lat="44.09148" lon="3.02449">
        <ele>499.8</ele>
        <time>2018-05-19T12:14:15Z</time>
      </trkpt>
      <trkpt lat="44.09151" lon="3.0245">
        <ele>500.4</ele>
        <time>2018-05-19T12:14:16Z</time>
      </trkpt>
      <trkpt lat="44.09156" lon="3.0245">
        <ele>501.9</ele>
        <time>2018-05-19T12:14:18Z</time>
      </trkpt>
      <trkpt lat="44.0916" lon="3.02449">
        <ele>503.5</ele>
        <time>2018-05-19T12:14:20Z</time>
      </trkpt>
      <trkpt lat="44.09163" lon="3.0245">
        <ele>505.4</ele>
        <time>2018-05-19T12:14:23Z</time>
      </trkpt>
      <trkpt lat="44.09167" lon="3.02452">
        <ele>506.9</ele>
        <time>2018-05-19T12:14:25Z</time>
      </trkpt>
      <trkpt lat="44.09171" lon="3.02454">
        <ele>508.2</ele>
        <time>2018-05-19T12:14:28Z</time>
      </trkpt>
      <trkpt lat="44.09173" lon="3.02458">
        <ele>508.9</ele>
        <time>2018-05-19T12:14:30Z</time>
      </trkpt>
      <trkpt lat="44.09177" lon="3.02461">
        <ele>509.4</ele>
        <time>2018-05-19T12:14:32Z</time>
      </trkpt>
      <trkpt lat="44.09179" lon="3.02463">
        <ele>508.7</ele>
        <time>2018-05-19T12:14:34Z</time>
      </trkpt>
      <trkpt lat="44.09182" lon="3.02467">
        <ele>507.8</ele>
        <time>2018-05-19T12:14:36Z</time>
      </trkpt>
      <trkpt lat="44.09185" lon="3.02472">
        <ele>508.3</ele>
        <time>2018-05-19T12:14:38Z</time>
      </trkpt>
      <trkpt lat="44.09187" lon="3.02477">
        <ele>508.4</ele>
        <time>2018-05-19T12:14:40Z</time>
      </trkpt>
      <trkpt lat="44.09189" lon="3.02481">
        <ele>507.8</ele>
        <time>2018-05-19T12:14:42Z</time>
      </trkpt>
      <trkpt lat="44.09192" lon="3.02484">
        <ele>507.4</ele>
        <time>2018-05-19T12:14:44Z</time>
      </trkpt>
      <trkpt lat="44.09195" lon="3.02487">
        <ele>507.6</ele>
        <time>2018-05-19T12:14:47Z</time>
      </trkpt>
      <trkpt lat="44.09198" lon="3.0249">
        <ele>507.6</ele>
        <time>2018-05-19T12:14:52Z</time>
      </trkpt>
      <trkpt lat="44.092" lon="3.02492">
        <ele>507.3</ele>
        <time>2018-05-19T12:15:12Z</time>
      </trkpt>
      <trkpt lat="44.09203" lon="3.02495">
        <ele>507</ele>
        <time>2018-05-19T12:15:16Z</time>
      </trkpt>
      <trkpt lat="44.09205" lon="3.02498">
        <ele>507.4</ele>
        <time>2018-05-19T12:15:23Z</time>
      </trkpt>
      <trkpt lat="44.09208" lon="3.025">
        <ele>508</ele>
        <time>2018-05-19T12:15:26Z</time>
      </trkpt>
      <trkpt lat="44.09212" lon="3.02499">
        <ele>508.5</ele>
        <time>2018-05-19T12:15:29Z</time>
      </trkpt>
      <trkpt lat="44.09215" lon="3.025">
        <ele>509.1</ele>
        <time>2018-05-19T12:15:32Z</time>
      </trkpt>
      <trkpt lat="44.09218" lon="3.02502">
        <ele>509.6</ele>
        <time>2018-05-19T12:15:37Z</time>
      </trkpt>
      <trkpt lat="44.09221" lon="3.02504">
        <ele>510</ele>
        <time>2018-05-19T12:15:40Z</time>
      </trkpt>
      <trkpt lat="44.09223" lon="3.02506">
        <ele>510.6</ele>
        <time>2018-05-19T12:15:45Z</time>
      </trkpt>
      <trkpt lat="44.09225" lon="3.02508">
        <ele>511.4</ele>
        <time>2018-05-19T12:15:50Z</time>
      </trkpt>
      <trkpt lat="44.09228" lon="3.0251">
        <ele>512.3</ele>
        <time>2018-05-19T12:15:56Z</time>
      </trkpt>
      <trkpt lat="44.09231" lon="3.02509">
        <ele>513</ele>
        <time>2018-05-19T12:16:01Z</time>
      </trkpt>
      <trkpt lat="44.09235" lon="3.02509">
        <ele>513.9</ele>
        <time>2018-05-19T12:16:05Z</time>
      </trkpt>
      <trkpt lat="44.09238" lon="3.02509">
        <ele>514.8</ele>
        <time>2018-05-19T12:16:10Z</time>
      </trkpt>
      <trkpt lat="44.09241" lon="3.02509">
        <ele>515.6</ele>
        <time>2018-05-19T12:16:14Z</time>
      </trkpt>
      <trkpt lat="44.09244" lon="3.02507">
        <ele>516.4</ele>
        <time>2018-05-19T12:16:17Z</time>
      </trkpt>
      <trkpt lat="44.09247" lon="3.02506">
        <ele>516.9</ele>
        <time>2018-05-19T12:16:19Z</time>
      </trkpt>
      <trkpt lat="44.0925" lon="3.02506">
        <ele>517.5</ele>
        <time>2018-05-19T12:16:23Z</time>
      </trkpt>
      <trkpt lat="44.09252" lon="3.02508">
        <ele>518</ele>
        <time>2018-05-19T12:16:28Z</time>
      </trkpt>
      <trkpt lat="44.09255" lon="3.02509">
        <ele>518.5</ele>
        <time>2018-05-19T12:16:32Z</time>
      </trkpt>
      <trkpt lat="44.09258" lon="3.0251">
        <ele>518.8</ele>
        <time>2018-05-19T12:16:37Z</time>
      </trkpt>
      <trkpt lat="44.09261" lon="3.0251">
        <ele>519.2</ele>
        <time>2018-05-19T12:16:40Z</time>
      </trkpt>
      <trkpt lat="44.09265" lon="3.02511">
        <ele>519.4</ele>
        <time>2018-05-19T12:16:43Z</time>
      </trkpt>
      <trkpt lat="44.09269" lon="3.02511">
        <ele>519.5</ele>
        <time>2018-05-19T12:16:48Z</time>
      </trkpt>
      <trkpt lat="44.09271" lon="3.02513">
        <ele>519.6</ele>
        <time>2018-05-19T12:16:51Z</time>
      </trkpt>
      <trkpt lat="44.09274" lon="3.02515">
        <ele>520.1</ele>
        <time>2018-05-19T12:16:56Z</time>
      </trkpt>
      <trkpt lat="44.09277" lon="3.02516">
        <ele>520.5</ele>
        <time>2018-05-19T12:17:04Z</time>
      </trkpt>
      <trkpt lat="44.0928" lon="3.02518">
        <ele>520.7</ele>
        <time>2018-05-19T12:17:08Z</time>
      </trkpt>
      <trkpt lat="44.09282" lon="3.02521">
        <ele>520.8</ele>
        <time>2018-05-19T12:17:13Z</time>
      </trkpt>
      <trkpt lat="44.09285" lon="3.02523">
        <ele>520.8</ele>
        <time>2018-05-19T12:17:18Z</time>
      </trkpt>
      <trkpt lat="44.09286" lon="3.02527">
        <ele>520.6</ele>
        <time>2018-05-19T12:17:25Z</time>
      </trkpt>
      <trkpt lat="44.09289" lon="3.02529">
        <ele>520.4</ele>
        <time>2018-05-19T12:19:14Z</time>
      </trkpt>
      <trkpt lat="44.09287" lon="3.02527">
        <ele>520.1</ele>
        <time>2018-05-19T12:19:24Z</time>
      </trkpt>
      <trkpt lat="44.09284" lon="3.02526">
        <ele>519.8</ele>
        <time>2018-05-19T12:19:34Z</time>
      </trkpt>
      <trkpt lat="44.09287" lon="3.02521">
        <ele>519.1</ele>
        <time>2018-05-19T12:22:03Z</time>
      </trkpt>
      <trkpt lat="44.09288" lon="3.02517">
        <ele>518.5</ele>
        <time>2018-05-19T12:22:12Z</time>
      </trkpt>
      <trkpt lat="44.09289" lon="3.02522">
        <ele>517.8</ele>
        <time>2018-05-19T12:22:26Z</time>
      </trkpt>
      <trkpt lat="44.0929" lon="3.02526">
        <ele>517.2</ele>
        <time>2018-05-19T12:22:27Z</time>
      </trkpt>
      <trkpt lat="44.09291" lon="3.02532">
        <ele>516.5</ele>
        <time>2018-05-19T12:22:28Z</time>
      </trkpt>
      <trkpt lat="44.09292" lon="3.02543">
        <ele>516.4</ele>
        <time>2018-05-19T12:22:29Z</time>
      </trkpt>
      <trkpt lat="44.09294" lon="3.0255">
        <ele>516.2</ele>
        <time>2018-05-19T12:22:30Z</time>
      </trkpt>
      <trkpt lat="44.09296" lon="3.02559">
        <ele>516</ele>
        <time>2018-05-19T12:22:31Z</time>
      </trkpt>
      <trkpt lat="44.093" lon="3.02564">
        <ele>516</ele>
        <time>2018-05-19T12:22:32Z</time>
      </trkpt>
      <trkpt lat="44.09302" lon="3.02568">
        <ele>516.2</ele>
        <time>2018-05-19T12:22:33Z</time>
      </trkpt>
      <trkpt lat="44.09305" lon="3.02571">
        <ele>516.3</ele>
        <time>2018-05-19T12:22:34Z</time>
      </trkpt>
      <trkpt lat="44.09308" lon="3.02573">
        <ele>516.3</ele>
        <time>2018-05-19T12:22:35Z</time>
      </trkpt>
      <trkpt lat="44.09312" lon="3.02573">
        <ele>516.2</ele>
        <time>2018-05-19T12:22:36Z</time>
      </trkpt>
      <trkpt lat="44.09316" lon="3.02573">
        <ele>516.1</ele>
        <time>2018-05-19T12:22:37Z</time>
      </trkpt>
      <trkpt lat="44.09319" lon="3.02574">
        <ele>516</ele>
        <time>2018-05-19T12:22:38Z</time>
      </trkpt>
      <trkpt lat="44.09324" lon="3.02574">
        <ele>516.2</ele>
        <time>2018-05-19T12:22:39Z</time>
      </trkpt>
      <trkpt lat="44.09331" lon="3.02579">
        <ele>516.3</ele>
        <time>2018-05-19T12:22:40Z</time>
      </trkpt>
      <trkpt lat="44.09338" lon="3.02582">
        <ele>516.4</ele>
        <time>2018-05-19T12:22:41Z</time>
      </trkpt>
      <trkpt lat="44.09342" lon="3.02583">
        <ele>516.5</ele>
        <time>2018-05-19T12:22:42Z</time>
      </trkpt>
      <trkpt lat="44.09349" lon="3.02583">
        <ele>516.8</ele>
        <time>2018-05-19T12:22:43Z</time>
      </trkpt>
      <trkpt lat="44.09353" lon="3.02583">
        <ele>516.5</ele>
        <time>2018-05-19T12:22:44Z</time>
      </trkpt>
      <trkpt lat="44.09356" lon="3.02584">
        <ele>516.4</ele>
        <time>2018-05-19T12:22:45Z</time>
      </trkpt>
      <trkpt lat="44.0936" lon="3.02584">
        <ele>516.2</ele>
        <time>2018-05-19T12:22:46Z</time>
      </trkpt>
      <trkpt lat="44.09364" lon="3.02588">
        <ele>515.9</ele>
        <time>2018-05-19T12:22:48Z</time>
      </trkpt>
      <trkpt lat="44.09366" lon="3.0259">
        <ele>515.8</ele>
        <time>2018-05-19T12:22:50Z</time>
      </trkpt>
      <trkpt lat="44.09364" lon="3.02594">
        <ele>515.6</ele>
        <time>2018-05-19T12:22:51Z</time>
      </trkpt>
      <trkpt lat="44.09363" lon="3.026">
        <ele>515.4</ele>
        <time>2018-05-19T12:22:52Z</time>
      </trkpt>
      <trkpt lat="44.09361" lon="3.02604">
        <ele>515.1</ele>
        <time>2018-05-19T12:22:53Z</time>
      </trkpt>
      <trkpt lat="44.09361" lon="3.02609">
        <ele>514.9</ele>
        <time>2018-05-19T12:22:54Z</time>
      </trkpt>
      <trkpt lat="44.09359" lon="3.02617">
        <ele>514.5</ele>
        <time>2018-05-19T12:22:55Z</time>
      </trkpt>
      <trkpt lat="44.09356" lon="3.02621">
        <ele>514.1</ele>
        <time>2018-05-19T12:22:56Z</time>
      </trkpt>
      <trkpt lat="44.09353" lon="3.02627">
        <ele>513.6</ele>
        <time>2018-05-19T12:22:57Z</time>
      </trkpt>
      <trkpt lat="44.09349" lon="3.02635">
        <ele>513.1</ele>
        <time>2018-05-19T12:22:58Z</time>
      </trkpt>
      <trkpt lat="44.09347" lon="3.02641">
        <ele>512.8</ele>
        <time>2018-05-19T12:22:59Z</time>
      </trkpt>
      <trkpt lat="44.09343" lon="3.02647">
        <ele>512.6</ele>
        <time>2018-05-19T12:23:00Z</time>
      </trkpt>
      <trkpt lat="44.0934" lon="3.02651">
        <ele>512.4</ele>
        <time>2018-05-19T12:23:01Z</time>
      </trkpt>
      <trkpt lat="44.09339" lon="3.02656">
        <ele>512.3</ele>
        <time>2018-05-19T12:23:02Z</time>
      </trkpt>
      <trkpt lat="44.09339" lon="3.02662">
        <ele>512.2</ele>
        <time>2018-05-19T12:23:03Z</time>
      </trkpt>
      <trkpt lat="44.09337" lon="3.02668">
        <ele>512.2</ele>
        <time>2018-05-19T12:23:04Z</time>
      </trkpt>
      <trkpt lat="44.09337" lon="3.02673">
        <ele>512.2</ele>
        <time>2018-05-19T12:23:05Z</time>
      </trkpt>
      <trkpt lat="44.09337" lon="3.0268">
        <ele>512.2</ele>
        <time>2018-05-19T12:23:06Z</time>
      </trkpt>
      <trkpt lat="44.09338" lon="3.02686">
        <ele>512.1</ele>
        <time>2018-05-19T12:23:07Z</time>
      </trkpt>
      <trkpt lat="44.09338" lon="3.02693">
        <ele>511.9</ele>
        <time>2018-05-19T12:23:08Z</time>
      </trkpt>
      <trkpt lat="44.09339" lon="3.02698">
        <ele>511.9</ele>
        <time>2018-05-19T12:23:09Z</time>
      </trkpt>
      <trkpt lat="44.0934" lon="3.02704">
        <ele>511.9</ele>
        <time>2018-05-19T12:23:10Z</time>
      </trkpt>
      <trkpt lat="44.09342" lon="3.02707">
        <ele>511.7</ele>
        <time>2018-05-19T12:23:11Z</time>
      </trkpt>
      <trkpt lat="44.09343" lon="3.02713">
        <ele>511.4</ele>
        <time>2018-05-19T12:23:12Z</time>
      </trkpt>
      <trkpt lat="44.09345" lon="3.02719">
        <ele>511</ele>
        <time>2018-05-19T12:23:13Z</time>
      </trkpt>
      <trkpt lat="44.09346" lon="3.02724">
        <ele>510.6</ele>
        <time>2018-05-19T12:23:14Z</time>
      </trkpt>
      <trkpt lat="44.09347" lon="3.02729">
        <ele>510.2</ele>
        <time>2018-05-19T12:23:15Z</time>
      </trkpt>
      <trkpt lat="44.09349" lon="3.02734">
        <ele>509.8</ele>
        <time>2018-05-19T12:23:16Z</time>
      </trkpt>
      <trkpt lat="44.0935" lon="3.0274">
        <ele>509.2</ele>
        <time>2018-05-19T12:23:17Z</time>
      </trkpt>
      <trkpt lat="44.09352" lon="3.02746">
        <ele>508.6</ele>
        <time>2018-05-19T12:23:18Z</time>
      </trkpt>
      <trkpt lat="44.09353" lon="3.02751">
        <ele>507.9</ele>
        <time>2018-05-19T12:23:19Z</time>
      </trkpt>
      <trkpt lat="44.09354" lon="3.02756">
        <ele>507.2</ele>
        <time>2018-05-19T12:23:20Z</time>
      </trkpt>
      <trkpt lat="44.09355" lon="3.02762">
        <ele>507.7</ele>
        <time>2018-05-19T12:23:21Z</time>
      </trkpt>
      <trkpt lat="44.09356" lon="3.02768">
        <ele>508.5</ele>
        <time>2018-05-19T12:23:22Z</time>
      </trkpt>
      <trkpt lat="44.09357" lon="3.02773">
        <ele>509.2</ele>
        <time>2018-05-19T12:23:23Z</time>
      </trkpt>
      <trkpt lat="44.09358" lon="3.02776">
        <ele>509.7</ele>
        <time>2018-05-19T12:23:24Z</time>
      </trkpt>
      <trkpt lat="44.09361" lon="3.02778">
        <ele>510.2</ele>
        <time>2018-05-19T12:23:25Z</time>
      </trkpt>
      <trkpt lat="44.09364" lon="3.02779">
        <ele>510.6</ele>
        <time>2018-05-19T12:23:26Z</time>
      </trkpt>
      <trkpt lat="44.09367" lon="3.02779">
        <ele>511</ele>
        <time>2018-05-19T12:23:27Z</time>
      </trkpt>
      <trkpt lat="44.0937" lon="3.0278">
        <ele>511.5</ele>
        <time>2018-05-19T12:23:28Z</time>
      </trkpt>
      <trkpt lat="44.09373" lon="3.0278">
        <ele>512</ele>
        <time>2018-05-19T12:23:29Z</time>
      </trkpt>
      <trkpt lat="44.09376" lon="3.02781">
        <ele>512.5</ele>
        <time>2018-05-19T12:23:30Z</time>
      </trkpt>
      <trkpt lat="44.09379" lon="3.02782">
        <ele>512.9</ele>
        <time>2018-05-19T12:23:31Z</time>
      </trkpt>
      <trkpt lat="44.09382" lon="3.02783">
        <ele>513.2</ele>
        <time>2018-05-19T12:23:32Z</time>
      </trkpt>
      <trkpt lat="44.09385" lon="3.02784">
        <ele>513.5</ele>
        <time>2018-05-19T12:23:33Z</time>
      </trkpt>
      <trkpt lat="44.09388" lon="3.02785">
        <ele>513.8</ele>
        <time>2018-05-19T12:23:34Z</time>
      </trkpt>
      <trkpt lat="44.09391" lon="3.02787">
        <ele>514.1</ele>
        <time>2018-05-19T12:23:35Z</time>
      </trkpt>
      <trkpt lat="44.09394" lon="3.02788">
        <ele>514.4</ele>
        <time>2018-05-19T12:23:36Z</time>
      </trkpt>
      <trkpt lat="44.09397" lon="3.0279">
        <ele>514.6</ele>
        <time>2018-05-19T12:23:37Z</time>
      </trkpt>
      <trkpt lat="44.094" lon="3.02791">
        <ele>514.8</ele>
        <time>2018-05-19T12:23:38Z</time>
      </trkpt>
      <trkpt lat="44.09404" lon="3.02793">
        <ele>515</ele>
        <time>2018-05-19T12:23:39Z</time>
      </trkpt>
      <trkpt lat="44.09407" lon="3.02795">
        <ele>515.3</ele>
        <time>2018-05-19T12:23:40Z</time>
      </trkpt>
      <trkpt lat="44.0941" lon="3.02796">
        <ele>515.4</ele>
        <time>2018-05-19T12:23:41Z</time>
      </trkpt>
      <trkpt lat="44.09414" lon="3.02798">
        <ele>515.5</ele>
        <time>2018-05-19T12:23:42Z</time>
      </trkpt>
      <trkpt lat="44.09417" lon="3.028">
        <ele>515.3</ele>
        <time>2018-05-19T12:23:43Z</time>
      </trkpt>
      <trkpt lat="44.0942" lon="3.02802">
        <ele>515.1</ele>
        <time>2018-05-19T12:23:44Z</time>
      </trkpt>
      <trkpt lat="44.09424" lon="3.02805">
        <ele>515</ele>
        <time>2018-05-19T12:23:45Z</time>
      </trkpt>
      <trkpt lat="44.09428" lon="3.02807">
        <ele>515</ele>
        <time>2018-05-19T12:23:46Z</time>
      </trkpt>
      <trkpt lat="44.09431" lon="3.02811">
        <ele>514.8</ele>
        <time>2018-05-19T12:23:47Z</time>
      </trkpt>
      <trkpt lat="44.09435" lon="3.02816">
        <ele>514.4</ele>
        <time>2018-05-19T12:23:48Z</time>
      </trkpt>
      <trkpt lat="44.09439" lon="3.0282">
        <ele>514.3</ele>
        <time>2018-05-19T12:23:49Z</time>
      </trkpt>
      <trkpt lat="44.09442" lon="3.02825">
        <ele>514.1</ele>
        <time>2018-05-19T12:23:50Z</time>
      </trkpt>
      <trkpt lat="44.09445" lon="3.02829">
        <ele>513.7</ele>
        <time>2018-05-19T12:23:51Z</time>
      </trkpt>
      <trkpt lat="44.09447" lon="3.02833">
        <ele>513.3</ele>
        <time>2018-05-19T12:23:52Z</time>
      </trkpt>
      <trkpt lat="44.09449" lon="3.02838">
        <ele>513</ele>
        <time>2018-05-19T12:23:53Z</time>
      </trkpt>
      <trkpt lat="44.09452" lon="3.02842">
        <ele>512.8</ele>
        <time>2018-05-19T12:23:54Z</time>
      </trkpt>
      <trkpt lat="44.09454" lon="3.02846">
        <ele>512.4</ele>
        <time>2018-05-19T12:23:55Z</time>
      </trkpt>
      <trkpt lat="44.09456" lon="3.0285">
        <ele>511.8</ele>
        <time>2018-05-19T12:23:56Z</time>
      </trkpt>
      <trkpt lat="44.09459" lon="3.02854">
        <ele>511.3</ele>
        <time>2018-05-19T12:23:57Z</time>
      </trkpt>
      <trkpt lat="44.09461" lon="3.02859">
        <ele>510.8</ele>
        <time>2018-05-19T12:23:58Z</time>
      </trkpt>
      <trkpt lat="44.09464" lon="3.02864">
        <ele>510.3</ele>
        <time>2018-05-19T12:23:59Z</time>
      </trkpt>
      <trkpt lat="44.09466" lon="3.02868">
        <ele>509.7</ele>
        <time>2018-05-19T12:24:00Z</time>
      </trkpt>
      <trkpt lat="44.09468" lon="3.02873">
        <ele>509.2</ele>
        <time>2018-05-19T12:24:01Z</time>
      </trkpt>
      <trkpt lat="44.09471" lon="3.02877">
        <ele>508.9</ele>
        <time>2018-05-19T12:24:02Z</time>
      </trkpt>
      <trkpt lat="44.09473" lon="3.02881">
        <ele>508.6</ele>
        <time>2018-05-19T12:24:03Z</time>
      </trkpt>
      <trkpt lat="44.09478" lon="3.02889">
        <ele>508.3</ele>
        <time>2018-05-19T12:24:05Z</time>
      </trkpt>
      <trkpt lat="44.09481" lon="3.02893">
        <ele>508</ele>
        <time>2018-05-19T12:24:06Z</time>
      </trkpt>
      <trkpt lat="44.09483" lon="3.02896">
        <ele>507.7</ele>
        <time>2018-05-19T12:24:07Z</time>
      </trkpt>
      <trkpt lat="44.09486" lon="3.029">
        <ele>507.3</ele>
        <time>2018-05-19T12:24:08Z</time>
      </trkpt>
      <trkpt lat="44.09489" lon="3.02903">
        <ele>507</ele>
        <time>2018-05-19T12:24:09Z</time>
      </trkpt>
      <trkpt lat="44.09491" lon="3.02907">
        <ele>507</ele>
        <time>2018-05-19T12:24:10Z</time>
      </trkpt>
      <trkpt lat="44.09494" lon="3.0291">
        <ele>507.1</ele>
        <time>2018-05-19T12:24:11Z</time>
      </trkpt>
      <trkpt lat="44.09497" lon="3.02913">
        <ele>506.9</ele>
        <time>2018-05-19T12:24:12Z</time>
      </trkpt>
      <trkpt lat="44.095" lon="3.02917">
        <ele>506.6</ele>
        <time>2018-05-19T12:24:13Z</time>
      </trkpt>
      <trkpt lat="44.09503" lon="3.02921">
        <ele>506.9</ele>
        <time>2018-05-19T12:24:14Z</time>
      </trkpt>
      <trkpt lat="44.09506" lon="3.02923">
        <ele>507.5</ele>
        <time>2018-05-19T12:24:15Z</time>
      </trkpt>
      <trkpt lat="44.09509" lon="3.02926">
        <ele>508.1</ele>
        <time>2018-05-19T12:24:16Z</time>
      </trkpt>
      <trkpt lat="44.09513" lon="3.02927">
        <ele>508.6</ele>
        <time>2018-05-19T12:24:17Z</time>
      </trkpt>
      <trkpt lat="44.09517" lon="3.02927">
        <ele>509</ele>
        <time>2018-05-19T12:24:18Z</time>
      </trkpt>
      <trkpt lat="44.0952" lon="3.02926">
        <ele>509.9</ele>
        <time>2018-05-19T12:24:19Z</time>
      </trkpt>
      <trkpt lat="44.09524" lon="3.02923">
        <ele>511</ele>
        <time>2018-05-19T12:24:21Z</time>
      </trkpt>
      <trkpt lat="44.0953" lon="3.02916">
        <ele>512.1</ele>
        <time>2018-05-19T12:24:23Z</time>
      </trkpt>
      <trkpt lat="44.09535" lon="3.02913">
        <ele>513</ele>
        <time>2018-05-19T12:24:24Z</time>
      </trkpt>
      <trkpt lat="44.09539" lon="3.02909">
        <ele>514</ele>
        <time>2018-05-19T12:24:25Z</time>
      </trkpt>
      <trkpt lat="44.09545" lon="3.02903">
        <ele>515.3</ele>
        <time>2018-05-19T12:24:26Z</time>
      </trkpt>
      <trkpt lat="44.09552" lon="3.02896">
        <ele>516.3</ele>
        <time>2018-05-19T12:24:27Z</time>
      </trkpt>
      <trkpt lat="44.09557" lon="3.02888">
        <ele>517</ele>
        <time>2018-05-19T12:24:28Z</time>
      </trkpt>
      <trkpt lat="44.09563" lon="3.02882">
        <ele>517.6</ele>
        <time>2018-05-19T12:24:29Z</time>
      </trkpt>
      <trkpt lat="44.09569" lon="3.02875">
        <ele>518.2</ele>
        <time>2018-05-19T12:24:30Z</time>
      </trkpt>
      <trkpt lat="44.09576" lon="3.02869">
        <ele>518.9</ele>
        <time>2018-05-19T12:24:31Z</time>
      </trkpt>
      <trkpt lat="44.09584" lon="3.02864">
        <ele>519.8</ele>
        <time>2018-05-19T12:24:32Z</time>
      </trkpt>
      <trkpt lat="44.0959" lon="3.02858">
        <ele>520.6</ele>
        <time>2018-05-19T12:24:33Z</time>
      </trkpt>
      <trkpt lat="44.09594" lon="3.02853">
        <ele>521.1</ele>
        <time>2018-05-19T12:24:34Z</time>
      </trkpt>
      <trkpt lat="44.09598" lon="3.02849">
        <ele>521.4</ele>
        <time>2018-05-19T12:24:35Z</time>
      </trkpt>
      <trkpt lat="44.096" lon="3.02843">
        <ele>521.7</ele>
        <time>2018-05-19T12:24:37Z</time>
      </trkpt>
      <trkpt lat="44.09603" lon="3.02839">
        <ele>522</ele>
        <time>2018-05-19T12:24:38Z</time>
      </trkpt>
      <trkpt lat="44.09605" lon="3.02833">
        <ele>522.5</ele>
        <time>2018-05-19T12:24:40Z</time>
      </trkpt>
      <trkpt lat="44.09608" lon="3.02828">
        <ele>523</ele>
        <time>2018-05-19T12:24:42Z</time>
      </trkpt>
      <trkpt lat="44.09611" lon="3.02823">
        <ele>523.5</ele>
        <time>2018-05-19T12:24:44Z</time>
      </trkpt>
      <trkpt lat="44.09613" lon="3.02818">
        <ele>523.9</ele>
        <time>2018-05-19T12:24:46Z</time>
      </trkpt>
      <trkpt lat="44.09615" lon="3.02813">
        <ele>524.2</ele>
        <time>2018-05-19T12:24:48Z</time>
      </trkpt>
      <trkpt lat="44.09617" lon="3.02807">
        <ele>524.6</ele>
        <time>2018-05-19T12:24:50Z</time>
      </trkpt>
      <trkpt lat="44.09618" lon="3.02802">
        <ele>525.1</ele>
        <time>2018-05-19T12:24:52Z</time>
      </trkpt>
      <trkpt lat="44.0962" lon="3.02797">
        <ele>525.5</ele>
        <time>2018-05-19T12:24:54Z</time>
      </trkpt>
      <trkpt lat="44.09622" lon="3.02793">
        <ele>525.9</ele>
        <time>2018-05-19T12:24:56Z</time>
      </trkpt>
      <trkpt lat="44.09625" lon="3.0279">
        <ele>526.2</ele>
        <time>2018-05-19T12:24:58Z</time>
      </trkpt>
      <trkpt lat="44.09627" lon="3.02787">
        <ele>526.5</ele>
        <time>2018-05-19T12:25:00Z</time>
      </trkpt>
      <trkpt lat="44.09629" lon="3.02785">
        <ele>526.7</ele>
        <time>2018-05-19T12:25:02Z</time>
      </trkpt>
      <trkpt lat="44.09632" lon="3.02783">
        <ele>527.1</ele>
        <time>2018-05-19T12:25:04Z</time>
      </trkpt>
      <trkpt lat="44.09635" lon="3.0278">
        <ele>527.4</ele>
        <time>2018-05-19T12:25:06Z</time>
      </trkpt>
      <trkpt lat="44.09636" lon="3.02777">
        <ele>527.7</ele>
        <time>2018-05-19T12:25:08Z</time>
      </trkpt>
      <trkpt lat="44.09639" lon="3.02773">
        <ele>528.1</ele>
        <time>2018-05-19T12:25:10Z</time>
      </trkpt>
      <trkpt lat="44.09641" lon="3.02771">
        <ele>528.4</ele>
        <time>2018-05-19T12:25:12Z</time>
      </trkpt>
      <trkpt lat="44.09643" lon="3.02766">
        <ele>528.7</ele>
        <time>2018-05-19T12:25:19Z</time>
      </trkpt>
      <trkpt lat="44.09645" lon="3.02763">
        <ele>529</ele>
        <time>2018-05-19T12:25:22Z</time>
      </trkpt>
      <trkpt lat="44.09647" lon="3.02761">
        <ele>529.3</ele>
        <time>2018-05-19T12:25:26Z</time>
      </trkpt>
      <trkpt lat="44.0965" lon="3.02759">
        <ele>529.9</ele>
        <time>2018-05-19T12:25:30Z</time>
      </trkpt>
      <trkpt lat="44.09653" lon="3.02757">
        <ele>530.4</ele>
        <time>2018-05-19T12:25:33Z</time>
      </trkpt>
      <trkpt lat="44.09655" lon="3.02756">
        <ele>530.7</ele>
        <time>2018-05-19T12:25:38Z</time>
      </trkpt>
      <trkpt lat="44.09658" lon="3.02759">
        <ele>531.1</ele>
        <time>2018-05-19T12:25:48Z</time>
      </trkpt>
      <trkpt lat="44.0966" lon="3.02762">
        <ele>531.7</ele>
        <time>2018-05-19T12:25:52Z</time>
      </trkpt>
      <trkpt lat="44.09663" lon="3.02763">
        <ele>532.4</ele>
        <time>2018-05-19T12:25:56Z</time>
      </trkpt>
      <trkpt lat="44.09667" lon="3.02762">
        <ele>532.9</ele>
        <time>2018-05-19T12:25:59Z</time>
      </trkpt>
      <trkpt lat="44.0967" lon="3.02763">
        <ele>533.4</ele>
        <time>2018-05-19T12:26:05Z</time>
      </trkpt>
      <trkpt lat="44.09672" lon="3.02762">
        <ele>533.9</ele>
        <time>2018-05-19T12:26:08Z</time>
      </trkpt>
      <trkpt lat="44.09675" lon="3.02761">
        <ele>534.5</ele>
        <time>2018-05-19T12:26:12Z</time>
      </trkpt>
      <trkpt lat="44.09678" lon="3.02762">
        <ele>535.1</ele>
        <time>2018-05-19T12:26:17Z</time>
      </trkpt>
      <trkpt lat="44.09682" lon="3.02762">
        <ele>535.6</ele>
        <time>2018-05-19T12:26:21Z</time>
      </trkpt>
      <trkpt lat="44.09684" lon="3.0276">
        <ele>535.9</ele>
        <time>2018-05-19T12:26:25Z</time>
      </trkpt>
      <trkpt lat="44.09687" lon="3.02759">
        <ele>536.6</ele>
        <time>2018-05-19T12:26:29Z</time>
      </trkpt>
      <trkpt lat="44.09691" lon="3.02758">
        <ele>537.5</ele>
        <time>2018-05-19T12:26:34Z</time>
      </trkpt>
      <trkpt lat="44.09694" lon="3.02757">
        <ele>538.2</ele>
        <time>2018-05-19T12:26:37Z</time>
      </trkpt>
      <trkpt lat="44.09697" lon="3.02757">
        <ele>538.6</ele>
        <time>2018-05-19T12:26:40Z</time>
      </trkpt>
      <trkpt lat="44.097" lon="3.02758">
        <ele>539.1</ele>
        <time>2018-05-19T12:26:46Z</time>
      </trkpt>
      <trkpt lat="44.09703" lon="3.0276">
        <ele>539.6</ele>
        <time>2018-05-19T12:26:52Z</time>
      </trkpt>
      <trkpt lat="44.09706" lon="3.02759">
        <ele>540.3</ele>
        <time>2018-05-19T12:27:00Z</time>
      </trkpt>
      <trkpt lat="44.09709" lon="3.02759">
        <ele>541</ele>
        <time>2018-05-19T12:27:04Z</time>
      </trkpt>
      <trkpt lat="44.09713" lon="3.02757">
        <ele>542</ele>
        <time>2018-05-19T12:27:07Z</time>
      </trkpt>
      <trkpt lat="44.09716" lon="3.02756">
        <ele>542.9</ele>
        <time>2018-05-19T12:27:11Z</time>
      </trkpt>
      <trkpt lat="44.0972" lon="3.02756">
        <ele>543.8</ele>
        <time>2018-05-19T12:27:14Z</time>
      </trkpt>
      <trkpt lat="44.09722" lon="3.02758">
        <ele>544.4</ele>
        <time>2018-05-19T12:27:22Z</time>
      </trkpt>
      <trkpt lat="44.09725" lon="3.02759">
        <ele>545.1</ele>
        <time>2018-05-19T12:27:29Z</time>
      </trkpt>
      <trkpt lat="44.09728" lon="3.02758">
        <ele>545.4</ele>
        <time>2018-05-19T12:27:34Z</time>
      </trkpt>
      <trkpt lat="44.09731" lon="3.02757">
        <ele>545.6</ele>
        <time>2018-05-19T12:27:37Z</time>
      </trkpt>
      <trkpt lat="44.09734" lon="3.02757">
        <ele>546.3</ele>
        <time>2018-05-19T12:27:40Z</time>
      </trkpt>
      <trkpt lat="44.09737" lon="3.02755">
        <ele>547</ele>
        <time>2018-05-19T12:27:44Z</time>
      </trkpt>
      <trkpt lat="44.0974" lon="3.02754">
        <ele>547.7</ele>
        <time>2018-05-19T12:27:47Z</time>
      </trkpt>
      <trkpt lat="44.09742" lon="3.02752">
        <ele>548.4</ele>
        <time>2018-05-19T12:27:50Z</time>
      </trkpt>
      <trkpt lat="44.09746" lon="3.02751">
        <ele>549.1</ele>
        <time>2018-05-19T12:27:53Z</time>
      </trkpt>
      <trkpt lat="44.09748" lon="3.02749">
        <ele>549.7</ele>
        <time>2018-05-19T12:27:59Z</time>
      </trkpt>
      <trkpt lat="44.09751" lon="3.02751">
        <ele>550.3</ele>
        <time>2018-05-19T12:28:10Z</time>
      </trkpt>
      <trkpt lat="44.09754" lon="3.02751">
        <ele>550.9</ele>
        <time>2018-05-19T12:28:12Z</time>
      </trkpt>
      <trkpt lat="44.09757" lon="3.0275">
        <ele>551.5</ele>
        <time>2018-05-19T12:28:14Z</time>
      </trkpt>
      <trkpt lat="44.09761" lon="3.0275">
        <ele>552.5</ele>
        <time>2018-05-19T12:28:16Z</time>
      </trkpt>
      <trkpt lat="44.09765" lon="3.0275">
        <ele>553.3</ele>
        <time>2018-05-19T12:28:18Z</time>
      </trkpt>
      <trkpt lat="44.09768" lon="3.02751">
        <ele>553.9</ele>
        <time>2018-05-19T12:28:20Z</time>
      </trkpt>
      <trkpt lat="44.09771" lon="3.02752">
        <ele>554.4</ele>
        <time>2018-05-19T12:28:22Z</time>
      </trkpt>
      <trkpt lat="44.09773" lon="3.02755">
        <ele>554.8</ele>
        <time>2018-05-19T12:28:24Z</time>
      </trkpt>
      <trkpt lat="44.09777" lon="3.02757">
        <ele>555.5</ele>
        <time>2018-05-19T12:28:26Z</time>
      </trkpt>
      <trkpt lat="44.09781" lon="3.02758">
        <ele>556.3</ele>
        <time>2018-05-19T12:28:28Z</time>
      </trkpt>
      <trkpt lat="44.09784" lon="3.02759">
        <ele>556.9</ele>
        <time>2018-05-19T12:28:30Z</time>
      </trkpt>
      <trkpt lat="44.09788" lon="3.02759">
        <ele>557.4</ele>
        <time>2018-05-19T12:28:32Z</time>
      </trkpt>
      <trkpt lat="44.09791" lon="3.02758">
        <ele>557.9</ele>
        <time>2018-05-19T12:28:34Z</time>
      </trkpt>
      <trkpt lat="44.09795" lon="3.02758">
        <ele>558.3</ele>
        <time>2018-05-19T12:28:36Z</time>
      </trkpt>
      <trkpt lat="44.09797" lon="3.02757">
        <ele>558.6</ele>
        <time>2018-05-19T12:28:38Z</time>
      </trkpt>
      <trkpt lat="44.09801" lon="3.02757">
        <ele>559.1</ele>
        <time>2018-05-19T12:28:40Z</time>
      </trkpt>
      <trkpt lat="44.09804" lon="3.02757">
        <ele>559.7</ele>
        <time>2018-05-19T12:28:42Z</time>
      </trkpt>
      <trkpt lat="44.09808" lon="3.02756">
        <ele>560.2</ele>
        <time>2018-05-19T12:28:44Z</time>
      </trkpt>
      <trkpt lat="44.0981" lon="3.02756">
        <ele>560.5</ele>
        <time>2018-05-19T12:28:46Z</time>
      </trkpt>
      <trkpt lat="44.09814" lon="3.02754">
        <ele>560.9</ele>
        <time>2018-05-19T12:28:49Z</time>
      </trkpt>
      <trkpt lat="44.09817" lon="3.02754">
        <ele>561.2</ele>
        <time>2018-05-19T12:28:51Z</time>
      </trkpt>
      <trkpt lat="44.09821" lon="3.02753">
        <ele>561.5</ele>
        <time>2018-05-19T12:28:53Z</time>
      </trkpt>
      <trkpt lat="44.09825" lon="3.02752">
        <ele>561.9</ele>
        <time>2018-05-19T12:28:55Z</time>
      </trkpt>
      <trkpt lat="44.09828" lon="3.02751">
        <ele>562.4</ele>
        <time>2018-05-19T12:28:57Z</time>
      </trkpt>
      <trkpt lat="44.09831" lon="3.0275">
        <ele>562.8</ele>
        <time>2018-05-19T12:28:59Z</time>
      </trkpt>
      <trkpt lat="44.09833" lon="3.02749">
        <ele>563</ele>
        <time>2018-05-19T12:29:01Z</time>
      </trkpt>
      <trkpt lat="44.09836" lon="3.02747">
        <ele>563.3</ele>
        <time>2018-05-19T12:29:03Z</time>
      </trkpt>
      <trkpt lat="44.0984" lon="3.02746">
        <ele>563.7</ele>
        <time>2018-05-19T12:29:05Z</time>
      </trkpt>
      <trkpt lat="44.09843" lon="3.02744">
        <ele>564.2</ele>
        <time>2018-05-19T12:29:07Z</time>
      </trkpt>
      <trkpt lat="44.09846" lon="3.02743">
        <ele>564.6</ele>
        <time>2018-05-19T12:29:09Z</time>
      </trkpt>
      <trkpt lat="44.09849" lon="3.02742">
        <ele>564.9</ele>
        <time>2018-05-19T12:29:11Z</time>
      </trkpt>
      <trkpt lat="44.09852" lon="3.02742">
        <ele>565.2</ele>
        <time>2018-05-19T12:29:13Z</time>
      </trkpt>
      <trkpt lat="44.09855" lon="3.02742">
        <ele>565.5</ele>
        <time>2018-05-19T12:29:15Z</time>
      </trkpt>
      <trkpt lat="44.09858" lon="3.02742">
        <ele>565.9</ele>
        <time>2018-05-19T12:29:17Z</time>
      </trkpt>
      <trkpt lat="44.09861" lon="3.02742">
        <ele>566.2</ele>
        <time>2018-05-19T12:29:19Z</time>
      </trkpt>
      <trkpt lat="44.09866" lon="3.02743">
        <ele>566.6</ele>
        <time>2018-05-19T12:29:22Z</time>
      </trkpt>
      <trkpt lat="44.09869" lon="3.02744">
        <ele>567</ele>
        <time>2018-05-19T12:29:24Z</time>
      </trkpt>
      <trkpt lat="44.09873" lon="3.02744">
        <ele>567.4</ele>
        <time>2018-05-19T12:29:26Z</time>
      </trkpt>
      <trkpt lat="44.09877" lon="3.02745">
        <ele>567.7</ele>
        <time>2018-05-19T12:29:28Z</time>
      </trkpt>
      <trkpt lat="44.0988" lon="3.02746">
        <ele>567.9</ele>
        <time>2018-05-19T12:29:30Z</time>
      </trkpt>
      <trkpt lat="44.09883" lon="3.02748">
        <ele>568.2</ele>
        <time>2018-05-19T12:29:32Z</time>
      </trkpt>
      <trkpt lat="44.09886" lon="3.0275">
        <ele>568.4</ele>
        <time>2018-05-19T12:29:34Z</time>
      </trkpt>
      <trkpt lat="44.09889" lon="3.0275">
        <ele>568.7</ele>
        <time>2018-05-19T12:29:36Z</time>
      </trkpt>
      <trkpt lat="44.09892" lon="3.02752">
        <ele>569</ele>
        <time>2018-05-19T12:29:38Z</time>
      </trkpt>
      <trkpt lat="44.09895" lon="3.02753">
        <ele>569.2</ele>
        <time>2018-05-19T12:29:40Z</time>
      </trkpt>
      <trkpt lat="44.09898" lon="3.02754">
        <ele>569.4</ele>
        <time>2018-05-19T12:29:42Z</time>
      </trkpt>
      <trkpt lat="44.09901" lon="3.02756">
        <ele>569.6</ele>
        <time>2018-05-19T12:29:44Z</time>
      </trkpt>
      <trkpt lat="44.09903" lon="3.02758">
        <ele>569.8</ele>
        <time>2018-05-19T12:29:46Z</time>
      </trkpt>
      <trkpt lat="44.09906" lon="3.0276">
        <ele>570</ele>
        <time>2018-05-19T12:29:48Z</time>
      </trkpt>
      <trkpt lat="44.09909" lon="3.02763">
        <ele>570.1</ele>
        <time>2018-05-19T12:29:50Z</time>
      </trkpt>
      <trkpt lat="44.09912" lon="3.02764">
        <ele>570.3</ele>
        <time>2018-05-19T12:29:52Z</time>
      </trkpt>
      <trkpt lat="44.09915" lon="3.02766">
        <ele>570.6</ele>
        <time>2018-05-19T12:29:54Z</time>
      </trkpt>
      <trkpt lat="44.09918" lon="3.02767">
        <ele>570.8</ele>
        <time>2018-05-19T12:29:56Z</time>
      </trkpt>
      <trkpt lat="44.09921" lon="3.02769">
        <ele>571</ele>
        <time>2018-05-19T12:29:58Z</time>
      </trkpt>
      <trkpt lat="44.09924" lon="3.0277">
        <ele>571.1</ele>
        <time>2018-05-19T12:30:00Z</time>
      </trkpt>
      <trkpt lat="44.09927" lon="3.02772">
        <ele>571.2</ele>
        <time>2018-05-19T12:30:02Z</time>
      </trkpt>
      <trkpt lat="44.0993" lon="3.02772">
        <ele>571.3</ele>
        <time>2018-05-19T12:30:05Z</time>
      </trkpt>
      <trkpt lat="44.09933" lon="3.02772">
        <ele>571.3</ele>
        <time>2018-05-19T12:30:09Z</time>
      </trkpt>
      <trkpt lat="44.09936" lon="3.02773">
        <ele>571.4</ele>
        <time>2018-05-19T12:30:24Z</time>
      </trkpt>
      <trkpt lat="44.0994" lon="3.02777">
        <ele>571.6</ele>
        <time>2018-05-19T12:34:03Z</time>
      </trkpt>
      <trkpt lat="44.09944" lon="3.02779">
        <ele>571.7</ele>
        <time>2018-05-19T12:34:06Z</time>
      </trkpt>
      <trkpt lat="44.09948" lon="3.0278">
        <ele>571.9</ele>
        <time>2018-05-19T12:34:08Z</time>
      </trkpt>
      <trkpt lat="44.09953" lon="3.02781">
        <ele>571.8</ele>
        <time>2018-05-19T12:34:11Z</time>
      </trkpt>
      <trkpt lat="44.09956" lon="3.02783">
        <ele>571.6</ele>
        <time>2018-05-19T12:34:12Z</time>
      </trkpt>
      <trkpt lat="44.09963" lon="3.02787">
        <ele>570.9</ele>
        <time>2018-05-19T12:34:13Z</time>
      </trkpt>
      <trkpt lat="44.09969" lon="3.02789">
        <ele>570.4</ele>
        <time>2018-05-19T12:34:14Z</time>
      </trkpt>
      <trkpt lat="44.09974" lon="3.02792">
        <ele>569.9</ele>
        <time>2018-05-19T12:34:15Z</time>
      </trkpt>
      <trkpt lat="44.09978" lon="3.02793">
        <ele>569.7</ele>
        <time>2018-05-19T12:34:16Z</time>
      </trkpt>
      <trkpt lat="44.09983" lon="3.02795">
        <ele>569.4</ele>
        <time>2018-05-19T12:34:17Z</time>
      </trkpt>
      <trkpt lat="44.09987" lon="3.02797">
        <ele>569.3</ele>
        <time>2018-05-19T12:34:18Z</time>
      </trkpt>
      <trkpt lat="44.09991" lon="3.02799">
        <ele>569.1</ele>
        <time>2018-05-19T12:34:19Z</time>
      </trkpt>
      <trkpt lat="44.09995" lon="3.028">
        <ele>569.1</ele>
        <time>2018-05-19T12:34:20Z</time>
      </trkpt>
      <trkpt lat="44.09998" lon="3.02801">
        <ele>569</ele>
        <time>2018-05-19T12:34:21Z</time>
      </trkpt>
      <trkpt lat="44.10001" lon="3.02804">
        <ele>568.9</ele>
        <time>2018-05-19T12:34:22Z</time>
      </trkpt>
      <trkpt lat="44.10005" lon="3.02806">
        <ele>568.9</ele>
        <time>2018-05-19T12:34:23Z</time>
      </trkpt>
      <trkpt lat="44.10008" lon="3.02807">
        <ele>568.9</ele>
        <time>2018-05-19T12:34:24Z</time>
      </trkpt>
      <trkpt lat="44.1001" lon="3.02809">
        <ele>568.9</ele>
        <time>2018-05-19T12:34:25Z</time>
      </trkpt>
      <trkpt lat="44.10017" lon="3.02812">
        <ele>568.9</ele>
        <time>2018-05-19T12:34:26Z</time>
      </trkpt>
      <trkpt lat="44.10021" lon="3.02813">
        <ele>568.9</ele>
        <time>2018-05-19T12:34:27Z</time>
      </trkpt>
      <trkpt lat="44.10024" lon="3.02814">
        <ele>568.9</ele>
        <time>2018-05-19T12:34:28Z</time>
      </trkpt>
      <trkpt lat="44.10028" lon="3.02814">
        <ele>568.8</ele>
        <time>2018-05-19T12:34:29Z</time>
      </trkpt>
      <trkpt lat="44.10032" lon="3.02815">
        <ele>568.8</ele>
        <time>2018-05-19T12:34:30Z</time>
      </trkpt>
      <trkpt lat="44.1004" lon="3.02814">
        <ele>568.5</ele>
        <time>2018-05-19T12:34:31Z</time>
      </trkpt>
      <trkpt lat="44.10045" lon="3.02815">
        <ele>568.2</ele>
        <time>2018-05-19T12:34:32Z</time>
      </trkpt>
      <trkpt lat="44.10051" lon="3.02817">
        <ele>568</ele>
        <time>2018-05-19T12:34:33Z</time>
      </trkpt>
      <trkpt lat="44.1006" lon="3.02818">
        <ele>567.7</ele>
        <time>2018-05-19T12:34:34Z</time>
      </trkpt>
      <trkpt lat="44.10068" lon="3.02819">
        <ele>567.4</ele>
        <time>2018-05-19T12:34:35Z</time>
      </trkpt>
      <trkpt lat="44.10071" lon="3.02821">
        <ele>567.4</ele>
        <time>2018-05-19T12:34:36Z</time>
      </trkpt>
      <trkpt lat="44.10078" lon="3.02824">
        <ele>567.3</ele>
        <time>2018-05-19T12:34:37Z</time>
      </trkpt>
      <trkpt lat="44.10084" lon="3.02826">
        <ele>567.3</ele>
        <time>2018-05-19T12:34:38Z</time>
      </trkpt>
      <trkpt lat="44.1009" lon="3.02829">
        <ele>567.3</ele>
        <time>2018-05-19T12:34:39Z</time>
      </trkpt>
      <trkpt lat="44.10095" lon="3.0283">
        <ele>567.3</ele>
        <time>2018-05-19T12:34:40Z</time>
      </trkpt>
      <trkpt lat="44.10101" lon="3.02831">
        <ele>567.4</ele>
        <time>2018-05-19T12:34:41Z</time>
      </trkpt>
      <trkpt lat="44.10105" lon="3.02832">
        <ele>567.4</ele>
        <time>2018-05-19T12:34:42Z</time>
      </trkpt>
      <trkpt lat="44.10111" lon="3.02832">
        <ele>567.5</ele>
        <time>2018-05-19T12:34:43Z</time>
      </trkpt>
      <trkpt lat="44.10116" lon="3.02832">
        <ele>567.6</ele>
        <time>2018-05-19T12:34:44Z</time>
      </trkpt>
      <trkpt lat="44.1012" lon="3.02833">
        <ele>567.7</ele>
        <time>2018-05-19T12:34:45Z</time>
      </trkpt>
      <trkpt lat="44.10124" lon="3.02833">
        <ele>567.9</ele>
        <time>2018-05-19T12:34:46Z</time>
      </trkpt>
      <trkpt lat="44.10128" lon="3.02833">
        <ele>568</ele>
        <time>2018-05-19T12:34:47Z</time>
      </trkpt>
      <trkpt lat="44.10131" lon="3.02832">
        <ele>568.2</ele>
        <time>2018-05-19T12:34:48Z</time>
      </trkpt>
      <trkpt lat="44.10135" lon="3.02832">
        <ele>568.3</ele>
        <time>2018-05-19T12:34:49Z</time>
      </trkpt>
      <trkpt lat="44.10141" lon="3.02831">
        <ele>568.4</ele>
        <time>2018-05-19T12:34:50Z</time>
      </trkpt>
      <trkpt lat="44.10147" lon="3.0283">
        <ele>568.5</ele>
        <time>2018-05-19T12:34:51Z</time>
      </trkpt>
      <trkpt lat="44.10152" lon="3.0283">
        <ele>568.5</ele>
        <time>2018-05-19T12:34:52Z</time>
      </trkpt>
      <trkpt lat="44.10155" lon="3.02831">
        <ele>568.4</ele>
        <time>2018-05-19T12:34:53Z</time>
      </trkpt>
      <trkpt lat="44.10159" lon="3.02832">
        <ele>568.4</ele>
        <time>2018-05-19T12:34:54Z</time>
      </trkpt>
      <trkpt lat="44.10163" lon="3.02833">
        <ele>568.3</ele>
        <time>2018-05-19T12:34:55Z</time>
      </trkpt>
      <trkpt lat="44.10167" lon="3.02833">
        <ele>568.2</ele>
        <time>2018-05-19T12:34:56Z</time>
      </trkpt>
      <trkpt lat="44.10171" lon="3.02834">
        <ele>568.1</ele>
        <time>2018-05-19T12:34:57Z</time>
      </trkpt>
      <trkpt lat="44.10175" lon="3.02835">
        <ele>568.1</ele>
        <time>2018-05-19T12:34:58Z</time>
      </trkpt>
      <trkpt lat="44.1018" lon="3.02837">
        <ele>568</ele>
        <time>2018-05-19T12:34:59Z</time>
      </trkpt>
      <trkpt lat="44.10184" lon="3.02838">
        <ele>567.8</ele>
        <time>2018-05-19T12:35:00Z</time>
      </trkpt>
      <trkpt lat="44.10188" lon="3.0284">
        <ele>567.7</ele>
        <time>2018-05-19T12:35:01Z</time>
      </trkpt>
      <trkpt lat="44.10192" lon="3.02843">
        <ele>567.5</ele>
        <time>2018-05-19T12:35:02Z</time>
      </trkpt>
      <trkpt lat="44.10201" lon="3.02849">
        <ele>567.1</ele>
        <time>2018-05-19T12:35:03Z</time>
      </trkpt>
      <trkpt lat="44.10206" lon="3.0285">
        <ele>566.9</ele>
        <time>2018-05-19T12:35:04Z</time>
      </trkpt>
      <trkpt lat="44.1021" lon="3.02853">
        <ele>566.9</ele>
        <time>2018-05-19T12:35:05Z</time>
      </trkpt>
      <trkpt lat="44.10215" lon="3.02859">
        <ele>566.9</ele>
        <time>2018-05-19T12:35:06Z</time>
      </trkpt>
      <trkpt lat="44.10223" lon="3.02864">
        <ele>567.1</ele>
        <time>2018-05-19T12:35:07Z</time>
      </trkpt>
      <trkpt lat="44.10227" lon="3.02873">
        <ele>567.5</ele>
        <time>2018-05-19T12:35:08Z</time>
      </trkpt>
      <trkpt lat="44.10232" lon="3.0288">
        <ele>567.8</ele>
        <time>2018-05-19T12:35:09Z</time>
      </trkpt>
      <trkpt lat="44.10236" lon="3.02885">
        <ele>568</ele>
        <time>2018-05-19T12:35:10Z</time>
      </trkpt>
      <trkpt lat="44.10239" lon="3.02889">
        <ele>568.2</ele>
        <time>2018-05-19T12:35:11Z</time>
      </trkpt>
      <trkpt lat="44.1024" lon="3.02896">
        <ele>568.4</ele>
        <time>2018-05-19T12:35:12Z</time>
      </trkpt>
      <trkpt lat="44.10245" lon="3.02901">
        <ele>568.5</ele>
        <time>2018-05-19T12:35:13Z</time>
      </trkpt>
      <trkpt lat="44.10247" lon="3.02906">
        <ele>568.6</ele>
        <time>2018-05-19T12:35:14Z</time>
      </trkpt>
      <trkpt lat="44.10251" lon="3.02911">
        <ele>568.7</ele>
        <time>2018-05-19T12:35:15Z</time>
      </trkpt>
      <trkpt lat="44.10253" lon="3.02915">
        <ele>568.8</ele>
        <time>2018-05-19T12:35:16Z</time>
      </trkpt>
      <trkpt lat="44.10256" lon="3.02921">
        <ele>568.9</ele>
        <time>2018-05-19T12:35:17Z</time>
      </trkpt>
      <trkpt lat="44.10258" lon="3.02926">
        <ele>569.1</ele>
        <time>2018-05-19T12:35:18Z</time>
      </trkpt>
      <trkpt lat="44.1026" lon="3.02929">
        <ele>569.3</ele>
        <time>2018-05-19T12:35:19Z</time>
      </trkpt>
      <trkpt lat="44.10265" lon="3.02931">
        <ele>569.7</ele>
        <time>2018-05-19T12:35:21Z</time>
      </trkpt>
      <trkpt lat="44.10268" lon="3.02935">
        <ele>570.2</ele>
        <time>2018-05-19T12:35:23Z</time>
      </trkpt>
      <trkpt lat="44.10271" lon="3.02943">
        <ele>571.1</ele>
        <time>2018-05-19T12:35:25Z</time>
      </trkpt>
      <trkpt lat="44.10272" lon="3.02948">
        <ele>571.7</ele>
        <time>2018-05-19T12:35:26Z</time>
      </trkpt>
      <trkpt lat="44.10273" lon="3.02954">
        <ele>572.3</ele>
        <time>2018-05-19T12:35:27Z</time>
      </trkpt>
      <trkpt lat="44.10271" lon="3.02959">
        <ele>571.9</ele>
        <time>2018-05-19T12:35:29Z</time>
      </trkpt>
      <trkpt lat="44.10269" lon="3.02962">
        <ele>572</ele>
        <time>2018-05-19T12:35:35Z</time>
      </trkpt>
      <trkpt lat="44.1027" lon="3.02966">
        <ele>572.1</ele>
        <time>2018-05-19T12:35:43Z</time>
      </trkpt>
      <trkpt lat="44.10267" lon="3.02968">
        <ele>571.7</ele>
        <time>2018-05-19T12:35:52Z</time>
      </trkpt>
      <trkpt lat="44.10263" lon="3.02972">
        <ele>571.4</ele>
        <time>2018-05-19T12:35:54Z</time>
      </trkpt>
      <trkpt lat="44.10259" lon="3.02974">
        <ele>570.9</ele>
        <time>2018-05-19T12:35:56Z</time>
      </trkpt>
      <trkpt lat="44.10254" lon="3.02977">
        <ele>570.5</ele>
        <time>2018-05-19T12:35:58Z</time>
      </trkpt>
      <trkpt lat="44.10251" lon="3.02979">
        <ele>570.2</ele>
        <time>2018-05-19T12:35:59Z</time>
      </trkpt>
      <trkpt lat="44.10249" lon="3.02981">
        <ele>569.9</ele>
        <time>2018-05-19T12:36:00Z</time>
      </trkpt>
      <trkpt lat="44.10246" lon="3.02983">
        <ele>569.6</ele>
        <time>2018-05-19T12:36:01Z</time>
      </trkpt>
      <trkpt lat="44.10243" lon="3.02984">
        <ele>569.3</ele>
        <time>2018-05-19T12:36:02Z</time>
      </trkpt>
      <trkpt lat="44.10241" lon="3.02986">
        <ele>569</ele>
        <time>2018-05-19T12:36:03Z</time>
      </trkpt>
      <trkpt lat="44.10239" lon="3.02988">
        <ele>569.1</ele>
        <time>2018-05-19T12:36:04Z</time>
      </trkpt>
      <trkpt lat="44.10234" lon="3.02991">
        <ele>568.7</ele>
        <time>2018-05-19T12:36:06Z</time>
      </trkpt>
      <trkpt lat="44.10231" lon="3.02995">
        <ele>568.4</ele>
        <time>2018-05-19T12:36:08Z</time>
      </trkpt>
      <trkpt lat="44.10229" lon="3.02998">
        <ele>568.6</ele>
        <time>2018-05-19T12:36:10Z</time>
      </trkpt>
      <trkpt lat="44.10225" lon="3.03001">
        <ele>568.2</ele>
        <time>2018-05-19T12:36:12Z</time>
      </trkpt>
      <trkpt lat="44.10221" lon="3.03004">
        <ele>567.9</ele>
        <time>2018-05-19T12:36:14Z</time>
      </trkpt>
      <trkpt lat="44.10218" lon="3.03006">
        <ele>567.9</ele>
        <time>2018-05-19T12:36:16Z</time>
      </trkpt>
      <trkpt lat="44.10213" lon="3.03011">
        <ele>568</ele>
        <time>2018-05-19T12:36:18Z</time>
      </trkpt>
      <trkpt lat="44.10209" lon="3.03015">
        <ele>567.8</ele>
        <time>2018-05-19T12:36:20Z</time>
      </trkpt>
      <trkpt lat="44.10207" lon="3.03017">
        <ele>567.8</ele>
        <time>2018-05-19T12:36:21Z</time>
      </trkpt>
      <trkpt lat="44.10205" lon="3.0302">
        <ele>567.8</ele>
        <time>2018-05-19T12:36:22Z</time>
      </trkpt>
      <trkpt lat="44.10201" lon="3.03024">
        <ele>567.5</ele>
        <time>2018-05-19T12:36:24Z</time>
      </trkpt>
      <trkpt lat="44.10198" lon="3.03027">
        <ele>567.7</ele>
        <time>2018-05-19T12:36:25Z</time>
      </trkpt>
      <trkpt lat="44.10196" lon="3.03029">
        <ele>567.4</ele>
        <time>2018-05-19T12:36:26Z</time>
      </trkpt>
      <trkpt lat="44.10194" lon="3.03032">
        <ele>567.3</ele>
        <time>2018-05-19T12:36:27Z</time>
      </trkpt>
      <trkpt lat="44.10191" lon="3.03034">
        <ele>567.3</ele>
        <time>2018-05-19T12:36:28Z</time>
      </trkpt>
      <trkpt lat="44.10189" lon="3.03037">
        <ele>567.3</ele>
        <time>2018-05-19T12:36:29Z</time>
      </trkpt>
      <trkpt lat="44.10186" lon="3.03039">
        <ele>567.3</ele>
        <time>2018-05-19T12:36:30Z</time>
      </trkpt>
      <trkpt lat="44.10184" lon="3.03041">
        <ele>567.1</ele>
        <time>2018-05-19T12:36:31Z</time>
      </trkpt>
      <trkpt lat="44.10181" lon="3.03044">
        <ele>567.3</ele>
        <time>2018-05-19T12:36:32Z</time>
      </trkpt>
      <trkpt lat="44.10179" lon="3.03046">
        <ele>567.2</ele>
        <time>2018-05-19T12:36:33Z</time>
      </trkpt>
      <trkpt lat="44.10177" lon="3.03048">
        <ele>567.5</ele>
        <time>2018-05-19T12:36:34Z</time>
      </trkpt>
      <trkpt lat="44.10174" lon="3.0305">
        <ele>567.4</ele>
        <time>2018-05-19T12:36:35Z</time>
      </trkpt>
      <trkpt lat="44.10172" lon="3.03051">
        <ele>567.4</ele>
        <time>2018-05-19T12:36:36Z</time>
      </trkpt>
      <trkpt lat="44.10168" lon="3.03051">
        <ele>567.7</ele>
        <time>2018-05-19T12:36:37Z</time>
      </trkpt>
      <trkpt lat="44.10165" lon="3.03051">
        <ele>567.7</ele>
        <time>2018-05-19T12:36:38Z</time>
      </trkpt>
      <trkpt lat="44.10162" lon="3.03051">
        <ele>567.6</ele>
        <time>2018-05-19T12:36:39Z</time>
      </trkpt>
      <trkpt lat="44.10157" lon="3.03051">
        <ele>567.5</ele>
        <time>2018-05-19T12:36:41Z</time>
      </trkpt>
      <trkpt lat="44.10153" lon="3.03051">
        <ele>567.5</ele>
        <time>2018-05-19T12:36:42Z</time>
      </trkpt>
      <trkpt lat="44.10149" lon="3.03052">
        <ele>567.4</ele>
        <time>2018-05-19T12:36:43Z</time>
      </trkpt>
      <trkpt lat="44.10145" lon="3.03051">
        <ele>567.2</ele>
        <time>2018-05-19T12:36:44Z</time>
      </trkpt>
      <trkpt lat="44.10141" lon="3.03051">
        <ele>567.1</ele>
        <time>2018-05-19T12:36:45Z</time>
      </trkpt>
      <trkpt lat="44.10137" lon="3.0305">
        <ele>566.5</ele>
        <time>2018-05-19T12:36:46Z</time>
      </trkpt>
      <trkpt lat="44.10133" lon="3.03049">
        <ele>566.2</ele>
        <time>2018-05-19T12:36:47Z</time>
      </trkpt>
      <trkpt lat="44.10129" lon="3.03047">
        <ele>566.1</ele>
        <time>2018-05-19T12:36:48Z</time>
      </trkpt>
      <trkpt lat="44.10125" lon="3.03045">
        <ele>565.7</ele>
        <time>2018-05-19T12:36:49Z</time>
      </trkpt>
      <trkpt lat="44.1012" lon="3.03044">
        <ele>565.5</ele>
        <time>2018-05-19T12:36:50Z</time>
      </trkpt>
      <trkpt lat="44.10115" lon="3.0304">
        <ele>565</ele>
        <time>2018-05-19T12:36:51Z</time>
      </trkpt>
      <trkpt lat="44.10111" lon="3.03037">
        <ele>564.4</ele>
        <time>2018-05-19T12:36:52Z</time>
      </trkpt>
      <trkpt lat="44.10108" lon="3.03035">
        <ele>564.2</ele>
        <time>2018-05-19T12:36:53Z</time>
      </trkpt>
      <trkpt lat="44.10103" lon="3.03034">
        <ele>564.1</ele>
        <time>2018-05-19T12:36:54Z</time>
      </trkpt>
      <trkpt lat="44.10097" lon="3.03035">
        <ele>563.8</ele>
        <time>2018-05-19T12:36:55Z</time>
      </trkpt>
      <trkpt lat="44.10092" lon="3.03037">
        <ele>563.5</ele>
        <time>2018-05-19T12:36:56Z</time>
      </trkpt>
      <trkpt lat="44.10086" lon="3.03041">
        <ele>563.6</ele>
        <time>2018-05-19T12:36:57Z</time>
      </trkpt>
      <trkpt lat="44.10082" lon="3.03044">
        <ele>563.8</ele>
        <time>2018-05-19T12:36:58Z</time>
      </trkpt>
      <trkpt lat="44.10077" lon="3.03046">
        <ele>563.5</ele>
        <time>2018-05-19T12:36:59Z</time>
      </trkpt>
      <trkpt lat="44.10075" lon="3.03047">
        <ele>563.9</ele>
        <time>2018-05-19T12:37:00Z</time>
      </trkpt>
      <trkpt lat="44.10069" lon="3.03047">
        <ele>563.6</ele>
        <time>2018-05-19T12:37:01Z</time>
      </trkpt>
      <trkpt lat="44.10062" lon="3.03049">
        <ele>563.1</ele>
        <time>2018-05-19T12:37:03Z</time>
      </trkpt>
      <trkpt lat="44.10057" lon="3.03049">
        <ele>562.9</ele>
        <time>2018-05-19T12:37:04Z</time>
      </trkpt>
      <trkpt lat="44.10051" lon="3.03051">
        <ele>562.5</ele>
        <time>2018-05-19T12:37:05Z</time>
      </trkpt>
      <trkpt lat="44.10047" lon="3.03052">
        <ele>562.6</ele>
        <time>2018-05-19T12:37:06Z</time>
      </trkpt>
      <trkpt lat="44.10042" lon="3.03054">
        <ele>562.4</ele>
        <time>2018-05-19T12:37:07Z</time>
      </trkpt>
      <trkpt lat="44.10038" lon="3.03057">
        <ele>562.7</ele>
        <time>2018-05-19T12:37:08Z</time>
      </trkpt>
      <trkpt lat="44.10034" lon="3.03063">
        <ele>562.5</ele>
        <time>2018-05-19T12:37:09Z</time>
      </trkpt>
      <trkpt lat="44.10029" lon="3.03068">
        <ele>562.4</ele>
        <time>2018-05-19T12:37:10Z</time>
      </trkpt>
      <trkpt lat="44.1002" lon="3.03075">
        <ele>561.6</ele>
        <time>2018-05-19T12:37:11Z</time>
      </trkpt>
      <trkpt lat="44.10015" lon="3.0308">
        <ele>561</ele>
        <time>2018-05-19T12:37:12Z</time>
      </trkpt>
      <trkpt lat="44.1001" lon="3.03086">
        <ele>560.6</ele>
        <time>2018-05-19T12:37:13Z</time>
      </trkpt>
      <trkpt lat="44.10004" lon="3.03093">
        <ele>560.4</ele>
        <time>2018-05-19T12:37:14Z</time>
      </trkpt>
      <trkpt lat="44.09998" lon="3.03099">
        <ele>560.2</ele>
        <time>2018-05-19T12:37:15Z</time>
      </trkpt>
      <trkpt lat="44.09991" lon="3.03104">
        <ele>559.8</ele>
        <time>2018-05-19T12:37:16Z</time>
      </trkpt>
      <trkpt lat="44.09984" lon="3.03108">
        <ele>559.2</ele>
        <time>2018-05-19T12:37:17Z</time>
      </trkpt>
      <trkpt lat="44.09979" lon="3.03111">
        <ele>558.6</ele>
        <time>2018-05-19T12:37:18Z</time>
      </trkpt>
      <trkpt lat="44.09973" lon="3.03114">
        <ele>558.3</ele>
        <time>2018-05-19T12:37:19Z</time>
      </trkpt>
      <trkpt lat="44.09968" lon="3.03116">
        <ele>558.2</ele>
        <time>2018-05-19T12:37:20Z</time>
      </trkpt>
      <trkpt lat="44.09965" lon="3.0312">
        <ele>558</ele>
        <time>2018-05-19T12:37:21Z</time>
      </trkpt>
      <trkpt lat="44.09961" lon="3.03123">
        <ele>557.8</ele>
        <time>2018-05-19T12:37:23Z</time>
      </trkpt>
      <trkpt lat="44.09959" lon="3.03123">
        <ele>557.5</ele>
        <time>2018-05-19T12:38:15Z</time>
      </trkpt>
      <trkpt lat="44.09956" lon="3.03123">
        <ele>557.3</ele>
        <time>2018-05-19T12:38:21Z</time>
      </trkpt>
      <trkpt lat="44.09952" lon="3.03126">
        <ele>557.2</ele>
        <time>2018-05-19T12:38:24Z</time>
      </trkpt>
      <trkpt lat="44.09951" lon="3.0313">
        <ele>557.1</ele>
        <time>2018-05-19T12:38:27Z</time>
      </trkpt>
      <trkpt lat="44.0995" lon="3.03136">
        <ele>557.2</ele>
        <time>2018-05-19T12:38:30Z</time>
      </trkpt>
      <trkpt lat="44.09952" lon="3.0314">
        <ele>557.6</ele>
        <time>2018-05-19T12:38:32Z</time>
      </trkpt>
      <trkpt lat="44.09955" lon="3.03141">
        <ele>557.8</ele>
        <time>2018-05-19T12:38:34Z</time>
      </trkpt>
      <trkpt lat="44.09957" lon="3.03138">
        <ele>557.8</ele>
        <time>2018-05-19T12:38:36Z</time>
      </trkpt>
      <trkpt lat="44.09959" lon="3.03133">
        <ele>557.9</ele>
        <time>2018-05-19T12:38:38Z</time>
      </trkpt>
      <trkpt lat="44.09959" lon="3.03127">
        <ele>557.7</ele>
        <time>2018-05-19T12:38:40Z</time>
      </trkpt>
      <trkpt lat="44.0996" lon="3.03122">
        <ele>557.5</ele>
        <time>2018-05-19T12:38:42Z</time>
      </trkpt>
      <trkpt lat="44.09963" lon="3.03117">
        <ele>557.6</ele>
        <time>2018-05-19T12:38:44Z</time>
      </trkpt>
      <trkpt lat="44.09966" lon="3.03115">
        <ele>557.7</ele>
        <time>2018-05-19T12:38:46Z</time>
      </trkpt>
      <trkpt lat="44.09971" lon="3.03113">
        <ele>558.3</ele>
        <time>2018-05-19T12:38:48Z</time>
      </trkpt>
      <trkpt lat="44.09975" lon="3.03112">
        <ele>558.6</ele>
        <time>2018-05-19T12:38:50Z</time>
      </trkpt>
      <trkpt lat="44.09979" lon="3.0311">
        <ele>558.6</ele>
        <time>2018-05-19T12:38:52Z</time>
      </trkpt>
      <trkpt lat="44.09981" lon="3.03108">
        <ele>558.9</ele>
        <time>2018-05-19T12:38:54Z</time>
      </trkpt>
      <trkpt lat="44.09984" lon="3.03107">
        <ele>559</ele>
        <time>2018-05-19T12:38:56Z</time>
      </trkpt>
      <trkpt lat="44.09988" lon="3.03106">
        <ele>559.2</ele>
        <time>2018-05-19T12:38:59Z</time>
      </trkpt>
      <trkpt lat="44.0999" lon="3.03107">
        <ele>559.8</ele>
        <time>2018-05-19T12:39:02Z</time>
      </trkpt>
      <trkpt lat="44.09989" lon="3.03111">
        <ele>560</ele>
        <time>2018-05-19T12:39:05Z</time>
      </trkpt>
      <trkpt lat="44.09986" lon="3.03112">
        <ele>559.7</ele>
        <time>2018-05-19T12:39:07Z</time>
      </trkpt>
      <trkpt lat="44.09981" lon="3.03114">
        <ele>559.1</ele>
        <time>2018-05-19T12:39:09Z</time>
      </trkpt>
      <trkpt lat="44.09978" lon="3.03116">
        <ele>559</ele>
        <time>2018-05-19T12:39:10Z</time>
      </trkpt>
      <trkpt lat="44.09974" lon="3.03119">
        <ele>558.7</ele>
        <time>2018-05-19T12:39:11Z</time>
      </trkpt>
      <trkpt lat="44.09971" lon="3.03122">
        <ele>558.6</ele>
        <time>2018-05-19T12:39:12Z</time>
      </trkpt>
      <trkpt lat="44.09965" lon="3.03126">
        <ele>558.2</ele>
        <time>2018-05-19T12:39:13Z</time>
      </trkpt>
      <trkpt lat="44.0996" lon="3.0313">
        <ele>557.8</ele>
        <time>2018-05-19T12:39:14Z</time>
      </trkpt>
      <trkpt lat="44.09955" lon="3.03133">
        <ele>557.7</ele>
        <time>2018-05-19T12:39:15Z</time>
      </trkpt>
      <trkpt lat="44.0995" lon="3.03137">
        <ele>557.4</ele>
        <time>2018-05-19T12:39:16Z</time>
      </trkpt>
      <trkpt lat="44.09946" lon="3.0314">
        <ele>557.1</ele>
        <time>2018-05-19T12:39:17Z</time>
      </trkpt>
      <trkpt lat="44.09942" lon="3.0314">
        <ele>556.7</ele>
        <time>2018-05-19T12:39:18Z</time>
      </trkpt>
      <trkpt lat="44.0994" lon="3.03138">
        <ele>556.4</ele>
        <time>2018-05-19T12:39:24Z</time>
      </trkpt>
      <trkpt lat="44.09935" lon="3.03142">
        <ele>555.9</ele>
        <time>2018-05-19T12:41:00Z</time>
      </trkpt>
      <trkpt lat="44.09932" lon="3.03141">
        <ele>555.7</ele>
        <time>2018-05-19T12:41:58Z</time>
      </trkpt>
      <trkpt lat="44.09929" lon="3.03145">
        <ele>555.4</ele>
        <time>2018-05-19T12:42:00Z</time>
      </trkpt>
      <trkpt lat="44.09925" lon="3.0315">
        <ele>555.3</ele>
        <time>2018-05-19T12:42:02Z</time>
      </trkpt>
      <trkpt lat="44.09922" lon="3.03153">
        <ele>554.9</ele>
        <time>2018-05-19T12:42:03Z</time>
      </trkpt>
      <trkpt lat="44.09919" lon="3.03157">
        <ele>554.5</ele>
        <time>2018-05-19T12:42:04Z</time>
      </trkpt>
      <trkpt lat="44.09914" lon="3.03159">
        <ele>553.7</ele>
        <time>2018-05-19T12:42:05Z</time>
      </trkpt>
      <trkpt lat="44.09909" lon="3.03162">
        <ele>553.3</ele>
        <time>2018-05-19T12:42:06Z</time>
      </trkpt>
      <trkpt lat="44.09903" lon="3.03164">
        <ele>552.5</ele>
        <time>2018-05-19T12:42:07Z</time>
      </trkpt>
      <trkpt lat="44.09897" lon="3.03164">
        <ele>551.6</ele>
        <time>2018-05-19T12:42:08Z</time>
      </trkpt>
      <trkpt lat="44.09889" lon="3.03163">
        <ele>550.1</ele>
        <time>2018-05-19T12:42:09Z</time>
      </trkpt>
      <trkpt lat="44.09881" lon="3.03162">
        <ele>548.8</ele>
        <time>2018-05-19T12:42:10Z</time>
      </trkpt>
      <trkpt lat="44.09874" lon="3.03164">
        <ele>547.2</ele>
        <time>2018-05-19T12:42:11Z</time>
      </trkpt>
      <trkpt lat="44.09866" lon="3.03166">
        <ele>545.9</ele>
        <time>2018-05-19T12:42:12Z</time>
      </trkpt>
      <trkpt lat="44.09858" lon="3.03168">
        <ele>544</ele>
        <time>2018-05-19T12:42:13Z</time>
      </trkpt>
      <trkpt lat="44.09852" lon="3.03171">
        <ele>542.4</ele>
        <time>2018-05-19T12:42:14Z</time>
      </trkpt>
      <trkpt lat="44.09846" lon="3.03175">
        <ele>541.4</ele>
        <time>2018-05-19T12:42:15Z</time>
      </trkpt>
      <trkpt lat="44.09844" lon="3.03181">
        <ele>542.1</ele>
        <time>2018-05-19T12:42:16Z</time>
      </trkpt>
      <trkpt lat="44.09842" lon="3.03186">
        <ele>541.8</ele>
        <time>2018-05-19T12:42:17Z</time>
      </trkpt>
      <trkpt lat="44.09843" lon="3.03192">
        <ele>542.1</ele>
        <time>2018-05-19T12:42:18Z</time>
      </trkpt>
      <trkpt lat="44.09844" lon="3.03199">
        <ele>543.1</ele>
        <time>2018-05-19T12:42:19Z</time>
      </trkpt>
      <trkpt lat="44.09844" lon="3.03209">
        <ele>543.3</ele>
        <time>2018-05-19T12:42:20Z</time>
      </trkpt>
      <trkpt lat="44.09845" lon="3.03219">
        <ele>543.2</ele>
        <time>2018-05-19T12:42:21Z</time>
      </trkpt>
      <trkpt lat="44.09846" lon="3.03229">
        <ele>542.6</ele>
        <time>2018-05-19T12:42:22Z</time>
      </trkpt>
      <trkpt lat="44.09848" lon="3.03239">
        <ele>542.3</ele>
        <time>2018-05-19T12:42:23Z</time>
      </trkpt>
      <trkpt lat="44.09851" lon="3.03246">
        <ele>541.7</ele>
        <time>2018-05-19T12:42:24Z</time>
      </trkpt>
      <trkpt lat="44.09855" lon="3.03253">
        <ele>541</ele>
        <time>2018-05-19T12:42:25Z</time>
      </trkpt>
      <trkpt lat="44.09859" lon="3.03253">
        <ele>541.9</ele>
        <time>2018-05-19T12:42:26Z</time>
      </trkpt>
      <trkpt lat="44.09862" lon="3.03254">
        <ele>541.9</ele>
        <time>2018-05-19T12:42:27Z</time>
      </trkpt>
      <trkpt lat="44.09864" lon="3.03261">
        <ele>541.1</ele>
        <time>2018-05-19T12:42:29Z</time>
      </trkpt>
      <trkpt lat="44.09866" lon="3.03265">
        <ele>541.6</ele>
        <time>2018-05-19T12:42:30Z</time>
      </trkpt>
      <trkpt lat="44.09869" lon="3.03271">
        <ele>540.7</ele>
        <time>2018-05-19T12:42:31Z</time>
      </trkpt>
      <trkpt lat="44.09872" lon="3.03277">
        <ele>540.4</ele>
        <time>2018-05-19T12:42:32Z</time>
      </trkpt>
      <trkpt lat="44.09874" lon="3.03282">
        <ele>539.8</ele>
        <time>2018-05-19T12:42:33Z</time>
      </trkpt>
      <trkpt lat="44.09876" lon="3.03287">
        <ele>539.6</ele>
        <time>2018-05-19T12:42:34Z</time>
      </trkpt>
      <trkpt lat="44.09878" lon="3.03291">
        <ele>539.4</ele>
        <time>2018-05-19T12:42:35Z</time>
      </trkpt>
      <trkpt lat="44.09882" lon="3.03297">
        <ele>538.6</ele>
        <time>2018-05-19T12:42:36Z</time>
      </trkpt>
      <trkpt lat="44.09889" lon="3.03303">
        <ele>538.8</ele>
        <time>2018-05-19T12:42:37Z</time>
      </trkpt>
      <trkpt lat="44.09891" lon="3.03309">
        <ele>538</ele>
        <time>2018-05-19T12:42:38Z</time>
      </trkpt>
      <trkpt lat="44.09893" lon="3.03315">
        <ele>537.5</ele>
        <time>2018-05-19T12:42:39Z</time>
      </trkpt>
      <trkpt lat="44.09893" lon="3.03323">
        <ele>536.9</ele>
        <time>2018-05-19T12:42:40Z</time>
      </trkpt>
      <trkpt lat="44.09895" lon="3.0333">
        <ele>536.1</ele>
        <time>2018-05-19T12:42:41Z</time>
      </trkpt>
      <trkpt lat="44.09899" lon="3.03335">
        <ele>536.2</ele>
        <time>2018-05-19T12:42:42Z</time>
      </trkpt>
      <trkpt lat="44.09903" lon="3.03341">
        <ele>536.1</ele>
        <time>2018-05-19T12:42:43Z</time>
      </trkpt>
      <trkpt lat="44.09906" lon="3.03347">
        <ele>536</ele>
        <time>2018-05-19T12:42:44Z</time>
      </trkpt>
      <trkpt lat="44.09912" lon="3.0335">
        <ele>536.2</ele>
        <time>2018-05-19T12:42:45Z</time>
      </trkpt>
      <trkpt lat="44.09915" lon="3.03352">
        <ele>536.3</ele>
        <time>2018-05-19T12:42:46Z</time>
      </trkpt>
      <trkpt lat="44.09915" lon="3.03357">
        <ele>535.9</ele>
        <time>2018-05-19T12:42:47Z</time>
      </trkpt>
      <trkpt lat="44.09918" lon="3.03359">
        <ele>536.3</ele>
        <time>2018-05-19T12:42:48Z</time>
      </trkpt>
      <trkpt lat="44.09922" lon="3.03365">
        <ele>536.1</ele>
        <time>2018-05-19T12:42:50Z</time>
      </trkpt>
      <trkpt lat="44.09923" lon="3.03369">
        <ele>535.9</ele>
        <time>2018-05-19T12:42:51Z</time>
      </trkpt>
      <trkpt lat="44.09926" lon="3.03372">
        <ele>536.2</ele>
        <time>2018-05-19T12:42:52Z</time>
      </trkpt>
      <trkpt lat="44.09933" lon="3.03374">
        <ele>536.7</ele>
        <time>2018-05-19T12:42:54Z</time>
      </trkpt>
      <trkpt lat="44.09936" lon="3.03376">
        <ele>536.7</ele>
        <time>2018-05-19T12:42:55Z</time>
      </trkpt>
      <trkpt lat="44.09937" lon="3.0338">
        <ele>536.8</ele>
        <time>2018-05-19T12:42:56Z</time>
      </trkpt>
      <trkpt lat="44.09939" lon="3.03384">
        <ele>536.6</ele>
        <time>2018-05-19T12:42:57Z</time>
      </trkpt>
      <trkpt lat="44.09939" lon="3.03389">
        <ele>536.8</ele>
        <time>2018-05-19T12:42:59Z</time>
      </trkpt>
      <trkpt lat="44.09937" lon="3.03392">
        <ele>536.5</ele>
        <time>2018-05-19T12:43:01Z</time>
      </trkpt>
      <trkpt lat="44.09935" lon="3.03396">
        <ele>536.2</ele>
        <time>2018-05-19T12:43:03Z</time>
      </trkpt>
      <trkpt lat="44.09933" lon="3.034">
        <ele>535.9</ele>
        <time>2018-05-19T12:43:05Z</time>
      </trkpt>
      <trkpt lat="44.09931" lon="3.03405">
        <ele>535.9</ele>
        <time>2018-05-19T12:43:07Z</time>
      </trkpt>
      <trkpt lat="44.09928" lon="3.03408">
        <ele>535.6</ele>
        <time>2018-05-19T12:43:09Z</time>
      </trkpt>
      <trkpt lat="44.09925" lon="3.03412">
        <ele>535.3</ele>
        <time>2018-05-19T12:43:12Z</time>
      </trkpt>
      <trkpt lat="44.09922" lon="3.03415">
        <ele>535</ele>
        <time>2018-05-19T12:43:14Z</time>
      </trkpt>
      <trkpt lat="44.09919" lon="3.03418">
        <ele>534.7</ele>
        <time>2018-05-19T12:43:16Z</time>
      </trkpt>
      <trkpt lat="44.09916" lon="3.03421">
        <ele>534.4</ele>
        <time>2018-05-19T12:43:18Z</time>
      </trkpt>
      <trkpt lat="44.09914" lon="3.03424">
        <ele>534.1</ele>
        <time>2018-05-19T12:43:20Z</time>
      </trkpt>
      <trkpt lat="44.09911" lon="3.03428">
        <ele>534.2</ele>
        <time>2018-05-19T12:43:22Z</time>
      </trkpt>
      <trkpt lat="44.09909" lon="3.0343">
        <ele>534</ele>
        <time>2018-05-19T12:43:24Z</time>
      </trkpt>
      <trkpt lat="44.09907" lon="3.03433">
        <ele>533.7</ele>
        <time>2018-05-19T12:43:26Z</time>
      </trkpt>
      <trkpt lat="44.09904" lon="3.03436">
        <ele>533.6</ele>
        <time>2018-05-19T12:43:28Z</time>
      </trkpt>
      <trkpt lat="44.09902" lon="3.03439">
        <ele>533.8</ele>
        <time>2018-05-19T12:43:41Z</time>
      </trkpt>
      <trkpt lat="44.099" lon="3.03441">
        <ele>533.5</ele>
        <time>2018-05-19T12:43:46Z</time>
      </trkpt>
      <trkpt lat="44.09903" lon="3.0344">
        <ele>533.8</ele>
        <time>2018-05-19T12:43:55Z</time>
      </trkpt>
      <trkpt lat="44.099" lon="3.0344">
        <ele>533.5</ele>
        <time>2018-05-19T12:44:02Z</time>
      </trkpt>
      <trkpt lat="44.09896" lon="3.03442">
        <ele>533.4</ele>
        <time>2018-05-19T12:44:04Z</time>
      </trkpt>
      <trkpt lat="44.09891" lon="3.03446">
        <ele>532.6</ele>
        <time>2018-05-19T12:44:06Z</time>
      </trkpt>
      <trkpt lat="44.09888" lon="3.03448">
        <ele>532.5</ele>
        <time>2018-05-19T12:44:08Z</time>
      </trkpt>
      <trkpt lat="44.09885" lon="3.0345">
        <ele>532.1</ele>
        <time>2018-05-19T12:44:10Z</time>
      </trkpt>
      <trkpt lat="44.09882" lon="3.03453">
        <ele>532.1</ele>
        <time>2018-05-19T12:44:13Z</time>
      </trkpt>
      <trkpt lat="44.09879" lon="3.03454">
        <ele>531.6</ele>
        <time>2018-05-19T12:44:15Z</time>
      </trkpt>
      <trkpt lat="44.09876" lon="3.03457">
        <ele>531.7</ele>
        <time>2018-05-19T12:44:18Z</time>
      </trkpt>
      <trkpt lat="44.09873" lon="3.03459">
        <ele>531.8</ele>
        <time>2018-05-19T12:44:20Z</time>
      </trkpt>
      <trkpt lat="44.09869" lon="3.03461">
        <ele>531.4</ele>
        <time>2018-05-19T12:44:22Z</time>
      </trkpt>
      <trkpt lat="44.09866" lon="3.03462">
        <ele>531</ele>
        <time>2018-05-19T12:44:23Z</time>
      </trkpt>
      <trkpt lat="44.09863" lon="3.03463">
        <ele>531.1</ele>
        <time>2018-05-19T12:44:24Z</time>
      </trkpt>
      <trkpt lat="44.0986" lon="3.03464">
        <ele>530.7</ele>
        <time>2018-05-19T12:44:25Z</time>
      </trkpt>
      <trkpt lat="44.09857" lon="3.03466">
        <ele>530.3</ele>
        <time>2018-05-19T12:44:26Z</time>
      </trkpt>
      <trkpt lat="44.09854" lon="3.03467">
        <ele>529.8</ele>
        <time>2018-05-19T12:44:27Z</time>
      </trkpt>
      <trkpt lat="44.09851" lon="3.03468">
        <ele>530</ele>
        <time>2018-05-19T12:44:28Z</time>
      </trkpt>
      <trkpt lat="44.09848" lon="3.03469">
        <ele>529.6</ele>
        <time>2018-05-19T12:44:29Z</time>
      </trkpt>
      <trkpt lat="44.09845" lon="3.0347">
        <ele>529.1</ele>
        <time>2018-05-19T12:44:30Z</time>
      </trkpt>
      <trkpt lat="44.09842" lon="3.03471">
        <ele>528.6</ele>
        <time>2018-05-19T12:44:31Z</time>
      </trkpt>
      <trkpt lat="44.09838" lon="3.03472">
        <ele>528.9</ele>
        <time>2018-05-19T12:44:32Z</time>
      </trkpt>
      <trkpt lat="44.09834" lon="3.03473">
        <ele>527.8</ele>
        <time>2018-05-19T12:44:33Z</time>
      </trkpt>
      <trkpt lat="44.0983" lon="3.03474">
        <ele>527.2</ele>
        <time>2018-05-19T12:44:34Z</time>
      </trkpt>
      <trkpt lat="44.09826" lon="3.03476">
        <ele>526.6</ele>
        <time>2018-05-19T12:44:35Z</time>
      </trkpt>
      <trkpt lat="44.09822" lon="3.03477">
        <ele>526.8</ele>
        <time>2018-05-19T12:44:36Z</time>
      </trkpt>
      <trkpt lat="44.09816" lon="3.03478">
        <ele>525.6</ele>
        <time>2018-05-19T12:44:37Z</time>
      </trkpt>
      <trkpt lat="44.09811" lon="3.03479">
        <ele>524.4</ele>
        <time>2018-05-19T12:44:38Z</time>
      </trkpt>
      <trkpt lat="44.09805" lon="3.03482">
        <ele>523.6</ele>
        <time>2018-05-19T12:44:39Z</time>
      </trkpt>
      <trkpt lat="44.098" lon="3.03484">
        <ele>522.8</ele>
        <time>2018-05-19T12:44:40Z</time>
      </trkpt>
      <trkpt lat="44.09797" lon="3.03487">
        <ele>522.2</ele>
        <time>2018-05-19T12:44:41Z</time>
      </trkpt>
      <trkpt lat="44.09793" lon="3.0349">
        <ele>522.2</ele>
        <time>2018-05-19T12:44:42Z</time>
      </trkpt>
      <trkpt lat="44.0979" lon="3.03493">
        <ele>521.6</ele>
        <time>2018-05-19T12:44:43Z</time>
      </trkpt>
      <trkpt lat="44.09788" lon="3.03495">
        <ele>521.7</ele>
        <time>2018-05-19T12:44:44Z</time>
      </trkpt>
      <trkpt lat="44.09782" lon="3.03498">
        <ele>521.9</ele>
        <time>2018-05-19T12:44:46Z</time>
      </trkpt>
      <trkpt lat="44.09779" lon="3.035">
        <ele>520.5</ele>
        <time>2018-05-19T12:44:47Z</time>
      </trkpt>
      <trkpt lat="44.09775" lon="3.03502">
        <ele>520.7</ele>
        <time>2018-05-19T12:44:48Z</time>
      </trkpt>
      <trkpt lat="44.09771" lon="3.03506">
        <ele>520.9</ele>
        <time>2018-05-19T12:44:50Z</time>
      </trkpt>
      <trkpt lat="44.09769" lon="3.03509">
        <ele>520.2</ele>
        <time>2018-05-19T12:44:51Z</time>
      </trkpt>
      <trkpt lat="44.09766" lon="3.0351">
        <ele>520.4</ele>
        <time>2018-05-19T12:44:52Z</time>
      </trkpt>
      <trkpt lat="44.09763" lon="3.03512">
        <ele>519.7</ele>
        <time>2018-05-19T12:44:54Z</time>
      </trkpt>
      <trkpt lat="44.09761" lon="3.03511">
        <ele>519.7</ele>
        <time>2018-05-19T12:45:08Z</time>
      </trkpt>
      <trkpt lat="44.09763" lon="3.03514">
        <ele>519.6</ele>
        <time>2018-05-19T12:45:14Z</time>
      </trkpt>
      <trkpt lat="44.0976" lon="3.03514">
        <ele>519</ele>
        <time>2018-05-19T12:45:50Z</time>
      </trkpt>
      <trkpt lat="44.09756" lon="3.03515">
        <ele>519.2</ele>
        <time>2018-05-19T12:46:42Z</time>
      </trkpt>
      <trkpt lat="44.09753" lon="3.03515">
        <ele>518.5</ele>
        <time>2018-05-19T12:46:43Z</time>
      </trkpt>
      <trkpt lat="44.09749" lon="3.03515">
        <ele>517.9</ele>
        <time>2018-05-19T12:46:44Z</time>
      </trkpt>
      <trkpt lat="44.09746" lon="3.03515">
        <ele>517.3</ele>
        <time>2018-05-19T12:46:45Z</time>
      </trkpt>
      <trkpt lat="44.09742" lon="3.03515">
        <ele>516.2</ele>
        <time>2018-05-19T12:46:46Z</time>
      </trkpt>
      <trkpt lat="44.09734" lon="3.03514">
        <ele>514.3</ele>
        <time>2018-05-19T12:46:47Z</time>
      </trkpt>
      <trkpt lat="44.09728" lon="3.03512">
        <ele>513.5</ele>
        <time>2018-05-19T12:46:48Z</time>
      </trkpt>
      <trkpt lat="44.09721" lon="3.03511">
        <ele>512.6</ele>
        <time>2018-05-19T12:46:49Z</time>
      </trkpt>
      <trkpt lat="44.09714" lon="3.0351">
        <ele>510.8</ele>
        <time>2018-05-19T12:46:50Z</time>
      </trkpt>
      <trkpt lat="44.09707" lon="3.03509">
        <ele>509.8</ele>
        <time>2018-05-19T12:46:51Z</time>
      </trkpt>
      <trkpt lat="44.097" lon="3.03507">
        <ele>509</ele>
        <time>2018-05-19T12:46:52Z</time>
      </trkpt>
      <trkpt lat="44.09693" lon="3.03506">
        <ele>507.9</ele>
        <time>2018-05-19T12:46:53Z</time>
      </trkpt>
      <trkpt lat="44.09685" lon="3.03506">
        <ele>506.3</ele>
        <time>2018-05-19T12:46:54Z</time>
      </trkpt>
      <trkpt lat="44.09676" lon="3.03508">
        <ele>504.8</ele>
        <time>2018-05-19T12:46:55Z</time>
      </trkpt>
      <trkpt lat="44.0967" lon="3.0351">
        <ele>503.3</ele>
        <time>2018-05-19T12:46:56Z</time>
      </trkpt>
      <trkpt lat="44.09666" lon="3.03511">
        <ele>503.5</ele>
        <time>2018-05-19T12:46:57Z</time>
      </trkpt>
      <trkpt lat="44.09662" lon="3.03512">
        <ele>502.7</ele>
        <time>2018-05-19T12:46:58Z</time>
      </trkpt>
      <trkpt lat="44.0966" lon="3.03511">
        <ele>501.8</ele>
        <time>2018-05-19T12:46:59Z</time>
      </trkpt>
      <trkpt lat="44.09657" lon="3.03511">
        <ele>501</ele>
        <time>2018-05-19T12:47:00Z</time>
      </trkpt>
      <trkpt lat="44.09652" lon="3.03511">
        <ele>500.1</ele>
        <time>2018-05-19T12:47:01Z</time>
      </trkpt>
      <trkpt lat="44.09648" lon="3.03511">
        <ele>498.1</ele>
        <time>2018-05-19T12:47:02Z</time>
      </trkpt>
      <trkpt lat="44.09643" lon="3.03514">
        <ele>495.9</ele>
        <time>2018-05-19T12:47:03Z</time>
      </trkpt>
      <trkpt lat="44.09639" lon="3.03517">
        <ele>495.7</ele>
        <time>2018-05-19T12:47:04Z</time>
      </trkpt>
      <trkpt lat="44.09635" lon="3.03522">
        <ele>495.4</ele>
        <time>2018-05-19T12:47:05Z</time>
      </trkpt>
      <trkpt lat="44.09632" lon="3.03528">
        <ele>496.4</ele>
        <time>2018-05-19T12:47:06Z</time>
      </trkpt>
      <trkpt lat="44.09629" lon="3.03535">
        <ele>496.2</ele>
        <time>2018-05-19T12:47:07Z</time>
      </trkpt>
      <trkpt lat="44.09627" lon="3.03543">
        <ele>497.3</ele>
        <time>2018-05-19T12:47:08Z</time>
      </trkpt>
      <trkpt lat="44.09625" lon="3.03552">
        <ele>499.5</ele>
        <time>2018-05-19T12:47:09Z</time>
      </trkpt>
      <trkpt lat="44.09624" lon="3.0356">
        <ele>500.4</ele>
        <time>2018-05-19T12:47:10Z</time>
      </trkpt>
      <trkpt lat="44.09624" lon="3.03571">
        <ele>503.1</ele>
        <time>2018-05-19T12:47:11Z</time>
      </trkpt>
      <trkpt lat="44.09624" lon="3.03582">
        <ele>504.9</ele>
        <time>2018-05-19T12:47:12Z</time>
      </trkpt>
      <trkpt lat="44.09625" lon="3.03591">
        <ele>506.4</ele>
        <time>2018-05-19T12:47:13Z</time>
      </trkpt>
      <trkpt lat="44.09624" lon="3.036">
        <ele>507.5</ele>
        <time>2018-05-19T12:47:14Z</time>
      </trkpt>
      <trkpt lat="44.09623" lon="3.03609">
        <ele>508.5</ele>
        <time>2018-05-19T12:47:15Z</time>
      </trkpt>
      <trkpt lat="44.09621" lon="3.03618">
        <ele>509</ele>
        <time>2018-05-19T12:47:16Z</time>
      </trkpt>
      <trkpt lat="44.09617" lon="3.03627">
        <ele>508.9</ele>
        <time>2018-05-19T12:47:17Z</time>
      </trkpt>
      <trkpt lat="44.09613" lon="3.03634">
        <ele>508.3</ele>
        <time>2018-05-19T12:47:18Z</time>
      </trkpt>
      <trkpt lat="44.0961" lon="3.03643">
        <ele>508</ele>
        <time>2018-05-19T12:47:19Z</time>
      </trkpt>
      <trkpt lat="44.09606" lon="3.03651">
        <ele>506.6</ele>
        <time>2018-05-19T12:47:20Z</time>
      </trkpt>
      <trkpt lat="44.09602" lon="3.03659">
        <ele>506.4</ele>
        <time>2018-05-19T12:47:21Z</time>
      </trkpt>
      <trkpt lat="44.09597" lon="3.03666">
        <ele>506.3</ele>
        <time>2018-05-19T12:47:22Z</time>
      </trkpt>
      <trkpt lat="44.09595" lon="3.03673">
        <ele>505.7</ele>
        <time>2018-05-19T12:47:23Z</time>
      </trkpt>
      <trkpt lat="44.09594" lon="3.03683">
        <ele>505.7</ele>
        <time>2018-05-19T12:47:24Z</time>
      </trkpt>
      <trkpt lat="44.09594" lon="3.03692">
        <ele>507</ele>
        <time>2018-05-19T12:47:25Z</time>
      </trkpt>
      <trkpt lat="44.09596" lon="3.03702">
        <ele>507.2</ele>
        <time>2018-05-19T12:47:26Z</time>
      </trkpt>
      <trkpt lat="44.09596" lon="3.03712">
        <ele>507.7</ele>
        <time>2018-05-19T12:47:27Z</time>
      </trkpt>
      <trkpt lat="44.09595" lon="3.03723">
        <ele>507.9</ele>
        <time>2018-05-19T12:47:28Z</time>
      </trkpt>
      <trkpt lat="44.09594" lon="3.03734">
        <ele>507.6</ele>
        <time>2018-05-19T12:47:29Z</time>
      </trkpt>
      <trkpt lat="44.09593" lon="3.03742">
        <ele>507.8</ele>
        <time>2018-05-19T12:47:30Z</time>
      </trkpt>
      <trkpt lat="44.09592" lon="3.03749">
        <ele>507.9</ele>
        <time>2018-05-19T12:47:31Z</time>
      </trkpt>
      <trkpt lat="44.09591" lon="3.03754">
        <ele>508</ele>
        <time>2018-05-19T12:47:32Z</time>
      </trkpt>
      <trkpt lat="44.09591" lon="3.03758">
        <ele>508.1</ele>
        <time>2018-05-19T12:47:33Z</time>
      </trkpt>
      <trkpt lat="44.09589" lon="3.03762">
        <ele>507.3</ele>
        <time>2018-05-19T12:47:35Z</time>
      </trkpt>
      <trkpt lat="44.09591" lon="3.03753">
        <ele>507.8</ele>
        <time>2018-05-19T12:48:09Z</time>
      </trkpt>
      <trkpt lat="44.09592" lon="3.03749">
        <ele>507.6</ele>
        <time>2018-05-19T12:48:11Z</time>
      </trkpt>
      <trkpt lat="44.09593" lon="3.03743">
        <ele>507.3</ele>
        <time>2018-05-19T12:48:13Z</time>
      </trkpt>
      <trkpt lat="44.09595" lon="3.03739">
        <ele>507.9</ele>
        <time>2018-05-19T12:48:17Z</time>
      </trkpt>
      <trkpt lat="44.09595" lon="3.03743">
        <ele>508</ele>
        <time>2018-05-19T12:48:33Z</time>
      </trkpt>
      <trkpt lat="44.09596" lon="3.03747">
        <ele>508</ele>
        <time>2018-05-19T12:48:37Z</time>
      </trkpt>
      <trkpt lat="44.09596" lon="3.03752">
        <ele>508.1</ele>
        <time>2018-05-19T12:48:41Z</time>
      </trkpt>
      <trkpt lat="44.09596" lon="3.03756">
        <ele>508.2</ele>
        <time>2018-05-19T12:48:45Z</time>
      </trkpt>
      <trkpt lat="44.09597" lon="3.03761">
        <ele>508.2</ele>
        <time>2018-05-19T12:48:50Z</time>
      </trkpt>
      <trkpt lat="44.09599" lon="3.03764">
        <ele>508.9</ele>
        <time>2018-05-19T12:48:55Z</time>
      </trkpt>
      <trkpt lat="44.09599" lon="3.03768">
        <ele>508.9</ele>
        <time>2018-05-19T12:49:01Z</time>
      </trkpt>
      <trkpt lat="44.09601" lon="3.03773">
        <ele>509.4</ele>
        <time>2018-05-19T12:49:05Z</time>
      </trkpt>
      <trkpt lat="44.09603" lon="3.03776">
        <ele>509.5</ele>
        <time>2018-05-19T12:49:08Z</time>
      </trkpt>
      <trkpt lat="44.09603" lon="3.03781">
        <ele>510.1</ele>
        <time>2018-05-19T12:49:13Z</time>
      </trkpt>
      <trkpt lat="44.09605" lon="3.03785">
        <ele>510</ele>
        <time>2018-05-19T12:49:17Z</time>
      </trkpt>
      <trkpt lat="44.09608" lon="3.03788">
        <ele>510.7</ele>
        <time>2018-05-19T12:49:21Z</time>
      </trkpt>
      <trkpt lat="44.09608" lon="3.03792">
        <ele>510.6</ele>
        <time>2018-05-19T12:49:25Z</time>
      </trkpt>
      <trkpt lat="44.09609" lon="3.03796">
        <ele>510.4</ele>
        <time>2018-05-19T12:49:28Z</time>
      </trkpt>
      <trkpt lat="44.0961" lon="3.038">
        <ele>511.1</ele>
        <time>2018-05-19T12:49:32Z</time>
      </trkpt>
      <trkpt lat="44.0961" lon="3.03804">
        <ele>510.9</ele>
        <time>2018-05-19T12:49:36Z</time>
      </trkpt>
      <trkpt lat="44.0961" lon="3.03808">
        <ele>510.9</ele>
        <time>2018-05-19T12:49:40Z</time>
      </trkpt>
      <trkpt lat="44.09609" lon="3.03812">
        <ele>510.8</ele>
        <time>2018-05-19T12:49:46Z</time>
      </trkpt>
      <trkpt lat="44.09609" lon="3.03818">
        <ele>510.1</ele>
        <time>2018-05-19T12:49:48Z</time>
      </trkpt>
      <trkpt lat="44.09608" lon="3.03825">
        <ele>510</ele>
        <time>2018-05-19T12:49:50Z</time>
      </trkpt>
      <trkpt lat="44.09607" lon="3.03831">
        <ele>509.9</ele>
        <time>2018-05-19T12:49:52Z</time>
      </trkpt>
      <trkpt lat="44.09607" lon="3.03835">
        <ele>509.9</ele>
        <time>2018-05-19T12:49:53Z</time>
      </trkpt>
      <trkpt lat="44.09606" lon="3.03839">
        <ele>509.8</ele>
        <time>2018-05-19T12:49:54Z</time>
      </trkpt>
      <trkpt lat="44.09606" lon="3.03844">
        <ele>509.2</ele>
        <time>2018-05-19T12:49:55Z</time>
      </trkpt>
      <trkpt lat="44.09606" lon="3.03848">
        <ele>509.1</ele>
        <time>2018-05-19T12:49:56Z</time>
      </trkpt>
      <trkpt lat="44.09606" lon="3.03853">
        <ele>509</ele>
        <time>2018-05-19T12:49:57Z</time>
      </trkpt>
      <trkpt lat="44.09606" lon="3.03857">
        <ele>508.8</ele>
        <time>2018-05-19T12:49:58Z</time>
      </trkpt>
      <trkpt lat="44.09606" lon="3.03862">
        <ele>508.6</ele>
        <time>2018-05-19T12:49:59Z</time>
      </trkpt>
      <trkpt lat="44.09606" lon="3.03866">
        <ele>508.4</ele>
        <time>2018-05-19T12:50:00Z</time>
      </trkpt>
      <trkpt lat="44.09606" lon="3.0387">
        <ele>508.1</ele>
        <time>2018-05-19T12:50:01Z</time>
      </trkpt>
      <trkpt lat="44.09607" lon="3.03874">
        <ele>508.4</ele>
        <time>2018-05-19T12:50:02Z</time>
      </trkpt>
      <trkpt lat="44.09608" lon="3.03881">
        <ele>507.9</ele>
        <time>2018-05-19T12:50:04Z</time>
      </trkpt>
      <trkpt lat="44.09609" lon="3.03885">
        <ele>507.6</ele>
        <time>2018-05-19T12:50:05Z</time>
      </trkpt>
      <trkpt lat="44.09609" lon="3.03889">
        <ele>507.3</ele>
        <time>2018-05-19T12:50:06Z</time>
      </trkpt>
      <trkpt lat="44.0961" lon="3.03892">
        <ele>507.4</ele>
        <time>2018-05-19T12:50:07Z</time>
      </trkpt>
      <trkpt lat="44.09612" lon="3.03896">
        <ele>507.4</ele>
        <time>2018-05-19T12:50:08Z</time>
      </trkpt>
      <trkpt lat="44.09614" lon="3.03899">
        <ele>507.5</ele>
        <time>2018-05-19T12:50:09Z</time>
      </trkpt>
      <trkpt lat="44.09616" lon="3.03903">
        <ele>507.5</ele>
        <time>2018-05-19T12:50:10Z</time>
      </trkpt>
      <trkpt lat="44.09619" lon="3.03906">
        <ele>507.4</ele>
        <time>2018-05-19T12:50:11Z</time>
      </trkpt>
      <trkpt lat="44.09622" lon="3.03909">
        <ele>507.1</ele>
        <time>2018-05-19T12:50:12Z</time>
      </trkpt>
      <trkpt lat="44.09625" lon="3.03913">
        <ele>507.3</ele>
        <time>2018-05-19T12:50:13Z</time>
      </trkpt>
      <trkpt lat="44.09628" lon="3.03917">
        <ele>507</ele>
        <time>2018-05-19T12:50:14Z</time>
      </trkpt>
      <trkpt lat="44.09632" lon="3.03923">
        <ele>506.2</ele>
        <time>2018-05-19T12:50:15Z</time>
      </trkpt>
      <trkpt lat="44.09636" lon="3.03927">
        <ele>505.8</ele>
        <time>2018-05-19T12:50:16Z</time>
      </trkpt>
      <trkpt lat="44.0964" lon="3.03931">
        <ele>505.3</ele>
        <time>2018-05-19T12:50:17Z</time>
      </trkpt>
      <trkpt lat="44.09644" lon="3.03934">
        <ele>505.4</ele>
        <time>2018-05-19T12:50:18Z</time>
      </trkpt>
      <trkpt lat="44.09648" lon="3.03935">
        <ele>505.4</ele>
        <time>2018-05-19T12:50:19Z</time>
      </trkpt>
      <trkpt lat="44.09652" lon="3.03935">
        <ele>504.7</ele>
        <time>2018-05-19T12:50:20Z</time>
      </trkpt>
      <trkpt lat="44.09656" lon="3.03936">
        <ele>504.7</ele>
        <time>2018-05-19T12:50:21Z</time>
      </trkpt>
      <trkpt lat="44.0966" lon="3.03937">
        <ele>504.7</ele>
        <time>2018-05-19T12:50:22Z</time>
      </trkpt>
      <trkpt lat="44.09663" lon="3.03938">
        <ele>504.6</ele>
        <time>2018-05-19T12:50:23Z</time>
      </trkpt>
      <trkpt lat="44.09665" lon="3.03936">
        <ele>504.6</ele>
        <time>2018-05-19T12:50:24Z</time>
      </trkpt>
      <trkpt lat="44.09668" lon="3.03934">
        <ele>505.2</ele>
        <time>2018-05-19T12:50:25Z</time>
      </trkpt>
      <trkpt lat="44.09671" lon="3.03932">
        <ele>505.2</ele>
        <time>2018-05-19T12:50:26Z</time>
      </trkpt>
      <trkpt lat="44.09673" lon="3.0393">
        <ele>505.7</ele>
        <time>2018-05-19T12:50:27Z</time>
      </trkpt>
      <trkpt lat="44.09678" lon="3.03929">
        <ele>505.6</ele>
        <time>2018-05-19T12:50:30Z</time>
      </trkpt>
      <trkpt lat="44.09681" lon="3.03931">
        <ele>505.5</ele>
        <time>2018-05-19T12:50:31Z</time>
      </trkpt>
      <trkpt lat="44.09684" lon="3.03933">
        <ele>504.7</ele>
        <time>2018-05-19T12:50:32Z</time>
      </trkpt>
      <trkpt lat="44.09692" lon="3.03937">
        <ele>503.8</ele>
        <time>2018-05-19T12:50:33Z</time>
      </trkpt>
      <trkpt lat="44.09697" lon="3.03939">
        <ele>503.5</ele>
        <time>2018-05-19T12:50:34Z</time>
      </trkpt>
      <trkpt lat="44.09702" lon="3.0394">
        <ele>502.4</ele>
        <time>2018-05-19T12:50:35Z</time>
      </trkpt>
      <trkpt lat="44.09708" lon="3.03939">
        <ele>502.8</ele>
        <time>2018-05-19T12:50:36Z</time>
      </trkpt>
      <trkpt lat="44.09714" lon="3.03938">
        <ele>502.5</ele>
        <time>2018-05-19T12:50:37Z</time>
      </trkpt>
      <trkpt lat="44.0972" lon="3.03938">
        <ele>502.4</ele>
        <time>2018-05-19T12:50:38Z</time>
      </trkpt>
      <trkpt lat="44.09726" lon="3.03937">
        <ele>502.2</ele>
        <time>2018-05-19T12:50:39Z</time>
      </trkpt>
      <trkpt lat="44.09735" lon="3.03936">
        <ele>501.8</ele>
        <time>2018-05-19T12:50:40Z</time>
      </trkpt>
      <trkpt lat="44.09743" lon="3.03935">
        <ele>501.5</ele>
        <time>2018-05-19T12:50:41Z</time>
      </trkpt>
      <trkpt lat="44.09754" lon="3.03933">
        <ele>502.1</ele>
        <time>2018-05-19T12:50:42Z</time>
      </trkpt>
      <trkpt lat="44.09761" lon="3.03933">
        <ele>502.4</ele>
        <time>2018-05-19T12:50:43Z</time>
      </trkpt>
      <trkpt lat="44.0977" lon="3.03933">
        <ele>503.3</ele>
        <time>2018-05-19T12:50:44Z</time>
      </trkpt>
      <trkpt lat="44.09778" lon="3.03934">
        <ele>504.2</ele>
        <time>2018-05-19T12:50:45Z</time>
      </trkpt>
      <trkpt lat="44.09785" lon="3.03933">
        <ele>505.3</ele>
        <time>2018-05-19T12:50:46Z</time>
      </trkpt>
      <trkpt lat="44.09794" lon="3.03933">
        <ele>506.8</ele>
        <time>2018-05-19T12:50:47Z</time>
      </trkpt>
      <trkpt lat="44.09801" lon="3.03932">
        <ele>508.2</ele>
        <time>2018-05-19T12:50:48Z</time>
      </trkpt>
      <trkpt lat="44.09802" lon="3.03929">
        <ele>508.8</ele>
        <time>2018-05-19T12:50:49Z</time>
      </trkpt>
      <trkpt lat="44.09805" lon="3.03927">
        <ele>509.3</ele>
        <time>2018-05-19T12:50:50Z</time>
      </trkpt>
      <trkpt lat="44.09809" lon="3.03925">
        <ele>510.4</ele>
        <time>2018-05-19T12:50:51Z</time>
      </trkpt>
      <trkpt lat="44.09812" lon="3.03927">
        <ele>510.3</ele>
        <time>2018-05-19T12:50:52Z</time>
      </trkpt>
      <trkpt lat="44.09817" lon="3.03931">
        <ele>511.1</ele>
        <time>2018-05-19T12:50:54Z</time>
      </trkpt>
      <trkpt lat="44.0982" lon="3.03934">
        <ele>510.9</ele>
        <time>2018-05-19T12:50:55Z</time>
      </trkpt>
      <trkpt lat="44.09823" lon="3.03936">
        <ele>510.7</ele>
        <time>2018-05-19T12:50:57Z</time>
      </trkpt>
      <trkpt lat="44.09825" lon="3.0394">
        <ele>509.9</ele>
        <time>2018-05-19T12:50:59Z</time>
      </trkpt>
      <trkpt lat="44.09827" lon="3.03945">
        <ele>509.7</ele>
        <time>2018-05-19T12:51:01Z</time>
      </trkpt>
      <trkpt lat="44.09829" lon="3.03951">
        <ele>509.6</ele>
        <time>2018-05-19T12:51:03Z</time>
      </trkpt>
      <trkpt lat="44.09831" lon="3.03957">
        <ele>508.8</ele>
        <time>2018-05-19T12:51:05Z</time>
      </trkpt>
      <trkpt lat="44.09833" lon="3.03961">
        <ele>508.1</ele>
        <time>2018-05-19T12:51:07Z</time>
      </trkpt>
      <trkpt lat="44.09834" lon="3.03965">
        <ele>507.5</ele>
        <time>2018-05-19T12:51:08Z</time>
      </trkpt>
      <trkpt lat="44.09835" lon="3.0397">
        <ele>507.5</ele>
        <time>2018-05-19T12:51:09Z</time>
      </trkpt>
      <trkpt lat="44.09836" lon="3.03974">
        <ele>506.7</ele>
        <time>2018-05-19T12:51:10Z</time>
      </trkpt>
      <trkpt lat="44.0984" lon="3.0398">
        <ele>506.6</ele>
        <time>2018-05-19T12:51:12Z</time>
      </trkpt>
      <trkpt lat="44.09842" lon="3.03982">
        <ele>506.4</ele>
        <time>2018-05-19T12:51:13Z</time>
      </trkpt>
      <trkpt lat="44.09844" lon="3.03985">
        <ele>507</ele>
        <time>2018-05-19T12:51:14Z</time>
      </trkpt>
      <trkpt lat="44.09846" lon="3.03987">
        <ele>506.1</ele>
        <time>2018-05-19T12:51:15Z</time>
      </trkpt>
      <trkpt lat="44.09848" lon="3.0399">
        <ele>506.8</ele>
        <time>2018-05-19T12:51:16Z</time>
      </trkpt>
      <trkpt lat="44.09851" lon="3.03992">
        <ele>506.5</ele>
        <time>2018-05-19T12:51:17Z</time>
      </trkpt>
      <trkpt lat="44.09854" lon="3.03993">
        <ele>507.2</ele>
        <time>2018-05-19T12:51:18Z</time>
      </trkpt>
      <trkpt lat="44.09857" lon="3.03994">
        <ele>507.9</ele>
        <time>2018-05-19T12:51:19Z</time>
      </trkpt>
      <trkpt lat="44.0986" lon="3.03995">
        <ele>507.6</ele>
        <time>2018-05-19T12:51:20Z</time>
      </trkpt>
      <trkpt lat="44.09863" lon="3.03997">
        <ele>508.3</ele>
        <time>2018-05-19T12:51:21Z</time>
      </trkpt>
      <trkpt lat="44.09866" lon="3.03998">
        <ele>509</ele>
        <time>2018-05-19T12:51:22Z</time>
      </trkpt>
      <trkpt lat="44.0987" lon="3.03999">
        <ele>509.6</ele>
        <time>2018-05-19T12:51:23Z</time>
      </trkpt>
      <trkpt lat="44.09874" lon="3.04">
        <ele>509.3</ele>
        <time>2018-05-19T12:51:24Z</time>
      </trkpt>
      <trkpt lat="44.09877" lon="3.04001">
        <ele>509.9</ele>
        <time>2018-05-19T12:51:25Z</time>
      </trkpt>
      <trkpt lat="44.09881" lon="3.04003">
        <ele>511.1</ele>
        <time>2018-05-19T12:51:26Z</time>
      </trkpt>
      <trkpt lat="44.09885" lon="3.04004">
        <ele>510.7</ele>
        <time>2018-05-19T12:51:27Z</time>
      </trkpt>
      <trkpt lat="44.09889" lon="3.04006">
        <ele>511.4</ele>
        <time>2018-05-19T12:51:28Z</time>
      </trkpt>
      <trkpt lat="44.09893" lon="3.04008">
        <ele>511.7</ele>
        <time>2018-05-19T12:51:29Z</time>
      </trkpt>
      <trkpt lat="44.09897" lon="3.0401">
        <ele>512.3</ele>
        <time>2018-05-19T12:51:30Z</time>
      </trkpt>
      <trkpt lat="44.09901" lon="3.04011">
        <ele>512.9</ele>
        <time>2018-05-19T12:51:31Z</time>
      </trkpt>
      <trkpt lat="44.09904" lon="3.04013">
        <ele>512.3</ele>
        <time>2018-05-19T12:51:32Z</time>
      </trkpt>
      <trkpt lat="44.09907" lon="3.04015">
        <ele>512.8</ele>
        <time>2018-05-19T12:51:33Z</time>
      </trkpt>
      <trkpt lat="44.0991" lon="3.04017">
        <ele>512.1</ele>
        <time>2018-05-19T12:51:34Z</time>
      </trkpt>
      <trkpt lat="44.09913" lon="3.04018">
        <ele>512.7</ele>
        <time>2018-05-19T12:51:35Z</time>
      </trkpt>
      <trkpt lat="44.09915" lon="3.04019">
        <ele>513.3</ele>
        <time>2018-05-19T12:51:36Z</time>
      </trkpt>
      <trkpt lat="44.09921" lon="3.0402">
        <ele>514.5</ele>
        <time>2018-05-19T12:51:38Z</time>
      </trkpt>
      <trkpt lat="44.09924" lon="3.04021">
        <ele>514.5</ele>
        <time>2018-05-19T12:51:39Z</time>
      </trkpt>
      <trkpt lat="44.09928" lon="3.04021">
        <ele>514.2</ele>
        <time>2018-05-19T12:51:41Z</time>
      </trkpt>
      <trkpt lat="44.09931" lon="3.04022">
        <ele>514.7</ele>
        <time>2018-05-19T12:51:43Z</time>
      </trkpt>
      <trkpt lat="44.09934" lon="3.04023">
        <ele>515.2</ele>
        <time>2018-05-19T12:51:45Z</time>
      </trkpt>
      <trkpt lat="44.09938" lon="3.04023">
        <ele>515.7</ele>
        <time>2018-05-19T12:51:47Z</time>
      </trkpt>
      <trkpt lat="44.09941" lon="3.04022">
        <ele>516.3</ele>
        <time>2018-05-19T12:51:52Z</time>
      </trkpt>
      <trkpt lat="44.09943" lon="3.04025">
        <ele>515.5</ele>
        <time>2018-05-19T12:52:00Z</time>
      </trkpt>
      <trkpt lat="44.09945" lon="3.04028">
        <ele>516.1</ele>
        <time>2018-05-19T12:52:05Z</time>
      </trkpt>
      <trkpt lat="44.09948" lon="3.04027">
        <ele>516.1</ele>
        <time>2018-05-19T12:52:09Z</time>
      </trkpt>
      <trkpt lat="44.09951" lon="3.04027">
        <ele>516.7</ele>
        <time>2018-05-19T12:52:14Z</time>
      </trkpt>
      <trkpt lat="44.09954" lon="3.04027">
        <ele>517.2</ele>
        <time>2018-05-19T12:52:17Z</time>
      </trkpt>
      <trkpt lat="44.09957" lon="3.04027">
        <ele>517.6</ele>
        <time>2018-05-19T12:52:22Z</time>
      </trkpt>
      <trkpt lat="44.09958" lon="3.04024">
        <ele>519.4</ele>
        <time>2018-05-19T12:52:27Z</time>
      </trkpt>
      <trkpt lat="44.09963" lon="3.0403">
        <ele>517.1</ele>
        <time>2018-05-19T12:53:30Z</time>
      </trkpt>
      <trkpt lat="44.09965" lon="3.04027">
        <ele>518.9</ele>
        <time>2018-05-19T12:53:51Z</time>
      </trkpt>
      <trkpt lat="44.09968" lon="3.04027">
        <ele>519.4</ele>
        <time>2018-05-19T12:53:53Z</time>
      </trkpt>
      <trkpt lat="44.09972" lon="3.04028">
        <ele>519.8</ele>
        <time>2018-05-19T12:53:56Z</time>
      </trkpt>
      <trkpt lat="44.09974" lon="3.04029">
        <ele>520.2</ele>
        <time>2018-05-19T12:53:58Z</time>
      </trkpt>
      <trkpt lat="44.09979" lon="3.04029">
        <ele>520.9</ele>
        <time>2018-05-19T12:54:00Z</time>
      </trkpt>
      <trkpt lat="44.09984" lon="3.04028">
        <ele>521.2</ele>
        <time>2018-05-19T12:54:02Z</time>
      </trkpt>
      <trkpt lat="44.09988" lon="3.04029">
        <ele>521.5</ele>
        <time>2018-05-19T12:54:04Z</time>
      </trkpt>
      <trkpt lat="44.09991" lon="3.04029">
        <ele>521.9</ele>
        <time>2018-05-19T12:54:05Z</time>
      </trkpt>
      <trkpt lat="44.09995" lon="3.04031">
        <ele>521.2</ele>
        <time>2018-05-19T12:54:06Z</time>
      </trkpt>
      <trkpt lat="44.09998" lon="3.04032">
        <ele>521.6</ele>
        <time>2018-05-19T12:54:07Z</time>
      </trkpt>
      <trkpt lat="44.10002" lon="3.04034">
        <ele>520.7</ele>
        <time>2018-05-19T12:54:08Z</time>
      </trkpt>
      <trkpt lat="44.10005" lon="3.04036">
        <ele>521.1</ele>
        <time>2018-05-19T12:54:09Z</time>
      </trkpt>
      <trkpt lat="44.10009" lon="3.0404">
        <ele>520.3</ele>
        <time>2018-05-19T12:54:11Z</time>
      </trkpt>
      <trkpt lat="44.10012" lon="3.04042">
        <ele>520.7</ele>
        <time>2018-05-19T12:54:12Z</time>
      </trkpt>
      <trkpt lat="44.10016" lon="3.04044">
        <ele>520.3</ele>
        <time>2018-05-19T12:54:13Z</time>
      </trkpt>
      <trkpt lat="44.1002" lon="3.04045">
        <ele>520.6</ele>
        <time>2018-05-19T12:54:14Z</time>
      </trkpt>
      <trkpt lat="44.10024" lon="3.04045">
        <ele>521</ele>
        <time>2018-05-19T12:54:15Z</time>
      </trkpt>
      <trkpt lat="44.10028" lon="3.04046">
        <ele>521.4</ele>
        <time>2018-05-19T12:54:16Z</time>
      </trkpt>
      <trkpt lat="44.10031" lon="3.04048">
        <ele>520.6</ele>
        <time>2018-05-19T12:54:17Z</time>
      </trkpt>
      <trkpt lat="44.10035" lon="3.0405">
        <ele>521.4</ele>
        <time>2018-05-19T12:54:18Z</time>
      </trkpt>
      <trkpt lat="44.10039" lon="3.04052">
        <ele>520.5</ele>
        <time>2018-05-19T12:54:19Z</time>
      </trkpt>
      <trkpt lat="44.10042" lon="3.04053">
        <ele>520.8</ele>
        <time>2018-05-19T12:54:20Z</time>
      </trkpt>
      <trkpt lat="44.10045" lon="3.04053">
        <ele>521.1</ele>
        <time>2018-05-19T12:54:21Z</time>
      </trkpt>
      <trkpt lat="44.10047" lon="3.04054">
        <ele>521.5</ele>
        <time>2018-05-19T12:54:22Z</time>
      </trkpt>
      <trkpt lat="44.1005" lon="3.04056">
        <ele>520.7</ele>
        <time>2018-05-19T12:54:23Z</time>
      </trkpt>
      <trkpt lat="44.10053" lon="3.04057">
        <ele>520.7</ele>
        <time>2018-05-19T12:54:24Z</time>
      </trkpt>
      <trkpt lat="44.10057" lon="3.04061">
        <ele>520.2</ele>
        <time>2018-05-19T12:54:26Z</time>
      </trkpt>
      <trkpt lat="44.10061" lon="3.04064">
        <ele>519.4</ele>
        <time>2018-05-19T12:54:28Z</time>
      </trkpt>
      <trkpt lat="44.10065" lon="3.04065">
        <ele>519.6</ele>
        <time>2018-05-19T12:54:30Z</time>
      </trkpt>
      <trkpt lat="44.10069" lon="3.04065">
        <ele>520</ele>
        <time>2018-05-19T12:54:32Z</time>
      </trkpt>
      <trkpt lat="44.10073" lon="3.04065">
        <ele>520.2</ele>
        <time>2018-05-19T12:54:34Z</time>
      </trkpt>
      <trkpt lat="44.10078" lon="3.04065">
        <ele>520.5</ele>
        <time>2018-05-19T12:54:36Z</time>
      </trkpt>
      <trkpt lat="44.10082" lon="3.04065">
        <ele>520.6</ele>
        <time>2018-05-19T12:54:38Z</time>
      </trkpt>
      <trkpt lat="44.10084" lon="3.04066">
        <ele>520.7</ele>
        <time>2018-05-19T12:54:40Z</time>
      </trkpt>
      <trkpt lat="44.10087" lon="3.04069">
        <ele>519.7</ele>
        <time>2018-05-19T12:54:42Z</time>
      </trkpt>
      <trkpt lat="44.10091" lon="3.0407">
        <ele>519.9</ele>
        <time>2018-05-19T12:54:44Z</time>
      </trkpt>
      <trkpt lat="44.10094" lon="3.0407">
        <ele>520</ele>
        <time>2018-05-19T12:54:46Z</time>
      </trkpt>
      <trkpt lat="44.10098" lon="3.0407">
        <ele>520.1</ele>
        <time>2018-05-19T12:54:48Z</time>
      </trkpt>
      <trkpt lat="44.10103" lon="3.0407">
        <ele>520.5</ele>
        <time>2018-05-19T12:54:50Z</time>
      </trkpt>
      <trkpt lat="44.10108" lon="3.04069">
        <ele>520.7</ele>
        <time>2018-05-19T12:54:52Z</time>
      </trkpt>
      <trkpt lat="44.10111" lon="3.04069">
        <ele>520.9</ele>
        <time>2018-05-19T12:54:54Z</time>
      </trkpt>
      <trkpt lat="44.10114" lon="3.04069">
        <ele>521.2</ele>
        <time>2018-05-19T12:54:56Z</time>
      </trkpt>
      <trkpt lat="44.10117" lon="3.04069">
        <ele>521.4</ele>
        <time>2018-05-19T12:54:59Z</time>
      </trkpt>
      <trkpt lat="44.1012" lon="3.04068">
        <ele>522.7</ele>
        <time>2018-05-19T12:55:05Z</time>
      </trkpt>
      <trkpt lat="44.10123" lon="3.04067">
        <ele>522.9</ele>
        <time>2018-05-19T12:55:20Z</time>
      </trkpt>
      <trkpt lat="44.10126" lon="3.04069">
        <ele>522</ele>
        <time>2018-05-19T12:55:22Z</time>
      </trkpt>
      <trkpt lat="44.10128" lon="3.04073">
        <ele>521.2</ele>
        <time>2018-05-19T12:55:24Z</time>
      </trkpt>
      <trkpt lat="44.10129" lon="3.04077">
        <ele>521.2</ele>
        <time>2018-05-19T12:55:26Z</time>
      </trkpt>
      <trkpt lat="44.10133" lon="3.0408">
        <ele>520.3</ele>
        <time>2018-05-19T12:55:28Z</time>
      </trkpt>
      <trkpt lat="44.10137" lon="3.04084">
        <ele>519.5</ele>
        <time>2018-05-19T12:55:30Z</time>
      </trkpt>
      <trkpt lat="44.1014" lon="3.04087">
        <ele>518.6</ele>
        <time>2018-05-19T12:55:31Z</time>
      </trkpt>
      <trkpt lat="44.10144" lon="3.0409">
        <ele>517.8</ele>
        <time>2018-05-19T12:55:32Z</time>
      </trkpt>
      <trkpt lat="44.10148" lon="3.04093">
        <ele>518</ele>
        <time>2018-05-19T12:55:33Z</time>
      </trkpt>
      <trkpt lat="44.10155" lon="3.04098">
        <ele>517.6</ele>
        <time>2018-05-19T12:55:34Z</time>
      </trkpt>
      <trkpt lat="44.1016" lon="3.04101">
        <ele>517</ele>
        <time>2018-05-19T12:55:35Z</time>
      </trkpt>
      <trkpt lat="44.10164" lon="3.04105">
        <ele>516.7</ele>
        <time>2018-05-19T12:55:36Z</time>
      </trkpt>
      <trkpt lat="44.10167" lon="3.04108">
        <ele>516.1</ele>
        <time>2018-05-19T12:55:37Z</time>
      </trkpt>
      <trkpt lat="44.10171" lon="3.04111">
        <ele>516.4</ele>
        <time>2018-05-19T12:55:38Z</time>
      </trkpt>
      <trkpt lat="44.10176" lon="3.04114">
        <ele>516.1</ele>
        <time>2018-05-19T12:55:39Z</time>
      </trkpt>
      <trkpt lat="44.1018" lon="3.04119">
        <ele>515.5</ele>
        <time>2018-05-19T12:55:40Z</time>
      </trkpt>
      <trkpt lat="44.10184" lon="3.04124">
        <ele>515</ele>
        <time>2018-05-19T12:55:41Z</time>
      </trkpt>
      <trkpt lat="44.10187" lon="3.04128">
        <ele>514.6</ele>
        <time>2018-05-19T12:55:42Z</time>
      </trkpt>
      <trkpt lat="44.10191" lon="3.04132">
        <ele>514.2</ele>
        <time>2018-05-19T12:55:43Z</time>
      </trkpt>
      <trkpt lat="44.10197" lon="3.04136">
        <ele>514.4</ele>
        <time>2018-05-19T12:55:44Z</time>
      </trkpt>
      <trkpt lat="44.10201" lon="3.0414">
        <ele>514.2</ele>
        <time>2018-05-19T12:55:45Z</time>
      </trkpt>
      <trkpt lat="44.10203" lon="3.04143">
        <ele>514</ele>
        <time>2018-05-19T12:55:46Z</time>
      </trkpt>
      <trkpt lat="44.10206" lon="3.04146">
        <ele>513.8</ele>
        <time>2018-05-19T12:55:47Z</time>
      </trkpt>
      <trkpt lat="44.1021" lon="3.04153">
        <ele>513.6</ele>
        <time>2018-05-19T12:55:48Z</time>
      </trkpt>
      <trkpt lat="44.10212" lon="3.04161">
        <ele>512.7</ele>
        <time>2018-05-19T12:55:49Z</time>
      </trkpt>
      <trkpt lat="44.10217" lon="3.04166">
        <ele>512.9</ele>
        <time>2018-05-19T12:55:50Z</time>
      </trkpt>
      <trkpt lat="44.1022" lon="3.04169">
        <ele>512.7</ele>
        <time>2018-05-19T12:55:51Z</time>
      </trkpt>
      <trkpt lat="44.10222" lon="3.04176">
        <ele>511.4</ele>
        <time>2018-05-19T12:55:52Z</time>
      </trkpt>
      <trkpt lat="44.10224" lon="3.04179">
        <ele>511.9</ele>
        <time>2018-05-19T12:55:53Z</time>
      </trkpt>
      <trkpt lat="44.10227" lon="3.04185">
        <ele>511.2</ele>
        <time>2018-05-19T12:55:54Z</time>
      </trkpt>
      <trkpt lat="44.10232" lon="3.04191">
        <ele>511.5</ele>
        <time>2018-05-19T12:55:55Z</time>
      </trkpt>
      <trkpt lat="44.10237" lon="3.04195">
        <ele>511.3</ele>
        <time>2018-05-19T12:55:56Z</time>
      </trkpt>
      <trkpt lat="44.10242" lon="3.042">
        <ele>511.4</ele>
        <time>2018-05-19T12:55:57Z</time>
      </trkpt>
      <trkpt lat="44.10248" lon="3.04203">
        <ele>511.4</ele>
        <time>2018-05-19T12:55:58Z</time>
      </trkpt>
      <trkpt lat="44.10252" lon="3.04206">
        <ele>511.1</ele>
        <time>2018-05-19T12:55:59Z</time>
      </trkpt>
      <trkpt lat="44.10257" lon="3.0421">
        <ele>511.6</ele>
        <time>2018-05-19T12:56:00Z</time>
      </trkpt>
      <trkpt lat="44.10261" lon="3.04215">
        <ele>510.6</ele>
        <time>2018-05-19T12:56:01Z</time>
      </trkpt>
      <trkpt lat="44.10265" lon="3.04221">
        <ele>510.2</ele>
        <time>2018-05-19T12:56:02Z</time>
      </trkpt>
      <trkpt lat="44.1027" lon="3.04226">
        <ele>510.1</ele>
        <time>2018-05-19T12:56:03Z</time>
      </trkpt>
      <trkpt lat="44.10277" lon="3.04229">
        <ele>510</ele>
        <time>2018-05-19T12:56:04Z</time>
      </trkpt>
      <trkpt lat="44.10282" lon="3.04233">
        <ele>510</ele>
        <time>2018-05-19T12:56:05Z</time>
      </trkpt>
      <trkpt lat="44.10288" lon="3.0424">
        <ele>509.8</ele>
        <time>2018-05-19T12:56:06Z</time>
      </trkpt>
      <trkpt lat="44.10293" lon="3.04246">
        <ele>508.9</ele>
        <time>2018-05-19T12:56:07Z</time>
      </trkpt>
      <trkpt lat="44.10298" lon="3.04248">
        <ele>509</ele>
        <time>2018-05-19T12:56:08Z</time>
      </trkpt>
      <trkpt lat="44.10302" lon="3.04253">
        <ele>508.1</ele>
        <time>2018-05-19T12:56:09Z</time>
      </trkpt>
      <trkpt lat="44.10307" lon="3.04259">
        <ele>507.6</ele>
        <time>2018-05-19T12:56:10Z</time>
      </trkpt>
      <trkpt lat="44.10311" lon="3.04263">
        <ele>507.2</ele>
        <time>2018-05-19T12:56:11Z</time>
      </trkpt>
      <trkpt lat="44.10319" lon="3.04267">
        <ele>506.8</ele>
        <time>2018-05-19T12:56:12Z</time>
      </trkpt>
      <trkpt lat="44.10327" lon="3.04271">
        <ele>506.5</ele>
        <time>2018-05-19T12:56:13Z</time>
      </trkpt>
      <trkpt lat="44.10336" lon="3.04272">
        <ele>506.4</ele>
        <time>2018-05-19T12:56:14Z</time>
      </trkpt>
      <trkpt lat="44.10345" lon="3.04274">
        <ele>506.1</ele>
        <time>2018-05-19T12:56:15Z</time>
      </trkpt>
      <trkpt lat="44.10347" lon="3.04276">
        <ele>505.7</ele>
        <time>2018-05-19T12:56:16Z</time>
      </trkpt>
      <trkpt lat="44.10351" lon="3.04279">
        <ele>505.3</ele>
        <time>2018-05-19T12:56:17Z</time>
      </trkpt>
      <trkpt lat="44.10355" lon="3.04283">
        <ele>504.9</ele>
        <time>2018-05-19T12:56:18Z</time>
      </trkpt>
      <trkpt lat="44.1036" lon="3.04286">
        <ele>504.8</ele>
        <time>2018-05-19T12:56:20Z</time>
      </trkpt>
      <trkpt lat="44.10364" lon="3.04286">
        <ele>504.7</ele>
        <time>2018-05-19T12:56:26Z</time>
      </trkpt>
      <trkpt lat="44.10362" lon="3.0429">
        <ele>504.4</ele>
        <time>2018-05-19T12:56:34Z</time>
      </trkpt>
      <trkpt lat="44.10359" lon="3.04291">
        <ele>504.5</ele>
        <time>2018-05-19T12:56:50Z</time>
      </trkpt>
      <trkpt lat="44.10356" lon="3.04287">
        <ele>504.6</ele>
        <time>2018-05-19T12:56:59Z</time>
      </trkpt>
      <trkpt lat="44.10355" lon="3.04283">
        <ele>505</ele>
        <time>2018-05-19T12:57:01Z</time>
      </trkpt>
      <trkpt lat="44.10352" lon="3.0428">
        <ele>505.2</ele>
        <time>2018-05-19T12:57:03Z</time>
      </trkpt>
      <trkpt lat="44.10349" lon="3.04279">
        <ele>505.3</ele>
        <time>2018-05-19T12:57:05Z</time>
      </trkpt>
      <trkpt lat="44.10347" lon="3.04278">
        <ele>505.7</ele>
        <time>2018-05-19T12:57:09Z</time>
      </trkpt>
      <trkpt lat="44.10354" lon="3.04284">
        <ele>505</ele>
        <time>2018-05-19T12:58:05Z</time>
      </trkpt>
      <trkpt lat="44.10356" lon="3.04287">
        <ele>504.9</ele>
        <time>2018-05-19T12:58:07Z</time>
      </trkpt>
      <trkpt lat="44.1036" lon="3.04289">
        <ele>504.5</ele>
        <time>2018-05-19T12:58:09Z</time>
      </trkpt>
      <trkpt lat="44.10362" lon="3.04291">
        <ele>504.4</ele>
        <time>2018-05-19T12:58:10Z</time>
      </trkpt>
      <trkpt lat="44.10365" lon="3.04293">
        <ele>504.1</ele>
        <time>2018-05-19T12:58:11Z</time>
      </trkpt>
      <trkpt lat="44.10367" lon="3.04296">
        <ele>504.1</ele>
        <time>2018-05-19T12:58:12Z</time>
      </trkpt>
      <trkpt lat="44.1037" lon="3.04299">
        <ele>503.8</ele>
        <time>2018-05-19T12:58:13Z</time>
      </trkpt>
      <trkpt lat="44.10373" lon="3.04303">
        <ele>503.5</ele>
        <time>2018-05-19T12:58:14Z</time>
      </trkpt>
      <trkpt lat="44.10375" lon="3.04306">
        <ele>503.2</ele>
        <time>2018-05-19T12:58:15Z</time>
      </trkpt>
      <trkpt lat="44.10378" lon="3.0431">
        <ele>503</ele>
        <time>2018-05-19T12:58:16Z</time>
      </trkpt>
      <trkpt lat="44.1038" lon="3.04312">
        <ele>503</ele>
        <time>2018-05-19T12:58:17Z</time>
      </trkpt>
      <trkpt lat="44.10383" lon="3.04317">
        <ele>502.6</ele>
        <time>2018-05-19T12:58:19Z</time>
      </trkpt>
      <trkpt lat="44.10387" lon="3.04322">
        <ele>501.9</ele>
        <time>2018-05-19T12:58:21Z</time>
      </trkpt>
      <trkpt lat="44.1039" lon="3.04325">
        <ele>501.8</ele>
        <time>2018-05-19T12:58:23Z</time>
      </trkpt>
      <trkpt lat="44.10392" lon="3.04328">
        <ele>501.6</ele>
        <time>2018-05-19T12:58:25Z</time>
      </trkpt>
      <trkpt lat="44.10392" lon="3.04332">
        <ele>501.3</ele>
        <time>2018-05-19T12:58:31Z</time>
      </trkpt>
      <trkpt lat="44.10396" lon="3.04333">
        <ele>501.3</ele>
        <time>2018-05-19T12:58:43Z</time>
      </trkpt>
      <trkpt lat="44.10398" lon="3.04332">
        <ele>501.3</ele>
        <time>2018-05-19T12:58:47Z</time>
      </trkpt>
      <trkpt lat="44.10401" lon="3.04334">
        <ele>501</ele>
        <time>2018-05-19T12:58:53Z</time>
      </trkpt>
      <trkpt lat="44.10404" lon="3.04337">
        <ele>501</ele>
        <time>2018-05-19T12:58:59Z</time>
      </trkpt>
      <trkpt lat="44.10401" lon="3.04338">
        <ele>501</ele>
        <time>2018-05-19T12:59:16Z</time>
      </trkpt>
      <trkpt lat="44.10398" lon="3.04336">
        <ele>501</ele>
        <time>2018-05-19T12:59:19Z</time>
      </trkpt>
      <trkpt lat="44.10395" lon="3.04338">
        <ele>501</ele>
        <time>2018-05-19T12:59:23Z</time>
      </trkpt>
      <trkpt lat="44.10398" lon="3.0434">
        <ele>500.9</ele>
        <time>2018-05-19T12:59:48Z</time>
      </trkpt>
      <trkpt lat="44.104" lon="3.04337">
        <ele>501</ele>
        <time>2018-05-19T12:59:53Z</time>
      </trkpt>
      <trkpt lat="44.10397" lon="3.04338">
        <ele>501</ele>
        <time>2018-05-19T13:00:19Z</time>
      </trkpt>
      <trkpt lat="44.10399" lon="3.04335">
        <ele>501</ele>
        <time>2018-05-19T13:00:30Z</time>
      </trkpt>
      <trkpt lat="44.10402" lon="3.04337">
        <ele>501</ele>
        <time>2018-05-19T13:00:34Z</time>
      </trkpt>
      <trkpt lat="44.10404" lon="3.0434">
        <ele>500.9</ele>
        <time>2018-05-19T13:00:37Z</time>
      </trkpt>
      <trkpt lat="44.10406" lon="3.04344">
        <ele>500.8</ele>
        <time>2018-05-19T13:00:42Z</time>
      </trkpt>
      <trkpt lat="44.10408" lon="3.04347">
        <ele>500.9</ele>
        <time>2018-05-19T13:00:59Z</time>
      </trkpt>
      <trkpt lat="44.10405" lon="3.0435">
        <ele>500.9</ele>
        <time>2018-05-19T13:01:03Z</time>
      </trkpt>
      <trkpt lat="44.10404" lon="3.04354">
        <ele>501</ele>
        <time>2018-05-19T13:01:06Z</time>
      </trkpt>
      <trkpt lat="44.10404" lon="3.04359">
        <ele>501.2</ele>
        <time>2018-05-19T13:01:10Z</time>
      </trkpt>
      <trkpt lat="44.10402" lon="3.04362">
        <ele>501.5</ele>
        <time>2018-05-19T13:01:14Z</time>
      </trkpt>
      <trkpt lat="44.10402" lon="3.04366">
        <ele>501.8</ele>
        <time>2018-05-19T13:01:17Z</time>
      </trkpt>
      <trkpt lat="44.10403" lon="3.04371">
        <ele>502.1</ele>
        <time>2018-05-19T13:01:20Z</time>
      </trkpt>
      <trkpt lat="44.10404" lon="3.04376">
        <ele>502.4</ele>
        <time>2018-05-19T13:01:23Z</time>
      </trkpt>
      <trkpt lat="44.10404" lon="3.04381">
        <ele>502.6</ele>
        <time>2018-05-19T13:01:27Z</time>
      </trkpt>
      <trkpt lat="44.10405" lon="3.04385">
        <ele>502.9</ele>
        <time>2018-05-19T13:01:31Z</time>
      </trkpt>
      <trkpt lat="44.10406" lon="3.04389">
        <ele>503.1</ele>
        <time>2018-05-19T13:01:37Z</time>
      </trkpt>
      <trkpt lat="44.10407" lon="3.04393">
        <ele>503.3</ele>
        <time>2018-05-19T13:01:42Z</time>
      </trkpt>
      <trkpt lat="44.10409" lon="3.04398">
        <ele>503.4</ele>
        <time>2018-05-19T13:01:46Z</time>
      </trkpt>
      <trkpt lat="44.1041" lon="3.04401">
        <ele>503.6</ele>
        <time>2018-05-19T13:01:50Z</time>
      </trkpt>
      <trkpt lat="44.10412" lon="3.04405">
        <ele>503.8</ele>
        <time>2018-05-19T13:01:54Z</time>
      </trkpt>
      <trkpt lat="44.10415" lon="3.04408">
        <ele>504</ele>
        <time>2018-05-19T13:01:58Z</time>
      </trkpt>
      <trkpt lat="44.10417" lon="3.04411">
        <ele>504</ele>
        <time>2018-05-19T13:02:06Z</time>
      </trkpt>
      <trkpt lat="44.10418" lon="3.04415">
        <ele>504.2</ele>
        <time>2018-05-19T13:02:10Z</time>
      </trkpt>
      <trkpt lat="44.1042" lon="3.0442">
        <ele>504.5</ele>
        <time>2018-05-19T13:02:14Z</time>
      </trkpt>
      <trkpt lat="44.1042" lon="3.04423">
        <ele>504.8</ele>
        <time>2018-05-19T13:02:17Z</time>
      </trkpt>
      <trkpt lat="44.10421" lon="3.04428">
        <ele>505.1</ele>
        <time>2018-05-19T13:02:21Z</time>
      </trkpt>
      <trkpt lat="44.10422" lon="3.04432">
        <ele>505.4</ele>
        <time>2018-05-19T13:02:24Z</time>
      </trkpt>
      <trkpt lat="44.10423" lon="3.04436">
        <ele>505.7</ele>
        <time>2018-05-19T13:02:28Z</time>
      </trkpt>
      <trkpt lat="44.10425" lon="3.0444">
        <ele>506</ele>
        <time>2018-05-19T13:02:33Z</time>
      </trkpt>
      <trkpt lat="44.10422" lon="3.0444">
        <ele>506</ele>
        <time>2018-05-19T13:02:52Z</time>
      </trkpt>
      <trkpt lat="44.10415" lon="3.04436">
        <ele>505.7</ele>
        <time>2018-05-19T13:03:49Z</time>
      </trkpt>
      <trkpt lat="44.10412" lon="3.04433">
        <ele>505.4</ele>
        <time>2018-05-19T13:03:50Z</time>
      </trkpt>
      <trkpt lat="44.10408" lon="3.04429">
        <ele>505.1</ele>
        <time>2018-05-19T13:03:51Z</time>
      </trkpt>
      <trkpt lat="44.10401" lon="3.04422">
        <ele>504.9</ele>
        <time>2018-05-19T13:03:52Z</time>
      </trkpt>
      <trkpt lat="44.10397" lon="3.04418">
        <ele>504.8</ele>
        <time>2018-05-19T13:03:53Z</time>
      </trkpt>
      <trkpt lat="44.10391" lon="3.04413">
        <ele>504.7</ele>
        <time>2018-05-19T13:03:54Z</time>
      </trkpt>
      <trkpt lat="44.10386" lon="3.04409">
        <ele>504.6</ele>
        <time>2018-05-19T13:03:55Z</time>
      </trkpt>
      <trkpt lat="44.10379" lon="3.04405">
        <ele>504.4</ele>
        <time>2018-05-19T13:03:56Z</time>
      </trkpt>
      <trkpt lat="44.10373" lon="3.04402">
        <ele>504.3</ele>
        <time>2018-05-19T13:03:57Z</time>
      </trkpt>
      <trkpt lat="44.10367" lon="3.04398">
        <ele>504.2</ele>
        <time>2018-05-19T13:03:58Z</time>
      </trkpt>
      <trkpt lat="44.10358" lon="3.04395">
        <ele>504.3</ele>
        <time>2018-05-19T13:03:59Z</time>
      </trkpt>
      <trkpt lat="44.10351" lon="3.04391">
        <ele>504.2</ele>
        <time>2018-05-19T13:04:00Z</time>
      </trkpt>
      <trkpt lat="44.10345" lon="3.0439">
        <ele>504.2</ele>
        <time>2018-05-19T13:04:01Z</time>
      </trkpt>
      <trkpt lat="44.10341" lon="3.04393">
        <ele>504.3</ele>
        <time>2018-05-19T13:04:02Z</time>
      </trkpt>
      <trkpt lat="44.10337" lon="3.04395">
        <ele>504.3</ele>
        <time>2018-05-19T13:04:03Z</time>
      </trkpt>
      <trkpt lat="44.10329" lon="3.04393">
        <ele>504.3</ele>
        <time>2018-05-19T13:04:04Z</time>
      </trkpt>
      <trkpt lat="44.10324" lon="3.04393">
        <ele>504.3</ele>
        <time>2018-05-19T13:04:05Z</time>
      </trkpt>
      <trkpt lat="44.10318" lon="3.04391">
        <ele>504.2</ele>
        <time>2018-05-19T13:04:06Z</time>
      </trkpt>
      <trkpt lat="44.10313" lon="3.04391">
        <ele>504.2</ele>
        <time>2018-05-19T13:04:07Z</time>
      </trkpt>
      <trkpt lat="44.10308" lon="3.0439">
        <ele>504.1</ele>
        <time>2018-05-19T13:04:08Z</time>
      </trkpt>
      <trkpt lat="44.10303" lon="3.04389">
        <ele>504.1</ele>
        <time>2018-05-19T13:04:09Z</time>
      </trkpt>
      <trkpt lat="44.10297" lon="3.04389">
        <ele>504.1</ele>
        <time>2018-05-19T13:04:10Z</time>
      </trkpt>
      <trkpt lat="44.10293" lon="3.0439">
        <ele>504.2</ele>
        <time>2018-05-19T13:04:11Z</time>
      </trkpt>
      <trkpt lat="44.10287" lon="3.0439">
        <ele>504.2</ele>
        <time>2018-05-19T13:04:12Z</time>
      </trkpt>
      <trkpt lat="44.10283" lon="3.0439">
        <ele>504.1</ele>
        <time>2018-05-19T13:04:13Z</time>
      </trkpt>
      <trkpt lat="44.10277" lon="3.04389">
        <ele>504.2</ele>
        <time>2018-05-19T13:04:14Z</time>
      </trkpt>
      <trkpt lat="44.10273" lon="3.04388">
        <ele>504.3</ele>
        <time>2018-05-19T13:04:15Z</time>
      </trkpt>
      <trkpt lat="44.10268" lon="3.04386">
        <ele>504.2</ele>
        <time>2018-05-19T13:04:16Z</time>
      </trkpt>
      <trkpt lat="44.10264" lon="3.04383">
        <ele>504.2</ele>
        <time>2018-05-19T13:04:17Z</time>
      </trkpt>
      <trkpt lat="44.1026" lon="3.0438">
        <ele>504</ele>
        <time>2018-05-19T13:04:18Z</time>
      </trkpt>
      <trkpt lat="44.10255" lon="3.04377">
        <ele>503.8</ele>
        <time>2018-05-19T13:04:19Z</time>
      </trkpt>
      <trkpt lat="44.10252" lon="3.04375">
        <ele>503.8</ele>
        <time>2018-05-19T13:04:20Z</time>
      </trkpt>
      <trkpt lat="44.10245" lon="3.04372">
        <ele>503.7</ele>
        <time>2018-05-19T13:04:22Z</time>
      </trkpt>
      <trkpt lat="44.1024" lon="3.0437">
        <ele>504</ele>
        <time>2018-05-19T13:04:23Z</time>
      </trkpt>
      <trkpt lat="44.10236" lon="3.04369">
        <ele>504.1</ele>
        <time>2018-05-19T13:04:24Z</time>
      </trkpt>
      <trkpt lat="44.10231" lon="3.04366">
        <ele>504.3</ele>
        <time>2018-05-19T13:04:25Z</time>
      </trkpt>
      <trkpt lat="44.10226" lon="3.04364">
        <ele>504.4</ele>
        <time>2018-05-19T13:04:26Z</time>
      </trkpt>
      <trkpt lat="44.10223" lon="3.04362">
        <ele>504.4</ele>
        <time>2018-05-19T13:04:27Z</time>
      </trkpt>
      <trkpt lat="44.1022" lon="3.0436">
        <ele>504.5</ele>
        <time>2018-05-19T13:04:28Z</time>
      </trkpt>
      <trkpt lat="44.10216" lon="3.04359">
        <ele>504.3</ele>
        <time>2018-05-19T13:04:29Z</time>
      </trkpt>
      <trkpt lat="44.10212" lon="3.04357">
        <ele>504.2</ele>
        <time>2018-05-19T13:04:31Z</time>
      </trkpt>
      <trkpt lat="44.10209" lon="3.04356">
        <ele>504.2</ele>
        <time>2018-05-19T13:04:32Z</time>
      </trkpt>
      <trkpt lat="44.10206" lon="3.04354">
        <ele>503.6</ele>
        <time>2018-05-19T13:04:33Z</time>
      </trkpt>
      <trkpt lat="44.10203" lon="3.04353">
        <ele>503.5</ele>
        <time>2018-05-19T13:04:34Z</time>
      </trkpt>
      <trkpt lat="44.102" lon="3.04351">
        <ele>502.9</ele>
        <time>2018-05-19T13:04:35Z</time>
      </trkpt>
      <trkpt lat="44.10196" lon="3.04349">
        <ele>502.7</ele>
        <time>2018-05-19T13:04:36Z</time>
      </trkpt>
      <trkpt lat="44.10193" lon="3.04347">
        <ele>502</ele>
        <time>2018-05-19T13:04:37Z</time>
      </trkpt>
      <trkpt lat="44.10189" lon="3.04344">
        <ele>501.8</ele>
        <time>2018-05-19T13:04:38Z</time>
      </trkpt>
      <trkpt lat="44.10185" lon="3.04341">
        <ele>500.9</ele>
        <time>2018-05-19T13:04:39Z</time>
      </trkpt>
      <trkpt lat="44.10182" lon="3.04339">
        <ele>500.7</ele>
        <time>2018-05-19T13:04:40Z</time>
      </trkpt>
      <trkpt lat="44.10179" lon="3.04337">
        <ele>500.1</ele>
        <time>2018-05-19T13:04:41Z</time>
      </trkpt>
      <trkpt lat="44.10175" lon="3.04335">
        <ele>499.9</ele>
        <time>2018-05-19T13:04:42Z</time>
      </trkpt>
      <trkpt lat="44.10171" lon="3.04333">
        <ele>499.4</ele>
        <time>2018-05-19T13:04:43Z</time>
      </trkpt>
      <trkpt lat="44.10168" lon="3.04332">
        <ele>499.3</ele>
        <time>2018-05-19T13:04:44Z</time>
      </trkpt>
      <trkpt lat="44.10164" lon="3.0433">
        <ele>499.3</ele>
        <time>2018-05-19T13:04:46Z</time>
      </trkpt>
      <trkpt lat="44.10159" lon="3.04327">
        <ele>498.8</ele>
        <time>2018-05-19T13:05:50Z</time>
      </trkpt>
      <trkpt lat="44.10154" lon="3.04325">
        <ele>498.3</ele>
        <time>2018-05-19T13:05:53Z</time>
      </trkpt>
      <trkpt lat="44.10151" lon="3.04324">
        <ele>498.3</ele>
        <time>2018-05-19T13:05:54Z</time>
      </trkpt>
      <trkpt lat="44.10147" lon="3.04321">
        <ele>497.5</ele>
        <time>2018-05-19T13:05:56Z</time>
      </trkpt>
      <trkpt lat="44.10143" lon="3.04319">
        <ele>497.5</ele>
        <time>2018-05-19T13:05:58Z</time>
      </trkpt>
      <trkpt lat="44.10136" lon="3.04315">
        <ele>496.8</ele>
        <time>2018-05-19T13:05:59Z</time>
      </trkpt>
      <trkpt lat="44.1013" lon="3.0431">
        <ele>496.3</ele>
        <time>2018-05-19T13:06:00Z</time>
      </trkpt>
      <trkpt lat="44.10125" lon="3.04309">
        <ele>496.3</ele>
        <time>2018-05-19T13:06:01Z</time>
      </trkpt>
      <trkpt lat="44.10119" lon="3.04308">
        <ele>495.9</ele>
        <time>2018-05-19T13:06:02Z</time>
      </trkpt>
      <trkpt lat="44.10112" lon="3.04307">
        <ele>496.1</ele>
        <time>2018-05-19T13:06:03Z</time>
      </trkpt>
      <trkpt lat="44.10108" lon="3.04306">
        <ele>496.2</ele>
        <time>2018-05-19T13:06:04Z</time>
      </trkpt>
      <trkpt lat="44.10102" lon="3.04304">
        <ele>495.9</ele>
        <time>2018-05-19T13:06:05Z</time>
      </trkpt>
      <trkpt lat="44.10094" lon="3.04303">
        <ele>496</ele>
        <time>2018-05-19T13:06:06Z</time>
      </trkpt>
      <trkpt lat="44.10086" lon="3.04302">
        <ele>496.2</ele>
        <time>2018-05-19T13:06:07Z</time>
      </trkpt>
      <trkpt lat="44.1008" lon="3.043">
        <ele>496.3</ele>
        <time>2018-05-19T13:06:08Z</time>
      </trkpt>
      <trkpt lat="44.10074" lon="3.04299">
        <ele>495.9</ele>
        <time>2018-05-19T13:06:09Z</time>
      </trkpt>
      <trkpt lat="44.10067" lon="3.04299">
        <ele>496.1</ele>
        <time>2018-05-19T13:06:10Z</time>
      </trkpt>
      <trkpt lat="44.10061" lon="3.04296">
        <ele>496.3</ele>
        <time>2018-05-19T13:06:11Z</time>
      </trkpt>
      <trkpt lat="44.10055" lon="3.04293">
        <ele>495.9</ele>
        <time>2018-05-19T13:06:12Z</time>
      </trkpt>
      <trkpt lat="44.10049" lon="3.0429">
        <ele>495.6</ele>
        <time>2018-05-19T13:06:13Z</time>
      </trkpt>
      <trkpt lat="44.10042" lon="3.04288">
        <ele>495.7</ele>
        <time>2018-05-19T13:06:14Z</time>
      </trkpt>
      <trkpt lat="44.10035" lon="3.04286">
        <ele>495.2</ele>
        <time>2018-05-19T13:06:15Z</time>
      </trkpt>
      <trkpt lat="44.10027" lon="3.04283">
        <ele>495.1</ele>
        <time>2018-05-19T13:06:16Z</time>
      </trkpt>
      <trkpt lat="44.10021" lon="3.0428">
        <ele>494.4</ele>
        <time>2018-05-19T13:06:17Z</time>
      </trkpt>
      <trkpt lat="44.10014" lon="3.04276">
        <ele>493.7</ele>
        <time>2018-05-19T13:06:18Z</time>
      </trkpt>
      <trkpt lat="44.10008" lon="3.04273">
        <ele>492.8</ele>
        <time>2018-05-19T13:06:19Z</time>
      </trkpt>
      <trkpt lat="44.10004" lon="3.04269">
        <ele>491.9</ele>
        <time>2018-05-19T13:06:20Z</time>
      </trkpt>
      <trkpt lat="44.09999" lon="3.04266">
        <ele>491.8</ele>
        <time>2018-05-19T13:06:21Z</time>
      </trkpt>
      <trkpt lat="44.09994" lon="3.04264">
        <ele>490.9</ele>
        <time>2018-05-19T13:06:22Z</time>
      </trkpt>
      <trkpt lat="44.0999" lon="3.04261">
        <ele>490.8</ele>
        <time>2018-05-19T13:06:23Z</time>
      </trkpt>
      <trkpt lat="44.09985" lon="3.04259">
        <ele>489.8</ele>
        <time>2018-05-19T13:06:24Z</time>
      </trkpt>
      <trkpt lat="44.09982" lon="3.04258">
        <ele>489.7</ele>
        <time>2018-05-19T13:06:25Z</time>
      </trkpt>
      <trkpt lat="44.09977" lon="3.04256">
        <ele>488.9</ele>
        <time>2018-05-19T13:06:26Z</time>
      </trkpt>
      <trkpt lat="44.09972" lon="3.04256">
        <ele>488.4</ele>
        <time>2018-05-19T13:06:27Z</time>
      </trkpt>
      <trkpt lat="44.09967" lon="3.04255">
        <ele>487.9</ele>
        <time>2018-05-19T13:06:28Z</time>
      </trkpt>
      <trkpt lat="44.09962" lon="3.04253">
        <ele>487.6</ele>
        <time>2018-05-19T13:06:29Z</time>
      </trkpt>
      <trkpt lat="44.09957" lon="3.04253">
        <ele>486.2</ele>
        <time>2018-05-19T13:06:30Z</time>
      </trkpt>
      <trkpt lat="44.09952" lon="3.04252">
        <ele>485.9</ele>
        <time>2018-05-19T13:06:31Z</time>
      </trkpt>
      <trkpt lat="44.09946" lon="3.04251">
        <ele>485</ele>
        <time>2018-05-19T13:06:33Z</time>
      </trkpt>
      <trkpt lat="44.09939" lon="3.04251">
        <ele>483.5</ele>
        <time>2018-05-19T13:06:34Z</time>
      </trkpt>
      <trkpt lat="44.0993" lon="3.04253">
        <ele>482.6</ele>
        <time>2018-05-19T13:06:36Z</time>
      </trkpt>
      <trkpt lat="44.09925" lon="3.04256">
        <ele>482.4</ele>
        <time>2018-05-19T13:06:37Z</time>
      </trkpt>
      <trkpt lat="44.09921" lon="3.04257">
        <ele>482</ele>
        <time>2018-05-19T13:06:38Z</time>
      </trkpt>
      <trkpt lat="44.09915" lon="3.04256">
        <ele>481.1</ele>
        <time>2018-05-19T13:06:39Z</time>
      </trkpt>
      <trkpt lat="44.09908" lon="3.04257">
        <ele>479.8</ele>
        <time>2018-05-19T13:06:40Z</time>
      </trkpt>
      <trkpt lat="44.099" lon="3.04258">
        <ele>479.8</ele>
        <time>2018-05-19T13:06:41Z</time>
      </trkpt>
      <trkpt lat="44.09891" lon="3.0426">
        <ele>478.6</ele>
        <time>2018-05-19T13:06:42Z</time>
      </trkpt>
      <trkpt lat="44.09884" lon="3.04261">
        <ele>477.5</ele>
        <time>2018-05-19T13:06:43Z</time>
      </trkpt>
      <trkpt lat="44.09877" lon="3.04263">
        <ele>477.5</ele>
        <time>2018-05-19T13:06:44Z</time>
      </trkpt>
      <trkpt lat="44.0987" lon="3.04266">
        <ele>477.5</ele>
        <time>2018-05-19T13:06:45Z</time>
      </trkpt>
      <trkpt lat="44.09863" lon="3.04269">
        <ele>476.7</ele>
        <time>2018-05-19T13:06:46Z</time>
      </trkpt>
      <trkpt lat="44.09856" lon="3.04273">
        <ele>476.5</ele>
        <time>2018-05-19T13:06:47Z</time>
      </trkpt>
      <trkpt lat="44.09849" lon="3.04276">
        <ele>476.1</ele>
        <time>2018-05-19T13:06:48Z</time>
      </trkpt>
      <trkpt lat="44.09841" lon="3.04278">
        <ele>475.4</ele>
        <time>2018-05-19T13:06:49Z</time>
      </trkpt>
      <trkpt lat="44.09833" lon="3.04277">
        <ele>474.4</ele>
        <time>2018-05-19T13:06:50Z</time>
      </trkpt>
      <trkpt lat="44.09825" lon="3.04276">
        <ele>473.7</ele>
        <time>2018-05-19T13:06:51Z</time>
      </trkpt>
      <trkpt lat="44.09818" lon="3.04275">
        <ele>472.9</ele>
        <time>2018-05-19T13:06:52Z</time>
      </trkpt>
      <trkpt lat="44.09812" lon="3.04276">
        <ele>472.3</ele>
        <time>2018-05-19T13:06:53Z</time>
      </trkpt>
      <trkpt lat="44.09806" lon="3.04276">
        <ele>471.6</ele>
        <time>2018-05-19T13:06:54Z</time>
      </trkpt>
      <trkpt lat="44.09802" lon="3.04274">
        <ele>471.2</ele>
        <time>2018-05-19T13:06:55Z</time>
      </trkpt>
      <trkpt lat="44.09799" lon="3.04273">
        <ele>470.3</ele>
        <time>2018-05-19T13:06:56Z</time>
      </trkpt>
      <trkpt lat="44.09796" lon="3.04272">
        <ele>469.9</ele>
        <time>2018-05-19T13:06:57Z</time>
      </trkpt>
      <trkpt lat="44.09791" lon="3.04271">
        <ele>469.3</ele>
        <time>2018-05-19T13:06:59Z</time>
      </trkpt>
      <trkpt lat="44.09787" lon="3.04271">
        <ele>468.9</ele>
        <time>2018-05-19T13:07:01Z</time>
      </trkpt>
      <trkpt lat="44.09785" lon="3.04274">
        <ele>468.4</ele>
        <time>2018-05-19T13:07:21Z</time>
      </trkpt>
      <trkpt lat="44.09784" lon="3.04277">
        <ele>469</ele>
        <time>2018-05-19T13:07:29Z</time>
      </trkpt>
      <trkpt lat="44.0978" lon="3.04275">
        <ele>468.6</ele>
        <time>2018-05-19T13:07:48Z</time>
      </trkpt>
      <trkpt lat="44.09776" lon="3.04277">
        <ele>468.1</ele>
        <time>2018-05-19T13:07:50Z</time>
      </trkpt>
      <trkpt lat="44.0977" lon="3.04277">
        <ele>467.2</ele>
        <time>2018-05-19T13:07:52Z</time>
      </trkpt>
      <trkpt lat="44.09766" lon="3.04276">
        <ele>466.4</ele>
        <time>2018-05-19T13:07:53Z</time>
      </trkpt>
      <trkpt lat="44.09758" lon="3.04273">
        <ele>465</ele>
        <time>2018-05-19T13:07:54Z</time>
      </trkpt>
      <trkpt lat="44.09754" lon="3.04271">
        <ele>464.6</ele>
        <time>2018-05-19T13:07:55Z</time>
      </trkpt>
      <trkpt lat="44.09752" lon="3.04273">
        <ele>464.2</ele>
        <time>2018-05-19T13:07:56Z</time>
      </trkpt>
      <trkpt lat="44.09749" lon="3.04278">
        <ele>464.4</ele>
        <time>2018-05-19T13:07:57Z</time>
      </trkpt>
      <trkpt lat="44.09744" lon="3.04283">
        <ele>465</ele>
        <time>2018-05-19T13:07:58Z</time>
      </trkpt>
      <trkpt lat="44.09738" lon="3.04288">
        <ele>465</ele>
        <time>2018-05-19T13:08:00Z</time>
      </trkpt>
      <trkpt lat="44.09734" lon="3.04291">
        <ele>464.7</ele>
        <time>2018-05-19T13:08:01Z</time>
      </trkpt>
      <trkpt lat="44.09729" lon="3.04293">
        <ele>464.9</ele>
        <time>2018-05-19T13:08:02Z</time>
      </trkpt>
      <trkpt lat="44.09723" lon="3.04296">
        <ele>465.1</ele>
        <time>2018-05-19T13:08:03Z</time>
      </trkpt>
      <trkpt lat="44.09719" lon="3.04298">
        <ele>464.7</ele>
        <time>2018-05-19T13:08:04Z</time>
      </trkpt>
      <trkpt lat="44.09714" lon="3.04298">
        <ele>464.3</ele>
        <time>2018-05-19T13:08:05Z</time>
      </trkpt>
      <trkpt lat="44.0971" lon="3.04298">
        <ele>463.6</ele>
        <time>2018-05-19T13:08:06Z</time>
      </trkpt>
      <trkpt lat="44.09707" lon="3.04298">
        <ele>463.3</ele>
        <time>2018-05-19T13:08:07Z</time>
      </trkpt>
      <trkpt lat="44.09703" lon="3.04298">
        <ele>463</ele>
        <time>2018-05-19T13:08:08Z</time>
      </trkpt>
      <trkpt lat="44.09698" lon="3.04296">
        <ele>462.2</ele>
        <time>2018-05-19T13:08:09Z</time>
      </trkpt>
      <trkpt lat="44.09693" lon="3.04295">
        <ele>460.7</ele>
        <time>2018-05-19T13:08:10Z</time>
      </trkpt>
      <trkpt lat="44.09683" lon="3.04293">
        <ele>458.9</ele>
        <time>2018-05-19T13:08:11Z</time>
      </trkpt>
      <trkpt lat="44.09679" lon="3.04293">
        <ele>458.4</ele>
        <time>2018-05-19T13:08:12Z</time>
      </trkpt>
      <trkpt lat="44.09674" lon="3.04293">
        <ele>457.9</ele>
        <time>2018-05-19T13:08:13Z</time>
      </trkpt>
      <trkpt lat="44.0967" lon="3.04292">
        <ele>456.9</ele>
        <time>2018-05-19T13:08:15Z</time>
      </trkpt>
      <trkpt lat="44.09667" lon="3.04295">
        <ele>456.3</ele>
        <time>2018-05-19T13:08:17Z</time>
      </trkpt>
      <trkpt lat="44.09663" lon="3.04296">
        <ele>455.8</ele>
        <time>2018-05-19T13:08:19Z</time>
      </trkpt>
      <trkpt lat="44.0966" lon="3.04296">
        <ele>456.3</ele>
        <time>2018-05-19T13:08:20Z</time>
      </trkpt>
      <trkpt lat="44.09657" lon="3.04296">
        <ele>455.8</ele>
        <time>2018-05-19T13:08:21Z</time>
      </trkpt>
      <trkpt lat="44.09654" lon="3.04297">
        <ele>455.3</ele>
        <time>2018-05-19T13:08:22Z</time>
      </trkpt>
      <trkpt lat="44.09651" lon="3.04297">
        <ele>454.9</ele>
        <time>2018-05-19T13:08:23Z</time>
      </trkpt>
      <trkpt lat="44.09648" lon="3.04298">
        <ele>454.4</ele>
        <time>2018-05-19T13:08:24Z</time>
      </trkpt>
      <trkpt lat="44.09645" lon="3.04299">
        <ele>453.9</ele>
        <time>2018-05-19T13:08:25Z</time>
      </trkpt>
      <trkpt lat="44.09641" lon="3.04301">
        <ele>454.5</ele>
        <time>2018-05-19T13:08:27Z</time>
      </trkpt>
      <trkpt lat="44.09638" lon="3.04304">
        <ele>454</ele>
        <time>2018-05-19T13:08:29Z</time>
      </trkpt>
      <trkpt lat="44.09634" lon="3.04306">
        <ele>454.5</ele>
        <time>2018-05-19T13:08:31Z</time>
      </trkpt>
      <trkpt lat="44.0963" lon="3.04308">
        <ele>453.5</ele>
        <time>2018-05-19T13:08:33Z</time>
      </trkpt>
      <trkpt lat="44.09627" lon="3.04309">
        <ele>454.1</ele>
        <time>2018-05-19T13:08:35Z</time>
      </trkpt>
      <trkpt lat="44.09624" lon="3.0431">
        <ele>453.7</ele>
        <time>2018-05-19T13:08:50Z</time>
      </trkpt>
      <trkpt lat="44.09622" lon="3.0431">
        <ele>453.7</ele>
        <time>2018-05-19T13:09:04Z</time>
      </trkpt>
      <trkpt lat="44.09619" lon="3.04309">
        <ele>453.3</ele>
        <time>2018-05-19T13:09:05Z</time>
      </trkpt>
      <trkpt lat="44.09614" lon="3.04308">
        <ele>451.3</ele>
        <time>2018-05-19T13:09:06Z</time>
      </trkpt>
      <trkpt lat="44.0961" lon="3.04307">
        <ele>450.9</ele>
        <time>2018-05-19T13:09:07Z</time>
      </trkpt>
      <trkpt lat="44.09604" lon="3.04307">
        <ele>450</ele>
        <time>2018-05-19T13:09:08Z</time>
      </trkpt>
      <trkpt lat="44.09599" lon="3.04308">
        <ele>449.3</ele>
        <time>2018-05-19T13:09:09Z</time>
      </trkpt>
      <trkpt lat="44.09593" lon="3.04308">
        <ele>448.8</ele>
        <time>2018-05-19T13:09:10Z</time>
      </trkpt>
      <trkpt lat="44.09588" lon="3.04309">
        <ele>449.2</ele>
        <time>2018-05-19T13:09:11Z</time>
      </trkpt>
      <trkpt lat="44.09582" lon="3.0431">
        <ele>448.9</ele>
        <time>2018-05-19T13:09:12Z</time>
      </trkpt>
      <trkpt lat="44.09576" lon="3.0431">
        <ele>448.2</ele>
        <time>2018-05-19T13:09:13Z</time>
      </trkpt>
      <trkpt lat="44.09571" lon="3.04312">
        <ele>447.8</ele>
        <time>2018-05-19T13:09:14Z</time>
      </trkpt>
      <trkpt lat="44.09566" lon="3.04311">
        <ele>447.3</ele>
        <time>2018-05-19T13:09:15Z</time>
      </trkpt>
      <trkpt lat="44.0956" lon="3.0431">
        <ele>446.7</ele>
        <time>2018-05-19T13:09:16Z</time>
      </trkpt>
      <trkpt lat="44.09554" lon="3.04309">
        <ele>446</ele>
        <time>2018-05-19T13:09:17Z</time>
      </trkpt>
      <trkpt lat="44.09545" lon="3.04309">
        <ele>445.1</ele>
        <time>2018-05-19T13:09:18Z</time>
      </trkpt>
      <trkpt lat="44.0954" lon="3.0431">
        <ele>444.4</ele>
        <time>2018-05-19T13:09:19Z</time>
      </trkpt>
      <trkpt lat="44.09534" lon="3.04313">
        <ele>443.5</ele>
        <time>2018-05-19T13:09:20Z</time>
      </trkpt>
      <trkpt lat="44.09528" lon="3.04316">
        <ele>443.6</ele>
        <time>2018-05-19T13:09:21Z</time>
      </trkpt>
      <trkpt lat="44.09524" lon="3.04317">
        <ele>444.1</ele>
        <time>2018-05-19T13:09:22Z</time>
      </trkpt>
      <trkpt lat="44.09518" lon="3.04319">
        <ele>443.1</ele>
        <time>2018-05-19T13:09:23Z</time>
      </trkpt>
      <trkpt lat="44.09515" lon="3.04319">
        <ele>442.6</ele>
        <time>2018-05-19T13:09:24Z</time>
      </trkpt>
      <trkpt lat="44.09512" lon="3.0432">
        <ele>442.2</ele>
        <time>2018-05-19T13:09:25Z</time>
      </trkpt>
      <trkpt lat="44.09508" lon="3.04323">
        <ele>443.5</ele>
        <time>2018-05-19T13:09:26Z</time>
      </trkpt>
      <trkpt lat="44.09505" lon="3.04325">
        <ele>443</ele>
        <time>2018-05-19T13:09:27Z</time>
      </trkpt>
      <trkpt lat="44.09502" lon="3.04328">
        <ele>443.7</ele>
        <time>2018-05-19T13:09:28Z</time>
      </trkpt>
      <trkpt lat="44.09498" lon="3.0433">
        <ele>443.1</ele>
        <time>2018-05-19T13:09:29Z</time>
      </trkpt>
      <trkpt lat="44.09495" lon="3.04332">
        <ele>443.2</ele>
        <time>2018-05-19T13:09:30Z</time>
      </trkpt>
      <trkpt lat="44.09493" lon="3.04333">
        <ele>443.2</ele>
        <time>2018-05-19T13:09:31Z</time>
      </trkpt>
      <trkpt lat="44.09489" lon="3.04334">
        <ele>442.7</ele>
        <time>2018-05-19T13:09:32Z</time>
      </trkpt>
      <trkpt lat="44.09485" lon="3.04335">
        <ele>442.9</ele>
        <time>2018-05-19T13:09:33Z</time>
      </trkpt>
      <trkpt lat="44.0948" lon="3.04337">
        <ele>442.4</ele>
        <time>2018-05-19T13:09:34Z</time>
      </trkpt>
      <trkpt lat="44.09476" lon="3.04338">
        <ele>441.2</ele>
        <time>2018-05-19T13:09:35Z</time>
      </trkpt>
      <trkpt lat="44.09472" lon="3.0434">
        <ele>441.9</ele>
        <time>2018-05-19T13:09:36Z</time>
      </trkpt>
      <trkpt lat="44.09469" lon="3.04341">
        <ele>441.2</ele>
        <time>2018-05-19T13:09:37Z</time>
      </trkpt>
      <trkpt lat="44.09466" lon="3.04341">
        <ele>440.7</ele>
        <time>2018-05-19T13:09:38Z</time>
      </trkpt>
      <trkpt lat="44.09462" lon="3.04342">
        <ele>440.1</ele>
        <time>2018-05-19T13:09:40Z</time>
      </trkpt>
      <trkpt lat="44.09459" lon="3.04342">
        <ele>439.6</ele>
        <time>2018-05-19T13:09:43Z</time>
      </trkpt>
      <trkpt lat="44.09455" lon="3.04343">
        <ele>439.9</ele>
        <time>2018-05-19T13:09:45Z</time>
      </trkpt>
      <trkpt lat="44.09452" lon="3.04344">
        <ele>439.4</ele>
        <time>2018-05-19T13:09:46Z</time>
      </trkpt>
      <trkpt lat="44.09449" lon="3.04345">
        <ele>439.4</ele>
        <time>2018-05-19T13:09:47Z</time>
      </trkpt>
      <trkpt lat="44.09446" lon="3.04345">
        <ele>438.8</ele>
        <time>2018-05-19T13:09:48Z</time>
      </trkpt>
      <trkpt lat="44.09442" lon="3.04346">
        <ele>437.8</ele>
        <time>2018-05-19T13:09:49Z</time>
      </trkpt>
      <trkpt lat="44.09436" lon="3.04346">
        <ele>436.8</ele>
        <time>2018-05-19T13:09:50Z</time>
      </trkpt>
      <trkpt lat="44.09429" lon="3.04346">
        <ele>435.9</ele>
        <time>2018-05-19T13:09:51Z</time>
      </trkpt>
      <trkpt lat="44.09421" lon="3.04344">
        <ele>434.6</ele>
        <time>2018-05-19T13:09:52Z</time>
      </trkpt>
      <trkpt lat="44.09413" lon="3.04343">
        <ele>432.1</ele>
        <time>2018-05-19T13:09:53Z</time>
      </trkpt>
      <trkpt lat="44.09406" lon="3.04341">
        <ele>430.9</ele>
        <time>2018-05-19T13:09:54Z</time>
      </trkpt>
      <trkpt lat="44.09398" lon="3.04341">
        <ele>430.3</ele>
        <time>2018-05-19T13:09:55Z</time>
      </trkpt>
      <trkpt lat="44.09389" lon="3.0434">
        <ele>429.2</ele>
        <time>2018-05-19T13:09:56Z</time>
      </trkpt>
      <trkpt lat="44.09384" lon="3.04342">
        <ele>428.6</ele>
        <time>2018-05-19T13:09:57Z</time>
      </trkpt>
      <trkpt lat="44.09379" lon="3.04343">
        <ele>429.6</ele>
        <time>2018-05-19T13:09:58Z</time>
      </trkpt>
      <trkpt lat="44.09377" lon="3.04346">
        <ele>429.3</ele>
        <time>2018-05-19T13:09:59Z</time>
      </trkpt>
      <trkpt lat="44.09373" lon="3.04352">
        <ele>431.5</ele>
        <time>2018-05-19T13:10:00Z</time>
      </trkpt>
      <trkpt lat="44.09371" lon="3.04356">
        <ele>432.3</ele>
        <time>2018-05-19T13:10:01Z</time>
      </trkpt>
      <trkpt lat="44.09368" lon="3.04359">
        <ele>431.9</ele>
        <time>2018-05-19T13:10:02Z</time>
      </trkpt>
      <trkpt lat="44.09366" lon="3.04362">
        <ele>432.5</ele>
        <time>2018-05-19T13:10:04Z</time>
      </trkpt>
      <trkpt lat="44.09363" lon="3.04366">
        <ele>433.5</ele>
        <time>2018-05-19T13:10:06Z</time>
      </trkpt>
      <trkpt lat="44.09364" lon="3.04371">
        <ele>434.4</ele>
        <time>2018-05-19T13:10:07Z</time>
      </trkpt>
      <trkpt lat="44.09362" lon="3.04374">
        <ele>434.8</ele>
        <time>2018-05-19T13:10:08Z</time>
      </trkpt>
      <trkpt lat="44.0936" lon="3.04379">
        <ele>435.1</ele>
        <time>2018-05-19T13:10:09Z</time>
      </trkpt>
      <trkpt lat="44.09357" lon="3.04383">
        <ele>435.9</ele>
        <time>2018-05-19T13:10:10Z</time>
      </trkpt>
      <trkpt lat="44.09355" lon="3.04389">
        <ele>436.2</ele>
        <time>2018-05-19T13:10:11Z</time>
      </trkpt>
      <trkpt lat="44.09352" lon="3.04395">
        <ele>437.2</ele>
        <time>2018-05-19T13:10:12Z</time>
      </trkpt>
      <trkpt lat="44.09349" lon="3.04401">
        <ele>437.4</ele>
        <time>2018-05-19T13:10:13Z</time>
      </trkpt>
      <trkpt lat="44.09346" lon="3.04407">
        <ele>437.6</ele>
        <time>2018-05-19T13:10:14Z</time>
      </trkpt>
      <trkpt lat="44.0934" lon="3.04414">
        <ele>437.6</ele>
        <time>2018-05-19T13:10:15Z</time>
      </trkpt>
      <trkpt lat="44.09337" lon="3.04421">
        <ele>437.8</ele>
        <time>2018-05-19T13:10:16Z</time>
      </trkpt>
      <trkpt lat="44.09335" lon="3.0443">
        <ele>437.8</ele>
        <time>2018-05-19T13:10:17Z</time>
      </trkpt>
      <trkpt lat="44.0933" lon="3.04438">
        <ele>437.6</ele>
        <time>2018-05-19T13:10:18Z</time>
      </trkpt>
      <trkpt lat="44.09327" lon="3.04447">
        <ele>437.2</ele>
        <time>2018-05-19T13:10:19Z</time>
      </trkpt>
      <trkpt lat="44.09323" lon="3.04455">
        <ele>436.6</ele>
        <time>2018-05-19T13:10:20Z</time>
      </trkpt>
      <trkpt lat="44.09321" lon="3.04464">
        <ele>436</ele>
        <time>2018-05-19T13:10:21Z</time>
      </trkpt>
      <trkpt lat="44.09318" lon="3.04473">
        <ele>435.4</ele>
        <time>2018-05-19T13:10:22Z</time>
      </trkpt>
      <trkpt lat="44.09317" lon="3.04483">
        <ele>435.3</ele>
        <time>2018-05-19T13:10:23Z</time>
      </trkpt>
      <trkpt lat="44.09315" lon="3.04492">
        <ele>434.5</ele>
        <time>2018-05-19T13:10:24Z</time>
      </trkpt>
      <trkpt lat="44.09315" lon="3.04502">
        <ele>434</ele>
        <time>2018-05-19T13:10:25Z</time>
      </trkpt>
      <trkpt lat="44.09314" lon="3.04511">
        <ele>433.7</ele>
        <time>2018-05-19T13:10:26Z</time>
      </trkpt>
      <trkpt lat="44.09314" lon="3.04521">
        <ele>433.3</ele>
        <time>2018-05-19T13:10:27Z</time>
      </trkpt>
      <trkpt lat="44.09316" lon="3.04531">
        <ele>432.9</ele>
        <time>2018-05-19T13:10:28Z</time>
      </trkpt>
      <trkpt lat="44.09316" lon="3.0454">
        <ele>432.4</ele>
        <time>2018-05-19T13:10:29Z</time>
      </trkpt>
      <trkpt lat="44.09318" lon="3.04549">
        <ele>432.6</ele>
        <time>2018-05-19T13:10:30Z</time>
      </trkpt>
      <trkpt lat="44.09321" lon="3.04557">
        <ele>433.2</ele>
        <time>2018-05-19T13:10:31Z</time>
      </trkpt>
      <trkpt lat="44.09324" lon="3.04564">
        <ele>433.5</ele>
        <time>2018-05-19T13:10:32Z</time>
      </trkpt>
      <trkpt lat="44.09327" lon="3.0457">
        <ele>434</ele>
        <time>2018-05-19T13:10:33Z</time>
      </trkpt>
      <trkpt lat="44.0933" lon="3.04577">
        <ele>434.2</ele>
        <time>2018-05-19T13:10:34Z</time>
      </trkpt>
      <trkpt lat="44.09333" lon="3.04586">
        <ele>434.4</ele>
        <time>2018-05-19T13:10:35Z</time>
      </trkpt>
      <trkpt lat="44.09337" lon="3.04592">
        <ele>434.7</ele>
        <time>2018-05-19T13:10:36Z</time>
      </trkpt>
      <trkpt lat="44.0934" lon="3.04598">
        <ele>435.3</ele>
        <time>2018-05-19T13:10:37Z</time>
      </trkpt>
      <trkpt lat="44.09345" lon="3.04603">
        <ele>436.6</ele>
        <time>2018-05-19T13:10:38Z</time>
      </trkpt>
      <trkpt lat="44.09349" lon="3.04608">
        <ele>437</ele>
        <time>2018-05-19T13:10:39Z</time>
      </trkpt>
      <trkpt lat="44.09353" lon="3.04612">
        <ele>438</ele>
        <time>2018-05-19T13:10:40Z</time>
      </trkpt>
      <trkpt lat="44.09356" lon="3.04615">
        <ele>438</ele>
        <time>2018-05-19T13:10:41Z</time>
      </trkpt>
      <trkpt lat="44.09359" lon="3.04618">
        <ele>438</ele>
        <time>2018-05-19T13:10:42Z</time>
      </trkpt>
      <trkpt lat="44.09363" lon="3.04622">
        <ele>438</ele>
        <time>2018-05-19T13:10:44Z</time>
      </trkpt>
      <trkpt lat="44.09364" lon="3.04629">
        <ele>438</ele>
        <time>2018-05-19T13:10:46Z</time>
      </trkpt>
      <trkpt lat="44.09364" lon="3.04635">
        <ele>438</ele>
        <time>2018-05-19T13:10:47Z</time>
      </trkpt>
      <trkpt lat="44.09364" lon="3.04639">
        <ele>438</ele>
        <time>2018-05-19T13:10:48Z</time>
      </trkpt>
      <trkpt lat="44.09364" lon="3.04644">
        <ele>438</ele>
        <time>2018-05-19T13:10:50Z</time>
      </trkpt>
      <trkpt lat="44.09362" lon="3.0465">
        <ele>438</ele>
        <time>2018-05-19T13:10:52Z</time>
      </trkpt>
      <trkpt lat="44.09361" lon="3.04654">
        <ele>438.1</ele>
        <time>2018-05-19T13:10:54Z</time>
      </trkpt>
      <trkpt lat="44.09358" lon="3.04658">
        <ele>438.2</ele>
        <time>2018-05-19T13:10:56Z</time>
      </trkpt>
      <trkpt lat="44.09355" lon="3.04661">
        <ele>438.3</ele>
        <time>2018-05-19T13:10:58Z</time>
      </trkpt>
      <trkpt lat="44.09353" lon="3.04664">
        <ele>438.5</ele>
        <time>2018-05-19T13:11:00Z</time>
      </trkpt>
      <trkpt lat="44.09351" lon="3.04669">
        <ele>438.7</ele>
        <time>2018-05-19T13:11:02Z</time>
      </trkpt>
      <trkpt lat="44.09351" lon="3.04674">
        <ele>439</ele>
        <time>2018-05-19T13:11:04Z</time>
      </trkpt>
      <trkpt lat="44.09351" lon="3.04679">
        <ele>439.3</ele>
        <time>2018-05-19T13:11:06Z</time>
      </trkpt>
      <trkpt lat="44.0935" lon="3.04684">
        <ele>439.6</ele>
        <time>2018-05-19T13:11:08Z</time>
      </trkpt>
      <trkpt lat="44.09349" lon="3.04688">
        <ele>439.8</ele>
        <time>2018-05-19T13:11:10Z</time>
      </trkpt>
      <trkpt lat="44.09348" lon="3.04693">
        <ele>440</ele>
        <time>2018-05-19T13:11:12Z</time>
      </trkpt>
      <trkpt lat="44.09347" lon="3.04697">
        <ele>440.2</ele>
        <time>2018-05-19T13:11:14Z</time>
      </trkpt>
      <trkpt lat="44.09346" lon="3.04701">
        <ele>440.4</ele>
        <time>2018-05-19T13:11:16Z</time>
      </trkpt>
      <trkpt lat="44.09345" lon="3.04705">
        <ele>440.5</ele>
        <time>2018-05-19T13:11:19Z</time>
      </trkpt>
      <trkpt lat="44.09344" lon="3.04709">
        <ele>440.7</ele>
        <time>2018-05-19T13:11:22Z</time>
      </trkpt>
      <trkpt lat="44.09342" lon="3.04713">
        <ele>440.8</ele>
        <time>2018-05-19T13:11:24Z</time>
      </trkpt>
      <trkpt lat="44.0934" lon="3.04718">
        <ele>440.9</ele>
        <time>2018-05-19T13:11:27Z</time>
      </trkpt>
      <trkpt lat="44.09339" lon="3.04722">
        <ele>441</ele>
        <time>2018-05-19T13:11:29Z</time>
      </trkpt>
      <trkpt lat="44.09337" lon="3.04725">
        <ele>441</ele>
        <time>2018-05-19T13:11:31Z</time>
      </trkpt>
      <trkpt lat="44.09336" lon="3.04731">
        <ele>441.1</ele>
        <time>2018-05-19T13:11:34Z</time>
      </trkpt>
      <trkpt lat="44.09335" lon="3.04735">
        <ele>441.2</ele>
        <time>2018-05-19T13:11:36Z</time>
      </trkpt>
      <trkpt lat="44.09334" lon="3.04739">
        <ele>441.2</ele>
        <time>2018-05-19T13:11:38Z</time>
      </trkpt>
      <trkpt lat="44.09333" lon="3.04743">
        <ele>441.2</ele>
        <time>2018-05-19T13:11:40Z</time>
      </trkpt>
      <trkpt lat="44.09333" lon="3.04748">
        <ele>441.2</ele>
        <time>2018-05-19T13:11:42Z</time>
      </trkpt>
      <trkpt lat="44.09333" lon="3.04754">
        <ele>441.2</ele>
        <time>2018-05-19T13:11:44Z</time>
      </trkpt>
      <trkpt lat="44.09332" lon="3.04759">
        <ele>441.2</ele>
        <time>2018-05-19T13:11:46Z</time>
      </trkpt>
      <trkpt lat="44.09332" lon="3.04766">
        <ele>441.2</ele>
        <time>2018-05-19T13:11:48Z</time>
      </trkpt>
      <trkpt lat="44.09333" lon="3.04773">
        <ele>441.1</ele>
        <time>2018-05-19T13:11:50Z</time>
      </trkpt>
      <trkpt lat="44.09334" lon="3.0478">
        <ele>441.1</ele>
        <time>2018-05-19T13:11:52Z</time>
      </trkpt>
      <trkpt lat="44.09335" lon="3.04787">
        <ele>441.1</ele>
        <time>2018-05-19T13:11:54Z</time>
      </trkpt>
      <trkpt lat="44.09336" lon="3.04793">
        <ele>441</ele>
        <time>2018-05-19T13:11:56Z</time>
      </trkpt>
      <trkpt lat="44.09336" lon="3.04797">
        <ele>441</ele>
        <time>2018-05-19T13:11:58Z</time>
      </trkpt>
      <trkpt lat="44.09337" lon="3.04802">
        <ele>440.6</ele>
        <time>2018-05-19T13:12:00Z</time>
      </trkpt>
      <trkpt lat="44.09338" lon="3.04811">
        <ele>440.3</ele>
        <time>2018-05-19T13:12:02Z</time>
      </trkpt>
      <trkpt lat="44.09338" lon="3.04816">
        <ele>440.1</ele>
        <time>2018-05-19T13:12:03Z</time>
      </trkpt>
      <trkpt lat="44.09338" lon="3.04822">
        <ele>439.9</ele>
        <time>2018-05-19T13:12:04Z</time>
      </trkpt>
      <trkpt lat="44.09337" lon="3.04829">
        <ele>439.7</ele>
        <time>2018-05-19T13:12:05Z</time>
      </trkpt>
      <trkpt lat="44.09338" lon="3.04835">
        <ele>439.5</ele>
        <time>2018-05-19T13:12:06Z</time>
      </trkpt>
      <trkpt lat="44.09338" lon="3.0484">
        <ele>439.3</ele>
        <time>2018-05-19T13:12:07Z</time>
      </trkpt>
      <trkpt lat="44.09338" lon="3.04845">
        <ele>439.2</ele>
        <time>2018-05-19T13:12:08Z</time>
      </trkpt>
      <trkpt lat="44.09338" lon="3.0485">
        <ele>438.8</ele>
        <time>2018-05-19T13:12:09Z</time>
      </trkpt>
      <trkpt lat="44.09339" lon="3.04855">
        <ele>438.6</ele>
        <time>2018-05-19T13:12:10Z</time>
      </trkpt>
      <trkpt lat="44.09341" lon="3.04864">
        <ele>438</ele>
        <time>2018-05-19T13:12:12Z</time>
      </trkpt>
      <trkpt lat="44.09341" lon="3.04868">
        <ele>437.7</ele>
        <time>2018-05-19T13:12:13Z</time>
      </trkpt>
      <trkpt lat="44.09341" lon="3.04872">
        <ele>437.4</ele>
        <time>2018-05-19T13:12:15Z</time>
      </trkpt>
      <trkpt lat="44.09343" lon="3.04869">
        <ele>437.1</ele>
        <time>2018-05-19T13:12:27Z</time>
      </trkpt>
      <trkpt lat="44.09341" lon="3.04872">
        <ele>436.9</ele>
        <time>2018-05-19T13:13:29Z</time>
      </trkpt>
      <trkpt lat="44.09343" lon="3.04875">
        <ele>436.6</ele>
        <time>2018-05-19T13:13:43Z</time>
      </trkpt>
      <trkpt lat="44.09344" lon="3.04881">
        <ele>436.2</ele>
        <time>2018-05-19T13:13:55Z</time>
      </trkpt>
      <trkpt lat="44.09344" lon="3.04888">
        <ele>435.8</ele>
        <time>2018-05-19T13:13:57Z</time>
      </trkpt>
      <trkpt lat="44.09343" lon="3.04895">
        <ele>435.3</ele>
        <time>2018-05-19T13:13:59Z</time>
      </trkpt>
      <trkpt lat="44.09342" lon="3.049">
        <ele>435.1</ele>
        <time>2018-05-19T13:14:00Z</time>
      </trkpt>
      <trkpt lat="44.09341" lon="3.04905">
        <ele>434.9</ele>
        <time>2018-05-19T13:14:01Z</time>
      </trkpt>
      <trkpt lat="44.09341" lon="3.04911">
        <ele>434.7</ele>
        <time>2018-05-19T13:14:02Z</time>
      </trkpt>
      <trkpt lat="44.09339" lon="3.04917">
        <ele>434.6</ele>
        <time>2018-05-19T13:14:03Z</time>
      </trkpt>
      <trkpt lat="44.09339" lon="3.04924">
        <ele>434.5</ele>
        <time>2018-05-19T13:14:04Z</time>
      </trkpt>
      <trkpt lat="44.09339" lon="3.04931">
        <ele>434.4</ele>
        <time>2018-05-19T13:14:05Z</time>
      </trkpt>
      <trkpt lat="44.09338" lon="3.04939">
        <ele>434.3</ele>
        <time>2018-05-19T13:14:06Z</time>
      </trkpt>
      <trkpt lat="44.09337" lon="3.04948">
        <ele>434.2</ele>
        <time>2018-05-19T13:14:07Z</time>
      </trkpt>
      <trkpt lat="44.09336" lon="3.04956">
        <ele>434.2</ele>
        <time>2018-05-19T13:14:08Z</time>
      </trkpt>
      <trkpt lat="44.09335" lon="3.04965">
        <ele>434.1</ele>
        <time>2018-05-19T13:14:09Z</time>
      </trkpt>
      <trkpt lat="44.09335" lon="3.04975">
        <ele>434.2</ele>
        <time>2018-05-19T13:14:10Z</time>
      </trkpt>
      <trkpt lat="44.09335" lon="3.04985">
        <ele>434.4</ele>
        <time>2018-05-19T13:14:11Z</time>
      </trkpt>
      <trkpt lat="44.09336" lon="3.04996">
        <ele>434.7</ele>
        <time>2018-05-19T13:14:12Z</time>
      </trkpt>
      <trkpt lat="44.09335" lon="3.05004">
        <ele>434.9</ele>
        <time>2018-05-19T13:14:13Z</time>
      </trkpt>
      <trkpt lat="44.09335" lon="3.0501">
        <ele>435</ele>
        <time>2018-05-19T13:14:14Z</time>
      </trkpt>
      <trkpt lat="44.09334" lon="3.05019">
        <ele>434.1</ele>
        <time>2018-05-19T13:14:15Z</time>
      </trkpt>
      <trkpt lat="44.09333" lon="3.05027">
        <ele>432.7</ele>
        <time>2018-05-19T13:14:16Z</time>
      </trkpt>
      <trkpt lat="44.09331" lon="3.05035">
        <ele>431.1</ele>
        <time>2018-05-19T13:14:17Z</time>
      </trkpt>
      <trkpt lat="44.0933" lon="3.05044">
        <ele>429.7</ele>
        <time>2018-05-19T13:14:18Z</time>
      </trkpt>
      <trkpt lat="44.09328" lon="3.05055">
        <ele>428.2</ele>
        <time>2018-05-19T13:14:19Z</time>
      </trkpt>
      <trkpt lat="44.09325" lon="3.05066">
        <ele>426</ele>
        <time>2018-05-19T13:14:20Z</time>
      </trkpt>
      <trkpt lat="44.09323" lon="3.05079">
        <ele>424.1</ele>
        <time>2018-05-19T13:14:21Z</time>
      </trkpt>
      <trkpt lat="44.0932" lon="3.05092">
        <ele>422</ele>
        <time>2018-05-19T13:14:22Z</time>
      </trkpt>
      <trkpt lat="44.09316" lon="3.05106">
        <ele>419.4</ele>
        <time>2018-05-19T13:14:23Z</time>
      </trkpt>
      <trkpt lat="44.09312" lon="3.05122">
        <ele>416.5</ele>
        <time>2018-05-19T13:14:24Z</time>
      </trkpt>
      <trkpt lat="44.09309" lon="3.05136">
        <ele>414.2</ele>
        <time>2018-05-19T13:14:25Z</time>
      </trkpt>
      <trkpt lat="44.09304" lon="3.05151">
        <ele>411.3</ele>
        <time>2018-05-19T13:14:26Z</time>
      </trkpt>
      <trkpt lat="44.093" lon="3.05167">
        <ele>408.2</ele>
        <time>2018-05-19T13:14:27Z</time>
      </trkpt>
      <trkpt lat="44.09295" lon="3.05181">
        <ele>406.1</ele>
        <time>2018-05-19T13:14:28Z</time>
      </trkpt>
      <trkpt lat="44.09291" lon="3.05191">
        <ele>404.7</ele>
        <time>2018-05-19T13:14:29Z</time>
      </trkpt>
      <trkpt lat="44.09286" lon="3.05203">
        <ele>404.6</ele>
        <time>2018-05-19T13:14:30Z</time>
      </trkpt>
      <trkpt lat="44.09281" lon="3.05213">
        <ele>405.9</ele>
        <time>2018-05-19T13:14:31Z</time>
      </trkpt>
      <trkpt lat="44.09276" lon="3.05224">
        <ele>407.3</ele>
        <time>2018-05-19T13:14:32Z</time>
      </trkpt>
      <trkpt lat="44.09272" lon="3.05235">
        <ele>408.6</ele>
        <time>2018-05-19T13:14:33Z</time>
      </trkpt>
      <trkpt lat="44.09267" lon="3.05245">
        <ele>410.2</ele>
        <time>2018-05-19T13:14:34Z</time>
      </trkpt>
      <trkpt lat="44.09261" lon="3.05255">
        <ele>408.1</ele>
        <time>2018-05-19T13:14:35Z</time>
      </trkpt>
      <trkpt lat="44.09256" lon="3.05267">
        <ele>400.6</ele>
        <time>2018-05-19T13:14:36Z</time>
      </trkpt>
      <trkpt lat="44.09252" lon="3.05277">
        <ele>394.1</ele>
        <time>2018-05-19T13:14:37Z</time>
      </trkpt>
      <trkpt lat="44.09249" lon="3.05287">
        <ele>388.2</ele>
        <time>2018-05-19T13:14:38Z</time>
      </trkpt>
      <trkpt lat="44.09247" lon="3.05297">
        <ele>389.8</ele>
        <time>2018-05-19T13:14:39Z</time>
      </trkpt>
      <trkpt lat="44.09247" lon="3.05306">
        <ele>391.5</ele>
        <time>2018-05-19T13:14:40Z</time>
      </trkpt>
      <trkpt lat="44.09244" lon="3.05316">
        <ele>393.3</ele>
        <time>2018-05-19T13:14:41Z</time>
      </trkpt>
      <trkpt lat="44.09245" lon="3.05326">
        <ele>395.1</ele>
        <time>2018-05-19T13:14:42Z</time>
      </trkpt>
      <trkpt lat="44.09242" lon="3.05335">
        <ele>396.7</ele>
        <time>2018-05-19T13:14:43Z</time>
      </trkpt>
      <trkpt lat="44.09237" lon="3.05339">
        <ele>397.8</ele>
        <time>2018-05-19T13:14:44Z</time>
      </trkpt>
      <trkpt lat="44.0923" lon="3.05341">
        <ele>397.5</ele>
        <time>2018-05-19T13:14:45Z</time>
      </trkpt>
      <trkpt lat="44.09223" lon="3.0534">
        <ele>397.1</ele>
        <time>2018-05-19T13:14:46Z</time>
      </trkpt>
      <trkpt lat="44.09217" lon="3.05341">
        <ele>396.7</ele>
        <time>2018-05-19T13:14:47Z</time>
      </trkpt>
      <trkpt lat="44.09211" lon="3.05342">
        <ele>396.3</ele>
        <time>2018-05-19T13:14:48Z</time>
      </trkpt>
      <trkpt lat="44.09206" lon="3.05344">
        <ele>396</ele>
        <time>2018-05-19T13:14:49Z</time>
      </trkpt>
      <trkpt lat="44.09202" lon="3.05348">
        <ele>395.5</ele>
        <time>2018-05-19T13:14:50Z</time>
      </trkpt>
      <trkpt lat="44.09198" lon="3.05353">
        <ele>395.1</ele>
        <time>2018-05-19T13:14:51Z</time>
      </trkpt>
      <trkpt lat="44.09196" lon="3.05359">
        <ele>394.8</ele>
        <time>2018-05-19T13:14:52Z</time>
      </trkpt>
      <trkpt lat="44.09193" lon="3.05367">
        <ele>394.4</ele>
        <time>2018-05-19T13:14:53Z</time>
      </trkpt>
      <trkpt lat="44.0919" lon="3.05377">
        <ele>394</ele>
        <time>2018-05-19T13:14:54Z</time>
      </trkpt>
      <trkpt lat="44.09186" lon="3.05384">
        <ele>393.8</ele>
        <time>2018-05-19T13:14:55Z</time>
      </trkpt>
      <trkpt lat="44.09184" lon="3.05393">
        <ele>393.5</ele>
        <time>2018-05-19T13:14:56Z</time>
      </trkpt>
      <trkpt lat="44.09179" lon="3.05402">
        <ele>393.2</ele>
        <time>2018-05-19T13:14:57Z</time>
      </trkpt>
      <trkpt lat="44.09173" lon="3.05406">
        <ele>392.9</ele>
        <time>2018-05-19T13:14:58Z</time>
      </trkpt>
      <trkpt lat="44.09166" lon="3.05408">
        <ele>392.7</ele>
        <time>2018-05-19T13:14:59Z</time>
      </trkpt>
      <trkpt lat="44.09159" lon="3.0541">
        <ele>392.4</ele>
        <time>2018-05-19T13:15:00Z</time>
      </trkpt>
      <trkpt lat="44.0915" lon="3.05412">
        <ele>392.1</ele>
        <time>2018-05-19T13:15:01Z</time>
      </trkpt>
      <trkpt lat="44.09144" lon="3.05415">
        <ele>391.8</ele>
        <time>2018-05-19T13:15:02Z</time>
      </trkpt>
      <trkpt lat="44.09138" lon="3.05422">
        <ele>391.4</ele>
        <time>2018-05-19T13:15:03Z</time>
      </trkpt>
      <trkpt lat="44.09132" lon="3.05429">
        <ele>391.1</ele>
        <time>2018-05-19T13:15:04Z</time>
      </trkpt>
      <trkpt lat="44.09128" lon="3.05437">
        <ele>390.7</ele>
        <time>2018-05-19T13:15:05Z</time>
      </trkpt>
      <trkpt lat="44.09126" lon="3.05446">
        <ele>390.3</ele>
        <time>2018-05-19T13:15:06Z</time>
      </trkpt>
      <trkpt lat="44.09123" lon="3.05453">
        <ele>390</ele>
        <time>2018-05-19T13:15:07Z</time>
      </trkpt>
      <trkpt lat="44.0912" lon="3.05461">
        <ele>389.4</ele>
        <time>2018-05-19T13:15:08Z</time>
      </trkpt>
      <trkpt lat="44.09119" lon="3.05468">
        <ele>388.9</ele>
        <time>2018-05-19T13:15:09Z</time>
      </trkpt>
      <trkpt lat="44.09117" lon="3.05471">
        <ele>388.3</ele>
        <time>2018-05-19T13:15:10Z</time>
      </trkpt>
      <trkpt lat="44.09114" lon="3.05472">
        <ele>387.6</ele>
        <time>2018-05-19T13:15:11Z</time>
      </trkpt>
      <trkpt lat="44.09108" lon="3.05471">
        <ele>386.1</ele>
        <time>2018-05-19T13:15:13Z</time>
      </trkpt>
      <trkpt lat="44.09102" lon="3.0547">
        <ele>384.9</ele>
        <time>2018-05-19T13:15:14Z</time>
      </trkpt>
      <trkpt lat="44.09097" lon="3.0547">
        <ele>383.5</ele>
        <time>2018-05-19T13:15:15Z</time>
      </trkpt>
      <trkpt lat="44.09093" lon="3.0547">
        <ele>382.6</ele>
        <time>2018-05-19T13:15:16Z</time>
      </trkpt>
      <trkpt lat="44.09088" lon="3.05471">
        <ele>381.1</ele>
        <time>2018-05-19T13:15:17Z</time>
      </trkpt>
      <trkpt lat="44.09085" lon="3.05469">
        <ele>380.1</ele>
        <time>2018-05-19T13:15:25Z</time>
      </trkpt>
      <trkpt lat="44.09081" lon="3.05469">
        <ele>379</ele>
        <time>2018-05-19T13:15:28Z</time>
      </trkpt>
      <trkpt lat="44.0908" lon="3.05473">
        <ele>379</ele>
        <time>2018-05-19T13:15:41Z</time>
      </trkpt>
      <trkpt lat="44.09078" lon="3.05475">
        <ele>379</ele>
        <time>2018-05-19T13:16:09Z</time>
      </trkpt>
      <trkpt lat="44.09076" lon="3.05481">
        <ele>379</ele>
        <time>2018-05-19T13:16:11Z</time>
      </trkpt>
      <trkpt lat="44.09076" lon="3.05487">
        <ele>379</ele>
        <time>2018-05-19T13:16:13Z</time>
      </trkpt>
      <trkpt lat="44.09076" lon="3.05491">
        <ele>379</ele>
        <time>2018-05-19T13:16:14Z</time>
      </trkpt>
      <trkpt lat="44.09076" lon="3.05496">
        <ele>379</ele>
        <time>2018-05-19T13:16:15Z</time>
      </trkpt>
      <trkpt lat="44.09075" lon="3.055">
        <ele>379</ele>
        <time>2018-05-19T13:16:16Z</time>
      </trkpt>
      <trkpt lat="44.09075" lon="3.05505">
        <ele>379</ele>
        <time>2018-05-19T13:16:17Z</time>
      </trkpt>
      <trkpt lat="44.09074" lon="3.0551">
        <ele>379</ele>
        <time>2018-05-19T13:16:18Z</time>
      </trkpt>
      <trkpt lat="44.09073" lon="3.05515">
        <ele>379</ele>
        <time>2018-05-19T13:16:19Z</time>
      </trkpt>
      <trkpt lat="44.09071" lon="3.0552">
        <ele>378.5</ele>
        <time>2018-05-19T13:16:20Z</time>
      </trkpt>
      <trkpt lat="44.09067" lon="3.05523">
        <ele>378.1</ele>
        <time>2018-05-19T13:16:21Z</time>
      </trkpt>
      <trkpt lat="44.09063" lon="3.05526">
        <ele>377.7</ele>
        <time>2018-05-19T13:16:22Z</time>
      </trkpt>
      <trkpt lat="44.0906" lon="3.05527">
        <ele>377.3</ele>
        <time>2018-05-19T13:16:23Z</time>
      </trkpt>
      <trkpt lat="44.09056" lon="3.05529">
        <ele>376.9</ele>
        <time>2018-05-19T13:16:24Z</time>
      </trkpt>
      <trkpt lat="44.09048" lon="3.05531">
        <ele>376</ele>
        <time>2018-05-19T13:16:25Z</time>
      </trkpt>
      <trkpt lat="44.09045" lon="3.05534">
        <ele>375.4</ele>
        <time>2018-05-19T13:16:26Z</time>
      </trkpt>
      <trkpt lat="44.09041" lon="3.05537">
        <ele>375.1</ele>
        <time>2018-05-19T13:16:27Z</time>
      </trkpt>
      <trkpt lat="44.09038" lon="3.05541">
        <ele>374.8</ele>
        <time>2018-05-19T13:16:28Z</time>
      </trkpt>
      <trkpt lat="44.09033" lon="3.05546">
        <ele>374.4</ele>
        <time>2018-05-19T13:16:29Z</time>
      </trkpt>
      <trkpt lat="44.09029" lon="3.0555">
        <ele>374.1</ele>
        <time>2018-05-19T13:16:30Z</time>
      </trkpt>
      <trkpt lat="44.09026" lon="3.05554">
        <ele>373.8</ele>
        <time>2018-05-19T13:16:31Z</time>
      </trkpt>
      <trkpt lat="44.09022" lon="3.05559">
        <ele>373.5</ele>
        <time>2018-05-19T13:16:32Z</time>
      </trkpt>
      <trkpt lat="44.09019" lon="3.05565">
        <ele>373.2</ele>
        <time>2018-05-19T13:16:33Z</time>
      </trkpt>
      <trkpt lat="44.09016" lon="3.05571">
        <ele>372.9</ele>
        <time>2018-05-19T13:16:34Z</time>
      </trkpt>
      <trkpt lat="44.09013" lon="3.05578">
        <ele>372.5</ele>
        <time>2018-05-19T13:16:35Z</time>
      </trkpt>
      <trkpt lat="44.09009" lon="3.05585">
        <ele>372.1</ele>
        <time>2018-05-19T13:16:36Z</time>
      </trkpt>
      <trkpt lat="44.09007" lon="3.05594">
        <ele>371.8</ele>
        <time>2018-05-19T13:16:37Z</time>
      </trkpt>
      <trkpt lat="44.09004" lon="3.05601">
        <ele>371.5</ele>
        <time>2018-05-19T13:16:38Z</time>
      </trkpt>
      <trkpt lat="44.09" lon="3.05609">
        <ele>371.2</ele>
        <time>2018-05-19T13:16:39Z</time>
      </trkpt>
      <trkpt lat="44.08997" lon="3.05618">
        <ele>370.8</ele>
        <time>2018-05-19T13:16:40Z</time>
      </trkpt>
      <trkpt lat="44.08996" lon="3.05626">
        <ele>370.6</ele>
        <time>2018-05-19T13:16:41Z</time>
      </trkpt>
      <trkpt lat="44.08995" lon="3.05634">
        <ele>370.3</ele>
        <time>2018-05-19T13:16:42Z</time>
      </trkpt>
      <trkpt lat="44.08995" lon="3.05643">
        <ele>369.9</ele>
        <time>2018-05-19T13:16:43Z</time>
      </trkpt>
      <trkpt lat="44.08993" lon="3.0565">
        <ele>369.7</ele>
        <time>2018-05-19T13:16:44Z</time>
      </trkpt>
      <trkpt lat="44.08993" lon="3.05655">
        <ele>369.4</ele>
        <time>2018-05-19T13:16:45Z</time>
      </trkpt>
      <trkpt lat="44.08991" lon="3.05659">
        <ele>369.3</ele>
        <time>2018-05-19T13:16:46Z</time>
      </trkpt>
      <trkpt lat="44.08989" lon="3.05663">
        <ele>368.8</ele>
        <time>2018-05-19T13:16:47Z</time>
      </trkpt>
      <trkpt lat="44.08985" lon="3.05666">
        <ele>368</ele>
        <time>2018-05-19T13:16:48Z</time>
      </trkpt>
      <trkpt lat="44.08977" lon="3.05671">
        <ele>366.7</ele>
        <time>2018-05-19T13:16:49Z</time>
      </trkpt>
      <trkpt lat="44.08973" lon="3.05678">
        <ele>366</ele>
        <time>2018-05-19T13:16:50Z</time>
      </trkpt>
      <trkpt lat="44.08968" lon="3.05688">
        <ele>366.2</ele>
        <time>2018-05-19T13:16:51Z</time>
      </trkpt>
      <trkpt lat="44.08964" lon="3.05697">
        <ele>366.6</ele>
        <time>2018-05-19T13:16:52Z</time>
      </trkpt>
      <trkpt lat="44.0896" lon="3.05707">
        <ele>367.1</ele>
        <time>2018-05-19T13:16:53Z</time>
      </trkpt>
      <trkpt lat="44.08956" lon="3.05719">
        <ele>367.5</ele>
        <time>2018-05-19T13:16:54Z</time>
      </trkpt>
      <trkpt lat="44.08955" lon="3.0573">
        <ele>368.3</ele>
        <time>2018-05-19T13:16:55Z</time>
      </trkpt>
      <trkpt lat="44.08955" lon="3.05739">
        <ele>369.2</ele>
        <time>2018-05-19T13:16:56Z</time>
      </trkpt>
      <trkpt lat="44.08955" lon="3.05749">
        <ele>370.1</ele>
        <time>2018-05-19T13:16:57Z</time>
      </trkpt>
      <trkpt lat="44.08955" lon="3.05757">
        <ele>370.9</ele>
        <time>2018-05-19T13:16:58Z</time>
      </trkpt>
      <trkpt lat="44.08955" lon="3.05766">
        <ele>371.6</ele>
        <time>2018-05-19T13:16:59Z</time>
      </trkpt>
      <trkpt lat="44.08955" lon="3.05773">
        <ele>372.3</ele>
        <time>2018-05-19T13:17:00Z</time>
      </trkpt>
      <trkpt lat="44.08956" lon="3.05781">
        <ele>373.2</ele>
        <time>2018-05-19T13:17:01Z</time>
      </trkpt>
      <trkpt lat="44.08956" lon="3.05788">
        <ele>373.8</ele>
        <time>2018-05-19T13:17:02Z</time>
      </trkpt>
      <trkpt lat="44.08957" lon="3.05795">
        <ele>374.4</ele>
        <time>2018-05-19T13:17:03Z</time>
      </trkpt>
      <trkpt lat="44.08957" lon="3.05802">
        <ele>375</ele>
        <time>2018-05-19T13:17:04Z</time>
      </trkpt>
      <trkpt lat="44.08958" lon="3.05809">
        <ele>375</ele>
        <time>2018-05-19T13:17:05Z</time>
      </trkpt>
      <trkpt lat="44.08957" lon="3.05815">
        <ele>375</ele>
        <time>2018-05-19T13:17:06Z</time>
      </trkpt>
      <trkpt lat="44.08957" lon="3.05821">
        <ele>375</ele>
        <time>2018-05-19T13:17:07Z</time>
      </trkpt>
      <trkpt lat="44.08959" lon="3.05827">
        <ele>375</ele>
        <time>2018-05-19T13:17:08Z</time>
      </trkpt>
      <trkpt lat="44.08958" lon="3.05832">
        <ele>375</ele>
        <time>2018-05-19T13:17:09Z</time>
      </trkpt>
      <trkpt lat="44.08958" lon="3.05836">
        <ele>375</ele>
        <time>2018-05-19T13:17:10Z</time>
      </trkpt>
      <trkpt lat="44.08957" lon="3.0584">
        <ele>375</ele>
        <time>2018-05-19T13:17:11Z</time>
      </trkpt>
      <trkpt lat="44.08954" lon="3.05846">
        <ele>374.7</ele>
        <time>2018-05-19T13:17:12Z</time>
      </trkpt>
      <trkpt lat="44.0895" lon="3.05852">
        <ele>374.1</ele>
        <time>2018-05-19T13:17:13Z</time>
      </trkpt>
      <trkpt lat="44.08945" lon="3.05858">
        <ele>373.4</ele>
        <time>2018-05-19T13:17:14Z</time>
      </trkpt>
      <trkpt lat="44.08941" lon="3.05864">
        <ele>373</ele>
        <time>2018-05-19T13:17:15Z</time>
      </trkpt>
      <trkpt lat="44.08935" lon="3.0587">
        <ele>372.6</ele>
        <time>2018-05-19T13:17:16Z</time>
      </trkpt>
      <trkpt lat="44.08931" lon="3.05877">
        <ele>372</ele>
        <time>2018-05-19T13:17:17Z</time>
      </trkpt>
      <trkpt lat="44.08926" lon="3.05886">
        <ele>371.3</ele>
        <time>2018-05-19T13:17:18Z</time>
      </trkpt>
      <trkpt lat="44.08921" lon="3.05894">
        <ele>370.6</ele>
        <time>2018-05-19T13:17:19Z</time>
      </trkpt>
      <trkpt lat="44.08917" lon="3.05901">
        <ele>370.1</ele>
        <time>2018-05-19T13:17:20Z</time>
      </trkpt>
      <trkpt lat="44.08914" lon="3.05911">
        <ele>369.9</ele>
        <time>2018-05-19T13:17:21Z</time>
      </trkpt>
      <trkpt lat="44.08911" lon="3.0592">
        <ele>369.7</ele>
        <time>2018-05-19T13:17:22Z</time>
      </trkpt>
      <trkpt lat="44.08907" lon="3.0593">
        <ele>369.7</ele>
        <time>2018-05-19T13:17:23Z</time>
      </trkpt>
      <trkpt lat="44.08903" lon="3.0594">
        <ele>369.7</ele>
        <time>2018-05-19T13:17:24Z</time>
      </trkpt>
      <trkpt lat="44.08894" lon="3.05946">
        <ele>369.8</ele>
        <time>2018-05-19T13:17:25Z</time>
      </trkpt>
      <trkpt lat="44.08891" lon="3.05953">
        <ele>369.8</ele>
        <time>2018-05-19T13:17:26Z</time>
      </trkpt>
      <trkpt lat="44.08887" lon="3.05963">
        <ele>369.9</ele>
        <time>2018-05-19T13:17:27Z</time>
      </trkpt>
      <trkpt lat="44.08886" lon="3.05969">
        <ele>369.9</ele>
        <time>2018-05-19T13:17:28Z</time>
      </trkpt>
      <trkpt lat="44.08883" lon="3.05975">
        <ele>369.9</ele>
        <time>2018-05-19T13:17:29Z</time>
      </trkpt>
      <trkpt lat="44.08883" lon="3.05979">
        <ele>370</ele>
        <time>2018-05-19T13:17:30Z</time>
      </trkpt>
      <trkpt lat="44.08884" lon="3.05974">
        <ele>370</ele>
        <time>2018-05-19T13:17:35Z</time>
      </trkpt>
      <trkpt lat="44.08887" lon="3.05975">
        <ele>370</ele>
        <time>2018-05-19T13:17:39Z</time>
      </trkpt>
      <trkpt lat="44.08891" lon="3.05976">
        <ele>370</ele>
        <time>2018-05-19T13:17:44Z</time>
      </trkpt>
      <trkpt lat="44.08888" lon="3.05979">
        <ele>370</ele>
        <time>2018-05-19T13:18:01Z</time>
      </trkpt>
      <trkpt lat="44.08886" lon="3.05984">
        <ele>370</ele>
        <time>2018-05-19T13:18:03Z</time>
      </trkpt>
      <trkpt lat="44.08883" lon="3.05989">
        <ele>369.9</ele>
        <time>2018-05-19T13:18:05Z</time>
      </trkpt>
      <trkpt lat="44.08881" lon="3.05996">
        <ele>369.5</ele>
        <time>2018-05-19T13:18:07Z</time>
      </trkpt>
      <trkpt lat="44.08881" lon="3.06003">
        <ele>369.2</ele>
        <time>2018-05-19T13:18:09Z</time>
      </trkpt>
      <trkpt lat="44.08881" lon="3.06007">
        <ele>369</ele>
        <time>2018-05-19T13:18:10Z</time>
      </trkpt>
      <trkpt lat="44.08881" lon="3.06014">
        <ele>368.6</ele>
        <time>2018-05-19T13:18:11Z</time>
      </trkpt>
      <trkpt lat="44.0888" lon="3.0602">
        <ele>368.3</ele>
        <time>2018-05-19T13:18:12Z</time>
      </trkpt>
      <trkpt lat="44.0888" lon="3.06027">
        <ele>368</ele>
        <time>2018-05-19T13:18:13Z</time>
      </trkpt>
      <trkpt lat="44.08878" lon="3.06036">
        <ele>368.4</ele>
        <time>2018-05-19T13:18:14Z</time>
      </trkpt>
      <trkpt lat="44.08879" lon="3.06044">
        <ele>368.8</ele>
        <time>2018-05-19T13:18:15Z</time>
      </trkpt>
      <trkpt lat="44.08879" lon="3.0605">
        <ele>369.1</ele>
        <time>2018-05-19T13:18:16Z</time>
      </trkpt>
      <trkpt lat="44.08881" lon="3.06057">
        <ele>369.5</ele>
        <time>2018-05-19T13:18:17Z</time>
      </trkpt>
      <trkpt lat="44.08884" lon="3.06063">
        <ele>369.9</ele>
        <time>2018-05-19T13:18:18Z</time>
      </trkpt>
      <trkpt lat="44.08886" lon="3.0607">
        <ele>370.2</ele>
        <time>2018-05-19T13:18:19Z</time>
      </trkpt>
      <trkpt lat="44.08891" lon="3.0608">
        <ele>370.8</ele>
        <time>2018-05-19T13:18:20Z</time>
      </trkpt>
      <trkpt lat="44.08893" lon="3.06087">
        <ele>371.2</ele>
        <time>2018-05-19T13:18:21Z</time>
      </trkpt>
      <trkpt lat="44.08896" lon="3.06094">
        <ele>371.6</ele>
        <time>2018-05-19T13:18:22Z</time>
      </trkpt>
      <trkpt lat="44.08901" lon="3.061">
        <ele>372</ele>
        <time>2018-05-19T13:18:23Z</time>
      </trkpt>
      <trkpt lat="44.08905" lon="3.06107">
        <ele>372.5</ele>
        <time>2018-05-19T13:18:24Z</time>
      </trkpt>
      <trkpt lat="44.08909" lon="3.06114">
        <ele>372.9</ele>
        <time>2018-05-19T13:18:25Z</time>
      </trkpt>
      <trkpt lat="44.08914" lon="3.06121">
        <ele>373.4</ele>
        <time>2018-05-19T13:18:26Z</time>
      </trkpt>
      <trkpt lat="44.08919" lon="3.06126">
        <ele>373.9</ele>
        <time>2018-05-19T13:18:27Z</time>
      </trkpt>
      <trkpt lat="44.08925" lon="3.06132">
        <ele>373.9</ele>
        <time>2018-05-19T13:18:28Z</time>
      </trkpt>
      <trkpt lat="44.0893" lon="3.06136">
        <ele>373.6</ele>
        <time>2018-05-19T13:18:29Z</time>
      </trkpt>
      <trkpt lat="44.08936" lon="3.06141">
        <ele>373.4</ele>
        <time>2018-05-19T13:18:30Z</time>
      </trkpt>
      <trkpt lat="44.08941" lon="3.06143">
        <ele>373.2</ele>
        <time>2018-05-19T13:18:31Z</time>
      </trkpt>
      <trkpt lat="44.08948" lon="3.06145">
        <ele>373</ele>
        <time>2018-05-19T13:18:32Z</time>
      </trkpt>
      <trkpt lat="44.08954" lon="3.06148">
        <ele>372.8</ele>
        <time>2018-05-19T13:18:33Z</time>
      </trkpt>
      <trkpt lat="44.08959" lon="3.06152">
        <ele>372.6</ele>
        <time>2018-05-19T13:18:34Z</time>
      </trkpt>
      <trkpt lat="44.08964" lon="3.06155">
        <ele>372.4</ele>
        <time>2018-05-19T13:18:35Z</time>
      </trkpt>
      <trkpt lat="44.0897" lon="3.06156">
        <ele>372.3</ele>
        <time>2018-05-19T13:18:36Z</time>
      </trkpt>
      <trkpt lat="44.08976" lon="3.06157">
        <ele>372.1</ele>
        <time>2018-05-19T13:18:37Z</time>
      </trkpt>
      <trkpt lat="44.08983" lon="3.06159">
        <ele>371.9</ele>
        <time>2018-05-19T13:18:38Z</time>
      </trkpt>
      <trkpt lat="44.0899" lon="3.0616">
        <ele>371.6</ele>
        <time>2018-05-19T13:18:39Z</time>
      </trkpt>
      <trkpt lat="44.08995" lon="3.0616">
        <ele>371.5</ele>
        <time>2018-05-19T13:18:40Z</time>
      </trkpt>
      <trkpt lat="44.09001" lon="3.0616">
        <ele>371.3</ele>
        <time>2018-05-19T13:18:41Z</time>
      </trkpt>
      <trkpt lat="44.09007" lon="3.0616">
        <ele>371.1</ele>
        <time>2018-05-19T13:18:42Z</time>
      </trkpt>
      <trkpt lat="44.09013" lon="3.06161">
        <ele>370.9</ele>
        <time>2018-05-19T13:18:43Z</time>
      </trkpt>
      <trkpt lat="44.0902" lon="3.06162">
        <ele>370.6</ele>
        <time>2018-05-19T13:18:44Z</time>
      </trkpt>
      <trkpt lat="44.09026" lon="3.06162">
        <ele>370.4</ele>
        <time>2018-05-19T13:18:45Z</time>
      </trkpt>
      <trkpt lat="44.09031" lon="3.06163">
        <ele>370.1</ele>
        <time>2018-05-19T13:18:46Z</time>
      </trkpt>
      <trkpt lat="44.09037" lon="3.06164">
        <ele>369.9</ele>
        <time>2018-05-19T13:18:47Z</time>
      </trkpt>
      <trkpt lat="44.09044" lon="3.06165">
        <ele>369.7</ele>
        <time>2018-05-19T13:18:48Z</time>
      </trkpt>
      <trkpt lat="44.09051" lon="3.06166">
        <ele>369.4</ele>
        <time>2018-05-19T13:18:49Z</time>
      </trkpt>
      <trkpt lat="44.09057" lon="3.06168">
        <ele>369.2</ele>
        <time>2018-05-19T13:18:50Z</time>
      </trkpt>
      <trkpt lat="44.09063" lon="3.06171">
        <ele>369</ele>
        <time>2018-05-19T13:18:51Z</time>
      </trkpt>
      <trkpt lat="44.09069" lon="3.06175">
        <ele>368.8</ele>
        <time>2018-05-19T13:18:52Z</time>
      </trkpt>
      <trkpt lat="44.09075" lon="3.06178">
        <ele>368.5</ele>
        <time>2018-05-19T13:18:53Z</time>
      </trkpt>
      <trkpt lat="44.09081" lon="3.06181">
        <ele>368.3</ele>
        <time>2018-05-19T13:18:54Z</time>
      </trkpt>
      <trkpt lat="44.09086" lon="3.06185">
        <ele>368.1</ele>
        <time>2018-05-19T13:18:55Z</time>
      </trkpt>
      <trkpt lat="44.09092" lon="3.06188">
        <ele>367.9</ele>
        <time>2018-05-19T13:18:56Z</time>
      </trkpt>
      <trkpt lat="44.09097" lon="3.06192">
        <ele>367.7</ele>
        <time>2018-05-19T13:18:57Z</time>
      </trkpt>
      <trkpt lat="44.09103" lon="3.06196">
        <ele>367.5</ele>
        <time>2018-05-19T13:18:58Z</time>
      </trkpt>
      <trkpt lat="44.09108" lon="3.06201">
        <ele>367.2</ele>
        <time>2018-05-19T13:18:59Z</time>
      </trkpt>
      <trkpt lat="44.09113" lon="3.06205">
        <ele>367</ele>
        <time>2018-05-19T13:19:00Z</time>
      </trkpt>
      <trkpt lat="44.09118" lon="3.06209">
        <ele>366.8</ele>
        <time>2018-05-19T13:19:01Z</time>
      </trkpt>
      <trkpt lat="44.09123" lon="3.06214">
        <ele>366.6</ele>
        <time>2018-05-19T13:19:02Z</time>
      </trkpt>
      <trkpt lat="44.09127" lon="3.06219">
        <ele>366.5</ele>
        <time>2018-05-19T13:19:03Z</time>
      </trkpt>
      <trkpt lat="44.09131" lon="3.06224">
        <ele>366.3</ele>
        <time>2018-05-19T13:19:04Z</time>
      </trkpt>
      <trkpt lat="44.09136" lon="3.06228">
        <ele>366.1</ele>
        <time>2018-05-19T13:19:05Z</time>
      </trkpt>
      <trkpt lat="44.09141" lon="3.06233">
        <ele>365.9</ele>
        <time>2018-05-19T13:19:06Z</time>
      </trkpt>
      <trkpt lat="44.09146" lon="3.06236">
        <ele>365.7</ele>
        <time>2018-05-19T13:19:07Z</time>
      </trkpt>
      <trkpt lat="44.09151" lon="3.06243">
        <ele>365.5</ele>
        <time>2018-05-19T13:19:08Z</time>
      </trkpt>
      <trkpt lat="44.09156" lon="3.06248">
        <ele>365.2</ele>
        <time>2018-05-19T13:19:09Z</time>
      </trkpt>
      <trkpt lat="44.09161" lon="3.06254">
        <ele>365</ele>
        <time>2018-05-19T13:19:10Z</time>
      </trkpt>
      <trkpt lat="44.09166" lon="3.0626">
        <ele>364.8</ele>
        <time>2018-05-19T13:19:11Z</time>
      </trkpt>
      <trkpt lat="44.0917" lon="3.06266">
        <ele>364.5</ele>
        <time>2018-05-19T13:19:12Z</time>
      </trkpt>
      <trkpt lat="44.09175" lon="3.06272">
        <ele>364.2</ele>
        <time>2018-05-19T13:19:13Z</time>
      </trkpt>
      <trkpt lat="44.09179" lon="3.06278">
        <ele>363.9</ele>
        <time>2018-05-19T13:19:14Z</time>
      </trkpt>
      <trkpt lat="44.09184" lon="3.06284">
        <ele>363.6</ele>
        <time>2018-05-19T13:19:15Z</time>
      </trkpt>
      <trkpt lat="44.09189" lon="3.06291">
        <ele>363.3</ele>
        <time>2018-05-19T13:19:16Z</time>
      </trkpt>
      <trkpt lat="44.09193" lon="3.06297">
        <ele>363</ele>
        <time>2018-05-19T13:19:17Z</time>
      </trkpt>
      <trkpt lat="44.09198" lon="3.06301">
        <ele>362.7</ele>
        <time>2018-05-19T13:19:18Z</time>
      </trkpt>
      <trkpt lat="44.09203" lon="3.06307">
        <ele>362.4</ele>
        <time>2018-05-19T13:19:19Z</time>
      </trkpt>
      <trkpt lat="44.09205" lon="3.06311">
        <ele>362.3</ele>
        <time>2018-05-19T13:19:20Z</time>
      </trkpt>
      <trkpt lat="44.09208" lon="3.06319">
        <ele>361.9</ele>
        <time>2018-05-19T13:19:21Z</time>
      </trkpt>
      <trkpt lat="44.09213" lon="3.06327">
        <ele>361.6</ele>
        <time>2018-05-19T13:19:22Z</time>
      </trkpt>
      <trkpt lat="44.09216" lon="3.06334">
        <ele>361.3</ele>
        <time>2018-05-19T13:19:23Z</time>
      </trkpt>
      <trkpt lat="44.0922" lon="3.06341">
        <ele>361</ele>
        <time>2018-05-19T13:19:24Z</time>
      </trkpt>
      <trkpt lat="44.09224" lon="3.06348">
        <ele>361</ele>
        <time>2018-05-19T13:19:25Z</time>
      </trkpt>
      <trkpt lat="44.09228" lon="3.06355">
        <ele>361</ele>
        <time>2018-05-19T13:19:26Z</time>
      </trkpt>
      <trkpt lat="44.09231" lon="3.06359">
        <ele>361</ele>
        <time>2018-05-19T13:19:27Z</time>
      </trkpt>
      <trkpt lat="44.09234" lon="3.06366">
        <ele>361</ele>
        <time>2018-05-19T13:19:28Z</time>
      </trkpt>
      <trkpt lat="44.09237" lon="3.06373">
        <ele>361</ele>
        <time>2018-05-19T13:19:29Z</time>
      </trkpt>
      <trkpt lat="44.0924" lon="3.06381">
        <ele>361</ele>
        <time>2018-05-19T13:19:30Z</time>
      </trkpt>
      <trkpt lat="44.09242" lon="3.06387">
        <ele>361</ele>
        <time>2018-05-19T13:19:31Z</time>
      </trkpt>
      <trkpt lat="44.09244" lon="3.06395">
        <ele>361</ele>
        <time>2018-05-19T13:19:32Z</time>
      </trkpt>
      <trkpt lat="44.09244" lon="3.06404">
        <ele>361</ele>
        <time>2018-05-19T13:19:33Z</time>
      </trkpt>
      <trkpt lat="44.09241" lon="3.0641">
        <ele>360.3</ele>
        <time>2018-05-19T13:19:34Z</time>
      </trkpt>
      <trkpt lat="44.09238" lon="3.06417">
        <ele>359.1</ele>
        <time>2018-05-19T13:19:35Z</time>
      </trkpt>
      <trkpt lat="44.09236" lon="3.06423">
        <ele>358</ele>
        <time>2018-05-19T13:19:36Z</time>
      </trkpt>
      <trkpt lat="44.09233" lon="3.06425">
        <ele>358</ele>
        <time>2018-05-19T13:19:37Z</time>
      </trkpt>
      <trkpt lat="44.09227" lon="3.06433">
        <ele>357.7</ele>
        <time>2018-05-19T13:19:38Z</time>
      </trkpt>
      <trkpt lat="44.09223" lon="3.06439">
        <ele>357.4</ele>
        <time>2018-05-19T13:19:39Z</time>
      </trkpt>
      <trkpt lat="44.09218" lon="3.06445">
        <ele>357</ele>
        <time>2018-05-19T13:19:40Z</time>
      </trkpt>
      <trkpt lat="44.09214" lon="3.06452">
        <ele>356.7</ele>
        <time>2018-05-19T13:19:41Z</time>
      </trkpt>
      <trkpt lat="44.0921" lon="3.06459">
        <ele>356.5</ele>
        <time>2018-05-19T13:19:42Z</time>
      </trkpt>
      <trkpt lat="44.09206" lon="3.06469">
        <ele>356.2</ele>
        <time>2018-05-19T13:19:43Z</time>
      </trkpt>
      <trkpt lat="44.09201" lon="3.06476">
        <ele>355.9</ele>
        <time>2018-05-19T13:19:44Z</time>
      </trkpt>
      <trkpt lat="44.09197" lon="3.06483">
        <ele>355.6</ele>
        <time>2018-05-19T13:19:45Z</time>
      </trkpt>
      <trkpt lat="44.09192" lon="3.06491">
        <ele>355.3</ele>
        <time>2018-05-19T13:19:46Z</time>
      </trkpt>
      <trkpt lat="44.09188" lon="3.06501">
        <ele>355</ele>
        <time>2018-05-19T13:19:47Z</time>
      </trkpt>
      <trkpt lat="44.09183" lon="3.0651">
        <ele>354.7</ele>
        <time>2018-05-19T13:19:48Z</time>
      </trkpt>
      <trkpt lat="44.09178" lon="3.06519">
        <ele>354.4</ele>
        <time>2018-05-19T13:19:49Z</time>
      </trkpt>
      <trkpt lat="44.09173" lon="3.06527">
        <ele>354.1</ele>
        <time>2018-05-19T13:19:50Z</time>
      </trkpt>
      <trkpt lat="44.09169" lon="3.06535">
        <ele>353.9</ele>
        <time>2018-05-19T13:19:51Z</time>
      </trkpt>
      <trkpt lat="44.09166" lon="3.06538">
        <ele>353.7</ele>
        <time>2018-05-19T13:19:52Z</time>
      </trkpt>
      <trkpt lat="44.09162" lon="3.06546">
        <ele>353.5</ele>
        <time>2018-05-19T13:19:54Z</time>
      </trkpt>
      <trkpt lat="44.09158" lon="3.06551">
        <ele>353</ele>
        <time>2018-05-19T13:19:55Z</time>
      </trkpt>
      <trkpt lat="44.09149" lon="3.06558">
        <ele>353</ele>
        <time>2018-05-19T13:19:56Z</time>
      </trkpt>
      <trkpt lat="44.09146" lon="3.06563">
        <ele>353</ele>
        <time>2018-05-19T13:19:57Z</time>
      </trkpt>
      <trkpt lat="44.09143" lon="3.06568">
        <ele>353.1</ele>
        <time>2018-05-19T13:19:58Z</time>
      </trkpt>
      <trkpt lat="44.0914" lon="3.0657">
        <ele>353.1</ele>
        <time>2018-05-19T13:19:59Z</time>
      </trkpt>
      <trkpt lat="44.09133" lon="3.06583">
        <ele>353.1</ele>
        <time>2018-05-19T13:20:01Z</time>
      </trkpt>
      <trkpt lat="44.09133" lon="3.06591">
        <ele>353.1</ele>
        <time>2018-05-19T13:20:02Z</time>
      </trkpt>
      <trkpt lat="44.09133" lon="3.06599">
        <ele>353.2</ele>
        <time>2018-05-19T13:20:03Z</time>
      </trkpt>
      <trkpt lat="44.09132" lon="3.06607">
        <ele>353.3</ele>
        <time>2018-05-19T13:20:04Z</time>
      </trkpt>
      <trkpt lat="44.09129" lon="3.06616">
        <ele>353.4</ele>
        <time>2018-05-19T13:20:05Z</time>
      </trkpt>
      <trkpt lat="44.09128" lon="3.06623">
        <ele>353.5</ele>
        <time>2018-05-19T13:20:06Z</time>
      </trkpt>
      <trkpt lat="44.09125" lon="3.06632">
        <ele>353.6</ele>
        <time>2018-05-19T13:20:07Z</time>
      </trkpt>
      <trkpt lat="44.09122" lon="3.06642">
        <ele>353.7</ele>
        <time>2018-05-19T13:20:08Z</time>
      </trkpt>
      <trkpt lat="44.09119" lon="3.06652">
        <ele>353.8</ele>
        <time>2018-05-19T13:20:09Z</time>
      </trkpt>
      <trkpt lat="44.09118" lon="3.0666">
        <ele>353.9</ele>
        <time>2018-05-19T13:20:10Z</time>
      </trkpt>
      <trkpt lat="44.09116" lon="3.06668">
        <ele>353.9</ele>
        <time>2018-05-19T13:20:11Z</time>
      </trkpt>
      <trkpt lat="44.09115" lon="3.06677">
        <ele>354</ele>
        <time>2018-05-19T13:20:12Z</time>
      </trkpt>
      <trkpt lat="44.09115" lon="3.06686">
        <ele>354</ele>
        <time>2018-05-19T13:20:13Z</time>
      </trkpt>
      <trkpt lat="44.09116" lon="3.06696">
        <ele>354</ele>
        <time>2018-05-19T13:20:14Z</time>
      </trkpt>
      <trkpt lat="44.09116" lon="3.06705">
        <ele>354.1</ele>
        <time>2018-05-19T13:20:15Z</time>
      </trkpt>
      <trkpt lat="44.09116" lon="3.06714">
        <ele>354.5</ele>
        <time>2018-05-19T13:20:16Z</time>
      </trkpt>
      <trkpt lat="44.09116" lon="3.06722">
        <ele>354.8</ele>
        <time>2018-05-19T13:20:17Z</time>
      </trkpt>
      <trkpt lat="44.09116" lon="3.0673">
        <ele>355.1</ele>
        <time>2018-05-19T13:20:18Z</time>
      </trkpt>
      <trkpt lat="44.09117" lon="3.06739">
        <ele>355.5</ele>
        <time>2018-05-19T13:20:19Z</time>
      </trkpt>
      <trkpt lat="44.09118" lon="3.06747">
        <ele>355.8</ele>
        <time>2018-05-19T13:20:20Z</time>
      </trkpt>
      <trkpt lat="44.09119" lon="3.06754">
        <ele>356</ele>
        <time>2018-05-19T13:20:21Z</time>
      </trkpt>
      <trkpt lat="44.09121" lon="3.06762">
        <ele>356</ele>
        <time>2018-05-19T13:20:22Z</time>
      </trkpt>
      <trkpt lat="44.09123" lon="3.0677">
        <ele>356</ele>
        <time>2018-05-19T13:20:23Z</time>
      </trkpt>
      <trkpt lat="44.09125" lon="3.06781">
        <ele>356</ele>
        <time>2018-05-19T13:20:24Z</time>
      </trkpt>
      <trkpt lat="44.09126" lon="3.06789">
        <ele>356</ele>
        <time>2018-05-19T13:20:25Z</time>
      </trkpt>
      <trkpt lat="44.09128" lon="3.06797">
        <ele>356</ele>
        <time>2018-05-19T13:20:26Z</time>
      </trkpt>
      <trkpt lat="44.09128" lon="3.06803">
        <ele>356</ele>
        <time>2018-05-19T13:20:27Z</time>
      </trkpt>
      <trkpt lat="44.0913" lon="3.0681">
        <ele>356</ele>
        <time>2018-05-19T13:20:28Z</time>
      </trkpt>
      <trkpt lat="44.09132" lon="3.06817">
        <ele>356</ele>
        <time>2018-05-19T13:20:29Z</time>
      </trkpt>
      <trkpt lat="44.09133" lon="3.06824">
        <ele>356</ele>
        <time>2018-05-19T13:20:30Z</time>
      </trkpt>
      <trkpt lat="44.09135" lon="3.0683">
        <ele>355.9</ele>
        <time>2018-05-19T13:20:31Z</time>
      </trkpt>
      <trkpt lat="44.09135" lon="3.06837">
        <ele>355.6</ele>
        <time>2018-05-19T13:20:32Z</time>
      </trkpt>
      <trkpt lat="44.09137" lon="3.06844">
        <ele>355.2</ele>
        <time>2018-05-19T13:20:33Z</time>
      </trkpt>
      <trkpt lat="44.09138" lon="3.06848">
        <ele>355</ele>
        <time>2018-05-19T13:20:34Z</time>
      </trkpt>
      <trkpt lat="44.09139" lon="3.06855">
        <ele>355</ele>
        <time>2018-05-19T13:20:35Z</time>
      </trkpt>
      <trkpt lat="44.0914" lon="3.06861">
        <ele>354.9</ele>
        <time>2018-05-19T13:20:36Z</time>
      </trkpt>
      <trkpt lat="44.09141" lon="3.06867">
        <ele>354.6</ele>
        <time>2018-05-19T13:20:37Z</time>
      </trkpt>
      <trkpt lat="44.09144" lon="3.06875">
        <ele>354.3</ele>
        <time>2018-05-19T13:20:38Z</time>
      </trkpt>
      <trkpt lat="44.09145" lon="3.06883">
        <ele>354.1</ele>
        <time>2018-05-19T13:20:39Z</time>
      </trkpt>
      <trkpt lat="44.09146" lon="3.06889">
        <ele>353.9</ele>
        <time>2018-05-19T13:20:40Z</time>
      </trkpt>
      <trkpt lat="44.09147" lon="3.06896">
        <ele>353.6</ele>
        <time>2018-05-19T13:20:41Z</time>
      </trkpt>
      <trkpt lat="44.09149" lon="3.06905">
        <ele>353.3</ele>
        <time>2018-05-19T13:20:42Z</time>
      </trkpt>
      <trkpt lat="44.0915" lon="3.06911">
        <ele>353</ele>
        <time>2018-05-19T13:20:43Z</time>
      </trkpt>
      <trkpt lat="44.09151" lon="3.06918">
        <ele>352.8</ele>
        <time>2018-05-19T13:20:44Z</time>
      </trkpt>
      <trkpt lat="44.09151" lon="3.06928">
        <ele>352.4</ele>
        <time>2018-05-19T13:20:46Z</time>
      </trkpt>
      <trkpt lat="44.09154" lon="3.06935">
        <ele>352</ele>
        <time>2018-05-19T13:20:47Z</time>
      </trkpt>
      <trkpt lat="44.09155" lon="3.06941">
        <ele>352.2</ele>
        <time>2018-05-19T13:20:48Z</time>
      </trkpt>
      <trkpt lat="44.09157" lon="3.06948">
        <ele>352.5</ele>
        <time>2018-05-19T13:20:49Z</time>
      </trkpt>
      <trkpt lat="44.09159" lon="3.06955">
        <ele>352.7</ele>
        <time>2018-05-19T13:20:50Z</time>
      </trkpt>
      <trkpt lat="44.09161" lon="3.06963">
        <ele>353.1</ele>
        <time>2018-05-19T13:20:51Z</time>
      </trkpt>
      <trkpt lat="44.09164" lon="3.0697">
        <ele>353.4</ele>
        <time>2018-05-19T13:20:52Z</time>
      </trkpt>
      <trkpt lat="44.09166" lon="3.06977">
        <ele>353.7</ele>
        <time>2018-05-19T13:20:53Z</time>
      </trkpt>
      <trkpt lat="44.09169" lon="3.06983">
        <ele>354</ele>
        <time>2018-05-19T13:20:54Z</time>
      </trkpt>
      <trkpt lat="44.09173" lon="3.06992">
        <ele>354.4</ele>
        <time>2018-05-19T13:20:55Z</time>
      </trkpt>
      <trkpt lat="44.09175" lon="3.06997">
        <ele>354.7</ele>
        <time>2018-05-19T13:20:56Z</time>
      </trkpt>
      <trkpt lat="44.09176" lon="3.07003">
        <ele>355</ele>
        <time>2018-05-19T13:20:57Z</time>
      </trkpt>
      <trkpt lat="44.09177" lon="3.07008">
        <ele>355</ele>
        <time>2018-05-19T13:20:58Z</time>
      </trkpt>
      <trkpt lat="44.09179" lon="3.07011">
        <ele>355</ele>
        <time>2018-05-19T13:20:59Z</time>
      </trkpt>
      <trkpt lat="44.09181" lon="3.07013">
        <ele>355</ele>
        <time>2018-05-19T13:21:01Z</time>
      </trkpt>
      <trkpt lat="44.09183" lon="3.07018">
        <ele>355</ele>
        <time>2018-05-19T13:21:03Z</time>
      </trkpt>
      <trkpt lat="44.09182" lon="3.07022">
        <ele>355</ele>
        <time>2018-05-19T13:21:04Z</time>
      </trkpt>
      <trkpt lat="44.09184" lon="3.07024">
        <ele>355</ele>
        <time>2018-05-19T13:21:08Z</time>
      </trkpt>
      <trkpt lat="44.09187" lon="3.07027">
        <ele>355</ele>
        <time>2018-05-19T13:21:13Z</time>
      </trkpt>
      <trkpt lat="44.09189" lon="3.07031">
        <ele>355</ele>
        <time>2018-05-19T13:21:15Z</time>
      </trkpt>
      <trkpt lat="44.09192" lon="3.07037">
        <ele>355</ele>
        <time>2018-05-19T13:21:17Z</time>
      </trkpt>
      <trkpt lat="44.09193" lon="3.0704">
        <ele>355</ele>
        <time>2018-05-19T13:21:18Z</time>
      </trkpt>
      <trkpt lat="44.09196" lon="3.07044">
        <ele>355</ele>
        <time>2018-05-19T13:21:20Z</time>
      </trkpt>
      <trkpt lat="44.09198" lon="3.07048">
        <ele>354.9</ele>
        <time>2018-05-19T13:21:22Z</time>
      </trkpt>
      <trkpt lat="44.09198" lon="3.07053">
        <ele>354.9</ele>
        <time>2018-05-19T13:21:24Z</time>
      </trkpt>
      <trkpt lat="44.09198" lon="3.07059">
        <ele>354.9</ele>
        <time>2018-05-19T13:21:26Z</time>
      </trkpt>
      <trkpt lat="44.09199" lon="3.07063">
        <ele>354.9</ele>
        <time>2018-05-19T13:21:27Z</time>
      </trkpt>
      <trkpt lat="44.092" lon="3.07067">
        <ele>354.9</ele>
        <time>2018-05-19T13:21:28Z</time>
      </trkpt>
      <trkpt lat="44.09203" lon="3.0707">
        <ele>355</ele>
        <time>2018-05-19T13:21:29Z</time>
      </trkpt>
      <trkpt lat="44.09206" lon="3.07073">
        <ele>355</ele>
        <time>2018-05-19T13:21:30Z</time>
      </trkpt>
      <trkpt lat="44.09209" lon="3.07076">
        <ele>355</ele>
        <time>2018-05-19T13:21:31Z</time>
      </trkpt>
      <trkpt lat="44.09211" lon="3.07079">
        <ele>355</ele>
        <time>2018-05-19T13:21:32Z</time>
      </trkpt>
      <trkpt lat="44.09214" lon="3.07083">
        <ele>355</ele>
        <time>2018-05-19T13:21:33Z</time>
      </trkpt>
      <trkpt lat="44.09216" lon="3.07086">
        <ele>355</ele>
        <time>2018-05-19T13:21:34Z</time>
      </trkpt>
      <trkpt lat="44.09218" lon="3.0709">
        <ele>355.1</ele>
        <time>2018-05-19T13:21:35Z</time>
      </trkpt>
      <trkpt lat="44.09221" lon="3.07093">
        <ele>355.2</ele>
        <time>2018-05-19T13:21:36Z</time>
      </trkpt>
      <trkpt lat="44.09224" lon="3.07097">
        <ele>355.3</ele>
        <time>2018-05-19T13:21:37Z</time>
      </trkpt>
      <trkpt lat="44.09227" lon="3.07101">
        <ele>355.4</ele>
        <time>2018-05-19T13:21:38Z</time>
      </trkpt>
      <trkpt lat="44.09229" lon="3.07104">
        <ele>355.5</ele>
        <time>2018-05-19T13:21:39Z</time>
      </trkpt>
      <trkpt lat="44.09231" lon="3.07107">
        <ele>355.5</ele>
        <time>2018-05-19T13:21:40Z</time>
      </trkpt>
      <trkpt lat="44.09234" lon="3.07109">
        <ele>355.6</ele>
        <time>2018-05-19T13:21:41Z</time>
      </trkpt>
      <trkpt lat="44.09236" lon="3.07112">
        <ele>355.7</ele>
        <time>2018-05-19T13:21:42Z</time>
      </trkpt>
      <trkpt lat="44.09238" lon="3.07115">
        <ele>355.8</ele>
        <time>2018-05-19T13:21:43Z</time>
      </trkpt>
      <trkpt lat="44.0924" lon="3.07119">
        <ele>355.9</ele>
        <time>2018-05-19T13:21:44Z</time>
      </trkpt>
      <trkpt lat="44.09242" lon="3.07122">
        <ele>356</ele>
        <time>2018-05-19T13:21:45Z</time>
      </trkpt>
      <trkpt lat="44.09244" lon="3.07126">
        <ele>356.1</ele>
        <time>2018-05-19T13:21:46Z</time>
      </trkpt>
      <trkpt lat="44.09247" lon="3.0713">
        <ele>356.2</ele>
        <time>2018-05-19T13:21:47Z</time>
      </trkpt>
      <trkpt lat="44.09249" lon="3.07134">
        <ele>356.3</ele>
        <time>2018-05-19T13:21:49Z</time>
      </trkpt>
      <trkpt lat="44.09252" lon="3.07139">
        <ele>356.4</ele>
        <time>2018-05-19T13:21:51Z</time>
      </trkpt>
      <trkpt lat="44.09254" lon="3.07142">
        <ele>356.5</ele>
        <time>2018-05-19T13:21:52Z</time>
      </trkpt>
      <trkpt lat="44.09256" lon="3.07146">
        <ele>356.7</ele>
        <time>2018-05-19T13:21:53Z</time>
      </trkpt>
      <trkpt lat="44.09258" lon="3.0715">
        <ele>356.8</ele>
        <time>2018-05-19T13:21:54Z</time>
      </trkpt>
      <trkpt lat="44.0926" lon="3.07154">
        <ele>356.9</ele>
        <time>2018-05-19T13:21:55Z</time>
      </trkpt>
      <trkpt lat="44.09262" lon="3.07158">
        <ele>357</ele>
        <time>2018-05-19T13:21:56Z</time>
      </trkpt>
      <trkpt lat="44.09265" lon="3.07162">
        <ele>357</ele>
        <time>2018-05-19T13:21:57Z</time>
      </trkpt>
      <trkpt lat="44.09267" lon="3.07167">
        <ele>357</ele>
        <time>2018-05-19T13:21:59Z</time>
      </trkpt>
      <trkpt lat="44.09269" lon="3.07174">
        <ele>357</ele>
        <time>2018-05-19T13:22:01Z</time>
      </trkpt>
      <trkpt lat="44.0927" lon="3.07178">
        <ele>357</ele>
        <time>2018-05-19T13:22:02Z</time>
      </trkpt>
      <trkpt lat="44.09272" lon="3.07183">
        <ele>357</ele>
        <time>2018-05-19T13:22:03Z</time>
      </trkpt>
      <trkpt lat="44.09273" lon="3.07187">
        <ele>357</ele>
        <time>2018-05-19T13:22:04Z</time>
      </trkpt>
      <trkpt lat="44.09274" lon="3.07191">
        <ele>357</ele>
        <time>2018-05-19T13:22:05Z</time>
      </trkpt>
      <trkpt lat="44.09276" lon="3.07196">
        <ele>357</ele>
        <time>2018-05-19T13:22:06Z</time>
      </trkpt>
      <trkpt lat="44.09277" lon="3.072">
        <ele>357</ele>
        <time>2018-05-19T13:22:07Z</time>
      </trkpt>
      <trkpt lat="44.09278" lon="3.07205">
        <ele>357</ele>
        <time>2018-05-19T13:22:08Z</time>
      </trkpt>
      <trkpt lat="44.09278" lon="3.07209">
        <ele>357</ele>
        <time>2018-05-19T13:22:09Z</time>
      </trkpt>
      <trkpt lat="44.09279" lon="3.07214">
        <ele>356.9</ele>
        <time>2018-05-19T13:22:10Z</time>
      </trkpt>
      <trkpt lat="44.0928" lon="3.07218">
        <ele>356.9</ele>
        <time>2018-05-19T13:22:11Z</time>
      </trkpt>
      <trkpt lat="44.09281" lon="3.07223">
        <ele>356.9</ele>
        <time>2018-05-19T13:22:12Z</time>
      </trkpt>
      <trkpt lat="44.09282" lon="3.07228">
        <ele>356.8</ele>
        <time>2018-05-19T13:22:13Z</time>
      </trkpt>
      <trkpt lat="44.09283" lon="3.07232">
        <ele>356.8</ele>
        <time>2018-05-19T13:22:14Z</time>
      </trkpt>
      <trkpt lat="44.09285" lon="3.07236">
        <ele>356.7</ele>
        <time>2018-05-19T13:22:15Z</time>
      </trkpt>
      <trkpt lat="44.09287" lon="3.07239">
        <ele>356.7</ele>
        <time>2018-05-19T13:22:16Z</time>
      </trkpt>
      <trkpt lat="44.09289" lon="3.07243">
        <ele>356.6</ele>
        <time>2018-05-19T13:22:17Z</time>
      </trkpt>
      <trkpt lat="44.09291" lon="3.07246">
        <ele>356.5</ele>
        <time>2018-05-19T13:22:18Z</time>
      </trkpt>
      <trkpt lat="44.09293" lon="3.07249">
        <ele>356.5</ele>
        <time>2018-05-19T13:22:19Z</time>
      </trkpt>
      <trkpt lat="44.09294" lon="3.07253">
        <ele>356.4</ele>
        <time>2018-05-19T13:22:20Z</time>
      </trkpt>
      <trkpt lat="44.09296" lon="3.07256">
        <ele>356.4</ele>
        <time>2018-05-19T13:22:21Z</time>
      </trkpt>
      <trkpt lat="44.09299" lon="3.07262">
        <ele>356.3</ele>
        <time>2018-05-19T13:22:23Z</time>
      </trkpt>
      <trkpt lat="44.093" lon="3.07265">
        <ele>356</ele>
        <time>2018-05-19T13:22:24Z</time>
      </trkpt>
      <trkpt lat="44.09302" lon="3.07269">
        <ele>356</ele>
        <time>2018-05-19T13:22:25Z</time>
      </trkpt>
      <trkpt lat="44.09303" lon="3.07272">
        <ele>356</ele>
        <time>2018-05-19T13:22:26Z</time>
      </trkpt>
      <trkpt lat="44.09304" lon="3.07276">
        <ele>356</ele>
        <time>2018-05-19T13:22:27Z</time>
      </trkpt>
      <trkpt lat="44.09306" lon="3.07279">
        <ele>356</ele>
        <time>2018-05-19T13:22:28Z</time>
      </trkpt>
      <trkpt lat="44.09307" lon="3.07282">
        <ele>355.9</ele>
        <time>2018-05-19T13:22:29Z</time>
      </trkpt>
      <trkpt lat="44.09309" lon="3.07286">
        <ele>355.9</ele>
        <time>2018-05-19T13:22:30Z</time>
      </trkpt>
      <trkpt lat="44.0931" lon="3.07289">
        <ele>355.9</ele>
        <time>2018-05-19T13:22:31Z</time>
      </trkpt>
      <trkpt lat="44.09312" lon="3.07292">
        <ele>355.9</ele>
        <time>2018-05-19T13:22:32Z</time>
      </trkpt>
      <trkpt lat="44.09313" lon="3.07296">
        <ele>355.8</ele>
        <time>2018-05-19T13:22:33Z</time>
      </trkpt>
      <trkpt lat="44.09314" lon="3.073">
        <ele>355.8</ele>
        <time>2018-05-19T13:22:34Z</time>
      </trkpt>
      <trkpt lat="44.09316" lon="3.07303">
        <ele>355.8</ele>
        <time>2018-05-19T13:22:35Z</time>
      </trkpt>
      <trkpt lat="44.09317" lon="3.07307">
        <ele>355.8</ele>
        <time>2018-05-19T13:22:36Z</time>
      </trkpt>
      <trkpt lat="44.09319" lon="3.07313">
        <ele>355.9</ele>
        <time>2018-05-19T13:22:38Z</time>
      </trkpt>
      <trkpt lat="44.09321" lon="3.07317">
        <ele>355.9</ele>
        <time>2018-05-19T13:22:40Z</time>
      </trkpt>
      <trkpt lat="44.09323" lon="3.07323">
        <ele>356</ele>
        <time>2018-05-19T13:22:42Z</time>
      </trkpt>
      <trkpt lat="44.09324" lon="3.07327">
        <ele>356.1</ele>
        <time>2018-05-19T13:22:45Z</time>
      </trkpt>
      <trkpt lat="44.09325" lon="3.07331">
        <ele>356.1</ele>
        <time>2018-05-19T13:22:52Z</time>
      </trkpt>
      <trkpt lat="44.09328" lon="3.07336">
        <ele>356.2</ele>
        <time>2018-05-19T13:23:58Z</time>
      </trkpt>
      <trkpt lat="44.09329" lon="3.07339">
        <ele>356.2</ele>
        <time>2018-05-19T13:24:00Z</time>
      </trkpt>
      <trkpt lat="44.09331" lon="3.07343">
        <ele>356.2</ele>
        <time>2018-05-19T13:24:02Z</time>
      </trkpt>
      <trkpt lat="44.09333" lon="3.07348">
        <ele>356.2</ele>
        <time>2018-05-19T13:24:05Z</time>
      </trkpt>
      <trkpt lat="44.09335" lon="3.07351">
        <ele>356.2</ele>
        <time>2018-05-19T13:24:07Z</time>
      </trkpt>
      <trkpt lat="44.09337" lon="3.07355">
        <ele>356.2</ele>
        <time>2018-05-19T13:24:09Z</time>
      </trkpt>
      <trkpt lat="44.09339" lon="3.07359">
        <ele>356.2</ele>
        <time>2018-05-19T13:24:11Z</time>
      </trkpt>
      <trkpt lat="44.0934" lon="3.07365">
        <ele>356.3</ele>
        <time>2018-05-19T13:24:13Z</time>
      </trkpt>
      <trkpt lat="44.09342" lon="3.0737">
        <ele>356.3</ele>
        <time>2018-05-19T13:24:15Z</time>
      </trkpt>
      <trkpt lat="44.09344" lon="3.07377">
        <ele>356.3</ele>
        <time>2018-05-19T13:24:17Z</time>
      </trkpt>
      <trkpt lat="44.09346" lon="3.07384">
        <ele>356.3</ele>
        <time>2018-05-19T13:24:19Z</time>
      </trkpt>
      <trkpt lat="44.09347" lon="3.07388">
        <ele>356.2</ele>
        <time>2018-05-19T13:24:20Z</time>
      </trkpt>
      <trkpt lat="44.09348" lon="3.07394">
        <ele>356.2</ele>
        <time>2018-05-19T13:24:22Z</time>
      </trkpt>
      <trkpt lat="44.09349" lon="3.074">
        <ele>356</ele>
        <time>2018-05-19T13:24:24Z</time>
      </trkpt>
      <trkpt lat="44.09348" lon="3.07404">
        <ele>355.9</ele>
        <time>2018-05-19T13:24:25Z</time>
      </trkpt>
      <trkpt lat="44.09347" lon="3.07408">
        <ele>355.7</ele>
        <time>2018-05-19T13:24:26Z</time>
      </trkpt>
      <trkpt lat="44.09345" lon="3.07413">
        <ele>355.4</ele>
        <time>2018-05-19T13:24:27Z</time>
      </trkpt>
      <trkpt lat="44.09342" lon="3.07418">
        <ele>355</ele>
        <time>2018-05-19T13:24:28Z</time>
      </trkpt>
      <trkpt lat="44.09338" lon="3.07423">
        <ele>354.5</ele>
        <time>2018-05-19T13:24:29Z</time>
      </trkpt>
      <trkpt lat="44.09335" lon="3.07428">
        <ele>354.1</ele>
        <time>2018-05-19T13:24:30Z</time>
      </trkpt>
      <trkpt lat="44.09334" lon="3.07433">
        <ele>353.6</ele>
        <time>2018-05-19T13:24:31Z</time>
      </trkpt>
      <trkpt lat="44.09338" lon="3.07441">
        <ele>356.1</ele>
        <time>2018-05-19T13:24:32Z</time>
      </trkpt>
      <trkpt lat="44.09339" lon="3.07448">
        <ele>358.1</ele>
        <time>2018-05-19T13:24:34Z</time>
      </trkpt>
      <trkpt lat="44.09338" lon="3.07454">
        <ele>359</ele>
        <time>2018-05-19T13:24:35Z</time>
      </trkpt>
      <trkpt lat="44.09339" lon="3.07458">
        <ele>359</ele>
        <time>2018-05-19T13:24:37Z</time>
      </trkpt>
      <trkpt lat="44.09338" lon="3.07462">
        <ele>359</ele>
        <time>2018-05-19T13:24:38Z</time>
      </trkpt>
      <trkpt lat="44.09339" lon="3.07468">
        <ele>359</ele>
        <time>2018-05-19T13:24:41Z</time>
      </trkpt>
      <trkpt lat="44.09335" lon="3.07472">
        <ele>359</ele>
        <time>2018-05-19T13:24:42Z</time>
      </trkpt>
      <trkpt lat="44.09332" lon="3.07474">
        <ele>359</ele>
        <time>2018-05-19T13:24:43Z</time>
      </trkpt>
      <trkpt lat="44.0933" lon="3.07477">
        <ele>359</ele>
        <time>2018-05-19T13:24:44Z</time>
      </trkpt>
      <trkpt lat="44.09327" lon="3.0748">
        <ele>359</ele>
        <time>2018-05-19T13:24:45Z</time>
      </trkpt>
      <trkpt lat="44.09325" lon="3.07483">
        <ele>359.1</ele>
        <time>2018-05-19T13:24:46Z</time>
      </trkpt>
      <trkpt lat="44.09323" lon="3.07486">
        <ele>359.1</ele>
        <time>2018-05-19T13:24:47Z</time>
      </trkpt>
      <trkpt lat="44.0932" lon="3.07489">
        <ele>359.1</ele>
        <time>2018-05-19T13:24:48Z</time>
      </trkpt>
      <trkpt lat="44.09318" lon="3.07492">
        <ele>359.1</ele>
        <time>2018-05-19T13:24:49Z</time>
      </trkpt>
      <trkpt lat="44.09316" lon="3.07495">
        <ele>359.2</ele>
        <time>2018-05-19T13:24:50Z</time>
      </trkpt>
      <trkpt lat="44.09313" lon="3.07498">
        <ele>359.2</ele>
        <time>2018-05-19T13:24:51Z</time>
      </trkpt>
      <trkpt lat="44.0931" lon="3.07501">
        <ele>359.2</ele>
        <time>2018-05-19T13:24:52Z</time>
      </trkpt>
      <trkpt lat="44.09308" lon="3.07504">
        <ele>359.2</ele>
        <time>2018-05-19T13:24:53Z</time>
      </trkpt>
      <trkpt lat="44.09305" lon="3.07508">
        <ele>359.3</ele>
        <time>2018-05-19T13:24:54Z</time>
      </trkpt>
      <trkpt lat="44.09302" lon="3.07511">
        <ele>359.3</ele>
        <time>2018-05-19T13:24:55Z</time>
      </trkpt>
      <trkpt lat="44.09299" lon="3.07515">
        <ele>359.3</ele>
        <time>2018-05-19T13:24:56Z</time>
      </trkpt>
      <trkpt lat="44.09296" lon="3.07518">
        <ele>359.3</ele>
        <time>2018-05-19T13:24:57Z</time>
      </trkpt>
      <trkpt lat="44.09293" lon="3.07521">
        <ele>359.4</ele>
        <time>2018-05-19T13:24:58Z</time>
      </trkpt>
      <trkpt lat="44.0929" lon="3.07525">
        <ele>359.4</ele>
        <time>2018-05-19T13:24:59Z</time>
      </trkpt>
      <trkpt lat="44.09288" lon="3.07528">
        <ele>359.4</ele>
        <time>2018-05-19T13:25:00Z</time>
      </trkpt>
      <trkpt lat="44.09285" lon="3.07531">
        <ele>359.4</ele>
        <time>2018-05-19T13:25:01Z</time>
      </trkpt>
      <trkpt lat="44.09282" lon="3.07534">
        <ele>359.5</ele>
        <time>2018-05-19T13:25:02Z</time>
      </trkpt>
      <trkpt lat="44.09279" lon="3.07537">
        <ele>359.5</ele>
        <time>2018-05-19T13:25:03Z</time>
      </trkpt>
      <trkpt lat="44.09276" lon="3.07541">
        <ele>359.5</ele>
        <time>2018-05-19T13:25:04Z</time>
      </trkpt>
      <trkpt lat="44.09273" lon="3.07544">
        <ele>359.6</ele>
        <time>2018-05-19T13:25:05Z</time>
      </trkpt>
      <trkpt lat="44.0927" lon="3.07547">
        <ele>359.6</ele>
        <time>2018-05-19T13:25:06Z</time>
      </trkpt>
      <trkpt lat="44.09267" lon="3.07549">
        <ele>359.6</ele>
        <time>2018-05-19T13:25:07Z</time>
      </trkpt>
      <trkpt lat="44.09264" lon="3.07552">
        <ele>359.6</ele>
        <time>2018-05-19T13:25:08Z</time>
      </trkpt>
      <trkpt lat="44.0926" lon="3.07555">
        <ele>359.7</ele>
        <time>2018-05-19T13:25:09Z</time>
      </trkpt>
      <trkpt lat="44.09257" lon="3.07558">
        <ele>359.7</ele>
        <time>2018-05-19T13:25:10Z</time>
      </trkpt>
      <trkpt lat="44.09253" lon="3.07562">
        <ele>359.8</ele>
        <time>2018-05-19T13:25:11Z</time>
      </trkpt>
      <trkpt lat="44.09249" lon="3.07565">
        <ele>359.8</ele>
        <time>2018-05-19T13:25:12Z</time>
      </trkpt>
      <trkpt lat="44.09245" lon="3.07569">
        <ele>359.8</ele>
        <time>2018-05-19T13:25:13Z</time>
      </trkpt>
      <trkpt lat="44.09242" lon="3.07572">
        <ele>359.9</ele>
        <time>2018-05-19T13:25:14Z</time>
      </trkpt>
      <trkpt lat="44.09238" lon="3.07575">
        <ele>359.9</ele>
        <time>2018-05-19T13:25:15Z</time>
      </trkpt>
      <trkpt lat="44.09234" lon="3.07578">
        <ele>360</ele>
        <time>2018-05-19T13:25:16Z</time>
      </trkpt>
      <trkpt lat="44.0923" lon="3.07582">
        <ele>360</ele>
        <time>2018-05-19T13:25:17Z</time>
      </trkpt>
      <trkpt lat="44.09227" lon="3.07585">
        <ele>360</ele>
        <time>2018-05-19T13:25:18Z</time>
      </trkpt>
      <trkpt lat="44.09224" lon="3.07587">
        <ele>360</ele>
        <time>2018-05-19T13:25:19Z</time>
      </trkpt>
      <trkpt lat="44.09222" lon="3.07589">
        <ele>360</ele>
        <time>2018-05-19T13:25:20Z</time>
      </trkpt>
      <trkpt lat="44.09218" lon="3.07592">
        <ele>360</ele>
        <time>2018-05-19T13:25:21Z</time>
      </trkpt>
      <trkpt lat="44.09215" lon="3.07594">
        <ele>360</ele>
        <time>2018-05-19T13:25:22Z</time>
      </trkpt>
      <trkpt lat="44.09213" lon="3.07597">
        <ele>360</ele>
        <time>2018-05-19T13:25:23Z</time>
      </trkpt>
      <trkpt lat="44.0921" lon="3.07599">
        <ele>360</ele>
        <time>2018-05-19T13:25:24Z</time>
      </trkpt>
      <trkpt lat="44.09207" lon="3.07602">
        <ele>360</ele>
        <time>2018-05-19T13:25:26Z</time>
      </trkpt>
      <trkpt lat="44.09207" lon="3.07606">
        <ele>360</ele>
        <time>2018-05-19T13:25:28Z</time>
      </trkpt>
      <trkpt lat="44.09209" lon="3.07611">
        <ele>360</ele>
        <time>2018-05-19T13:25:30Z</time>
      </trkpt>
      <trkpt lat="44.09211" lon="3.07617">
        <ele>360</ele>
        <time>2018-05-19T13:25:32Z</time>
      </trkpt>
      <trkpt lat="44.0921" lon="3.07622">
        <ele>360</ele>
        <time>2018-05-19T13:25:34Z</time>
      </trkpt>
      <trkpt lat="44.09205" lon="3.07627">
        <ele>360.3</ele>
        <time>2018-05-19T13:25:36Z</time>
      </trkpt>
      <trkpt lat="44.09203" lon="3.0763">
        <ele>360.4</ele>
        <time>2018-05-19T13:25:37Z</time>
      </trkpt>
      <trkpt lat="44.092" lon="3.07634">
        <ele>360.5</ele>
        <time>2018-05-19T13:25:38Z</time>
      </trkpt>
      <trkpt lat="44.09198" lon="3.07637">
        <ele>360.6</ele>
        <time>2018-05-19T13:25:39Z</time>
      </trkpt>
      <trkpt lat="44.09196" lon="3.07639">
        <ele>360.7</ele>
        <time>2018-05-19T13:25:40Z</time>
      </trkpt>
      <trkpt lat="44.09192" lon="3.07645">
        <ele>360.9</ele>
        <time>2018-05-19T13:25:42Z</time>
      </trkpt>
      <trkpt lat="44.09189" lon="3.07649">
        <ele>361.1</ele>
        <time>2018-05-19T13:25:43Z</time>
      </trkpt>
      <trkpt lat="44.09185" lon="3.07653">
        <ele>361.2</ele>
        <time>2018-05-19T13:25:45Z</time>
      </trkpt>
      <trkpt lat="44.09183" lon="3.07656">
        <ele>361.4</ele>
        <time>2018-05-19T13:25:46Z</time>
      </trkpt>
      <trkpt lat="44.0918" lon="3.0766">
        <ele>361.6</ele>
        <time>2018-05-19T13:25:47Z</time>
      </trkpt>
      <trkpt lat="44.09176" lon="3.07663">
        <ele>362</ele>
        <time>2018-05-19T13:25:48Z</time>
      </trkpt>
      <trkpt lat="44.09172" lon="3.07666">
        <ele>362.1</ele>
        <time>2018-05-19T13:25:49Z</time>
      </trkpt>
      <trkpt lat="44.09169" lon="3.07668">
        <ele>362.2</ele>
        <time>2018-05-19T13:25:50Z</time>
      </trkpt>
      <trkpt lat="44.09165" lon="3.07672">
        <ele>362.3</ele>
        <time>2018-05-19T13:25:52Z</time>
      </trkpt>
      <trkpt lat="44.0916" lon="3.07679">
        <ele>362.6</ele>
        <time>2018-05-19T13:25:54Z</time>
      </trkpt>
      <trkpt lat="44.09158" lon="3.07683">
        <ele>362.7</ele>
        <time>2018-05-19T13:25:58Z</time>
      </trkpt>
      <trkpt lat="44.09156" lon="3.07686">
        <ele>362.8</ele>
        <time>2018-05-19T13:25:59Z</time>
      </trkpt>
      <trkpt lat="44.09154" lon="3.07693">
        <ele>362.9</ele>
        <time>2018-05-19T13:26:00Z</time>
      </trkpt>
      <trkpt lat="44.09153" lon="3.077">
        <ele>363</ele>
        <time>2018-05-19T13:26:01Z</time>
      </trkpt>
      <trkpt lat="44.09152" lon="3.07707">
        <ele>363</ele>
        <time>2018-05-19T13:26:02Z</time>
      </trkpt>
      <trkpt lat="44.09151" lon="3.07713">
        <ele>363</ele>
        <time>2018-05-19T13:26:03Z</time>
      </trkpt>
      <trkpt lat="44.0915" lon="3.07719">
        <ele>363</ele>
        <time>2018-05-19T13:26:04Z</time>
      </trkpt>
      <trkpt lat="44.09149" lon="3.07723">
        <ele>363</ele>
        <time>2018-05-19T13:26:05Z</time>
      </trkpt>
      <trkpt lat="44.09147" lon="3.07726">
        <ele>363</ele>
        <time>2018-05-19T13:26:06Z</time>
      </trkpt>
      <trkpt lat="44.09144" lon="3.07729">
        <ele>363</ele>
        <time>2018-05-19T13:26:07Z</time>
      </trkpt>
      <trkpt lat="44.09139" lon="3.07733">
        <ele>363</ele>
        <time>2018-05-19T13:26:08Z</time>
      </trkpt>
      <trkpt lat="44.09135" lon="3.07735">
        <ele>362.9</ele>
        <time>2018-05-19T13:26:09Z</time>
      </trkpt>
      <trkpt lat="44.0913" lon="3.07737">
        <ele>362.7</ele>
        <time>2018-05-19T13:26:10Z</time>
      </trkpt>
      <trkpt lat="44.09126" lon="3.07739">
        <ele>362.5</ele>
        <time>2018-05-19T13:26:11Z</time>
      </trkpt>
      <trkpt lat="44.09122" lon="3.07741">
        <ele>362.4</ele>
        <time>2018-05-19T13:26:12Z</time>
      </trkpt>
      <trkpt lat="44.09118" lon="3.07742">
        <ele>362.2</ele>
        <time>2018-05-19T13:26:13Z</time>
      </trkpt>
      <trkpt lat="44.09114" lon="3.07744">
        <ele>362.1</ele>
        <time>2018-05-19T13:26:14Z</time>
      </trkpt>
      <trkpt lat="44.09111" lon="3.07747">
        <ele>362</ele>
        <time>2018-05-19T13:26:15Z</time>
      </trkpt>
      <trkpt lat="44.09109" lon="3.0775">
        <ele>361.9</ele>
        <time>2018-05-19T13:26:16Z</time>
      </trkpt>
      <trkpt lat="44.09107" lon="3.07752">
        <ele>361.7</ele>
        <time>2018-05-19T13:26:17Z</time>
      </trkpt>
      <trkpt lat="44.09104" lon="3.07754">
        <ele>361.6</ele>
        <time>2018-05-19T13:26:21Z</time>
      </trkpt>
      <trkpt lat="44.09101" lon="3.07754">
        <ele>361.5</ele>
        <time>2018-05-19T13:26:26Z</time>
      </trkpt>
      <trkpt lat="44.09102" lon="3.07758">
        <ele>361.4</ele>
        <time>2018-05-19T13:26:39Z</time>
      </trkpt>
      <trkpt lat="44.09099" lon="3.07759">
        <ele>361.3</ele>
        <time>2018-05-19T13:26:45Z</time>
      </trkpt>
    </trkseg>
  </trk>
</gpx>